<?xml version="1.0" encoding="UTF-8" standalone="no" ?>
<gpx xmlns="http://www.topografix.com/GPX/1/1" xmlns:xsi="http://www.w3.org/2001/XMLSchema-instance" xsi:schemaLocation="http://www.topografix.com/GPX/1/1 http://www.topografix.com/GPX/1/1/gpx.xsd" version="1.1" creator="VisuGPX - https://www.visugpx.com">
  <metadata>
    <name>GR5, j19, refuge de Rosuel &gt; refuge de la Balme Tarentaise</name>
    <desc><![CDATA[Merci au gentil automobiliste qui nous a emmenés de Peisey-Nancroix à Bellentre.]]></desc>
  </metadata>
  <trk>
    <name><![CDATA[GR5, j19, refuge de Rosuel > refuge de la Balme Tarentaise_1]]></name>
    <trkseg>
      <trkpt lat="45.5188" lon="6.80411">
        <ele>1561.5523846409</ele>
        <time>2019-07-06T05:03:18Z</time>
      </trkpt>
      <trkpt lat="45.51875" lon="6.80406">
        <ele>1546.6615848829</ele>
        <time>2019-07-06T05:03:19Z</time>
      </trkpt>
      <trkpt lat="45.51876" lon="6.80405">
        <ele>1561.5525002744</ele>
        <time>2019-07-06T05:03:20Z</time>
      </trkpt>
      <trkpt lat="45.51876" lon="6.80405">
        <ele>1549.5858406114</ele>
        <time>2019-07-06T05:03:22Z</time>
      </trkpt>
      <trkpt lat="45.51878" lon="6.80403">
        <ele>1561.5525131097</ele>
        <time>2019-07-06T05:03:24Z</time>
      </trkpt>
      <trkpt lat="45.51878" lon="6.80401">
        <ele>1561.5525131213</ele>
        <time>2019-07-06T05:03:25Z</time>
      </trkpt>
      <trkpt lat="45.5188" lon="6.80399">
        <ele>1561.5525131225</ele>
        <time>2019-07-06T05:03:27Z</time>
      </trkpt>
      <trkpt lat="45.51882" lon="6.80397">
        <ele>1561.5525131226</ele>
        <time>2019-07-06T05:03:29Z</time>
      </trkpt>
      <trkpt lat="45.51883" lon="6.80394">
        <ele>1561.5525131226</ele>
        <time>2019-07-06T05:03:31Z</time>
      </trkpt>
      <trkpt lat="45.51882" lon="6.8039">
        <ele>1561.5525131226</ele>
        <time>2019-07-06T05:03:33Z</time>
      </trkpt>
      <trkpt lat="45.51882" lon="6.80387">
        <ele>1555.2238710385</ele>
        <time>2019-07-06T05:03:35Z</time>
      </trkpt>
      <trkpt lat="45.51883" lon="6.80384">
        <ele>1560.366299454</ele>
        <time>2019-07-06T05:03:37Z</time>
      </trkpt>
      <trkpt lat="45.51883" lon="6.8038">
        <ele>1558.8731305723</ele>
        <time>2019-07-06T05:03:39Z</time>
      </trkpt>
      <trkpt lat="45.51883" lon="6.80375">
        <ele>1557.0586782814</ele>
        <time>2019-07-06T05:03:41Z</time>
      </trkpt>
      <trkpt lat="45.51883" lon="6.80372">
        <ele>1555.1985220398</ele>
        <time>2019-07-06T05:03:43Z</time>
      </trkpt>
      <trkpt lat="45.51884" lon="6.80368">
        <ele>1553.7948344244</ele>
        <time>2019-07-06T05:03:46Z</time>
      </trkpt>
      <trkpt lat="45.51884" lon="6.80364">
        <ele>1552.2091770582</ele>
        <time>2019-07-06T05:03:48Z</time>
      </trkpt>
      <trkpt lat="45.51885" lon="6.80361">
        <ele>1550.9778151135</ele>
        <time>2019-07-06T05:03:50Z</time>
      </trkpt>
      <trkpt lat="45.51886" lon="6.80358">
        <ele>1550.2183872362</ele>
        <time>2019-07-06T05:03:52Z</time>
      </trkpt>
      <trkpt lat="45.51887" lon="6.80355">
        <ele>1550.2084968149</ele>
        <time>2019-07-06T05:03:54Z</time>
      </trkpt>
      <trkpt lat="45.51888" lon="6.8035">
        <ele>1550.2083979107</ele>
        <time>2019-07-06T05:03:56Z</time>
      </trkpt>
      <trkpt lat="45.51888" lon="6.80347">
        <ele>1550.2083969216</ele>
        <time>2019-07-06T05:03:58Z</time>
      </trkpt>
      <trkpt lat="45.51888" lon="6.80343">
        <ele>1550.2083969117</ele>
        <time>2019-07-06T05:04:00Z</time>
      </trkpt>
      <trkpt lat="45.51888" lon="6.80338">
        <ele>1550.2083969116</ele>
        <time>2019-07-06T05:04:02Z</time>
      </trkpt>
      <trkpt lat="45.51887" lon="6.80333">
        <ele>1550.2083969116</ele>
        <time>2019-07-06T05:04:04Z</time>
      </trkpt>
      <trkpt lat="45.51886" lon="6.80331">
        <ele>1550.2083969116</ele>
        <time>2019-07-06T05:04:05Z</time>
      </trkpt>
      <trkpt lat="45.51886" lon="6.80327">
        <ele>1550.2083969116</ele>
        <time>2019-07-06T05:04:07Z</time>
      </trkpt>
      <trkpt lat="45.51885" lon="6.80322">
        <ele>1550.2083969116</ele>
        <time>2019-07-06T05:04:09Z</time>
      </trkpt>
      <trkpt lat="45.51886" lon="6.80319">
        <ele>1550.2083969116</ele>
        <time>2019-07-06T05:04:11Z</time>
      </trkpt>
      <trkpt lat="45.51886" lon="6.80315">
        <ele>1550.2083969116</ele>
        <time>2019-07-06T05:04:13Z</time>
      </trkpt>
      <trkpt lat="45.51885" lon="6.80312">
        <ele>1550.2083969116</ele>
        <time>2019-07-06T05:04:15Z</time>
      </trkpt>
      <trkpt lat="45.51884" lon="6.80309">
        <ele>1550.2083969116</ele>
        <time>2019-07-06T05:04:17Z</time>
      </trkpt>
      <trkpt lat="45.51885" lon="6.80306">
        <ele>1550.2083969116</ele>
        <time>2019-07-06T05:04:19Z</time>
      </trkpt>
      <trkpt lat="45.51885" lon="6.80301">
        <ele>1550.2083969116</ele>
        <time>2019-07-06T05:04:21Z</time>
      </trkpt>
      <trkpt lat="45.51885" lon="6.80297">
        <ele>1550.2083969116</ele>
        <time>2019-07-06T05:04:23Z</time>
      </trkpt>
      <trkpt lat="45.51886" lon="6.80293">
        <ele>1550.2083969116</ele>
        <time>2019-07-06T05:04:25Z</time>
      </trkpt>
      <trkpt lat="45.51886" lon="6.80289">
        <ele>1550.2083969116</ele>
        <time>2019-07-06T05:04:27Z</time>
      </trkpt>
      <trkpt lat="45.51885" lon="6.80286">
        <ele>1550.2083969116</ele>
        <time>2019-07-06T05:04:29Z</time>
      </trkpt>
      <trkpt lat="45.51884" lon="6.80281">
        <ele>1550.2083969116</ele>
        <time>2019-07-06T05:04:31Z</time>
      </trkpt>
      <trkpt lat="45.51884" lon="6.80276">
        <ele>1550.2083969116</ele>
        <time>2019-07-06T05:04:33Z</time>
      </trkpt>
      <trkpt lat="45.51885" lon="6.80272">
        <ele>1550.2083969116</ele>
        <time>2019-07-06T05:04:35Z</time>
      </trkpt>
      <trkpt lat="45.51885" lon="6.80269">
        <ele>1550.2083969116</ele>
        <time>2019-07-06T05:04:37Z</time>
      </trkpt>
      <trkpt lat="45.51886" lon="6.80267">
        <ele>1550.2083969116</ele>
        <time>2019-07-06T05:04:39Z</time>
      </trkpt>
      <trkpt lat="45.51886" lon="6.80263">
        <ele>1550.2083969116</ele>
        <time>2019-07-06T05:04:41Z</time>
      </trkpt>
      <trkpt lat="45.51886" lon="6.80259">
        <ele>1550.2083969116</ele>
        <time>2019-07-06T05:04:43Z</time>
      </trkpt>
      <trkpt lat="45.51887" lon="6.80255">
        <ele>1550.2083969116</ele>
        <time>2019-07-06T05:04:45Z</time>
      </trkpt>
      <trkpt lat="45.51887" lon="6.80253">
        <ele>1550.2083969116</ele>
        <time>2019-07-06T05:04:46Z</time>
      </trkpt>
      <trkpt lat="45.51888" lon="6.80249">
        <ele>1550.2083969116</ele>
        <time>2019-07-06T05:04:48Z</time>
      </trkpt>
      <trkpt lat="45.5189" lon="6.80246">
        <ele>1550.2083969116</ele>
        <time>2019-07-06T05:04:50Z</time>
      </trkpt>
      <trkpt lat="45.51893" lon="6.80244">
        <ele>1550.2083969116</ele>
        <time>2019-07-06T05:04:52Z</time>
      </trkpt>
      <trkpt lat="45.51897" lon="6.80243">
        <ele>1550.2083969116</ele>
        <time>2019-07-06T05:04:54Z</time>
      </trkpt>
      <trkpt lat="45.51899" lon="6.80243">
        <ele>1550.2083969116</ele>
        <time>2019-07-06T05:04:55Z</time>
      </trkpt>
      <trkpt lat="45.51902" lon="6.80243">
        <ele>1550.2083969116</ele>
        <time>2019-07-06T05:04:57Z</time>
      </trkpt>
      <trkpt lat="45.51903" lon="6.80242">
        <ele>1550.2083969116</ele>
        <time>2019-07-06T05:04:58Z</time>
      </trkpt>
      <trkpt lat="45.51905" lon="6.80241">
        <ele>1550.2083969116</ele>
        <time>2019-07-06T05:05:00Z</time>
      </trkpt>
      <trkpt lat="45.51908" lon="6.80239">
        <ele>1550.2083969116</ele>
        <time>2019-07-06T05:05:02Z</time>
      </trkpt>
      <trkpt lat="45.51911" lon="6.80238">
        <ele>1550.2083969116</ele>
        <time>2019-07-06T05:05:04Z</time>
      </trkpt>
      <trkpt lat="45.51913" lon="6.80237">
        <ele>1550.2083969116</ele>
        <time>2019-07-06T05:05:05Z</time>
      </trkpt>
      <trkpt lat="45.51916" lon="6.80237">
        <ele>1550.2083969116</ele>
        <time>2019-07-06T05:05:07Z</time>
      </trkpt>
      <trkpt lat="45.51918" lon="6.80237">
        <ele>1550.2083969116</ele>
        <time>2019-07-06T05:05:09Z</time>
      </trkpt>
      <trkpt lat="45.5192" lon="6.80238">
        <ele>1550.2083969116</ele>
        <time>2019-07-06T05:05:11Z</time>
      </trkpt>
      <trkpt lat="45.51923" lon="6.80239">
        <ele>1550.2083969116</ele>
        <time>2019-07-06T05:05:13Z</time>
      </trkpt>
      <trkpt lat="45.51926" lon="6.80241">
        <ele>1550.2083969116</ele>
        <time>2019-07-06T05:05:17Z</time>
      </trkpt>
      <trkpt lat="45.51928" lon="6.80242">
        <ele>1550.2083969116</ele>
        <time>2019-07-06T05:05:18Z</time>
      </trkpt>
      <trkpt lat="45.5193" lon="6.80244">
        <ele>1550.2083969116</ele>
        <time>2019-07-06T05:05:20Z</time>
      </trkpt>
      <trkpt lat="45.51932" lon="6.80246">
        <ele>1550.2083969116</ele>
        <time>2019-07-06T05:05:22Z</time>
      </trkpt>
      <trkpt lat="45.51935" lon="6.8025">
        <ele>1550.2083969116</ele>
        <time>2019-07-06T05:05:24Z</time>
      </trkpt>
      <trkpt lat="45.51937" lon="6.80253">
        <ele>1550.2083969116</ele>
        <time>2019-07-06T05:05:26Z</time>
      </trkpt>
      <trkpt lat="45.5194" lon="6.80255">
        <ele>1550.2083969116</ele>
        <time>2019-07-06T05:05:28Z</time>
      </trkpt>
      <trkpt lat="45.51942" lon="6.80258">
        <ele>1550.2083969116</ele>
        <time>2019-07-06T05:05:30Z</time>
      </trkpt>
      <trkpt lat="45.51945" lon="6.8026">
        <ele>1550.2083969116</ele>
        <time>2019-07-06T05:05:32Z</time>
      </trkpt>
      <trkpt lat="45.51946" lon="6.80261">
        <ele>1550.2083969116</ele>
        <time>2019-07-06T05:05:33Z</time>
      </trkpt>
      <trkpt lat="45.51948" lon="6.8026">
        <ele>1550.2083969116</ele>
        <time>2019-07-06T05:05:34Z</time>
      </trkpt>
      <trkpt lat="45.5195" lon="6.80261">
        <ele>1550.2083969116</ele>
        <time>2019-07-06T05:05:36Z</time>
      </trkpt>
      <trkpt lat="45.51952" lon="6.80262">
        <ele>1550.2083969116</ele>
        <time>2019-07-06T05:05:38Z</time>
      </trkpt>
      <trkpt lat="45.51954" lon="6.80264">
        <ele>1550.2083969116</ele>
        <time>2019-07-06T05:05:40Z</time>
      </trkpt>
      <trkpt lat="45.51956" lon="6.80265">
        <ele>1550.2083969116</ele>
        <time>2019-07-06T05:05:41Z</time>
      </trkpt>
      <trkpt lat="45.51958" lon="6.80265">
        <ele>1550.2083969116</ele>
        <time>2019-07-06T05:05:42Z</time>
      </trkpt>
      <trkpt lat="45.51961" lon="6.80266">
        <ele>1550.2083969116</ele>
        <time>2019-07-06T05:05:44Z</time>
      </trkpt>
      <trkpt lat="45.51963" lon="6.80267">
        <ele>1550.2083969116</ele>
        <time>2019-07-06T05:05:46Z</time>
      </trkpt>
      <trkpt lat="45.51966" lon="6.80268">
        <ele>1550.2083969116</ele>
        <time>2019-07-06T05:05:48Z</time>
      </trkpt>
      <trkpt lat="45.51968" lon="6.80269">
        <ele>1550.2083969116</ele>
        <time>2019-07-06T05:05:49Z</time>
      </trkpt>
      <trkpt lat="45.51971" lon="6.8027">
        <ele>1550.2083969116</ele>
        <time>2019-07-06T05:05:51Z</time>
      </trkpt>
      <trkpt lat="45.51973" lon="6.80271">
        <ele>1550.2083969116</ele>
        <time>2019-07-06T05:05:53Z</time>
      </trkpt>
      <trkpt lat="45.51976" lon="6.80271">
        <ele>1550.2083969116</ele>
        <time>2019-07-06T05:05:55Z</time>
      </trkpt>
      <trkpt lat="45.51978" lon="6.8027">
        <ele>1550.2083969116</ele>
        <time>2019-07-06T05:05:57Z</time>
      </trkpt>
      <trkpt lat="45.51979" lon="6.8027">
        <ele>1550.2083969116</ele>
        <time>2019-07-06T05:05:58Z</time>
      </trkpt>
      <trkpt lat="45.51981" lon="6.80271">
        <ele>1550.2083969116</ele>
        <time>2019-07-06T05:05:59Z</time>
      </trkpt>
      <trkpt lat="45.51983" lon="6.80272">
        <ele>1550.2083969116</ele>
        <time>2019-07-06T05:06:01Z</time>
      </trkpt>
      <trkpt lat="45.51985" lon="6.80272">
        <ele>1550.2083969116</ele>
        <time>2019-07-06T05:06:02Z</time>
      </trkpt>
      <trkpt lat="45.51988" lon="6.80272">
        <ele>1550.2083969116</ele>
        <time>2019-07-06T05:06:03Z</time>
      </trkpt>
      <trkpt lat="45.5199" lon="6.80272">
        <ele>1550.2083969116</ele>
        <time>2019-07-06T05:06:05Z</time>
      </trkpt>
      <trkpt lat="45.51992" lon="6.80272">
        <ele>1550.2083969116</ele>
        <time>2019-07-06T05:06:06Z</time>
      </trkpt>
      <trkpt lat="45.51994" lon="6.80272">
        <ele>1550.2083969116</ele>
        <time>2019-07-06T05:06:08Z</time>
      </trkpt>
      <trkpt lat="45.51998" lon="6.80273">
        <ele>1550.2083969116</ele>
        <time>2019-07-06T05:06:10Z</time>
      </trkpt>
      <trkpt lat="45.52" lon="6.80274">
        <ele>1550.2083969116</ele>
        <time>2019-07-06T05:06:12Z</time>
      </trkpt>
      <trkpt lat="45.52001" lon="6.80275">
        <ele>1550.2083969116</ele>
        <time>2019-07-06T05:06:13Z</time>
      </trkpt>
      <trkpt lat="45.52003" lon="6.80276">
        <ele>1550.2083969116</ele>
        <time>2019-07-06T05:06:14Z</time>
      </trkpt>
      <trkpt lat="45.52005" lon="6.80278">
        <ele>1550.2083969116</ele>
        <time>2019-07-06T05:06:16Z</time>
      </trkpt>
      <trkpt lat="45.52008" lon="6.80281">
        <ele>1550.2083969116</ele>
        <time>2019-07-06T05:06:18Z</time>
      </trkpt>
      <trkpt lat="45.52011" lon="6.80281">
        <ele>1550.2083969116</ele>
        <time>2019-07-06T05:06:20Z</time>
      </trkpt>
      <trkpt lat="45.52013" lon="6.80282">
        <ele>1550.2083969116</ele>
        <time>2019-07-06T05:06:22Z</time>
      </trkpt>
      <trkpt lat="45.52015" lon="6.80282">
        <ele>1550.2083969116</ele>
        <time>2019-07-06T05:06:23Z</time>
      </trkpt>
      <trkpt lat="45.52016" lon="6.80284">
        <ele>1550.2083969116</ele>
        <time>2019-07-06T05:06:24Z</time>
      </trkpt>
      <trkpt lat="45.52019" lon="6.80284">
        <ele>1550.2083969116</ele>
        <time>2019-07-06T05:06:26Z</time>
      </trkpt>
      <trkpt lat="45.52021" lon="6.80285">
        <ele>1550.2083969116</ele>
        <time>2019-07-06T05:06:29Z</time>
      </trkpt>
      <trkpt lat="45.52024" lon="6.80286">
        <ele>1550.2083969116</ele>
        <time>2019-07-06T05:06:31Z</time>
      </trkpt>
      <trkpt lat="45.52026" lon="6.80287">
        <ele>1550.2083969116</ele>
        <time>2019-07-06T05:06:33Z</time>
      </trkpt>
      <trkpt lat="45.52028" lon="6.8029">
        <ele>1550.2083969116</ele>
        <time>2019-07-06T05:06:35Z</time>
      </trkpt>
      <trkpt lat="45.52031" lon="6.80291">
        <ele>1550.2083969116</ele>
        <time>2019-07-06T05:06:37Z</time>
      </trkpt>
      <trkpt lat="45.52034" lon="6.80289">
        <ele>1550.2083969116</ele>
        <time>2019-07-06T05:06:39Z</time>
      </trkpt>
      <trkpt lat="45.52035" lon="6.80291">
        <ele>1550.2083969116</ele>
        <time>2019-07-06T05:06:45Z</time>
      </trkpt>
      <trkpt lat="45.52036" lon="6.80294">
        <ele>1550.2083969116</ele>
        <time>2019-07-06T05:06:49Z</time>
      </trkpt>
      <trkpt lat="45.52035" lon="6.80291">
        <ele>1550.2083969116</ele>
        <time>2019-07-06T05:06:54Z</time>
      </trkpt>
      <trkpt lat="45.52035" lon="6.80288">
        <ele>1550.2083969116</ele>
        <time>2019-07-06T05:06:55Z</time>
      </trkpt>
      <trkpt lat="45.52036" lon="6.80284">
        <ele>1550.2083969116</ele>
        <time>2019-07-06T05:06:57Z</time>
      </trkpt>
      <trkpt lat="45.52036" lon="6.80281">
        <ele>1550.2083969116</ele>
        <time>2019-07-06T05:06:58Z</time>
      </trkpt>
      <trkpt lat="45.52037" lon="6.80278">
        <ele>1550.2083969116</ele>
        <time>2019-07-06T05:06:59Z</time>
      </trkpt>
      <trkpt lat="45.52038" lon="6.80274">
        <ele>1550.2083969116</ele>
        <time>2019-07-06T05:07:01Z</time>
      </trkpt>
      <trkpt lat="45.52039" lon="6.8027">
        <ele>1550.2083969116</ele>
        <time>2019-07-06T05:07:03Z</time>
      </trkpt>
      <trkpt lat="45.52039" lon="6.80267">
        <ele>1550.2083969116</ele>
        <time>2019-07-06T05:07:05Z</time>
      </trkpt>
      <trkpt lat="45.5204" lon="6.80264">
        <ele>1550.2083969116</ele>
        <time>2019-07-06T05:07:07Z</time>
      </trkpt>
      <trkpt lat="45.52041" lon="6.80261">
        <ele>1550.2083969116</ele>
        <time>2019-07-06T05:07:08Z</time>
      </trkpt>
      <trkpt lat="45.52041" lon="6.80257">
        <ele>1550.2083969116</ele>
        <time>2019-07-06T05:07:10Z</time>
      </trkpt>
      <trkpt lat="45.52042" lon="6.80253">
        <ele>1550.2083969116</ele>
        <time>2019-07-06T05:07:12Z</time>
      </trkpt>
      <trkpt lat="45.52042" lon="6.80249">
        <ele>1550.2083969116</ele>
        <time>2019-07-06T05:07:14Z</time>
      </trkpt>
      <trkpt lat="45.52043" lon="6.80245">
        <ele>1550.2083969116</ele>
        <time>2019-07-06T05:07:16Z</time>
      </trkpt>
      <trkpt lat="45.52044" lon="6.8024">
        <ele>1550.2083969116</ele>
        <time>2019-07-06T05:07:18Z</time>
      </trkpt>
      <trkpt lat="45.52044" lon="6.80238">
        <ele>1550.2083969116</ele>
        <time>2019-07-06T05:07:20Z</time>
      </trkpt>
      <trkpt lat="45.52045" lon="6.80235">
        <ele>1550.2083969116</ele>
        <time>2019-07-06T05:07:22Z</time>
      </trkpt>
      <trkpt lat="45.52046" lon="6.80232">
        <ele>1550.2083969116</ele>
        <time>2019-07-06T05:07:23Z</time>
      </trkpt>
      <trkpt lat="45.52047" lon="6.80227">
        <ele>1550.2083969116</ele>
        <time>2019-07-06T05:07:25Z</time>
      </trkpt>
      <trkpt lat="45.52047" lon="6.80222">
        <ele>1550.2083969116</ele>
        <time>2019-07-06T05:07:27Z</time>
      </trkpt>
      <trkpt lat="45.52048" lon="6.80218">
        <ele>1550.2083969116</ele>
        <time>2019-07-06T05:07:29Z</time>
      </trkpt>
      <trkpt lat="45.5205" lon="6.80214">
        <ele>1550.2083969116</ele>
        <time>2019-07-06T05:07:31Z</time>
      </trkpt>
      <trkpt lat="45.52051" lon="6.8021">
        <ele>1550.2083969116</ele>
        <time>2019-07-06T05:07:33Z</time>
      </trkpt>
      <trkpt lat="45.52051" lon="6.80206">
        <ele>1550.2083969116</ele>
        <time>2019-07-06T05:07:35Z</time>
      </trkpt>
      <trkpt lat="45.52051" lon="6.80201">
        <ele>1550.2083969116</ele>
        <time>2019-07-06T05:07:37Z</time>
      </trkpt>
      <trkpt lat="45.52051" lon="6.80196">
        <ele>1550.2083969116</ele>
        <time>2019-07-06T05:07:39Z</time>
      </trkpt>
      <trkpt lat="45.52051" lon="6.80191">
        <ele>1550.2083969116</ele>
        <time>2019-07-06T05:07:41Z</time>
      </trkpt>
      <trkpt lat="45.52052" lon="6.80188">
        <ele>1550.2083969116</ele>
        <time>2019-07-06T05:07:43Z</time>
      </trkpt>
      <trkpt lat="45.52053" lon="6.80185">
        <ele>1550.2083969116</ele>
        <time>2019-07-06T05:07:45Z</time>
      </trkpt>
      <trkpt lat="45.52054" lon="6.80181">
        <ele>1550.2083969116</ele>
        <time>2019-07-06T05:07:47Z</time>
      </trkpt>
      <trkpt lat="45.52053" lon="6.80177">
        <ele>1550.2083969116</ele>
        <time>2019-07-06T05:07:49Z</time>
      </trkpt>
      <trkpt lat="45.52053" lon="6.80174">
        <ele>1550.2083969116</ele>
        <time>2019-07-06T05:07:50Z</time>
      </trkpt>
      <trkpt lat="45.52055" lon="6.80169">
        <ele>1550.2083969116</ele>
        <time>2019-07-06T05:07:52Z</time>
      </trkpt>
      <trkpt lat="45.52055" lon="6.80166">
        <ele>1550.2083969116</ele>
        <time>2019-07-06T05:07:54Z</time>
      </trkpt>
      <trkpt lat="45.52056" lon="6.80161">
        <ele>1550.2083969116</ele>
        <time>2019-07-06T05:07:56Z</time>
      </trkpt>
      <trkpt lat="45.52056" lon="6.80157">
        <ele>1550.2083969116</ele>
        <time>2019-07-06T05:07:58Z</time>
      </trkpt>
      <trkpt lat="45.52057" lon="6.80153">
        <ele>1550.2083969116</ele>
        <time>2019-07-06T05:08:00Z</time>
      </trkpt>
      <trkpt lat="45.52058" lon="6.80149">
        <ele>1550.2083969116</ele>
        <time>2019-07-06T05:08:02Z</time>
      </trkpt>
      <trkpt lat="45.52059" lon="6.80145">
        <ele>1550.2083969116</ele>
        <time>2019-07-06T05:08:04Z</time>
      </trkpt>
      <trkpt lat="45.5206" lon="6.80143">
        <ele>1550.2083969116</ele>
        <time>2019-07-06T05:08:05Z</time>
      </trkpt>
      <trkpt lat="45.52062" lon="6.80139">
        <ele>1550.2083969116</ele>
        <time>2019-07-06T05:08:07Z</time>
      </trkpt>
      <trkpt lat="45.52062" lon="6.80136">
        <ele>1550.2083969116</ele>
        <time>2019-07-06T05:08:09Z</time>
      </trkpt>
      <trkpt lat="45.52064" lon="6.80132">
        <ele>1550.2083969116</ele>
        <time>2019-07-06T05:08:11Z</time>
      </trkpt>
      <trkpt lat="45.52065" lon="6.80128">
        <ele>1550.2083969116</ele>
        <time>2019-07-06T05:08:13Z</time>
      </trkpt>
      <trkpt lat="45.52065" lon="6.80125">
        <ele>1550.2083969116</ele>
        <time>2019-07-06T05:08:14Z</time>
      </trkpt>
      <trkpt lat="45.52066" lon="6.80123">
        <ele>1550.2083969116</ele>
        <time>2019-07-06T05:08:15Z</time>
      </trkpt>
      <trkpt lat="45.52068" lon="6.80119">
        <ele>1550.2083969116</ele>
        <time>2019-07-06T05:08:17Z</time>
      </trkpt>
      <trkpt lat="45.52069" lon="6.80116">
        <ele>1550.2083969116</ele>
        <time>2019-07-06T05:08:18Z</time>
      </trkpt>
      <trkpt lat="45.5207" lon="6.80114">
        <ele>1550.2083969116</ele>
        <time>2019-07-06T05:08:20Z</time>
      </trkpt>
      <trkpt lat="45.52072" lon="6.80111">
        <ele>1550.2083969116</ele>
        <time>2019-07-06T05:08:22Z</time>
      </trkpt>
      <trkpt lat="45.52073" lon="6.80107">
        <ele>1550.2083969116</ele>
        <time>2019-07-06T05:08:24Z</time>
      </trkpt>
      <trkpt lat="45.52074" lon="6.80104">
        <ele>1550.2083969116</ele>
        <time>2019-07-06T05:08:25Z</time>
      </trkpt>
      <trkpt lat="45.52076" lon="6.80101">
        <ele>1550.2083969116</ele>
        <time>2019-07-06T05:08:27Z</time>
      </trkpt>
      <trkpt lat="45.52077" lon="6.80098">
        <ele>1550.2083969116</ele>
        <time>2019-07-06T05:08:28Z</time>
      </trkpt>
      <trkpt lat="45.52079" lon="6.80095">
        <ele>1550.2083969116</ele>
        <time>2019-07-06T05:08:30Z</time>
      </trkpt>
      <trkpt lat="45.5208" lon="6.80093">
        <ele>1550.2083969116</ele>
        <time>2019-07-06T05:08:32Z</time>
      </trkpt>
      <trkpt lat="45.52083" lon="6.80089">
        <ele>1550.2083969116</ele>
        <time>2019-07-06T05:08:34Z</time>
      </trkpt>
      <trkpt lat="45.52085" lon="6.80086">
        <ele>1550.2083969116</ele>
        <time>2019-07-06T05:08:36Z</time>
      </trkpt>
      <trkpt lat="45.52087" lon="6.80084">
        <ele>1550.2083969116</ele>
        <time>2019-07-06T05:08:37Z</time>
      </trkpt>
      <trkpt lat="45.52088" lon="6.8008">
        <ele>1550.2083969116</ele>
        <time>2019-07-06T05:08:39Z</time>
      </trkpt>
      <trkpt lat="45.52089" lon="6.80078">
        <ele>1550.2083969116</ele>
        <time>2019-07-06T05:08:40Z</time>
      </trkpt>
      <trkpt lat="45.52091" lon="6.80074">
        <ele>1550.2083969116</ele>
        <time>2019-07-06T05:08:42Z</time>
      </trkpt>
      <trkpt lat="45.52091" lon="6.80071">
        <ele>1550.2083969116</ele>
        <time>2019-07-06T05:08:44Z</time>
      </trkpt>
      <trkpt lat="45.52093" lon="6.80067">
        <ele>1550.2083969116</ele>
        <time>2019-07-06T05:08:47Z</time>
      </trkpt>
      <trkpt lat="45.52094" lon="6.80063">
        <ele>1550.2083969116</ele>
        <time>2019-07-06T05:08:49Z</time>
      </trkpt>
      <trkpt lat="45.52095" lon="6.8006">
        <ele>1550.2083969116</ele>
        <time>2019-07-06T05:08:51Z</time>
      </trkpt>
      <trkpt lat="45.52095" lon="6.80055">
        <ele>1550.2083969116</ele>
        <time>2019-07-06T05:08:53Z</time>
      </trkpt>
      <trkpt lat="45.52096" lon="6.80052">
        <ele>1550.2083969116</ele>
        <time>2019-07-06T05:08:55Z</time>
      </trkpt>
      <trkpt lat="45.52097" lon="6.80047">
        <ele>1550.2083969116</ele>
        <time>2019-07-06T05:08:57Z</time>
      </trkpt>
      <trkpt lat="45.52098" lon="6.80043">
        <ele>1550.2083969116</ele>
        <time>2019-07-06T05:08:59Z</time>
      </trkpt>
      <trkpt lat="45.52099" lon="6.80039">
        <ele>1550.2083969116</ele>
        <time>2019-07-06T05:09:01Z</time>
      </trkpt>
      <trkpt lat="45.521" lon="6.80035">
        <ele>1550.2083969116</ele>
        <time>2019-07-06T05:09:03Z</time>
      </trkpt>
      <trkpt lat="45.52101" lon="6.80031">
        <ele>1550.2083969116</ele>
        <time>2019-07-06T05:09:05Z</time>
      </trkpt>
      <trkpt lat="45.52102" lon="6.80027">
        <ele>1550.2083969116</ele>
        <time>2019-07-06T05:09:07Z</time>
      </trkpt>
      <trkpt lat="45.52103" lon="6.80025">
        <ele>1550.0724960327</ele>
        <time>2019-07-06T05:09:08Z</time>
      </trkpt>
      <trkpt lat="45.52103" lon="6.80022">
        <ele>1548.4394475708</ele>
        <time>2019-07-06T05:09:10Z</time>
      </trkpt>
      <trkpt lat="45.52105" lon="6.80019">
        <ele>1547.3762628381</ele>
        <time>2019-07-06T05:09:12Z</time>
      </trkpt>
      <trkpt lat="45.52106" lon="6.80017">
        <ele>1546.7859501058</ele>
        <time>2019-07-06T05:09:13Z</time>
      </trkpt>
      <trkpt lat="45.52107" lon="6.80014">
        <ele>1545.8662498873</ele>
        <time>2019-07-06T05:09:14Z</time>
      </trkpt>
      <trkpt lat="45.52109" lon="6.80012">
        <ele>1544.7291504709</ele>
        <time>2019-07-06T05:09:15Z</time>
      </trkpt>
      <trkpt lat="45.52111" lon="6.80009">
        <ele>1543.0817819374</ele>
        <time>2019-07-06T05:09:17Z</time>
      </trkpt>
      <trkpt lat="45.52112" lon="6.80006">
        <ele>1541.9906476076</ele>
        <time>2019-07-06T05:09:19Z</time>
      </trkpt>
      <trkpt lat="45.52114" lon="6.80003">
        <ele>1540.5960961276</ele>
        <time>2019-07-06T05:09:21Z</time>
      </trkpt>
      <trkpt lat="45.52116" lon="6.80001">
        <ele>1539.7502328882</ele>
        <time>2019-07-06T05:09:23Z</time>
      </trkpt>
      <trkpt lat="45.52118" lon="6.8">
        <ele>1539.1909637089</ele>
        <time>2019-07-06T05:09:25Z</time>
      </trkpt>
      <trkpt lat="45.5212" lon="6.79998">
        <ele>1538.8981574976</ele>
        <time>2019-07-06T05:09:26Z</time>
      </trkpt>
      <trkpt lat="45.52122" lon="6.79997">
        <ele>1538.8677782437</ele>
        <time>2019-07-06T05:09:27Z</time>
      </trkpt>
      <trkpt lat="45.52123" lon="6.79995">
        <ele>1538.8647403183</ele>
        <time>2019-07-06T05:09:28Z</time>
      </trkpt>
      <trkpt lat="45.52125" lon="6.79993">
        <ele>1538.8644061465</ele>
        <time>2019-07-06T05:09:30Z</time>
      </trkpt>
      <trkpt lat="45.52127" lon="6.79991">
        <ele>1538.8644031085</ele>
        <time>2019-07-06T05:09:31Z</time>
      </trkpt>
      <trkpt lat="45.52131" lon="6.79989">
        <ele>1538.8644027744</ele>
        <time>2019-07-06T05:09:33Z</time>
      </trkpt>
      <trkpt lat="45.52133" lon="6.79989">
        <ele>1538.8644027713</ele>
        <time>2019-07-06T05:09:34Z</time>
      </trkpt>
      <trkpt lat="45.52135" lon="6.79987">
        <ele>1538.864402771</ele>
        <time>2019-07-06T05:09:36Z</time>
      </trkpt>
      <trkpt lat="45.52137" lon="6.79985">
        <ele>1538.864402771</ele>
        <time>2019-07-06T05:09:37Z</time>
      </trkpt>
      <trkpt lat="45.52139" lon="6.79982">
        <ele>1538.864402771</ele>
        <time>2019-07-06T05:09:39Z</time>
      </trkpt>
      <trkpt lat="45.5214" lon="6.79979">
        <ele>1538.864402771</ele>
        <time>2019-07-06T05:09:41Z</time>
      </trkpt>
      <trkpt lat="45.52142" lon="6.79976">
        <ele>1538.864402771</ele>
        <time>2019-07-06T05:09:43Z</time>
      </trkpt>
      <trkpt lat="45.52142" lon="6.79973">
        <ele>1538.864402771</ele>
        <time>2019-07-06T05:09:44Z</time>
      </trkpt>
      <trkpt lat="45.52143" lon="6.79969">
        <ele>1538.864402771</ele>
        <time>2019-07-06T05:09:46Z</time>
      </trkpt>
      <trkpt lat="45.52145" lon="6.79966">
        <ele>1538.864402771</ele>
        <time>2019-07-06T05:09:48Z</time>
      </trkpt>
      <trkpt lat="45.52146" lon="6.79962">
        <ele>1538.864402771</ele>
        <time>2019-07-06T05:09:50Z</time>
      </trkpt>
      <trkpt lat="45.52147" lon="6.79959">
        <ele>1538.864402771</ele>
        <time>2019-07-06T05:09:52Z</time>
      </trkpt>
      <trkpt lat="45.52148" lon="6.79956">
        <ele>1538.864402771</ele>
        <time>2019-07-06T05:09:54Z</time>
      </trkpt>
      <trkpt lat="45.52149" lon="6.79952">
        <ele>1538.864402771</ele>
        <time>2019-07-06T05:09:56Z</time>
      </trkpt>
      <trkpt lat="45.52151" lon="6.79949">
        <ele>1538.864402771</ele>
        <time>2019-07-06T05:09:58Z</time>
      </trkpt>
      <trkpt lat="45.52153" lon="6.79945">
        <ele>1538.864402771</ele>
        <time>2019-07-06T05:10:00Z</time>
      </trkpt>
      <trkpt lat="45.52154" lon="6.79941">
        <ele>1538.864402771</ele>
        <time>2019-07-06T05:10:02Z</time>
      </trkpt>
      <trkpt lat="45.52155" lon="6.79938">
        <ele>1538.864402771</ele>
        <time>2019-07-06T05:10:04Z</time>
      </trkpt>
      <trkpt lat="45.52157" lon="6.79935">
        <ele>1538.864402771</ele>
        <time>2019-07-06T05:10:06Z</time>
      </trkpt>
      <trkpt lat="45.52158" lon="6.79932">
        <ele>1538.864402771</ele>
        <time>2019-07-06T05:10:08Z</time>
      </trkpt>
      <trkpt lat="45.5216" lon="6.7993">
        <ele>1538.864402771</ele>
        <time>2019-07-06T05:10:10Z</time>
      </trkpt>
      <trkpt lat="45.52161" lon="6.79927">
        <ele>1538.864402771</ele>
        <time>2019-07-06T05:10:11Z</time>
      </trkpt>
      <trkpt lat="45.52163" lon="6.79925">
        <ele>1538.864402771</ele>
        <time>2019-07-06T05:10:12Z</time>
      </trkpt>
      <trkpt lat="45.52165" lon="6.79922">
        <ele>1538.864402771</ele>
        <time>2019-07-06T05:10:14Z</time>
      </trkpt>
      <trkpt lat="45.52167" lon="6.79918">
        <ele>1538.864402771</ele>
        <time>2019-07-06T05:10:16Z</time>
      </trkpt>
      <trkpt lat="45.52168" lon="6.79915">
        <ele>1538.864402771</ele>
        <time>2019-07-06T05:10:18Z</time>
      </trkpt>
      <trkpt lat="45.5217" lon="6.79913">
        <ele>1538.864402771</ele>
        <time>2019-07-06T05:10:20Z</time>
      </trkpt>
      <trkpt lat="45.52172" lon="6.79911">
        <ele>1538.864402771</ele>
        <time>2019-07-06T05:10:22Z</time>
      </trkpt>
      <trkpt lat="45.52174" lon="6.7991">
        <ele>1538.864402771</ele>
        <time>2019-07-06T05:10:23Z</time>
      </trkpt>
      <trkpt lat="45.52177" lon="6.79908">
        <ele>1538.864402771</ele>
        <time>2019-07-06T05:10:25Z</time>
      </trkpt>
      <trkpt lat="45.52179" lon="6.79907">
        <ele>1538.864402771</ele>
        <time>2019-07-06T05:10:27Z</time>
      </trkpt>
      <trkpt lat="45.52182" lon="6.79906">
        <ele>1538.864402771</ele>
        <time>2019-07-06T05:10:29Z</time>
      </trkpt>
      <trkpt lat="45.52184" lon="6.79905">
        <ele>1538.864402771</ele>
        <time>2019-07-06T05:10:30Z</time>
      </trkpt>
      <trkpt lat="45.52186" lon="6.79904">
        <ele>1538.864402771</ele>
        <time>2019-07-06T05:10:32Z</time>
      </trkpt>
      <trkpt lat="45.52189" lon="6.79903">
        <ele>1538.864402771</ele>
        <time>2019-07-06T05:10:34Z</time>
      </trkpt>
      <trkpt lat="45.52191" lon="6.79902">
        <ele>1538.864402771</ele>
        <time>2019-07-06T05:10:36Z</time>
      </trkpt>
      <trkpt lat="45.52194" lon="6.79901">
        <ele>1538.864402771</ele>
        <time>2019-07-06T05:10:38Z</time>
      </trkpt>
      <trkpt lat="45.52195" lon="6.79899">
        <ele>1538.864402771</ele>
        <time>2019-07-06T05:10:39Z</time>
      </trkpt>
      <trkpt lat="45.52198" lon="6.79898">
        <ele>1538.864402771</ele>
        <time>2019-07-06T05:10:41Z</time>
      </trkpt>
      <trkpt lat="45.522" lon="6.79896">
        <ele>1538.864402771</ele>
        <time>2019-07-06T05:10:43Z</time>
      </trkpt>
      <trkpt lat="45.52202" lon="6.79896">
        <ele>1538.864402771</ele>
        <time>2019-07-06T05:10:44Z</time>
      </trkpt>
      <trkpt lat="45.52204" lon="6.79896">
        <ele>1538.864402771</ele>
        <time>2019-07-06T05:10:45Z</time>
      </trkpt>
      <trkpt lat="45.52206" lon="6.79895">
        <ele>1538.864402771</ele>
        <time>2019-07-06T05:10:47Z</time>
      </trkpt>
      <trkpt lat="45.52209" lon="6.79894">
        <ele>1538.864402771</ele>
        <time>2019-07-06T05:10:49Z</time>
      </trkpt>
      <trkpt lat="45.52211" lon="6.79894">
        <ele>1538.864402771</ele>
        <time>2019-07-06T05:10:50Z</time>
      </trkpt>
      <trkpt lat="45.52214" lon="6.79893">
        <ele>1538.864402771</ele>
        <time>2019-07-06T05:10:52Z</time>
      </trkpt>
      <trkpt lat="45.52216" lon="6.79892">
        <ele>1538.864402771</ele>
        <time>2019-07-06T05:10:53Z</time>
      </trkpt>
      <trkpt lat="45.52219" lon="6.79892">
        <ele>1538.864402771</ele>
        <time>2019-07-06T05:10:55Z</time>
      </trkpt>
      <trkpt lat="45.52221" lon="6.79892">
        <ele>1538.864402771</ele>
        <time>2019-07-06T05:10:56Z</time>
      </trkpt>
      <trkpt lat="45.52224" lon="6.79892">
        <ele>1538.864402771</ele>
        <time>2019-07-06T05:10:58Z</time>
      </trkpt>
      <trkpt lat="45.52226" lon="6.79891">
        <ele>1538.864402771</ele>
        <time>2019-07-06T05:10:59Z</time>
      </trkpt>
      <trkpt lat="45.52228" lon="6.7989">
        <ele>1538.864402771</ele>
        <time>2019-07-06T05:11:00Z</time>
      </trkpt>
      <trkpt lat="45.52231" lon="6.79888">
        <ele>1538.864402771</ele>
        <time>2019-07-06T05:11:02Z</time>
      </trkpt>
      <trkpt lat="45.52233" lon="6.79886">
        <ele>1538.864402771</ele>
        <time>2019-07-06T05:11:04Z</time>
      </trkpt>
      <trkpt lat="45.52235" lon="6.79885">
        <ele>1538.864402771</ele>
        <time>2019-07-06T05:11:06Z</time>
      </trkpt>
      <trkpt lat="45.52238" lon="6.79883">
        <ele>1538.864402771</ele>
        <time>2019-07-06T05:11:08Z</time>
      </trkpt>
      <trkpt lat="45.52241" lon="6.79882">
        <ele>1538.864402771</ele>
        <time>2019-07-06T05:11:10Z</time>
      </trkpt>
      <trkpt lat="45.52244" lon="6.79881">
        <ele>1538.864402771</ele>
        <time>2019-07-06T05:11:12Z</time>
      </trkpt>
      <trkpt lat="45.52245" lon="6.79879">
        <ele>1538.864402771</ele>
        <time>2019-07-06T05:11:13Z</time>
      </trkpt>
      <trkpt lat="45.52247" lon="6.79876">
        <ele>1538.864402771</ele>
        <time>2019-07-06T05:11:15Z</time>
      </trkpt>
      <trkpt lat="45.52249" lon="6.79874">
        <ele>1538.864402771</ele>
        <time>2019-07-06T05:11:17Z</time>
      </trkpt>
      <trkpt lat="45.52251" lon="6.79872">
        <ele>1538.864402771</ele>
        <time>2019-07-06T05:11:19Z</time>
      </trkpt>
      <trkpt lat="45.52253" lon="6.79871">
        <ele>1538.864402771</ele>
        <time>2019-07-06T05:11:20Z</time>
      </trkpt>
      <trkpt lat="45.52256" lon="6.7987">
        <ele>1538.864402771</ele>
        <time>2019-07-06T05:11:22Z</time>
      </trkpt>
      <trkpt lat="45.52258" lon="6.79868">
        <ele>1538.864402771</ele>
        <time>2019-07-06T05:11:24Z</time>
      </trkpt>
      <trkpt lat="45.5226" lon="6.79866">
        <ele>1538.864402771</ele>
        <time>2019-07-06T05:11:26Z</time>
      </trkpt>
      <trkpt lat="45.52264" lon="6.79866">
        <ele>1538.864402771</ele>
        <time>2019-07-06T05:11:28Z</time>
      </trkpt>
      <trkpt lat="45.52267" lon="6.79865">
        <ele>1538.864402771</ele>
        <time>2019-07-06T05:11:30Z</time>
      </trkpt>
      <trkpt lat="45.52269" lon="6.79864">
        <ele>1538.864402771</ele>
        <time>2019-07-06T05:11:32Z</time>
      </trkpt>
      <trkpt lat="45.52271" lon="6.79862">
        <ele>1538.864402771</ele>
        <time>2019-07-06T05:11:34Z</time>
      </trkpt>
      <trkpt lat="45.52273" lon="6.79861">
        <ele>1538.864402771</ele>
        <time>2019-07-06T05:11:36Z</time>
      </trkpt>
      <trkpt lat="45.52275" lon="6.7986">
        <ele>1538.864402771</ele>
        <time>2019-07-06T05:11:37Z</time>
      </trkpt>
      <trkpt lat="45.52277" lon="6.79859">
        <ele>1538.864402771</ele>
        <time>2019-07-06T05:11:38Z</time>
      </trkpt>
      <trkpt lat="45.52279" lon="6.79857">
        <ele>1538.864402771</ele>
        <time>2019-07-06T05:11:39Z</time>
      </trkpt>
      <trkpt lat="45.52282" lon="6.79856">
        <ele>1538.864402771</ele>
        <time>2019-07-06T05:11:41Z</time>
      </trkpt>
      <trkpt lat="45.52284" lon="6.79854">
        <ele>1538.864402771</ele>
        <time>2019-07-06T05:11:42Z</time>
      </trkpt>
      <trkpt lat="45.52287" lon="6.79853">
        <ele>1538.864402771</ele>
        <time>2019-07-06T05:11:44Z</time>
      </trkpt>
      <trkpt lat="45.5229" lon="6.79853">
        <ele>1538.864402771</ele>
        <time>2019-07-06T05:11:46Z</time>
      </trkpt>
      <trkpt lat="45.52292" lon="6.79854">
        <ele>1538.864402771</ele>
        <time>2019-07-06T05:11:48Z</time>
      </trkpt>
      <trkpt lat="45.52294" lon="6.79855">
        <ele>1538.864402771</ele>
        <time>2019-07-06T05:11:49Z</time>
      </trkpt>
      <trkpt lat="45.52295" lon="6.79855">
        <ele>1538.864402771</ele>
        <time>2019-07-06T05:11:50Z</time>
      </trkpt>
      <trkpt lat="45.52299" lon="6.79855">
        <ele>1538.864402771</ele>
        <time>2019-07-06T05:11:52Z</time>
      </trkpt>
      <trkpt lat="45.52302" lon="6.79855">
        <ele>1538.864402771</ele>
        <time>2019-07-06T05:11:54Z</time>
      </trkpt>
      <trkpt lat="45.52304" lon="6.79854">
        <ele>1538.864402771</ele>
        <time>2019-07-06T05:11:56Z</time>
      </trkpt>
      <trkpt lat="45.52307" lon="6.79853">
        <ele>1538.864402771</ele>
        <time>2019-07-06T05:11:58Z</time>
      </trkpt>
      <trkpt lat="45.52309" lon="6.79851">
        <ele>1538.864402771</ele>
        <time>2019-07-06T05:12:00Z</time>
      </trkpt>
      <trkpt lat="45.52311" lon="6.79849">
        <ele>1538.864402771</ele>
        <time>2019-07-06T05:12:01Z</time>
      </trkpt>
      <trkpt lat="45.52313" lon="6.79849">
        <ele>1538.864402771</ele>
        <time>2019-07-06T05:12:02Z</time>
      </trkpt>
      <trkpt lat="45.52315" lon="6.79845">
        <ele>1538.864402771</ele>
        <time>2019-07-06T05:12:04Z</time>
      </trkpt>
      <trkpt lat="45.52317" lon="6.79843">
        <ele>1538.864402771</ele>
        <time>2019-07-06T05:12:06Z</time>
      </trkpt>
      <trkpt lat="45.52318" lon="6.7984">
        <ele>1538.864402771</ele>
        <time>2019-07-06T05:12:08Z</time>
      </trkpt>
      <trkpt lat="45.5232" lon="6.79836">
        <ele>1538.1524911657</ele>
        <time>2019-07-06T05:12:10Z</time>
      </trkpt>
      <trkpt lat="45.52321" lon="6.79834">
        <ele>1537.96426039</ele>
        <time>2019-07-06T05:12:11Z</time>
      </trkpt>
      <trkpt lat="45.52323" lon="6.79831">
        <ele>1537.8493694741</ele>
        <time>2019-07-06T05:12:13Z</time>
      </trkpt>
      <trkpt lat="45.52324" lon="6.79827">
        <ele>1537.9579888724</ele>
        <time>2019-07-06T05:12:15Z</time>
      </trkpt>
      <trkpt lat="45.52325" lon="6.79824">
        <ele>1539.6280485369</ele>
        <time>2019-07-06T05:12:17Z</time>
      </trkpt>
      <trkpt lat="45.52325" lon="6.79819">
        <ele>1540.3780119777</ele>
        <time>2019-07-06T05:12:19Z</time>
      </trkpt>
      <trkpt lat="45.52326" lon="6.79815">
        <ele>1540.6652163104</ele>
        <time>2019-07-06T05:12:21Z</time>
      </trkpt>
      <trkpt lat="45.52326" lon="6.79813">
        <ele>1540.8925046266</ele>
        <time>2019-07-06T05:12:23Z</time>
      </trkpt>
      <trkpt lat="45.52327" lon="6.7981">
        <ele>1541.0685486287</ele>
        <time>2019-07-06T05:12:25Z</time>
      </trkpt>
      <trkpt lat="45.52329" lon="6.79806">
        <ele>1540.8754061852</ele>
        <time>2019-07-06T05:12:27Z</time>
      </trkpt>
      <trkpt lat="45.5233" lon="6.79803">
        <ele>1540.171371157</ele>
        <time>2019-07-06T05:12:29Z</time>
      </trkpt>
      <trkpt lat="45.5233" lon="6.79799">
        <ele>1539.9693072643</ele>
        <time>2019-07-06T05:12:31Z</time>
      </trkpt>
      <trkpt lat="45.52333" lon="6.79795">
        <ele>1539.806679511</ele>
        <time>2019-07-06T05:12:33Z</time>
      </trkpt>
      <trkpt lat="45.52335" lon="6.79791">
        <ele>1539.1823322682</ele>
        <time>2019-07-06T05:12:35Z</time>
      </trkpt>
      <trkpt lat="45.52336" lon="6.79786">
        <ele>1537.829034069</ele>
        <time>2019-07-06T05:12:37Z</time>
      </trkpt>
      <trkpt lat="45.52336" lon="6.79782">
        <ele>1536.8516756462</ele>
        <time>2019-07-06T05:12:39Z</time>
      </trkpt>
      <trkpt lat="45.52335" lon="6.79779">
        <ele>1536.5703900017</ele>
        <time>2019-07-06T05:12:40Z</time>
      </trkpt>
      <trkpt lat="45.52334" lon="6.79776">
        <ele>1536.3789071531</ele>
        <time>2019-07-06T05:12:41Z</time>
      </trkpt>
      <trkpt lat="45.52335" lon="6.79774">
        <ele>1536.069595915</ele>
        <time>2019-07-06T05:12:42Z</time>
      </trkpt>
      <trkpt lat="45.52337" lon="6.79771">
        <ele>1535.1161146352</ele>
        <time>2019-07-06T05:12:44Z</time>
      </trkpt>
      <trkpt lat="45.52336" lon="6.79767">
        <ele>1534.1204008609</ele>
        <time>2019-07-06T05:12:46Z</time>
      </trkpt>
      <trkpt lat="45.52336" lon="6.79765">
        <ele>1533.6330766175</ele>
        <time>2019-07-06T05:12:47Z</time>
      </trkpt>
      <trkpt lat="45.52335" lon="6.79762">
        <ele>1533.4122422625</ele>
        <time>2019-07-06T05:12:48Z</time>
      </trkpt>
      <trkpt lat="45.52334" lon="6.79758">
        <ele>1532.2712117673</ele>
        <time>2019-07-06T05:12:50Z</time>
      </trkpt>
      <trkpt lat="45.52334" lon="6.79755">
        <ele>1531.3321246144</ele>
        <time>2019-07-06T05:12:51Z</time>
      </trkpt>
      <trkpt lat="45.52333" lon="6.79753">
        <ele>1530.8152997661</ele>
        <time>2019-07-06T05:12:52Z</time>
      </trkpt>
      <trkpt lat="45.52332" lon="6.7975">
        <ele>1530.6137038656</ele>
        <time>2019-07-06T05:12:53Z</time>
      </trkpt>
      <trkpt lat="45.52332" lon="6.79748">
        <ele>1530.0806422897</ele>
        <time>2019-07-06T05:12:54Z</time>
      </trkpt>
      <trkpt lat="45.52331" lon="6.79744">
        <ele>1529.0728834756</ele>
        <time>2019-07-06T05:12:56Z</time>
      </trkpt>
      <trkpt lat="45.5233" lon="6.7974">
        <ele>1528.3911298659</ele>
        <time>2019-07-06T05:12:58Z</time>
      </trkpt>
      <trkpt lat="45.52331" lon="6.79736">
        <ele>1527.6391279358</ele>
        <time>2019-07-06T05:13:00Z</time>
      </trkpt>
      <trkpt lat="45.5233" lon="6.79733">
        <ele>1527.0844363892</ele>
        <time>2019-07-06T05:13:02Z</time>
      </trkpt>
      <trkpt lat="45.52331" lon="6.79729">
        <ele>1526.533485414</ele>
        <time>2019-07-06T05:13:03Z</time>
      </trkpt>
      <trkpt lat="45.52332" lon="6.79725">
        <ele>1525.5874456809</ele>
        <time>2019-07-06T05:13:05Z</time>
      </trkpt>
      <trkpt lat="45.52333" lon="6.79722">
        <ele>1524.2402990945</ele>
        <time>2019-07-06T05:13:07Z</time>
      </trkpt>
      <trkpt lat="45.52334" lon="6.79718">
        <ele>1523.5011480519</ele>
        <time>2019-07-06T05:13:09Z</time>
      </trkpt>
      <trkpt lat="45.52336" lon="6.79716">
        <ele>1523.4735557465</ele>
        <time>2019-07-06T05:13:10Z</time>
      </trkpt>
      <trkpt lat="45.52336" lon="6.79712">
        <ele>1523.7946459714</ele>
        <time>2019-07-06T05:13:12Z</time>
      </trkpt>
      <trkpt lat="45.52336" lon="6.79709">
        <ele>1523.8059272723</ele>
        <time>2019-07-06T05:13:13Z</time>
      </trkpt>
      <trkpt lat="45.52337" lon="6.79704">
        <ele>1523.348879075</ele>
        <time>2019-07-06T05:13:15Z</time>
      </trkpt>
      <trkpt lat="45.52339" lon="6.797">
        <ele>1523.2423348509</ele>
        <time>2019-07-06T05:13:17Z</time>
      </trkpt>
      <trkpt lat="45.52341" lon="6.79696">
        <ele>1523.6203507983</ele>
        <time>2019-07-06T05:13:19Z</time>
      </trkpt>
      <trkpt lat="45.52341" lon="6.79692">
        <ele>1523.7970066906</ele>
        <time>2019-07-06T05:13:21Z</time>
      </trkpt>
      <trkpt lat="45.52341" lon="6.79689">
        <ele>1523.9066278241</ele>
        <time>2019-07-06T05:13:22Z</time>
      </trkpt>
      <trkpt lat="45.52342" lon="6.79686">
        <ele>1524.3720584508</ele>
        <time>2019-07-06T05:13:23Z</time>
      </trkpt>
      <trkpt lat="45.52343" lon="6.79682">
        <ele>1525.2503192432</ele>
        <time>2019-07-06T05:13:25Z</time>
      </trkpt>
      <trkpt lat="45.52344" lon="6.79678">
        <ele>1525.3802847274</ele>
        <time>2019-07-06T05:13:27Z</time>
      </trkpt>
      <trkpt lat="45.52345" lon="6.79676">
        <ele>1525.2694475214</ele>
        <time>2019-07-06T05:13:28Z</time>
      </trkpt>
      <trkpt lat="45.52345" lon="6.79672">
        <ele>1525.8017170609</ele>
        <time>2019-07-06T05:13:30Z</time>
      </trkpt>
      <trkpt lat="45.52346" lon="6.79668">
        <ele>1526.3670464766</ele>
        <time>2019-07-06T05:13:32Z</time>
      </trkpt>
      <trkpt lat="45.52348" lon="6.79665">
        <ele>1526.277904518</ele>
        <time>2019-07-06T05:13:34Z</time>
      </trkpt>
      <trkpt lat="45.52349" lon="6.79663">
        <ele>1526.4447263029</ele>
        <time>2019-07-06T05:13:35Z</time>
      </trkpt>
      <trkpt lat="45.5235" lon="6.79659">
        <ele>1527.2702028542</ele>
        <time>2019-07-06T05:13:37Z</time>
      </trkpt>
      <trkpt lat="45.52351" lon="6.79656">
        <ele>1527.8161544124</ele>
        <time>2019-07-06T05:13:39Z</time>
      </trkpt>
      <trkpt lat="45.52352" lon="6.79653">
        <ele>1528.0077186331</ele>
        <time>2019-07-06T05:13:40Z</time>
      </trkpt>
      <trkpt lat="45.52352" lon="6.79648">
        <ele>1528.0957736493</ele>
        <time>2019-07-06T05:13:42Z</time>
      </trkpt>
      <trkpt lat="45.52353" lon="6.79645">
        <ele>1527.4928001095</ele>
        <time>2019-07-06T05:13:44Z</time>
      </trkpt>
      <trkpt lat="45.52354" lon="6.79643">
        <ele>1527.2738811666</ele>
        <time>2019-07-06T05:13:46Z</time>
      </trkpt>
      <trkpt lat="45.52355" lon="6.79639">
        <ele>1527.6909808688</ele>
        <time>2019-07-06T05:13:48Z</time>
      </trkpt>
      <trkpt lat="45.52355" lon="6.79636">
        <ele>1527.8942580475</ele>
        <time>2019-07-06T05:13:49Z</time>
      </trkpt>
      <trkpt lat="45.52356" lon="6.79632">
        <ele>1528.4685696053</ele>
        <time>2019-07-06T05:13:51Z</time>
      </trkpt>
      <trkpt lat="45.52356" lon="6.79628">
        <ele>1529.1943957874</ele>
        <time>2019-07-06T05:13:53Z</time>
      </trkpt>
      <trkpt lat="45.52357" lon="6.79625">
        <ele>1529.239448187</ele>
        <time>2019-07-06T05:13:54Z</time>
      </trkpt>
      <trkpt lat="45.52357" lon="6.79621">
        <ele>1529.0076065558</ele>
        <time>2019-07-06T05:13:56Z</time>
      </trkpt>
      <trkpt lat="45.52357" lon="6.79616">
        <ele>1529.1092078215</ele>
        <time>2019-07-06T05:13:58Z</time>
      </trkpt>
      <trkpt lat="45.52358" lon="6.79612">
        <ele>1528.996886464</ele>
        <time>2019-07-06T05:14:00Z</time>
      </trkpt>
      <trkpt lat="45.52358" lon="6.79608">
        <ele>1529.5719356335</ele>
        <time>2019-07-06T05:14:02Z</time>
      </trkpt>
      <trkpt lat="45.52357" lon="6.79604">
        <ele>1529.6258893537</ele>
        <time>2019-07-06T05:14:04Z</time>
      </trkpt>
      <trkpt lat="45.52357" lon="6.796">
        <ele>1529.4131474152</ele>
        <time>2019-07-06T05:14:06Z</time>
      </trkpt>
      <trkpt lat="45.52357" lon="6.79597">
        <ele>1528.9779958852</ele>
        <time>2019-07-06T05:14:08Z</time>
      </trkpt>
      <trkpt lat="45.52357" lon="6.79593">
        <ele>1528.4822037892</ele>
        <time>2019-07-06T05:14:10Z</time>
      </trkpt>
      <trkpt lat="45.52357" lon="6.79589">
        <ele>1527.9018336619</ele>
        <time>2019-07-06T05:14:12Z</time>
      </trkpt>
      <trkpt lat="45.52356" lon="6.79586">
        <ele>1527.1816078256</ele>
        <time>2019-07-06T05:14:14Z</time>
      </trkpt>
      <trkpt lat="45.52355" lon="6.79582">
        <ele>1527.0588002625</ele>
        <time>2019-07-06T05:14:16Z</time>
      </trkpt>
      <trkpt lat="45.52356" lon="6.79578">
        <ele>1527.0098109302</ele>
        <time>2019-07-06T05:14:18Z</time>
      </trkpt>
      <trkpt lat="45.52356" lon="6.79575">
        <ele>1526.9367115694</ele>
        <time>2019-07-06T05:14:19Z</time>
      </trkpt>
      <trkpt lat="45.52355" lon="6.79571">
        <ele>1526.9962180549</ele>
        <time>2019-07-06T05:14:21Z</time>
      </trkpt>
      <trkpt lat="45.52355" lon="6.79567">
        <ele>1526.9819774463</ele>
        <time>2019-07-06T05:14:23Z</time>
      </trkpt>
      <trkpt lat="45.52355" lon="6.79563">
        <ele>1527.6867377646</ele>
        <time>2019-07-06T05:14:25Z</time>
      </trkpt>
      <trkpt lat="45.52355" lon="6.7956">
        <ele>1528.4579203901</ele>
        <time>2019-07-06T05:14:27Z</time>
      </trkpt>
      <trkpt lat="45.52355" lon="6.79556">
        <ele>1529.6018676225</ele>
        <time>2019-07-06T05:14:29Z</time>
      </trkpt>
      <trkpt lat="45.52355" lon="6.79552">
        <ele>1529.7301044447</ele>
        <time>2019-07-06T05:14:31Z</time>
      </trkpt>
      <trkpt lat="45.52355" lon="6.79548">
        <ele>1529.6782495779</ele>
        <time>2019-07-06T05:14:33Z</time>
      </trkpt>
      <trkpt lat="45.52356" lon="6.79544">
        <ele>1529.202412354</ele>
        <time>2019-07-06T05:14:35Z</time>
      </trkpt>
      <trkpt lat="45.52357" lon="6.79541">
        <ele>1529.3394133405</ele>
        <time>2019-07-06T05:14:36Z</time>
      </trkpt>
      <trkpt lat="45.52358" lon="6.79537">
        <ele>1530.3929215462</ele>
        <time>2019-07-06T05:14:38Z</time>
      </trkpt>
      <trkpt lat="45.5236" lon="6.79535">
        <ele>1530.8479412067</ele>
        <time>2019-07-06T05:14:39Z</time>
      </trkpt>
      <trkpt lat="45.52361" lon="6.7953">
        <ele>1531.5436176904</ele>
        <time>2019-07-06T05:14:41Z</time>
      </trkpt>
      <trkpt lat="45.52363" lon="6.79528">
        <ele>1531.5318904427</ele>
        <time>2019-07-06T05:14:42Z</time>
      </trkpt>
      <trkpt lat="45.52365" lon="6.79525">
        <ele>1531.9216303085</ele>
        <time>2019-07-06T05:14:44Z</time>
      </trkpt>
      <trkpt lat="45.52368" lon="6.79522">
        <ele>1532.0223210813</ele>
        <time>2019-07-06T05:14:46Z</time>
      </trkpt>
      <trkpt lat="45.52369" lon="6.7952">
        <ele>1532.0983791282</ele>
        <time>2019-07-06T05:14:47Z</time>
      </trkpt>
      <trkpt lat="45.52371" lon="6.79517">
        <ele>1531.8270054625</ele>
        <time>2019-07-06T05:14:49Z</time>
      </trkpt>
      <trkpt lat="45.52372" lon="6.79514">
        <ele>1531.8716952075</ele>
        <time>2019-07-06T05:14:51Z</time>
      </trkpt>
      <trkpt lat="45.52373" lon="6.79511">
        <ele>1532.0351377465</ele>
        <time>2019-07-06T05:14:53Z</time>
      </trkpt>
      <trkpt lat="45.52376" lon="6.79509">
        <ele>1531.8374678972</ele>
        <time>2019-07-06T05:14:55Z</time>
      </trkpt>
      <trkpt lat="45.52379" lon="6.79507">
        <ele>1531.4361854888</ele>
        <time>2019-07-06T05:14:57Z</time>
      </trkpt>
      <trkpt lat="45.52381" lon="6.79506">
        <ele>1531.0454160226</ele>
        <time>2019-07-06T05:14:59Z</time>
      </trkpt>
      <trkpt lat="45.52384" lon="6.79503">
        <ele>1530.7078490714</ele>
        <time>2019-07-06T05:15:01Z</time>
      </trkpt>
      <trkpt lat="45.52387" lon="6.79501">
        <ele>1530.9504528915</ele>
        <time>2019-07-06T05:15:03Z</time>
      </trkpt>
      <trkpt lat="45.52389" lon="6.79499">
        <ele>1531.0743086052</ele>
        <time>2019-07-06T05:15:04Z</time>
      </trkpt>
      <trkpt lat="45.52391" lon="6.79496">
        <ele>1531.6247287733</ele>
        <time>2019-07-06T05:15:06Z</time>
      </trkpt>
      <trkpt lat="45.52393" lon="6.79493">
        <ele>1532.1012959856</ele>
        <time>2019-07-06T05:15:08Z</time>
      </trkpt>
      <trkpt lat="45.52395" lon="6.7949">
        <ele>1532.5510036486</ele>
        <time>2019-07-06T05:15:10Z</time>
      </trkpt>
      <trkpt lat="45.52398" lon="6.79488">
        <ele>1532.7586079361</ele>
        <time>2019-07-06T05:15:12Z</time>
      </trkpt>
      <trkpt lat="45.524" lon="6.79486">
        <ele>1532.9092011506</ele>
        <time>2019-07-06T05:15:13Z</time>
      </trkpt>
      <trkpt lat="45.52402" lon="6.79485">
        <ele>1533.1119158571</ele>
        <time>2019-07-06T05:15:15Z</time>
      </trkpt>
      <trkpt lat="45.52404" lon="6.79482">
        <ele>1532.5712493791</ele>
        <time>2019-07-06T05:15:17Z</time>
      </trkpt>
      <trkpt lat="45.52405" lon="6.7948">
        <ele>1532.3471428858</ele>
        <time>2019-07-06T05:15:19Z</time>
      </trkpt>
      <trkpt lat="45.52408" lon="6.79478">
        <ele>1532.2338716967</ele>
        <time>2019-07-06T05:15:21Z</time>
      </trkpt>
      <trkpt lat="45.52409" lon="6.79476">
        <ele>1531.7152440959</ele>
        <time>2019-07-06T05:15:24Z</time>
      </trkpt>
      <trkpt lat="45.52412" lon="6.79473">
        <ele>1531.0650185194</ele>
        <time>2019-07-06T05:15:26Z</time>
      </trkpt>
      <trkpt lat="45.52414" lon="6.79471">
        <ele>1530.2515233777</ele>
        <time>2019-07-06T05:15:28Z</time>
      </trkpt>
      <trkpt lat="45.52416" lon="6.79469">
        <ele>1529.6044200325</ele>
        <time>2019-07-06T05:15:30Z</time>
      </trkpt>
      <trkpt lat="45.52418" lon="6.79467">
        <ele>1528.8397143002</ele>
        <time>2019-07-06T05:15:32Z</time>
      </trkpt>
      <trkpt lat="45.5242" lon="6.79465">
        <ele>1528.5634166425</ele>
        <time>2019-07-06T05:15:33Z</time>
      </trkpt>
      <trkpt lat="45.5242" lon="6.79462">
        <ele>1528.2214610123</ele>
        <time>2019-07-06T05:15:35Z</time>
      </trkpt>
      <trkpt lat="45.52422" lon="6.79461">
        <ele>1528.0903534382</ele>
        <time>2019-07-06T05:15:37Z</time>
      </trkpt>
      <trkpt lat="45.52424" lon="6.79459">
        <ele>1527.8696094695</ele>
        <time>2019-07-06T05:15:39Z</time>
      </trkpt>
      <trkpt lat="45.52425" lon="6.79456">
        <ele>1528.0327325653</ele>
        <time>2019-07-06T05:15:41Z</time>
      </trkpt>
      <trkpt lat="45.52426" lon="6.79452">
        <ele>1528.5949898092</ele>
        <time>2019-07-06T05:15:43Z</time>
      </trkpt>
      <trkpt lat="45.52426" lon="6.79447">
        <ele>1529.4872450095</ele>
        <time>2019-07-06T05:15:45Z</time>
      </trkpt>
      <trkpt lat="45.52426" lon="6.79441">
        <ele>1530.6775508969</ele>
        <time>2019-07-06T05:15:47Z</time>
      </trkpt>
      <trkpt lat="45.52426" lon="6.79439">
        <ele>1531.2284030845</ele>
        <time>2019-07-06T05:15:48Z</time>
      </trkpt>
      <trkpt lat="45.52427" lon="6.79435">
        <ele>1531.5998536358</ele>
        <time>2019-07-06T05:15:49Z</time>
      </trkpt>
      <trkpt lat="45.52427" lon="6.79433">
        <ele>1531.952279464</ele>
        <time>2019-07-06T05:15:50Z</time>
      </trkpt>
      <trkpt lat="45.52427" lon="6.79426">
        <ele>1532.4010506952</ele>
        <time>2019-07-06T05:15:52Z</time>
      </trkpt>
      <trkpt lat="45.52428" lon="6.79423">
        <ele>1532.4004856203</ele>
        <time>2019-07-06T05:15:53Z</time>
      </trkpt>
      <trkpt lat="45.52429" lon="6.7942">
        <ele>1532.1589872015</ele>
        <time>2019-07-06T05:15:54Z</time>
      </trkpt>
      <trkpt lat="45.52429" lon="6.79417">
        <ele>1532.2532996025</ele>
        <time>2019-07-06T05:15:55Z</time>
      </trkpt>
      <trkpt lat="45.5243" lon="6.79415">
        <ele>1532.1837673359</ele>
        <time>2019-07-06T05:15:56Z</time>
      </trkpt>
      <trkpt lat="45.52429" lon="6.79411">
        <ele>1531.815072098</ele>
        <time>2019-07-06T05:15:58Z</time>
      </trkpt>
      <trkpt lat="45.52429" lon="6.79406">
        <ele>1531.4356510581</ele>
        <time>2019-07-06T05:16:00Z</time>
      </trkpt>
      <trkpt lat="45.52429" lon="6.79402">
        <ele>1531.5093713734</ele>
        <time>2019-07-06T05:16:02Z</time>
      </trkpt>
      <trkpt lat="45.52427" lon="6.79398">
        <ele>1531.5092456973</ele>
        <time>2019-07-06T05:16:04Z</time>
      </trkpt>
      <trkpt lat="45.52427" lon="6.79394">
        <ele>1531.1067973638</ele>
        <time>2019-07-06T05:16:06Z</time>
      </trkpt>
      <trkpt lat="45.52426" lon="6.7939">
        <ele>1530.440775237</ele>
        <time>2019-07-06T05:16:08Z</time>
      </trkpt>
      <trkpt lat="45.52425" lon="6.79385">
        <ele>1529.7261649658</ele>
        <time>2019-07-06T05:16:10Z</time>
      </trkpt>
      <trkpt lat="45.52425" lon="6.7938">
        <ele>1529.317299589</ele>
        <time>2019-07-06T05:16:12Z</time>
      </trkpt>
      <trkpt lat="45.52423" lon="6.79377">
        <ele>1529.4763779769</ele>
        <time>2019-07-06T05:16:14Z</time>
      </trkpt>
      <trkpt lat="45.52421" lon="6.79373">
        <ele>1529.2886762375</ele>
        <time>2019-07-06T05:16:17Z</time>
      </trkpt>
      <trkpt lat="45.52421" lon="6.7937">
        <ele>1529.1055270602</ele>
        <time>2019-07-06T05:16:18Z</time>
      </trkpt>
      <trkpt lat="45.52421" lon="6.79367">
        <ele>1528.8318879894</ele>
        <time>2019-07-06T05:16:19Z</time>
      </trkpt>
      <trkpt lat="45.52421" lon="6.79362">
        <ele>1528.3688015786</ele>
        <time>2019-07-06T05:16:21Z</time>
      </trkpt>
      <trkpt lat="45.52421" lon="6.79358">
        <ele>1527.8053338683</ele>
        <time>2019-07-06T05:16:23Z</time>
      </trkpt>
      <trkpt lat="45.52421" lon="6.79356">
        <ele>1527.2994189479</ele>
        <time>2019-07-06T05:16:27Z</time>
      </trkpt>
      <trkpt lat="45.52421" lon="6.79351">
        <ele>1527.7296289265</ele>
        <time>2019-07-06T05:16:34Z</time>
      </trkpt>
      <trkpt lat="45.52419" lon="6.7935">
        <ele>1527.4720726701</ele>
        <time>2019-07-06T05:16:35Z</time>
      </trkpt>
      <trkpt lat="45.52417" lon="6.79348">
        <ele>1527.031435831</ele>
        <time>2019-07-06T05:16:37Z</time>
      </trkpt>
      <trkpt lat="45.52417" lon="6.79348">
        <ele>1526.8040501594</ele>
        <time>2019-07-06T05:16:38Z</time>
      </trkpt>
      <trkpt lat="45.52414" lon="6.79348">
        <ele>1526.7146450778</ele>
        <time>2019-07-06T05:16:40Z</time>
      </trkpt>
      <trkpt lat="45.52412" lon="6.79346">
        <ele>1526.8053189902</ele>
        <time>2019-07-06T05:16:42Z</time>
      </trkpt>
      <trkpt lat="45.52408" lon="6.79346">
        <ele>1527.0231738077</ele>
        <time>2019-07-06T05:16:44Z</time>
      </trkpt>
      <trkpt lat="45.52407" lon="6.79342">
        <ele>1526.589294308</ele>
        <time>2019-07-06T05:16:46Z</time>
      </trkpt>
      <trkpt lat="45.52407" lon="6.79339">
        <ele>1526.3927210462</ele>
        <time>2019-07-06T05:16:47Z</time>
      </trkpt>
      <trkpt lat="45.52407" lon="6.79334">
        <ele>1525.529099527</ele>
        <time>2019-07-06T05:16:49Z</time>
      </trkpt>
      <trkpt lat="45.52408" lon="6.79332">
        <ele>1524.9464911073</ele>
        <time>2019-07-06T05:16:50Z</time>
      </trkpt>
      <trkpt lat="45.5241" lon="6.79327">
        <ele>1523.9063414378</ele>
        <time>2019-07-06T05:16:52Z</time>
      </trkpt>
      <trkpt lat="45.52411" lon="6.79324">
        <ele>1523.2661647064</ele>
        <time>2019-07-06T05:16:53Z</time>
      </trkpt>
      <trkpt lat="45.52411" lon="6.79322">
        <ele>1522.8799028655</ele>
        <time>2019-07-06T05:16:54Z</time>
      </trkpt>
      <trkpt lat="45.52413" lon="6.79319">
        <ele>1522.5207700781</ele>
        <time>2019-07-06T05:16:55Z</time>
      </trkpt>
      <trkpt lat="45.52414" lon="6.79317">
        <ele>1522.5657042167</ele>
        <time>2019-07-06T05:16:56Z</time>
      </trkpt>
      <trkpt lat="45.52416" lon="6.79313">
        <ele>1522.7464580764</ele>
        <time>2019-07-06T05:16:58Z</time>
      </trkpt>
      <trkpt lat="45.52417" lon="6.7931">
        <ele>1522.5721581648</ele>
        <time>2019-07-06T05:16:59Z</time>
      </trkpt>
      <trkpt lat="45.52418" lon="6.79307">
        <ele>1522.4859651474</ele>
        <time>2019-07-06T05:17:00Z</time>
      </trkpt>
      <trkpt lat="45.52418" lon="6.79304">
        <ele>1522.7342738276</ele>
        <time>2019-07-06T05:17:01Z</time>
      </trkpt>
      <trkpt lat="45.5242" lon="6.79301">
        <ele>1523.0982657888</ele>
        <time>2019-07-06T05:17:02Z</time>
      </trkpt>
      <trkpt lat="45.52422" lon="6.79299">
        <ele>1523.939061579</ele>
        <time>2019-07-06T05:17:04Z</time>
      </trkpt>
      <trkpt lat="45.52424" lon="6.79296">
        <ele>1525.0466999229</ele>
        <time>2019-07-06T05:17:06Z</time>
      </trkpt>
      <trkpt lat="45.52425" lon="6.79294">
        <ele>1525.6344142054</ele>
        <time>2019-07-06T05:17:07Z</time>
      </trkpt>
      <trkpt lat="45.52427" lon="6.79291">
        <ele>1526.7698976705</ele>
        <time>2019-07-06T05:17:09Z</time>
      </trkpt>
      <trkpt lat="45.52429" lon="6.79287">
        <ele>1527.0799932657</ele>
        <time>2019-07-06T05:17:11Z</time>
      </trkpt>
      <trkpt lat="45.5243" lon="6.79283">
        <ele>1526.9165849266</ele>
        <time>2019-07-06T05:17:13Z</time>
      </trkpt>
      <trkpt lat="45.52431" lon="6.79281">
        <ele>1526.561341694</ele>
        <time>2019-07-06T05:17:15Z</time>
      </trkpt>
      <trkpt lat="45.52434" lon="6.79278">
        <ele>1525.9906372364</ele>
        <time>2019-07-06T05:17:17Z</time>
      </trkpt>
      <trkpt lat="45.52436" lon="6.79275">
        <ele>1525.3415722241</ele>
        <time>2019-07-06T05:17:19Z</time>
      </trkpt>
      <trkpt lat="45.52438" lon="6.79272">
        <ele>1524.0167377799</ele>
        <time>2019-07-06T05:17:21Z</time>
      </trkpt>
      <trkpt lat="45.5244" lon="6.79271">
        <ele>1522.9994045973</ele>
        <time>2019-07-06T05:17:23Z</time>
      </trkpt>
      <trkpt lat="45.52441" lon="6.79267">
        <ele>1522.9860723978</ele>
        <time>2019-07-06T05:17:25Z</time>
      </trkpt>
      <trkpt lat="45.52443" lon="6.79266">
        <ele>1523.2718822664</ele>
        <time>2019-07-06T05:17:26Z</time>
      </trkpt>
      <trkpt lat="45.52444" lon="6.79264">
        <ele>1523.4016535952</ele>
        <time>2019-07-06T05:17:27Z</time>
      </trkpt>
      <trkpt lat="45.52447" lon="6.79262">
        <ele>1523.9586787469</ele>
        <time>2019-07-06T05:17:29Z</time>
      </trkpt>
      <trkpt lat="45.52448" lon="6.7926">
        <ele>1524.3909681768</ele>
        <time>2019-07-06T05:17:30Z</time>
      </trkpt>
      <trkpt lat="45.52449" lon="6.79257">
        <ele>1524.8590036939</ele>
        <time>2019-07-06T05:17:32Z</time>
      </trkpt>
      <trkpt lat="45.52451" lon="6.79255">
        <ele>1524.6209331869</ele>
        <time>2019-07-06T05:17:34Z</time>
      </trkpt>
      <trkpt lat="45.52452" lon="6.79251">
        <ele>1524.5832496741</ele>
        <time>2019-07-06T05:17:36Z</time>
      </trkpt>
      <trkpt lat="45.52454" lon="6.79248">
        <ele>1524.8613681447</ele>
        <time>2019-07-06T05:17:38Z</time>
      </trkpt>
      <trkpt lat="45.52456" lon="6.79245">
        <ele>1526.0836778693</ele>
        <time>2019-07-06T05:17:40Z</time>
      </trkpt>
      <trkpt lat="45.52456" lon="6.79241">
        <ele>1526.406118299</ele>
        <time>2019-07-06T05:17:42Z</time>
      </trkpt>
      <trkpt lat="45.52457" lon="6.79239">
        <ele>1526.2952846021</ele>
        <time>2019-07-06T05:17:44Z</time>
      </trkpt>
      <trkpt lat="45.52457" lon="6.79236">
        <ele>1525.9266945322</ele>
        <time>2019-07-06T05:17:46Z</time>
      </trkpt>
      <trkpt lat="45.5246" lon="6.79232">
        <ele>1525.7507034668</ele>
        <time>2019-07-06T05:17:48Z</time>
      </trkpt>
      <trkpt lat="45.52461" lon="6.79229">
        <ele>1525.9146988152</ele>
        <time>2019-07-06T05:17:50Z</time>
      </trkpt>
      <trkpt lat="45.52463" lon="6.79226">
        <ele>1525.4732404873</ele>
        <time>2019-07-06T05:17:52Z</time>
      </trkpt>
      <trkpt lat="45.52464" lon="6.79223">
        <ele>1525.1308651667</ele>
        <time>2019-07-06T05:17:53Z</time>
      </trkpt>
      <trkpt lat="45.52464" lon="6.7922">
        <ele>1524.9687127935</ele>
        <time>2019-07-06T05:17:54Z</time>
      </trkpt>
      <trkpt lat="45.52466" lon="6.79217">
        <ele>1525.2222597776</ele>
        <time>2019-07-06T05:17:56Z</time>
      </trkpt>
      <trkpt lat="45.52467" lon="6.79213">
        <ele>1524.7182207025</ele>
        <time>2019-07-06T05:17:58Z</time>
      </trkpt>
      <trkpt lat="45.52468" lon="6.79208">
        <ele>1525.1440023269</ele>
        <time>2019-07-06T05:18:00Z</time>
      </trkpt>
      <trkpt lat="45.52469" lon="6.79206">
        <ele>1525.4889968765</ele>
        <time>2019-07-06T05:18:02Z</time>
      </trkpt>
      <trkpt lat="45.5247" lon="6.79202">
        <ele>1525.2751424276</ele>
        <time>2019-07-06T05:18:04Z</time>
      </trkpt>
      <trkpt lat="45.52472" lon="6.79199">
        <ele>1525.2906253215</ele>
        <time>2019-07-06T05:18:06Z</time>
      </trkpt>
      <trkpt lat="45.52473" lon="6.79196">
        <ele>1525.4501686758</ele>
        <time>2019-07-06T05:18:07Z</time>
      </trkpt>
      <trkpt lat="45.52474" lon="6.79194">
        <ele>1525.7034218557</ele>
        <time>2019-07-06T05:18:08Z</time>
      </trkpt>
      <trkpt lat="45.52475" lon="6.79191">
        <ele>1525.9440873517</ele>
        <time>2019-07-06T05:18:10Z</time>
      </trkpt>
      <trkpt lat="45.52476" lon="6.79187">
        <ele>1525.9123745122</ele>
        <time>2019-07-06T05:18:12Z</time>
      </trkpt>
      <trkpt lat="45.52476" lon="6.79184">
        <ele>1525.7839153141</ele>
        <time>2019-07-06T05:18:14Z</time>
      </trkpt>
      <trkpt lat="45.52476" lon="6.79181">
        <ele>1525.9006782869</ele>
        <time>2019-07-06T05:18:16Z</time>
      </trkpt>
      <trkpt lat="45.52478" lon="6.79179">
        <ele>1525.992683137</ele>
        <time>2019-07-06T05:18:18Z</time>
      </trkpt>
      <trkpt lat="45.5248" lon="6.79178">
        <ele>1526.0362249635</ele>
        <time>2019-07-06T05:18:19Z</time>
      </trkpt>
      <trkpt lat="45.52481" lon="6.79175">
        <ele>1525.9915115507</ele>
        <time>2019-07-06T05:18:20Z</time>
      </trkpt>
      <trkpt lat="45.52483" lon="6.79171">
        <ele>1525.6351777244</ele>
        <time>2019-07-06T05:18:22Z</time>
      </trkpt>
      <trkpt lat="45.52483" lon="6.79169">
        <ele>1525.1504819335</ele>
        <time>2019-07-06T05:18:23Z</time>
      </trkpt>
      <trkpt lat="45.52485" lon="6.79164">
        <ele>1525.0547982762</ele>
        <time>2019-07-06T05:18:25Z</time>
      </trkpt>
      <trkpt lat="45.52486" lon="6.7916">
        <ele>1525.325584163</ele>
        <time>2019-07-06T05:18:27Z</time>
      </trkpt>
      <trkpt lat="45.52486" lon="6.79156">
        <ele>1525.3278050456</ele>
        <time>2019-07-06T05:18:29Z</time>
      </trkpt>
      <trkpt lat="45.52486" lon="6.79152">
        <ele>1525.5838409119</ele>
        <time>2019-07-06T05:18:32Z</time>
      </trkpt>
      <trkpt lat="45.52487" lon="6.79148">
        <ele>1524.8819163471</ele>
        <time>2019-07-06T05:18:34Z</time>
      </trkpt>
      <trkpt lat="45.52486" lon="6.79146">
        <ele>1524.6234946984</ele>
        <time>2019-07-06T05:18:35Z</time>
      </trkpt>
      <trkpt lat="45.52484" lon="6.7914">
        <ele>1524.1223609968</ele>
        <time>2019-07-06T05:18:37Z</time>
      </trkpt>
      <trkpt lat="45.52484" lon="6.79138">
        <ele>1523.8960091723</ele>
        <time>2019-07-06T05:18:38Z</time>
      </trkpt>
      <trkpt lat="45.52485" lon="6.79134">
        <ele>1524.1134173995</ele>
        <time>2019-07-06T05:18:40Z</time>
      </trkpt>
      <trkpt lat="45.52486" lon="6.7913">
        <ele>1523.7870272634</ele>
        <time>2019-07-06T05:18:42Z</time>
      </trkpt>
      <trkpt lat="45.52487" lon="6.79127">
        <ele>1523.4349026405</ele>
        <time>2019-07-06T05:18:44Z</time>
      </trkpt>
      <trkpt lat="45.52489" lon="6.79124">
        <ele>1523.3129460129</ele>
        <time>2019-07-06T05:18:46Z</time>
      </trkpt>
      <trkpt lat="45.5249" lon="6.79121">
        <ele>1523.2462700797</ele>
        <time>2019-07-06T05:18:47Z</time>
      </trkpt>
      <trkpt lat="45.52491" lon="6.79118">
        <ele>1523.169382115</ele>
        <time>2019-07-06T05:18:49Z</time>
      </trkpt>
      <trkpt lat="45.5249" lon="6.79116">
        <ele>1523.2749524167</ele>
        <time>2019-07-06T05:18:51Z</time>
      </trkpt>
      <trkpt lat="45.52489" lon="6.79112">
        <ele>1523.8746275992</ele>
        <time>2019-07-06T05:18:53Z</time>
      </trkpt>
      <trkpt lat="45.52489" lon="6.7911">
        <ele>1524.9629355747</ele>
        <time>2019-07-06T05:18:55Z</time>
      </trkpt>
      <trkpt lat="45.52488" lon="6.79107">
        <ele>1524.8621227595</ele>
        <time>2019-07-06T05:18:56Z</time>
      </trkpt>
      <trkpt lat="45.52488" lon="6.79105">
        <ele>1525.1113850018</ele>
        <time>2019-07-06T05:18:58Z</time>
      </trkpt>
      <trkpt lat="45.52487" lon="6.79101">
        <ele>1525.1467180858</ele>
        <time>2019-07-06T05:19:01Z</time>
      </trkpt>
      <trkpt lat="45.52488" lon="6.79098">
        <ele>1524.8145826789</ele>
        <time>2019-07-06T05:19:05Z</time>
      </trkpt>
      <trkpt lat="45.52486" lon="6.79097">
        <ele>1524.0744052542</ele>
        <time>2019-07-06T05:19:17Z</time>
      </trkpt>
      <trkpt lat="45.52488" lon="6.79097">
        <ele>1528.6000674906</ele>
        <time>2019-07-06T05:19:31Z</time>
      </trkpt>
      <trkpt lat="45.52489" lon="6.79095">
        <ele>1529.1151091421</ele>
        <time>2019-07-06T05:19:33Z</time>
      </trkpt>
      <trkpt lat="45.52488" lon="6.79094">
        <ele>1525.1217169018</ele>
        <time>2019-07-06T05:19:49Z</time>
      </trkpt>
      <trkpt lat="45.52486" lon="6.79094">
        <ele>1525.0392303125</ele>
        <time>2019-07-06T05:19:51Z</time>
      </trkpt>
      <trkpt lat="45.52486" lon="6.79097">
        <ele>1524.2119690135</ele>
        <time>2019-07-06T05:19:55Z</time>
      </trkpt>
      <trkpt lat="45.52487" lon="6.79099">
        <ele>1523.7106920682</ele>
        <time>2019-07-06T05:19:58Z</time>
      </trkpt>
      <trkpt lat="45.52485" lon="6.79101">
        <ele>1523.3673218875</ele>
        <time>2019-07-06T05:20:06Z</time>
      </trkpt>
      <trkpt lat="45.52484" lon="6.79099">
        <ele>1525.2485105742</ele>
        <time>2019-07-06T05:20:11Z</time>
      </trkpt>
      <trkpt lat="45.52482" lon="6.79096">
        <ele>1525.6232476855</ele>
        <time>2019-07-06T05:20:13Z</time>
      </trkpt>
      <trkpt lat="45.52481" lon="6.79094">
        <ele>1526.8932118322</ele>
        <time>2019-07-06T05:20:15Z</time>
      </trkpt>
      <trkpt lat="45.52479" lon="6.79096">
        <ele>1527.9943505593</ele>
        <time>2019-07-06T05:20:19Z</time>
      </trkpt>
      <trkpt lat="45.52483" lon="6.79094">
        <ele>1523.8988114242</ele>
        <time>2019-07-06T05:20:25Z</time>
      </trkpt>
      <trkpt lat="45.52486" lon="6.79093">
        <ele>1522.1073860596</ele>
        <time>2019-07-06T05:20:27Z</time>
      </trkpt>
      <trkpt lat="45.52487" lon="6.79091">
        <ele>1521.2034967359</ele>
        <time>2019-07-06T05:20:28Z</time>
      </trkpt>
      <trkpt lat="45.5249" lon="6.79089">
        <ele>1519.9195560492</ele>
        <time>2019-07-06T05:20:30Z</time>
      </trkpt>
      <trkpt lat="45.52493" lon="6.79087">
        <ele>1518.8560633885</ele>
        <time>2019-07-06T05:20:32Z</time>
      </trkpt>
      <trkpt lat="45.52496" lon="6.79085">
        <ele>1517.9871132447</ele>
        <time>2019-07-06T05:20:34Z</time>
      </trkpt>
      <trkpt lat="45.52498" lon="6.79083">
        <ele>1517.7975624455</ele>
        <time>2019-07-06T05:20:36Z</time>
      </trkpt>
      <trkpt lat="45.52501" lon="6.79081">
        <ele>1517.3293827884</ele>
        <time>2019-07-06T05:20:38Z</time>
      </trkpt>
      <trkpt lat="45.52503" lon="6.79078">
        <ele>1516.5867394441</ele>
        <time>2019-07-06T05:20:40Z</time>
      </trkpt>
      <trkpt lat="45.52506" lon="6.79077">
        <ele>1516.7976614068</ele>
        <time>2019-07-06T05:20:42Z</time>
      </trkpt>
      <trkpt lat="45.52508" lon="6.79074">
        <ele>1517.6519367091</ele>
        <time>2019-07-06T05:20:44Z</time>
      </trkpt>
      <trkpt lat="45.5251" lon="6.79073">
        <ele>1518.1870691406</ele>
        <time>2019-07-06T05:20:45Z</time>
      </trkpt>
      <trkpt lat="45.52511" lon="6.79071">
        <ele>1518.397714111</ele>
        <time>2019-07-06T05:20:46Z</time>
      </trkpt>
      <trkpt lat="45.52513" lon="6.79069">
        <ele>1518.3735018726</ele>
        <time>2019-07-06T05:20:48Z</time>
      </trkpt>
      <trkpt lat="45.52516" lon="6.79067">
        <ele>1518.3478356465</ele>
        <time>2019-07-06T05:20:50Z</time>
      </trkpt>
      <trkpt lat="45.52517" lon="6.79066">
        <ele>1518.0483586246</ele>
        <time>2019-07-06T05:20:51Z</time>
      </trkpt>
      <trkpt lat="45.52519" lon="6.79064">
        <ele>1517.0341393271</ele>
        <time>2019-07-06T05:20:53Z</time>
      </trkpt>
      <trkpt lat="45.52521" lon="6.79061">
        <ele>1516.6210604804</ele>
        <time>2019-07-06T05:20:55Z</time>
      </trkpt>
      <trkpt lat="45.52523" lon="6.79059">
        <ele>1516.3610624709</ele>
        <time>2019-07-06T05:20:56Z</time>
      </trkpt>
      <trkpt lat="45.52526" lon="6.79055">
        <ele>1516.3566464254</ele>
        <time>2019-07-06T05:20:58Z</time>
      </trkpt>
      <trkpt lat="45.52527" lon="6.79053">
        <ele>1516.3027071061</ele>
        <time>2019-07-06T05:20:59Z</time>
      </trkpt>
      <trkpt lat="45.52527" lon="6.79049">
        <ele>1516.550067631</ele>
        <time>2019-07-06T05:21:01Z</time>
      </trkpt>
      <trkpt lat="45.52529" lon="6.79047">
        <ele>1516.5774258801</ele>
        <time>2019-07-06T05:21:02Z</time>
      </trkpt>
      <trkpt lat="45.52532" lon="6.79045">
        <ele>1515.5795965996</ele>
        <time>2019-07-06T05:21:04Z</time>
      </trkpt>
      <trkpt lat="45.52533" lon="6.79043">
        <ele>1514.9390496199</ele>
        <time>2019-07-06T05:21:05Z</time>
      </trkpt>
      <trkpt lat="45.52535" lon="6.79038">
        <ele>1513.7460700038</ele>
        <time>2019-07-06T05:21:07Z</time>
      </trkpt>
      <trkpt lat="45.52536" lon="6.79035">
        <ele>1513.2750541757</ele>
        <time>2019-07-06T05:21:09Z</time>
      </trkpt>
      <trkpt lat="45.52537" lon="6.79031">
        <ele>1513.3806522614</ele>
        <time>2019-07-06T05:21:11Z</time>
      </trkpt>
      <trkpt lat="45.52539" lon="6.79027">
        <ele>1513.3185061637</ele>
        <time>2019-07-06T05:21:13Z</time>
      </trkpt>
      <trkpt lat="45.5254" lon="6.79023">
        <ele>1513.8261746989</ele>
        <time>2019-07-06T05:21:15Z</time>
      </trkpt>
      <trkpt lat="45.52541" lon="6.79021">
        <ele>1513.8195413274</ele>
        <time>2019-07-06T05:21:16Z</time>
      </trkpt>
      <trkpt lat="45.52542" lon="6.79017">
        <ele>1514.362444002</ele>
        <time>2019-07-06T05:21:18Z</time>
      </trkpt>
      <trkpt lat="45.52542" lon="6.79012">
        <ele>1514.3100927359</ele>
        <time>2019-07-06T05:21:20Z</time>
      </trkpt>
      <trkpt lat="45.52544" lon="6.79009">
        <ele>1514.9171517038</ele>
        <time>2019-07-06T05:21:22Z</time>
      </trkpt>
      <trkpt lat="45.52545" lon="6.79006">
        <ele>1515.5228654194</ele>
        <time>2019-07-06T05:21:24Z</time>
      </trkpt>
      <trkpt lat="45.52546" lon="6.79003">
        <ele>1515.5617487793</ele>
        <time>2019-07-06T05:21:25Z</time>
      </trkpt>
      <trkpt lat="45.52547" lon="6.78999">
        <ele>1515.2814425542</ele>
        <time>2019-07-06T05:21:27Z</time>
      </trkpt>
      <trkpt lat="45.52547" lon="6.78994">
        <ele>1514.9879159491</ele>
        <time>2019-07-06T05:21:29Z</time>
      </trkpt>
      <trkpt lat="45.52548" lon="6.78991">
        <ele>1514.6025798285</ele>
        <time>2019-07-06T05:21:31Z</time>
      </trkpt>
      <trkpt lat="45.52549" lon="6.78987">
        <ele>1513.8442672069</ele>
        <time>2019-07-06T05:21:33Z</time>
      </trkpt>
      <trkpt lat="45.52549" lon="6.78985">
        <ele>1513.6994929112</ele>
        <time>2019-07-06T05:21:34Z</time>
      </trkpt>
      <trkpt lat="45.52551" lon="6.7898">
        <ele>1513.7422366607</ele>
        <time>2019-07-06T05:21:36Z</time>
      </trkpt>
      <trkpt lat="45.52552" lon="6.78976">
        <ele>1513.5172144138</ele>
        <time>2019-07-06T05:21:38Z</time>
      </trkpt>
      <trkpt lat="45.52554" lon="6.78974">
        <ele>1513.3719944557</ele>
        <time>2019-07-06T05:21:40Z</time>
      </trkpt>
      <trkpt lat="45.52555" lon="6.7897">
        <ele>1513.5220186981</ele>
        <time>2019-07-06T05:21:42Z</time>
      </trkpt>
      <trkpt lat="45.52556" lon="6.78966">
        <ele>1514.32358484</ele>
        <time>2019-07-06T05:21:44Z</time>
      </trkpt>
      <trkpt lat="45.52557" lon="6.78961">
        <ele>1514.715732973</ele>
        <time>2019-07-06T05:21:46Z</time>
      </trkpt>
      <trkpt lat="45.52559" lon="6.78957">
        <ele>1514.3466988949</ele>
        <time>2019-07-06T05:21:48Z</time>
      </trkpt>
      <trkpt lat="45.52561" lon="6.78953">
        <ele>1513.3297175883</ele>
        <time>2019-07-06T05:21:50Z</time>
      </trkpt>
      <trkpt lat="45.52562" lon="6.7895">
        <ele>1513.2398987327</ele>
        <time>2019-07-06T05:21:52Z</time>
      </trkpt>
      <trkpt lat="45.52564" lon="6.78947">
        <ele>1513.3894849441</ele>
        <time>2019-07-06T05:21:54Z</time>
      </trkpt>
      <trkpt lat="45.52566" lon="6.78943">
        <ele>1513.4415476305</ele>
        <time>2019-07-06T05:21:56Z</time>
      </trkpt>
      <trkpt lat="45.52567" lon="6.7894">
        <ele>1513.7050964495</ele>
        <time>2019-07-06T05:21:58Z</time>
      </trkpt>
      <trkpt lat="45.52568" lon="6.78937">
        <ele>1513.8865451849</ele>
        <time>2019-07-06T05:22:00Z</time>
      </trkpt>
      <trkpt lat="45.52569" lon="6.78934">
        <ele>1514.0765248999</ele>
        <time>2019-07-06T05:22:01Z</time>
      </trkpt>
      <trkpt lat="45.52571" lon="6.78931">
        <ele>1514.0498113776</ele>
        <time>2019-07-06T05:22:03Z</time>
      </trkpt>
      <trkpt lat="45.52572" lon="6.78928">
        <ele>1514.1684231959</ele>
        <time>2019-07-06T05:22:04Z</time>
      </trkpt>
      <trkpt lat="45.52574" lon="6.78926">
        <ele>1514.0679139071</ele>
        <time>2019-07-06T05:22:05Z</time>
      </trkpt>
      <trkpt lat="45.52576" lon="6.78925">
        <ele>1514.2000978247</ele>
        <time>2019-07-06T05:22:06Z</time>
      </trkpt>
      <trkpt lat="45.52577" lon="6.78922">
        <ele>1513.9722614752</ele>
        <time>2019-07-06T05:22:08Z</time>
      </trkpt>
      <trkpt lat="45.52578" lon="6.7892">
        <ele>1513.9100501167</ele>
        <time>2019-07-06T05:22:09Z</time>
      </trkpt>
      <trkpt lat="45.5258" lon="6.78917">
        <ele>1513.6657198798</ele>
        <time>2019-07-06T05:22:11Z</time>
      </trkpt>
      <trkpt lat="45.52581" lon="6.78914">
        <ele>1513.1590076907</ele>
        <time>2019-07-06T05:22:13Z</time>
      </trkpt>
      <trkpt lat="45.52583" lon="6.78912">
        <ele>1512.495108419</ele>
        <time>2019-07-06T05:22:15Z</time>
      </trkpt>
      <trkpt lat="45.52584" lon="6.78908">
        <ele>1511.3021417954</ele>
        <time>2019-07-06T05:22:17Z</time>
      </trkpt>
      <trkpt lat="45.52586" lon="6.78905">
        <ele>1510.6672287938</ele>
        <time>2019-07-06T05:22:19Z</time>
      </trkpt>
      <trkpt lat="45.52586" lon="6.78901">
        <ele>1510.3792228004</ele>
        <time>2019-07-06T05:22:21Z</time>
      </trkpt>
      <trkpt lat="45.52587" lon="6.78898">
        <ele>1509.2282644503</ele>
        <time>2019-07-06T05:22:23Z</time>
      </trkpt>
      <trkpt lat="45.52588" lon="6.78895">
        <ele>1509.3126522643</ele>
        <time>2019-07-06T05:22:25Z</time>
      </trkpt>
      <trkpt lat="45.52588" lon="6.78893">
        <ele>1509.4092062904</ele>
        <time>2019-07-06T05:22:26Z</time>
      </trkpt>
      <trkpt lat="45.52589" lon="6.78889">
        <ele>1509.2599171146</ele>
        <time>2019-07-06T05:22:28Z</time>
      </trkpt>
      <trkpt lat="45.52591" lon="6.78887">
        <ele>1508.919354761</ele>
        <time>2019-07-06T05:22:29Z</time>
      </trkpt>
      <trkpt lat="45.52592" lon="6.78885">
        <ele>1508.3260579532</ele>
        <time>2019-07-06T05:22:30Z</time>
      </trkpt>
      <trkpt lat="45.52593" lon="6.78883">
        <ele>1507.9581601649</ele>
        <time>2019-07-06T05:22:32Z</time>
      </trkpt>
      <trkpt lat="45.52595" lon="6.78879">
        <ele>1507.6025786654</ele>
        <time>2019-07-06T05:22:34Z</time>
      </trkpt>
      <trkpt lat="45.52597" lon="6.78875">
        <ele>1506.8476433617</ele>
        <time>2019-07-06T05:22:36Z</time>
      </trkpt>
      <trkpt lat="45.52597" lon="6.78873">
        <ele>1506.5929071866</ele>
        <time>2019-07-06T05:22:38Z</time>
      </trkpt>
      <trkpt lat="45.52598" lon="6.7887">
        <ele>1506.4239032502</ele>
        <time>2019-07-06T05:22:40Z</time>
      </trkpt>
      <trkpt lat="45.526" lon="6.78867">
        <ele>1506.4940419343</ele>
        <time>2019-07-06T05:22:42Z</time>
      </trkpt>
      <trkpt lat="45.52602" lon="6.78865">
        <ele>1506.6186836803</ele>
        <time>2019-07-06T05:22:44Z</time>
      </trkpt>
      <trkpt lat="45.52603" lon="6.7886">
        <ele>1507.3468056385</ele>
        <time>2019-07-06T05:22:46Z</time>
      </trkpt>
      <trkpt lat="45.52604" lon="6.78858">
        <ele>1507.7899729286</ele>
        <time>2019-07-06T05:22:48Z</time>
      </trkpt>
      <trkpt lat="45.52606" lon="6.78854">
        <ele>1507.8397751701</ele>
        <time>2019-07-06T05:22:50Z</time>
      </trkpt>
      <trkpt lat="45.52608" lon="6.7885">
        <ele>1507.7754611497</ele>
        <time>2019-07-06T05:22:52Z</time>
      </trkpt>
      <trkpt lat="45.52609" lon="6.78848">
        <ele>1507.253181986</ele>
        <time>2019-07-06T05:22:53Z</time>
      </trkpt>
      <trkpt lat="45.52609" lon="6.78845">
        <ele>1505.9649711005</ele>
        <time>2019-07-06T05:22:55Z</time>
      </trkpt>
      <trkpt lat="45.52608" lon="6.78843">
        <ele>1505.4683768298</ele>
        <time>2019-07-06T05:22:56Z</time>
      </trkpt>
      <trkpt lat="45.52609" lon="6.78839">
        <ele>1504.6160024679</ele>
        <time>2019-07-06T05:22:58Z</time>
      </trkpt>
      <trkpt lat="45.52611" lon="6.78836">
        <ele>1503.7011695856</ele>
        <time>2019-07-06T05:23:00Z</time>
      </trkpt>
      <trkpt lat="45.52613" lon="6.78831">
        <ele>1503.2174220871</ele>
        <time>2019-07-06T05:23:02Z</time>
      </trkpt>
      <trkpt lat="45.52614" lon="6.78828">
        <ele>1503.2655107375</ele>
        <time>2019-07-06T05:23:04Z</time>
      </trkpt>
      <trkpt lat="45.52615" lon="6.78826">
        <ele>1503.0376725767</ele>
        <time>2019-07-06T05:23:05Z</time>
      </trkpt>
      <trkpt lat="45.52616" lon="6.78824">
        <ele>1502.9004382148</ele>
        <time>2019-07-06T05:23:07Z</time>
      </trkpt>
      <trkpt lat="45.52618" lon="6.7882">
        <ele>1503.1168696687</ele>
        <time>2019-07-06T05:23:09Z</time>
      </trkpt>
      <trkpt lat="45.52619" lon="6.78816">
        <ele>1502.5424290878</ele>
        <time>2019-07-06T05:23:11Z</time>
      </trkpt>
      <trkpt lat="45.52619" lon="6.78812">
        <ele>1502.0456050626</ele>
        <time>2019-07-06T05:23:13Z</time>
      </trkpt>
      <trkpt lat="45.52619" lon="6.78809">
        <ele>1501.0977507268</ele>
        <time>2019-07-06T05:23:15Z</time>
      </trkpt>
      <trkpt lat="45.52621" lon="6.78807">
        <ele>1500.5374101973</ele>
        <time>2019-07-06T05:23:17Z</time>
      </trkpt>
      <trkpt lat="45.52622" lon="6.78804">
        <ele>1500.1347146825</ele>
        <time>2019-07-06T05:23:19Z</time>
      </trkpt>
      <trkpt lat="45.52625" lon="6.78801">
        <ele>1499.288404292</ele>
        <time>2019-07-06T05:23:21Z</time>
      </trkpt>
      <trkpt lat="45.52626" lon="6.78797">
        <ele>1498.4427695369</ele>
        <time>2019-07-06T05:23:23Z</time>
      </trkpt>
      <trkpt lat="45.52628" lon="6.78793">
        <ele>1498.9394705599</ele>
        <time>2019-07-06T05:23:25Z</time>
      </trkpt>
      <trkpt lat="45.52629" lon="6.78791">
        <ele>1499.4508926763</ele>
        <time>2019-07-06T05:23:26Z</time>
      </trkpt>
      <trkpt lat="45.5263" lon="6.78789">
        <ele>1499.9810849374</ele>
        <time>2019-07-06T05:23:27Z</time>
      </trkpt>
      <trkpt lat="45.52631" lon="6.78787">
        <ele>1500.4441835892</ele>
        <time>2019-07-06T05:23:28Z</time>
      </trkpt>
      <trkpt lat="45.52632" lon="6.78785">
        <ele>1500.7678880617</ele>
        <time>2019-07-06T05:23:29Z</time>
      </trkpt>
      <trkpt lat="45.52633" lon="6.78781">
        <ele>1501.2197962769</ele>
        <time>2019-07-06T05:23:31Z</time>
      </trkpt>
      <trkpt lat="45.52632" lon="6.78777">
        <ele>1501.4081107349</ele>
        <time>2019-07-06T05:23:33Z</time>
      </trkpt>
      <trkpt lat="45.52635" lon="6.78774">
        <ele>1501.7200107635</ele>
        <time>2019-07-06T05:23:35Z</time>
      </trkpt>
      <trkpt lat="45.52636" lon="6.78771">
        <ele>1501.3029472405</ele>
        <time>2019-07-06T05:23:37Z</time>
      </trkpt>
      <trkpt lat="45.52638" lon="6.78769">
        <ele>1500.8377190729</ele>
        <time>2019-07-06T05:23:38Z</time>
      </trkpt>
      <trkpt lat="45.52639" lon="6.78764">
        <ele>1499.8079737172</ele>
        <time>2019-07-06T05:23:40Z</time>
      </trkpt>
      <trkpt lat="45.52639" lon="6.78761">
        <ele>1500.3014277774</ele>
        <time>2019-07-06T05:23:42Z</time>
      </trkpt>
      <trkpt lat="45.52639" lon="6.78757">
        <ele>1501.063938319</ele>
        <time>2019-07-06T05:23:45Z</time>
      </trkpt>
      <trkpt lat="45.5264" lon="6.78754">
        <ele>1501.9206532918</ele>
        <time>2019-07-06T05:23:47Z</time>
      </trkpt>
      <trkpt lat="45.52642" lon="6.78751">
        <ele>1502.4828577994</ele>
        <time>2019-07-06T05:23:49Z</time>
      </trkpt>
      <trkpt lat="45.52645" lon="6.78747">
        <ele>1503.0487505645</ele>
        <time>2019-07-06T05:23:51Z</time>
      </trkpt>
      <trkpt lat="45.52646" lon="6.78744">
        <ele>1503.4531476676</ele>
        <time>2019-07-06T05:23:52Z</time>
      </trkpt>
      <trkpt lat="45.52647" lon="6.78742">
        <ele>1503.8621913007</ele>
        <time>2019-07-06T05:23:53Z</time>
      </trkpt>
      <trkpt lat="45.52649" lon="6.7874">
        <ele>1504.0748920367</ele>
        <time>2019-07-06T05:23:54Z</time>
      </trkpt>
      <trkpt lat="45.52652" lon="6.78737">
        <ele>1503.9361733264</ele>
        <time>2019-07-06T05:23:56Z</time>
      </trkpt>
      <trkpt lat="45.52653" lon="6.78735">
        <ele>1503.8720933546</ele>
        <time>2019-07-06T05:23:57Z</time>
      </trkpt>
      <trkpt lat="45.52655" lon="6.78732">
        <ele>1503.0111252195</ele>
        <time>2019-07-06T05:23:59Z</time>
      </trkpt>
      <trkpt lat="45.52657" lon="6.78727">
        <ele>1502.2286039303</ele>
        <time>2019-07-06T05:24:01Z</time>
      </trkpt>
      <trkpt lat="45.5266" lon="6.78724">
        <ele>1502.0728438122</ele>
        <time>2019-07-06T05:24:03Z</time>
      </trkpt>
      <trkpt lat="45.52661" lon="6.78721">
        <ele>1502.2867324371</ele>
        <time>2019-07-06T05:24:05Z</time>
      </trkpt>
      <trkpt lat="45.52663" lon="6.78719">
        <ele>1502.2977205523</ele>
        <time>2019-07-06T05:24:07Z</time>
      </trkpt>
      <trkpt lat="45.52665" lon="6.78715">
        <ele>1502.3158751731</ele>
        <time>2019-07-06T05:24:09Z</time>
      </trkpt>
      <trkpt lat="45.52666" lon="6.7871">
        <ele>1502.5932605084</ele>
        <time>2019-07-06T05:24:11Z</time>
      </trkpt>
      <trkpt lat="45.52667" lon="6.78708">
        <ele>1502.7542546947</ele>
        <time>2019-07-06T05:24:12Z</time>
      </trkpt>
      <trkpt lat="45.52669" lon="6.78705">
        <ele>1502.8634653342</ele>
        <time>2019-07-06T05:24:13Z</time>
      </trkpt>
      <trkpt lat="45.5267" lon="6.78703">
        <ele>1502.754232829</ele>
        <time>2019-07-06T05:24:14Z</time>
      </trkpt>
      <trkpt lat="45.52671" lon="6.78701">
        <ele>1502.4760624973</ele>
        <time>2019-07-06T05:24:15Z</time>
      </trkpt>
      <trkpt lat="45.52673" lon="6.78699">
        <ele>1502.2798436317</ele>
        <time>2019-07-06T05:24:17Z</time>
      </trkpt>
      <trkpt lat="45.52674" lon="6.78697">
        <ele>1502.7924242509</ele>
        <time>2019-07-06T05:24:19Z</time>
      </trkpt>
      <trkpt lat="45.52676" lon="6.78694">
        <ele>1502.7448905544</ele>
        <time>2019-07-06T05:24:21Z</time>
      </trkpt>
      <trkpt lat="45.52677" lon="6.7869">
        <ele>1502.2975632762</ele>
        <time>2019-07-06T05:24:24Z</time>
      </trkpt>
      <trkpt lat="45.52679" lon="6.78688">
        <ele>1501.4708875546</ele>
        <time>2019-07-06T05:24:26Z</time>
      </trkpt>
      <trkpt lat="45.5268" lon="6.78686">
        <ele>1500.222088716</ele>
        <time>2019-07-06T05:24:28Z</time>
      </trkpt>
      <trkpt lat="45.52683" lon="6.78681">
        <ele>1499.3981642081</ele>
        <time>2019-07-06T05:24:30Z</time>
      </trkpt>
      <trkpt lat="45.52685" lon="6.78676">
        <ele>1499.2581742917</ele>
        <time>2019-07-06T05:24:31Z</time>
      </trkpt>
      <trkpt lat="45.52688" lon="6.78674">
        <ele>1498.8098815011</ele>
        <time>2019-07-06T05:24:33Z</time>
      </trkpt>
      <trkpt lat="45.52688" lon="6.78671">
        <ele>1497.6274942969</ele>
        <time>2019-07-06T05:24:36Z</time>
      </trkpt>
      <trkpt lat="45.52689" lon="6.78668">
        <ele>1497.1664013359</ele>
        <time>2019-07-06T05:24:38Z</time>
      </trkpt>
      <trkpt lat="45.52692" lon="6.78665">
        <ele>1497.0636345431</ele>
        <time>2019-07-06T05:24:39Z</time>
      </trkpt>
      <trkpt lat="45.52693" lon="6.78662">
        <ele>1496.8379588119</ele>
        <time>2019-07-06T05:24:41Z</time>
      </trkpt>
      <trkpt lat="45.52695" lon="6.78661">
        <ele>1496.83566524</ele>
        <time>2019-07-06T05:24:42Z</time>
      </trkpt>
      <trkpt lat="45.52696" lon="6.78658">
        <ele>1496.8371871523</ele>
        <time>2019-07-06T05:24:44Z</time>
      </trkpt>
      <trkpt lat="45.52699" lon="6.78654">
        <ele>1496.2103245219</ele>
        <time>2019-07-06T05:24:46Z</time>
      </trkpt>
      <trkpt lat="45.527" lon="6.78651">
        <ele>1496.0824106134</ele>
        <time>2019-07-06T05:24:47Z</time>
      </trkpt>
      <trkpt lat="45.52702" lon="6.7865">
        <ele>1495.502318961</ele>
        <time>2019-07-06T05:24:49Z</time>
      </trkpt>
      <trkpt lat="45.52703" lon="6.78647">
        <ele>1494.9528175986</ele>
        <time>2019-07-06T05:24:50Z</time>
      </trkpt>
      <trkpt lat="45.52705" lon="6.78645">
        <ele>1494.1980904572</ele>
        <time>2019-07-06T05:24:52Z</time>
      </trkpt>
      <trkpt lat="45.52709" lon="6.78641">
        <ele>1493.5546790412</ele>
        <time>2019-07-06T05:24:54Z</time>
      </trkpt>
      <trkpt lat="45.52711" lon="6.78638">
        <ele>1493.6413158041</ele>
        <time>2019-07-06T05:24:56Z</time>
      </trkpt>
      <trkpt lat="45.52712" lon="6.78635">
        <ele>1493.2740206823</ele>
        <time>2019-07-06T05:24:58Z</time>
      </trkpt>
      <trkpt lat="45.52714" lon="6.78633">
        <ele>1493.7245770535</ele>
        <time>2019-07-06T05:25:00Z</time>
      </trkpt>
      <trkpt lat="45.52715" lon="6.78631">
        <ele>1494.6263749375</ele>
        <time>2019-07-06T05:25:03Z</time>
      </trkpt>
      <trkpt lat="45.52719" lon="6.78629">
        <ele>1494.5331529733</ele>
        <time>2019-07-06T05:25:05Z</time>
      </trkpt>
      <trkpt lat="45.52722" lon="6.78628">
        <ele>1494.6095032384</ele>
        <time>2019-07-06T05:25:07Z</time>
      </trkpt>
      <trkpt lat="45.52724" lon="6.78627">
        <ele>1494.3035684456</ele>
        <time>2019-07-06T05:25:08Z</time>
      </trkpt>
      <trkpt lat="45.52726" lon="6.78626">
        <ele>1493.7462689483</ele>
        <time>2019-07-06T05:25:10Z</time>
      </trkpt>
      <trkpt lat="45.52729" lon="6.78625">
        <ele>1493.7267273933</ele>
        <time>2019-07-06T05:25:11Z</time>
      </trkpt>
      <trkpt lat="45.5273" lon="6.78623">
        <ele>1493.6798431948</ele>
        <time>2019-07-06T05:25:12Z</time>
      </trkpt>
      <trkpt lat="45.52732" lon="6.78619">
        <ele>1493.7676537568</ele>
        <time>2019-07-06T05:25:14Z</time>
      </trkpt>
      <trkpt lat="45.52734" lon="6.78615">
        <ele>1493.568707578</ele>
        <time>2019-07-06T05:25:16Z</time>
      </trkpt>
      <trkpt lat="45.52736" lon="6.78612">
        <ele>1493.09358911</ele>
        <time>2019-07-06T05:25:18Z</time>
      </trkpt>
      <trkpt lat="45.52739" lon="6.78609">
        <ele>1491.7200929434</ele>
        <time>2019-07-06T05:25:20Z</time>
      </trkpt>
      <trkpt lat="45.52741" lon="6.78609">
        <ele>1490.2107358317</ele>
        <time>2019-07-06T05:25:22Z</time>
      </trkpt>
      <trkpt lat="45.52744" lon="6.78609">
        <ele>1488.8849601738</ele>
        <time>2019-07-06T05:25:24Z</time>
      </trkpt>
      <trkpt lat="45.52746" lon="6.78607">
        <ele>1488.1820753497</ele>
        <time>2019-07-06T05:25:25Z</time>
      </trkpt>
      <trkpt lat="45.52749" lon="6.78606">
        <ele>1486.4142018874</ele>
        <time>2019-07-06T05:25:27Z</time>
      </trkpt>
      <trkpt lat="45.52751" lon="6.78607">
        <ele>1485.6209673653</ele>
        <time>2019-07-06T05:25:29Z</time>
      </trkpt>
      <trkpt lat="45.52753" lon="6.78606">
        <ele>1485.5889518071</ele>
        <time>2019-07-06T05:25:30Z</time>
      </trkpt>
      <trkpt lat="45.52755" lon="6.78605">
        <ele>1485.6687043548</ele>
        <time>2019-07-06T05:25:31Z</time>
      </trkpt>
      <trkpt lat="45.52758" lon="6.78602">
        <ele>1485.1629231179</ele>
        <time>2019-07-06T05:25:33Z</time>
      </trkpt>
      <trkpt lat="45.52759" lon="6.78602">
        <ele>1484.907658955</ele>
        <time>2019-07-06T05:25:34Z</time>
      </trkpt>
      <trkpt lat="45.52762" lon="6.78599">
        <ele>1482.6020115192</ele>
        <time>2019-07-06T05:25:37Z</time>
      </trkpt>
      <trkpt lat="45.52764" lon="6.78597">
        <ele>1481.289439422</ele>
        <time>2019-07-06T05:25:39Z</time>
      </trkpt>
      <trkpt lat="45.52766" lon="6.78596">
        <ele>1480.8120107156</ele>
        <time>2019-07-06T05:25:41Z</time>
      </trkpt>
      <trkpt lat="45.52769" lon="6.78595">
        <ele>1480.1727375661</ele>
        <time>2019-07-06T05:25:43Z</time>
      </trkpt>
      <trkpt lat="45.52771" lon="6.78592">
        <ele>1479.0240016613</ele>
        <time>2019-07-06T05:25:45Z</time>
      </trkpt>
      <trkpt lat="45.52774" lon="6.78589">
        <ele>1478.2088697629</ele>
        <time>2019-07-06T05:25:47Z</time>
      </trkpt>
      <trkpt lat="45.52776" lon="6.78586">
        <ele>1478.071329967</ele>
        <time>2019-07-06T05:25:49Z</time>
      </trkpt>
      <trkpt lat="45.52777" lon="6.78585">
        <ele>1478.5161245715</ele>
        <time>2019-07-06T05:25:50Z</time>
      </trkpt>
      <trkpt lat="45.52779" lon="6.78583">
        <ele>1478.8812126918</ele>
        <time>2019-07-06T05:25:51Z</time>
      </trkpt>
      <trkpt lat="45.5278" lon="6.78581">
        <ele>1478.9531613476</ele>
        <time>2019-07-06T05:25:52Z</time>
      </trkpt>
      <trkpt lat="45.52782" lon="6.78576">
        <ele>1478.7344043016</ele>
        <time>2019-07-06T05:25:54Z</time>
      </trkpt>
      <trkpt lat="45.52784" lon="6.78574">
        <ele>1478.4291621751</ele>
        <time>2019-07-06T05:25:56Z</time>
      </trkpt>
      <trkpt lat="45.52786" lon="6.78572">
        <ele>1477.6906530397</ele>
        <time>2019-07-06T05:25:58Z</time>
      </trkpt>
      <trkpt lat="45.52787" lon="6.78567">
        <ele>1475.7133417731</ele>
        <time>2019-07-06T05:26:00Z</time>
      </trkpt>
      <trkpt lat="45.52789" lon="6.78562">
        <ele>1474.0275916142</ele>
        <time>2019-07-06T05:26:02Z</time>
      </trkpt>
      <trkpt lat="45.5279" lon="6.78557">
        <ele>1474.0206084282</ele>
        <time>2019-07-06T05:26:04Z</time>
      </trkpt>
      <trkpt lat="45.52791" lon="6.78555">
        <ele>1474.6286565108</ele>
        <time>2019-07-06T05:26:06Z</time>
      </trkpt>
      <trkpt lat="45.52792" lon="6.78554">
        <ele>1474.0344790185</ele>
        <time>2019-07-06T05:26:08Z</time>
      </trkpt>
      <trkpt lat="45.52794" lon="6.78551">
        <ele>1473.1947559864</ele>
        <time>2019-07-06T05:26:09Z</time>
      </trkpt>
      <trkpt lat="45.52795" lon="6.7855">
        <ele>1472.7903916894</ele>
        <time>2019-07-06T05:26:11Z</time>
      </trkpt>
      <trkpt lat="45.52796" lon="6.78546">
        <ele>1472.5223172431</ele>
        <time>2019-07-06T05:26:13Z</time>
      </trkpt>
      <trkpt lat="45.52798" lon="6.78545">
        <ele>1472.7273113331</ele>
        <time>2019-07-06T05:26:14Z</time>
      </trkpt>
      <trkpt lat="45.52799" lon="6.78541">
        <ele>1471.9245368944</ele>
        <time>2019-07-06T05:26:16Z</time>
      </trkpt>
      <trkpt lat="45.528" lon="6.78538">
        <ele>1471.4388166094</ele>
        <time>2019-07-06T05:26:17Z</time>
      </trkpt>
      <trkpt lat="45.52801" lon="6.78537">
        <ele>1471.4635346223</ele>
        <time>2019-07-06T05:26:18Z</time>
      </trkpt>
      <trkpt lat="45.52803" lon="6.78535">
        <ele>1471.6924692155</ele>
        <time>2019-07-06T05:26:19Z</time>
      </trkpt>
      <trkpt lat="45.52804" lon="6.78532">
        <ele>1471.8136370044</ele>
        <time>2019-07-06T05:26:21Z</time>
      </trkpt>
      <trkpt lat="45.52805" lon="6.78529">
        <ele>1470.9486008817</ele>
        <time>2019-07-06T05:26:23Z</time>
      </trkpt>
      <trkpt lat="45.52806" lon="6.78526">
        <ele>1470.4133191451</ele>
        <time>2019-07-06T05:26:24Z</time>
      </trkpt>
      <trkpt lat="45.52808" lon="6.78524">
        <ele>1469.2000395877</ele>
        <time>2019-07-06T05:26:26Z</time>
      </trkpt>
      <trkpt lat="45.52809" lon="6.78521">
        <ele>1468.5891962096</ele>
        <time>2019-07-06T05:26:27Z</time>
      </trkpt>
      <trkpt lat="45.5281" lon="6.78516">
        <ele>1467.5640323892</ele>
        <time>2019-07-06T05:26:29Z</time>
      </trkpt>
      <trkpt lat="45.5281" lon="6.78512">
        <ele>1467.1003660281</ele>
        <time>2019-07-06T05:26:31Z</time>
      </trkpt>
      <trkpt lat="45.52808" lon="6.78509">
        <ele>1468.4838874922</ele>
        <time>2019-07-06T05:26:33Z</time>
      </trkpt>
      <trkpt lat="45.52808" lon="6.78505">
        <ele>1470.2495918846</ele>
        <time>2019-07-06T05:26:35Z</time>
      </trkpt>
      <trkpt lat="45.52809" lon="6.78502">
        <ele>1470.3362998551</ele>
        <time>2019-07-06T05:26:37Z</time>
      </trkpt>
      <trkpt lat="45.52809" lon="6.78499">
        <ele>1470.7575978771</ele>
        <time>2019-07-06T05:26:38Z</time>
      </trkpt>
      <trkpt lat="45.5281" lon="6.78495">
        <ele>1471.8319560476</ele>
        <time>2019-07-06T05:26:40Z</time>
      </trkpt>
      <trkpt lat="45.52809" lon="6.78492">
        <ele>1472.5417705528</ele>
        <time>2019-07-06T05:26:41Z</time>
      </trkpt>
      <trkpt lat="45.5281" lon="6.7849">
        <ele>1473.7814901055</ele>
        <time>2019-07-06T05:26:43Z</time>
      </trkpt>
      <trkpt lat="45.52812" lon="6.78487">
        <ele>1474.2305950925</ele>
        <time>2019-07-06T05:26:44Z</time>
      </trkpt>
      <trkpt lat="45.52814" lon="6.78486">
        <ele>1476.4660975563</ele>
        <time>2019-07-06T05:26:47Z</time>
      </trkpt>
      <trkpt lat="45.52817" lon="6.78484">
        <ele>1477.6497612919</ele>
        <time>2019-07-06T05:26:49Z</time>
      </trkpt>
      <trkpt lat="45.52819" lon="6.78482">
        <ele>1478.2002782557</ele>
        <time>2019-07-06T05:26:50Z</time>
      </trkpt>
      <trkpt lat="45.52821" lon="6.78481">
        <ele>1477.8686544526</ele>
        <time>2019-07-06T05:26:53Z</time>
      </trkpt>
      <trkpt lat="45.52825" lon="6.7848">
        <ele>1477.588237519</ele>
        <time>2019-07-06T05:26:55Z</time>
      </trkpt>
      <trkpt lat="45.52828" lon="6.78478">
        <ele>1476.9170732367</ele>
        <time>2019-07-06T05:26:57Z</time>
      </trkpt>
      <trkpt lat="45.5283" lon="6.78478">
        <ele>1476.1780451726</ele>
        <time>2019-07-06T05:26:59Z</time>
      </trkpt>
      <trkpt lat="45.52831" lon="6.78475">
        <ele>1476.0646084903</ele>
        <time>2019-07-06T05:27:00Z</time>
      </trkpt>
      <trkpt lat="45.52833" lon="6.78473">
        <ele>1475.5812268435</ele>
        <time>2019-07-06T05:27:02Z</time>
      </trkpt>
      <trkpt lat="45.52835" lon="6.78471">
        <ele>1475.4824072193</ele>
        <time>2019-07-06T05:27:03Z</time>
      </trkpt>
      <trkpt lat="45.52838" lon="6.7847">
        <ele>1475.4925362017</ele>
        <time>2019-07-06T05:27:05Z</time>
      </trkpt>
      <trkpt lat="45.52841" lon="6.78469">
        <ele>1475.0162205317</ele>
        <time>2019-07-06T05:27:07Z</time>
      </trkpt>
      <trkpt lat="45.52843" lon="6.78467">
        <ele>1474.8386252822</ele>
        <time>2019-07-06T05:27:08Z</time>
      </trkpt>
      <trkpt lat="45.52845" lon="6.78465">
        <ele>1475.0431121403</ele>
        <time>2019-07-06T05:27:09Z</time>
      </trkpt>
      <trkpt lat="45.52847" lon="6.78462">
        <ele>1475.4266833709</ele>
        <time>2019-07-06T05:27:10Z</time>
      </trkpt>
      <trkpt lat="45.52848" lon="6.78461">
        <ele>1476.2313297711</ele>
        <time>2019-07-06T05:27:13Z</time>
      </trkpt>
      <trkpt lat="45.5285" lon="6.78458">
        <ele>1476.298097627</ele>
        <time>2019-07-06T05:27:15Z</time>
      </trkpt>
      <trkpt lat="45.52852" lon="6.78456">
        <ele>1476.571535144</ele>
        <time>2019-07-06T05:27:17Z</time>
      </trkpt>
      <trkpt lat="45.52854" lon="6.78454">
        <ele>1476.2677983852</ele>
        <time>2019-07-06T05:27:19Z</time>
      </trkpt>
      <trkpt lat="45.52855" lon="6.78452">
        <ele>1476.0256529162</ele>
        <time>2019-07-06T05:27:20Z</time>
      </trkpt>
      <trkpt lat="45.52857" lon="6.7845">
        <ele>1476.4823429388</ele>
        <time>2019-07-06T05:27:23Z</time>
      </trkpt>
      <trkpt lat="45.52858" lon="6.78448">
        <ele>1476.7820113103</ele>
        <time>2019-07-06T05:27:24Z</time>
      </trkpt>
      <trkpt lat="45.52861" lon="6.78445">
        <ele>1477.4394786464</ele>
        <time>2019-07-06T05:27:26Z</time>
      </trkpt>
      <trkpt lat="45.52862" lon="6.78442">
        <ele>1478.0290906079</ele>
        <time>2019-07-06T05:27:28Z</time>
      </trkpt>
      <trkpt lat="45.52864" lon="6.7844">
        <ele>1477.685065234</ele>
        <time>2019-07-06T05:27:32Z</time>
      </trkpt>
      <trkpt lat="45.52864" lon="6.78437">
        <ele>1475.7963843671</ele>
        <time>2019-07-06T05:27:36Z</time>
      </trkpt>
      <trkpt lat="45.52866" lon="6.78436">
        <ele>1475.4894367204</ele>
        <time>2019-07-06T05:27:39Z</time>
      </trkpt>
      <trkpt lat="45.52869" lon="6.78434">
        <ele>1475.0474206835</ele>
        <time>2019-07-06T05:27:41Z</time>
      </trkpt>
      <trkpt lat="45.52872" lon="6.7843">
        <ele>1474.1948917705</ele>
        <time>2019-07-06T05:27:44Z</time>
      </trkpt>
      <trkpt lat="45.52874" lon="6.78428">
        <ele>1474.1680220376</ele>
        <time>2019-07-06T05:27:45Z</time>
      </trkpt>
      <trkpt lat="45.52875" lon="6.78424">
        <ele>1474.405661805</ele>
        <time>2019-07-06T05:27:46Z</time>
      </trkpt>
      <trkpt lat="45.52876" lon="6.78422">
        <ele>1474.5698598945</ele>
        <time>2019-07-06T05:27:47Z</time>
      </trkpt>
      <trkpt lat="45.52878" lon="6.78419">
        <ele>1474.481888831</ele>
        <time>2019-07-06T05:27:49Z</time>
      </trkpt>
      <trkpt lat="45.5288" lon="6.78418">
        <ele>1473.9771748235</ele>
        <time>2019-07-06T05:27:51Z</time>
      </trkpt>
      <trkpt lat="45.52884" lon="6.78415">
        <ele>1473.9353402038</ele>
        <time>2019-07-06T05:27:53Z</time>
      </trkpt>
      <trkpt lat="45.52885" lon="6.78414">
        <ele>1473.8492950087</ele>
        <time>2019-07-06T05:27:54Z</time>
      </trkpt>
      <trkpt lat="45.52887" lon="6.78411">
        <ele>1474.3985798969</ele>
        <time>2019-07-06T05:27:58Z</time>
      </trkpt>
      <trkpt lat="45.52889" lon="6.7841">
        <ele>1474.2388423311</ele>
        <time>2019-07-06T05:28:00Z</time>
      </trkpt>
      <trkpt lat="45.52891" lon="6.78407">
        <ele>1473.5513617309</ele>
        <time>2019-07-06T05:28:02Z</time>
      </trkpt>
      <trkpt lat="45.52892" lon="6.78404">
        <ele>1473.2536660514</ele>
        <time>2019-07-06T05:28:03Z</time>
      </trkpt>
      <trkpt lat="45.52895" lon="6.78401">
        <ele>1472.5564017121</ele>
        <time>2019-07-06T05:28:05Z</time>
      </trkpt>
      <trkpt lat="45.52896" lon="6.78399">
        <ele>1472.018594956</ele>
        <time>2019-07-06T05:28:07Z</time>
      </trkpt>
      <trkpt lat="45.52898" lon="6.78396">
        <ele>1471.8086113477</ele>
        <time>2019-07-06T05:28:09Z</time>
      </trkpt>
      <trkpt lat="45.52901" lon="6.78393">
        <ele>1471.514858642</ele>
        <time>2019-07-06T05:28:11Z</time>
      </trkpt>
      <trkpt lat="45.52904" lon="6.7839">
        <ele>1470.9123432722</ele>
        <time>2019-07-06T05:28:13Z</time>
      </trkpt>
      <trkpt lat="45.52906" lon="6.78387">
        <ele>1469.7553563306</ele>
        <time>2019-07-06T05:28:15Z</time>
      </trkpt>
      <trkpt lat="45.52907" lon="6.78383">
        <ele>1468.4954179848</ele>
        <time>2019-07-06T05:28:17Z</time>
      </trkpt>
      <trkpt lat="45.52908" lon="6.78381">
        <ele>1468.0896589702</ele>
        <time>2019-07-06T05:28:18Z</time>
      </trkpt>
      <trkpt lat="45.52909" lon="6.78378">
        <ele>1467.7501436208</ele>
        <time>2019-07-06T05:28:19Z</time>
      </trkpt>
      <trkpt lat="45.52911" lon="6.78376">
        <ele>1467.4051632092</ele>
        <time>2019-07-06T05:28:21Z</time>
      </trkpt>
      <trkpt lat="45.52913" lon="6.78376">
        <ele>1467.5287887944</ele>
        <time>2019-07-06T05:28:24Z</time>
      </trkpt>
      <trkpt lat="45.52914" lon="6.78374">
        <ele>1467.8895053434</ele>
        <time>2019-07-06T05:28:28Z</time>
      </trkpt>
      <trkpt lat="45.52915" lon="6.78372">
        <ele>1468.0521095842</ele>
        <time>2019-07-06T05:28:30Z</time>
      </trkpt>
      <trkpt lat="45.52916" lon="6.78369">
        <ele>1469.3785273525</ele>
        <time>2019-07-06T05:28:34Z</time>
      </trkpt>
      <trkpt lat="45.52918" lon="6.78368">
        <ele>1470.5280624598</ele>
        <time>2019-07-06T05:28:37Z</time>
      </trkpt>
      <trkpt lat="45.5292" lon="6.78364">
        <ele>1470.5923953828</ele>
        <time>2019-07-06T05:28:40Z</time>
      </trkpt>
      <trkpt lat="45.52921" lon="6.78362">
        <ele>1470.2843895978</ele>
        <time>2019-07-06T05:28:42Z</time>
      </trkpt>
      <trkpt lat="45.52921" lon="6.78361">
        <ele>1470.276377309</ele>
        <time>2019-07-06T05:28:43Z</time>
      </trkpt>
      <trkpt lat="45.52923" lon="6.78359">
        <ele>1470.0783706512</ele>
        <time>2019-07-06T05:28:45Z</time>
      </trkpt>
      <trkpt lat="45.52925" lon="6.78356">
        <ele>1469.5338041055</ele>
        <time>2019-07-06T05:28:47Z</time>
      </trkpt>
      <trkpt lat="45.52927" lon="6.78354">
        <ele>1468.6157443555</ele>
        <time>2019-07-06T05:28:49Z</time>
      </trkpt>
      <trkpt lat="45.52927" lon="6.78351">
        <ele>1469.1924358759</ele>
        <time>2019-07-06T05:28:54Z</time>
      </trkpt>
      <trkpt lat="45.52928" lon="6.78349">
        <ele>1468.8493551867</ele>
        <time>2019-07-06T05:28:57Z</time>
      </trkpt>
      <trkpt lat="45.52928" lon="6.78346">
        <ele>1468.3320649853</ele>
        <time>2019-07-06T05:28:59Z</time>
      </trkpt>
      <trkpt lat="45.52931" lon="6.78343">
        <ele>1468.0979192889</ele>
        <time>2019-07-06T05:29:02Z</time>
      </trkpt>
      <trkpt lat="45.52934" lon="6.78341">
        <ele>1467.4128136647</ele>
        <time>2019-07-06T05:29:04Z</time>
      </trkpt>
      <trkpt lat="45.52936" lon="6.7834">
        <ele>1467.0404110941</ele>
        <time>2019-07-06T05:29:05Z</time>
      </trkpt>
      <trkpt lat="45.52937" lon="6.78338">
        <ele>1466.0675133658</ele>
        <time>2019-07-06T05:29:07Z</time>
      </trkpt>
      <trkpt lat="45.5294" lon="6.78335">
        <ele>1465.7067677564</ele>
        <time>2019-07-06T05:29:09Z</time>
      </trkpt>
      <trkpt lat="45.52941" lon="6.78332">
        <ele>1466.2889262913</ele>
        <time>2019-07-06T05:29:11Z</time>
      </trkpt>
      <trkpt lat="45.52942" lon="6.78329">
        <ele>1466.941764338</ele>
        <time>2019-07-06T05:29:13Z</time>
      </trkpt>
      <trkpt lat="45.52944" lon="6.78326">
        <ele>1467.2987697023</ele>
        <time>2019-07-06T05:29:16Z</time>
      </trkpt>
      <trkpt lat="45.52946" lon="6.78324">
        <ele>1466.9471639309</ele>
        <time>2019-07-06T05:29:18Z</time>
      </trkpt>
      <trkpt lat="45.52949" lon="6.78322">
        <ele>1466.1529331579</ele>
        <time>2019-07-06T05:29:20Z</time>
      </trkpt>
      <trkpt lat="45.52951" lon="6.78319">
        <ele>1466.0432534496</ele>
        <time>2019-07-06T05:29:23Z</time>
      </trkpt>
      <trkpt lat="45.52953" lon="6.78318">
        <ele>1465.9672332014</ele>
        <time>2019-07-06T05:29:24Z</time>
      </trkpt>
      <trkpt lat="45.52954" lon="6.78316">
        <ele>1465.7686493539</ele>
        <time>2019-07-06T05:29:25Z</time>
      </trkpt>
      <trkpt lat="45.52956" lon="6.78315">
        <ele>1465.3190502263</ele>
        <time>2019-07-06T05:29:27Z</time>
      </trkpt>
      <trkpt lat="45.52958" lon="6.78313">
        <ele>1464.9742457005</ele>
        <time>2019-07-06T05:29:29Z</time>
      </trkpt>
      <trkpt lat="45.52959" lon="6.7831">
        <ele>1464.779573858</ele>
        <time>2019-07-06T05:29:30Z</time>
      </trkpt>
      <trkpt lat="45.52961" lon="6.78307">
        <ele>1465.0363280238</ele>
        <time>2019-07-06T05:29:33Z</time>
      </trkpt>
      <trkpt lat="45.52962" lon="6.78305">
        <ele>1465.5832037808</ele>
        <time>2019-07-06T05:29:34Z</time>
      </trkpt>
      <trkpt lat="45.52964" lon="6.78303">
        <ele>1466.2815981603</ele>
        <time>2019-07-06T05:29:36Z</time>
      </trkpt>
      <trkpt lat="45.52964" lon="6.783">
        <ele>1465.8551692811</ele>
        <time>2019-07-06T05:29:39Z</time>
      </trkpt>
      <trkpt lat="45.52966" lon="6.78298">
        <ele>1464.6330716615</ele>
        <time>2019-07-06T05:29:41Z</time>
      </trkpt>
      <trkpt lat="45.52968" lon="6.78293">
        <ele>1464.0876012824</ele>
        <time>2019-07-06T05:29:43Z</time>
      </trkpt>
      <trkpt lat="45.52969" lon="6.78289">
        <ele>1463.3366492956</ele>
        <time>2019-07-06T05:29:45Z</time>
      </trkpt>
      <trkpt lat="45.52971" lon="6.78288">
        <ele>1462.686047425</ele>
        <time>2019-07-06T05:29:46Z</time>
      </trkpt>
      <trkpt lat="45.52973" lon="6.78286">
        <ele>1461.3961682332</ele>
        <time>2019-07-06T05:29:48Z</time>
      </trkpt>
      <trkpt lat="45.52975" lon="6.78283">
        <ele>1460.7366077523</ele>
        <time>2019-07-06T05:29:50Z</time>
      </trkpt>
      <trkpt lat="45.52977" lon="6.7828">
        <ele>1459.2588765554</ele>
        <time>2019-07-06T05:29:52Z</time>
      </trkpt>
      <trkpt lat="45.52978" lon="6.78278">
        <ele>1458.4252982311</ele>
        <time>2019-07-06T05:29:53Z</time>
      </trkpt>
      <trkpt lat="45.52981" lon="6.78277">
        <ele>1458.2624729201</ele>
        <time>2019-07-06T05:29:55Z</time>
      </trkpt>
      <trkpt lat="45.52982" lon="6.78274">
        <ele>1458.566714283</ele>
        <time>2019-07-06T05:29:57Z</time>
      </trkpt>
      <trkpt lat="45.52984" lon="6.78272">
        <ele>1458.5727733096</ele>
        <time>2019-07-06T05:29:59Z</time>
      </trkpt>
      <trkpt lat="45.52986" lon="6.7827">
        <ele>1458.8179309419</ele>
        <time>2019-07-06T05:30:00Z</time>
      </trkpt>
      <trkpt lat="45.52987" lon="6.78268">
        <ele>1459.0178141099</ele>
        <time>2019-07-06T05:30:01Z</time>
      </trkpt>
      <trkpt lat="45.5299" lon="6.78264">
        <ele>1459.3072952508</ele>
        <time>2019-07-06T05:30:03Z</time>
      </trkpt>
      <trkpt lat="45.52992" lon="6.78262">
        <ele>1458.7613931778</ele>
        <time>2019-07-06T05:30:05Z</time>
      </trkpt>
      <trkpt lat="45.52994" lon="6.78259">
        <ele>1457.8452909937</ele>
        <time>2019-07-06T05:30:07Z</time>
      </trkpt>
      <trkpt lat="45.52995" lon="6.78256">
        <ele>1456.8365111991</ele>
        <time>2019-07-06T05:30:09Z</time>
      </trkpt>
      <trkpt lat="45.52996" lon="6.78253">
        <ele>1455.4319869087</ele>
        <time>2019-07-06T05:30:12Z</time>
      </trkpt>
      <trkpt lat="45.52997" lon="6.78251">
        <ele>1455.3912826664</ele>
        <time>2019-07-06T05:30:13Z</time>
      </trkpt>
      <trkpt lat="45.52999" lon="6.78248">
        <ele>1454.6138612637</ele>
        <time>2019-07-06T05:30:15Z</time>
      </trkpt>
      <trkpt lat="45.53001" lon="6.78245">
        <ele>1454.419546463</ele>
        <time>2019-07-06T05:30:17Z</time>
      </trkpt>
      <trkpt lat="45.53003" lon="6.78243">
        <ele>1454.340543818</ele>
        <time>2019-07-06T05:30:19Z</time>
      </trkpt>
      <trkpt lat="45.53005" lon="6.7824">
        <ele>1453.5287131513</ele>
        <time>2019-07-06T05:30:21Z</time>
      </trkpt>
      <trkpt lat="45.53007" lon="6.78238">
        <ele>1453.8744847518</ele>
        <time>2019-07-06T05:30:22Z</time>
      </trkpt>
      <trkpt lat="45.53009" lon="6.78237">
        <ele>1454.3850934025</ele>
        <time>2019-07-06T05:30:23Z</time>
      </trkpt>
      <trkpt lat="45.5301" lon="6.78236">
        <ele>1455.0979588778</ele>
        <time>2019-07-06T05:30:25Z</time>
      </trkpt>
      <trkpt lat="45.53012" lon="6.78234">
        <ele>1455.522665979</ele>
        <time>2019-07-06T05:30:26Z</time>
      </trkpt>
      <trkpt lat="45.53014" lon="6.7823">
        <ele>1456.2095819004</ele>
        <time>2019-07-06T05:30:28Z</time>
      </trkpt>
      <trkpt lat="45.53015" lon="6.78227">
        <ele>1456.5052795397</ele>
        <time>2019-07-06T05:30:29Z</time>
      </trkpt>
      <trkpt lat="45.53016" lon="6.78225">
        <ele>1456.8687071951</ele>
        <time>2019-07-06T05:30:30Z</time>
      </trkpt>
      <trkpt lat="45.53018" lon="6.78223">
        <ele>1458.3318919252</ele>
        <time>2019-07-06T05:30:33Z</time>
      </trkpt>
      <trkpt lat="45.53019" lon="6.7822">
        <ele>1458.7788181491</ele>
        <time>2019-07-06T05:30:35Z</time>
      </trkpt>
      <trkpt lat="45.53021" lon="6.78218">
        <ele>1458.6349004664</ele>
        <time>2019-07-06T05:30:37Z</time>
      </trkpt>
      <trkpt lat="45.53023" lon="6.78215">
        <ele>1458.4006464472</ele>
        <time>2019-07-06T05:30:39Z</time>
      </trkpt>
      <trkpt lat="45.53025" lon="6.78212">
        <ele>1457.533936467</ele>
        <time>2019-07-06T05:30:41Z</time>
      </trkpt>
      <trkpt lat="45.53027" lon="6.78208">
        <ele>1456.6887115623</ele>
        <time>2019-07-06T05:30:43Z</time>
      </trkpt>
      <trkpt lat="45.53028" lon="6.78205">
        <ele>1457.0698204181</ele>
        <time>2019-07-06T05:30:45Z</time>
      </trkpt>
      <trkpt lat="45.5303" lon="6.78202">
        <ele>1457.8697257525</ele>
        <time>2019-07-06T05:30:47Z</time>
      </trkpt>
      <trkpt lat="45.53032" lon="6.78198">
        <ele>1458.2624203708</ele>
        <time>2019-07-06T05:30:49Z</time>
      </trkpt>
      <trkpt lat="45.53032" lon="6.78196">
        <ele>1458.5286818972</ele>
        <time>2019-07-06T05:30:51Z</time>
      </trkpt>
      <trkpt lat="45.53033" lon="6.78192">
        <ele>1458.4188333406</ele>
        <time>2019-07-06T05:30:53Z</time>
      </trkpt>
      <trkpt lat="45.53034" lon="6.78189">
        <ele>1457.6813383654</ele>
        <time>2019-07-06T05:30:55Z</time>
      </trkpt>
      <trkpt lat="45.53035" lon="6.78186">
        <ele>1456.8328273063</ele>
        <time>2019-07-06T05:30:57Z</time>
      </trkpt>
      <trkpt lat="45.53036" lon="6.78185">
        <ele>1455.7518016921</ele>
        <time>2019-07-06T05:30:59Z</time>
      </trkpt>
      <trkpt lat="45.53037" lon="6.78183">
        <ele>1454.6124174028</ele>
        <time>2019-07-06T05:31:01Z</time>
      </trkpt>
      <trkpt lat="45.5304" lon="6.78182">
        <ele>1452.6852128603</ele>
        <time>2019-07-06T05:31:04Z</time>
      </trkpt>
      <trkpt lat="45.53042" lon="6.78179">
        <ele>1451.9355990428</ele>
        <time>2019-07-06T05:31:06Z</time>
      </trkpt>
      <trkpt lat="45.53042" lon="6.78176">
        <ele>1451.0807604307</ele>
        <time>2019-07-06T05:31:08Z</time>
      </trkpt>
      <trkpt lat="45.53043" lon="6.78173">
        <ele>1449.3194493426</ele>
        <time>2019-07-06T05:31:10Z</time>
      </trkpt>
      <trkpt lat="45.53044" lon="6.78169">
        <ele>1447.5387961323</ele>
        <time>2019-07-06T05:31:12Z</time>
      </trkpt>
      <trkpt lat="45.53045" lon="6.78166">
        <ele>1446.4548362146</ele>
        <time>2019-07-06T05:31:14Z</time>
      </trkpt>
      <trkpt lat="45.53046" lon="6.78161">
        <ele>1446.0629036258</ele>
        <time>2019-07-06T05:31:16Z</time>
      </trkpt>
      <trkpt lat="45.53047" lon="6.78158">
        <ele>1445.2974468089</ele>
        <time>2019-07-06T05:31:18Z</time>
      </trkpt>
      <trkpt lat="45.53049" lon="6.78155">
        <ele>1444.7985665202</ele>
        <time>2019-07-06T05:31:20Z</time>
      </trkpt>
      <trkpt lat="45.53051" lon="6.78155">
        <ele>1444.6550861346</ele>
        <time>2019-07-06T05:31:21Z</time>
      </trkpt>
      <trkpt lat="45.53052" lon="6.78152">
        <ele>1444.5179281703</ele>
        <time>2019-07-06T05:31:23Z</time>
      </trkpt>
      <trkpt lat="45.53054" lon="6.78149">
        <ele>1444.2605460789</ele>
        <time>2019-07-06T05:31:25Z</time>
      </trkpt>
      <trkpt lat="45.53054" lon="6.78146">
        <ele>1444.1665337918</ele>
        <time>2019-07-06T05:31:27Z</time>
      </trkpt>
      <trkpt lat="45.53055" lon="6.78143">
        <ele>1444.0403606171</ele>
        <time>2019-07-06T05:31:29Z</time>
      </trkpt>
      <trkpt lat="45.53056" lon="6.7814">
        <ele>1444.6874669356</ele>
        <time>2019-07-06T05:31:31Z</time>
      </trkpt>
      <trkpt lat="45.53058" lon="6.78138">
        <ele>1444.8286632781</ele>
        <time>2019-07-06T05:31:32Z</time>
      </trkpt>
      <trkpt lat="45.53059" lon="6.78135">
        <ele>1444.7459319676</ele>
        <time>2019-07-06T05:31:34Z</time>
      </trkpt>
      <trkpt lat="45.5306" lon="6.78131">
        <ele>1444.3906163417</ele>
        <time>2019-07-06T05:31:37Z</time>
      </trkpt>
      <trkpt lat="45.53061" lon="6.78128">
        <ele>1444.3264668853</ele>
        <time>2019-07-06T05:31:38Z</time>
      </trkpt>
      <trkpt lat="45.53062" lon="6.78124">
        <ele>1443.8441043972</ele>
        <time>2019-07-06T05:31:40Z</time>
      </trkpt>
      <trkpt lat="45.53064" lon="6.78122">
        <ele>1443.9425796352</ele>
        <time>2019-07-06T05:31:42Z</time>
      </trkpt>
      <trkpt lat="45.53065" lon="6.7812">
        <ele>1444.0724080538</ele>
        <time>2019-07-06T05:31:43Z</time>
      </trkpt>
      <trkpt lat="45.53066" lon="6.78118">
        <ele>1445.0388562872</ele>
        <time>2019-07-06T05:31:45Z</time>
      </trkpt>
      <trkpt lat="45.53069" lon="6.78117">
        <ele>1445.8846483645</ele>
        <time>2019-07-06T05:31:46Z</time>
      </trkpt>
      <trkpt lat="45.53069" lon="6.78114">
        <ele>1446.8236506392</ele>
        <time>2019-07-06T05:31:47Z</time>
      </trkpt>
      <trkpt lat="45.53069" lon="6.78111">
        <ele>1447.6674944446</ele>
        <time>2019-07-06T05:31:48Z</time>
      </trkpt>
      <trkpt lat="45.5307" lon="6.78108">
        <ele>1448.1861159844</ele>
        <time>2019-07-06T05:31:49Z</time>
      </trkpt>
      <trkpt lat="45.5307" lon="6.78104">
        <ele>1448.823633156</ele>
        <time>2019-07-06T05:31:51Z</time>
      </trkpt>
      <trkpt lat="45.53071" lon="6.78102">
        <ele>1448.9943265193</ele>
        <time>2019-07-06T05:31:52Z</time>
      </trkpt>
      <trkpt lat="45.53072" lon="6.78099">
        <ele>1449.1921318462</ele>
        <time>2019-07-06T05:31:53Z</time>
      </trkpt>
      <trkpt lat="45.53073" lon="6.78096">
        <ele>1449.1491085566</ele>
        <time>2019-07-06T05:31:55Z</time>
      </trkpt>
      <trkpt lat="45.53074" lon="6.78091">
        <ele>1448.6763221399</ele>
        <time>2019-07-06T05:31:57Z</time>
      </trkpt>
      <trkpt lat="45.53075" lon="6.78088">
        <ele>1448.7141482985</ele>
        <time>2019-07-06T05:31:58Z</time>
      </trkpt>
      <trkpt lat="45.53076" lon="6.78085">
        <ele>1448.4812316219</ele>
        <time>2019-07-06T05:31:59Z</time>
      </trkpt>
      <trkpt lat="45.53077" lon="6.78082">
        <ele>1448.2196621681</ele>
        <time>2019-07-06T05:32:00Z</time>
      </trkpt>
      <trkpt lat="45.53079" lon="6.78079">
        <ele>1446.9183821195</ele>
        <time>2019-07-06T05:32:03Z</time>
      </trkpt>
      <trkpt lat="45.5308" lon="6.78075">
        <ele>1446.6308597302</ele>
        <time>2019-07-06T05:32:05Z</time>
      </trkpt>
      <trkpt lat="45.53082" lon="6.78073">
        <ele>1446.74038424</ele>
        <time>2019-07-06T05:32:06Z</time>
      </trkpt>
      <trkpt lat="45.53084" lon="6.78069">
        <ele>1447.3362819338</ele>
        <time>2019-07-06T05:32:09Z</time>
      </trkpt>
      <trkpt lat="45.53084" lon="6.78066">
        <ele>1446.9536854406</ele>
        <time>2019-07-06T05:32:11Z</time>
      </trkpt>
      <trkpt lat="45.53084" lon="6.78062">
        <ele>1447.2242486056</ele>
        <time>2019-07-06T05:32:13Z</time>
      </trkpt>
      <trkpt lat="45.53085" lon="6.78059">
        <ele>1447.8470428205</ele>
        <time>2019-07-06T05:32:15Z</time>
      </trkpt>
      <trkpt lat="45.53087" lon="6.78056">
        <ele>1448.0736022779</ele>
        <time>2019-07-06T05:32:16Z</time>
      </trkpt>
      <trkpt lat="45.53088" lon="6.78054">
        <ele>1448.5872536415</ele>
        <time>2019-07-06T05:32:18Z</time>
      </trkpt>
      <trkpt lat="45.5309" lon="6.78052">
        <ele>1448.7092807232</ele>
        <time>2019-07-06T05:32:19Z</time>
      </trkpt>
      <trkpt lat="45.53092" lon="6.78049">
        <ele>1449.306594303</ele>
        <time>2019-07-06T05:32:21Z</time>
      </trkpt>
      <trkpt lat="45.53094" lon="6.78046">
        <ele>1450.1401977128</ele>
        <time>2019-07-06T05:32:23Z</time>
      </trkpt>
      <trkpt lat="45.53096" lon="6.78043">
        <ele>1450.6047362303</ele>
        <time>2019-07-06T05:32:25Z</time>
      </trkpt>
      <trkpt lat="45.53097" lon="6.7804">
        <ele>1451.046696817</ele>
        <time>2019-07-06T05:32:27Z</time>
      </trkpt>
      <trkpt lat="45.53098" lon="6.78036">
        <ele>1450.8933744566</ele>
        <time>2019-07-06T05:32:29Z</time>
      </trkpt>
      <trkpt lat="45.53099" lon="6.78033">
        <ele>1450.0368470322</ele>
        <time>2019-07-06T05:32:31Z</time>
      </trkpt>
      <trkpt lat="45.53099" lon="6.78029">
        <ele>1449.1896357202</ele>
        <time>2019-07-06T05:32:33Z</time>
      </trkpt>
      <trkpt lat="45.531" lon="6.78025">
        <ele>1448.4523613278</ele>
        <time>2019-07-06T05:32:35Z</time>
      </trkpt>
      <trkpt lat="45.53102" lon="6.78022">
        <ele>1448.2544992368</ele>
        <time>2019-07-06T05:32:37Z</time>
      </trkpt>
      <trkpt lat="45.53102" lon="6.7802">
        <ele>1448.5085016721</ele>
        <time>2019-07-06T05:32:38Z</time>
      </trkpt>
      <trkpt lat="45.53103" lon="6.78017">
        <ele>1448.9201206664</ele>
        <time>2019-07-06T05:32:39Z</time>
      </trkpt>
      <trkpt lat="45.53103" lon="6.78014">
        <ele>1449.7268318237</ele>
        <time>2019-07-06T05:32:41Z</time>
      </trkpt>
      <trkpt lat="45.53105" lon="6.78011">
        <ele>1449.1710404635</ele>
        <time>2019-07-06T05:32:43Z</time>
      </trkpt>
      <trkpt lat="45.53107" lon="6.78009">
        <ele>1448.794901837</ele>
        <time>2019-07-06T05:32:44Z</time>
      </trkpt>
      <trkpt lat="45.53107" lon="6.78006">
        <ele>1448.7527145363</ele>
        <time>2019-07-06T05:32:45Z</time>
      </trkpt>
      <trkpt lat="45.53109" lon="6.78005">
        <ele>1448.6773618288</ele>
        <time>2019-07-06T05:32:46Z</time>
      </trkpt>
      <trkpt lat="45.5311" lon="6.78003">
        <ele>1448.9520179035</ele>
        <time>2019-07-06T05:32:47Z</time>
      </trkpt>
      <trkpt lat="45.53111" lon="6.77999">
        <ele>1449.37912121</ele>
        <time>2019-07-06T05:32:49Z</time>
      </trkpt>
      <trkpt lat="45.53111" lon="6.77997">
        <ele>1449.4379057049</ele>
        <time>2019-07-06T05:32:50Z</time>
      </trkpt>
      <trkpt lat="45.53113" lon="6.77994">
        <ele>1449.5809536483</ele>
        <time>2019-07-06T05:32:52Z</time>
      </trkpt>
      <trkpt lat="45.53115" lon="6.77991">
        <ele>1449.1656923216</ele>
        <time>2019-07-06T05:32:55Z</time>
      </trkpt>
      <trkpt lat="45.53114" lon="6.77986">
        <ele>1449.170969507</ele>
        <time>2019-07-06T05:32:57Z</time>
      </trkpt>
      <trkpt lat="45.53114" lon="6.77981">
        <ele>1449.0553266295</ele>
        <time>2019-07-06T05:32:59Z</time>
      </trkpt>
      <trkpt lat="45.53114" lon="6.77978">
        <ele>1448.9925480946</ele>
        <time>2019-07-06T05:33:01Z</time>
      </trkpt>
      <trkpt lat="45.53116" lon="6.77975">
        <ele>1449.4847733752</ele>
        <time>2019-07-06T05:33:03Z</time>
      </trkpt>
      <trkpt lat="45.53117" lon="6.77972">
        <ele>1449.3903332885</ele>
        <time>2019-07-06T05:33:05Z</time>
      </trkpt>
      <trkpt lat="45.53118" lon="6.77968">
        <ele>1449.0138765099</ele>
        <time>2019-07-06T05:33:07Z</time>
      </trkpt>
      <trkpt lat="45.53118" lon="6.77966">
        <ele>1448.7575873676</ele>
        <time>2019-07-06T05:33:08Z</time>
      </trkpt>
      <trkpt lat="45.53119" lon="6.77962">
        <ele>1449.1882516768</ele>
        <time>2019-07-06T05:33:10Z</time>
      </trkpt>
      <trkpt lat="45.5312" lon="6.77957">
        <ele>1449.7345850454</ele>
        <time>2019-07-06T05:33:12Z</time>
      </trkpt>
      <trkpt lat="45.5312" lon="6.77955">
        <ele>1450.247528157</ele>
        <time>2019-07-06T05:33:13Z</time>
      </trkpt>
      <trkpt lat="45.53122" lon="6.77948">
        <ele>1450.4484208981</ele>
        <time>2019-07-06T05:33:15Z</time>
      </trkpt>
      <trkpt lat="45.53123" lon="6.77944">
        <ele>1450.9734987497</ele>
        <time>2019-07-06T05:33:16Z</time>
      </trkpt>
      <trkpt lat="45.53125" lon="6.77941">
        <ele>1451.6331961162</ele>
        <time>2019-07-06T05:33:17Z</time>
      </trkpt>
      <trkpt lat="45.53126" lon="6.77937">
        <ele>1452.2392885902</ele>
        <time>2019-07-06T05:33:18Z</time>
      </trkpt>
      <trkpt lat="45.53127" lon="6.77933">
        <ele>1453.8295095746</ele>
        <time>2019-07-06T05:33:20Z</time>
      </trkpt>
      <trkpt lat="45.53127" lon="6.77928">
        <ele>1455.5859846904</ele>
        <time>2019-07-06T05:33:22Z</time>
      </trkpt>
      <trkpt lat="45.53128" lon="6.77925">
        <ele>1456.3762688759</ele>
        <time>2019-07-06T05:33:23Z</time>
      </trkpt>
      <trkpt lat="45.53128" lon="6.77922">
        <ele>1458.2401206917</ele>
        <time>2019-07-06T05:33:25Z</time>
      </trkpt>
      <trkpt lat="45.53128" lon="6.77918">
        <ele>1460.1206717148</ele>
        <time>2019-07-06T05:33:27Z</time>
      </trkpt>
      <trkpt lat="45.53129" lon="6.77914">
        <ele>1460.7173126759</ele>
        <time>2019-07-06T05:33:29Z</time>
      </trkpt>
      <trkpt lat="45.53131" lon="6.7791">
        <ele>1461.305705869</ele>
        <time>2019-07-06T05:33:31Z</time>
      </trkpt>
      <trkpt lat="45.53132" lon="6.77906">
        <ele>1461.457227052</ele>
        <time>2019-07-06T05:33:33Z</time>
      </trkpt>
      <trkpt lat="45.53133" lon="6.77903">
        <ele>1462.267681964</ele>
        <time>2019-07-06T05:33:35Z</time>
      </trkpt>
      <trkpt lat="45.53133" lon="6.779">
        <ele>1462.8777806858</ele>
        <time>2019-07-06T05:33:36Z</time>
      </trkpt>
      <trkpt lat="45.53134" lon="6.77897">
        <ele>1463.7014459332</ele>
        <time>2019-07-06T05:33:38Z</time>
      </trkpt>
      <trkpt lat="45.53134" lon="6.77893">
        <ele>1463.9416386659</ele>
        <time>2019-07-06T05:33:40Z</time>
      </trkpt>
      <trkpt lat="45.53135" lon="6.7789">
        <ele>1464.7713044766</ele>
        <time>2019-07-06T05:33:42Z</time>
      </trkpt>
      <trkpt lat="45.53136" lon="6.77886">
        <ele>1465.9508809224</ele>
        <time>2019-07-06T05:33:44Z</time>
      </trkpt>
      <trkpt lat="45.53137" lon="6.77883">
        <ele>1466.2087282265</ele>
        <time>2019-07-06T05:33:45Z</time>
      </trkpt>
      <trkpt lat="45.53138" lon="6.77879">
        <ele>1466.6385015358</ele>
        <time>2019-07-06T05:33:47Z</time>
      </trkpt>
      <trkpt lat="45.53138" lon="6.77875">
        <ele>1466.9129545348</ele>
        <time>2019-07-06T05:33:49Z</time>
      </trkpt>
      <trkpt lat="45.53138" lon="6.77871">
        <ele>1467.0850734893</ele>
        <time>2019-07-06T05:33:51Z</time>
      </trkpt>
      <trkpt lat="45.53138" lon="6.77867">
        <ele>1466.9821596795</ele>
        <time>2019-07-06T05:33:53Z</time>
      </trkpt>
      <trkpt lat="45.53138" lon="6.77864">
        <ele>1466.7646832775</ele>
        <time>2019-07-06T05:33:54Z</time>
      </trkpt>
      <trkpt lat="45.53139" lon="6.77861">
        <ele>1466.2319658999</ele>
        <time>2019-07-06T05:33:56Z</time>
      </trkpt>
      <trkpt lat="45.53138" lon="6.77858">
        <ele>1466.123082198</ele>
        <time>2019-07-06T05:33:57Z</time>
      </trkpt>
      <trkpt lat="45.53138" lon="6.77854">
        <ele>1465.888860214</ele>
        <time>2019-07-06T05:33:59Z</time>
      </trkpt>
      <trkpt lat="45.53139" lon="6.7785">
        <ele>1465.7170292325</ele>
        <time>2019-07-06T05:34:01Z</time>
      </trkpt>
      <trkpt lat="45.53138" lon="6.77847">
        <ele>1465.8491434451</ele>
        <time>2019-07-06T05:34:03Z</time>
      </trkpt>
      <trkpt lat="45.53138" lon="6.77844">
        <ele>1466.1938518132</ele>
        <time>2019-07-06T05:34:05Z</time>
      </trkpt>
      <trkpt lat="45.53139" lon="6.7784">
        <ele>1466.3870030508</ele>
        <time>2019-07-06T05:34:07Z</time>
      </trkpt>
      <trkpt lat="45.53139" lon="6.77835">
        <ele>1466.6181456439</ele>
        <time>2019-07-06T05:34:09Z</time>
      </trkpt>
      <trkpt lat="45.5314" lon="6.77831">
        <ele>1466.5500195571</ele>
        <time>2019-07-06T05:34:11Z</time>
      </trkpt>
      <trkpt lat="45.53139" lon="6.77828">
        <ele>1466.391015431</ele>
        <time>2019-07-06T05:34:12Z</time>
      </trkpt>
      <trkpt lat="45.53139" lon="6.77825">
        <ele>1466.1251030412</ele>
        <time>2019-07-06T05:34:14Z</time>
      </trkpt>
      <trkpt lat="45.53138" lon="6.7782">
        <ele>1465.293264787</ele>
        <time>2019-07-06T05:34:17Z</time>
      </trkpt>
      <trkpt lat="45.53137" lon="6.77817">
        <ele>1465.130193891</ele>
        <time>2019-07-06T05:34:19Z</time>
      </trkpt>
      <trkpt lat="45.53138" lon="6.77814">
        <ele>1465.2827613918</ele>
        <time>2019-07-06T05:34:21Z</time>
      </trkpt>
      <trkpt lat="45.53138" lon="6.7781">
        <ele>1464.9397051365</ele>
        <time>2019-07-06T05:34:23Z</time>
      </trkpt>
      <trkpt lat="45.53138" lon="6.77805">
        <ele>1464.6348791643</ele>
        <time>2019-07-06T05:34:25Z</time>
      </trkpt>
      <trkpt lat="45.53138" lon="6.77802">
        <ele>1464.4947118662</ele>
        <time>2019-07-06T05:34:26Z</time>
      </trkpt>
      <trkpt lat="45.53138" lon="6.77797">
        <ele>1463.5930977675</ele>
        <time>2019-07-06T05:34:28Z</time>
      </trkpt>
      <trkpt lat="45.53137" lon="6.77793">
        <ele>1463.3217159487</ele>
        <time>2019-07-06T05:34:30Z</time>
      </trkpt>
      <trkpt lat="45.53137" lon="6.77788">
        <ele>1463.539626648</ele>
        <time>2019-07-06T05:34:32Z</time>
      </trkpt>
      <trkpt lat="45.53138" lon="6.77784">
        <ele>1463.3451404593</ele>
        <time>2019-07-06T05:34:34Z</time>
      </trkpt>
      <trkpt lat="45.53137" lon="6.7778">
        <ele>1462.8239050558</ele>
        <time>2019-07-06T05:34:36Z</time>
      </trkpt>
      <trkpt lat="45.53137" lon="6.77775">
        <ele>1462.4068895967</ele>
        <time>2019-07-06T05:34:38Z</time>
      </trkpt>
      <trkpt lat="45.53137" lon="6.77772">
        <ele>1463.0731406579</ele>
        <time>2019-07-06T05:34:40Z</time>
      </trkpt>
      <trkpt lat="45.53137" lon="6.77767">
        <ele>1463.8186267629</ele>
        <time>2019-07-06T05:34:42Z</time>
      </trkpt>
      <trkpt lat="45.53136" lon="6.77766">
        <ele>1463.9320515085</ele>
        <time>2019-07-06T05:34:43Z</time>
      </trkpt>
      <trkpt lat="45.53137" lon="6.77762">
        <ele>1463.8350068002</ele>
        <time>2019-07-06T05:34:45Z</time>
      </trkpt>
      <trkpt lat="45.53135" lon="6.77758">
        <ele>1463.8438580979</ele>
        <time>2019-07-06T05:34:47Z</time>
      </trkpt>
      <trkpt lat="45.53136" lon="6.77753">
        <ele>1464.1849938594</ele>
        <time>2019-07-06T05:34:49Z</time>
      </trkpt>
      <trkpt lat="45.53135" lon="6.7775">
        <ele>1464.45119452</ele>
        <time>2019-07-06T05:34:50Z</time>
      </trkpt>
      <trkpt lat="45.53135" lon="6.77747">
        <ele>1464.9246033806</ele>
        <time>2019-07-06T05:34:52Z</time>
      </trkpt>
      <trkpt lat="45.53135" lon="6.77743">
        <ele>1465.0359495048</ele>
        <time>2019-07-06T05:34:54Z</time>
      </trkpt>
      <trkpt lat="45.53135" lon="6.77739">
        <ele>1464.7618211739</ele>
        <time>2019-07-06T05:34:56Z</time>
      </trkpt>
      <trkpt lat="45.53134" lon="6.77737">
        <ele>1464.7329854211</ele>
        <time>2019-07-06T05:34:57Z</time>
      </trkpt>
      <trkpt lat="45.53134" lon="6.77732">
        <ele>1465.1378847607</ele>
        <time>2019-07-06T05:34:59Z</time>
      </trkpt>
      <trkpt lat="45.53134" lon="6.77728">
        <ele>1464.700653484</ele>
        <time>2019-07-06T05:35:01Z</time>
      </trkpt>
      <trkpt lat="45.53135" lon="6.77724">
        <ele>1463.9995524344</ele>
        <time>2019-07-06T05:35:03Z</time>
      </trkpt>
      <trkpt lat="45.53135" lon="6.77721">
        <ele>1463.9797801693</ele>
        <time>2019-07-06T05:35:04Z</time>
      </trkpt>
      <trkpt lat="45.53134" lon="6.77718">
        <ele>1464.0321644451</ele>
        <time>2019-07-06T05:35:06Z</time>
      </trkpt>
      <trkpt lat="45.53133" lon="6.77715">
        <ele>1464.7069008653</ele>
        <time>2019-07-06T05:35:08Z</time>
      </trkpt>
      <trkpt lat="45.53133" lon="6.77712">
        <ele>1465.0249372294</ele>
        <time>2019-07-06T05:35:10Z</time>
      </trkpt>
      <trkpt lat="45.53131" lon="6.77708">
        <ele>1464.9942021144</ele>
        <time>2019-07-06T05:35:12Z</time>
      </trkpt>
      <trkpt lat="45.53132" lon="6.77704">
        <ele>1465.2596922318</ele>
        <time>2019-07-06T05:35:14Z</time>
      </trkpt>
      <trkpt lat="45.53131" lon="6.77699">
        <ele>1465.9258307777</ele>
        <time>2019-07-06T05:35:16Z</time>
      </trkpt>
      <trkpt lat="45.53131" lon="6.77695">
        <ele>1466.4724787372</ele>
        <time>2019-07-06T05:35:18Z</time>
      </trkpt>
      <trkpt lat="45.53131" lon="6.77692">
        <ele>1466.8397327695</ele>
        <time>2019-07-06T05:35:19Z</time>
      </trkpt>
      <trkpt lat="45.53131" lon="6.77689">
        <ele>1467.2062380752</ele>
        <time>2019-07-06T05:35:20Z</time>
      </trkpt>
      <trkpt lat="45.5313" lon="6.77687">
        <ele>1467.4554191148</ele>
        <time>2019-07-06T05:35:21Z</time>
      </trkpt>
      <trkpt lat="45.53129" lon="6.77682">
        <ele>1467.6938617164</ele>
        <time>2019-07-06T05:35:23Z</time>
      </trkpt>
      <trkpt lat="45.53128" lon="6.77679">
        <ele>1467.9101224789</ele>
        <time>2019-07-06T05:35:24Z</time>
      </trkpt>
      <trkpt lat="45.53127" lon="6.77676">
        <ele>1468.1584440031</ele>
        <time>2019-07-06T05:35:26Z</time>
      </trkpt>
      <trkpt lat="45.53126" lon="6.77673">
        <ele>1468.1052635047</ele>
        <time>2019-07-06T05:35:27Z</time>
      </trkpt>
      <trkpt lat="45.53126" lon="6.7767">
        <ele>1467.6974500966</ele>
        <time>2019-07-06T05:35:29Z</time>
      </trkpt>
      <trkpt lat="45.53125" lon="6.77667">
        <ele>1467.2124459311</ele>
        <time>2019-07-06T05:35:31Z</time>
      </trkpt>
      <trkpt lat="45.53124" lon="6.77664">
        <ele>1466.7036191529</ele>
        <time>2019-07-06T05:35:33Z</time>
      </trkpt>
      <trkpt lat="45.53124" lon="6.77661">
        <ele>1465.4315525259</ele>
        <time>2019-07-06T05:35:35Z</time>
      </trkpt>
      <trkpt lat="45.53124" lon="6.77658">
        <ele>1464.0391709168</ele>
        <time>2019-07-06T05:35:37Z</time>
      </trkpt>
      <trkpt lat="45.53124" lon="6.77654">
        <ele>1463.0831205177</ele>
        <time>2019-07-06T05:35:39Z</time>
      </trkpt>
      <trkpt lat="45.53123" lon="6.77649">
        <ele>1462.4798832057</ele>
        <time>2019-07-06T05:35:41Z</time>
      </trkpt>
      <trkpt lat="45.53122" lon="6.77645">
        <ele>1462.1286714501</ele>
        <time>2019-07-06T05:35:43Z</time>
      </trkpt>
      <trkpt lat="45.53122" lon="6.77641">
        <ele>1462.2499074</ele>
        <time>2019-07-06T05:35:45Z</time>
      </trkpt>
      <trkpt lat="45.53121" lon="6.77637">
        <ele>1462.659827676</ele>
        <time>2019-07-06T05:35:47Z</time>
      </trkpt>
      <trkpt lat="45.5312" lon="6.77635">
        <ele>1462.8175499034</ele>
        <time>2019-07-06T05:35:48Z</time>
      </trkpt>
      <trkpt lat="45.53122" lon="6.77631">
        <ele>1463.3550706274</ele>
        <time>2019-07-06T05:35:50Z</time>
      </trkpt>
      <trkpt lat="45.53123" lon="6.77628">
        <ele>1463.3973786826</ele>
        <time>2019-07-06T05:35:51Z</time>
      </trkpt>
      <trkpt lat="45.53122" lon="6.77624">
        <ele>1463.8013481285</ele>
        <time>2019-07-06T05:35:53Z</time>
      </trkpt>
      <trkpt lat="45.53121" lon="6.77621">
        <ele>1464.6609231453</ele>
        <time>2019-07-06T05:35:55Z</time>
      </trkpt>
      <trkpt lat="45.5312" lon="6.77617">
        <ele>1464.946567301</ele>
        <time>2019-07-06T05:35:57Z</time>
      </trkpt>
      <trkpt lat="45.53119" lon="6.77613">
        <ele>1464.7732777991</ele>
        <time>2019-07-06T05:35:59Z</time>
      </trkpt>
      <trkpt lat="45.53119" lon="6.77609">
        <ele>1464.1792594497</ele>
        <time>2019-07-06T05:36:01Z</time>
      </trkpt>
      <trkpt lat="45.5312" lon="6.77606">
        <ele>1463.7269304421</ele>
        <time>2019-07-06T05:36:03Z</time>
      </trkpt>
      <trkpt lat="45.5312" lon="6.77602">
        <ele>1463.3979695366</ele>
        <time>2019-07-06T05:36:05Z</time>
      </trkpt>
      <trkpt lat="45.5312" lon="6.77598">
        <ele>1463.0731724484</ele>
        <time>2019-07-06T05:36:07Z</time>
      </trkpt>
      <trkpt lat="45.53121" lon="6.77595">
        <ele>1463.0473692425</ele>
        <time>2019-07-06T05:36:08Z</time>
      </trkpt>
      <trkpt lat="45.53121" lon="6.77591">
        <ele>1462.7337563314</ele>
        <time>2019-07-06T05:36:10Z</time>
      </trkpt>
      <trkpt lat="45.53121" lon="6.77587">
        <ele>1462.7180717026</ele>
        <time>2019-07-06T05:36:12Z</time>
      </trkpt>
      <trkpt lat="45.53121" lon="6.77583">
        <ele>1462.7785182851</ele>
        <time>2019-07-06T05:36:14Z</time>
      </trkpt>
      <trkpt lat="45.53122" lon="6.77579">
        <ele>1462.754551309</ele>
        <time>2019-07-06T05:36:16Z</time>
      </trkpt>
      <trkpt lat="45.53123" lon="6.77575">
        <ele>1462.8315544536</ele>
        <time>2019-07-06T05:36:18Z</time>
      </trkpt>
      <trkpt lat="45.53124" lon="6.77571">
        <ele>1463.2554809837</ele>
        <time>2019-07-06T05:36:20Z</time>
      </trkpt>
      <trkpt lat="45.53125" lon="6.77568">
        <ele>1463.5714880019</ele>
        <time>2019-07-06T05:36:21Z</time>
      </trkpt>
      <trkpt lat="45.53126" lon="6.77566">
        <ele>1463.8158745275</ele>
        <time>2019-07-06T05:36:22Z</time>
      </trkpt>
      <trkpt lat="45.53127" lon="6.77564">
        <ele>1464.0572510372</ele>
        <time>2019-07-06T05:36:23Z</time>
      </trkpt>
      <trkpt lat="45.53128" lon="6.7756">
        <ele>1464.4373621902</ele>
        <time>2019-07-06T05:36:25Z</time>
      </trkpt>
      <trkpt lat="45.5313" lon="6.77556">
        <ele>1464.859115676</ele>
        <time>2019-07-06T05:36:27Z</time>
      </trkpt>
      <trkpt lat="45.53131" lon="6.77552">
        <ele>1465.0733226068</ele>
        <time>2019-07-06T05:36:29Z</time>
      </trkpt>
      <trkpt lat="45.53134" lon="6.77548">
        <ele>1465.5032990342</ele>
        <time>2019-07-06T05:36:31Z</time>
      </trkpt>
      <trkpt lat="45.53135" lon="6.77547">
        <ele>1465.6063295655</ele>
        <time>2019-07-06T05:36:32Z</time>
      </trkpt>
      <trkpt lat="45.53137" lon="6.77544">
        <ele>1465.713884662</ele>
        <time>2019-07-06T05:36:33Z</time>
      </trkpt>
      <trkpt lat="45.53138" lon="6.77542">
        <ele>1465.9740189907</ele>
        <time>2019-07-06T05:36:35Z</time>
      </trkpt>
      <trkpt lat="45.5314" lon="6.77539">
        <ele>1467.0144010326</ele>
        <time>2019-07-06T05:36:37Z</time>
      </trkpt>
      <trkpt lat="45.53143" lon="6.77537">
        <ele>1468.0301431263</ele>
        <time>2019-07-06T05:36:39Z</time>
      </trkpt>
      <trkpt lat="45.53145" lon="6.77533">
        <ele>1468.9398420256</ele>
        <time>2019-07-06T05:36:42Z</time>
      </trkpt>
      <trkpt lat="45.53147" lon="6.77532">
        <ele>1469.1234952554</ele>
        <time>2019-07-06T05:36:44Z</time>
      </trkpt>
      <trkpt lat="45.53149" lon="6.7753">
        <ele>1468.7243837185</ele>
        <time>2019-07-06T05:36:45Z</time>
      </trkpt>
      <trkpt lat="45.5315" lon="6.77529">
        <ele>1468.2708572283</ele>
        <time>2019-07-06T05:36:46Z</time>
      </trkpt>
      <trkpt lat="45.53152" lon="6.77527">
        <ele>1467.4670432144</ele>
        <time>2019-07-06T05:36:48Z</time>
      </trkpt>
      <trkpt lat="45.53155" lon="6.77525">
        <ele>1467.0540352842</ele>
        <time>2019-07-06T05:36:50Z</time>
      </trkpt>
      <trkpt lat="45.53158" lon="6.77524">
        <ele>1466.6558199105</ele>
        <time>2019-07-06T05:36:52Z</time>
      </trkpt>
      <trkpt lat="45.5316" lon="6.77522">
        <ele>1466.4219921008</ele>
        <time>2019-07-06T05:36:54Z</time>
      </trkpt>
      <trkpt lat="45.53163" lon="6.77519">
        <ele>1466.4501683243</ele>
        <time>2019-07-06T05:36:56Z</time>
      </trkpt>
      <trkpt lat="45.53166" lon="6.77517">
        <ele>1467.1347739424</ele>
        <time>2019-07-06T05:36:58Z</time>
      </trkpt>
      <trkpt lat="45.53168" lon="6.77514">
        <ele>1467.3638630561</ele>
        <time>2019-07-06T05:37:00Z</time>
      </trkpt>
      <trkpt lat="45.5317" lon="6.77513">
        <ele>1467.625222101</ele>
        <time>2019-07-06T05:37:02Z</time>
      </trkpt>
      <trkpt lat="45.53173" lon="6.77511">
        <ele>1467.6800368604</ele>
        <time>2019-07-06T05:37:04Z</time>
      </trkpt>
      <trkpt lat="45.53176" lon="6.77509">
        <ele>1467.7391212478</ele>
        <time>2019-07-06T05:37:06Z</time>
      </trkpt>
      <trkpt lat="45.53178" lon="6.77507">
        <ele>1467.0989637041</ele>
        <time>2019-07-06T05:37:08Z</time>
      </trkpt>
      <trkpt lat="45.5318" lon="6.77505">
        <ele>1466.6200660022</ele>
        <time>2019-07-06T05:37:09Z</time>
      </trkpt>
      <trkpt lat="45.53182" lon="6.77502">
        <ele>1466.5558143066</ele>
        <time>2019-07-06T05:37:11Z</time>
      </trkpt>
      <trkpt lat="45.53185" lon="6.775">
        <ele>1467.0438971417</ele>
        <time>2019-07-06T05:37:13Z</time>
      </trkpt>
      <trkpt lat="45.53187" lon="6.77499">
        <ele>1467.857989924</ele>
        <time>2019-07-06T05:37:15Z</time>
      </trkpt>
      <trkpt lat="45.53189" lon="6.77497">
        <ele>1468.0264655093</ele>
        <time>2019-07-06T05:37:16Z</time>
      </trkpt>
      <trkpt lat="45.53192" lon="6.77494">
        <ele>1468.7793778937</ele>
        <time>2019-07-06T05:37:18Z</time>
      </trkpt>
      <trkpt lat="45.53194" lon="6.77492">
        <ele>1469.7358679323</ele>
        <time>2019-07-06T05:37:20Z</time>
      </trkpt>
      <trkpt lat="45.53196" lon="6.7749">
        <ele>1470.3435642733</ele>
        <time>2019-07-06T05:37:21Z</time>
      </trkpt>
      <trkpt lat="45.53198" lon="6.77489">
        <ele>1471.1248068316</ele>
        <time>2019-07-06T05:37:22Z</time>
      </trkpt>
      <trkpt lat="45.53201" lon="6.77487">
        <ele>1472.1552591474</ele>
        <time>2019-07-06T05:37:24Z</time>
      </trkpt>
      <trkpt lat="45.53203" lon="6.77486">
        <ele>1473.0044293735</ele>
        <time>2019-07-06T05:37:26Z</time>
      </trkpt>
      <trkpt lat="45.53204" lon="6.77483">
        <ele>1472.795358916</ele>
        <time>2019-07-06T05:37:28Z</time>
      </trkpt>
      <trkpt lat="45.53207" lon="6.7748">
        <ele>1472.6037369299</ele>
        <time>2019-07-06T05:37:30Z</time>
      </trkpt>
      <trkpt lat="45.53207" lon="6.77477">
        <ele>1472.6834685975</ele>
        <time>2019-07-06T05:37:32Z</time>
      </trkpt>
      <trkpt lat="45.53209" lon="6.77477">
        <ele>1472.4641100842</ele>
        <time>2019-07-06T05:37:34Z</time>
      </trkpt>
      <trkpt lat="45.53213" lon="6.77474">
        <ele>1472.2547646708</ele>
        <time>2019-07-06T05:37:36Z</time>
      </trkpt>
      <trkpt lat="45.53215" lon="6.77472">
        <ele>1472.1863920828</ele>
        <time>2019-07-06T05:37:37Z</time>
      </trkpt>
      <trkpt lat="45.53217" lon="6.7747">
        <ele>1472.4657745313</ele>
        <time>2019-07-06T05:37:39Z</time>
      </trkpt>
      <trkpt lat="45.53219" lon="6.77469">
        <ele>1472.4935500048</ele>
        <time>2019-07-06T05:37:40Z</time>
      </trkpt>
      <trkpt lat="45.53221" lon="6.77466">
        <ele>1472.6751206017</ele>
        <time>2019-07-06T05:37:42Z</time>
      </trkpt>
      <trkpt lat="45.53222" lon="6.77464">
        <ele>1472.6026006147</ele>
        <time>2019-07-06T05:37:43Z</time>
      </trkpt>
      <trkpt lat="45.53224" lon="6.77463">
        <ele>1472.4790644772</ele>
        <time>2019-07-06T05:37:44Z</time>
      </trkpt>
      <trkpt lat="45.53227" lon="6.77461">
        <ele>1472.1861385257</ele>
        <time>2019-07-06T05:37:46Z</time>
      </trkpt>
      <trkpt lat="45.53229" lon="6.77458">
        <ele>1472.2367490609</ele>
        <time>2019-07-06T05:37:48Z</time>
      </trkpt>
      <trkpt lat="45.53231" lon="6.77456">
        <ele>1471.8786532706</ele>
        <time>2019-07-06T05:37:50Z</time>
      </trkpt>
      <trkpt lat="45.53234" lon="6.77454">
        <ele>1471.6886511698</ele>
        <time>2019-07-06T05:37:52Z</time>
      </trkpt>
      <trkpt lat="45.53236" lon="6.77452">
        <ele>1471.7447792994</ele>
        <time>2019-07-06T05:37:54Z</time>
      </trkpt>
      <trkpt lat="45.53238" lon="6.77449">
        <ele>1472.1188110319</ele>
        <time>2019-07-06T05:37:56Z</time>
      </trkpt>
      <trkpt lat="45.5324" lon="6.77445">
        <ele>1472.5076065846</ele>
        <time>2019-07-06T05:37:58Z</time>
      </trkpt>
      <trkpt lat="45.53242" lon="6.77442">
        <ele>1472.7888780239</ele>
        <time>2019-07-06T05:38:00Z</time>
      </trkpt>
      <trkpt lat="45.53244" lon="6.77439">
        <ele>1473.1055226806</ele>
        <time>2019-07-06T05:38:02Z</time>
      </trkpt>
      <trkpt lat="45.53246" lon="6.77437">
        <ele>1472.8257444638</ele>
        <time>2019-07-06T05:38:04Z</time>
      </trkpt>
      <trkpt lat="45.53249" lon="6.77434">
        <ele>1472.8864928521</ele>
        <time>2019-07-06T05:38:06Z</time>
      </trkpt>
      <trkpt lat="45.53251" lon="6.77432">
        <ele>1472.3172843774</ele>
        <time>2019-07-06T05:38:08Z</time>
      </trkpt>
      <trkpt lat="45.53253" lon="6.7743">
        <ele>1471.8779278216</ele>
        <time>2019-07-06T05:38:10Z</time>
      </trkpt>
      <trkpt lat="45.53255" lon="6.77427">
        <ele>1471.1875853102</ele>
        <time>2019-07-06T05:38:12Z</time>
      </trkpt>
      <trkpt lat="45.53257" lon="6.77424">
        <ele>1470.3580084824</ele>
        <time>2019-07-06T05:38:14Z</time>
      </trkpt>
      <trkpt lat="45.53258" lon="6.77422">
        <ele>1469.8292219635</ele>
        <time>2019-07-06T05:38:16Z</time>
      </trkpt>
      <trkpt lat="45.5326" lon="6.7742">
        <ele>1469.3637492022</ele>
        <time>2019-07-06T05:38:19Z</time>
      </trkpt>
      <trkpt lat="45.53263" lon="6.77418">
        <ele>1469.3033819635</ele>
        <time>2019-07-06T05:38:22Z</time>
      </trkpt>
      <trkpt lat="45.53264" lon="6.77416">
        <ele>1469.0002923947</ele>
        <time>2019-07-06T05:38:24Z</time>
      </trkpt>
      <trkpt lat="45.53266" lon="6.77412">
        <ele>1468.9496365956</ele>
        <time>2019-07-06T05:38:26Z</time>
      </trkpt>
      <trkpt lat="45.53268" lon="6.77408">
        <ele>1468.3887632593</ele>
        <time>2019-07-06T05:38:28Z</time>
      </trkpt>
      <trkpt lat="45.5327" lon="6.77405">
        <ele>1468.5942672818</ele>
        <time>2019-07-06T05:38:30Z</time>
      </trkpt>
      <trkpt lat="45.53272" lon="6.77404">
        <ele>1468.8936970314</ele>
        <time>2019-07-06T05:38:31Z</time>
      </trkpt>
      <trkpt lat="45.53275" lon="6.77401">
        <ele>1468.8284425853</ele>
        <time>2019-07-06T05:38:33Z</time>
      </trkpt>
      <trkpt lat="45.53277" lon="6.774">
        <ele>1468.8250415621</ele>
        <time>2019-07-06T05:38:35Z</time>
      </trkpt>
      <trkpt lat="45.53278" lon="6.77398">
        <ele>1469.0760592845</ele>
        <time>2019-07-06T05:38:36Z</time>
      </trkpt>
      <trkpt lat="45.53281" lon="6.77396">
        <ele>1469.4943675898</ele>
        <time>2019-07-06T05:38:38Z</time>
      </trkpt>
      <trkpt lat="45.53283" lon="6.77393">
        <ele>1469.3426788106</ele>
        <time>2019-07-06T05:38:40Z</time>
      </trkpt>
      <trkpt lat="45.53285" lon="6.77391">
        <ele>1469.5572132971</ele>
        <time>2019-07-06T05:38:42Z</time>
      </trkpt>
      <trkpt lat="45.53286" lon="6.7739">
        <ele>1469.4997585454</ele>
        <time>2019-07-06T05:38:44Z</time>
      </trkpt>
      <trkpt lat="45.53289" lon="6.77389">
        <ele>1469.4796660791</ele>
        <time>2019-07-06T05:38:46Z</time>
      </trkpt>
      <trkpt lat="45.53291" lon="6.77387">
        <ele>1469.4319541489</ele>
        <time>2019-07-06T05:38:48Z</time>
      </trkpt>
      <trkpt lat="45.53295" lon="6.77386">
        <ele>1469.7329109541</ele>
        <time>2019-07-06T05:38:50Z</time>
      </trkpt>
      <trkpt lat="45.53298" lon="6.77384">
        <ele>1469.9796434647</ele>
        <time>2019-07-06T05:38:53Z</time>
      </trkpt>
      <trkpt lat="45.533" lon="6.77381">
        <ele>1470.3238260867</ele>
        <time>2019-07-06T05:38:55Z</time>
      </trkpt>
      <trkpt lat="45.53301" lon="6.77378">
        <ele>1471.0218186597</ele>
        <time>2019-07-06T05:38:57Z</time>
      </trkpt>
      <trkpt lat="45.53302" lon="6.77379">
        <ele>1471.5555852785</ele>
        <time>2019-07-06T05:39:01Z</time>
      </trkpt>
      <trkpt lat="45.53303" lon="6.77376">
        <ele>1471.812519264</ele>
        <time>2019-07-06T05:39:05Z</time>
      </trkpt>
      <trkpt lat="45.53303" lon="6.77373">
        <ele>1471.840783345</ele>
        <time>2019-07-06T05:39:06Z</time>
      </trkpt>
      <trkpt lat="45.53302" lon="6.7737">
        <ele>1471.9393610012</ele>
        <time>2019-07-06T05:39:07Z</time>
      </trkpt>
      <trkpt lat="45.53301" lon="6.77372">
        <ele>1469.0324903933</ele>
        <time>2019-07-06T05:39:16Z</time>
      </trkpt>
      <trkpt lat="45.53302" lon="6.77375">
        <ele>1466.4298661051</ele>
        <time>2019-07-06T05:39:25Z</time>
      </trkpt>
      <trkpt lat="45.53303" lon="6.77372">
        <ele>1466.5927607925</ele>
        <time>2019-07-06T05:39:27Z</time>
      </trkpt>
      <trkpt lat="45.53306" lon="6.77369">
        <ele>1466.7120252873</ele>
        <time>2019-07-06T05:39:29Z</time>
      </trkpt>
      <trkpt lat="45.53308" lon="6.77368">
        <ele>1466.50096453</ele>
        <time>2019-07-06T05:39:31Z</time>
      </trkpt>
      <trkpt lat="45.5331" lon="6.77366">
        <ele>1466.3202305431</ele>
        <time>2019-07-06T05:39:32Z</time>
      </trkpt>
      <trkpt lat="45.53311" lon="6.77364">
        <ele>1465.8620608966</ele>
        <time>2019-07-06T05:39:34Z</time>
      </trkpt>
      <trkpt lat="45.53312" lon="6.77361">
        <ele>1465.5363979731</ele>
        <time>2019-07-06T05:39:36Z</time>
      </trkpt>
      <trkpt lat="45.53313" lon="6.77358">
        <ele>1465.5400853154</ele>
        <time>2019-07-06T05:39:37Z</time>
      </trkpt>
      <trkpt lat="45.53315" lon="6.77355">
        <ele>1465.5803105137</ele>
        <time>2019-07-06T05:39:39Z</time>
      </trkpt>
      <trkpt lat="45.53315" lon="6.77351">
        <ele>1465.7067170767</ele>
        <time>2019-07-06T05:39:41Z</time>
      </trkpt>
      <trkpt lat="45.53317" lon="6.77347">
        <ele>1464.6835580062</ele>
        <time>2019-07-06T05:39:43Z</time>
      </trkpt>
      <trkpt lat="45.53319" lon="6.77345">
        <ele>1463.4173098798</ele>
        <time>2019-07-06T05:39:45Z</time>
      </trkpt>
      <trkpt lat="45.53322" lon="6.77343">
        <ele>1462.9746067373</ele>
        <time>2019-07-06T05:39:47Z</time>
      </trkpt>
      <trkpt lat="45.53324" lon="6.77342">
        <ele>1462.739620599</ele>
        <time>2019-07-06T05:39:48Z</time>
      </trkpt>
      <trkpt lat="45.53326" lon="6.77338">
        <ele>1461.9146182187</ele>
        <time>2019-07-06T05:39:50Z</time>
      </trkpt>
      <trkpt lat="45.53328" lon="6.77334">
        <ele>1461.0149342478</ele>
        <time>2019-07-06T05:39:52Z</time>
      </trkpt>
      <trkpt lat="45.5333" lon="6.77331">
        <ele>1460.4945901089</ele>
        <time>2019-07-06T05:39:54Z</time>
      </trkpt>
      <trkpt lat="45.53331" lon="6.77327">
        <ele>1460.4140821446</ele>
        <time>2019-07-06T05:39:56Z</time>
      </trkpt>
      <trkpt lat="45.53332" lon="6.77323">
        <ele>1460.0006138217</ele>
        <time>2019-07-06T05:39:58Z</time>
      </trkpt>
      <trkpt lat="45.53332" lon="6.77322">
        <ele>1459.8386548542</ele>
        <time>2019-07-06T05:39:59Z</time>
      </trkpt>
      <trkpt lat="45.53335" lon="6.77318">
        <ele>1459.7522791825</ele>
        <time>2019-07-06T05:40:01Z</time>
      </trkpt>
      <trkpt lat="45.53336" lon="6.77314">
        <ele>1459.6924236877</ele>
        <time>2019-07-06T05:40:03Z</time>
      </trkpt>
      <trkpt lat="45.53338" lon="6.77311">
        <ele>1459.6602456244</ele>
        <time>2019-07-06T05:40:05Z</time>
      </trkpt>
      <trkpt lat="45.53339" lon="6.77308">
        <ele>1459.699342807</ele>
        <time>2019-07-06T05:40:07Z</time>
      </trkpt>
      <trkpt lat="45.5334" lon="6.77305">
        <ele>1459.0921429003</ele>
        <time>2019-07-06T05:40:09Z</time>
      </trkpt>
      <trkpt lat="45.53341" lon="6.77302">
        <ele>1457.9541571122</ele>
        <time>2019-07-06T05:40:11Z</time>
      </trkpt>
      <trkpt lat="45.53342" lon="6.77299">
        <ele>1457.2221528113</ele>
        <time>2019-07-06T05:40:13Z</time>
      </trkpt>
      <trkpt lat="45.53344" lon="6.77295">
        <ele>1456.4480078505</ele>
        <time>2019-07-06T05:40:15Z</time>
      </trkpt>
      <trkpt lat="45.53345" lon="6.77292">
        <ele>1456.0717776784</ele>
        <time>2019-07-06T05:40:17Z</time>
      </trkpt>
      <trkpt lat="45.53346" lon="6.77288">
        <ele>1456.2344121331</ele>
        <time>2019-07-06T05:40:19Z</time>
      </trkpt>
      <trkpt lat="45.53349" lon="6.77286">
        <ele>1456.391300166</ele>
        <time>2019-07-06T05:40:21Z</time>
      </trkpt>
      <trkpt lat="45.53349" lon="6.77282">
        <ele>1456.3516074543</ele>
        <time>2019-07-06T05:40:23Z</time>
      </trkpt>
      <trkpt lat="45.5335" lon="6.77279">
        <ele>1456.4855228817</ele>
        <time>2019-07-06T05:40:25Z</time>
      </trkpt>
      <trkpt lat="45.53352" lon="6.77275">
        <ele>1456.2206800089</ele>
        <time>2019-07-06T05:40:27Z</time>
      </trkpt>
      <trkpt lat="45.53354" lon="6.77272">
        <ele>1455.7648429257</ele>
        <time>2019-07-06T05:40:29Z</time>
      </trkpt>
      <trkpt lat="45.53354" lon="6.77268">
        <ele>1455.7772250721</ele>
        <time>2019-07-06T05:40:31Z</time>
      </trkpt>
      <trkpt lat="45.53356" lon="6.77265">
        <ele>1456.2510529624</ele>
        <time>2019-07-06T05:40:33Z</time>
      </trkpt>
      <trkpt lat="45.53358" lon="6.77261">
        <ele>1456.4012085109</ele>
        <time>2019-07-06T05:40:35Z</time>
      </trkpt>
      <trkpt lat="45.5336" lon="6.77258">
        <ele>1455.9996177946</ele>
        <time>2019-07-06T05:40:37Z</time>
      </trkpt>
      <trkpt lat="45.53361" lon="6.77256">
        <ele>1455.0683001037</ele>
        <time>2019-07-06T05:40:39Z</time>
      </trkpt>
      <trkpt lat="45.53363" lon="6.77252">
        <ele>1453.6976027051</ele>
        <time>2019-07-06T05:40:41Z</time>
      </trkpt>
      <trkpt lat="45.53366" lon="6.77251">
        <ele>1452.502409914</ele>
        <time>2019-07-06T05:40:43Z</time>
      </trkpt>
      <trkpt lat="45.53367" lon="6.77248">
        <ele>1451.9353669001</ele>
        <time>2019-07-06T05:40:44Z</time>
      </trkpt>
      <trkpt lat="45.53368" lon="6.77246">
        <ele>1451.3304911738</ele>
        <time>2019-07-06T05:40:45Z</time>
      </trkpt>
      <trkpt lat="45.53369" lon="6.77243">
        <ele>1450.8909159077</ele>
        <time>2019-07-06T05:40:46Z</time>
      </trkpt>
      <trkpt lat="45.53371" lon="6.77242">
        <ele>1450.3807288375</ele>
        <time>2019-07-06T05:40:48Z</time>
      </trkpt>
      <trkpt lat="45.53372" lon="6.77239">
        <ele>1449.8671454185</ele>
        <time>2019-07-06T05:40:50Z</time>
      </trkpt>
      <trkpt lat="45.53374" lon="6.77237">
        <ele>1450.0376003035</ele>
        <time>2019-07-06T05:40:51Z</time>
      </trkpt>
      <trkpt lat="45.53376" lon="6.77234">
        <ele>1450.0116214056</ele>
        <time>2019-07-06T05:40:53Z</time>
      </trkpt>
      <trkpt lat="45.53377" lon="6.77233">
        <ele>1449.8105658033</ele>
        <time>2019-07-06T05:40:54Z</time>
      </trkpt>
      <trkpt lat="45.53379" lon="6.77229">
        <ele>1449.6294305874</ele>
        <time>2019-07-06T05:40:56Z</time>
      </trkpt>
      <trkpt lat="45.5338" lon="6.77224">
        <ele>1449.4459978564</ele>
        <time>2019-07-06T05:40:58Z</time>
      </trkpt>
      <trkpt lat="45.53381" lon="6.77221">
        <ele>1449.3553610613</ele>
        <time>2019-07-06T05:40:59Z</time>
      </trkpt>
      <trkpt lat="45.53384" lon="6.77218">
        <ele>1449.2280372941</ele>
        <time>2019-07-06T05:41:01Z</time>
      </trkpt>
      <trkpt lat="45.53385" lon="6.77215">
        <ele>1449.0298865786</ele>
        <time>2019-07-06T05:41:03Z</time>
      </trkpt>
      <trkpt lat="45.53386" lon="6.7721">
        <ele>1448.8169436018</ele>
        <time>2019-07-06T05:41:05Z</time>
      </trkpt>
      <trkpt lat="45.53387" lon="6.77206">
        <ele>1448.029473585</ele>
        <time>2019-07-06T05:41:07Z</time>
      </trkpt>
      <trkpt lat="45.53388" lon="6.77203">
        <ele>1447.6728220513</ele>
        <time>2019-07-06T05:41:09Z</time>
      </trkpt>
      <trkpt lat="45.5339" lon="6.77201">
        <ele>1447.1551148698</ele>
        <time>2019-07-06T05:41:11Z</time>
      </trkpt>
      <trkpt lat="45.53392" lon="6.77199">
        <ele>1446.8038000607</ele>
        <time>2019-07-06T05:41:12Z</time>
      </trkpt>
      <trkpt lat="45.53394" lon="6.77197">
        <ele>1447.2574784061</ele>
        <time>2019-07-06T05:41:14Z</time>
      </trkpt>
      <trkpt lat="45.53397" lon="6.77195">
        <ele>1447.5644881521</ele>
        <time>2019-07-06T05:41:16Z</time>
      </trkpt>
      <trkpt lat="45.53399" lon="6.77191">
        <ele>1447.8944619749</ele>
        <time>2019-07-06T05:41:18Z</time>
      </trkpt>
      <trkpt lat="45.53401" lon="6.77187">
        <ele>1447.958311026</ele>
        <time>2019-07-06T05:41:20Z</time>
      </trkpt>
      <trkpt lat="45.53403" lon="6.77185">
        <ele>1447.8835419386</ele>
        <time>2019-07-06T05:41:22Z</time>
      </trkpt>
      <trkpt lat="45.53403" lon="6.77182">
        <ele>1447.8166214418</ele>
        <time>2019-07-06T05:41:24Z</time>
      </trkpt>
      <trkpt lat="45.53405" lon="6.7718">
        <ele>1447.9423491997</ele>
        <time>2019-07-06T05:41:26Z</time>
      </trkpt>
      <trkpt lat="45.53406" lon="6.77177">
        <ele>1447.96855677</ele>
        <time>2019-07-06T05:41:28Z</time>
      </trkpt>
      <trkpt lat="45.53407" lon="6.77173">
        <ele>1448.6418447359</ele>
        <time>2019-07-06T05:41:30Z</time>
      </trkpt>
      <trkpt lat="45.5341" lon="6.77172">
        <ele>1449.1896037597</ele>
        <time>2019-07-06T05:41:32Z</time>
      </trkpt>
      <trkpt lat="45.53411" lon="6.7717">
        <ele>1448.491934988</ele>
        <time>2019-07-06T05:41:34Z</time>
      </trkpt>
      <trkpt lat="45.53413" lon="6.77168">
        <ele>1447.5858358183</ele>
        <time>2019-07-06T05:41:36Z</time>
      </trkpt>
      <trkpt lat="45.53416" lon="6.77167">
        <ele>1447.0466279622</ele>
        <time>2019-07-06T05:41:38Z</time>
      </trkpt>
      <trkpt lat="45.53418" lon="6.77165">
        <ele>1446.8744141607</ele>
        <time>2019-07-06T05:41:40Z</time>
      </trkpt>
      <trkpt lat="45.5342" lon="6.77163">
        <ele>1447.4246994842</ele>
        <time>2019-07-06T05:41:42Z</time>
      </trkpt>
      <trkpt lat="45.53423" lon="6.77161">
        <ele>1447.4432874404</ele>
        <time>2019-07-06T05:41:43Z</time>
      </trkpt>
      <trkpt lat="45.53425" lon="6.77158">
        <ele>1447.2030743342</ele>
        <time>2019-07-06T05:41:45Z</time>
      </trkpt>
      <trkpt lat="45.53427" lon="6.77157">
        <ele>1447.8601177871</ele>
        <time>2019-07-06T05:41:47Z</time>
      </trkpt>
      <trkpt lat="45.53429" lon="6.77155">
        <ele>1448.3610988721</ele>
        <time>2019-07-06T05:41:49Z</time>
      </trkpt>
      <trkpt lat="45.53432" lon="6.77156">
        <ele>1448.1220342301</ele>
        <time>2019-07-06T05:41:51Z</time>
      </trkpt>
      <trkpt lat="45.53434" lon="6.77157">
        <ele>1448.0723852727</ele>
        <time>2019-07-06T05:41:52Z</time>
      </trkpt>
      <trkpt lat="45.53437" lon="6.77158">
        <ele>1448.1953656789</ele>
        <time>2019-07-06T05:41:54Z</time>
      </trkpt>
      <trkpt lat="45.53439" lon="6.77157">
        <ele>1448.5340475214</ele>
        <time>2019-07-06T05:41:56Z</time>
      </trkpt>
      <trkpt lat="45.53442" lon="6.77157">
        <ele>1448.860073171</ele>
        <time>2019-07-06T05:41:58Z</time>
      </trkpt>
      <trkpt lat="45.53444" lon="6.77156">
        <ele>1448.6992815382</ele>
        <time>2019-07-06T05:42:00Z</time>
      </trkpt>
      <trkpt lat="45.53447" lon="6.77154">
        <ele>1448.334372861</ele>
        <time>2019-07-06T05:42:02Z</time>
      </trkpt>
      <trkpt lat="45.5345" lon="6.77153">
        <ele>1448.4239207952</ele>
        <time>2019-07-06T05:42:03Z</time>
      </trkpt>
      <trkpt lat="45.53452" lon="6.7715">
        <ele>1448.9724198237</ele>
        <time>2019-07-06T05:42:04Z</time>
      </trkpt>
      <trkpt lat="45.53455" lon="6.77148">
        <ele>1450.0244095397</ele>
        <time>2019-07-06T05:42:06Z</time>
      </trkpt>
      <trkpt lat="45.53457" lon="6.77148">
        <ele>1450.5719831441</ele>
        <time>2019-07-06T05:42:09Z</time>
      </trkpt>
      <trkpt lat="45.5346" lon="6.77148">
        <ele>1450.7317077123</ele>
        <time>2019-07-06T05:42:11Z</time>
      </trkpt>
      <trkpt lat="45.53462" lon="6.77148">
        <ele>1451.1063593059</ele>
        <time>2019-07-06T05:42:12Z</time>
      </trkpt>
      <trkpt lat="45.53464" lon="6.77148">
        <ele>1451.0679933002</ele>
        <time>2019-07-06T05:42:14Z</time>
      </trkpt>
      <trkpt lat="45.53468" lon="6.77146">
        <ele>1450.6731300617</ele>
        <time>2019-07-06T05:42:16Z</time>
      </trkpt>
      <trkpt lat="45.5347" lon="6.77145">
        <ele>1450.3498331002</ele>
        <time>2019-07-06T05:42:17Z</time>
      </trkpt>
      <trkpt lat="45.53472" lon="6.77143">
        <ele>1450.1967201899</ele>
        <time>2019-07-06T05:42:19Z</time>
      </trkpt>
      <trkpt lat="45.53473" lon="6.77142">
        <ele>1450.2392343264</ele>
        <time>2019-07-06T05:42:20Z</time>
      </trkpt>
      <trkpt lat="45.53477" lon="6.77142">
        <ele>1449.9306796219</ele>
        <time>2019-07-06T05:42:22Z</time>
      </trkpt>
      <trkpt lat="45.53479" lon="6.77141">
        <ele>1449.598133956</ele>
        <time>2019-07-06T05:42:24Z</time>
      </trkpt>
      <trkpt lat="45.53482" lon="6.7714">
        <ele>1449.2496385584</ele>
        <time>2019-07-06T05:42:26Z</time>
      </trkpt>
      <trkpt lat="45.53485" lon="6.77138">
        <ele>1448.727568993</ele>
        <time>2019-07-06T05:42:28Z</time>
      </trkpt>
      <trkpt lat="45.53487" lon="6.77138">
        <ele>1448.9931802851</ele>
        <time>2019-07-06T05:42:29Z</time>
      </trkpt>
      <trkpt lat="45.5349" lon="6.77138">
        <ele>1448.649359298</ele>
        <time>2019-07-06T05:42:31Z</time>
      </trkpt>
      <trkpt lat="45.53492" lon="6.77137">
        <ele>1447.8412415436</ele>
        <time>2019-07-06T05:42:33Z</time>
      </trkpt>
      <trkpt lat="45.53494" lon="6.77137">
        <ele>1447.3059806516</ele>
        <time>2019-07-06T05:42:35Z</time>
      </trkpt>
      <trkpt lat="45.53497" lon="6.77136">
        <ele>1446.6969658822</ele>
        <time>2019-07-06T05:42:37Z</time>
      </trkpt>
      <trkpt lat="45.53498" lon="6.77137">
        <ele>1446.3466523706</ele>
        <time>2019-07-06T05:42:38Z</time>
      </trkpt>
      <trkpt lat="45.53501" lon="6.7714">
        <ele>1446.079046074</ele>
        <time>2019-07-06T05:42:40Z</time>
      </trkpt>
      <trkpt lat="45.53502" lon="6.77142">
        <ele>1446.0562481572</ele>
        <time>2019-07-06T05:42:41Z</time>
      </trkpt>
      <trkpt lat="45.53504" lon="6.77143">
        <ele>1446.0990233093</ele>
        <time>2019-07-06T05:42:42Z</time>
      </trkpt>
      <trkpt lat="45.53505" lon="6.77145">
        <ele>1446.5161798386</ele>
        <time>2019-07-06T05:42:43Z</time>
      </trkpt>
      <trkpt lat="45.53507" lon="6.77147">
        <ele>1446.6775604192</ele>
        <time>2019-07-06T05:42:44Z</time>
      </trkpt>
      <trkpt lat="45.53509" lon="6.77151">
        <ele>1446.6988132993</ele>
        <time>2019-07-06T05:42:46Z</time>
      </trkpt>
      <trkpt lat="45.5351" lon="6.77155">
        <ele>1446.3558508158</ele>
        <time>2019-07-06T05:42:49Z</time>
      </trkpt>
      <trkpt lat="45.53512" lon="6.77158">
        <ele>1445.2055657188</ele>
        <time>2019-07-06T05:42:52Z</time>
      </trkpt>
      <trkpt lat="45.53512" lon="6.77161">
        <ele>1445.0717274717</ele>
        <time>2019-07-06T05:42:53Z</time>
      </trkpt>
      <trkpt lat="45.53515" lon="6.77163">
        <ele>1444.4823190693</ele>
        <time>2019-07-06T05:42:55Z</time>
      </trkpt>
      <trkpt lat="45.53516" lon="6.77165">
        <ele>1444.3267302085</ele>
        <time>2019-07-06T05:42:56Z</time>
      </trkpt>
      <trkpt lat="45.53518" lon="6.77167">
        <ele>1444.0798117089</ele>
        <time>2019-07-06T05:42:57Z</time>
      </trkpt>
      <trkpt lat="45.5352" lon="6.77169">
        <ele>1443.7756817791</ele>
        <time>2019-07-06T05:42:59Z</time>
      </trkpt>
      <trkpt lat="45.53522" lon="6.77171">
        <ele>1443.4663607282</ele>
        <time>2019-07-06T05:43:01Z</time>
      </trkpt>
      <trkpt lat="45.53523" lon="6.77175">
        <ele>1444.1893939722</ele>
        <time>2019-07-06T05:43:03Z</time>
      </trkpt>
      <trkpt lat="45.53525" lon="6.77177">
        <ele>1445.3284209614</ele>
        <time>2019-07-06T05:43:05Z</time>
      </trkpt>
      <trkpt lat="45.53527" lon="6.77178">
        <ele>1446.8110022441</ele>
        <time>2019-07-06T05:43:07Z</time>
      </trkpt>
      <trkpt lat="45.5353" lon="6.77177">
        <ele>1448.2926225605</ele>
        <time>2019-07-06T05:43:10Z</time>
      </trkpt>
      <trkpt lat="45.53532" lon="6.77177">
        <ele>1448.1158894584</ele>
        <time>2019-07-06T05:43:11Z</time>
      </trkpt>
      <trkpt lat="45.53534" lon="6.77176">
        <ele>1447.5855620294</ele>
        <time>2019-07-06T05:43:13Z</time>
      </trkpt>
      <trkpt lat="45.53536" lon="6.77173">
        <ele>1446.2993001706</ele>
        <time>2019-07-06T05:43:15Z</time>
      </trkpt>
      <trkpt lat="45.53538" lon="6.77171">
        <ele>1443.6553951744</ele>
        <time>2019-07-06T05:43:18Z</time>
      </trkpt>
      <trkpt lat="45.53539" lon="6.7717">
        <ele>1441.4279952803</ele>
        <time>2019-07-06T05:43:20Z</time>
      </trkpt>
      <trkpt lat="45.5354" lon="6.77168">
        <ele>1439.9143641703</ele>
        <time>2019-07-06T05:43:22Z</time>
      </trkpt>
      <trkpt lat="45.53541" lon="6.77165">
        <ele>1438.6423352917</ele>
        <time>2019-07-06T05:43:24Z</time>
      </trkpt>
      <trkpt lat="45.53541" lon="6.77162">
        <ele>1437.6292312866</ele>
        <time>2019-07-06T05:43:26Z</time>
      </trkpt>
      <trkpt lat="45.53541" lon="6.77159">
        <ele>1437.0700818078</ele>
        <time>2019-07-06T05:43:27Z</time>
      </trkpt>
      <trkpt lat="45.53541" lon="6.77154">
        <ele>1436.4100685558</ele>
        <time>2019-07-06T05:43:29Z</time>
      </trkpt>
      <trkpt lat="45.53541" lon="6.77151">
        <ele>1436.1630038077</ele>
        <time>2019-07-06T05:43:30Z</time>
      </trkpt>
      <trkpt lat="45.53542" lon="6.77148">
        <ele>1435.2861291465</ele>
        <time>2019-07-06T05:43:32Z</time>
      </trkpt>
      <trkpt lat="45.53544" lon="6.77146">
        <ele>1434.7930365669</ele>
        <time>2019-07-06T05:43:34Z</time>
      </trkpt>
      <trkpt lat="45.53546" lon="6.77142">
        <ele>1434.2735170438</ele>
        <time>2019-07-06T05:43:36Z</time>
      </trkpt>
      <trkpt lat="45.53546" lon="6.77138">
        <ele>1434.5076552629</ele>
        <time>2019-07-06T05:43:38Z</time>
      </trkpt>
      <trkpt lat="45.53546" lon="6.77134">
        <ele>1434.8931174929</ele>
        <time>2019-07-06T05:43:40Z</time>
      </trkpt>
      <trkpt lat="45.53544" lon="6.77131">
        <ele>1435.2646782949</ele>
        <time>2019-07-06T05:43:42Z</time>
      </trkpt>
      <trkpt lat="45.53544" lon="6.77128">
        <ele>1435.3239450432</ele>
        <time>2019-07-06T05:43:44Z</time>
      </trkpt>
      <trkpt lat="45.53544" lon="6.77124">
        <ele>1434.6576802798</ele>
        <time>2019-07-06T05:43:46Z</time>
      </trkpt>
      <trkpt lat="45.53544" lon="6.77122">
        <ele>1434.2477852921</ele>
        <time>2019-07-06T05:43:47Z</time>
      </trkpt>
      <trkpt lat="45.53545" lon="6.7712">
        <ele>1432.8539705582</ele>
        <time>2019-07-06T05:43:49Z</time>
      </trkpt>
      <trkpt lat="45.53545" lon="6.77116">
        <ele>1430.6021139735</ele>
        <time>2019-07-06T05:43:52Z</time>
      </trkpt>
      <trkpt lat="45.53546" lon="6.77112">
        <ele>1429.0971852378</ele>
        <time>2019-07-06T05:43:54Z</time>
      </trkpt>
      <trkpt lat="45.53547" lon="6.7711">
        <ele>1428.4904813911</ele>
        <time>2019-07-06T05:43:55Z</time>
      </trkpt>
      <trkpt lat="45.53547" lon="6.77107">
        <ele>1428.1575315434</ele>
        <time>2019-07-06T05:43:57Z</time>
      </trkpt>
      <trkpt lat="45.53546" lon="6.77103">
        <ele>1427.6674448983</ele>
        <time>2019-07-06T05:43:59Z</time>
      </trkpt>
      <trkpt lat="45.53545" lon="6.77099">
        <ele>1427.4081372385</ele>
        <time>2019-07-06T05:44:01Z</time>
      </trkpt>
      <trkpt lat="45.53545" lon="6.77096">
        <ele>1426.7758651287</ele>
        <time>2019-07-06T05:44:05Z</time>
      </trkpt>
      <trkpt lat="45.53545" lon="6.77094">
        <ele>1426.0015768243</ele>
        <time>2019-07-06T05:44:06Z</time>
      </trkpt>
      <trkpt lat="45.53544" lon="6.77093">
        <ele>1425.027619928</ele>
        <time>2019-07-06T05:44:07Z</time>
      </trkpt>
      <trkpt lat="45.53543" lon="6.77091">
        <ele>1424.1357559181</ele>
        <time>2019-07-06T05:44:08Z</time>
      </trkpt>
      <trkpt lat="45.53542" lon="6.77088">
        <ele>1422.928337415</ele>
        <time>2019-07-06T05:44:10Z</time>
      </trkpt>
      <trkpt lat="45.53541" lon="6.77085">
        <ele>1422.576958081</ele>
        <time>2019-07-06T05:44:11Z</time>
      </trkpt>
      <trkpt lat="45.53539" lon="6.77082">
        <ele>1421.2749879506</ele>
        <time>2019-07-06T05:44:15Z</time>
      </trkpt>
      <trkpt lat="45.53539" lon="6.77079">
        <ele>1420.0520722431</ele>
        <time>2019-07-06T05:44:18Z</time>
      </trkpt>
      <trkpt lat="45.53538" lon="6.77075">
        <ele>1419.2857973001</ele>
        <time>2019-07-06T05:44:20Z</time>
      </trkpt>
      <trkpt lat="45.53538" lon="6.77072">
        <ele>1418.9823509482</ele>
        <time>2019-07-06T05:44:21Z</time>
      </trkpt>
      <trkpt lat="45.5354" lon="6.7707">
        <ele>1419.0345619408</ele>
        <time>2019-07-06T05:44:23Z</time>
      </trkpt>
      <trkpt lat="45.53541" lon="6.77066">
        <ele>1419.024031341</ele>
        <time>2019-07-06T05:44:25Z</time>
      </trkpt>
      <trkpt lat="45.53543" lon="6.77064">
        <ele>1419.0526702234</ele>
        <time>2019-07-06T05:44:26Z</time>
      </trkpt>
      <trkpt lat="45.53544" lon="6.77062">
        <ele>1419.1746302819</ele>
        <time>2019-07-06T05:44:27Z</time>
      </trkpt>
      <trkpt lat="45.53546" lon="6.77058">
        <ele>1418.8472233958</ele>
        <time>2019-07-06T05:44:29Z</time>
      </trkpt>
      <trkpt lat="45.53549" lon="6.77056">
        <ele>1418.668023003</ele>
        <time>2019-07-06T05:44:31Z</time>
      </trkpt>
      <trkpt lat="45.53551" lon="6.77055">
        <ele>1418.3060169967</ele>
        <time>2019-07-06T05:44:33Z</time>
      </trkpt>
      <trkpt lat="45.53552" lon="6.77051">
        <ele>1417.2878883134</ele>
        <time>2019-07-06T05:44:35Z</time>
      </trkpt>
      <trkpt lat="45.53553" lon="6.77049">
        <ele>1417.0437852127</ele>
        <time>2019-07-06T05:44:36Z</time>
      </trkpt>
      <trkpt lat="45.53554" lon="6.77047">
        <ele>1416.8445005716</ele>
        <time>2019-07-06T05:44:37Z</time>
      </trkpt>
      <trkpt lat="45.53556" lon="6.77044">
        <ele>1416.4593766967</ele>
        <time>2019-07-06T05:44:39Z</time>
      </trkpt>
      <trkpt lat="45.53557" lon="6.77041">
        <ele>1415.5862040894</ele>
        <time>2019-07-06T05:44:41Z</time>
      </trkpt>
      <trkpt lat="45.53559" lon="6.77039">
        <ele>1414.9725706066</ele>
        <time>2019-07-06T05:44:43Z</time>
      </trkpt>
      <trkpt lat="45.53561" lon="6.77037">
        <ele>1414.8138068676</ele>
        <time>2019-07-06T05:44:45Z</time>
      </trkpt>
      <trkpt lat="45.53562" lon="6.77034">
        <ele>1414.8115981303</ele>
        <time>2019-07-06T05:44:47Z</time>
      </trkpt>
      <trkpt lat="45.53563" lon="6.77032">
        <ele>1414.7109617216</ele>
        <time>2019-07-06T05:44:49Z</time>
      </trkpt>
      <trkpt lat="45.53564" lon="6.77027">
        <ele>1414.8838859836</ele>
        <time>2019-07-06T05:44:50Z</time>
      </trkpt>
      <trkpt lat="45.53566" lon="6.77022">
        <ele>1415.4410322791</ele>
        <time>2019-07-06T05:44:51Z</time>
      </trkpt>
      <trkpt lat="45.53568" lon="6.77017">
        <ele>1415.9105499916</ele>
        <time>2019-07-06T05:44:52Z</time>
      </trkpt>
      <trkpt lat="45.5357" lon="6.77014">
        <ele>1416.3869664749</ele>
        <time>2019-07-06T05:44:53Z</time>
      </trkpt>
      <trkpt lat="45.53572" lon="6.77011">
        <ele>1417.0000823289</ele>
        <time>2019-07-06T05:44:54Z</time>
      </trkpt>
      <trkpt lat="45.53573" lon="6.77011">
        <ele>1417.783616598</ele>
        <time>2019-07-06T05:44:55Z</time>
      </trkpt>
      <trkpt lat="45.53575" lon="6.77008">
        <ele>1418.7065909457</ele>
        <time>2019-07-06T05:44:57Z</time>
      </trkpt>
      <trkpt lat="45.53576" lon="6.77007">
        <ele>1418.9403485035</ele>
        <time>2019-07-06T05:44:58Z</time>
      </trkpt>
      <trkpt lat="45.53578" lon="6.77003">
        <ele>1419.8495000208</ele>
        <time>2019-07-06T05:45:00Z</time>
      </trkpt>
      <trkpt lat="45.53581" lon="6.76999">
        <ele>1419.8346940967</ele>
        <time>2019-07-06T05:45:02Z</time>
      </trkpt>
      <trkpt lat="45.53581" lon="6.76996">
        <ele>1419.572399874</ele>
        <time>2019-07-06T05:45:04Z</time>
      </trkpt>
      <trkpt lat="45.53582" lon="6.76993">
        <ele>1418.6665785588</ele>
        <time>2019-07-06T05:45:07Z</time>
      </trkpt>
      <trkpt lat="45.53584" lon="6.7699">
        <ele>1417.8429779461</ele>
        <time>2019-07-06T05:45:09Z</time>
      </trkpt>
      <trkpt lat="45.53586" lon="6.76989">
        <ele>1417.3524657101</ele>
        <time>2019-07-06T05:45:10Z</time>
      </trkpt>
      <trkpt lat="45.53588" lon="6.76987">
        <ele>1416.4624328209</ele>
        <time>2019-07-06T05:45:12Z</time>
      </trkpt>
      <trkpt lat="45.5359" lon="6.76984">
        <ele>1415.7967572864</ele>
        <time>2019-07-06T05:45:14Z</time>
      </trkpt>
      <trkpt lat="45.53591" lon="6.76981">
        <ele>1414.7537820242</ele>
        <time>2019-07-06T05:45:16Z</time>
      </trkpt>
      <trkpt lat="45.53592" lon="6.76978">
        <ele>1414.0820869671</ele>
        <time>2019-07-06T05:45:18Z</time>
      </trkpt>
      <trkpt lat="45.53594" lon="6.76975">
        <ele>1414.1304574044</ele>
        <time>2019-07-06T05:45:20Z</time>
      </trkpt>
      <trkpt lat="45.53595" lon="6.76972">
        <ele>1414.1255970479</ele>
        <time>2019-07-06T05:45:22Z</time>
      </trkpt>
      <trkpt lat="45.53596" lon="6.76968">
        <ele>1413.6925074798</ele>
        <time>2019-07-06T05:45:24Z</time>
      </trkpt>
      <trkpt lat="45.53597" lon="6.76965">
        <ele>1413.4318748317</ele>
        <time>2019-07-06T05:45:26Z</time>
      </trkpt>
      <trkpt lat="45.53599" lon="6.76964">
        <ele>1413.1013991763</ele>
        <time>2019-07-06T05:45:28Z</time>
      </trkpt>
      <trkpt lat="45.53601" lon="6.7696">
        <ele>1413.6636123533</ele>
        <time>2019-07-06T05:45:30Z</time>
      </trkpt>
      <trkpt lat="45.53603" lon="6.76959">
        <ele>1414.1835378763</ele>
        <time>2019-07-06T05:45:33Z</time>
      </trkpt>
      <trkpt lat="45.53605" lon="6.76957">
        <ele>1414.5704317494</ele>
        <time>2019-07-06T05:45:34Z</time>
      </trkpt>
      <trkpt lat="45.53606" lon="6.76955">
        <ele>1414.7716011154</ele>
        <time>2019-07-06T05:45:35Z</time>
      </trkpt>
      <trkpt lat="45.53607" lon="6.76954">
        <ele>1415.1010233459</ele>
        <time>2019-07-06T05:45:37Z</time>
      </trkpt>
      <trkpt lat="45.5361" lon="6.76951">
        <ele>1415.3196449077</ele>
        <time>2019-07-06T05:45:40Z</time>
      </trkpt>
      <trkpt lat="45.53612" lon="6.76948">
        <ele>1416.1631546814</ele>
        <time>2019-07-06T05:45:42Z</time>
      </trkpt>
      <trkpt lat="45.53614" lon="6.76945">
        <ele>1417.6209477579</ele>
        <time>2019-07-06T05:45:44Z</time>
      </trkpt>
      <trkpt lat="45.53616" lon="6.76944">
        <ele>1418.8784407758</ele>
        <time>2019-07-06T05:45:46Z</time>
      </trkpt>
      <trkpt lat="45.5362" lon="6.76942">
        <ele>1420.2273635176</ele>
        <time>2019-07-06T05:45:48Z</time>
      </trkpt>
      <trkpt lat="45.53622" lon="6.7694">
        <ele>1420.7240431286</ele>
        <time>2019-07-06T05:45:49Z</time>
      </trkpt>
      <trkpt lat="45.53623" lon="6.76939">
        <ele>1421.5200145705</ele>
        <time>2019-07-06T05:45:51Z</time>
      </trkpt>
      <trkpt lat="45.53627" lon="6.76938">
        <ele>1422.6364234796</ele>
        <time>2019-07-06T05:45:54Z</time>
      </trkpt>
      <trkpt lat="45.53629" lon="6.76937">
        <ele>1422.8037767126</ele>
        <time>2019-07-06T05:45:56Z</time>
      </trkpt>
      <trkpt lat="45.53632" lon="6.76936">
        <ele>1422.7793604828</ele>
        <time>2019-07-06T05:45:58Z</time>
      </trkpt>
      <trkpt lat="45.53634" lon="6.76934">
        <ele>1422.1747786181</ele>
        <time>2019-07-06T05:46:00Z</time>
      </trkpt>
      <trkpt lat="45.53636" lon="6.76933">
        <ele>1421.6208378757</ele>
        <time>2019-07-06T05:46:01Z</time>
      </trkpt>
      <trkpt lat="45.53638" lon="6.76933">
        <ele>1420.3971739297</ele>
        <time>2019-07-06T05:46:03Z</time>
      </trkpt>
      <trkpt lat="45.5364" lon="6.76932">
        <ele>1418.9503517501</ele>
        <time>2019-07-06T05:46:05Z</time>
      </trkpt>
      <trkpt lat="45.53643" lon="6.76931">
        <ele>1417.7688640972</ele>
        <time>2019-07-06T05:46:07Z</time>
      </trkpt>
      <trkpt lat="45.53645" lon="6.76929">
        <ele>1416.6094551979</ele>
        <time>2019-07-06T05:46:09Z</time>
      </trkpt>
      <trkpt lat="45.53647" lon="6.76928">
        <ele>1415.6905941725</ele>
        <time>2019-07-06T05:46:11Z</time>
      </trkpt>
      <trkpt lat="45.5365" lon="6.76926">
        <ele>1414.9016802528</ele>
        <time>2019-07-06T05:46:13Z</time>
      </trkpt>
      <trkpt lat="45.53652" lon="6.76924">
        <ele>1413.7761221986</ele>
        <time>2019-07-06T05:46:15Z</time>
      </trkpt>
      <trkpt lat="45.53655" lon="6.76921">
        <ele>1411.887047354</ele>
        <time>2019-07-06T05:46:17Z</time>
      </trkpt>
      <trkpt lat="45.53657" lon="6.7692">
        <ele>1410.9286751269</ele>
        <time>2019-07-06T05:46:18Z</time>
      </trkpt>
      <trkpt lat="45.53659" lon="6.76918">
        <ele>1408.8044018178</ele>
        <time>2019-07-06T05:46:22Z</time>
      </trkpt>
      <trkpt lat="45.53661" lon="6.76917">
        <ele>1407.967390376</ele>
        <time>2019-07-06T05:46:24Z</time>
      </trkpt>
      <trkpt lat="45.53663" lon="6.76917">
        <ele>1407.0728024271</ele>
        <time>2019-07-06T05:46:26Z</time>
      </trkpt>
      <trkpt lat="45.53665" lon="6.76915">
        <ele>1406.705514799</ele>
        <time>2019-07-06T05:46:27Z</time>
      </trkpt>
      <trkpt lat="45.53666" lon="6.76912">
        <ele>1406.1366926209</ele>
        <time>2019-07-06T05:46:29Z</time>
      </trkpt>
      <trkpt lat="45.53667" lon="6.7691">
        <ele>1405.9740439388</ele>
        <time>2019-07-06T05:46:30Z</time>
      </trkpt>
      <trkpt lat="45.53669" lon="6.76906">
        <ele>1405.8700790954</ele>
        <time>2019-07-06T05:46:31Z</time>
      </trkpt>
      <trkpt lat="45.53671" lon="6.76905">
        <ele>1405.9068046353</ele>
        <time>2019-07-06T05:46:32Z</time>
      </trkpt>
      <trkpt lat="45.53673" lon="6.76903">
        <ele>1405.8441051818</ele>
        <time>2019-07-06T05:46:33Z</time>
      </trkpt>
      <trkpt lat="45.53675" lon="6.769">
        <ele>1405.6830758907</ele>
        <time>2019-07-06T05:46:35Z</time>
      </trkpt>
      <trkpt lat="45.53677" lon="6.76897">
        <ele>1405.5232791505</ele>
        <time>2019-07-06T05:46:37Z</time>
      </trkpt>
      <trkpt lat="45.53678" lon="6.76896">
        <ele>1405.7689826063</ele>
        <time>2019-07-06T05:46:39Z</time>
      </trkpt>
      <trkpt lat="45.5368" lon="6.76893">
        <ele>1406.7342588461</ele>
        <time>2019-07-06T05:46:42Z</time>
      </trkpt>
      <trkpt lat="45.53679" lon="6.76889">
        <ele>1407.0753003584</ele>
        <time>2019-07-06T05:46:44Z</time>
      </trkpt>
      <trkpt lat="45.5368" lon="6.76885">
        <ele>1407.4939070776</ele>
        <time>2019-07-06T05:46:46Z</time>
      </trkpt>
      <trkpt lat="45.53682" lon="6.76882">
        <ele>1406.9631977981</ele>
        <time>2019-07-06T05:46:49Z</time>
      </trkpt>
      <trkpt lat="45.53683" lon="6.76879">
        <ele>1405.6439142857</ele>
        <time>2019-07-06T05:46:51Z</time>
      </trkpt>
      <trkpt lat="45.53685" lon="6.76875">
        <ele>1404.1521309838</ele>
        <time>2019-07-06T05:46:53Z</time>
      </trkpt>
      <trkpt lat="45.53686" lon="6.76872">
        <ele>1402.9044514885</ele>
        <time>2019-07-06T05:46:55Z</time>
      </trkpt>
      <trkpt lat="45.53686" lon="6.7687">
        <ele>1402.8016941889</ele>
        <time>2019-07-06T05:46:56Z</time>
      </trkpt>
      <trkpt lat="45.53686" lon="6.76865">
        <ele>1402.7877128702</ele>
        <time>2019-07-06T05:46:58Z</time>
      </trkpt>
      <trkpt lat="45.53688" lon="6.76861">
        <ele>1403.2333065747</ele>
        <time>2019-07-06T05:47:01Z</time>
      </trkpt>
      <trkpt lat="45.53689" lon="6.76859">
        <ele>1403.3587248106</ele>
        <time>2019-07-06T05:47:03Z</time>
      </trkpt>
      <trkpt lat="45.5369" lon="6.76856">
        <ele>1403.3919042987</ele>
        <time>2019-07-06T05:47:06Z</time>
      </trkpt>
      <trkpt lat="45.5369" lon="6.76852">
        <ele>1403.3959982972</ele>
        <time>2019-07-06T05:47:08Z</time>
      </trkpt>
      <trkpt lat="45.53693" lon="6.7685">
        <ele>1403.3716548515</ele>
        <time>2019-07-06T05:47:10Z</time>
      </trkpt>
      <trkpt lat="45.53694" lon="6.76849">
        <ele>1402.1374229673</ele>
        <time>2019-07-06T05:47:13Z</time>
      </trkpt>
      <trkpt lat="45.53695" lon="6.76846">
        <ele>1401.7680869874</ele>
        <time>2019-07-06T05:47:15Z</time>
      </trkpt>
      <trkpt lat="45.53696" lon="6.76842">
        <ele>1401.155844005</ele>
        <time>2019-07-06T05:47:17Z</time>
      </trkpt>
      <trkpt lat="45.53698" lon="6.7684">
        <ele>1400.3147974876</ele>
        <time>2019-07-06T05:47:19Z</time>
      </trkpt>
      <trkpt lat="45.53698" lon="6.76835">
        <ele>1400.0436739009</ele>
        <time>2019-07-06T05:47:21Z</time>
      </trkpt>
      <trkpt lat="45.53698" lon="6.76832">
        <ele>1399.7157718188</ele>
        <time>2019-07-06T05:47:23Z</time>
      </trkpt>
      <trkpt lat="45.53699" lon="6.76829">
        <ele>1399.2108609635</ele>
        <time>2019-07-06T05:47:25Z</time>
      </trkpt>
      <trkpt lat="45.537" lon="6.76826">
        <ele>1397.4759382299</ele>
        <time>2019-07-06T05:47:28Z</time>
      </trkpt>
      <trkpt lat="45.537" lon="6.76823">
        <ele>1396.3710723368</ele>
        <time>2019-07-06T05:47:30Z</time>
      </trkpt>
      <trkpt lat="45.53701" lon="6.76821">
        <ele>1395.2390745756</ele>
        <time>2019-07-06T05:47:32Z</time>
      </trkpt>
      <trkpt lat="45.53702" lon="6.76819">
        <ele>1394.6895433953</ele>
        <time>2019-07-06T05:47:33Z</time>
      </trkpt>
      <trkpt lat="45.53702" lon="6.76815">
        <ele>1393.7319112513</ele>
        <time>2019-07-06T05:47:35Z</time>
      </trkpt>
      <trkpt lat="45.53703" lon="6.76811">
        <ele>1392.5654702249</ele>
        <time>2019-07-06T05:47:37Z</time>
      </trkpt>
      <trkpt lat="45.53704" lon="6.76807">
        <ele>1392.0206051123</ele>
        <time>2019-07-06T05:47:39Z</time>
      </trkpt>
      <trkpt lat="45.53704" lon="6.76804">
        <ele>1391.3155855398</ele>
        <time>2019-07-06T05:47:41Z</time>
      </trkpt>
      <trkpt lat="45.53704" lon="6.768">
        <ele>1390.7911316355</ele>
        <time>2019-07-06T05:47:44Z</time>
      </trkpt>
      <trkpt lat="45.53704" lon="6.76797">
        <ele>1390.0544124512</ele>
        <time>2019-07-06T05:47:47Z</time>
      </trkpt>
      <trkpt lat="45.53705" lon="6.76794">
        <ele>1389.7754862943</ele>
        <time>2019-07-06T05:47:49Z</time>
      </trkpt>
      <trkpt lat="45.53705" lon="6.76788">
        <ele>1388.7446985245</ele>
        <time>2019-07-06T05:47:51Z</time>
      </trkpt>
      <trkpt lat="45.53706" lon="6.76785">
        <ele>1386.7356347506</ele>
        <time>2019-07-06T05:47:54Z</time>
      </trkpt>
      <trkpt lat="45.53708" lon="6.76782">
        <ele>1385.3735687173</ele>
        <time>2019-07-06T05:47:56Z</time>
      </trkpt>
      <trkpt lat="45.5371" lon="6.76781">
        <ele>1384.5008443328</ele>
        <time>2019-07-06T05:47:58Z</time>
      </trkpt>
      <trkpt lat="45.53712" lon="6.76781">
        <ele>1382.3429783588</ele>
        <time>2019-07-06T05:48:02Z</time>
      </trkpt>
      <trkpt lat="45.53714" lon="6.76778">
        <ele>1380.5730905406</ele>
        <time>2019-07-06T05:48:05Z</time>
      </trkpt>
      <trkpt lat="45.53717" lon="6.76778">
        <ele>1380.1608906154</ele>
        <time>2019-07-06T05:48:07Z</time>
      </trkpt>
      <trkpt lat="45.5372" lon="6.76777">
        <ele>1379.2257276973</ele>
        <time>2019-07-06T05:48:09Z</time>
      </trkpt>
      <trkpt lat="45.53722" lon="6.76777">
        <ele>1378.0398623145</ele>
        <time>2019-07-06T05:48:13Z</time>
      </trkpt>
      <trkpt lat="45.53725" lon="6.76777">
        <ele>1377.2224005326</ele>
        <time>2019-07-06T05:48:15Z</time>
      </trkpt>
      <trkpt lat="45.53728" lon="6.76775">
        <ele>1375.9519667509</ele>
        <time>2019-07-06T05:48:17Z</time>
      </trkpt>
      <trkpt lat="45.53731" lon="6.76773">
        <ele>1375.0419140556</ele>
        <time>2019-07-06T05:48:19Z</time>
      </trkpt>
      <trkpt lat="45.53733" lon="6.76771">
        <ele>1374.6369546297</ele>
        <time>2019-07-06T05:48:21Z</time>
      </trkpt>
      <trkpt lat="45.53733" lon="6.76768">
        <ele>1374.1632674104</ele>
        <time>2019-07-06T05:48:23Z</time>
      </trkpt>
      <trkpt lat="45.53733" lon="6.76764">
        <ele>1373.3443149001</ele>
        <time>2019-07-06T05:48:26Z</time>
      </trkpt>
      <trkpt lat="45.53733" lon="6.7676">
        <ele>1373.0209790841</ele>
        <time>2019-07-06T05:48:29Z</time>
      </trkpt>
      <trkpt lat="45.53732" lon="6.76757">
        <ele>1373.1835380504</ele>
        <time>2019-07-06T05:48:30Z</time>
      </trkpt>
      <trkpt lat="45.53732" lon="6.76753">
        <ele>1373.6798540072</ele>
        <time>2019-07-06T05:48:32Z</time>
      </trkpt>
      <trkpt lat="45.53731" lon="6.7675">
        <ele>1374.057040417</ele>
        <time>2019-07-06T05:48:34Z</time>
      </trkpt>
      <trkpt lat="45.53731" lon="6.76747">
        <ele>1373.9402847485</ele>
        <time>2019-07-06T05:48:36Z</time>
      </trkpt>
      <trkpt lat="45.53731" lon="6.76744">
        <ele>1373.3235078045</ele>
        <time>2019-07-06T05:48:38Z</time>
      </trkpt>
      <trkpt lat="45.53731" lon="6.76741">
        <ele>1373.2151622029</ele>
        <time>2019-07-06T05:48:39Z</time>
      </trkpt>
      <trkpt lat="45.53732" lon="6.76736">
        <ele>1373.2526138839</ele>
        <time>2019-07-06T05:48:41Z</time>
      </trkpt>
      <trkpt lat="45.53732" lon="6.76733">
        <ele>1372.5409534332</ele>
        <time>2019-07-06T05:48:43Z</time>
      </trkpt>
      <trkpt lat="45.53733" lon="6.7673">
        <ele>1372.3565332235</ele>
        <time>2019-07-06T05:48:44Z</time>
      </trkpt>
      <trkpt lat="45.53734" lon="6.76728">
        <ele>1372.1765773502</ele>
        <time>2019-07-06T05:48:45Z</time>
      </trkpt>
      <trkpt lat="45.53736" lon="6.76724">
        <ele>1371.8368635062</ele>
        <time>2019-07-06T05:48:47Z</time>
      </trkpt>
      <trkpt lat="45.53736" lon="6.76722">
        <ele>1370.8970905213</ele>
        <time>2019-07-06T05:48:49Z</time>
      </trkpt>
      <trkpt lat="45.53738" lon="6.76719">
        <ele>1370.3056540257</ele>
        <time>2019-07-06T05:48:51Z</time>
      </trkpt>
      <trkpt lat="45.5374" lon="6.76717">
        <ele>1370.135239279</ele>
        <time>2019-07-06T05:48:52Z</time>
      </trkpt>
      <trkpt lat="45.53739" lon="6.76713">
        <ele>1369.9267603694</ele>
        <time>2019-07-06T05:48:54Z</time>
      </trkpt>
      <trkpt lat="45.5374" lon="6.76711">
        <ele>1369.483134037</ele>
        <time>2019-07-06T05:48:56Z</time>
      </trkpt>
      <trkpt lat="45.53743" lon="6.76709">
        <ele>1368.9358187462</ele>
        <time>2019-07-06T05:48:58Z</time>
      </trkpt>
      <trkpt lat="45.53744" lon="6.76707">
        <ele>1368.8383291256</ele>
        <time>2019-07-06T05:48:59Z</time>
      </trkpt>
      <trkpt lat="45.53746" lon="6.76704">
        <ele>1368.7260261298</ele>
        <time>2019-07-06T05:49:01Z</time>
      </trkpt>
      <trkpt lat="45.53749" lon="6.76703">
        <ele>1368.5463606715</ele>
        <time>2019-07-06T05:49:03Z</time>
      </trkpt>
      <trkpt lat="45.53753" lon="6.76701">
        <ele>1368.1798510501</ele>
        <time>2019-07-06T05:49:05Z</time>
      </trkpt>
      <trkpt lat="45.53754" lon="6.767">
        <ele>1367.877392507</ele>
        <time>2019-07-06T05:49:06Z</time>
      </trkpt>
      <trkpt lat="45.53757" lon="6.76697">
        <ele>1367.1425022721</ele>
        <time>2019-07-06T05:49:08Z</time>
      </trkpt>
      <trkpt lat="45.53759" lon="6.76694">
        <ele>1367.0682103518</ele>
        <time>2019-07-06T05:49:10Z</time>
      </trkpt>
      <trkpt lat="45.5376" lon="6.76692">
        <ele>1368.6700548551</ele>
        <time>2019-07-06T05:49:14Z</time>
      </trkpt>
      <trkpt lat="45.53762" lon="6.7669">
        <ele>1368.9376731765</ele>
        <time>2019-07-06T05:49:19Z</time>
      </trkpt>
      <trkpt lat="45.53763" lon="6.76688">
        <ele>1368.3999050203</ele>
        <time>2019-07-06T05:49:22Z</time>
      </trkpt>
      <trkpt lat="45.53764" lon="6.76685">
        <ele>1367.63771032</ele>
        <time>2019-07-06T05:49:31Z</time>
      </trkpt>
      <trkpt lat="45.53766" lon="6.76684">
        <ele>1367.4255536492</ele>
        <time>2019-07-06T05:49:32Z</time>
      </trkpt>
      <trkpt lat="45.53769" lon="6.76681">
        <ele>1366.6967485571</ele>
        <time>2019-07-06T05:49:34Z</time>
      </trkpt>
      <trkpt lat="45.5377" lon="6.76679">
        <ele>1366.310412393</ele>
        <time>2019-07-06T05:49:36Z</time>
      </trkpt>
      <trkpt lat="45.53772" lon="6.76675">
        <ele>1366.5118123747</ele>
        <time>2019-07-06T05:49:38Z</time>
      </trkpt>
      <trkpt lat="45.53774" lon="6.76673">
        <ele>1366.3572563699</ele>
        <time>2019-07-06T05:49:40Z</time>
      </trkpt>
      <trkpt lat="45.53775" lon="6.7667">
        <ele>1366.3147007148</ele>
        <time>2019-07-06T05:49:42Z</time>
      </trkpt>
      <trkpt lat="45.53777" lon="6.76667">
        <ele>1366.4833399231</ele>
        <time>2019-07-06T05:49:43Z</time>
      </trkpt>
      <trkpt lat="45.53779" lon="6.76665">
        <ele>1366.7267261816</ele>
        <time>2019-07-06T05:49:45Z</time>
      </trkpt>
      <trkpt lat="45.5378" lon="6.76662">
        <ele>1366.4163415025</ele>
        <time>2019-07-06T05:49:47Z</time>
      </trkpt>
      <trkpt lat="45.5378" lon="6.76659">
        <ele>1365.9940386125</ele>
        <time>2019-07-06T05:49:48Z</time>
      </trkpt>
      <trkpt lat="45.5378" lon="6.76657">
        <ele>1365.4058965044</ele>
        <time>2019-07-06T05:49:49Z</time>
      </trkpt>
      <trkpt lat="45.53782" lon="6.76654">
        <ele>1364.6406912833</ele>
        <time>2019-07-06T05:49:50Z</time>
      </trkpt>
      <trkpt lat="45.53783" lon="6.7665">
        <ele>1363.4244281204</ele>
        <time>2019-07-06T05:49:52Z</time>
      </trkpt>
      <trkpt lat="45.53785" lon="6.76647">
        <ele>1363.0529778846</ele>
        <time>2019-07-06T05:49:54Z</time>
      </trkpt>
      <trkpt lat="45.53785" lon="6.76643">
        <ele>1362.5172892562</ele>
        <time>2019-07-06T05:49:56Z</time>
      </trkpt>
      <trkpt lat="45.53786" lon="6.76641">
        <ele>1362.0317075296</ele>
        <time>2019-07-06T05:49:58Z</time>
      </trkpt>
      <trkpt lat="45.53788" lon="6.76637">
        <ele>1361.2165177549</ele>
        <time>2019-07-06T05:50:00Z</time>
      </trkpt>
      <trkpt lat="45.53788" lon="6.76634">
        <ele>1360.9464426639</ele>
        <time>2019-07-06T05:50:01Z</time>
      </trkpt>
      <trkpt lat="45.53789" lon="6.7663">
        <ele>1360.355221111</ele>
        <time>2019-07-06T05:50:03Z</time>
      </trkpt>
      <trkpt lat="45.53788" lon="6.76627">
        <ele>1360.002386061</ele>
        <time>2019-07-06T05:50:05Z</time>
      </trkpt>
      <trkpt lat="45.53789" lon="6.76623">
        <ele>1360.006070115</ele>
        <time>2019-07-06T05:50:07Z</time>
      </trkpt>
      <trkpt lat="45.53789" lon="6.76619">
        <ele>1360.3195987787</ele>
        <time>2019-07-06T05:50:09Z</time>
      </trkpt>
      <trkpt lat="45.53789" lon="6.76615">
        <ele>1360.8939339288</ele>
        <time>2019-07-06T05:50:11Z</time>
      </trkpt>
      <trkpt lat="45.53788" lon="6.76611">
        <ele>1362.256804725</ele>
        <time>2019-07-06T05:50:13Z</time>
      </trkpt>
      <trkpt lat="45.53788" lon="6.76608">
        <ele>1362.9797595889</ele>
        <time>2019-07-06T05:50:14Z</time>
      </trkpt>
      <trkpt lat="45.53789" lon="6.76605">
        <ele>1363.7135448186</ele>
        <time>2019-07-06T05:50:15Z</time>
      </trkpt>
      <trkpt lat="45.53789" lon="6.76603">
        <ele>1364.356632183</ele>
        <time>2019-07-06T05:50:16Z</time>
      </trkpt>
      <trkpt lat="45.53789" lon="6.76599">
        <ele>1364.8426719645</ele>
        <time>2019-07-06T05:50:17Z</time>
      </trkpt>
      <trkpt lat="45.53791" lon="6.76599">
        <ele>1364.8253265993</ele>
        <time>2019-07-06T05:50:18Z</time>
      </trkpt>
      <trkpt lat="45.53793" lon="6.76594">
        <ele>1364.7957703987</ele>
        <time>2019-07-06T05:50:20Z</time>
      </trkpt>
      <trkpt lat="45.53795" lon="6.7659">
        <ele>1364.380336793</ele>
        <time>2019-07-06T05:50:22Z</time>
      </trkpt>
      <trkpt lat="45.53797" lon="6.76586">
        <ele>1364.3538804847</ele>
        <time>2019-07-06T05:50:24Z</time>
      </trkpt>
      <trkpt lat="45.53798" lon="6.76583">
        <ele>1364.3202996038</ele>
        <time>2019-07-06T05:50:25Z</time>
      </trkpt>
      <trkpt lat="45.53799" lon="6.76579">
        <ele>1364.6756290468</ele>
        <time>2019-07-06T05:50:27Z</time>
      </trkpt>
      <trkpt lat="45.53801" lon="6.76576">
        <ele>1364.9079422307</ele>
        <time>2019-07-06T05:50:29Z</time>
      </trkpt>
      <trkpt lat="45.53801" lon="6.76572">
        <ele>1364.8110866796</ele>
        <time>2019-07-06T05:50:31Z</time>
      </trkpt>
      <trkpt lat="45.53802" lon="6.76567">
        <ele>1364.9329210287</ele>
        <time>2019-07-06T05:50:33Z</time>
      </trkpt>
      <trkpt lat="45.53803" lon="6.76565">
        <ele>1364.6882359714</ele>
        <time>2019-07-06T05:50:35Z</time>
      </trkpt>
      <trkpt lat="45.53803" lon="6.7656">
        <ele>1365.3090809775</ele>
        <time>2019-07-06T05:50:37Z</time>
      </trkpt>
      <trkpt lat="45.53805" lon="6.76556">
        <ele>1366.0338040827</ele>
        <time>2019-07-06T05:50:39Z</time>
      </trkpt>
      <trkpt lat="45.53805" lon="6.76552">
        <ele>1366.4573964386</ele>
        <time>2019-07-06T05:50:41Z</time>
      </trkpt>
      <trkpt lat="45.53806" lon="6.76549">
        <ele>1366.6352750022</ele>
        <time>2019-07-06T05:50:42Z</time>
      </trkpt>
      <trkpt lat="45.53807" lon="6.76547">
        <ele>1366.6173203415</ele>
        <time>2019-07-06T05:50:43Z</time>
      </trkpt>
      <trkpt lat="45.53808" lon="6.76543">
        <ele>1366.47111413</ele>
        <time>2019-07-06T05:50:45Z</time>
      </trkpt>
      <trkpt lat="45.5381" lon="6.7654">
        <ele>1366.3559597163</ele>
        <time>2019-07-06T05:50:47Z</time>
      </trkpt>
      <trkpt lat="45.53812" lon="6.76539">
        <ele>1366.4236387055</ele>
        <time>2019-07-06T05:50:48Z</time>
      </trkpt>
      <trkpt lat="45.53814" lon="6.76536">
        <ele>1366.6225328983</ele>
        <time>2019-07-06T05:50:50Z</time>
      </trkpt>
      <trkpt lat="45.53815" lon="6.76533">
        <ele>1367.1860382589</ele>
        <time>2019-07-06T05:50:52Z</time>
      </trkpt>
      <trkpt lat="45.53815" lon="6.76529">
        <ele>1367.7034849403</ele>
        <time>2019-07-06T05:50:54Z</time>
      </trkpt>
      <trkpt lat="45.53815" lon="6.76527">
        <ele>1367.3312598886</ele>
        <time>2019-07-06T05:50:56Z</time>
      </trkpt>
      <trkpt lat="45.53815" lon="6.76523">
        <ele>1366.530747557</ele>
        <time>2019-07-06T05:51:00Z</time>
      </trkpt>
      <trkpt lat="45.53815" lon="6.76519">
        <ele>1365.8208997814</ele>
        <time>2019-07-06T05:51:02Z</time>
      </trkpt>
      <trkpt lat="45.53815" lon="6.76517">
        <ele>1364.8703893425</ele>
        <time>2019-07-06T05:51:04Z</time>
      </trkpt>
      <trkpt lat="45.53815" lon="6.76514">
        <ele>1363.8071890867</ele>
        <time>2019-07-06T05:51:06Z</time>
      </trkpt>
      <trkpt lat="45.53814" lon="6.76509">
        <ele>1363.0129521219</ele>
        <time>2019-07-06T05:51:08Z</time>
      </trkpt>
      <trkpt lat="45.53815" lon="6.76506">
        <ele>1362.6494102874</ele>
        <time>2019-07-06T05:51:11Z</time>
      </trkpt>
      <trkpt lat="45.53814" lon="6.76504">
        <ele>1362.1548887142</ele>
        <time>2019-07-06T05:51:13Z</time>
      </trkpt>
      <trkpt lat="45.53812" lon="6.765">
        <ele>1361.5195264356</ele>
        <time>2019-07-06T05:51:15Z</time>
      </trkpt>
      <trkpt lat="45.53811" lon="6.76497">
        <ele>1360.9884329297</ele>
        <time>2019-07-06T05:51:17Z</time>
      </trkpt>
      <trkpt lat="45.53811" lon="6.76493">
        <ele>1361.0010744642</ele>
        <time>2019-07-06T05:51:19Z</time>
      </trkpt>
      <trkpt lat="45.53813" lon="6.7649">
        <ele>1361.1941376862</ele>
        <time>2019-07-06T05:51:21Z</time>
      </trkpt>
      <trkpt lat="45.53813" lon="6.76487">
        <ele>1361.3575780071</ele>
        <time>2019-07-06T05:51:22Z</time>
      </trkpt>
      <trkpt lat="45.53814" lon="6.76485">
        <ele>1361.101203706</ele>
        <time>2019-07-06T05:51:24Z</time>
      </trkpt>
      <trkpt lat="45.53817" lon="6.76483">
        <ele>1360.7939951961</ele>
        <time>2019-07-06T05:51:26Z</time>
      </trkpt>
      <trkpt lat="45.53817" lon="6.76479">
        <ele>1360.7797424239</ele>
        <time>2019-07-06T05:51:27Z</time>
      </trkpt>
      <trkpt lat="45.53819" lon="6.76475">
        <ele>1359.1222859377</ele>
        <time>2019-07-06T05:51:29Z</time>
      </trkpt>
      <trkpt lat="45.53819" lon="6.76472">
        <ele>1358.4157023316</ele>
        <time>2019-07-06T05:51:30Z</time>
      </trkpt>
      <trkpt lat="45.5382" lon="6.76469">
        <ele>1357.712032172</ele>
        <time>2019-07-06T05:51:32Z</time>
      </trkpt>
      <trkpt lat="45.53819" lon="6.76464">
        <ele>1356.4171168848</ele>
        <time>2019-07-06T05:51:34Z</time>
      </trkpt>
      <trkpt lat="45.53821" lon="6.76458">
        <ele>1355.3351003351</ele>
        <time>2019-07-06T05:51:36Z</time>
      </trkpt>
      <trkpt lat="45.53821" lon="6.76455">
        <ele>1354.5828253246</ele>
        <time>2019-07-06T05:51:38Z</time>
      </trkpt>
      <trkpt lat="45.53822" lon="6.76451">
        <ele>1353.9617357414</ele>
        <time>2019-07-06T05:51:40Z</time>
      </trkpt>
      <trkpt lat="45.53822" lon="6.76447">
        <ele>1353.3682005936</ele>
        <time>2019-07-06T05:51:42Z</time>
      </trkpt>
      <trkpt lat="45.53824" lon="6.76445">
        <ele>1352.8228701134</ele>
        <time>2019-07-06T05:51:44Z</time>
      </trkpt>
      <trkpt lat="45.53826" lon="6.76443">
        <ele>1352.6174755986</ele>
        <time>2019-07-06T05:51:46Z</time>
      </trkpt>
      <trkpt lat="45.53827" lon="6.76439">
        <ele>1352.7327757081</ele>
        <time>2019-07-06T05:51:48Z</time>
      </trkpt>
      <trkpt lat="45.53827" lon="6.76436">
        <ele>1352.5572210371</ele>
        <time>2019-07-06T05:51:49Z</time>
      </trkpt>
      <trkpt lat="45.53827" lon="6.76431">
        <ele>1352.3192532675</ele>
        <time>2019-07-06T05:51:51Z</time>
      </trkpt>
      <trkpt lat="45.53828" lon="6.76427">
        <ele>1352.3553892886</ele>
        <time>2019-07-06T05:51:53Z</time>
      </trkpt>
      <trkpt lat="45.5383" lon="6.76424">
        <ele>1352.5323998442</ele>
        <time>2019-07-06T05:51:56Z</time>
      </trkpt>
      <trkpt lat="45.5383" lon="6.76419">
        <ele>1353.2081638741</ele>
        <time>2019-07-06T05:51:58Z</time>
      </trkpt>
      <trkpt lat="45.5383" lon="6.76415">
        <ele>1353.8122982907</ele>
        <time>2019-07-06T05:52:00Z</time>
      </trkpt>
      <trkpt lat="45.53831" lon="6.76411">
        <ele>1354.6817777764</ele>
        <time>2019-07-06T05:52:02Z</time>
      </trkpt>
      <trkpt lat="45.53832" lon="6.76408">
        <ele>1354.7991065645</ele>
        <time>2019-07-06T05:52:04Z</time>
      </trkpt>
      <trkpt lat="45.53831" lon="6.76405">
        <ele>1354.6289162904</ele>
        <time>2019-07-06T05:52:05Z</time>
      </trkpt>
      <trkpt lat="45.53832" lon="6.76401">
        <ele>1353.6470537745</ele>
        <time>2019-07-06T05:52:07Z</time>
      </trkpt>
      <trkpt lat="45.53832" lon="6.76399">
        <ele>1352.8398875059</ele>
        <time>2019-07-06T05:52:09Z</time>
      </trkpt>
      <trkpt lat="45.53833" lon="6.76395">
        <ele>1351.5796582546</ele>
        <time>2019-07-06T05:52:11Z</time>
      </trkpt>
      <trkpt lat="45.53834" lon="6.76393">
        <ele>1350.7739016772</ele>
        <time>2019-07-06T05:52:12Z</time>
      </trkpt>
      <trkpt lat="45.53834" lon="6.76389">
        <ele>1349.386198301</ele>
        <time>2019-07-06T05:52:14Z</time>
      </trkpt>
      <trkpt lat="45.53836" lon="6.76386">
        <ele>1348.1927856789</ele>
        <time>2019-07-06T05:52:16Z</time>
      </trkpt>
      <trkpt lat="45.53837" lon="6.76382">
        <ele>1347.5622465781</ele>
        <time>2019-07-06T05:52:18Z</time>
      </trkpt>
      <trkpt lat="45.53839" lon="6.76379">
        <ele>1347.0914696371</ele>
        <time>2019-07-06T05:52:20Z</time>
      </trkpt>
      <trkpt lat="45.53839" lon="6.76375">
        <ele>1346.8719311256</ele>
        <time>2019-07-06T05:52:22Z</time>
      </trkpt>
      <trkpt lat="45.53839" lon="6.76372">
        <ele>1347.1513505139</ele>
        <time>2019-07-06T05:52:24Z</time>
      </trkpt>
      <trkpt lat="45.53839" lon="6.76368">
        <ele>1346.9551321178</ele>
        <time>2019-07-06T05:52:26Z</time>
      </trkpt>
      <trkpt lat="45.53839" lon="6.76365">
        <ele>1346.7791560283</ele>
        <time>2019-07-06T05:52:27Z</time>
      </trkpt>
      <trkpt lat="45.5384" lon="6.76362">
        <ele>1346.4699551644</ele>
        <time>2019-07-06T05:52:29Z</time>
      </trkpt>
      <trkpt lat="45.53842" lon="6.76359">
        <ele>1346.1187593584</ele>
        <time>2019-07-06T05:52:31Z</time>
      </trkpt>
      <trkpt lat="45.53844" lon="6.76357">
        <ele>1345.1447169199</ele>
        <time>2019-07-06T05:52:33Z</time>
      </trkpt>
      <trkpt lat="45.53846" lon="6.76353">
        <ele>1343.3634834861</ele>
        <time>2019-07-06T05:52:36Z</time>
      </trkpt>
      <trkpt lat="45.53846" lon="6.76349">
        <ele>1342.4389678266</ele>
        <time>2019-07-06T05:52:38Z</time>
      </trkpt>
      <trkpt lat="45.53846" lon="6.76345">
        <ele>1341.587568426</ele>
        <time>2019-07-06T05:52:40Z</time>
      </trkpt>
      <trkpt lat="45.53848" lon="6.76342">
        <ele>1340.788878386</ele>
        <time>2019-07-06T05:52:42Z</time>
      </trkpt>
      <trkpt lat="45.53848" lon="6.76339">
        <ele>1340.2987045895</ele>
        <time>2019-07-06T05:52:43Z</time>
      </trkpt>
      <trkpt lat="45.5385" lon="6.76336">
        <ele>1339.1865695541</ele>
        <time>2019-07-06T05:52:45Z</time>
      </trkpt>
      <trkpt lat="45.53851" lon="6.76334">
        <ele>1338.3186248404</ele>
        <time>2019-07-06T05:52:47Z</time>
      </trkpt>
      <trkpt lat="45.53853" lon="6.76331">
        <ele>1337.8217576534</ele>
        <time>2019-07-06T05:52:49Z</time>
      </trkpt>
      <trkpt lat="45.53855" lon="6.7633">
        <ele>1337.7643722459</ele>
        <time>2019-07-06T05:52:51Z</time>
      </trkpt>
      <trkpt lat="45.53856" lon="6.76326">
        <ele>1337.8210311549</ele>
        <time>2019-07-06T05:52:53Z</time>
      </trkpt>
      <trkpt lat="45.53857" lon="6.76324">
        <ele>1337.9742834189</ele>
        <time>2019-07-06T05:52:55Z</time>
      </trkpt>
      <trkpt lat="45.53859" lon="6.76322">
        <ele>1338.2230838117</ele>
        <time>2019-07-06T05:52:57Z</time>
      </trkpt>
      <trkpt lat="45.53862" lon="6.76319">
        <ele>1337.9155552318</ele>
        <time>2019-07-06T05:52:59Z</time>
      </trkpt>
      <trkpt lat="45.53864" lon="6.76316">
        <ele>1337.0210838203</ele>
        <time>2019-07-06T05:53:01Z</time>
      </trkpt>
      <trkpt lat="45.53864" lon="6.76312">
        <ele>1336.0408261683</ele>
        <time>2019-07-06T05:53:03Z</time>
      </trkpt>
      <trkpt lat="45.53866" lon="6.7631">
        <ele>1335.5685666402</ele>
        <time>2019-07-06T05:53:04Z</time>
      </trkpt>
      <trkpt lat="45.53867" lon="6.76307">
        <ele>1334.9962061246</ele>
        <time>2019-07-06T05:53:06Z</time>
      </trkpt>
      <trkpt lat="45.53868" lon="6.76305">
        <ele>1334.2847204057</ele>
        <time>2019-07-06T05:53:08Z</time>
      </trkpt>
      <trkpt lat="45.53869" lon="6.76303">
        <ele>1333.9615010571</ele>
        <time>2019-07-06T05:53:10Z</time>
      </trkpt>
      <trkpt lat="45.53872" lon="6.76301">
        <ele>1334.0983810473</ele>
        <time>2019-07-06T05:53:12Z</time>
      </trkpt>
      <trkpt lat="45.53873" lon="6.763">
        <ele>1334.2767800481</ele>
        <time>2019-07-06T05:53:13Z</time>
      </trkpt>
      <trkpt lat="45.53875" lon="6.76298">
        <ele>1334.5349198967</ele>
        <time>2019-07-06T05:53:15Z</time>
      </trkpt>
      <trkpt lat="45.53877" lon="6.76296">
        <ele>1334.466434997</ele>
        <time>2019-07-06T05:53:16Z</time>
      </trkpt>
      <trkpt lat="45.5388" lon="6.76293">
        <ele>1333.4150160036</ele>
        <time>2019-07-06T05:53:18Z</time>
      </trkpt>
      <trkpt lat="45.53882" lon="6.76291">
        <ele>1332.741928176</ele>
        <time>2019-07-06T05:53:20Z</time>
      </trkpt>
      <trkpt lat="45.53885" lon="6.76289">
        <ele>1332.3107481082</ele>
        <time>2019-07-06T05:53:22Z</time>
      </trkpt>
      <trkpt lat="45.53887" lon="6.76288">
        <ele>1331.7201410521</ele>
        <time>2019-07-06T05:53:24Z</time>
      </trkpt>
      <trkpt lat="45.53889" lon="6.76287">
        <ele>1330.9636326544</ele>
        <time>2019-07-06T05:53:26Z</time>
      </trkpt>
      <trkpt lat="45.53891" lon="6.76284">
        <ele>1329.7563696865</ele>
        <time>2019-07-06T05:53:29Z</time>
      </trkpt>
      <trkpt lat="45.53893" lon="6.76282">
        <ele>1329.6091086755</ele>
        <time>2019-07-06T05:53:31Z</time>
      </trkpt>
      <trkpt lat="45.53895" lon="6.76281">
        <ele>1329.1632903082</ele>
        <time>2019-07-06T05:53:33Z</time>
      </trkpt>
      <trkpt lat="45.53898" lon="6.7628">
        <ele>1328.9022067295</ele>
        <time>2019-07-06T05:53:35Z</time>
      </trkpt>
      <trkpt lat="45.539" lon="6.76281">
        <ele>1328.715247856</ele>
        <time>2019-07-06T05:53:37Z</time>
      </trkpt>
      <trkpt lat="45.53903" lon="6.7628">
        <ele>1328.5205370142</ele>
        <time>2019-07-06T05:53:39Z</time>
      </trkpt>
      <trkpt lat="45.53903" lon="6.76277">
        <ele>1328.3675008816</ele>
        <time>2019-07-06T05:53:41Z</time>
      </trkpt>
      <trkpt lat="45.53906" lon="6.76276">
        <ele>1327.4902366925</ele>
        <time>2019-07-06T05:53:43Z</time>
      </trkpt>
      <trkpt lat="45.53909" lon="6.76275">
        <ele>1326.1860503665</ele>
        <time>2019-07-06T05:53:45Z</time>
      </trkpt>
      <trkpt lat="45.53911" lon="6.76274">
        <ele>1325.4049287181</ele>
        <time>2019-07-06T05:53:47Z</time>
      </trkpt>
      <trkpt lat="45.53914" lon="6.76273">
        <ele>1324.8497260588</ele>
        <time>2019-07-06T05:53:49Z</time>
      </trkpt>
      <trkpt lat="45.53917" lon="6.76271">
        <ele>1324.3972519117</ele>
        <time>2019-07-06T05:53:51Z</time>
      </trkpt>
      <trkpt lat="45.53918" lon="6.76268">
        <ele>1323.4971719691</ele>
        <time>2019-07-06T05:53:53Z</time>
      </trkpt>
      <trkpt lat="45.53921" lon="6.76267">
        <ele>1322.4818998338</ele>
        <time>2019-07-06T05:53:55Z</time>
      </trkpt>
      <trkpt lat="45.53923" lon="6.76266">
        <ele>1321.4226877266</ele>
        <time>2019-07-06T05:53:57Z</time>
      </trkpt>
      <trkpt lat="45.53926" lon="6.76266">
        <ele>1320.1211369422</ele>
        <time>2019-07-06T05:54:00Z</time>
      </trkpt>
      <trkpt lat="45.53928" lon="6.76266">
        <ele>1319.3913280141</ele>
        <time>2019-07-06T05:54:02Z</time>
      </trkpt>
      <trkpt lat="45.5393" lon="6.76266">
        <ele>1319.061451363</ele>
        <time>2019-07-06T05:54:04Z</time>
      </trkpt>
      <trkpt lat="45.53933" lon="6.76263">
        <ele>1319.3738564966</ele>
        <time>2019-07-06T05:54:06Z</time>
      </trkpt>
      <trkpt lat="45.53933" lon="6.76259">
        <ele>1319.95248919</ele>
        <time>2019-07-06T05:54:07Z</time>
      </trkpt>
      <trkpt lat="45.53934" lon="6.76256">
        <ele>1320.4671955974</ele>
        <time>2019-07-06T05:54:08Z</time>
      </trkpt>
      <trkpt lat="45.53935" lon="6.76254">
        <ele>1320.7596510867</ele>
        <time>2019-07-06T05:54:10Z</time>
      </trkpt>
      <trkpt lat="45.53936" lon="6.76252">
        <ele>1321.3819330446</ele>
        <time>2019-07-06T05:54:12Z</time>
      </trkpt>
      <trkpt lat="45.53936" lon="6.76248">
        <ele>1321.2857115094</ele>
        <time>2019-07-06T05:54:14Z</time>
      </trkpt>
      <trkpt lat="45.53937" lon="6.76246">
        <ele>1321.6614599523</ele>
        <time>2019-07-06T05:54:15Z</time>
      </trkpt>
      <trkpt lat="45.53937" lon="6.76242">
        <ele>1322.2291570194</ele>
        <time>2019-07-06T05:54:17Z</time>
      </trkpt>
      <trkpt lat="45.53937" lon="6.76238">
        <ele>1322.4161254636</ele>
        <time>2019-07-06T05:54:19Z</time>
      </trkpt>
      <trkpt lat="45.53938" lon="6.76235">
        <ele>1322.5413506126</ele>
        <time>2019-07-06T05:54:21Z</time>
      </trkpt>
      <trkpt lat="45.53937" lon="6.76231">
        <ele>1322.7203330814</ele>
        <time>2019-07-06T05:54:22Z</time>
      </trkpt>
      <trkpt lat="45.53936" lon="6.76226">
        <ele>1322.2327599088</ele>
        <time>2019-07-06T05:54:24Z</time>
      </trkpt>
      <trkpt lat="45.53935" lon="6.76224">
        <ele>1321.8129579643</ele>
        <time>2019-07-06T05:54:25Z</time>
      </trkpt>
      <trkpt lat="45.53934" lon="6.76221">
        <ele>1320.878009552</ele>
        <time>2019-07-06T05:54:27Z</time>
      </trkpt>
      <trkpt lat="45.53935" lon="6.76217">
        <ele>1320.1854558647</ele>
        <time>2019-07-06T05:54:29Z</time>
      </trkpt>
      <trkpt lat="45.53937" lon="6.76215">
        <ele>1319.3418214999</ele>
        <time>2019-07-06T05:54:31Z</time>
      </trkpt>
      <trkpt lat="45.53936" lon="6.7621">
        <ele>1319.115681566</ele>
        <time>2019-07-06T05:54:33Z</time>
      </trkpt>
      <trkpt lat="45.53936" lon="6.76207">
        <ele>1318.9507784272</ele>
        <time>2019-07-06T05:54:35Z</time>
      </trkpt>
      <trkpt lat="45.53937" lon="6.76204">
        <ele>1318.1475616298</ele>
        <time>2019-07-06T05:54:37Z</time>
      </trkpt>
      <trkpt lat="45.53938" lon="6.76202">
        <ele>1317.4784633452</ele>
        <time>2019-07-06T05:54:40Z</time>
      </trkpt>
      <trkpt lat="45.53939" lon="6.76198">
        <ele>1317.4064660208</ele>
        <time>2019-07-06T05:54:43Z</time>
      </trkpt>
      <trkpt lat="45.5394" lon="6.76195">
        <ele>1317.0401310492</ele>
        <time>2019-07-06T05:54:45Z</time>
      </trkpt>
      <trkpt lat="45.53941" lon="6.76191">
        <ele>1316.7210481101</ele>
        <time>2019-07-06T05:54:47Z</time>
      </trkpt>
      <trkpt lat="45.53942" lon="6.76186">
        <ele>1316.0758178255</ele>
        <time>2019-07-06T05:54:49Z</time>
      </trkpt>
      <trkpt lat="45.53942" lon="6.76183">
        <ele>1315.0742196296</ele>
        <time>2019-07-06T05:54:51Z</time>
      </trkpt>
      <trkpt lat="45.53943" lon="6.7618">
        <ele>1314.8396059879</ele>
        <time>2019-07-06T05:54:52Z</time>
      </trkpt>
      <trkpt lat="45.53944" lon="6.76176">
        <ele>1314.1442260241</ele>
        <time>2019-07-06T05:54:54Z</time>
      </trkpt>
      <trkpt lat="45.53944" lon="6.76173">
        <ele>1313.9962370509</ele>
        <time>2019-07-06T05:54:55Z</time>
      </trkpt>
      <trkpt lat="45.53946" lon="6.7617">
        <ele>1314.0132803354</ele>
        <time>2019-07-06T05:54:57Z</time>
      </trkpt>
      <trkpt lat="45.53947" lon="6.76166">
        <ele>1313.6965376511</ele>
        <time>2019-07-06T05:54:59Z</time>
      </trkpt>
      <trkpt lat="45.53948" lon="6.76161">
        <ele>1313.6620028477</ele>
        <time>2019-07-06T05:55:01Z</time>
      </trkpt>
      <trkpt lat="45.53948" lon="6.76158">
        <ele>1313.4588645663</ele>
        <time>2019-07-06T05:55:02Z</time>
      </trkpt>
      <trkpt lat="45.53949" lon="6.76154">
        <ele>1312.9158867874</ele>
        <time>2019-07-06T05:55:04Z</time>
      </trkpt>
      <trkpt lat="45.5395" lon="6.7615">
        <ele>1312.4438421031</ele>
        <time>2019-07-06T05:55:06Z</time>
      </trkpt>
      <trkpt lat="45.53951" lon="6.76148">
        <ele>1312.4087872403</ele>
        <time>2019-07-06T05:55:08Z</time>
      </trkpt>
      <trkpt lat="45.53952" lon="6.76144">
        <ele>1312.550878625</ele>
        <time>2019-07-06T05:55:10Z</time>
      </trkpt>
      <trkpt lat="45.53954" lon="6.7614">
        <ele>1312.8364238661</ele>
        <time>2019-07-06T05:55:12Z</time>
      </trkpt>
      <trkpt lat="45.53956" lon="6.76137">
        <ele>1312.7014411703</ele>
        <time>2019-07-06T05:55:14Z</time>
      </trkpt>
      <trkpt lat="45.53957" lon="6.76134">
        <ele>1312.4031329579</ele>
        <time>2019-07-06T05:55:16Z</time>
      </trkpt>
      <trkpt lat="45.53958" lon="6.76129">
        <ele>1312.2555187655</ele>
        <time>2019-07-06T05:55:18Z</time>
      </trkpt>
      <trkpt lat="45.53959" lon="6.76125">
        <ele>1311.8244889473</ele>
        <time>2019-07-06T05:55:20Z</time>
      </trkpt>
      <trkpt lat="45.5396" lon="6.76122">
        <ele>1311.499645223</ele>
        <time>2019-07-06T05:55:22Z</time>
      </trkpt>
      <trkpt lat="45.53961" lon="6.7612">
        <ele>1311.5753263105</ele>
        <time>2019-07-06T05:55:23Z</time>
      </trkpt>
      <trkpt lat="45.53963" lon="6.76117">
        <ele>1311.3350152611</ele>
        <time>2019-07-06T05:55:25Z</time>
      </trkpt>
      <trkpt lat="45.53964" lon="6.76114">
        <ele>1310.7376529426</ele>
        <time>2019-07-06T05:55:27Z</time>
      </trkpt>
      <trkpt lat="45.53965" lon="6.76111">
        <ele>1310.0861696167</ele>
        <time>2019-07-06T05:55:29Z</time>
      </trkpt>
      <trkpt lat="45.53966" lon="6.76109">
        <ele>1309.9768545597</ele>
        <time>2019-07-06T05:55:30Z</time>
      </trkpt>
      <trkpt lat="45.53966" lon="6.76106">
        <ele>1310.0438202399</ele>
        <time>2019-07-06T05:55:31Z</time>
      </trkpt>
      <trkpt lat="45.53967" lon="6.76102">
        <ele>1309.514645947</ele>
        <time>2019-07-06T05:55:33Z</time>
      </trkpt>
      <trkpt lat="45.53969" lon="6.76098">
        <ele>1309.2057595495</ele>
        <time>2019-07-06T05:55:35Z</time>
      </trkpt>
      <trkpt lat="45.5397" lon="6.76094">
        <ele>1308.6250650371</ele>
        <time>2019-07-06T05:55:37Z</time>
      </trkpt>
      <trkpt lat="45.53971" lon="6.7609">
        <ele>1308.4748468035</ele>
        <time>2019-07-06T05:55:39Z</time>
      </trkpt>
      <trkpt lat="45.53972" lon="6.76086">
        <ele>1308.1464028876</ele>
        <time>2019-07-06T05:55:41Z</time>
      </trkpt>
      <trkpt lat="45.53972" lon="6.76083">
        <ele>1307.2489030392</ele>
        <time>2019-07-06T05:55:43Z</time>
      </trkpt>
      <trkpt lat="45.53974" lon="6.7608">
        <ele>1306.4379858014</ele>
        <time>2019-07-06T05:55:45Z</time>
      </trkpt>
      <trkpt lat="45.53973" lon="6.76077">
        <ele>1306.2224009156</ele>
        <time>2019-07-06T05:55:46Z</time>
      </trkpt>
      <trkpt lat="45.53974" lon="6.76073">
        <ele>1306.0949570303</ele>
        <time>2019-07-06T05:55:48Z</time>
      </trkpt>
      <trkpt lat="45.53975" lon="6.7607">
        <ele>1306.0371551656</ele>
        <time>2019-07-06T05:55:50Z</time>
      </trkpt>
      <trkpt lat="45.53976" lon="6.76067">
        <ele>1306.2660064947</ele>
        <time>2019-07-06T05:55:52Z</time>
      </trkpt>
      <trkpt lat="45.53976" lon="6.76064">
        <ele>1306.3226113958</ele>
        <time>2019-07-06T05:55:54Z</time>
      </trkpt>
      <trkpt lat="45.53978" lon="6.76061">
        <ele>1306.539119239</ele>
        <time>2019-07-06T05:55:56Z</time>
      </trkpt>
      <trkpt lat="45.53979" lon="6.76058">
        <ele>1306.8433293855</ele>
        <time>2019-07-06T05:55:57Z</time>
      </trkpt>
      <trkpt lat="45.5398" lon="6.76056">
        <ele>1307.0103755961</ele>
        <time>2019-07-06T05:55:58Z</time>
      </trkpt>
      <trkpt lat="45.5398" lon="6.76053">
        <ele>1306.927607787</ele>
        <time>2019-07-06T05:56:00Z</time>
      </trkpt>
      <trkpt lat="45.53982" lon="6.76049">
        <ele>1306.841577111</ele>
        <time>2019-07-06T05:56:02Z</time>
      </trkpt>
      <trkpt lat="45.53984" lon="6.76046">
        <ele>1306.4853825941</ele>
        <time>2019-07-06T05:56:04Z</time>
      </trkpt>
      <trkpt lat="45.53986" lon="6.76043">
        <ele>1306.4187974619</ele>
        <time>2019-07-06T05:56:06Z</time>
      </trkpt>
      <trkpt lat="45.53987" lon="6.7604">
        <ele>1306.0458004188</ele>
        <time>2019-07-06T05:56:08Z</time>
      </trkpt>
      <trkpt lat="45.53988" lon="6.76039">
        <ele>1306.2506186803</ele>
        <time>2019-07-06T05:56:10Z</time>
      </trkpt>
      <trkpt lat="45.5399" lon="6.76037">
        <ele>1306.0527065422</ele>
        <time>2019-07-06T05:56:11Z</time>
      </trkpt>
      <trkpt lat="45.53991" lon="6.76034">
        <ele>1305.7618656465</ele>
        <time>2019-07-06T05:56:12Z</time>
      </trkpt>
      <trkpt lat="45.53992" lon="6.7603">
        <ele>1304.7696719311</ele>
        <time>2019-07-06T05:56:14Z</time>
      </trkpt>
      <trkpt lat="45.53993" lon="6.76028">
        <ele>1304.3032250253</ele>
        <time>2019-07-06T05:56:15Z</time>
      </trkpt>
      <trkpt lat="45.53995" lon="6.76027">
        <ele>1304.0362504852</ele>
        <time>2019-07-06T05:56:16Z</time>
      </trkpt>
      <trkpt lat="45.53995" lon="6.76023">
        <ele>1303.4531916456</ele>
        <time>2019-07-06T05:56:18Z</time>
      </trkpt>
      <trkpt lat="45.53997" lon="6.7602">
        <ele>1303.5066951145</ele>
        <time>2019-07-06T05:56:20Z</time>
      </trkpt>
      <trkpt lat="45.53998" lon="6.76018">
        <ele>1303.5160054611</ele>
        <time>2019-07-06T05:56:22Z</time>
      </trkpt>
      <trkpt lat="45.54001" lon="6.76016">
        <ele>1303.3536159801</ele>
        <time>2019-07-06T05:56:24Z</time>
      </trkpt>
      <trkpt lat="45.54003" lon="6.76014">
        <ele>1302.9303415605</ele>
        <time>2019-07-06T05:56:26Z</time>
      </trkpt>
      <trkpt lat="45.54004" lon="6.76012">
        <ele>1302.8908333279</ele>
        <time>2019-07-06T05:56:27Z</time>
      </trkpt>
      <trkpt lat="45.54006" lon="6.7601">
        <ele>1302.7855416029</ele>
        <time>2019-07-06T05:56:29Z</time>
      </trkpt>
      <trkpt lat="45.54008" lon="6.76005">
        <ele>1302.5723242021</ele>
        <time>2019-07-06T05:56:31Z</time>
      </trkpt>
      <trkpt lat="45.54009" lon="6.76003">
        <ele>1302.4920440279</ele>
        <time>2019-07-06T05:56:33Z</time>
      </trkpt>
      <trkpt lat="45.5401" lon="6.75998">
        <ele>1302.6530443393</ele>
        <time>2019-07-06T05:56:35Z</time>
      </trkpt>
      <trkpt lat="45.5401" lon="6.75995">
        <ele>1303.2716528698</ele>
        <time>2019-07-06T05:56:37Z</time>
      </trkpt>
      <trkpt lat="45.5401" lon="6.75992">
        <ele>1304.1918694394</ele>
        <time>2019-07-06T05:56:39Z</time>
      </trkpt>
      <trkpt lat="45.54011" lon="6.75987">
        <ele>1304.5665319245</ele>
        <time>2019-07-06T05:56:42Z</time>
      </trkpt>
      <trkpt lat="45.54013" lon="6.75985">
        <ele>1303.4878985737</ele>
        <time>2019-07-06T05:56:44Z</time>
      </trkpt>
      <trkpt lat="45.54014" lon="6.75982">
        <ele>1302.8309976361</ele>
        <time>2019-07-06T05:56:45Z</time>
      </trkpt>
      <trkpt lat="45.54015" lon="6.75978">
        <ele>1301.9288153866</ele>
        <time>2019-07-06T05:56:47Z</time>
      </trkpt>
      <trkpt lat="45.54017" lon="6.75975">
        <ele>1300.6573340346</ele>
        <time>2019-07-06T05:56:49Z</time>
      </trkpt>
      <trkpt lat="45.54017" lon="6.75972">
        <ele>1300.1964121425</ele>
        <time>2019-07-06T05:56:51Z</time>
      </trkpt>
      <trkpt lat="45.54018" lon="6.75969">
        <ele>1300.0680846323</ele>
        <time>2019-07-06T05:56:53Z</time>
      </trkpt>
      <trkpt lat="45.54019" lon="6.75965">
        <ele>1299.909458016</ele>
        <time>2019-07-06T05:56:55Z</time>
      </trkpt>
      <trkpt lat="45.54021" lon="6.75962">
        <ele>1299.0915428405</ele>
        <time>2019-07-06T05:56:57Z</time>
      </trkpt>
      <trkpt lat="45.54022" lon="6.75959">
        <ele>1298.4574434566</ele>
        <time>2019-07-06T05:56:59Z</time>
      </trkpt>
    </trkseg>
  </trk>
  <trk>
    <name><![CDATA[GR5, j19, refuge de Rosuel > refuge de la Balme Tarentaise_2]]></name>
    <trkseg>
      <trkpt lat="45.57064" lon="6.71054">
        <ele>816.75895771625</ele>
        <time>2019-07-06T07:31:28Z</time>
      </trkpt>
      <trkpt lat="45.57065" lon="6.71051">
        <ele>817.39455067488</ele>
        <time>2019-07-06T07:31:30Z</time>
      </trkpt>
      <trkpt lat="45.57067" lon="6.71049">
        <ele>817.97007630827</ele>
        <time>2019-07-06T07:31:36Z</time>
      </trkpt>
      <trkpt lat="45.57067" lon="6.71046">
        <ele>818.96395189986</ele>
        <time>2019-07-06T07:31:38Z</time>
      </trkpt>
      <trkpt lat="45.57069" lon="6.71044">
        <ele>819.91812546794</ele>
        <time>2019-07-06T07:31:45Z</time>
      </trkpt>
      <trkpt lat="45.5707" lon="6.71043">
        <ele>820.45594924195</ele>
        <time>2019-07-06T07:31:48Z</time>
      </trkpt>
      <trkpt lat="45.57072" lon="6.71042">
        <ele>820.76333125522</ele>
        <time>2019-07-06T07:31:54Z</time>
      </trkpt>
      <trkpt lat="45.57073" lon="6.71045">
        <ele>820.05162181233</ele>
        <time>2019-07-06T07:31:58Z</time>
      </trkpt>
      <trkpt lat="45.57075" lon="6.71045">
        <ele>819.73048085588</ele>
        <time>2019-07-06T07:32:00Z</time>
      </trkpt>
      <trkpt lat="45.57077" lon="6.71044">
        <ele>819.9867555303</ele>
        <time>2019-07-06T07:32:02Z</time>
      </trkpt>
      <trkpt lat="45.57078" lon="6.71042">
        <ele>820.49526065986</ele>
        <time>2019-07-06T07:32:04Z</time>
      </trkpt>
      <trkpt lat="45.5708" lon="6.71041">
        <ele>820.99647693867</ele>
        <time>2019-07-06T07:32:07Z</time>
      </trkpt>
      <trkpt lat="45.57082" lon="6.71042">
        <ele>820.99333761027</ele>
        <time>2019-07-06T07:32:09Z</time>
      </trkpt>
      <trkpt lat="45.57084" lon="6.71041">
        <ele>820.9582704249</ele>
        <time>2019-07-06T07:32:14Z</time>
      </trkpt>
      <trkpt lat="45.57085" lon="6.71038">
        <ele>821.5585481965</ele>
        <time>2019-07-06T07:32:16Z</time>
      </trkpt>
      <trkpt lat="45.57086" lon="6.71034">
        <ele>822.65658186991</ele>
        <time>2019-07-06T07:32:20Z</time>
      </trkpt>
      <trkpt lat="45.57088" lon="6.71034">
        <ele>823.60063417052</ele>
        <time>2019-07-06T07:32:23Z</time>
      </trkpt>
      <trkpt lat="45.57089" lon="6.71033">
        <ele>823.60837271745</ele>
        <time>2019-07-06T07:32:26Z</time>
      </trkpt>
      <trkpt lat="45.57091" lon="6.71033">
        <ele>823.81965188056</ele>
        <time>2019-07-06T07:32:28Z</time>
      </trkpt>
      <trkpt lat="45.57092" lon="6.71031">
        <ele>824.1415162591</ele>
        <time>2019-07-06T07:32:30Z</time>
      </trkpt>
      <trkpt lat="45.57093" lon="6.71029">
        <ele>824.93795328668</ele>
        <time>2019-07-06T07:32:32Z</time>
      </trkpt>
      <trkpt lat="45.57094" lon="6.71026">
        <ele>825.46044036203</ele>
        <time>2019-07-06T07:32:34Z</time>
      </trkpt>
      <trkpt lat="45.57097" lon="6.71023">
        <ele>825.48665461267</ele>
        <time>2019-07-06T07:32:36Z</time>
      </trkpt>
      <trkpt lat="45.57098" lon="6.71021">
        <ele>825.48689292404</ele>
        <time>2019-07-06T07:32:37Z</time>
      </trkpt>
      <trkpt lat="45.571" lon="6.71017">
        <ele>825.48691913829</ele>
        <time>2019-07-06T07:32:39Z</time>
      </trkpt>
      <trkpt lat="45.57103" lon="6.71013">
        <ele>825.48691940043</ele>
        <time>2019-07-06T07:32:41Z</time>
      </trkpt>
      <trkpt lat="45.57104" lon="6.7101">
        <ele>825.48691940305</ele>
        <time>2019-07-06T07:32:43Z</time>
      </trkpt>
      <trkpt lat="45.57106" lon="6.71007">
        <ele>825.48691940308</ele>
        <time>2019-07-06T07:32:45Z</time>
      </trkpt>
      <trkpt lat="45.57106" lon="6.71003">
        <ele>825.48691940308</ele>
        <time>2019-07-06T07:32:47Z</time>
      </trkpt>
      <trkpt lat="45.57106" lon="6.71">
        <ele>825.48691940308</ele>
        <time>2019-07-06T07:32:49Z</time>
      </trkpt>
      <trkpt lat="45.57106" lon="6.70998">
        <ele>825.81788253784</ele>
        <time>2019-07-06T07:32:51Z</time>
      </trkpt>
      <trkpt lat="45.57106" lon="6.70995">
        <ele>826.56595288086</ele>
        <time>2019-07-06T07:32:54Z</time>
      </trkpt>
      <trkpt lat="45.57105" lon="6.70991">
        <ele>827.29758888824</ele>
        <time>2019-07-06T07:32:56Z</time>
      </trkpt>
      <trkpt lat="45.57105" lon="6.70988">
        <ele>828.14596084649</ele>
        <time>2019-07-06T07:32:59Z</time>
      </trkpt>
      <trkpt lat="45.57104" lon="6.70985">
        <ele>829.05712248841</ele>
        <time>2019-07-06T07:33:01Z</time>
      </trkpt>
      <trkpt lat="45.57104" lon="6.70982">
        <ele>829.59942807455</ele>
        <time>2019-07-06T07:33:03Z</time>
      </trkpt>
      <trkpt lat="45.57103" lon="6.70977">
        <ele>830.36858220952</ele>
        <time>2019-07-06T07:33:05Z</time>
      </trkpt>
      <trkpt lat="45.57103" lon="6.70975">
        <ele>831.09724869772</ele>
        <time>2019-07-06T07:33:08Z</time>
      </trkpt>
      <trkpt lat="45.57103" lon="6.70972">
        <ele>831.35467840676</ele>
        <time>2019-07-06T07:33:09Z</time>
      </trkpt>
      <trkpt lat="45.57103" lon="6.70969">
        <ele>832.19494025483</ele>
        <time>2019-07-06T07:33:11Z</time>
      </trkpt>
      <trkpt lat="45.57103" lon="6.70966">
        <ele>832.57097837136</ele>
        <time>2019-07-06T07:33:13Z</time>
      </trkpt>
      <trkpt lat="45.57102" lon="6.70963">
        <ele>832.66902891366</ele>
        <time>2019-07-06T07:33:15Z</time>
      </trkpt>
      <trkpt lat="45.57101" lon="6.70959">
        <ele>832.87809596693</ele>
        <time>2019-07-06T07:33:17Z</time>
      </trkpt>
      <trkpt lat="45.57102" lon="6.70956">
        <ele>833.09282172743</ele>
        <time>2019-07-06T07:33:18Z</time>
      </trkpt>
      <trkpt lat="45.57101" lon="6.70952">
        <ele>833.66404959331</ele>
        <time>2019-07-06T07:33:20Z</time>
      </trkpt>
      <trkpt lat="45.57102" lon="6.7095">
        <ele>833.79544052757</ele>
        <time>2019-07-06T07:33:21Z</time>
      </trkpt>
      <trkpt lat="45.57104" lon="6.70947">
        <ele>834.37195957038</ele>
        <time>2019-07-06T07:33:23Z</time>
      </trkpt>
      <trkpt lat="45.57104" lon="6.70944">
        <ele>834.65416274909</ele>
        <time>2019-07-06T07:33:25Z</time>
      </trkpt>
      <trkpt lat="45.57104" lon="6.7094">
        <ele>834.74769339904</ele>
        <time>2019-07-06T07:33:27Z</time>
      </trkpt>
      <trkpt lat="45.57103" lon="6.70937">
        <ele>834.74862870554</ele>
        <time>2019-07-06T07:33:29Z</time>
      </trkpt>
      <trkpt lat="45.57103" lon="6.70934">
        <ele>834.7486380586</ele>
        <time>2019-07-06T07:33:31Z</time>
      </trkpt>
      <trkpt lat="45.57102" lon="6.70931">
        <ele>834.74863815213</ele>
        <time>2019-07-06T07:33:33Z</time>
      </trkpt>
      <trkpt lat="45.57101" lon="6.70927">
        <ele>834.74863815308</ele>
        <time>2019-07-06T07:33:36Z</time>
      </trkpt>
      <trkpt lat="45.571" lon="6.70924">
        <ele>834.74863815308</ele>
        <time>2019-07-06T07:33:38Z</time>
      </trkpt>
      <trkpt lat="45.57099" lon="6.70921">
        <ele>834.74863815308</ele>
        <time>2019-07-06T07:33:40Z</time>
      </trkpt>
      <trkpt lat="45.571" lon="6.70918">
        <ele>834.74863815308</ele>
        <time>2019-07-06T07:33:42Z</time>
      </trkpt>
      <trkpt lat="45.57098" lon="6.70913">
        <ele>834.89656906128</ele>
        <time>2019-07-06T07:33:45Z</time>
      </trkpt>
      <trkpt lat="45.57097" lon="6.7091">
        <ele>835.6562093811</ele>
        <time>2019-07-06T07:33:47Z</time>
      </trkpt>
      <trkpt lat="45.57096" lon="6.70907">
        <ele>836.05056847961</ele>
        <time>2019-07-06T07:33:49Z</time>
      </trkpt>
      <trkpt lat="45.57096" lon="6.70904">
        <ele>836.39116612333</ele>
        <time>2019-07-06T07:33:51Z</time>
      </trkpt>
      <trkpt lat="45.57096" lon="6.70901">
        <ele>836.86435298356</ele>
        <time>2019-07-06T07:33:53Z</time>
      </trkpt>
      <trkpt lat="45.57097" lon="6.70898">
        <ele>837.58629439525</ele>
        <time>2019-07-06T07:33:56Z</time>
      </trkpt>
      <trkpt lat="45.57098" lon="6.70895">
        <ele>838.2558120188</ele>
        <time>2019-07-06T07:34:00Z</time>
      </trkpt>
      <trkpt lat="45.57097" lon="6.70892">
        <ele>838.63644487708</ele>
        <time>2019-07-06T07:34:02Z</time>
      </trkpt>
      <trkpt lat="45.57096" lon="6.70889">
        <ele>838.98906392367</ele>
        <time>2019-07-06T07:34:05Z</time>
      </trkpt>
      <trkpt lat="45.57097" lon="6.70886">
        <ele>839.60962387914</ele>
        <time>2019-07-06T07:34:08Z</time>
      </trkpt>
      <trkpt lat="45.57097" lon="6.70883">
        <ele>840.23566927118</ele>
        <time>2019-07-06T07:34:12Z</time>
      </trkpt>
      <trkpt lat="45.57096" lon="6.7088">
        <ele>840.3167768098</ele>
        <time>2019-07-06T07:34:16Z</time>
      </trkpt>
      <trkpt lat="45.57096" lon="6.70877">
        <ele>840.50808513146</ele>
        <time>2019-07-06T07:34:21Z</time>
      </trkpt>
      <trkpt lat="45.57097" lon="6.70874">
        <ele>841.45743844963</ele>
        <time>2019-07-06T07:34:27Z</time>
      </trkpt>
      <trkpt lat="45.57097" lon="6.7087">
        <ele>842.04367537479</ele>
        <time>2019-07-06T07:34:29Z</time>
      </trkpt>
      <trkpt lat="45.57097" lon="6.70868">
        <ele>842.44901711416</ele>
        <time>2019-07-06T07:34:31Z</time>
      </trkpt>
      <trkpt lat="45.57096" lon="6.70865">
        <ele>842.37005783135</ele>
        <time>2019-07-06T07:34:34Z</time>
      </trkpt>
      <trkpt lat="45.57094" lon="6.70863">
        <ele>841.96768150879</ele>
        <time>2019-07-06T07:34:37Z</time>
      </trkpt>
      <trkpt lat="45.57095" lon="6.70859">
        <ele>842.15207356606</ele>
        <time>2019-07-06T07:34:40Z</time>
      </trkpt>
      <trkpt lat="45.57094" lon="6.70856">
        <ele>842.85328285877</ele>
        <time>2019-07-06T07:34:42Z</time>
      </trkpt>
      <trkpt lat="45.57095" lon="6.70854">
        <ele>843.7487422555</ele>
        <time>2019-07-06T07:34:52Z</time>
      </trkpt>
      <trkpt lat="45.57096" lon="6.70852">
        <ele>844.56317176548</ele>
        <time>2019-07-06T07:34:55Z</time>
      </trkpt>
      <trkpt lat="45.57095" lon="6.70848">
        <ele>845.12343876264</ele>
        <time>2019-07-06T07:34:57Z</time>
      </trkpt>
      <trkpt lat="45.57095" lon="6.70844">
        <ele>845.66945923909</ele>
        <time>2019-07-06T07:35:01Z</time>
      </trkpt>
      <trkpt lat="45.57096" lon="6.70842">
        <ele>846.42373585404</ele>
        <time>2019-07-06T07:35:04Z</time>
      </trkpt>
      <trkpt lat="45.57098" lon="6.7084">
        <ele>847.53935822022</ele>
        <time>2019-07-06T07:35:08Z</time>
      </trkpt>
      <trkpt lat="45.57098" lon="6.70837">
        <ele>848.11615610703</ele>
        <time>2019-07-06T07:35:11Z</time>
      </trkpt>
      <trkpt lat="45.57096" lon="6.70834">
        <ele>848.33528857675</ele>
        <time>2019-07-06T07:35:15Z</time>
      </trkpt>
      <trkpt lat="45.57096" lon="6.70834">
        <ele>848.24763522669</ele>
        <time>2019-07-06T07:35:16Z</time>
      </trkpt>
      <trkpt lat="45.57096" lon="6.70831">
        <ele>847.97314947925</ele>
        <time>2019-07-06T07:35:19Z</time>
      </trkpt>
      <trkpt lat="45.57096" lon="6.70828">
        <ele>848.18310281002</ele>
        <time>2019-07-06T07:35:23Z</time>
      </trkpt>
      <trkpt lat="45.57095" lon="6.70825">
        <ele>848.11865379449</ele>
        <time>2019-07-06T07:35:26Z</time>
      </trkpt>
      <trkpt lat="45.57096" lon="6.70821">
        <ele>848.20996373512</ele>
        <time>2019-07-06T07:35:29Z</time>
      </trkpt>
      <trkpt lat="45.57096" lon="6.70819">
        <ele>848.27987352509</ele>
        <time>2019-07-06T07:35:36Z</time>
      </trkpt>
      <trkpt lat="45.57097" lon="6.70817">
        <ele>848.70645065295</ele>
        <time>2019-07-06T07:35:43Z</time>
      </trkpt>
      <trkpt lat="45.57099" lon="6.70814">
        <ele>848.92590618132</ele>
        <time>2019-07-06T07:35:49Z</time>
      </trkpt>
      <trkpt lat="45.571" lon="6.70812">
        <ele>849.40274054527</ele>
        <time>2019-07-06T07:35:51Z</time>
      </trkpt>
      <trkpt lat="45.571" lon="6.70811">
        <ele>849.43384209347</ele>
        <time>2019-07-06T07:35:52Z</time>
      </trkpt>
      <trkpt lat="45.57101" lon="6.70809">
        <ele>849.93081945077</ele>
        <time>2019-07-06T07:35:55Z</time>
      </trkpt>
      <trkpt lat="45.57103" lon="6.70807">
        <ele>850.42401964017</ele>
        <time>2019-07-06T07:36:02Z</time>
      </trkpt>
      <trkpt lat="45.57104" lon="6.70805">
        <ele>850.82270825213</ele>
        <time>2019-07-06T07:36:04Z</time>
      </trkpt>
      <trkpt lat="45.57105" lon="6.70802">
        <ele>851.09215486973</ele>
        <time>2019-07-06T07:36:09Z</time>
      </trkpt>
      <trkpt lat="45.57107" lon="6.708">
        <ele>851.69726829601</ele>
        <time>2019-07-06T07:36:14Z</time>
      </trkpt>
      <trkpt lat="45.57109" lon="6.708">
        <ele>852.43578463462</ele>
        <time>2019-07-06T07:36:19Z</time>
      </trkpt>
      <trkpt lat="45.57111" lon="6.70797">
        <ele>852.92891142016</ele>
        <time>2019-07-06T07:36:22Z</time>
      </trkpt>
      <trkpt lat="45.57111" lon="6.70794">
        <ele>853.1688103369</ele>
        <time>2019-07-06T07:36:26Z</time>
      </trkpt>
      <trkpt lat="45.57112" lon="6.70791">
        <ele>853.56068376288</ele>
        <time>2019-07-06T07:36:31Z</time>
      </trkpt>
      <trkpt lat="45.57114" lon="6.7079">
        <ele>854.65950024751</ele>
        <time>2019-07-06T07:36:34Z</time>
      </trkpt>
      <trkpt lat="45.57115" lon="6.70789">
        <ele>851.29318848751</ele>
        <time>2019-07-06T07:36:41Z</time>
      </trkpt>
      <trkpt lat="45.57116" lon="6.70791">
        <ele>856.33983017046</ele>
        <time>2019-07-06T07:36:47Z</time>
      </trkpt>
      <trkpt lat="45.57118" lon="6.7079">
        <ele>853.65602479173</ele>
        <time>2019-07-06T07:36:52Z</time>
      </trkpt>
      <trkpt lat="45.5712" lon="6.70789">
        <ele>855.63785583611</ele>
        <time>2019-07-06T07:36:55Z</time>
      </trkpt>
      <trkpt lat="45.57122" lon="6.70788">
        <ele>854.99154172548</ele>
        <time>2019-07-06T07:37:02Z</time>
      </trkpt>
      <trkpt lat="45.57124" lon="6.70785">
        <ele>861.12809687696</ele>
        <time>2019-07-06T07:37:05Z</time>
      </trkpt>
      <trkpt lat="45.57125" lon="6.70784">
        <ele>859.52583112209</ele>
        <time>2019-07-06T07:37:08Z</time>
      </trkpt>
      <trkpt lat="45.57127" lon="6.70783">
        <ele>857.8103735837</ele>
        <time>2019-07-06T07:37:11Z</time>
      </trkpt>
      <trkpt lat="45.57129" lon="6.7078">
        <ele>856.23745489392</ele>
        <time>2019-07-06T07:37:16Z</time>
      </trkpt>
      <trkpt lat="45.57131" lon="6.70778">
        <ele>864.91613252731</ele>
        <time>2019-07-06T07:37:19Z</time>
      </trkpt>
      <trkpt lat="45.57132" lon="6.70776">
        <ele>861.38459581885</ele>
        <time>2019-07-06T07:37:21Z</time>
      </trkpt>
      <trkpt lat="45.57135" lon="6.70775">
        <ele>867.87602800317</ele>
        <time>2019-07-06T07:37:23Z</time>
      </trkpt>
      <trkpt lat="45.57137" lon="6.70773">
        <ele>869.70818658771</ele>
        <time>2019-07-06T07:37:25Z</time>
      </trkpt>
      <trkpt lat="45.57139" lon="6.70771">
        <ele>871.4221490427</ele>
        <time>2019-07-06T07:37:27Z</time>
      </trkpt>
      <trkpt lat="45.57139" lon="6.7077">
        <ele>871.66764939829</ele>
        <time>2019-07-06T07:37:28Z</time>
      </trkpt>
      <trkpt lat="45.57138" lon="6.70767">
        <ele>871.37295277725</ele>
        <time>2019-07-06T07:37:30Z</time>
      </trkpt>
      <trkpt lat="45.5714" lon="6.70763">
        <ele>871.51770600635</ele>
        <time>2019-07-06T07:37:32Z</time>
      </trkpt>
      <trkpt lat="45.5714" lon="6.7076">
        <ele>872.12729074567</ele>
        <time>2019-07-06T07:37:34Z</time>
      </trkpt>
      <trkpt lat="45.57139" lon="6.70757">
        <ele>872.011855917</ele>
        <time>2019-07-06T07:37:37Z</time>
      </trkpt>
      <trkpt lat="45.57139" lon="6.70754">
        <ele>871.72041281033</ele>
        <time>2019-07-06T07:37:38Z</time>
      </trkpt>
      <trkpt lat="45.57138" lon="6.70752">
        <ele>871.86655231078</ele>
        <time>2019-07-06T07:37:40Z</time>
      </trkpt>
      <trkpt lat="45.57136" lon="6.70748">
        <ele>870.48105520053</ele>
        <time>2019-07-06T07:37:43Z</time>
      </trkpt>
      <trkpt lat="45.57135" lon="6.70746">
        <ele>870.04501218204</ele>
        <time>2019-07-06T07:37:44Z</time>
      </trkpt>
      <trkpt lat="45.57134" lon="6.70743">
        <ele>868.8282088191</ele>
        <time>2019-07-06T07:37:47Z</time>
      </trkpt>
      <trkpt lat="45.57134" lon="6.70739">
        <ele>869.18781032458</ele>
        <time>2019-07-06T07:37:49Z</time>
      </trkpt>
      <trkpt lat="45.57134" lon="6.70736">
        <ele>869.43818212261</ele>
        <time>2019-07-06T07:37:52Z</time>
      </trkpt>
      <trkpt lat="45.57135" lon="6.70733">
        <ele>869.62544726492</ele>
        <time>2019-07-06T07:37:55Z</time>
      </trkpt>
      <trkpt lat="45.57137" lon="6.70731">
        <ele>870.37164940826</ele>
        <time>2019-07-06T07:37:57Z</time>
      </trkpt>
      <trkpt lat="45.57137" lon="6.70728">
        <ele>871.08403269434</ele>
        <time>2019-07-06T07:37:59Z</time>
      </trkpt>
      <trkpt lat="45.57137" lon="6.70725">
        <ele>871.01488394419</ele>
        <time>2019-07-06T07:38:01Z</time>
      </trkpt>
      <trkpt lat="45.57137" lon="6.70722">
        <ele>871.15624567935</ele>
        <time>2019-07-06T07:38:03Z</time>
      </trkpt>
      <trkpt lat="45.57138" lon="6.70719">
        <ele>871.3552374217</ele>
        <time>2019-07-06T07:38:05Z</time>
      </trkpt>
      <trkpt lat="45.57139" lon="6.70717">
        <ele>871.5491529983</ele>
        <time>2019-07-06T07:38:07Z</time>
      </trkpt>
      <trkpt lat="45.57141" lon="6.70714">
        <ele>872.099326407</ele>
        <time>2019-07-06T07:38:09Z</time>
      </trkpt>
      <trkpt lat="45.57142" lon="6.70711">
        <ele>872.57035182272</ele>
        <time>2019-07-06T07:38:11Z</time>
      </trkpt>
      <trkpt lat="45.57144" lon="6.70709">
        <ele>873.07005109055</ele>
        <time>2019-07-06T07:38:13Z</time>
      </trkpt>
      <trkpt lat="45.57146" lon="6.70707">
        <ele>873.67266256894</ele>
        <time>2019-07-06T07:38:16Z</time>
      </trkpt>
      <trkpt lat="45.57148" lon="6.70704">
        <ele>874.44447685034</ele>
        <time>2019-07-06T07:38:19Z</time>
      </trkpt>
      <trkpt lat="45.57149" lon="6.70702">
        <ele>874.85738242872</ele>
        <time>2019-07-06T07:38:21Z</time>
      </trkpt>
      <trkpt lat="45.5715" lon="6.70699">
        <ele>875.29132410657</ele>
        <time>2019-07-06T07:38:23Z</time>
      </trkpt>
      <trkpt lat="45.57152" lon="6.70696">
        <ele>875.82314769694</ele>
        <time>2019-07-06T07:38:26Z</time>
      </trkpt>
      <trkpt lat="45.57153" lon="6.70695">
        <ele>876.32012848777</ele>
        <time>2019-07-06T07:38:28Z</time>
      </trkpt>
      <trkpt lat="45.57155" lon="6.70693">
        <ele>876.8211200242</ele>
        <time>2019-07-06T07:38:30Z</time>
      </trkpt>
      <trkpt lat="45.57156" lon="6.7069">
        <ele>877.24396167254</ele>
        <time>2019-07-06T07:38:33Z</time>
      </trkpt>
      <trkpt lat="45.57158" lon="6.70687">
        <ele>877.89907408939</ele>
        <time>2019-07-06T07:38:36Z</time>
      </trkpt>
      <trkpt lat="45.5716" lon="6.70685">
        <ele>878.5669815017</ele>
        <time>2019-07-06T07:38:38Z</time>
      </trkpt>
      <trkpt lat="45.57162" lon="6.70683">
        <ele>879.13828643031</ele>
        <time>2019-07-06T07:38:40Z</time>
      </trkpt>
      <trkpt lat="45.57163" lon="6.70679">
        <ele>879.59532443221</ele>
        <time>2019-07-06T07:38:43Z</time>
      </trkpt>
      <trkpt lat="45.57163" lon="6.70675">
        <ele>879.75073154346</ele>
        <time>2019-07-06T07:38:46Z</time>
      </trkpt>
      <trkpt lat="45.57164" lon="6.70672">
        <ele>880.05556765632</ele>
        <time>2019-07-06T07:38:48Z</time>
      </trkpt>
      <trkpt lat="45.57165" lon="6.70669">
        <ele>880.40527052203</ele>
        <time>2019-07-06T07:38:51Z</time>
      </trkpt>
      <trkpt lat="45.57166" lon="6.70666">
        <ele>880.79279175704</ele>
        <time>2019-07-06T07:38:53Z</time>
      </trkpt>
      <trkpt lat="45.57167" lon="6.70663">
        <ele>881.16334313432</ele>
        <time>2019-07-06T07:38:56Z</time>
      </trkpt>
      <trkpt lat="45.57165" lon="6.70659">
        <ele>880.87413469019</ele>
        <time>2019-07-06T07:38:58Z</time>
      </trkpt>
      <trkpt lat="45.57163" lon="6.70656">
        <ele>880.28090976778</ele>
        <time>2019-07-06T07:39:01Z</time>
      </trkpt>
      <trkpt lat="45.57162" lon="6.70652">
        <ele>879.74564421883</ele>
        <time>2019-07-06T07:39:03Z</time>
      </trkpt>
      <trkpt lat="45.5716" lon="6.7065">
        <ele>879.27776165612</ele>
        <time>2019-07-06T07:39:05Z</time>
      </trkpt>
      <trkpt lat="45.57159" lon="6.70647">
        <ele>878.72997919279</ele>
        <time>2019-07-06T07:39:07Z</time>
      </trkpt>
      <trkpt lat="45.57159" lon="6.70644">
        <ele>878.59190188086</ele>
        <time>2019-07-06T07:39:09Z</time>
      </trkpt>
      <trkpt lat="45.57159" lon="6.70641">
        <ele>878.41482774836</ele>
        <time>2019-07-06T07:39:11Z</time>
      </trkpt>
      <trkpt lat="45.57156" lon="6.70639">
        <ele>877.90142919942</ele>
        <time>2019-07-06T07:39:13Z</time>
      </trkpt>
      <trkpt lat="45.57154" lon="6.70636">
        <ele>877.58862858795</ele>
        <time>2019-07-06T07:39:15Z</time>
      </trkpt>
      <trkpt lat="45.57152" lon="6.70634">
        <ele>877.41842821219</ele>
        <time>2019-07-06T07:39:16Z</time>
      </trkpt>
      <trkpt lat="45.57151" lon="6.7063">
        <ele>877.25774633199</ele>
        <time>2019-07-06T07:39:18Z</time>
      </trkpt>
      <trkpt lat="45.57149" lon="6.70626">
        <ele>877.26314381853</ele>
        <time>2019-07-06T07:39:22Z</time>
      </trkpt>
      <trkpt lat="45.57149" lon="6.70623">
        <ele>877.23566553395</ele>
        <time>2019-07-06T07:39:24Z</time>
      </trkpt>
      <trkpt lat="45.57147" lon="6.70619">
        <ele>876.9552119181</ele>
        <time>2019-07-06T07:39:26Z</time>
      </trkpt>
      <trkpt lat="45.57148" lon="6.70616">
        <ele>876.87762893955</ele>
        <time>2019-07-06T07:39:28Z</time>
      </trkpt>
      <trkpt lat="45.57147" lon="6.70613">
        <ele>876.87117867129</ele>
        <time>2019-07-06T07:39:30Z</time>
      </trkpt>
      <trkpt lat="45.57146" lon="6.70611">
        <ele>876.5819997683</ele>
        <time>2019-07-06T07:39:33Z</time>
      </trkpt>
      <trkpt lat="45.57145" lon="6.70608">
        <ele>875.91806825541</ele>
        <time>2019-07-06T07:39:36Z</time>
      </trkpt>
      <trkpt lat="45.57145" lon="6.70604">
        <ele>875.50914959277</ele>
        <time>2019-07-06T07:39:38Z</time>
      </trkpt>
      <trkpt lat="45.57146" lon="6.70602">
        <ele>875.16253965419</ele>
        <time>2019-07-06T07:39:40Z</time>
      </trkpt>
      <trkpt lat="45.57146" lon="6.70598">
        <ele>875.53094188612</ele>
        <time>2019-07-06T07:39:43Z</time>
      </trkpt>
      <trkpt lat="45.57147" lon="6.70595">
        <ele>875.80214964382</ele>
        <time>2019-07-06T07:39:46Z</time>
      </trkpt>
      <trkpt lat="45.57148" lon="6.70593">
        <ele>875.60574126115</ele>
        <time>2019-07-06T07:39:48Z</time>
      </trkpt>
      <trkpt lat="45.5715" lon="6.7059">
        <ele>876.01174525618</ele>
        <time>2019-07-06T07:39:51Z</time>
      </trkpt>
      <trkpt lat="45.57151" lon="6.70588">
        <ele>876.30975550823</ele>
        <time>2019-07-06T07:39:54Z</time>
      </trkpt>
      <trkpt lat="45.57154" lon="6.70589">
        <ele>877.20605962936</ele>
        <time>2019-07-06T07:39:56Z</time>
      </trkpt>
      <trkpt lat="45.57156" lon="6.70591">
        <ele>878.29880746061</ele>
        <time>2019-07-06T07:39:58Z</time>
      </trkpt>
      <trkpt lat="45.57158" lon="6.70593">
        <ele>879.05093291586</ele>
        <time>2019-07-06T07:39:59Z</time>
      </trkpt>
      <trkpt lat="45.5716" lon="6.70595">
        <ele>877.75219506541</ele>
        <time>2019-07-06T07:40:01Z</time>
      </trkpt>
      <trkpt lat="45.57161" lon="6.70597">
        <ele>877.03834121862</ele>
        <time>2019-07-06T07:40:03Z</time>
      </trkpt>
      <trkpt lat="45.57163" lon="6.706">
        <ele>876.57003486839</ele>
        <time>2019-07-06T07:40:06Z</time>
      </trkpt>
      <trkpt lat="45.57164" lon="6.70604">
        <ele>876.20678976603</ele>
        <time>2019-07-06T07:40:09Z</time>
      </trkpt>
      <trkpt lat="45.57166" lon="6.70607">
        <ele>875.90681515756</ele>
        <time>2019-07-06T07:40:11Z</time>
      </trkpt>
      <trkpt lat="45.57167" lon="6.7061">
        <ele>889.28364582644</ele>
        <time>2019-07-06T07:40:13Z</time>
      </trkpt>
      <trkpt lat="45.57169" lon="6.70613">
        <ele>890.56656757551</ele>
        <time>2019-07-06T07:40:15Z</time>
      </trkpt>
      <trkpt lat="45.5717" lon="6.70615">
        <ele>890.34106488382</ele>
        <time>2019-07-06T07:40:17Z</time>
      </trkpt>
      <trkpt lat="45.57171" lon="6.70617">
        <ele>890.21892155124</ele>
        <time>2019-07-06T07:40:19Z</time>
      </trkpt>
      <trkpt lat="45.57172" lon="6.70619">
        <ele>890.22868644604</ele>
        <time>2019-07-06T07:40:21Z</time>
      </trkpt>
      <trkpt lat="45.57173" lon="6.70622">
        <ele>889.63277030104</ele>
        <time>2019-07-06T07:40:23Z</time>
      </trkpt>
      <trkpt lat="45.57174" lon="6.70624">
        <ele>889.5439028144</ele>
        <time>2019-07-06T07:40:25Z</time>
      </trkpt>
      <trkpt lat="45.57176" lon="6.70626">
        <ele>889.61961969733</ele>
        <time>2019-07-06T07:40:26Z</time>
      </trkpt>
      <trkpt lat="45.57177" lon="6.70629">
        <ele>889.97480341285</ele>
        <time>2019-07-06T07:40:28Z</time>
      </trkpt>
      <trkpt lat="45.57177" lon="6.70632">
        <ele>889.93467360938</ele>
        <time>2019-07-06T07:40:30Z</time>
      </trkpt>
      <trkpt lat="45.57178" lon="6.70636">
        <ele>889.09600893558</ele>
        <time>2019-07-06T07:40:34Z</time>
      </trkpt>
      <trkpt lat="45.57179" lon="6.70638">
        <ele>889.31625413958</ele>
        <time>2019-07-06T07:40:37Z</time>
      </trkpt>
      <trkpt lat="45.5718" lon="6.70641">
        <ele>889.48610658693</ele>
        <time>2019-07-06T07:40:40Z</time>
      </trkpt>
      <trkpt lat="45.57181" lon="6.70644">
        <ele>889.57858668995</ele>
        <time>2019-07-06T07:40:42Z</time>
      </trkpt>
      <trkpt lat="45.57182" lon="6.70647">
        <ele>889.7258658611</ele>
        <time>2019-07-06T07:40:44Z</time>
      </trkpt>
      <trkpt lat="45.57183" lon="6.7065">
        <ele>889.93507534172</ele>
        <time>2019-07-06T07:40:47Z</time>
      </trkpt>
      <trkpt lat="45.57184" lon="6.70653">
        <ele>889.63411336481</ele>
        <time>2019-07-06T07:40:49Z</time>
      </trkpt>
      <trkpt lat="45.57185" lon="6.70656">
        <ele>889.46412803703</ele>
        <time>2019-07-06T07:40:51Z</time>
      </trkpt>
      <trkpt lat="45.57185" lon="6.70659">
        <ele>889.07608846207</ele>
        <time>2019-07-06T07:40:53Z</time>
      </trkpt>
      <trkpt lat="45.57186" lon="6.70662">
        <ele>888.66007741979</ele>
        <time>2019-07-06T07:40:56Z</time>
      </trkpt>
      <trkpt lat="45.57187" lon="6.70664">
        <ele>888.52382371274</ele>
        <time>2019-07-06T07:40:58Z</time>
      </trkpt>
      <trkpt lat="45.57188" lon="6.70667">
        <ele>888.22085350965</ele>
        <time>2019-07-06T07:41:00Z</time>
      </trkpt>
      <trkpt lat="45.57189" lon="6.70671">
        <ele>888.35056062402</ele>
        <time>2019-07-06T07:41:02Z</time>
      </trkpt>
      <trkpt lat="45.5719" lon="6.70674">
        <ele>888.78294094225</ele>
        <time>2019-07-06T07:41:05Z</time>
      </trkpt>
      <trkpt lat="45.57191" lon="6.70676">
        <ele>888.96406052667</ele>
        <time>2019-07-06T07:41:07Z</time>
      </trkpt>
      <trkpt lat="45.57193" lon="6.70678">
        <ele>889.47546156627</ele>
        <time>2019-07-06T07:41:09Z</time>
      </trkpt>
      <trkpt lat="45.57195" lon="6.70679">
        <ele>890.09143739307</ele>
        <time>2019-07-06T07:41:11Z</time>
      </trkpt>
      <trkpt lat="45.57196" lon="6.70683">
        <ele>890.78233103805</ele>
        <time>2019-07-06T07:41:13Z</time>
      </trkpt>
      <trkpt lat="45.57196" lon="6.70685">
        <ele>891.19232835341</ele>
        <time>2019-07-06T07:41:15Z</time>
      </trkpt>
      <trkpt lat="45.57198" lon="6.70684">
        <ele>891.8077757645</ele>
        <time>2019-07-06T07:41:23Z</time>
      </trkpt>
      <trkpt lat="45.57198" lon="6.70681">
        <ele>892.0354388068</ele>
        <time>2019-07-06T07:41:26Z</time>
      </trkpt>
      <trkpt lat="45.57197" lon="6.70677">
        <ele>891.78036175043</ele>
        <time>2019-07-06T07:41:28Z</time>
      </trkpt>
      <trkpt lat="45.57196" lon="6.70674">
        <ele>891.53548971203</ele>
        <time>2019-07-06T07:41:29Z</time>
      </trkpt>
      <trkpt lat="45.57196" lon="6.7067">
        <ele>891.44877717648</ele>
        <time>2019-07-06T07:41:31Z</time>
      </trkpt>
      <trkpt lat="45.57196" lon="6.70667">
        <ele>891.31188832261</ele>
        <time>2019-07-06T07:41:33Z</time>
      </trkpt>
      <trkpt lat="45.57195" lon="6.70665">
        <ele>891.15240419969</ele>
        <time>2019-07-06T07:41:35Z</time>
      </trkpt>
      <trkpt lat="45.57195" lon="6.70662">
        <ele>891.60418765436</ele>
        <time>2019-07-06T07:41:37Z</time>
      </trkpt>
      <trkpt lat="45.57196" lon="6.7066">
        <ele>893.51607799213</ele>
        <time>2019-07-06T07:41:40Z</time>
      </trkpt>
      <trkpt lat="45.57197" lon="6.70657">
        <ele>894.19409455776</ele>
        <time>2019-07-06T07:41:43Z</time>
      </trkpt>
      <trkpt lat="45.57198" lon="6.70655">
        <ele>896.00209825792</ele>
        <time>2019-07-06T07:41:46Z</time>
      </trkpt>
      <trkpt lat="45.57198" lon="6.70652">
        <ele>896.62470668967</ele>
        <time>2019-07-06T07:41:48Z</time>
      </trkpt>
      <trkpt lat="45.572" lon="6.70651">
        <ele>897.71283678288</ele>
        <time>2019-07-06T07:41:52Z</time>
      </trkpt>
      <trkpt lat="45.572" lon="6.70647">
        <ele>898.74429601626</ele>
        <time>2019-07-06T07:41:55Z</time>
      </trkpt>
      <trkpt lat="45.57201" lon="6.70644">
        <ele>900.05558850622</ele>
        <time>2019-07-06T07:41:59Z</time>
      </trkpt>
      <trkpt lat="45.57202" lon="6.70641">
        <ele>901.37242117765</ele>
        <time>2019-07-06T07:42:02Z</time>
      </trkpt>
      <trkpt lat="45.57204" lon="6.70639">
        <ele>902.05741504582</ele>
        <time>2019-07-06T07:42:04Z</time>
      </trkpt>
      <trkpt lat="45.57204" lon="6.70635">
        <ele>902.77452835087</ele>
        <time>2019-07-06T07:42:07Z</time>
      </trkpt>
      <trkpt lat="45.57204" lon="6.70633">
        <ele>902.76089522208</ele>
        <time>2019-07-06T07:42:11Z</time>
      </trkpt>
      <trkpt lat="45.57204" lon="6.70629">
        <ele>902.75501430554</ele>
        <time>2019-07-06T07:42:15Z</time>
      </trkpt>
      <trkpt lat="45.57203" lon="6.70627">
        <ele>902.57075720013</ele>
        <time>2019-07-06T07:42:18Z</time>
      </trkpt>
      <trkpt lat="45.57205" lon="6.70626">
        <ele>902.88832479765</ele>
        <time>2019-07-06T07:42:20Z</time>
      </trkpt>
      <trkpt lat="45.57206" lon="6.70624">
        <ele>903.28081199706</ele>
        <time>2019-07-06T07:42:22Z</time>
      </trkpt>
      <trkpt lat="45.57208" lon="6.70623">
        <ele>904.02853683808</ele>
        <time>2019-07-06T07:42:40Z</time>
      </trkpt>
      <trkpt lat="45.57206" lon="6.70622">
        <ele>903.60257728883</ele>
        <time>2019-07-06T07:43:06Z</time>
      </trkpt>
      <trkpt lat="45.57207" lon="6.70619">
        <ele>903.71813370612</ele>
        <time>2019-07-06T07:43:13Z</time>
      </trkpt>
      <trkpt lat="45.57207" lon="6.70616">
        <ele>903.75271665353</ele>
        <time>2019-07-06T07:43:15Z</time>
      </trkpt>
      <trkpt lat="45.57207" lon="6.70614">
        <ele>903.65060188734</ele>
        <time>2019-07-06T07:43:18Z</time>
      </trkpt>
      <trkpt lat="45.57207" lon="6.70611">
        <ele>903.76708174279</ele>
        <time>2019-07-06T07:43:21Z</time>
      </trkpt>
      <trkpt lat="45.57207" lon="6.70608">
        <ele>903.79628107677</ele>
        <time>2019-07-06T07:43:26Z</time>
      </trkpt>
      <trkpt lat="45.57208" lon="6.70605">
        <ele>903.95396565653</ele>
        <time>2019-07-06T07:43:28Z</time>
      </trkpt>
      <trkpt lat="45.57209" lon="6.70601">
        <ele>904.03545590734</ele>
        <time>2019-07-06T07:43:31Z</time>
      </trkpt>
      <trkpt lat="45.5721" lon="6.70599">
        <ele>904.62198057378</ele>
        <time>2019-07-06T07:43:33Z</time>
      </trkpt>
      <trkpt lat="45.57211" lon="6.70597">
        <ele>905.09533056166</ele>
        <time>2019-07-06T07:43:35Z</time>
      </trkpt>
      <trkpt lat="45.57211" lon="6.70596">
        <ele>905.18678029432</ele>
        <time>2019-07-06T07:43:36Z</time>
      </trkpt>
      <trkpt lat="45.57212" lon="6.70592">
        <ele>905.27109826787</ele>
        <time>2019-07-06T07:43:39Z</time>
      </trkpt>
      <trkpt lat="45.57214" lon="6.7059">
        <ele>905.65915267122</ele>
        <time>2019-07-06T07:43:41Z</time>
      </trkpt>
      <trkpt lat="45.57215" lon="6.70587">
        <ele>906.20717458312</ele>
        <time>2019-07-06T07:43:44Z</time>
      </trkpt>
      <trkpt lat="45.57216" lon="6.70585">
        <ele>906.72210230156</ele>
        <time>2019-07-06T07:43:46Z</time>
      </trkpt>
      <trkpt lat="45.57218" lon="6.70584">
        <ele>907.18661894144</ele>
        <time>2019-07-06T07:43:49Z</time>
      </trkpt>
      <trkpt lat="45.57218" lon="6.70581">
        <ele>906.79372072615</ele>
        <time>2019-07-06T07:43:52Z</time>
      </trkpt>
      <trkpt lat="45.5722" lon="6.7058">
        <ele>906.80682273946</ele>
        <time>2019-07-06T07:43:56Z</time>
      </trkpt>
      <trkpt lat="45.57221" lon="6.70577">
        <ele>906.88159426652</ele>
        <time>2019-07-06T07:43:58Z</time>
      </trkpt>
      <trkpt lat="45.57222" lon="6.70575">
        <ele>905.95315990313</ele>
        <time>2019-07-06T07:44:01Z</time>
      </trkpt>
      <trkpt lat="45.57224" lon="6.70574">
        <ele>906.21778969631</ele>
        <time>2019-07-06T07:44:04Z</time>
      </trkpt>
      <trkpt lat="45.57226" lon="6.70572">
        <ele>906.50860676812</ele>
        <time>2019-07-06T07:44:06Z</time>
      </trkpt>
      <trkpt lat="45.57229" lon="6.70571">
        <ele>907.19440312243</ele>
        <time>2019-07-06T07:44:08Z</time>
      </trkpt>
      <trkpt lat="45.57231" lon="6.70571">
        <ele>908.32805185746</ele>
        <time>2019-07-06T07:44:10Z</time>
      </trkpt>
      <trkpt lat="45.57234" lon="6.7057">
        <ele>909.5548299325</ele>
        <time>2019-07-06T07:44:13Z</time>
      </trkpt>
      <trkpt lat="45.57236" lon="6.70568">
        <ele>910.58484064613</ele>
        <time>2019-07-06T07:44:16Z</time>
      </trkpt>
      <trkpt lat="45.57238" lon="6.70567">
        <ele>911.15772954812</ele>
        <time>2019-07-06T07:44:18Z</time>
      </trkpt>
      <trkpt lat="45.5724" lon="6.70567">
        <ele>912.4010202059</ele>
        <time>2019-07-06T07:44:21Z</time>
      </trkpt>
      <trkpt lat="45.57242" lon="6.70565">
        <ele>913.32597307533</ele>
        <time>2019-07-06T07:44:26Z</time>
      </trkpt>
      <trkpt lat="45.57243" lon="6.70565">
        <ele>914.39919969752</ele>
        <time>2019-07-06T07:44:33Z</time>
      </trkpt>
      <trkpt lat="45.57245" lon="6.70563">
        <ele>914.8257566211</ele>
        <time>2019-07-06T07:44:37Z</time>
      </trkpt>
      <trkpt lat="45.57246" lon="6.70558">
        <ele>915.376220057</ele>
        <time>2019-07-06T07:44:43Z</time>
      </trkpt>
      <trkpt lat="45.57247" lon="6.70556">
        <ele>916.06577666027</ele>
        <time>2019-07-06T07:44:46Z</time>
      </trkpt>
      <trkpt lat="45.57247" lon="6.70553">
        <ele>916.51822128131</ele>
        <time>2019-07-06T07:44:48Z</time>
      </trkpt>
      <trkpt lat="45.57247" lon="6.70549">
        <ele>916.41793066405</ele>
        <time>2019-07-06T07:44:50Z</time>
      </trkpt>
      <trkpt lat="45.57248" lon="6.70547">
        <ele>914.53553251039</ele>
        <time>2019-07-06T07:44:53Z</time>
      </trkpt>
      <trkpt lat="45.5725" lon="6.70544">
        <ele>917.70540083909</ele>
        <time>2019-07-06T07:44:57Z</time>
      </trkpt>
      <trkpt lat="45.57251" lon="6.70542">
        <ele>918.43609076537</ele>
        <time>2019-07-06T07:45:00Z</time>
      </trkpt>
      <trkpt lat="45.57252" lon="6.70539">
        <ele>918.7712024507</ele>
        <time>2019-07-06T07:45:05Z</time>
      </trkpt>
      <trkpt lat="45.57252" lon="6.70535">
        <ele>919.39942755002</ele>
        <time>2019-07-06T07:45:13Z</time>
      </trkpt>
      <trkpt lat="45.57252" lon="6.70532">
        <ele>917.59885990366</ele>
        <time>2019-07-06T07:45:16Z</time>
      </trkpt>
      <trkpt lat="45.57251" lon="6.70529">
        <ele>915.53078244403</ele>
        <time>2019-07-06T07:45:18Z</time>
      </trkpt>
      <trkpt lat="45.57251" lon="6.70525">
        <ele>919.1137852876</ele>
        <time>2019-07-06T07:45:21Z</time>
      </trkpt>
      <trkpt lat="45.5725" lon="6.70523">
        <ele>919.55123816349</ele>
        <time>2019-07-06T07:45:24Z</time>
      </trkpt>
      <trkpt lat="45.57248" lon="6.70521">
        <ele>919.26725375279</ele>
        <time>2019-07-06T07:45:26Z</time>
      </trkpt>
      <trkpt lat="45.57246" lon="6.70519">
        <ele>919.50763473388</ele>
        <time>2019-07-06T07:45:28Z</time>
      </trkpt>
      <trkpt lat="45.57246" lon="6.70516">
        <ele>920.50020806274</ele>
        <time>2019-07-06T07:45:31Z</time>
      </trkpt>
      <trkpt lat="45.57246" lon="6.70514">
        <ele>921.06918995492</ele>
        <time>2019-07-06T07:45:34Z</time>
      </trkpt>
      <trkpt lat="45.57244" lon="6.70511">
        <ele>921.44980929805</ele>
        <time>2019-07-06T07:45:39Z</time>
      </trkpt>
      <trkpt lat="45.57242" lon="6.70511">
        <ele>921.32632040332</ele>
        <time>2019-07-06T07:45:42Z</time>
      </trkpt>
      <trkpt lat="45.57244" lon="6.70512">
        <ele>921.31072816443</ele>
        <time>2019-07-06T07:45:45Z</time>
      </trkpt>
      <trkpt lat="45.57246" lon="6.70512">
        <ele>921.99886540422</ele>
        <time>2019-07-06T07:45:48Z</time>
      </trkpt>
      <trkpt lat="45.57247" lon="6.70514">
        <ele>921.51461508022</ele>
        <time>2019-07-06T07:45:51Z</time>
      </trkpt>
      <trkpt lat="45.57248" lon="6.70515">
        <ele>921.62712793563</ele>
        <time>2019-07-06T07:45:52Z</time>
      </trkpt>
      <trkpt lat="45.57251" lon="6.70514">
        <ele>917.81992398718</ele>
        <time>2019-07-06T07:45:55Z</time>
      </trkpt>
      <trkpt lat="45.57254" lon="6.70515">
        <ele>915.68980113045</ele>
        <time>2019-07-06T07:45:58Z</time>
      </trkpt>
      <trkpt lat="45.57255" lon="6.70516">
        <ele>914.76524590291</ele>
        <time>2019-07-06T07:46:00Z</time>
      </trkpt>
      <trkpt lat="45.57258" lon="6.70518">
        <ele>926.06961513244</ele>
        <time>2019-07-06T07:46:03Z</time>
      </trkpt>
      <trkpt lat="45.5726" lon="6.70519">
        <ele>927.09218730547</ele>
        <time>2019-07-06T07:46:09Z</time>
      </trkpt>
      <trkpt lat="45.57261" lon="6.7052">
        <ele>920.61910463919</ele>
        <time>2019-07-06T07:46:12Z</time>
      </trkpt>
      <trkpt lat="45.57264" lon="6.70521">
        <ele>918.51876603383</ele>
        <time>2019-07-06T07:46:14Z</time>
      </trkpt>
      <trkpt lat="45.57266" lon="6.70522">
        <ele>917.40103135719</ele>
        <time>2019-07-06T07:46:16Z</time>
      </trkpt>
      <trkpt lat="45.57268" lon="6.70522">
        <ele>916.7970373246</ele>
        <time>2019-07-06T07:46:18Z</time>
      </trkpt>
      <trkpt lat="45.5727" lon="6.70523">
        <ele>916.57071878921</ele>
        <time>2019-07-06T07:46:25Z</time>
      </trkpt>
      <trkpt lat="45.57272" lon="6.70523">
        <ele>916.87058220586</ele>
        <time>2019-07-06T07:46:28Z</time>
      </trkpt>
      <trkpt lat="45.57274" lon="6.70525">
        <ele>917.35629244786</ele>
        <time>2019-07-06T07:46:32Z</time>
      </trkpt>
      <trkpt lat="45.57276" lon="6.70526">
        <ele>917.82235845999</ele>
        <time>2019-07-06T07:46:34Z</time>
      </trkpt>
      <trkpt lat="45.57277" lon="6.70528">
        <ele>919.2701909762</ele>
        <time>2019-07-06T07:46:39Z</time>
      </trkpt>
      <trkpt lat="45.57279" lon="6.7053">
        <ele>920.75761450687</ele>
        <time>2019-07-06T07:46:50Z</time>
      </trkpt>
      <trkpt lat="45.57281" lon="6.70532">
        <ele>920.49271515384</ele>
        <time>2019-07-06T07:46:52Z</time>
      </trkpt>
      <trkpt lat="45.57282" lon="6.70534">
        <ele>919.97062026218</ele>
        <time>2019-07-06T07:46:58Z</time>
      </trkpt>
      <trkpt lat="45.57283" lon="6.70537">
        <ele>940.03127822266</ele>
        <time>2019-07-06T07:47:05Z</time>
      </trkpt>
      <trkpt lat="45.57284" lon="6.70538">
        <ele>940.57264735903</ele>
        <time>2019-07-06T07:47:12Z</time>
      </trkpt>
      <trkpt lat="45.57285" lon="6.7054">
        <ele>941.32132645452</ele>
        <time>2019-07-06T07:47:33Z</time>
      </trkpt>
      <trkpt lat="45.57287" lon="6.70542">
        <ele>933.89832285263</ele>
        <time>2019-07-06T07:47:37Z</time>
      </trkpt>
      <trkpt lat="45.57286" lon="6.70545">
        <ele>939.51348682573</ele>
        <time>2019-07-06T07:47:45Z</time>
      </trkpt>
      <trkpt lat="45.57288" lon="6.70545">
        <ele>934.41670625467</ele>
        <time>2019-07-06T07:47:48Z</time>
      </trkpt>
      <trkpt lat="45.57289" lon="6.70544">
        <ele>930.88319767567</ele>
        <time>2019-07-06T07:47:52Z</time>
      </trkpt>
      <trkpt lat="45.5729" lon="6.70542">
        <ele>929.84641770189</ele>
        <time>2019-07-06T07:48:00Z</time>
      </trkpt>
      <trkpt lat="45.57292" lon="6.70542">
        <ele>930.15910359237</ele>
        <time>2019-07-06T07:48:07Z</time>
      </trkpt>
      <trkpt lat="45.57293" lon="6.70539">
        <ele>930.24058908339</ele>
        <time>2019-07-06T07:48:12Z</time>
      </trkpt>
      <trkpt lat="45.57293" lon="6.70536">
        <ele>930.70306738513</ele>
        <time>2019-07-06T07:48:20Z</time>
      </trkpt>
      <trkpt lat="45.57292" lon="6.70534">
        <ele>945.95193084116</ele>
        <time>2019-07-06T07:48:24Z</time>
      </trkpt>
      <trkpt lat="45.57293" lon="6.70531">
        <ele>946.06550981739</ele>
        <time>2019-07-06T07:48:26Z</time>
      </trkpt>
      <trkpt lat="45.57292" lon="6.70528">
        <ele>935.87496448361</ele>
        <time>2019-07-06T07:48:30Z</time>
      </trkpt>
      <trkpt lat="45.57293" lon="6.70525">
        <ele>931.38235118734</ele>
        <time>2019-07-06T07:48:35Z</time>
      </trkpt>
      <trkpt lat="45.57295" lon="6.70529">
        <ele>947.60694239117</ele>
        <time>2019-07-06T07:48:52Z</time>
      </trkpt>
      <trkpt lat="45.57295" lon="6.70531">
        <ele>947.84450433085</ele>
        <time>2019-07-06T07:48:55Z</time>
      </trkpt>
      <trkpt lat="45.57297" lon="6.70534">
        <ele>948.79993354292</ele>
        <time>2019-07-06T07:48:59Z</time>
      </trkpt>
      <trkpt lat="45.57299" lon="6.70533">
        <ele>943.16662596756</ele>
        <time>2019-07-06T07:49:02Z</time>
      </trkpt>
      <trkpt lat="45.573" lon="6.7053">
        <ele>936.22535589019</ele>
        <time>2019-07-06T07:49:07Z</time>
      </trkpt>
      <trkpt lat="45.57299" lon="6.70527">
        <ele>950.85572283533</ele>
        <time>2019-07-06T07:49:09Z</time>
      </trkpt>
      <trkpt lat="45.57299" lon="6.70524">
        <ele>951.41257460048</ele>
        <time>2019-07-06T07:49:11Z</time>
      </trkpt>
      <trkpt lat="45.57299" lon="6.70522">
        <ele>941.19296355034</ele>
        <time>2019-07-06T07:49:15Z</time>
      </trkpt>
      <trkpt lat="45.57299" lon="6.70519">
        <ele>951.88674144513</ele>
        <time>2019-07-06T07:49:18Z</time>
      </trkpt>
      <trkpt lat="45.57298" lon="6.70516">
        <ele>953.79665198879</ele>
        <time>2019-07-06T07:49:21Z</time>
      </trkpt>
      <trkpt lat="45.57299" lon="6.70514">
        <ele>955.17366286137</ele>
        <time>2019-07-06T07:49:27Z</time>
      </trkpt>
      <trkpt lat="45.57299" lon="6.70511">
        <ele>946.34427589413</ele>
        <time>2019-07-06T07:49:30Z</time>
      </trkpt>
      <trkpt lat="45.573" lon="6.70508">
        <ele>955.86881035698</ele>
        <time>2019-07-06T07:49:34Z</time>
      </trkpt>
      <trkpt lat="45.573" lon="6.70506">
        <ele>958.80334838807</ele>
        <time>2019-07-06T07:49:38Z</time>
      </trkpt>
      <trkpt lat="45.57299" lon="6.70503">
        <ele>958.89213386382</ele>
        <time>2019-07-06T07:49:40Z</time>
      </trkpt>
      <trkpt lat="45.57299" lon="6.70502">
        <ele>958.98644963821</ele>
        <time>2019-07-06T07:49:41Z</time>
      </trkpt>
      <trkpt lat="45.57297" lon="6.705">
        <ele>958.84808250753</ele>
        <time>2019-07-06T07:49:44Z</time>
      </trkpt>
      <trkpt lat="45.57296" lon="6.70498">
        <ele>958.85422941872</ele>
        <time>2019-07-06T07:49:47Z</time>
      </trkpt>
      <trkpt lat="45.57294" lon="6.70496">
        <ele>958.14165957686</ele>
        <time>2019-07-06T07:49:50Z</time>
      </trkpt>
      <trkpt lat="45.57293" lon="6.70495">
        <ele>957.79272599872</ele>
        <time>2019-07-06T07:49:53Z</time>
      </trkpt>
      <trkpt lat="45.57291" lon="6.70493">
        <ele>957.13907746176</ele>
        <time>2019-07-06T07:49:57Z</time>
      </trkpt>
      <trkpt lat="45.5729" lon="6.70491">
        <ele>956.98897382058</ele>
        <time>2019-07-06T07:49:59Z</time>
      </trkpt>
      <trkpt lat="45.57289" lon="6.70488">
        <ele>957.3349483701</ele>
        <time>2019-07-06T07:50:01Z</time>
      </trkpt>
      <trkpt lat="45.57287" lon="6.70486">
        <ele>956.80183452213</ele>
        <time>2019-07-06T07:50:05Z</time>
      </trkpt>
      <trkpt lat="45.57285" lon="6.70484">
        <ele>956.52346942562</ele>
        <time>2019-07-06T07:50:08Z</time>
      </trkpt>
      <trkpt lat="45.57286" lon="6.70483">
        <ele>956.69344014499</ele>
        <time>2019-07-06T07:50:11Z</time>
      </trkpt>
      <trkpt lat="45.57286" lon="6.7048">
        <ele>957.25727501577</ele>
        <time>2019-07-06T07:50:13Z</time>
      </trkpt>
      <trkpt lat="45.57286" lon="6.70477">
        <ele>958.80622082558</ele>
        <time>2019-07-06T07:50:16Z</time>
      </trkpt>
      <trkpt lat="45.57285" lon="6.70474">
        <ele>959.2068059841</ele>
        <time>2019-07-06T07:50:20Z</time>
      </trkpt>
      <trkpt lat="45.57284" lon="6.70471">
        <ele>954.84443925331</ele>
        <time>2019-07-06T07:50:26Z</time>
      </trkpt>
      <trkpt lat="45.57283" lon="6.70468">
        <ele>950.23594342487</ele>
        <time>2019-07-06T07:50:31Z</time>
      </trkpt>
      <trkpt lat="45.57282" lon="6.70467">
        <ele>960.23128676657</ele>
        <time>2019-07-06T07:50:33Z</time>
      </trkpt>
      <trkpt lat="45.5728" lon="6.70464">
        <ele>961.16468047873</ele>
        <time>2019-07-06T07:50:37Z</time>
      </trkpt>
      <trkpt lat="45.57278" lon="6.70463">
        <ele>957.91458467278</ele>
        <time>2019-07-06T07:50:40Z</time>
      </trkpt>
      <trkpt lat="45.57277" lon="6.7046">
        <ele>953.58816015285</ele>
        <time>2019-07-06T07:50:45Z</time>
      </trkpt>
      <trkpt lat="45.57276" lon="6.70458">
        <ele>963.49844129396</ele>
        <time>2019-07-06T07:50:49Z</time>
      </trkpt>
      <trkpt lat="45.57274" lon="6.70457">
        <ele>963.00897553995</ele>
        <time>2019-07-06T07:50:51Z</time>
      </trkpt>
      <trkpt lat="45.57272" lon="6.70456">
        <ele>962.64902473007</ele>
        <time>2019-07-06T07:50:53Z</time>
      </trkpt>
      <trkpt lat="45.5727" lon="6.70455">
        <ele>962.36895976787</ele>
        <time>2019-07-06T07:50:55Z</time>
      </trkpt>
      <trkpt lat="45.57268" lon="6.70453">
        <ele>962.28688927303</ele>
        <time>2019-07-06T07:50:58Z</time>
      </trkpt>
      <trkpt lat="45.57266" lon="6.70451">
        <ele>962.49928080243</ele>
        <time>2019-07-06T07:51:05Z</time>
      </trkpt>
      <trkpt lat="45.57264" lon="6.70451">
        <ele>961.78074302462</ele>
        <time>2019-07-06T07:51:10Z</time>
      </trkpt>
      <trkpt lat="45.57263" lon="6.7045">
        <ele>961.05124701667</ele>
        <time>2019-07-06T07:51:15Z</time>
      </trkpt>
      <trkpt lat="45.57262" lon="6.70448">
        <ele>961.82024046911</ele>
        <time>2019-07-06T07:51:21Z</time>
      </trkpt>
      <trkpt lat="45.57262" lon="6.70445">
        <ele>962.53570481051</ele>
        <time>2019-07-06T07:51:30Z</time>
      </trkpt>
      <trkpt lat="45.5726" lon="6.70445">
        <ele>961.9896936341</ele>
        <time>2019-07-06T07:51:32Z</time>
      </trkpt>
      <trkpt lat="45.57259" lon="6.70442">
        <ele>961.27573620789</ele>
        <time>2019-07-06T07:51:34Z</time>
      </trkpt>
      <trkpt lat="45.57259" lon="6.70439">
        <ele>959.02961522967</ele>
        <time>2019-07-06T07:51:37Z</time>
      </trkpt>
      <trkpt lat="45.57259" lon="6.70436">
        <ele>958.0699997664</ele>
        <time>2019-07-06T07:51:40Z</time>
      </trkpt>
      <trkpt lat="45.57259" lon="6.70433">
        <ele>957.94490332731</ele>
        <time>2019-07-06T07:51:43Z</time>
      </trkpt>
      <trkpt lat="45.57257" lon="6.7043">
        <ele>968.05296030712</ele>
        <time>2019-07-06T07:51:47Z</time>
      </trkpt>
      <trkpt lat="45.57256" lon="6.70428">
        <ele>968.5405530099</ele>
        <time>2019-07-06T07:51:50Z</time>
      </trkpt>
      <trkpt lat="45.57255" lon="6.70426">
        <ele>969.26268401063</ele>
        <time>2019-07-06T07:51:52Z</time>
      </trkpt>
      <trkpt lat="45.57253" lon="6.70424">
        <ele>970.27582268562</ele>
        <time>2019-07-06T07:51:57Z</time>
      </trkpt>
      <trkpt lat="45.57251" lon="6.70421">
        <ele>970.62059758859</ele>
        <time>2019-07-06T07:52:00Z</time>
      </trkpt>
      <trkpt lat="45.57249" lon="6.7042">
        <ele>971.09362968038</ele>
        <time>2019-07-06T07:52:03Z</time>
      </trkpt>
      <trkpt lat="45.57247" lon="6.70418">
        <ele>971.19622118171</ele>
        <time>2019-07-06T07:52:06Z</time>
      </trkpt>
      <trkpt lat="45.57246" lon="6.70414">
        <ele>971.63154111941</ele>
        <time>2019-07-06T07:52:09Z</time>
      </trkpt>
      <trkpt lat="45.57246" lon="6.70411">
        <ele>971.44500561415</ele>
        <time>2019-07-06T07:52:12Z</time>
      </trkpt>
      <trkpt lat="45.57244" lon="6.70408">
        <ele>970.6584002896</ele>
        <time>2019-07-06T07:52:14Z</time>
      </trkpt>
      <trkpt lat="45.57242" lon="6.70407">
        <ele>969.66916949026</ele>
        <time>2019-07-06T07:52:16Z</time>
      </trkpt>
      <trkpt lat="45.5724" lon="6.70404">
        <ele>968.83181606967</ele>
        <time>2019-07-06T07:52:19Z</time>
      </trkpt>
      <trkpt lat="45.5724" lon="6.70401">
        <ele>968.70439302795</ele>
        <time>2019-07-06T07:52:21Z</time>
      </trkpt>
      <trkpt lat="45.57239" lon="6.70399">
        <ele>968.67053334831</ele>
        <time>2019-07-06T07:52:23Z</time>
      </trkpt>
      <trkpt lat="45.57238" lon="6.70396">
        <ele>968.65158940483</ele>
        <time>2019-07-06T07:52:25Z</time>
      </trkpt>
      <trkpt lat="45.57237" lon="6.70393">
        <ele>968.54047707845</ele>
        <time>2019-07-06T07:52:28Z</time>
      </trkpt>
      <trkpt lat="45.57236" lon="6.70391">
        <ele>968.77687331479</ele>
        <time>2019-07-06T07:52:30Z</time>
      </trkpt>
      <trkpt lat="45.57236" lon="6.70388">
        <ele>968.80391608306</ele>
        <time>2019-07-06T07:52:33Z</time>
      </trkpt>
      <trkpt lat="45.57236" lon="6.70385">
        <ele>969.28258777915</ele>
        <time>2019-07-06T07:52:36Z</time>
      </trkpt>
      <trkpt lat="45.57235" lon="6.70382">
        <ele>969.65598582341</ele>
        <time>2019-07-06T07:52:39Z</time>
      </trkpt>
      <trkpt lat="45.57233" lon="6.70379">
        <ele>969.39421389674</ele>
        <time>2019-07-06T07:52:42Z</time>
      </trkpt>
      <trkpt lat="45.57231" lon="6.70377">
        <ele>969.03768973571</ele>
        <time>2019-07-06T07:52:44Z</time>
      </trkpt>
      <trkpt lat="45.5723" lon="6.70375">
        <ele>968.65711830573</ele>
        <time>2019-07-06T07:52:47Z</time>
      </trkpt>
      <trkpt lat="45.57228" lon="6.70372">
        <ele>967.91330993889</ele>
        <time>2019-07-06T07:52:50Z</time>
      </trkpt>
      <trkpt lat="45.57228" lon="6.70369">
        <ele>967.5938587941</ele>
        <time>2019-07-06T07:52:53Z</time>
      </trkpt>
      <trkpt lat="45.57228" lon="6.70365">
        <ele>967.56852347381</ele>
        <time>2019-07-06T07:52:56Z</time>
      </trkpt>
      <trkpt lat="45.57228" lon="6.70362">
        <ele>967.78348190374</ele>
        <time>2019-07-06T07:52:58Z</time>
      </trkpt>
      <trkpt lat="45.57227" lon="6.70358">
        <ele>968.39359840699</ele>
        <time>2019-07-06T07:53:00Z</time>
      </trkpt>
      <trkpt lat="45.57226" lon="6.70354">
        <ele>969.55178305229</ele>
        <time>2019-07-06T07:53:03Z</time>
      </trkpt>
      <trkpt lat="45.57226" lon="6.70351">
        <ele>969.56842811438</ele>
        <time>2019-07-06T07:53:06Z</time>
      </trkpt>
      <trkpt lat="45.57226" lon="6.70348">
        <ele>967.06574917697</ele>
        <time>2019-07-06T07:53:10Z</time>
      </trkpt>
      <trkpt lat="45.57226" lon="6.70345">
        <ele>970.943060172</ele>
        <time>2019-07-06T07:53:14Z</time>
      </trkpt>
      <trkpt lat="45.57225" lon="6.70341">
        <ele>967.54400318647</ele>
        <time>2019-07-06T07:53:18Z</time>
      </trkpt>
      <trkpt lat="45.57224" lon="6.70338">
        <ele>972.30702955705</ele>
        <time>2019-07-06T07:53:22Z</time>
      </trkpt>
      <trkpt lat="45.57225" lon="6.70335">
        <ele>969.19721166986</ele>
        <time>2019-07-06T07:53:30Z</time>
      </trkpt>
      <trkpt lat="45.57226" lon="6.70331">
        <ele>968.17331773207</ele>
        <time>2019-07-06T07:53:33Z</time>
      </trkpt>
      <trkpt lat="45.57226" lon="6.70329">
        <ele>967.5261406687</ele>
        <time>2019-07-06T07:53:39Z</time>
      </trkpt>
      <trkpt lat="45.57227" lon="6.70326">
        <ele>978.42292545839</ele>
        <time>2019-07-06T07:53:44Z</time>
      </trkpt>
      <trkpt lat="45.57225" lon="6.70323">
        <ele>978.08926219802</ele>
        <time>2019-07-06T07:53:48Z</time>
      </trkpt>
      <trkpt lat="45.57223" lon="6.70321">
        <ele>978.32112147732</ele>
        <time>2019-07-06T07:53:51Z</time>
      </trkpt>
      <trkpt lat="45.57222" lon="6.70317">
        <ele>978.6480054514</ele>
        <time>2019-07-06T07:53:56Z</time>
      </trkpt>
      <trkpt lat="45.57221" lon="6.70313">
        <ele>978.87558958973</ele>
        <time>2019-07-06T07:53:58Z</time>
      </trkpt>
      <trkpt lat="45.5722" lon="6.70311">
        <ele>979.50084628127</ele>
        <time>2019-07-06T07:54:01Z</time>
      </trkpt>
      <trkpt lat="45.57222" lon="6.70307">
        <ele>980.69690608397</ele>
        <time>2019-07-06T07:54:03Z</time>
      </trkpt>
      <trkpt lat="45.57223" lon="6.70303">
        <ele>982.89128734874</ele>
        <time>2019-07-06T07:54:06Z</time>
      </trkpt>
      <trkpt lat="45.57224" lon="6.703">
        <ele>983.26195063136</ele>
        <time>2019-07-06T07:54:08Z</time>
      </trkpt>
      <trkpt lat="45.57223" lon="6.70297">
        <ele>983.43062680735</ele>
        <time>2019-07-06T07:54:11Z</time>
      </trkpt>
      <trkpt lat="45.57223" lon="6.70293">
        <ele>983.30780903333</ele>
        <time>2019-07-06T07:54:14Z</time>
      </trkpt>
      <trkpt lat="45.57222" lon="6.70291">
        <ele>983.21366711774</ele>
        <time>2019-07-06T07:54:16Z</time>
      </trkpt>
      <trkpt lat="45.57222" lon="6.70287">
        <ele>982.79534243985</ele>
        <time>2019-07-06T07:54:19Z</time>
      </trkpt>
      <trkpt lat="45.57223" lon="6.70284">
        <ele>983.18970089907</ele>
        <time>2019-07-06T07:54:21Z</time>
      </trkpt>
      <trkpt lat="45.57224" lon="6.70282">
        <ele>983.29174345111</ele>
        <time>2019-07-06T07:54:22Z</time>
      </trkpt>
      <trkpt lat="45.57225" lon="6.70278">
        <ele>984.51845579451</ele>
        <time>2019-07-06T07:54:25Z</time>
      </trkpt>
      <trkpt lat="45.57227" lon="6.70274">
        <ele>985.60044643691</ele>
        <time>2019-07-06T07:54:27Z</time>
      </trkpt>
      <trkpt lat="45.57228" lon="6.70271">
        <ele>986.18400560115</ele>
        <time>2019-07-06T07:54:29Z</time>
      </trkpt>
      <trkpt lat="45.57229" lon="6.70268">
        <ele>986.95784046037</ele>
        <time>2019-07-06T07:54:31Z</time>
      </trkpt>
      <trkpt lat="45.57229" lon="6.70265">
        <ele>987.49969013709</ele>
        <time>2019-07-06T07:54:33Z</time>
      </trkpt>
      <trkpt lat="45.57229" lon="6.70261">
        <ele>987.46187306052</ele>
        <time>2019-07-06T07:54:37Z</time>
      </trkpt>
      <trkpt lat="45.57228" lon="6.70259">
        <ele>987.10009301192</ele>
        <time>2019-07-06T07:54:39Z</time>
      </trkpt>
      <trkpt lat="45.57227" lon="6.70256">
        <ele>986.31316100245</ele>
        <time>2019-07-06T07:54:41Z</time>
      </trkpt>
      <trkpt lat="45.57227" lon="6.70252">
        <ele>986.15625115501</ele>
        <time>2019-07-06T07:54:43Z</time>
      </trkpt>
      <trkpt lat="45.57227" lon="6.70249">
        <ele>986.11950383388</ele>
        <time>2019-07-06T07:54:45Z</time>
      </trkpt>
      <trkpt lat="45.57227" lon="6.70246">
        <ele>986.1847773293</ele>
        <time>2019-07-06T07:54:48Z</time>
      </trkpt>
      <trkpt lat="45.57226" lon="6.70244">
        <ele>985.69994656632</ele>
        <time>2019-07-06T07:54:50Z</time>
      </trkpt>
      <trkpt lat="45.57225" lon="6.70241">
        <ele>984.92881602399</ele>
        <time>2019-07-06T07:54:53Z</time>
      </trkpt>
      <trkpt lat="45.57224" lon="6.70238">
        <ele>984.31769945327</ele>
        <time>2019-07-06T07:54:55Z</time>
      </trkpt>
      <trkpt lat="45.57225" lon="6.70235">
        <ele>984.35911514303</ele>
        <time>2019-07-06T07:54:57Z</time>
      </trkpt>
      <trkpt lat="45.57223" lon="6.70232">
        <ele>984.04317798157</ele>
        <time>2019-07-06T07:54:59Z</time>
      </trkpt>
      <trkpt lat="45.57223" lon="6.70228">
        <ele>983.60283100833</ele>
        <time>2019-07-06T07:55:02Z</time>
      </trkpt>
      <trkpt lat="45.57223" lon="6.70228">
        <ele>983.5406980636</ele>
        <time>2019-07-06T07:55:03Z</time>
      </trkpt>
      <trkpt lat="45.57222" lon="6.70225">
        <ele>983.10880887518</ele>
        <time>2019-07-06T07:55:07Z</time>
      </trkpt>
      <trkpt lat="45.57222" lon="6.70221">
        <ele>983.01586778998</ele>
        <time>2019-07-06T07:55:09Z</time>
      </trkpt>
      <trkpt lat="45.57221" lon="6.70219">
        <ele>983.41321474632</ele>
        <time>2019-07-06T07:55:11Z</time>
      </trkpt>
      <trkpt lat="45.5722" lon="6.70216">
        <ele>983.61278747088</ele>
        <time>2019-07-06T07:55:14Z</time>
      </trkpt>
      <trkpt lat="45.57219" lon="6.70213">
        <ele>983.51636900172</ele>
        <time>2019-07-06T07:55:16Z</time>
      </trkpt>
      <trkpt lat="45.5722" lon="6.7021">
        <ele>984.68159256117</ele>
        <time>2019-07-06T07:55:18Z</time>
      </trkpt>
      <trkpt lat="45.5722" lon="6.70207">
        <ele>985.79592057802</ele>
        <time>2019-07-06T07:55:20Z</time>
      </trkpt>
      <trkpt lat="45.57221" lon="6.70204">
        <ele>987.28983363358</ele>
        <time>2019-07-06T07:55:22Z</time>
      </trkpt>
      <trkpt lat="45.57221" lon="6.70202">
        <ele>987.88051649019</ele>
        <time>2019-07-06T07:55:23Z</time>
      </trkpt>
      <trkpt lat="45.57221" lon="6.702">
        <ele>988.96119961223</ele>
        <time>2019-07-06T07:55:25Z</time>
      </trkpt>
      <trkpt lat="45.57221" lon="6.70196">
        <ele>990.33415732236</ele>
        <time>2019-07-06T07:55:27Z</time>
      </trkpt>
      <trkpt lat="45.57221" lon="6.70193">
        <ele>991.24718377446</ele>
        <time>2019-07-06T07:55:29Z</time>
      </trkpt>
      <trkpt lat="45.5722" lon="6.7019">
        <ele>991.12277622506</ele>
        <time>2019-07-06T07:55:32Z</time>
      </trkpt>
      <trkpt lat="45.5722" lon="6.70186">
        <ele>990.48324861927</ele>
        <time>2019-07-06T07:55:35Z</time>
      </trkpt>
      <trkpt lat="45.5722" lon="6.70183">
        <ele>990.6002286425</ele>
        <time>2019-07-06T07:55:37Z</time>
      </trkpt>
      <trkpt lat="45.5722" lon="6.70179">
        <ele>990.67996142325</ele>
        <time>2019-07-06T07:55:40Z</time>
      </trkpt>
      <trkpt lat="45.5722" lon="6.70176">
        <ele>990.55125216703</ele>
        <time>2019-07-06T07:55:42Z</time>
      </trkpt>
      <trkpt lat="45.5722" lon="6.70173">
        <ele>990.58561570923</ele>
        <time>2019-07-06T07:55:44Z</time>
      </trkpt>
      <trkpt lat="45.57218" lon="6.7017">
        <ele>989.90467129762</ele>
        <time>2019-07-06T07:55:47Z</time>
      </trkpt>
      <trkpt lat="45.57217" lon="6.70167">
        <ele>988.94519726382</ele>
        <time>2019-07-06T07:55:49Z</time>
      </trkpt>
      <trkpt lat="45.57216" lon="6.70165">
        <ele>988.35145945707</ele>
        <time>2019-07-06T07:55:51Z</time>
      </trkpt>
      <trkpt lat="45.57214" lon="6.70163">
        <ele>987.37968067165</ele>
        <time>2019-07-06T07:55:54Z</time>
      </trkpt>
      <trkpt lat="45.57212" lon="6.7016">
        <ele>986.63030264286</ele>
        <time>2019-07-06T07:55:57Z</time>
      </trkpt>
      <trkpt lat="45.57213" lon="6.70157">
        <ele>986.71284611151</ele>
        <time>2019-07-06T07:56:00Z</time>
      </trkpt>
      <trkpt lat="45.57212" lon="6.70154">
        <ele>986.80442539159</ele>
        <time>2019-07-06T07:56:05Z</time>
      </trkpt>
      <trkpt lat="45.57212" lon="6.7015">
        <ele>987.26168844715</ele>
        <time>2019-07-06T07:56:08Z</time>
      </trkpt>
      <trkpt lat="45.57211" lon="6.70147">
        <ele>987.46054451392</ele>
        <time>2019-07-06T07:56:11Z</time>
      </trkpt>
      <trkpt lat="45.57211" lon="6.70144">
        <ele>987.46515541004</ele>
        <time>2019-07-06T07:56:13Z</time>
      </trkpt>
      <trkpt lat="45.57211" lon="6.7014">
        <ele>988.04842173385</ele>
        <time>2019-07-06T07:56:15Z</time>
      </trkpt>
      <trkpt lat="45.57211" lon="6.70136">
        <ele>988.56708520763</ele>
        <time>2019-07-06T07:56:17Z</time>
      </trkpt>
      <trkpt lat="45.57211" lon="6.70133">
        <ele>989.26169060892</ele>
        <time>2019-07-06T07:56:20Z</time>
      </trkpt>
      <trkpt lat="45.57211" lon="6.70131">
        <ele>989.68751867763</ele>
        <time>2019-07-06T07:56:22Z</time>
      </trkpt>
      <trkpt lat="45.57212" lon="6.70127">
        <ele>990.8974063793</ele>
        <time>2019-07-06T07:56:25Z</time>
      </trkpt>
      <trkpt lat="45.57213" lon="6.70124">
        <ele>992.14340098182</ele>
        <time>2019-07-06T07:56:27Z</time>
      </trkpt>
      <trkpt lat="45.57214" lon="6.70122">
        <ele>992.91229159191</ele>
        <time>2019-07-06T07:56:29Z</time>
      </trkpt>
      <trkpt lat="45.57213" lon="6.70119">
        <ele>993.65402102536</ele>
        <time>2019-07-06T07:56:31Z</time>
      </trkpt>
      <trkpt lat="45.57211" lon="6.70115">
        <ele>993.40802767516</ele>
        <time>2019-07-06T07:56:33Z</time>
      </trkpt>
      <trkpt lat="45.57211" lon="6.70113">
        <ele>993.24404674556</ele>
        <time>2019-07-06T07:56:35Z</time>
      </trkpt>
      <trkpt lat="45.57212" lon="6.7011">
        <ele>994.1094918972</ele>
        <time>2019-07-06T07:56:37Z</time>
      </trkpt>
      <trkpt lat="45.57212" lon="6.70106">
        <ele>994.48964561327</ele>
        <time>2019-07-06T07:56:40Z</time>
      </trkpt>
      <trkpt lat="45.57213" lon="6.70104">
        <ele>994.62731897963</ele>
        <time>2019-07-06T07:56:42Z</time>
      </trkpt>
      <trkpt lat="45.57214" lon="6.70101">
        <ele>995.39426700236</ele>
        <time>2019-07-06T07:56:44Z</time>
      </trkpt>
      <trkpt lat="45.57215" lon="6.70098">
        <ele>996.03623213688</ele>
        <time>2019-07-06T07:56:46Z</time>
      </trkpt>
      <trkpt lat="45.57216" lon="6.70095">
        <ele>996.83708416127</ele>
        <time>2019-07-06T07:56:48Z</time>
      </trkpt>
      <trkpt lat="45.57217" lon="6.70092">
        <ele>997.68620975338</ele>
        <time>2019-07-06T07:56:51Z</time>
      </trkpt>
      <trkpt lat="45.57216" lon="6.70088">
        <ele>997.50903641804</ele>
        <time>2019-07-06T07:56:54Z</time>
      </trkpt>
      <trkpt lat="45.57215" lon="6.70086">
        <ele>996.6699445283</ele>
        <time>2019-07-06T07:56:56Z</time>
      </trkpt>
      <trkpt lat="45.57213" lon="6.70084">
        <ele>995.83796352152</ele>
        <time>2019-07-06T07:56:58Z</time>
      </trkpt>
      <trkpt lat="45.57213" lon="6.70081">
        <ele>995.26002457082</ele>
        <time>2019-07-06T07:57:00Z</time>
      </trkpt>
      <trkpt lat="45.57213" lon="6.70078">
        <ele>995.09163653874</ele>
        <time>2019-07-06T07:57:02Z</time>
      </trkpt>
      <trkpt lat="45.57212" lon="6.70076">
        <ele>994.99575588107</ele>
        <time>2019-07-06T07:57:04Z</time>
      </trkpt>
      <trkpt lat="45.57213" lon="6.70073">
        <ele>994.5801510784</ele>
        <time>2019-07-06T07:57:06Z</time>
      </trkpt>
      <trkpt lat="45.57213" lon="6.7007">
        <ele>995.25808121202</ele>
        <time>2019-07-06T07:57:08Z</time>
      </trkpt>
      <trkpt lat="45.57214" lon="6.70066">
        <ele>995.77199342133</ele>
        <time>2019-07-06T07:57:11Z</time>
      </trkpt>
      <trkpt lat="45.57213" lon="6.70062">
        <ele>995.68832605146</ele>
        <time>2019-07-06T07:57:13Z</time>
      </trkpt>
      <trkpt lat="45.57214" lon="6.70059">
        <ele>995.58055860307</ele>
        <time>2019-07-06T07:57:14Z</time>
      </trkpt>
      <trkpt lat="45.57214" lon="6.70057">
        <ele>995.72139318636</ele>
        <time>2019-07-06T07:57:15Z</time>
      </trkpt>
      <trkpt lat="45.57214" lon="6.70054">
        <ele>995.81105719717</ele>
        <time>2019-07-06T07:57:18Z</time>
      </trkpt>
      <trkpt lat="45.57214" lon="6.70051">
        <ele>995.07018641578</ele>
        <time>2019-07-06T07:57:20Z</time>
      </trkpt>
      <trkpt lat="45.57214" lon="6.70048">
        <ele>994.64253623942</ele>
        <time>2019-07-06T07:57:23Z</time>
      </trkpt>
      <trkpt lat="45.57216" lon="6.70045">
        <ele>994.23996482925</ele>
        <time>2019-07-06T07:57:25Z</time>
      </trkpt>
      <trkpt lat="45.57217" lon="6.70042">
        <ele>994.23573037492</ele>
        <time>2019-07-06T07:57:27Z</time>
      </trkpt>
      <trkpt lat="45.57218" lon="6.70039">
        <ele>994.22878861631</ele>
        <time>2019-07-06T07:57:29Z</time>
      </trkpt>
      <trkpt lat="45.57218" lon="6.70036">
        <ele>993.6450375581</ele>
        <time>2019-07-06T07:57:31Z</time>
      </trkpt>
      <trkpt lat="45.57219" lon="6.70033">
        <ele>993.04949789908</ele>
        <time>2019-07-06T07:57:33Z</time>
      </trkpt>
      <trkpt lat="45.57219" lon="6.7003">
        <ele>992.18975934012</ele>
        <time>2019-07-06T07:57:37Z</time>
      </trkpt>
      <trkpt lat="45.5722" lon="6.70026">
        <ele>991.24700810518</ele>
        <time>2019-07-06T07:57:39Z</time>
      </trkpt>
      <trkpt lat="45.57222" lon="6.70023">
        <ele>991.74710451861</ele>
        <time>2019-07-06T07:57:41Z</time>
      </trkpt>
      <trkpt lat="45.57222" lon="6.7002">
        <ele>992.11763160579</ele>
        <time>2019-07-06T07:57:43Z</time>
      </trkpt>
      <trkpt lat="45.57222" lon="6.70017">
        <ele>992.0702174919</ele>
        <time>2019-07-06T07:57:45Z</time>
      </trkpt>
      <trkpt lat="45.57221" lon="6.70014">
        <ele>991.98000702264</ele>
        <time>2019-07-06T07:57:47Z</time>
      </trkpt>
      <trkpt lat="45.57221" lon="6.70011">
        <ele>991.7145152739</ele>
        <time>2019-07-06T07:57:50Z</time>
      </trkpt>
      <trkpt lat="45.57222" lon="6.70007">
        <ele>991.8776911884</ele>
        <time>2019-07-06T07:57:53Z</time>
      </trkpt>
      <trkpt lat="45.57223" lon="6.70004">
        <ele>992.10911569515</ele>
        <time>2019-07-06T07:57:55Z</time>
      </trkpt>
      <trkpt lat="45.57223" lon="6.70001">
        <ele>992.7028679285</ele>
        <time>2019-07-06T07:57:57Z</time>
      </trkpt>
      <trkpt lat="45.57224" lon="6.69998">
        <ele>993.08975443998</ele>
        <time>2019-07-06T07:58:03Z</time>
      </trkpt>
      <trkpt lat="45.57225" lon="6.69996">
        <ele>993.26409441527</ele>
        <time>2019-07-06T07:58:05Z</time>
      </trkpt>
      <trkpt lat="45.57227" lon="6.69994">
        <ele>993.7936292175</ele>
        <time>2019-07-06T07:58:07Z</time>
      </trkpt>
      <trkpt lat="45.57228" lon="6.69991">
        <ele>997.95639375442</ele>
        <time>2019-07-06T07:58:12Z</time>
      </trkpt>
      <trkpt lat="45.5723" lon="6.69989">
        <ele>999.06178016221</ele>
        <time>2019-07-06T07:58:14Z</time>
      </trkpt>
      <trkpt lat="45.57231" lon="6.69987">
        <ele>1000.4056514091</ele>
        <time>2019-07-06T07:58:16Z</time>
      </trkpt>
      <trkpt lat="45.57233" lon="6.69985">
        <ele>1001.7692219575</ele>
        <time>2019-07-06T07:58:18Z</time>
      </trkpt>
      <trkpt lat="45.57232" lon="6.69982">
        <ele>1002.4943405288</ele>
        <time>2019-07-06T07:58:22Z</time>
      </trkpt>
      <trkpt lat="45.57234" lon="6.69979">
        <ele>1003.3100783311</ele>
        <time>2019-07-06T07:58:24Z</time>
      </trkpt>
      <trkpt lat="45.57236" lon="6.69977">
        <ele>1004.8107283849</ele>
        <time>2019-07-06T07:58:26Z</time>
      </trkpt>
      <trkpt lat="45.57237" lon="6.69974">
        <ele>1005.9440347151</ele>
        <time>2019-07-06T07:58:31Z</time>
      </trkpt>
      <trkpt lat="45.57238" lon="6.69972">
        <ele>1006.6772737816</ele>
        <time>2019-07-06T07:58:35Z</time>
      </trkpt>
      <trkpt lat="45.5724" lon="6.69968">
        <ele>1007.008546541</ele>
        <time>2019-07-06T07:58:40Z</time>
      </trkpt>
      <trkpt lat="45.5724" lon="6.69964">
        <ele>1007.3263021142</ele>
        <time>2019-07-06T07:58:43Z</time>
      </trkpt>
      <trkpt lat="45.5724" lon="6.69961">
        <ele>1007.4489045388</ele>
        <time>2019-07-06T07:58:45Z</time>
      </trkpt>
      <trkpt lat="45.5724" lon="6.69958">
        <ele>1007.5518290071</ele>
        <time>2019-07-06T07:58:50Z</time>
      </trkpt>
      <trkpt lat="45.57242" lon="6.69955">
        <ele>1007.841217589</ele>
        <time>2019-07-06T07:58:53Z</time>
      </trkpt>
      <trkpt lat="45.57243" lon="6.69953">
        <ele>1008.1776062855</ele>
        <time>2019-07-06T07:58:57Z</time>
      </trkpt>
      <trkpt lat="45.57244" lon="6.69951">
        <ele>1008.6537102305</ele>
        <time>2019-07-06T07:59:04Z</time>
      </trkpt>
      <trkpt lat="45.57244" lon="6.69948">
        <ele>1008.6471075562</ele>
        <time>2019-07-06T07:59:07Z</time>
      </trkpt>
      <trkpt lat="45.57246" lon="6.69946">
        <ele>1008.8954878373</ele>
        <time>2019-07-06T07:59:09Z</time>
      </trkpt>
      <trkpt lat="45.57249" lon="6.69945">
        <ele>1009.858868857</ele>
        <time>2019-07-06T07:59:11Z</time>
      </trkpt>
      <trkpt lat="45.5725" lon="6.69942">
        <ele>1010.8704777539</ele>
        <time>2019-07-06T07:59:14Z</time>
      </trkpt>
      <trkpt lat="45.57253" lon="6.69941">
        <ele>1012.2798675354</ele>
        <time>2019-07-06T07:59:16Z</time>
      </trkpt>
      <trkpt lat="45.57254" lon="6.69938">
        <ele>1013.1631557692</ele>
        <time>2019-07-06T07:59:18Z</time>
      </trkpt>
      <trkpt lat="45.57254" lon="6.69935">
        <ele>1014.555218198</ele>
        <time>2019-07-06T07:59:21Z</time>
      </trkpt>
      <trkpt lat="45.57254" lon="6.69932">
        <ele>1015.0254351685</ele>
        <time>2019-07-06T07:59:25Z</time>
      </trkpt>
      <trkpt lat="45.57256" lon="6.6993">
        <ele>1016.1649757411</ele>
        <time>2019-07-06T07:59:28Z</time>
      </trkpt>
      <trkpt lat="45.57258" lon="6.6993">
        <ele>1016.7237506853</ele>
        <time>2019-07-06T07:59:32Z</time>
      </trkpt>
      <trkpt lat="45.57259" lon="6.69933">
        <ele>1016.6818724209</ele>
        <time>2019-07-06T07:59:35Z</time>
      </trkpt>
      <trkpt lat="45.57261" lon="6.69935">
        <ele>1016.382620154</ele>
        <time>2019-07-06T07:59:37Z</time>
      </trkpt>
      <trkpt lat="45.57263" lon="6.69936">
        <ele>1016.4439525825</ele>
        <time>2019-07-06T07:59:39Z</time>
      </trkpt>
      <trkpt lat="45.57265" lon="6.69938">
        <ele>1016.4811393931</ele>
        <time>2019-07-06T07:59:41Z</time>
      </trkpt>
      <trkpt lat="45.57267" lon="6.6994">
        <ele>1016.5604040834</ele>
        <time>2019-07-06T07:59:43Z</time>
      </trkpt>
      <trkpt lat="45.57269" lon="6.69942">
        <ele>1017.1296293475</ele>
        <time>2019-07-06T07:59:45Z</time>
      </trkpt>
      <trkpt lat="45.5727" lon="6.69942">
        <ele>1017.3084551451</ele>
        <time>2019-07-06T07:59:47Z</time>
      </trkpt>
      <trkpt lat="45.57271" lon="6.69939">
        <ele>1017.5915705359</ele>
        <time>2019-07-06T07:59:48Z</time>
      </trkpt>
      <trkpt lat="45.57271" lon="6.69936">
        <ele>1018.1485441843</ele>
        <time>2019-07-06T07:59:49Z</time>
      </trkpt>
      <trkpt lat="45.57271" lon="6.69933">
        <ele>1018.6841240298</ele>
        <time>2019-07-06T07:59:51Z</time>
      </trkpt>
      <trkpt lat="45.57272" lon="6.6993">
        <ele>1018.9086570743</ele>
        <time>2019-07-06T07:59:53Z</time>
      </trkpt>
      <trkpt lat="45.57273" lon="6.69926">
        <ele>1019.260412796</ele>
        <time>2019-07-06T07:59:56Z</time>
      </trkpt>
      <trkpt lat="45.57273" lon="6.69924">
        <ele>1019.5439371592</ele>
        <time>2019-07-06T07:59:59Z</time>
      </trkpt>
      <trkpt lat="45.57274" lon="6.6992">
        <ele>1019.713937141</ele>
        <time>2019-07-06T08:00:03Z</time>
      </trkpt>
      <trkpt lat="45.57273" lon="6.69916">
        <ele>1019.9316268896</ele>
        <time>2019-07-06T08:00:06Z</time>
      </trkpt>
      <trkpt lat="45.57272" lon="6.69913">
        <ele>1019.9827178703</ele>
        <time>2019-07-06T08:00:09Z</time>
      </trkpt>
      <trkpt lat="45.5727" lon="6.6991">
        <ele>1019.982768501</ele>
        <time>2019-07-06T08:00:11Z</time>
      </trkpt>
      <trkpt lat="45.57269" lon="6.69908">
        <ele>1019.9827690073</ele>
        <time>2019-07-06T08:00:13Z</time>
      </trkpt>
      <trkpt lat="45.57267" lon="6.69905">
        <ele>1019.9827690124</ele>
        <time>2019-07-06T08:00:16Z</time>
      </trkpt>
      <trkpt lat="45.57266" lon="6.69903">
        <ele>1019.9827690125</ele>
        <time>2019-07-06T08:00:19Z</time>
      </trkpt>
      <trkpt lat="45.57263" lon="6.69902">
        <ele>1019.9827690125</ele>
        <time>2019-07-06T08:00:22Z</time>
      </trkpt>
      <trkpt lat="45.57261" lon="6.69901">
        <ele>1019.9827690125</ele>
        <time>2019-07-06T08:00:25Z</time>
      </trkpt>
      <trkpt lat="45.57259" lon="6.69899">
        <ele>1019.9827690125</ele>
        <time>2019-07-06T08:00:27Z</time>
      </trkpt>
      <trkpt lat="45.57259" lon="6.69896">
        <ele>1019.9827690125</ele>
        <time>2019-07-06T08:00:30Z</time>
      </trkpt>
      <trkpt lat="45.57259" lon="6.69896">
        <ele>1019.9827690125</ele>
        <time>2019-07-06T08:00:31Z</time>
      </trkpt>
      <trkpt lat="45.57257" lon="6.69894">
        <ele>1019.9827690125</ele>
        <time>2019-07-06T08:00:34Z</time>
      </trkpt>
      <trkpt lat="45.57256" lon="6.69892">
        <ele>1019.9827690125</ele>
        <time>2019-07-06T08:00:35Z</time>
      </trkpt>
      <trkpt lat="45.57254" lon="6.69888">
        <ele>1019.9827690125</ele>
        <time>2019-07-06T08:00:37Z</time>
      </trkpt>
      <trkpt lat="45.57253" lon="6.69887">
        <ele>1020.0080375671</ele>
        <time>2019-07-06T08:00:38Z</time>
      </trkpt>
      <trkpt lat="45.57252" lon="6.69884">
        <ele>1020.0609499207</ele>
        <time>2019-07-06T08:00:41Z</time>
      </trkpt>
      <trkpt lat="45.5725" lon="6.69883">
        <ele>1020.003962916</ele>
        <time>2019-07-06T08:00:44Z</time>
      </trkpt>
      <trkpt lat="45.57248" lon="6.69882">
        <ele>1019.2380256184</ele>
        <time>2019-07-06T08:00:49Z</time>
      </trkpt>
      <trkpt lat="45.57247" lon="6.69879">
        <ele>1019.0830669398</ele>
        <time>2019-07-06T08:00:51Z</time>
      </trkpt>
      <trkpt lat="45.57247" lon="6.69876">
        <ele>1019.0515587297</ele>
        <time>2019-07-06T08:00:55Z</time>
      </trkpt>
      <trkpt lat="45.57247" lon="6.69873">
        <ele>1018.9556150516</ele>
        <time>2019-07-06T08:00:59Z</time>
      </trkpt>
      <trkpt lat="45.57249" lon="6.6987">
        <ele>1019.3667997198</ele>
        <time>2019-07-06T08:01:02Z</time>
      </trkpt>
      <trkpt lat="45.5725" lon="6.69868">
        <ele>1019.5621388801</ele>
        <time>2019-07-06T08:01:03Z</time>
      </trkpt>
      <trkpt lat="45.57251" lon="6.69864">
        <ele>1020.028814176</ele>
        <time>2019-07-06T08:01:05Z</time>
      </trkpt>
      <trkpt lat="45.57251" lon="6.69861">
        <ele>1020.1787751184</ele>
        <time>2019-07-06T08:01:07Z</time>
      </trkpt>
      <trkpt lat="45.57253" lon="6.6986">
        <ele>1020.7021465371</ele>
        <time>2019-07-06T08:01:10Z</time>
      </trkpt>
      <trkpt lat="45.57254" lon="6.69858">
        <ele>1021.1664557076</ele>
        <time>2019-07-06T08:01:12Z</time>
      </trkpt>
      <trkpt lat="45.57256" lon="6.69855">
        <ele>1021.8717598281</ele>
        <time>2019-07-06T08:01:15Z</time>
      </trkpt>
      <trkpt lat="45.57256" lon="6.69852">
        <ele>1021.965465073</ele>
        <time>2019-07-06T08:01:17Z</time>
      </trkpt>
      <trkpt lat="45.57257" lon="6.6985">
        <ele>1022.1722749281</ele>
        <time>2019-07-06T08:01:19Z</time>
      </trkpt>
      <trkpt lat="45.57258" lon="6.69846">
        <ele>1022.4099981912</ele>
        <time>2019-07-06T08:01:22Z</time>
      </trkpt>
      <trkpt lat="45.57258" lon="6.69843">
        <ele>1022.5890371538</ele>
        <time>2019-07-06T08:01:24Z</time>
      </trkpt>
      <trkpt lat="45.57259" lon="6.6984">
        <ele>1023.0265889288</ele>
        <time>2019-07-06T08:01:28Z</time>
      </trkpt>
      <trkpt lat="45.57261" lon="6.69837">
        <ele>1021.365674837</ele>
        <time>2019-07-06T08:01:30Z</time>
      </trkpt>
      <trkpt lat="45.57262" lon="6.69835">
        <ele>1019.5813337224</ele>
        <time>2019-07-06T08:01:33Z</time>
      </trkpt>
      <trkpt lat="45.57264" lon="6.69835">
        <ele>1016.2307618723</ele>
        <time>2019-07-06T08:01:38Z</time>
      </trkpt>
      <trkpt lat="45.57266" lon="6.69833">
        <ele>1015.2279825573</ele>
        <time>2019-07-06T08:01:42Z</time>
      </trkpt>
      <trkpt lat="45.57269" lon="6.69834">
        <ele>1014.9771869062</ele>
        <time>2019-07-06T08:01:49Z</time>
      </trkpt>
      <trkpt lat="45.57271" lon="6.69834">
        <ele>1016.2501635092</ele>
        <time>2019-07-06T08:01:51Z</time>
      </trkpt>
      <trkpt lat="45.57273" lon="6.69835">
        <ele>1017.3771350453</ele>
        <time>2019-07-06T08:01:53Z</time>
      </trkpt>
      <trkpt lat="45.57274" lon="6.69837">
        <ele>1018.4539017722</ele>
        <time>2019-07-06T08:01:55Z</time>
      </trkpt>
      <trkpt lat="45.57276" lon="6.69839">
        <ele>1019.0986740941</ele>
        <time>2019-07-06T08:01:57Z</time>
      </trkpt>
      <trkpt lat="45.57277" lon="6.69841">
        <ele>1019.9373643517</ele>
        <time>2019-07-06T08:02:00Z</time>
      </trkpt>
      <trkpt lat="45.57278" lon="6.69844">
        <ele>1028.1222390786</ele>
        <time>2019-07-06T08:02:02Z</time>
      </trkpt>
      <trkpt lat="45.57279" lon="6.69846">
        <ele>1029.6050755783</ele>
        <time>2019-07-06T08:02:04Z</time>
      </trkpt>
      <trkpt lat="45.57279" lon="6.69849">
        <ele>1029.4362549125</ele>
        <time>2019-07-06T08:02:08Z</time>
      </trkpt>
      <trkpt lat="45.57279" lon="6.69851">
        <ele>1029.4293311409</ele>
        <time>2019-07-06T08:02:11Z</time>
      </trkpt>
      <trkpt lat="45.5728" lon="6.69853">
        <ele>1029.7237910302</ele>
        <time>2019-07-06T08:02:13Z</time>
      </trkpt>
      <trkpt lat="45.57282" lon="6.69854">
        <ele>1030.6015345331</ele>
        <time>2019-07-06T08:02:17Z</time>
      </trkpt>
      <trkpt lat="45.57284" lon="6.69855">
        <ele>1031.0626505153</ele>
        <time>2019-07-06T08:02:19Z</time>
      </trkpt>
      <trkpt lat="45.57287" lon="6.69855">
        <ele>1031.9464427721</ele>
        <time>2019-07-06T08:02:23Z</time>
      </trkpt>
      <trkpt lat="45.57289" lon="6.69855">
        <ele>1032.7325522344</ele>
        <time>2019-07-06T08:02:25Z</time>
      </trkpt>
      <trkpt lat="45.57292" lon="6.69855">
        <ele>1033.4185664052</ele>
        <time>2019-07-06T08:02:27Z</time>
      </trkpt>
      <trkpt lat="45.57293" lon="6.69857">
        <ele>1034.0412541836</ele>
        <time>2019-07-06T08:02:29Z</time>
      </trkpt>
      <trkpt lat="45.57296" lon="6.69858">
        <ele>1034.9257818433</ele>
        <time>2019-07-06T08:02:32Z</time>
      </trkpt>
      <trkpt lat="45.57298" lon="6.69858">
        <ele>1035.796527577</ele>
        <time>2019-07-06T08:02:35Z</time>
      </trkpt>
      <trkpt lat="45.573" lon="6.69859">
        <ele>1036.106051521</ele>
        <time>2019-07-06T08:02:38Z</time>
      </trkpt>
      <trkpt lat="45.57302" lon="6.69859">
        <ele>1036.9199930485</ele>
        <time>2019-07-06T08:02:40Z</time>
      </trkpt>
      <trkpt lat="45.57304" lon="6.69858">
        <ele>1037.582356505</ele>
        <time>2019-07-06T08:02:43Z</time>
      </trkpt>
      <trkpt lat="45.57306" lon="6.69859">
        <ele>1038.3659319863</ele>
        <time>2019-07-06T08:02:47Z</time>
      </trkpt>
      <trkpt lat="45.57309" lon="6.69859">
        <ele>1039.1252013229</ele>
        <time>2019-07-06T08:02:51Z</time>
      </trkpt>
      <trkpt lat="45.5731" lon="6.69859">
        <ele>1039.7435353766</ele>
        <time>2019-07-06T08:02:53Z</time>
      </trkpt>
      <trkpt lat="45.57313" lon="6.69861">
        <ele>1040.5633112464</ele>
        <time>2019-07-06T08:02:55Z</time>
      </trkpt>
      <trkpt lat="45.57315" lon="6.69862">
        <ele>1041.2889821496</ele>
        <time>2019-07-06T08:02:57Z</time>
      </trkpt>
      <trkpt lat="45.57318" lon="6.69866">
        <ele>1041.600495166</ele>
        <time>2019-07-06T08:03:01Z</time>
      </trkpt>
      <trkpt lat="45.5732" lon="6.69868">
        <ele>1041.7248654634</ele>
        <time>2019-07-06T08:03:03Z</time>
      </trkpt>
      <trkpt lat="45.57322" lon="6.6987">
        <ele>1042.4272786</ele>
        <time>2019-07-06T08:03:05Z</time>
      </trkpt>
      <trkpt lat="45.57324" lon="6.6987">
        <ele>1043.2743173798</ele>
        <time>2019-07-06T08:03:07Z</time>
      </trkpt>
      <trkpt lat="45.57326" lon="6.69872">
        <ele>1044.1450108782</ele>
        <time>2019-07-06T08:03:10Z</time>
      </trkpt>
      <trkpt lat="45.57328" lon="6.69872">
        <ele>1045.0533941167</ele>
        <time>2019-07-06T08:03:12Z</time>
      </trkpt>
      <trkpt lat="45.57329" lon="6.6987">
        <ele>1045.8565709487</ele>
        <time>2019-07-06T08:03:22Z</time>
      </trkpt>
      <trkpt lat="45.57329" lon="6.69867">
        <ele>1046.0097563926</ele>
        <time>2019-07-06T08:03:26Z</time>
      </trkpt>
      <trkpt lat="45.57327" lon="6.69865">
        <ele>1045.7552923042</ele>
        <time>2019-07-06T08:03:28Z</time>
      </trkpt>
      <trkpt lat="45.57325" lon="6.69862">
        <ele>1045.1196495188</ele>
        <time>2019-07-06T08:03:30Z</time>
      </trkpt>
      <trkpt lat="45.57325" lon="6.69858">
        <ele>1044.9915395731</ele>
        <time>2019-07-06T08:03:34Z</time>
      </trkpt>
      <trkpt lat="45.57324" lon="6.69855">
        <ele>1044.7991103802</ele>
        <time>2019-07-06T08:03:36Z</time>
      </trkpt>
      <trkpt lat="45.57322" lon="6.69852">
        <ele>1044.559991264</ele>
        <time>2019-07-06T08:03:38Z</time>
      </trkpt>
      <trkpt lat="45.57321" lon="6.69849">
        <ele>1043.8054760494</ele>
        <time>2019-07-06T08:03:40Z</time>
      </trkpt>
      <trkpt lat="45.57321" lon="6.69846">
        <ele>1043.7162365613</ele>
        <time>2019-07-06T08:03:42Z</time>
      </trkpt>
      <trkpt lat="45.57319" lon="6.69844">
        <ele>1043.377575478</ele>
        <time>2019-07-06T08:03:45Z</time>
      </trkpt>
      <trkpt lat="45.57318" lon="6.69842">
        <ele>1042.7292854365</ele>
        <time>2019-07-06T08:03:47Z</time>
      </trkpt>
      <trkpt lat="45.57316" lon="6.69839">
        <ele>1042.9125786706</ele>
        <time>2019-07-06T08:03:51Z</time>
      </trkpt>
      <trkpt lat="45.57313" lon="6.69838">
        <ele>1042.9517220225</ele>
        <time>2019-07-06T08:03:54Z</time>
      </trkpt>
      <trkpt lat="45.57311" lon="6.69835">
        <ele>1042.6950988914</ele>
        <time>2019-07-06T08:03:56Z</time>
      </trkpt>
      <trkpt lat="45.57309" lon="6.69833">
        <ele>1041.6194653417</ele>
        <time>2019-07-06T08:03:59Z</time>
      </trkpt>
      <trkpt lat="45.57308" lon="6.69831">
        <ele>1041.3338783129</ele>
        <time>2019-07-06T08:04:02Z</time>
      </trkpt>
      <trkpt lat="45.57307" lon="6.69829">
        <ele>1042.3913644017</ele>
        <time>2019-07-06T08:04:04Z</time>
      </trkpt>
      <trkpt lat="45.57307" lon="6.69825">
        <ele>1043.3209876925</ele>
        <time>2019-07-06T08:04:07Z</time>
      </trkpt>
      <trkpt lat="45.57309" lon="6.69823">
        <ele>1043.6351408304</ele>
        <time>2019-07-06T08:04:10Z</time>
      </trkpt>
      <trkpt lat="45.5731" lon="6.6982">
        <ele>1043.8344868672</ele>
        <time>2019-07-06T08:04:12Z</time>
      </trkpt>
      <trkpt lat="45.57312" lon="6.69817">
        <ele>1044.0933597706</ele>
        <time>2019-07-06T08:04:15Z</time>
      </trkpt>
      <trkpt lat="45.57312" lon="6.69813">
        <ele>1044.4620752174</ele>
        <time>2019-07-06T08:04:17Z</time>
      </trkpt>
      <trkpt lat="45.57313" lon="6.6981">
        <ele>1044.3066558803</ele>
        <time>2019-07-06T08:04:19Z</time>
      </trkpt>
      <trkpt lat="45.57314" lon="6.69808">
        <ele>1043.3015388878</ele>
        <time>2019-07-06T08:04:22Z</time>
      </trkpt>
      <trkpt lat="45.57315" lon="6.69806">
        <ele>1043.3929060814</ele>
        <time>2019-07-06T08:04:25Z</time>
      </trkpt>
      <trkpt lat="45.57316" lon="6.69802">
        <ele>1043.8098445956</ele>
        <time>2019-07-06T08:04:27Z</time>
      </trkpt>
      <trkpt lat="45.57317" lon="6.698">
        <ele>1043.9893780927</ele>
        <time>2019-07-06T08:04:29Z</time>
      </trkpt>
      <trkpt lat="45.57319" lon="6.69798">
        <ele>1044.2113296808</ele>
        <time>2019-07-06T08:04:32Z</time>
      </trkpt>
      <trkpt lat="45.57321" lon="6.69796">
        <ele>1043.7259523603</ele>
        <time>2019-07-06T08:04:35Z</time>
      </trkpt>
      <trkpt lat="45.57322" lon="6.69792">
        <ele>1043.6047573462</ele>
        <time>2019-07-06T08:04:40Z</time>
      </trkpt>
      <trkpt lat="45.57323" lon="6.69789">
        <ele>1044.0270226815</ele>
        <time>2019-07-06T08:04:43Z</time>
      </trkpt>
      <trkpt lat="45.57323" lon="6.69786">
        <ele>1044.7192754838</ele>
        <time>2019-07-06T08:04:46Z</time>
      </trkpt>
      <trkpt lat="45.57324" lon="6.69783">
        <ele>1044.9755485421</ele>
        <time>2019-07-06T08:04:49Z</time>
      </trkpt>
      <trkpt lat="45.57326" lon="6.69781">
        <ele>1045.4471391592</ele>
        <time>2019-07-06T08:04:51Z</time>
      </trkpt>
      <trkpt lat="45.57326" lon="6.69778">
        <ele>1047.0858411375</ele>
        <time>2019-07-06T08:04:55Z</time>
      </trkpt>
      <trkpt lat="45.57327" lon="6.69774">
        <ele>1046.8945022686</ele>
        <time>2019-07-06T08:04:57Z</time>
      </trkpt>
      <trkpt lat="45.57328" lon="6.69771">
        <ele>1045.6219772788</ele>
        <time>2019-07-06T08:04:59Z</time>
      </trkpt>
      <trkpt lat="45.57328" lon="6.69766">
        <ele>1044.5950727719</ele>
        <time>2019-07-06T08:05:01Z</time>
      </trkpt>
      <trkpt lat="45.57327" lon="6.69762">
        <ele>1043.7549042679</ele>
        <time>2019-07-06T08:05:03Z</time>
      </trkpt>
      <trkpt lat="45.57327" lon="6.69759">
        <ele>1043.2241069229</ele>
        <time>2019-07-06T08:05:06Z</time>
      </trkpt>
      <trkpt lat="45.57327" lon="6.69756">
        <ele>1042.6000416478</ele>
        <time>2019-07-06T08:05:09Z</time>
      </trkpt>
      <trkpt lat="45.57326" lon="6.69753">
        <ele>1042.3729337571</ele>
        <time>2019-07-06T08:05:11Z</time>
      </trkpt>
      <trkpt lat="45.57325" lon="6.69751">
        <ele>1041.7015561841</ele>
        <time>2019-07-06T08:05:14Z</time>
      </trkpt>
      <trkpt lat="45.57323" lon="6.6975">
        <ele>1041.7520031026</ele>
        <time>2019-07-06T08:05:15Z</time>
      </trkpt>
      <trkpt lat="45.5732" lon="6.69749">
        <ele>1042.1147391452</ele>
        <time>2019-07-06T08:05:17Z</time>
      </trkpt>
      <trkpt lat="45.57317" lon="6.69748">
        <ele>1042.3568864306</ele>
        <time>2019-07-06T08:05:20Z</time>
      </trkpt>
      <trkpt lat="45.57316" lon="6.69746">
        <ele>1043.4415523729</ele>
        <time>2019-07-06T08:05:24Z</time>
      </trkpt>
      <trkpt lat="45.57314" lon="6.69746">
        <ele>1044.001715716</ele>
        <time>2019-07-06T08:05:26Z</time>
      </trkpt>
      <trkpt lat="45.57313" lon="6.69745">
        <ele>1044.2172849529</ele>
        <time>2019-07-06T08:05:27Z</time>
      </trkpt>
      <trkpt lat="45.57311" lon="6.69744">
        <ele>1044.4892825223</ele>
        <time>2019-07-06T08:05:29Z</time>
      </trkpt>
      <trkpt lat="45.5731" lon="6.69741">
        <ele>1045.1920128503</ele>
        <time>2019-07-06T08:05:32Z</time>
      </trkpt>
      <trkpt lat="45.57309" lon="6.69739">
        <ele>1045.7544268155</ele>
        <time>2019-07-06T08:05:34Z</time>
      </trkpt>
      <trkpt lat="45.57306" lon="6.69736">
        <ele>1045.8573114133</ele>
        <time>2019-07-06T08:05:36Z</time>
      </trkpt>
      <trkpt lat="45.57305" lon="6.69734">
        <ele>1046.2407573223</ele>
        <time>2019-07-06T08:05:38Z</time>
      </trkpt>
      <trkpt lat="45.57303" lon="6.69731">
        <ele>1046.7208865466</ele>
        <time>2019-07-06T08:05:41Z</time>
      </trkpt>
      <trkpt lat="45.57302" lon="6.69727">
        <ele>1047.0534949495</ele>
        <time>2019-07-06T08:05:43Z</time>
      </trkpt>
      <trkpt lat="45.57301" lon="6.69725">
        <ele>1047.3543503657</ele>
        <time>2019-07-06T08:05:45Z</time>
      </trkpt>
      <trkpt lat="45.57301" lon="6.69722">
        <ele>1047.7677320268</ele>
        <time>2019-07-06T08:05:47Z</time>
      </trkpt>
      <trkpt lat="45.57301" lon="6.69719">
        <ele>1047.9208354304</ele>
        <time>2019-07-06T08:05:49Z</time>
      </trkpt>
      <trkpt lat="45.573" lon="6.69716">
        <ele>1046.9413712796</ele>
        <time>2019-07-06T08:05:53Z</time>
      </trkpt>
      <trkpt lat="45.57299" lon="6.69713">
        <ele>1045.9730352148</ele>
        <time>2019-07-06T08:05:56Z</time>
      </trkpt>
      <trkpt lat="45.57299" lon="6.69711">
        <ele>1045.536251919</ele>
        <time>2019-07-06T08:05:59Z</time>
      </trkpt>
      <trkpt lat="45.57298" lon="6.69707">
        <ele>1045.0879765214</ele>
        <time>2019-07-06T08:06:02Z</time>
      </trkpt>
      <trkpt lat="45.57296" lon="6.69705">
        <ele>1044.7917937534</ele>
        <time>2019-07-06T08:06:05Z</time>
      </trkpt>
      <trkpt lat="45.57295" lon="6.69702">
        <ele>1043.6687998964</ele>
        <time>2019-07-06T08:06:08Z</time>
      </trkpt>
      <trkpt lat="45.57294" lon="6.69699">
        <ele>1043.5113212078</ele>
        <time>2019-07-06T08:06:10Z</time>
      </trkpt>
      <trkpt lat="45.57295" lon="6.69696">
        <ele>1043.9575480661</ele>
        <time>2019-07-06T08:06:12Z</time>
      </trkpt>
      <trkpt lat="45.57293" lon="6.69695">
        <ele>1044.4934534668</ele>
        <time>2019-07-06T08:06:14Z</time>
      </trkpt>
      <trkpt lat="45.57291" lon="6.69693">
        <ele>1045.3164088462</ele>
        <time>2019-07-06T08:06:16Z</time>
      </trkpt>
      <trkpt lat="45.57291" lon="6.6969">
        <ele>1046.7833287586</ele>
        <time>2019-07-06T08:06:19Z</time>
      </trkpt>
      <trkpt lat="45.57291" lon="6.69688">
        <ele>1047.27909948</ele>
        <time>2019-07-06T08:06:21Z</time>
      </trkpt>
      <trkpt lat="45.57291" lon="6.69687">
        <ele>1047.9638983897</ele>
        <time>2019-07-06T08:06:23Z</time>
      </trkpt>
      <trkpt lat="45.57292" lon="6.69685">
        <ele>1049.6589216996</ele>
        <time>2019-07-06T08:06:28Z</time>
      </trkpt>
      <trkpt lat="45.57293" lon="6.69682">
        <ele>1051.0863537767</ele>
        <time>2019-07-06T08:06:30Z</time>
      </trkpt>
      <trkpt lat="45.57294" lon="6.69678">
        <ele>1053.5398675548</ele>
        <time>2019-07-06T08:06:34Z</time>
      </trkpt>
      <trkpt lat="45.57294" lon="6.69677">
        <ele>1054.2293946345</ele>
        <time>2019-07-06T08:06:35Z</time>
      </trkpt>
      <trkpt lat="45.57295" lon="6.69674">
        <ele>1055.6650490562</ele>
        <time>2019-07-06T08:06:37Z</time>
      </trkpt>
      <trkpt lat="45.57296" lon="6.69671">
        <ele>1056.4905252496</ele>
        <time>2019-07-06T08:06:38Z</time>
      </trkpt>
      <trkpt lat="45.57296" lon="6.69669">
        <ele>1057.264773921</ele>
        <time>2019-07-06T08:06:40Z</time>
      </trkpt>
      <trkpt lat="45.57297" lon="6.69665">
        <ele>1057.9926428638</ele>
        <time>2019-07-06T08:06:42Z</time>
      </trkpt>
      <trkpt lat="45.57297" lon="6.69664">
        <ele>1058.2321531988</ele>
        <time>2019-07-06T08:06:43Z</time>
      </trkpt>
      <trkpt lat="45.57297" lon="6.69661">
        <ele>1058.8640451719</ele>
        <time>2019-07-06T08:06:47Z</time>
      </trkpt>
      <trkpt lat="45.57296" lon="6.69659">
        <ele>1058.8574484281</ele>
        <time>2019-07-06T08:06:50Z</time>
      </trkpt>
      <trkpt lat="45.57295" lon="6.69656">
        <ele>1058.7558457535</ele>
        <time>2019-07-06T08:06:52Z</time>
      </trkpt>
      <trkpt lat="45.57296" lon="6.69653">
        <ele>1058.4863189734</ele>
        <time>2019-07-06T08:06:56Z</time>
      </trkpt>
      <trkpt lat="45.57297" lon="6.6965">
        <ele>1058.3436652788</ele>
        <time>2019-07-06T08:06:59Z</time>
      </trkpt>
      <trkpt lat="45.57297" lon="6.69648">
        <ele>1058.5464645565</ele>
        <time>2019-07-06T08:07:07Z</time>
      </trkpt>
      <trkpt lat="45.57297" lon="6.69651">
        <ele>1058.7045121025</ele>
        <time>2019-07-06T08:07:09Z</time>
      </trkpt>
      <trkpt lat="45.57299" lon="6.69651">
        <ele>1058.4947034505</ele>
        <time>2019-07-06T08:07:12Z</time>
      </trkpt>
      <trkpt lat="45.573" lon="6.69653">
        <ele>1058.4428408651</ele>
        <time>2019-07-06T08:07:13Z</time>
      </trkpt>
      <trkpt lat="45.57302" lon="6.69653">
        <ele>1058.1905362936</ele>
        <time>2019-07-06T08:07:15Z</time>
      </trkpt>
      <trkpt lat="45.57304" lon="6.69656">
        <ele>1057.8092726663</ele>
        <time>2019-07-06T08:07:18Z</time>
      </trkpt>
      <trkpt lat="45.57306" lon="6.69658">
        <ele>1057.8995943669</ele>
        <time>2019-07-06T08:07:21Z</time>
      </trkpt>
      <trkpt lat="45.57308" lon="6.69659">
        <ele>1057.941439796</ele>
        <time>2019-07-06T08:07:25Z</time>
      </trkpt>
      <trkpt lat="45.57309" lon="6.69659">
        <ele>1058.2751726461</ele>
        <time>2019-07-06T08:07:28Z</time>
      </trkpt>
      <trkpt lat="45.5731" lon="6.69656">
        <ele>1058.6378694714</ele>
        <time>2019-07-06T08:07:29Z</time>
      </trkpt>
      <trkpt lat="45.57311" lon="6.69652">
        <ele>1058.9403871359</ele>
        <time>2019-07-06T08:07:30Z</time>
      </trkpt>
      <trkpt lat="45.57311" lon="6.69649">
        <ele>1059.3829282135</ele>
        <time>2019-07-06T08:07:32Z</time>
      </trkpt>
      <trkpt lat="45.57312" lon="6.69646">
        <ele>1059.5668170118</ele>
        <time>2019-07-06T08:07:34Z</time>
      </trkpt>
      <trkpt lat="45.57312" lon="6.69642">
        <ele>1059.8261342281</ele>
        <time>2019-07-06T08:07:36Z</time>
      </trkpt>
      <trkpt lat="45.57311" lon="6.69639">
        <ele>1060.8155567622</ele>
        <time>2019-07-06T08:07:39Z</time>
      </trkpt>
      <trkpt lat="45.5731" lon="6.69637">
        <ele>1061.1564449473</ele>
        <time>2019-07-06T08:07:42Z</time>
      </trkpt>
      <trkpt lat="45.57308" lon="6.69634">
        <ele>1061.4284261056</ele>
        <time>2019-07-06T08:07:44Z</time>
      </trkpt>
      <trkpt lat="45.57306" lon="6.69631">
        <ele>1061.8247496507</ele>
        <time>2019-07-06T08:07:46Z</time>
      </trkpt>
      <trkpt lat="45.57304" lon="6.69629">
        <ele>1061.5812584275</ele>
        <time>2019-07-06T08:07:48Z</time>
      </trkpt>
      <trkpt lat="45.57302" lon="6.69628">
        <ele>1060.7216447047</ele>
        <time>2019-07-06T08:07:50Z</time>
      </trkpt>
      <trkpt lat="45.573" lon="6.69626">
        <ele>1059.8468054792</ele>
        <time>2019-07-06T08:07:53Z</time>
      </trkpt>
      <trkpt lat="45.57299" lon="6.69625">
        <ele>1060.3126517974</ele>
        <time>2019-07-06T08:07:56Z</time>
      </trkpt>
      <trkpt lat="45.57298" lon="6.69622">
        <ele>1060.9404301048</ele>
        <time>2019-07-06T08:07:58Z</time>
      </trkpt>
      <trkpt lat="45.57296" lon="6.6962">
        <ele>1062.3379812852</ele>
        <time>2019-07-06T08:08:05Z</time>
      </trkpt>
      <trkpt lat="45.57294" lon="6.69618">
        <ele>1062.3525283178</ele>
        <time>2019-07-06T08:08:07Z</time>
      </trkpt>
      <trkpt lat="45.57292" lon="6.69616">
        <ele>1062.322278725</ele>
        <time>2019-07-06T08:08:09Z</time>
      </trkpt>
      <trkpt lat="45.57291" lon="6.69615">
        <ele>1062.5761691061</ele>
        <time>2019-07-06T08:08:12Z</time>
      </trkpt>
      <trkpt lat="45.57289" lon="6.69613">
        <ele>1063.1760372971</ele>
        <time>2019-07-06T08:08:14Z</time>
      </trkpt>
      <trkpt lat="45.57286" lon="6.69613">
        <ele>1064.3113116634</ele>
        <time>2019-07-06T08:08:17Z</time>
      </trkpt>
      <trkpt lat="45.57285" lon="6.6961">
        <ele>1064.8561578643</ele>
        <time>2019-07-06T08:08:19Z</time>
      </trkpt>
      <trkpt lat="45.57281" lon="6.69609">
        <ele>1065.2687130415</ele>
        <time>2019-07-06T08:08:21Z</time>
      </trkpt>
      <trkpt lat="45.57279" lon="6.69607">
        <ele>1065.4151753355</ele>
        <time>2019-07-06T08:08:23Z</time>
      </trkpt>
      <trkpt lat="45.57278" lon="6.69604">
        <ele>1065.4774229374</ele>
        <time>2019-07-06T08:08:25Z</time>
      </trkpt>
      <trkpt lat="45.57276" lon="6.69603">
        <ele>1065.4976438684</ele>
        <time>2019-07-06T08:08:27Z</time>
      </trkpt>
      <trkpt lat="45.57274" lon="6.69601">
        <ele>1065.3037947222</ele>
        <time>2019-07-06T08:08:29Z</time>
      </trkpt>
      <trkpt lat="45.57273" lon="6.69598">
        <ele>1066.4544955445</ele>
        <time>2019-07-06T08:08:33Z</time>
      </trkpt>
      <trkpt lat="45.57271" lon="6.69595">
        <ele>1066.7402455844</ele>
        <time>2019-07-06T08:08:35Z</time>
      </trkpt>
      <trkpt lat="45.57271" lon="6.69592">
        <ele>1066.3733396488</ele>
        <time>2019-07-06T08:08:38Z</time>
      </trkpt>
      <trkpt lat="45.57269" lon="6.69589">
        <ele>1064.9110238495</ele>
        <time>2019-07-06T08:08:43Z</time>
      </trkpt>
      <trkpt lat="45.57269" lon="6.69587">
        <ele>1063.9842296117</ele>
        <time>2019-07-06T08:08:45Z</time>
      </trkpt>
      <trkpt lat="45.57268" lon="6.69584">
        <ele>1063.1631939934</ele>
        <time>2019-07-06T08:08:48Z</time>
      </trkpt>
      <trkpt lat="45.57267" lon="6.69582">
        <ele>1062.9615442473</ele>
        <time>2019-07-06T08:08:50Z</time>
      </trkpt>
      <trkpt lat="45.57266" lon="6.69579">
        <ele>1063.1559623344</ele>
        <time>2019-07-06T08:08:52Z</time>
      </trkpt>
      <trkpt lat="45.57265" lon="6.69577">
        <ele>1063.5959317604</ele>
        <time>2019-07-06T08:08:54Z</time>
      </trkpt>
      <trkpt lat="45.57262" lon="6.69576">
        <ele>1064.3062978552</ele>
        <time>2019-07-06T08:08:57Z</time>
      </trkpt>
      <trkpt lat="45.5726" lon="6.69576">
        <ele>1065.0302427779</ele>
        <time>2019-07-06T08:08:59Z</time>
      </trkpt>
      <trkpt lat="45.57258" lon="6.69575">
        <ele>1066.2465433394</ele>
        <time>2019-07-06T08:09:01Z</time>
      </trkpt>
      <trkpt lat="45.57256" lon="6.69573">
        <ele>1067.6617671474</ele>
        <time>2019-07-06T08:09:04Z</time>
      </trkpt>
      <trkpt lat="45.57255" lon="6.6957">
        <ele>1068.6440080746</ele>
        <time>2019-07-06T08:09:06Z</time>
      </trkpt>
      <trkpt lat="45.57254" lon="6.69568">
        <ele>1069.4785494956</ele>
        <time>2019-07-06T08:09:10Z</time>
      </trkpt>
      <trkpt lat="45.57253" lon="6.69566">
        <ele>1069.7344058471</ele>
        <time>2019-07-06T08:09:13Z</time>
      </trkpt>
      <trkpt lat="45.57252" lon="6.69564">
        <ele>1069.7751836722</ele>
        <time>2019-07-06T08:09:15Z</time>
      </trkpt>
      <trkpt lat="45.5725" lon="6.69562">
        <ele>1071.2645231212</ele>
        <time>2019-07-06T08:09:19Z</time>
      </trkpt>
      <trkpt lat="45.57249" lon="6.69559">
        <ele>1072.6070563743</ele>
        <time>2019-07-06T08:09:22Z</time>
      </trkpt>
      <trkpt lat="45.57248" lon="6.69556">
        <ele>1073.8921433698</ele>
        <time>2019-07-06T08:09:25Z</time>
      </trkpt>
      <trkpt lat="45.57246" lon="6.69555">
        <ele>1074.4602900889</ele>
        <time>2019-07-06T08:09:28Z</time>
      </trkpt>
      <trkpt lat="45.57245" lon="6.69552">
        <ele>1073.8001369063</ele>
        <time>2019-07-06T08:09:31Z</time>
      </trkpt>
      <trkpt lat="45.57243" lon="6.69551">
        <ele>1073.3766857718</ele>
        <time>2019-07-06T08:09:34Z</time>
      </trkpt>
      <trkpt lat="45.57241" lon="6.69549">
        <ele>1074.0462990443</ele>
        <time>2019-07-06T08:09:37Z</time>
      </trkpt>
      <trkpt lat="45.5724" lon="6.69545">
        <ele>1074.8853228017</ele>
        <time>2019-07-06T08:09:40Z</time>
      </trkpt>
      <trkpt lat="45.5724" lon="6.69543">
        <ele>1077.0014088799</ele>
        <time>2019-07-06T08:09:44Z</time>
      </trkpt>
      <trkpt lat="45.57238" lon="6.69541">
        <ele>1078.2177770367</ele>
        <time>2019-07-06T08:09:47Z</time>
      </trkpt>
      <trkpt lat="45.57237" lon="6.69537">
        <ele>1079.4253482208</ele>
        <time>2019-07-06T08:09:50Z</time>
      </trkpt>
      <trkpt lat="45.57237" lon="6.69534">
        <ele>1080.0720286108</ele>
        <time>2019-07-06T08:09:52Z</time>
      </trkpt>
      <trkpt lat="45.57237" lon="6.69531">
        <ele>1078.6143423153</ele>
        <time>2019-07-06T08:09:58Z</time>
      </trkpt>
      <trkpt lat="45.57236" lon="6.69528">
        <ele>1078.9768016388</ele>
        <time>2019-07-06T08:10:00Z</time>
      </trkpt>
      <trkpt lat="45.57235" lon="6.69525">
        <ele>1079.2887802698</ele>
        <time>2019-07-06T08:10:04Z</time>
      </trkpt>
      <trkpt lat="45.57234" lon="6.69523">
        <ele>1079.9478033315</ele>
        <time>2019-07-06T08:10:08Z</time>
      </trkpt>
      <trkpt lat="45.57235" lon="6.69519">
        <ele>1081.1478975195</ele>
        <time>2019-07-06T08:10:12Z</time>
      </trkpt>
      <trkpt lat="45.57235" lon="6.69516">
        <ele>1081.9686611502</ele>
        <time>2019-07-06T08:10:14Z</time>
      </trkpt>
      <trkpt lat="45.57237" lon="6.69513">
        <ele>1081.8800137243</ele>
        <time>2019-07-06T08:10:16Z</time>
      </trkpt>
      <trkpt lat="45.57238" lon="6.69509">
        <ele>1081.5148885257</ele>
        <time>2019-07-06T08:10:18Z</time>
      </trkpt>
      <trkpt lat="45.57239" lon="6.69506">
        <ele>1081.3066758562</ele>
        <time>2019-07-06T08:10:20Z</time>
      </trkpt>
      <trkpt lat="45.5724" lon="6.69503">
        <ele>1081.2269065592</ele>
        <time>2019-07-06T08:10:22Z</time>
      </trkpt>
      <trkpt lat="45.57241" lon="6.69501">
        <ele>1081.2276946041</ele>
        <time>2019-07-06T08:10:24Z</time>
      </trkpt>
      <trkpt lat="45.57243" lon="6.69498">
        <ele>1081.5748795562</ele>
        <time>2019-07-06T08:10:27Z</time>
      </trkpt>
      <trkpt lat="45.57243" lon="6.69495">
        <ele>1084.0883692951</ele>
        <time>2019-07-06T08:10:32Z</time>
      </trkpt>
      <trkpt lat="45.57243" lon="6.69492">
        <ele>1085.3473740019</ele>
        <time>2019-07-06T08:10:35Z</time>
      </trkpt>
      <trkpt lat="45.57242" lon="6.69489">
        <ele>1086.2999575166</ele>
        <time>2019-07-06T08:10:38Z</time>
      </trkpt>
      <trkpt lat="45.57242" lon="6.69484">
        <ele>1086.7131640806</ele>
        <time>2019-07-06T08:10:41Z</time>
      </trkpt>
      <trkpt lat="45.57242" lon="6.69481">
        <ele>1086.8490575272</ele>
        <time>2019-07-06T08:10:44Z</time>
      </trkpt>
      <trkpt lat="45.57242" lon="6.69478">
        <ele>1087.5859023027</ele>
        <time>2019-07-06T08:10:47Z</time>
      </trkpt>
      <trkpt lat="45.57242" lon="6.69475">
        <ele>1086.7645684352</ele>
        <time>2019-07-06T08:10:53Z</time>
      </trkpt>
      <trkpt lat="45.57241" lon="6.69471">
        <ele>1086.7566335589</ele>
        <time>2019-07-06T08:10:55Z</time>
      </trkpt>
      <trkpt lat="45.5724" lon="6.69469">
        <ele>1087.7696937815</ele>
        <time>2019-07-06T08:10:58Z</time>
      </trkpt>
      <trkpt lat="45.57239" lon="6.69466">
        <ele>1087.715106229</ele>
        <time>2019-07-06T08:11:01Z</time>
      </trkpt>
      <trkpt lat="45.57238" lon="6.69462">
        <ele>1087.3622002189</ele>
        <time>2019-07-06T08:11:03Z</time>
      </trkpt>
      <trkpt lat="45.57236" lon="6.69462">
        <ele>1087.3496554574</ele>
        <time>2019-07-06T08:11:04Z</time>
      </trkpt>
      <trkpt lat="45.57234" lon="6.69459">
        <ele>1087.4756736306</ele>
        <time>2019-07-06T08:11:06Z</time>
      </trkpt>
      <trkpt lat="45.57232" lon="6.69456">
        <ele>1087.535650837</ele>
        <time>2019-07-06T08:11:09Z</time>
      </trkpt>
      <trkpt lat="45.57232" lon="6.69453">
        <ele>1087.2812011956</ele>
        <time>2019-07-06T08:11:12Z</time>
      </trkpt>
      <trkpt lat="45.57233" lon="6.6945">
        <ele>1089.0169623395</ele>
        <time>2019-07-06T08:11:15Z</time>
      </trkpt>
      <trkpt lat="45.57232" lon="6.69447">
        <ele>1090.0596154961</ele>
        <time>2019-07-06T08:11:19Z</time>
      </trkpt>
      <trkpt lat="45.57231" lon="6.69444">
        <ele>1090.1249633703</ele>
        <time>2019-07-06T08:11:21Z</time>
      </trkpt>
      <trkpt lat="45.5723" lon="6.69442">
        <ele>1090.4263352414</ele>
        <time>2019-07-06T08:11:24Z</time>
      </trkpt>
      <trkpt lat="45.57231" lon="6.69438">
        <ele>1090.6324869894</ele>
        <time>2019-07-06T08:11:26Z</time>
      </trkpt>
      <trkpt lat="45.57231" lon="6.69435">
        <ele>1091.3212464421</ele>
        <time>2019-07-06T08:11:28Z</time>
      </trkpt>
      <trkpt lat="45.5723" lon="6.69432">
        <ele>1091.6264773643</ele>
        <time>2019-07-06T08:11:30Z</time>
      </trkpt>
      <trkpt lat="45.57231" lon="6.69429">
        <ele>1091.0563247014</ele>
        <time>2019-07-06T08:11:37Z</time>
      </trkpt>
      <trkpt lat="45.57229" lon="6.69427">
        <ele>1089.1378361782</ele>
        <time>2019-07-06T08:11:42Z</time>
      </trkpt>
      <trkpt lat="45.5723" lon="6.69425">
        <ele>1089.8164442917</ele>
        <time>2019-07-06T08:11:46Z</time>
      </trkpt>
      <trkpt lat="45.5723" lon="6.69422">
        <ele>1090.4080511105</ele>
        <time>2019-07-06T08:11:48Z</time>
      </trkpt>
      <trkpt lat="45.5723" lon="6.69419">
        <ele>1091.3000815691</ele>
        <time>2019-07-06T08:11:51Z</time>
      </trkpt>
      <trkpt lat="45.57231" lon="6.69416">
        <ele>1092.1658479353</ele>
        <time>2019-07-06T08:11:57Z</time>
      </trkpt>
      <trkpt lat="45.57232" lon="6.69413">
        <ele>1092.4679332283</ele>
        <time>2019-07-06T08:11:59Z</time>
      </trkpt>
      <trkpt lat="45.57234" lon="6.69409">
        <ele>1093.1461945948</ele>
        <time>2019-07-06T08:12:03Z</time>
      </trkpt>
      <trkpt lat="45.57235" lon="6.69406">
        <ele>1094.3743729715</ele>
        <time>2019-07-06T08:12:06Z</time>
      </trkpt>
      <trkpt lat="45.57237" lon="6.69404">
        <ele>1094.7086274094</ele>
        <time>2019-07-06T08:12:08Z</time>
      </trkpt>
      <trkpt lat="45.57239" lon="6.69403">
        <ele>1095.0271405064</ele>
        <time>2019-07-06T08:12:10Z</time>
      </trkpt>
      <trkpt lat="45.5724" lon="6.694">
        <ele>1094.4624812811</ele>
        <time>2019-07-06T08:12:12Z</time>
      </trkpt>
      <trkpt lat="45.57241" lon="6.69397">
        <ele>1093.5729889785</ele>
        <time>2019-07-06T08:12:14Z</time>
      </trkpt>
      <trkpt lat="45.57242" lon="6.69395">
        <ele>1092.5230816886</ele>
        <time>2019-07-06T08:12:17Z</time>
      </trkpt>
      <trkpt lat="45.57243" lon="6.69391">
        <ele>1092.3622640809</ele>
        <time>2019-07-06T08:12:19Z</time>
      </trkpt>
      <trkpt lat="45.57243" lon="6.69388">
        <ele>1092.4620434413</ele>
        <time>2019-07-06T08:12:21Z</time>
      </trkpt>
      <trkpt lat="45.57241" lon="6.69385">
        <ele>1092.0655898923</ele>
        <time>2019-07-06T08:12:25Z</time>
      </trkpt>
      <trkpt lat="45.57238" lon="6.69384">
        <ele>1091.2516021478</ele>
        <time>2019-07-06T08:12:28Z</time>
      </trkpt>
      <trkpt lat="45.57239" lon="6.6938">
        <ele>1091.5126190004</ele>
        <time>2019-07-06T08:12:32Z</time>
      </trkpt>
      <trkpt lat="45.57238" lon="6.69377">
        <ele>1092.4559017722</ele>
        <time>2019-07-06T08:12:35Z</time>
      </trkpt>
      <trkpt lat="45.57239" lon="6.69375">
        <ele>1092.3585262606</ele>
        <time>2019-07-06T08:12:39Z</time>
      </trkpt>
      <trkpt lat="45.57241" lon="6.69374">
        <ele>1093.4460117297</ele>
        <time>2019-07-06T08:12:42Z</time>
      </trkpt>
      <trkpt lat="45.57242" lon="6.69372">
        <ele>1095.3620250073</ele>
        <time>2019-07-06T08:12:47Z</time>
      </trkpt>
      <trkpt lat="45.57242" lon="6.69369">
        <ele>1096.8283449501</ele>
        <time>2019-07-06T08:12:53Z</time>
      </trkpt>
      <trkpt lat="45.5724" lon="6.69366">
        <ele>1097.7850823126</ele>
        <time>2019-07-06T08:12:56Z</time>
      </trkpt>
      <trkpt lat="45.5724" lon="6.69363">
        <ele>1098.6766136461</ele>
        <time>2019-07-06T08:12:58Z</time>
      </trkpt>
      <trkpt lat="45.57238" lon="6.69361">
        <ele>1099.4803869489</ele>
        <time>2019-07-06T08:13:00Z</time>
      </trkpt>
      <trkpt lat="45.57236" lon="6.69358">
        <ele>1099.8801641145</ele>
        <time>2019-07-06T08:13:02Z</time>
      </trkpt>
      <trkpt lat="45.57236" lon="6.69354">
        <ele>1100.5880696736</ele>
        <time>2019-07-06T08:13:05Z</time>
      </trkpt>
      <trkpt lat="45.57236" lon="6.69351">
        <ele>1101.3419657725</ele>
        <time>2019-07-06T08:13:08Z</time>
      </trkpt>
      <trkpt lat="45.57235" lon="6.69348">
        <ele>1102.2924757785</ele>
        <time>2019-07-06T08:13:12Z</time>
      </trkpt>
      <trkpt lat="45.57234" lon="6.69344">
        <ele>1102.8498237227</ele>
        <time>2019-07-06T08:13:15Z</time>
      </trkpt>
      <trkpt lat="45.57234" lon="6.69342">
        <ele>1103.2907329373</ele>
        <time>2019-07-06T08:13:18Z</time>
      </trkpt>
      <trkpt lat="45.57235" lon="6.69339">
        <ele>1103.6470537191</ele>
        <time>2019-07-06T08:13:20Z</time>
      </trkpt>
      <trkpt lat="45.57237" lon="6.69337">
        <ele>1104.1455795719</ele>
        <time>2019-07-06T08:13:22Z</time>
      </trkpt>
      <trkpt lat="45.57238" lon="6.69335">
        <ele>1104.657386412</ele>
        <time>2019-07-06T08:13:24Z</time>
      </trkpt>
      <trkpt lat="45.57241" lon="6.69332">
        <ele>1105.4085925524</ele>
        <time>2019-07-06T08:13:26Z</time>
      </trkpt>
      <trkpt lat="45.57243" lon="6.6933">
        <ele>1106.9427561751</ele>
        <time>2019-07-06T08:13:28Z</time>
      </trkpt>
      <trkpt lat="45.57245" lon="6.69327">
        <ele>1108.1458879081</ele>
        <time>2019-07-06T08:13:30Z</time>
      </trkpt>
      <trkpt lat="45.57246" lon="6.69325">
        <ele>1109.4496750061</ele>
        <time>2019-07-06T08:13:33Z</time>
      </trkpt>
      <trkpt lat="45.57246" lon="6.69322">
        <ele>1110.3030634328</ele>
        <time>2019-07-06T08:13:36Z</time>
      </trkpt>
      <trkpt lat="45.57248" lon="6.69319">
        <ele>1111.5212577074</ele>
        <time>2019-07-06T08:13:41Z</time>
      </trkpt>
      <trkpt lat="45.57249" lon="6.69316">
        <ele>1110.6867371587</ele>
        <time>2019-07-06T08:13:45Z</time>
      </trkpt>
      <trkpt lat="45.5725" lon="6.69313">
        <ele>1109.7085028003</ele>
        <time>2019-07-06T08:13:47Z</time>
      </trkpt>
      <trkpt lat="45.5725" lon="6.6931">
        <ele>1109.8142543352</ele>
        <time>2019-07-06T08:13:52Z</time>
      </trkpt>
      <trkpt lat="45.57251" lon="6.69307">
        <ele>1110.1220340532</ele>
        <time>2019-07-06T08:13:56Z</time>
      </trkpt>
      <trkpt lat="45.57251" lon="6.69305">
        <ele>1110.5471470951</ele>
        <time>2019-07-06T08:14:03Z</time>
      </trkpt>
      <trkpt lat="45.57253" lon="6.69304">
        <ele>1110.5975651191</ele>
        <time>2019-07-06T08:14:05Z</time>
      </trkpt>
      <trkpt lat="45.57254" lon="6.69301">
        <ele>1110.8799434985</ele>
        <time>2019-07-06T08:14:08Z</time>
      </trkpt>
      <trkpt lat="45.57255" lon="6.69299">
        <ele>1110.4151082941</ele>
        <time>2019-07-06T08:14:10Z</time>
      </trkpt>
      <trkpt lat="45.57256" lon="6.69297">
        <ele>1109.9602181095</ele>
        <time>2019-07-06T08:14:12Z</time>
      </trkpt>
      <trkpt lat="45.57257" lon="6.69294">
        <ele>1110.1130643993</ele>
        <time>2019-07-06T08:14:14Z</time>
      </trkpt>
      <trkpt lat="45.57259" lon="6.69291">
        <ele>1110.4418360219</ele>
        <time>2019-07-06T08:14:22Z</time>
      </trkpt>
      <trkpt lat="45.5726" lon="6.69288">
        <ele>1110.6378088011</ele>
        <time>2019-07-06T08:14:24Z</time>
      </trkpt>
      <trkpt lat="45.57262" lon="6.69287">
        <ele>1111.5892946034</ele>
        <time>2019-07-06T08:14:28Z</time>
      </trkpt>
      <trkpt lat="45.57261" lon="6.6929">
        <ele>1115.6607051014</ele>
        <time>2019-07-06T08:14:44Z</time>
      </trkpt>
      <trkpt lat="45.57262" lon="6.69292">
        <ele>1114.8163161391</ele>
        <time>2019-07-06T08:14:47Z</time>
      </trkpt>
      <trkpt lat="45.57263" lon="6.69288">
        <ele>1119.3577110981</ele>
        <time>2019-07-06T08:15:06Z</time>
      </trkpt>
      <trkpt lat="45.57263" lon="6.69285">
        <ele>1122.1613507481</ele>
        <time>2019-07-06T08:15:12Z</time>
      </trkpt>
      <trkpt lat="45.57263" lon="6.69282">
        <ele>1125.8315736823</ele>
        <time>2019-07-06T08:15:19Z</time>
      </trkpt>
      <trkpt lat="45.57262" lon="6.69279">
        <ele>1124.4854639808</ele>
        <time>2019-07-06T08:15:35Z</time>
      </trkpt>
      <trkpt lat="45.57264" lon="6.6928">
        <ele>1114.508687362</ele>
        <time>2019-07-06T08:16:07Z</time>
      </trkpt>
      <trkpt lat="45.57266" lon="6.6928">
        <ele>1114.0322362899</ele>
        <time>2019-07-06T08:16:11Z</time>
      </trkpt>
      <trkpt lat="45.57267" lon="6.69279">
        <ele>1115.1828284188</ele>
        <time>2019-07-06T08:16:24Z</time>
      </trkpt>
      <trkpt lat="45.57269" lon="6.69278">
        <ele>1112.9835052019</ele>
        <time>2019-07-06T08:16:37Z</time>
      </trkpt>
      <trkpt lat="45.57268" lon="6.69276">
        <ele>1119.3733918281</ele>
        <time>2019-07-06T08:17:01Z</time>
      </trkpt>
      <trkpt lat="45.57268" lon="6.69279">
        <ele>1114.444468405</ele>
        <time>2019-07-06T08:18:04Z</time>
      </trkpt>
      <trkpt lat="45.57266" lon="6.69281">
        <ele>1112.7404226391</ele>
        <time>2019-07-06T08:18:10Z</time>
      </trkpt>
      <trkpt lat="45.57264" lon="6.69281">
        <ele>1110.4834907598</ele>
        <time>2019-07-06T08:18:34Z</time>
      </trkpt>
      <trkpt lat="45.57262" lon="6.6928">
        <ele>1110.2353342868</ele>
        <time>2019-07-06T08:18:40Z</time>
      </trkpt>
      <trkpt lat="45.57263" lon="6.69277">
        <ele>1120.2205088981</ele>
        <time>2019-07-06T08:19:59Z</time>
      </trkpt>
      <trkpt lat="45.57264" lon="6.69279">
        <ele>1117.862354707</ele>
        <time>2019-07-06T08:20:16Z</time>
      </trkpt>
      <trkpt lat="45.57262" lon="6.6928">
        <ele>1116.1835497598</ele>
        <time>2019-07-06T08:20:25Z</time>
      </trkpt>
      <trkpt lat="45.57263" lon="6.69278">
        <ele>1117.9228177843</ele>
        <time>2019-07-06T08:21:08Z</time>
      </trkpt>
      <trkpt lat="45.57265" lon="6.69276">
        <ele>1123.1124722781</ele>
        <time>2019-07-06T08:21:27Z</time>
      </trkpt>
      <trkpt lat="45.57267" lon="6.69275">
        <ele>1126.0397573607</ele>
        <time>2019-07-06T08:21:36Z</time>
      </trkpt>
      <trkpt lat="45.57269" lon="6.69274">
        <ele>1127.0923613153</ele>
        <time>2019-07-06T08:21:51Z</time>
      </trkpt>
      <trkpt lat="45.5727" lon="6.69274">
        <ele>1130.1431516673</ele>
        <time>2019-07-06T08:22:55Z</time>
      </trkpt>
      <trkpt lat="45.57269" lon="6.69272">
        <ele>1126.6821442023</ele>
        <time>2019-07-06T08:23:12Z</time>
      </trkpt>
      <trkpt lat="45.57269" lon="6.69269">
        <ele>1126.0836086087</ele>
        <time>2019-07-06T08:23:51Z</time>
      </trkpt>
      <trkpt lat="45.57268" lon="6.6927">
        <ele>1125.8315390951</ele>
        <time>2019-07-06T08:23:56Z</time>
      </trkpt>
      <trkpt lat="45.57266" lon="6.69268">
        <ele>1125.188270543</ele>
        <time>2019-07-06T08:24:01Z</time>
      </trkpt>
      <trkpt lat="45.57266" lon="6.69268">
        <ele>1125.2147829778</ele>
        <time>2019-07-06T08:24:02Z</time>
      </trkpt>
      <trkpt lat="45.57267" lon="6.69271">
        <ele>1125.4583733064</ele>
        <time>2019-07-06T08:24:07Z</time>
      </trkpt>
      <trkpt lat="45.57268" lon="6.69274">
        <ele>1125.4659714268</ele>
        <time>2019-07-06T08:24:14Z</time>
      </trkpt>
      <trkpt lat="45.57266" lon="6.69276">
        <ele>1121.6366393604</ele>
        <time>2019-07-06T08:24:30Z</time>
      </trkpt>
      <trkpt lat="45.57265" lon="6.69274">
        <ele>1117.8105139581</ele>
        <time>2019-07-06T08:24:44Z</time>
      </trkpt>
      <trkpt lat="45.57266" lon="6.69277">
        <ele>1117.8627516969</ele>
        <time>2019-07-06T08:24:55Z</time>
      </trkpt>
      <trkpt lat="45.57265" lon="6.6928">
        <ele>1116.6323393448</ele>
        <time>2019-07-06T08:25:00Z</time>
      </trkpt>
      <trkpt lat="45.57266" lon="6.69283">
        <ele>1115.8790351008</ele>
        <time>2019-07-06T08:25:03Z</time>
      </trkpt>
      <trkpt lat="45.57263" lon="6.69282">
        <ele>1116.6317173543</ele>
        <time>2019-07-06T08:25:20Z</time>
      </trkpt>
      <trkpt lat="45.57263" lon="6.69285">
        <ele>1114.7986727032</ele>
        <time>2019-07-06T08:25:33Z</time>
      </trkpt>
      <trkpt lat="45.57265" lon="6.69287">
        <ele>1115.5101622743</ele>
        <time>2019-07-06T08:25:57Z</time>
      </trkpt>
      <trkpt lat="45.57267" lon="6.69288">
        <ele>1116.4191500518</ele>
        <time>2019-07-06T08:26:03Z</time>
      </trkpt>
      <trkpt lat="45.57269" lon="6.69287">
        <ele>1112.3794004304</ele>
        <time>2019-07-06T08:26:13Z</time>
      </trkpt>
      <trkpt lat="45.57271" lon="6.69285">
        <ele>1109.9573412424</ele>
        <time>2019-07-06T08:26:19Z</time>
      </trkpt>
      <trkpt lat="45.57272" lon="6.69284">
        <ele>1109.1104101569</ele>
        <time>2019-07-06T08:26:23Z</time>
      </trkpt>
      <trkpt lat="45.57274" lon="6.69282">
        <ele>1107.8717428743</ele>
        <time>2019-07-06T08:26:26Z</time>
      </trkpt>
      <trkpt lat="45.57275" lon="6.6928">
        <ele>1105.5686606188</ele>
        <time>2019-07-06T08:26:34Z</time>
      </trkpt>
      <trkpt lat="45.57276" lon="6.6928">
        <ele>1104.7455560641</ele>
        <time>2019-07-06T08:26:36Z</time>
      </trkpt>
      <trkpt lat="45.57278" lon="6.69278">
        <ele>1103.7724029766</ele>
        <time>2019-07-06T08:26:40Z</time>
      </trkpt>
      <trkpt lat="45.57281" lon="6.69278">
        <ele>1104.1408064118</ele>
        <time>2019-07-06T08:26:44Z</time>
      </trkpt>
      <trkpt lat="45.57278" lon="6.69276">
        <ele>1107.0710257419</ele>
        <time>2019-07-06T08:26:53Z</time>
      </trkpt>
      <trkpt lat="45.57276" lon="6.69274">
        <ele>1108.3548522611</ele>
        <time>2019-07-06T08:26:57Z</time>
      </trkpt>
      <trkpt lat="45.57275" lon="6.69272">
        <ele>1110.5435958908</ele>
        <time>2019-07-06T08:27:04Z</time>
      </trkpt>
      <trkpt lat="45.57276" lon="6.69275">
        <ele>1112.2222022409</ele>
        <time>2019-07-06T08:27:11Z</time>
      </trkpt>
      <trkpt lat="45.57275" lon="6.69277">
        <ele>1115.1847000428</ele>
        <time>2019-07-06T08:27:20Z</time>
      </trkpt>
      <trkpt lat="45.57273" lon="6.69277">
        <ele>1115.9129087899</ele>
        <time>2019-07-06T08:27:22Z</time>
      </trkpt>
      <trkpt lat="45.57271" lon="6.69277">
        <ele>1116.8910270418</ele>
        <time>2019-07-06T08:27:26Z</time>
      </trkpt>
      <trkpt lat="45.57271" lon="6.69274">
        <ele>1118.2011792889</ele>
        <time>2019-07-06T08:27:36Z</time>
      </trkpt>
      <trkpt lat="45.5727" lon="6.69277">
        <ele>1119.201102478</ele>
        <time>2019-07-06T08:27:42Z</time>
      </trkpt>
      <trkpt lat="45.57272" lon="6.69278">
        <ele>1122.8073205157</ele>
        <time>2019-07-06T08:28:03Z</time>
      </trkpt>
      <trkpt lat="45.57273" lon="6.6928">
        <ele>1124.3535128136</ele>
        <time>2019-07-06T08:28:12Z</time>
      </trkpt>
      <trkpt lat="45.57276" lon="6.69279">
        <ele>1124.6222901514</ele>
        <time>2019-07-06T08:28:16Z</time>
      </trkpt>
      <trkpt lat="45.57274" lon="6.69278">
        <ele>1124.5680010849</ele>
        <time>2019-07-06T08:28:18Z</time>
      </trkpt>
      <trkpt lat="45.57272" lon="6.69279">
        <ele>1124.4989216639</ele>
        <time>2019-07-06T08:28:32Z</time>
      </trkpt>
      <trkpt lat="45.57272" lon="6.69281">
        <ele>1125.2356378321</ele>
        <time>2019-07-06T08:28:38Z</time>
      </trkpt>
      <trkpt lat="45.5727" lon="6.69284">
        <ele>1125.6114972002</ele>
        <time>2019-07-06T08:28:43Z</time>
      </trkpt>
      <trkpt lat="45.5727" lon="6.69284">
        <ele>1125.4365785861</ele>
        <time>2019-07-06T08:28:46Z</time>
      </trkpt>
      <trkpt lat="45.57269" lon="6.69281">
        <ele>1125.8950184743</ele>
        <time>2019-07-06T08:28:55Z</time>
      </trkpt>
      <trkpt lat="45.57267" lon="6.69283">
        <ele>1121.0574143537</ele>
        <time>2019-07-06T08:29:01Z</time>
      </trkpt>
      <trkpt lat="45.57265" lon="6.69283">
        <ele>1117.7088875729</ele>
        <time>2019-07-06T08:29:06Z</time>
      </trkpt>
      <trkpt lat="45.57263" lon="6.69285">
        <ele>1116.0289579566</ele>
        <time>2019-07-06T08:29:10Z</time>
      </trkpt>
      <trkpt lat="45.57262" lon="6.69282">
        <ele>1111.0626045429</ele>
        <time>2019-07-06T08:29:26Z</time>
      </trkpt>
      <trkpt lat="45.57262" lon="6.69279">
        <ele>1108.6208889159</ele>
        <time>2019-07-06T08:29:31Z</time>
      </trkpt>
      <trkpt lat="45.57265" lon="6.69279">
        <ele>1098.9488556623</ele>
        <time>2019-07-06T08:29:50Z</time>
      </trkpt>
      <trkpt lat="45.57263" lon="6.69282">
        <ele>1099.4888995621</ele>
        <time>2019-07-06T08:29:55Z</time>
      </trkpt>
      <trkpt lat="45.57264" lon="6.69284">
        <ele>1100.6456965682</ele>
        <time>2019-07-06T08:29:58Z</time>
      </trkpt>
      <trkpt lat="45.57266" lon="6.69284">
        <ele>1104.3293001804</ele>
        <time>2019-07-06T08:30:06Z</time>
      </trkpt>
      <trkpt lat="45.57267" lon="6.69281">
        <ele>1104.6671122828</ele>
        <time>2019-07-06T08:30:07Z</time>
      </trkpt>
      <trkpt lat="45.57266" lon="6.6928">
        <ele>1107.9897211353</ele>
        <time>2019-07-06T08:30:18Z</time>
      </trkpt>
      <trkpt lat="45.57266" lon="6.69277">
        <ele>1110.2511360791</ele>
        <time>2019-07-06T08:30:26Z</time>
      </trkpt>
      <trkpt lat="45.57268" lon="6.69275">
        <ele>1111.816268598</ele>
        <time>2019-07-06T08:30:29Z</time>
      </trkpt>
      <trkpt lat="45.57269" lon="6.69275">
        <ele>1114.3310708842</ele>
        <time>2019-07-06T08:30:33Z</time>
      </trkpt>
      <trkpt lat="45.57271" lon="6.69276">
        <ele>1115.4881151467</ele>
        <time>2019-07-06T08:30:36Z</time>
      </trkpt>
      <trkpt lat="45.57273" lon="6.69279">
        <ele>1115.7399038958</ele>
        <time>2019-07-06T08:30:39Z</time>
      </trkpt>
      <trkpt lat="45.57275" lon="6.69281">
        <ele>1115.1091839354</ele>
        <time>2019-07-06T08:30:42Z</time>
      </trkpt>
      <trkpt lat="45.57276" lon="6.69283">
        <ele>1114.4939775114</ele>
        <time>2019-07-06T08:30:45Z</time>
      </trkpt>
      <trkpt lat="45.57279" lon="6.69282">
        <ele>1114.4378947042</ele>
        <time>2019-07-06T08:30:49Z</time>
      </trkpt>
      <trkpt lat="45.5728" lon="6.69284">
        <ele>1114.4161251323</ele>
        <time>2019-07-06T08:30:51Z</time>
      </trkpt>
      <trkpt lat="45.57282" lon="6.69286">
        <ele>1114.5141743536</ele>
        <time>2019-07-06T08:30:57Z</time>
      </trkpt>
      <trkpt lat="45.57283" lon="6.69288">
        <ele>1115.2124261484</ele>
        <time>2019-07-06T08:31:00Z</time>
      </trkpt>
      <trkpt lat="45.57285" lon="6.69291">
        <ele>1116.601519701</ele>
        <time>2019-07-06T08:31:02Z</time>
      </trkpt>
      <trkpt lat="45.57287" lon="6.69294">
        <ele>1119.5534854788</ele>
        <time>2019-07-06T08:31:06Z</time>
      </trkpt>
      <trkpt lat="45.57289" lon="6.69294">
        <ele>1121.6959744112</ele>
        <time>2019-07-06T08:31:09Z</time>
      </trkpt>
      <trkpt lat="45.57292" lon="6.69293">
        <ele>1122.5257341314</ele>
        <time>2019-07-06T08:31:13Z</time>
      </trkpt>
      <trkpt lat="45.57294" lon="6.69296">
        <ele>1122.6631150859</ele>
        <time>2019-07-06T08:31:15Z</time>
      </trkpt>
      <trkpt lat="45.57297" lon="6.69295">
        <ele>1122.5931493121</ele>
        <time>2019-07-06T08:31:17Z</time>
      </trkpt>
      <trkpt lat="45.57299" lon="6.69295">
        <ele>1122.6387045065</ele>
        <time>2019-07-06T08:31:19Z</time>
      </trkpt>
      <trkpt lat="45.57301" lon="6.69297">
        <ele>1122.6396369696</ele>
        <time>2019-07-06T08:31:22Z</time>
      </trkpt>
      <trkpt lat="45.57301" lon="6.693">
        <ele>1123.0712686072</ele>
        <time>2019-07-06T08:31:24Z</time>
      </trkpt>
      <trkpt lat="45.57302" lon="6.69304">
        <ele>1123.1619829798</ele>
        <time>2019-07-06T08:31:26Z</time>
      </trkpt>
      <trkpt lat="45.57303" lon="6.69307">
        <ele>1123.0281534668</ele>
        <time>2019-07-06T08:31:29Z</time>
      </trkpt>
      <trkpt lat="45.57304" lon="6.69309">
        <ele>1122.88692906</ele>
        <time>2019-07-06T08:31:31Z</time>
      </trkpt>
      <trkpt lat="45.57306" lon="6.69311">
        <ele>1122.8717036765</ele>
        <time>2019-07-06T08:31:35Z</time>
      </trkpt>
      <trkpt lat="45.57307" lon="6.69314">
        <ele>1123.048913325</ele>
        <time>2019-07-06T08:31:37Z</time>
      </trkpt>
      <trkpt lat="45.57309" lon="6.69315">
        <ele>1123.3513601445</ele>
        <time>2019-07-06T08:31:40Z</time>
      </trkpt>
      <trkpt lat="45.57311" lon="6.69317">
        <ele>1123.6322582797</ele>
        <time>2019-07-06T08:31:42Z</time>
      </trkpt>
      <trkpt lat="45.57312" lon="6.69319">
        <ele>1123.8496932065</ele>
        <time>2019-07-06T08:31:45Z</time>
      </trkpt>
      <trkpt lat="45.57314" lon="6.69322">
        <ele>1126.6676887389</ele>
        <time>2019-07-06T08:32:18Z</time>
      </trkpt>
      <trkpt lat="45.57315" lon="6.69324">
        <ele>1126.4859695838</ele>
        <time>2019-07-06T08:32:23Z</time>
      </trkpt>
      <trkpt lat="45.57316" lon="6.69327">
        <ele>1126.4963567712</ele>
        <time>2019-07-06T08:32:27Z</time>
      </trkpt>
      <trkpt lat="45.57318" lon="6.69326">
        <ele>1125.8014357535</ele>
        <time>2019-07-06T08:32:30Z</time>
      </trkpt>
      <trkpt lat="45.57319" lon="6.69323">
        <ele>1125.0785867737</ele>
        <time>2019-07-06T08:32:38Z</time>
      </trkpt>
      <trkpt lat="45.5732" lon="6.69322">
        <ele>1125.1103689076</ele>
        <time>2019-07-06T08:32:41Z</time>
      </trkpt>
      <trkpt lat="45.57322" lon="6.6932">
        <ele>1125.1379181105</ele>
        <time>2019-07-06T08:32:45Z</time>
      </trkpt>
      <trkpt lat="45.57325" lon="6.69322">
        <ele>1127.0208465713</ele>
        <time>2019-07-06T08:32:54Z</time>
      </trkpt>
      <trkpt lat="45.57327" lon="6.69321">
        <ele>1127.5580040556</ele>
        <time>2019-07-06T08:32:56Z</time>
      </trkpt>
      <trkpt lat="45.57329" lon="6.69321">
        <ele>1129.1433821586</ele>
        <time>2019-07-06T08:33:00Z</time>
      </trkpt>
      <trkpt lat="45.57331" lon="6.69322">
        <ele>1133.4191608446</ele>
        <time>2019-07-06T08:33:08Z</time>
      </trkpt>
      <trkpt lat="45.57332" lon="6.6932">
        <ele>1133.6339761358</ele>
        <time>2019-07-06T08:33:10Z</time>
      </trkpt>
      <trkpt lat="45.57333" lon="6.69318">
        <ele>1136.2041951201</ele>
        <time>2019-07-06T08:33:22Z</time>
      </trkpt>
      <trkpt lat="45.57334" lon="6.69321">
        <ele>1135.8122096899</ele>
        <time>2019-07-06T08:33:24Z</time>
      </trkpt>
      <trkpt lat="45.57335" lon="6.69325">
        <ele>1135.5832250196</ele>
        <time>2019-07-06T08:33:26Z</time>
      </trkpt>
      <trkpt lat="45.57337" lon="6.69326">
        <ele>1135.6372158136</ele>
        <time>2019-07-06T08:33:29Z</time>
      </trkpt>
      <trkpt lat="45.57339" lon="6.69325">
        <ele>1135.5602511216</ele>
        <time>2019-07-06T08:33:31Z</time>
      </trkpt>
      <trkpt lat="45.57342" lon="6.69325">
        <ele>1134.8578853704</ele>
        <time>2019-07-06T08:33:34Z</time>
      </trkpt>
      <trkpt lat="45.57344" lon="6.69325">
        <ele>1134.2316271988</ele>
        <time>2019-07-06T08:33:36Z</time>
      </trkpt>
      <trkpt lat="45.57346" lon="6.69324">
        <ele>1133.8751523569</ele>
        <time>2019-07-06T08:33:37Z</time>
      </trkpt>
      <trkpt lat="45.57348" lon="6.69324">
        <ele>1133.1214910193</ele>
        <time>2019-07-06T08:33:39Z</time>
      </trkpt>
      <trkpt lat="45.57351" lon="6.69324">
        <ele>1132.1778619687</ele>
        <time>2019-07-06T08:33:42Z</time>
      </trkpt>
      <trkpt lat="45.57353" lon="6.69324">
        <ele>1131.8614954985</ele>
        <time>2019-07-06T08:33:43Z</time>
      </trkpt>
      <trkpt lat="45.57355" lon="6.69322">
        <ele>1131.4730366302</ele>
        <time>2019-07-06T08:33:45Z</time>
      </trkpt>
      <trkpt lat="45.57357" lon="6.69323">
        <ele>1132.7129556795</ele>
        <time>2019-07-06T08:33:50Z</time>
      </trkpt>
      <trkpt lat="45.57359" lon="6.69324">
        <ele>1132.9067315374</ele>
        <time>2019-07-06T08:33:52Z</time>
      </trkpt>
      <trkpt lat="45.5736" lon="6.69327">
        <ele>1133.3211084154</ele>
        <time>2019-07-06T08:33:55Z</time>
      </trkpt>
      <trkpt lat="45.57361" lon="6.6933">
        <ele>1135.0404851341</ele>
        <time>2019-07-06T08:34:00Z</time>
      </trkpt>
      <trkpt lat="45.57362" lon="6.6933">
        <ele>1136.4599886436</ele>
        <time>2019-07-06T08:34:03Z</time>
      </trkpt>
      <trkpt lat="45.57365" lon="6.69331">
        <ele>1137.5268645668</ele>
        <time>2019-07-06T08:34:05Z</time>
      </trkpt>
      <trkpt lat="45.57365" lon="6.69335">
        <ele>1139.1194519238</ele>
        <time>2019-07-06T08:34:08Z</time>
      </trkpt>
      <trkpt lat="45.57366" lon="6.69338">
        <ele>1140.7631821697</ele>
        <time>2019-07-06T08:34:11Z</time>
      </trkpt>
      <trkpt lat="45.57366" lon="6.69342">
        <ele>1141.7601323408</ele>
        <time>2019-07-06T08:34:13Z</time>
      </trkpt>
      <trkpt lat="45.57367" lon="6.69344">
        <ele>1141.8533063652</ele>
        <time>2019-07-06T08:34:20Z</time>
      </trkpt>
      <trkpt lat="45.57369" lon="6.69345">
        <ele>1141.3279018511</ele>
        <time>2019-07-06T08:34:26Z</time>
      </trkpt>
      <trkpt lat="45.5737" lon="6.69347">
        <ele>1141.3809835239</ele>
        <time>2019-07-06T08:34:29Z</time>
      </trkpt>
      <trkpt lat="45.5737" lon="6.69351">
        <ele>1141.828835702</ele>
        <time>2019-07-06T08:34:31Z</time>
      </trkpt>
      <trkpt lat="45.5737" lon="6.69354">
        <ele>1142.8933355098</ele>
        <time>2019-07-06T08:34:35Z</time>
      </trkpt>
      <trkpt lat="45.57371" lon="6.69359">
        <ele>1143.3013160717</ele>
        <time>2019-07-06T08:34:37Z</time>
      </trkpt>
      <trkpt lat="45.57372" lon="6.69361">
        <ele>1143.6074523438</ele>
        <time>2019-07-06T08:34:38Z</time>
      </trkpt>
      <trkpt lat="45.57374" lon="6.69365">
        <ele>1144.5306088231</ele>
        <time>2019-07-06T08:34:40Z</time>
      </trkpt>
      <trkpt lat="45.57376" lon="6.69369">
        <ele>1146.5425801529</ele>
        <time>2019-07-06T08:34:44Z</time>
      </trkpt>
      <trkpt lat="45.57378" lon="6.69371">
        <ele>1148.3567911239</ele>
        <time>2019-07-06T08:34:48Z</time>
      </trkpt>
      <trkpt lat="45.57379" lon="6.69369">
        <ele>1148.7443309897</ele>
        <time>2019-07-06T08:34:51Z</time>
      </trkpt>
      <trkpt lat="45.57381" lon="6.69371">
        <ele>1150.1737672856</ele>
        <time>2019-07-06T08:34:57Z</time>
      </trkpt>
      <trkpt lat="45.57383" lon="6.69372">
        <ele>1151.76966927</ele>
        <time>2019-07-06T08:35:07Z</time>
      </trkpt>
      <trkpt lat="45.57385" lon="6.69371">
        <ele>1153.6267954893</ele>
        <time>2019-07-06T08:35:12Z</time>
      </trkpt>
      <trkpt lat="45.57387" lon="6.69372">
        <ele>1154.1885993825</ele>
        <time>2019-07-06T08:35:14Z</time>
      </trkpt>
      <trkpt lat="45.57391" lon="6.69372">
        <ele>1154.5687743543</ele>
        <time>2019-07-06T08:35:16Z</time>
      </trkpt>
      <trkpt lat="45.57393" lon="6.69372">
        <ele>1154.7790843616</ele>
        <time>2019-07-06T08:35:17Z</time>
      </trkpt>
      <trkpt lat="45.57395" lon="6.69371">
        <ele>1155.4698865937</ele>
        <time>2019-07-06T08:35:20Z</time>
      </trkpt>
      <trkpt lat="45.57396" lon="6.6937">
        <ele>1155.5615236084</ele>
        <time>2019-07-06T08:35:22Z</time>
      </trkpt>
      <trkpt lat="45.57399" lon="6.69368">
        <ele>1155.5891610629</ele>
        <time>2019-07-06T08:35:24Z</time>
      </trkpt>
      <trkpt lat="45.574" lon="6.69366">
        <ele>1155.5532280598</ele>
        <time>2019-07-06T08:35:27Z</time>
      </trkpt>
      <trkpt lat="45.574" lon="6.69363">
        <ele>1157.0765589992</ele>
        <time>2019-07-06T08:35:32Z</time>
      </trkpt>
      <trkpt lat="45.574" lon="6.6936">
        <ele>1157.7174743461</ele>
        <time>2019-07-06T08:35:34Z</time>
      </trkpt>
      <trkpt lat="45.57401" lon="6.69357">
        <ele>1158.3292626348</ele>
        <time>2019-07-06T08:35:37Z</time>
      </trkpt>
      <trkpt lat="45.574" lon="6.69354">
        <ele>1159.4746981643</ele>
        <time>2019-07-06T08:35:40Z</time>
      </trkpt>
      <trkpt lat="45.574" lon="6.69353">
        <ele>1160.6888536122</ele>
        <time>2019-07-06T08:35:42Z</time>
      </trkpt>
      <trkpt lat="45.574" lon="6.6935">
        <ele>1162.3846609275</ele>
        <time>2019-07-06T08:35:45Z</time>
      </trkpt>
      <trkpt lat="45.574" lon="6.69347">
        <ele>1162.8532542855</ele>
        <time>2019-07-06T08:35:47Z</time>
      </trkpt>
      <trkpt lat="45.57399" lon="6.69344">
        <ele>1163.0238035624</ele>
        <time>2019-07-06T08:35:49Z</time>
      </trkpt>
      <trkpt lat="45.57398" lon="6.69341">
        <ele>1162.8741098988</ele>
        <time>2019-07-06T08:35:51Z</time>
      </trkpt>
      <trkpt lat="45.57398" lon="6.69338">
        <ele>1162.718643224</ele>
        <time>2019-07-06T08:35:54Z</time>
      </trkpt>
      <trkpt lat="45.57398" lon="6.69335">
        <ele>1162.7366231994</ele>
        <time>2019-07-06T08:35:56Z</time>
      </trkpt>
      <trkpt lat="45.57399" lon="6.69333">
        <ele>1162.6646001726</ele>
        <time>2019-07-06T08:35:59Z</time>
      </trkpt>
      <trkpt lat="45.57399" lon="6.69329">
        <ele>1163.3268756473</ele>
        <time>2019-07-06T08:36:02Z</time>
      </trkpt>
      <trkpt lat="45.57399" lon="6.69326">
        <ele>1163.4296461856</ele>
        <time>2019-07-06T08:36:05Z</time>
      </trkpt>
      <trkpt lat="45.574" lon="6.69323">
        <ele>1163.142246928</ele>
        <time>2019-07-06T08:36:07Z</time>
      </trkpt>
      <trkpt lat="45.574" lon="6.6932">
        <ele>1163.3149591346</ele>
        <time>2019-07-06T08:36:09Z</time>
      </trkpt>
      <trkpt lat="45.57401" lon="6.69318">
        <ele>1163.4775707946</ele>
        <time>2019-07-06T08:36:11Z</time>
      </trkpt>
      <trkpt lat="45.57401" lon="6.69314">
        <ele>1163.3116535691</ele>
        <time>2019-07-06T08:36:14Z</time>
      </trkpt>
      <trkpt lat="45.57402" lon="6.69311">
        <ele>1163.0431627323</ele>
        <time>2019-07-06T08:36:18Z</time>
      </trkpt>
      <trkpt lat="45.57404" lon="6.69309">
        <ele>1162.8084514311</ele>
        <time>2019-07-06T08:36:20Z</time>
      </trkpt>
      <trkpt lat="45.57406" lon="6.69306">
        <ele>1162.353412011</ele>
        <time>2019-07-06T08:36:26Z</time>
      </trkpt>
      <trkpt lat="45.57407" lon="6.69304">
        <ele>1162.4505905879</ele>
        <time>2019-07-06T08:36:29Z</time>
      </trkpt>
      <trkpt lat="45.57409" lon="6.69305">
        <ele>1161.9363382068</ele>
        <time>2019-07-06T08:36:34Z</time>
      </trkpt>
      <trkpt lat="45.57411" lon="6.69306">
        <ele>1160.9781904338</ele>
        <time>2019-07-06T08:36:37Z</time>
      </trkpt>
      <trkpt lat="45.57413" lon="6.69307">
        <ele>1160.2896341942</ele>
        <time>2019-07-06T08:36:44Z</time>
      </trkpt>
      <trkpt lat="45.57415" lon="6.69308">
        <ele>1160.5489203537</ele>
        <time>2019-07-06T08:36:46Z</time>
      </trkpt>
      <trkpt lat="45.57418" lon="6.69309">
        <ele>1161.2439261523</ele>
        <time>2019-07-06T08:36:48Z</time>
      </trkpt>
      <trkpt lat="45.5742" lon="6.6931">
        <ele>1162.2297688048</ele>
        <time>2019-07-06T08:36:51Z</time>
      </trkpt>
      <trkpt lat="45.57422" lon="6.69311">
        <ele>1162.1002026533</ele>
        <time>2019-07-06T08:36:54Z</time>
      </trkpt>
      <trkpt lat="45.57424" lon="6.69312">
        <ele>1161.291523568</ele>
        <time>2019-07-06T08:36:56Z</time>
      </trkpt>
      <trkpt lat="45.57426" lon="6.69314">
        <ele>1160.6917315558</ele>
        <time>2019-07-06T08:36:58Z</time>
      </trkpt>
      <trkpt lat="45.57427" lon="6.69317">
        <ele>1159.6920528032</ele>
        <time>2019-07-06T08:37:01Z</time>
      </trkpt>
      <trkpt lat="45.5743" lon="6.69321">
        <ele>1159.094245853</ele>
        <time>2019-07-06T08:37:03Z</time>
      </trkpt>
      <trkpt lat="45.57432" lon="6.69321">
        <ele>1159.21825316</ele>
        <time>2019-07-06T08:37:05Z</time>
      </trkpt>
      <trkpt lat="45.57433" lon="6.69322">
        <ele>1159.2290064238</ele>
        <time>2019-07-06T08:37:06Z</time>
      </trkpt>
      <trkpt lat="45.57434" lon="6.69324">
        <ele>1159.1001189636</ele>
        <time>2019-07-06T08:37:09Z</time>
      </trkpt>
      <trkpt lat="45.57437" lon="6.69326">
        <ele>1159.23204993</ele>
        <time>2019-07-06T08:37:12Z</time>
      </trkpt>
      <trkpt lat="45.57438" lon="6.69328">
        <ele>1158.8883493116</ele>
        <time>2019-07-06T08:37:16Z</time>
      </trkpt>
      <trkpt lat="45.5744" lon="6.6933">
        <ele>1158.6849924936</ele>
        <time>2019-07-06T08:37:19Z</time>
      </trkpt>
      <trkpt lat="45.57442" lon="6.69331">
        <ele>1158.7998511761</ele>
        <time>2019-07-06T08:37:22Z</time>
      </trkpt>
      <trkpt lat="45.57444" lon="6.69332">
        <ele>1159.4141747968</ele>
        <time>2019-07-06T08:37:24Z</time>
      </trkpt>
      <trkpt lat="45.57446" lon="6.69333">
        <ele>1159.6255294248</ele>
        <time>2019-07-06T08:37:27Z</time>
      </trkpt>
      <trkpt lat="45.57448" lon="6.69335">
        <ele>1159.3351890047</ele>
        <time>2019-07-06T08:37:30Z</time>
      </trkpt>
      <trkpt lat="45.5745" lon="6.69336">
        <ele>1158.8969418912</ele>
        <time>2019-07-06T08:37:35Z</time>
      </trkpt>
      <trkpt lat="45.57452" lon="6.69339">
        <ele>1158.881536448</ele>
        <time>2019-07-06T08:37:38Z</time>
      </trkpt>
      <trkpt lat="45.57453" lon="6.6934">
        <ele>1158.8350655136</ele>
        <time>2019-07-06T08:37:40Z</time>
      </trkpt>
      <trkpt lat="45.57455" lon="6.69343">
        <ele>1159.0928100979</ele>
        <time>2019-07-06T08:37:42Z</time>
      </trkpt>
      <trkpt lat="45.57455" lon="6.69347">
        <ele>1159.3683634955</ele>
        <time>2019-07-06T08:37:44Z</time>
      </trkpt>
      <trkpt lat="45.57455" lon="6.6935">
        <ele>1159.5243946638</ele>
        <time>2019-07-06T08:37:46Z</time>
      </trkpt>
      <trkpt lat="45.57455" lon="6.69353">
        <ele>1160.0124465787</ele>
        <time>2019-07-06T08:37:49Z</time>
      </trkpt>
      <trkpt lat="45.57455" lon="6.69356">
        <ele>1160.308105837</ele>
        <time>2019-07-06T08:37:50Z</time>
      </trkpt>
      <trkpt lat="45.57455" lon="6.69359">
        <ele>1161.4387434566</ele>
        <time>2019-07-06T08:37:54Z</time>
      </trkpt>
      <trkpt lat="45.57457" lon="6.69357">
        <ele>1162.7123103938</ele>
        <time>2019-07-06T08:37:59Z</time>
      </trkpt>
      <trkpt lat="45.57458" lon="6.69354">
        <ele>1163.0272260315</ele>
        <time>2019-07-06T08:38:01Z</time>
      </trkpt>
      <trkpt lat="45.5746" lon="6.69354">
        <ele>1165.7838317356</ele>
        <time>2019-07-06T08:38:11Z</time>
      </trkpt>
      <trkpt lat="45.5746" lon="6.69357">
        <ele>1166.433374268</ele>
        <time>2019-07-06T08:38:14Z</time>
      </trkpt>
      <trkpt lat="45.57462" lon="6.6936">
        <ele>1166.3088568695</ele>
        <time>2019-07-06T08:38:17Z</time>
      </trkpt>
      <trkpt lat="45.57463" lon="6.69363">
        <ele>1166.4208124502</ele>
        <time>2019-07-06T08:38:19Z</time>
      </trkpt>
      <trkpt lat="45.57464" lon="6.69365">
        <ele>1167.348494543</ele>
        <time>2019-07-06T08:38:23Z</time>
      </trkpt>
      <trkpt lat="45.57466" lon="6.69366">
        <ele>1168.1222950123</ele>
        <time>2019-07-06T08:38:26Z</time>
      </trkpt>
      <trkpt lat="45.57468" lon="6.69366">
        <ele>1170.4377001282</ele>
        <time>2019-07-06T08:38:31Z</time>
      </trkpt>
      <trkpt lat="45.57468" lon="6.69369">
        <ele>1171.1425411839</ele>
        <time>2019-07-06T08:38:34Z</time>
      </trkpt>
      <trkpt lat="45.5747" lon="6.6937">
        <ele>1172.7385526279</ele>
        <time>2019-07-06T08:38:37Z</time>
      </trkpt>
      <trkpt lat="45.57471" lon="6.69373">
        <ele>1174.9971984766</ele>
        <time>2019-07-06T08:38:41Z</time>
      </trkpt>
      <trkpt lat="45.57473" lon="6.69375">
        <ele>1175.721878748</ele>
        <time>2019-07-06T08:38:46Z</time>
      </trkpt>
      <trkpt lat="45.57475" lon="6.69375">
        <ele>1175.3405575188</ele>
        <time>2019-07-06T08:38:49Z</time>
      </trkpt>
      <trkpt lat="45.57478" lon="6.69375">
        <ele>1174.7465398305</ele>
        <time>2019-07-06T08:38:52Z</time>
      </trkpt>
      <trkpt lat="45.5748" lon="6.69375">
        <ele>1174.6193059973</ele>
        <time>2019-07-06T08:38:54Z</time>
      </trkpt>
      <trkpt lat="45.57482" lon="6.69376">
        <ele>1174.7884674245</ele>
        <time>2019-07-06T08:38:59Z</time>
      </trkpt>
      <trkpt lat="45.57484" lon="6.69376">
        <ele>1174.8478504775</ele>
        <time>2019-07-06T08:39:01Z</time>
      </trkpt>
      <trkpt lat="45.57486" lon="6.69376">
        <ele>1175.2430159964</ele>
        <time>2019-07-06T08:39:06Z</time>
      </trkpt>
      <trkpt lat="45.57489" lon="6.69374">
        <ele>1175.9813874418</ele>
        <time>2019-07-06T08:39:09Z</time>
      </trkpt>
      <trkpt lat="45.5749" lon="6.69372">
        <ele>1177.2842319776</ele>
        <time>2019-07-06T08:39:12Z</time>
      </trkpt>
      <trkpt lat="45.57492" lon="6.6937">
        <ele>1178.4965996736</ele>
        <time>2019-07-06T08:39:15Z</time>
      </trkpt>
      <trkpt lat="45.57495" lon="6.69371">
        <ele>1179.6278249811</ele>
        <time>2019-07-06T08:39:18Z</time>
      </trkpt>
      <trkpt lat="45.57496" lon="6.69369">
        <ele>1180.2921638226</ele>
        <time>2019-07-06T08:39:21Z</time>
      </trkpt>
      <trkpt lat="45.57499" lon="6.69369">
        <ele>1180.7929697314</ele>
        <time>2019-07-06T08:39:26Z</time>
      </trkpt>
      <trkpt lat="45.57501" lon="6.69369">
        <ele>1180.7048364381</ele>
        <time>2019-07-06T08:39:29Z</time>
      </trkpt>
      <trkpt lat="45.57502" lon="6.69369">
        <ele>1180.8071375183</ele>
        <time>2019-07-06T08:39:32Z</time>
      </trkpt>
      <trkpt lat="45.57505" lon="6.69369">
        <ele>1181.0819082022</ele>
        <time>2019-07-06T08:39:35Z</time>
      </trkpt>
      <trkpt lat="45.57507" lon="6.69368">
        <ele>1180.6235952275</ele>
        <time>2019-07-06T08:39:38Z</time>
      </trkpt>
      <trkpt lat="45.57509" lon="6.69367">
        <ele>1180.4768812301</ele>
        <time>2019-07-06T08:39:43Z</time>
      </trkpt>
      <trkpt lat="45.5751" lon="6.69367">
        <ele>1181.0612105775</ele>
        <time>2019-07-06T08:39:48Z</time>
      </trkpt>
      <trkpt lat="45.57513" lon="6.69367">
        <ele>1182.1928918716</ele>
        <time>2019-07-06T08:39:53Z</time>
      </trkpt>
      <trkpt lat="45.57515" lon="6.69368">
        <ele>1182.4586605415</ele>
        <time>2019-07-06T08:39:55Z</time>
      </trkpt>
      <trkpt lat="45.57517" lon="6.69369">
        <ele>1183.9494278935</ele>
        <time>2019-07-06T08:40:06Z</time>
      </trkpt>
      <trkpt lat="45.57519" lon="6.69371">
        <ele>1184.6632250157</ele>
        <time>2019-07-06T08:40:10Z</time>
      </trkpt>
      <trkpt lat="45.57522" lon="6.69371">
        <ele>1185.6905482644</ele>
        <time>2019-07-06T08:40:14Z</time>
      </trkpt>
      <trkpt lat="45.57524" lon="6.6937">
        <ele>1186.7605445594</ele>
        <time>2019-07-06T08:40:17Z</time>
      </trkpt>
      <trkpt lat="45.57526" lon="6.69369">
        <ele>1188.3335034968</ele>
        <time>2019-07-06T08:40:22Z</time>
      </trkpt>
      <trkpt lat="45.57528" lon="6.69369">
        <ele>1188.9615965947</ele>
        <time>2019-07-06T08:40:25Z</time>
      </trkpt>
      <trkpt lat="45.5753" lon="6.69368">
        <ele>1189.4118591554</ele>
        <time>2019-07-06T08:40:27Z</time>
      </trkpt>
      <trkpt lat="45.57532" lon="6.69367">
        <ele>1190.2713488535</ele>
        <time>2019-07-06T08:40:33Z</time>
      </trkpt>
      <trkpt lat="45.5753" lon="6.69364">
        <ele>1190.2518124893</ele>
        <time>2019-07-06T08:40:36Z</time>
      </trkpt>
      <trkpt lat="45.5753" lon="6.6936">
        <ele>1189.9533045949</ele>
        <time>2019-07-06T08:40:39Z</time>
      </trkpt>
      <trkpt lat="45.57531" lon="6.69359">
        <ele>1189.7102619503</ele>
        <time>2019-07-06T08:40:43Z</time>
      </trkpt>
      <trkpt lat="45.57534" lon="6.69359">
        <ele>1190.1160927421</ele>
        <time>2019-07-06T08:40:46Z</time>
      </trkpt>
      <trkpt lat="45.57536" lon="6.69359">
        <ele>1190.710365383</ele>
        <time>2019-07-06T08:40:48Z</time>
      </trkpt>
      <trkpt lat="45.57538" lon="6.69359">
        <ele>1191.241671315</ele>
        <time>2019-07-06T08:40:50Z</time>
      </trkpt>
      <trkpt lat="45.5754" lon="6.69359">
        <ele>1191.5847572972</ele>
        <time>2019-07-06T08:40:52Z</time>
      </trkpt>
      <trkpt lat="45.57541" lon="6.69356">
        <ele>1192.1320074512</ele>
        <time>2019-07-06T08:40:56Z</time>
      </trkpt>
      <trkpt lat="45.57542" lon="6.69354">
        <ele>1192.2914268544</ele>
        <time>2019-07-06T08:40:58Z</time>
      </trkpt>
      <trkpt lat="45.57544" lon="6.69352">
        <ele>1195.444580269</ele>
        <time>2019-07-06T08:41:11Z</time>
      </trkpt>
      <trkpt lat="45.57545" lon="6.6935">
        <ele>1196.4115227658</ele>
        <time>2019-07-06T08:41:15Z</time>
      </trkpt>
      <trkpt lat="45.57545" lon="6.69347">
        <ele>1197.3052610254</ele>
        <time>2019-07-06T08:41:18Z</time>
      </trkpt>
      <trkpt lat="45.57545" lon="6.69343">
        <ele>1197.7291462712</ele>
        <time>2019-07-06T08:41:21Z</time>
      </trkpt>
      <trkpt lat="45.57545" lon="6.6934">
        <ele>1198.0143405518</ele>
        <time>2019-07-06T08:41:25Z</time>
      </trkpt>
      <trkpt lat="45.57545" lon="6.69337">
        <ele>1198.046830186</ele>
        <time>2019-07-06T08:41:28Z</time>
      </trkpt>
      <trkpt lat="45.57544" lon="6.69334">
        <ele>1198.0379747521</ele>
        <time>2019-07-06T08:41:30Z</time>
      </trkpt>
      <trkpt lat="45.57544" lon="6.69333">
        <ele>1198.1189458552</ele>
        <time>2019-07-06T08:41:31Z</time>
      </trkpt>
      <trkpt lat="45.57544" lon="6.69331">
        <ele>1198.4048902818</ele>
        <time>2019-07-06T08:41:38Z</time>
      </trkpt>
      <trkpt lat="45.57546" lon="6.69331">
        <ele>1196.3701578224</ele>
        <time>2019-07-06T08:42:09Z</time>
      </trkpt>
      <trkpt lat="45.57547" lon="6.69327">
        <ele>1196.5128145191</ele>
        <time>2019-07-06T08:42:12Z</time>
      </trkpt>
      <trkpt lat="45.57547" lon="6.69323">
        <ele>1196.5003472497</ele>
        <time>2019-07-06T08:42:14Z</time>
      </trkpt>
      <trkpt lat="45.57546" lon="6.6932">
        <ele>1196.0267347135</ele>
        <time>2019-07-06T08:42:16Z</time>
      </trkpt>
      <trkpt lat="45.57546" lon="6.69316">
        <ele>1195.3874725612</ele>
        <time>2019-07-06T08:42:19Z</time>
      </trkpt>
      <trkpt lat="45.57547" lon="6.69313">
        <ele>1195.1166180105</ele>
        <time>2019-07-06T08:42:21Z</time>
      </trkpt>
      <trkpt lat="45.57546" lon="6.69311">
        <ele>1195.5460264619</ele>
        <time>2019-07-06T08:42:24Z</time>
      </trkpt>
      <trkpt lat="45.57545" lon="6.69308">
        <ele>1196.206518745</ele>
        <time>2019-07-06T08:42:28Z</time>
      </trkpt>
      <trkpt lat="45.57544" lon="6.69305">
        <ele>1196.1609039231</ele>
        <time>2019-07-06T08:42:31Z</time>
      </trkpt>
      <trkpt lat="45.57542" lon="6.69302">
        <ele>1196.0092552115</ele>
        <time>2019-07-06T08:42:33Z</time>
      </trkpt>
      <trkpt lat="45.57541" lon="6.69299">
        <ele>1195.6181860775</ele>
        <time>2019-07-06T08:42:35Z</time>
      </trkpt>
      <trkpt lat="45.57541" lon="6.69296">
        <ele>1195.9896656526</ele>
        <time>2019-07-06T08:42:38Z</time>
      </trkpt>
      <trkpt lat="45.57541" lon="6.69293">
        <ele>1196.014083477</ele>
        <time>2019-07-06T08:42:42Z</time>
      </trkpt>
      <trkpt lat="45.57541" lon="6.6929">
        <ele>1195.5751214192</ele>
        <time>2019-07-06T08:42:44Z</time>
      </trkpt>
      <trkpt lat="45.5754" lon="6.69286">
        <ele>1193.9829683135</ele>
        <time>2019-07-06T08:42:49Z</time>
      </trkpt>
      <trkpt lat="45.57538" lon="6.69286">
        <ele>1189.8475366081</ele>
        <time>2019-07-06T08:43:37Z</time>
      </trkpt>
      <trkpt lat="45.57536" lon="6.69286">
        <ele>1189.9978640693</ele>
        <time>2019-07-06T08:43:42Z</time>
      </trkpt>
      <trkpt lat="45.57534" lon="6.69284">
        <ele>1191.887007727</ele>
        <time>2019-07-06T08:43:55Z</time>
      </trkpt>
      <trkpt lat="45.57533" lon="6.69287">
        <ele>1192.451078905</ele>
        <time>2019-07-06T08:44:00Z</time>
      </trkpt>
      <trkpt lat="45.57531" lon="6.69287">
        <ele>1192.9324873361</ele>
        <time>2019-07-06T08:44:03Z</time>
      </trkpt>
      <trkpt lat="45.57528" lon="6.69288">
        <ele>1192.6517199463</ele>
        <time>2019-07-06T08:44:05Z</time>
      </trkpt>
      <trkpt lat="45.57527" lon="6.69288">
        <ele>1192.4013205436</ele>
        <time>2019-07-06T08:44:07Z</time>
      </trkpt>
      <trkpt lat="45.57525" lon="6.69285">
        <ele>1192.5329477059</ele>
        <time>2019-07-06T08:44:10Z</time>
      </trkpt>
      <trkpt lat="45.57525" lon="6.69282">
        <ele>1192.340114333</ele>
        <time>2019-07-06T08:44:12Z</time>
      </trkpt>
      <trkpt lat="45.57524" lon="6.69278">
        <ele>1192.8672874074</ele>
        <time>2019-07-06T08:44:15Z</time>
      </trkpt>
      <trkpt lat="45.57525" lon="6.69275">
        <ele>1193.1661182007</ele>
        <time>2019-07-06T08:44:18Z</time>
      </trkpt>
      <trkpt lat="45.57526" lon="6.69272">
        <ele>1192.6799846845</ele>
        <time>2019-07-06T08:44:21Z</time>
      </trkpt>
      <trkpt lat="45.57528" lon="6.69268">
        <ele>1192.4714569399</ele>
        <time>2019-07-06T08:44:23Z</time>
      </trkpt>
      <trkpt lat="45.57529" lon="6.69265">
        <ele>1192.1819012473</ele>
        <time>2019-07-06T08:44:25Z</time>
      </trkpt>
      <trkpt lat="45.5753" lon="6.69262">
        <ele>1191.2291568048</ele>
        <time>2019-07-06T08:44:28Z</time>
      </trkpt>
      <trkpt lat="45.5753" lon="6.69258">
        <ele>1190.0965318519</ele>
        <time>2019-07-06T08:44:31Z</time>
      </trkpt>
      <trkpt lat="45.57532" lon="6.69255">
        <ele>1189.0494201981</ele>
        <time>2019-07-06T08:44:33Z</time>
      </trkpt>
      <trkpt lat="45.57533" lon="6.69252">
        <ele>1188.6712328656</ele>
        <time>2019-07-06T08:44:36Z</time>
      </trkpt>
      <trkpt lat="45.57535" lon="6.69248">
        <ele>1189.1776511989</ele>
        <time>2019-07-06T08:44:39Z</time>
      </trkpt>
      <trkpt lat="45.57536" lon="6.69245">
        <ele>1189.6618860905</ele>
        <time>2019-07-06T08:44:41Z</time>
      </trkpt>
      <trkpt lat="45.57538" lon="6.69245">
        <ele>1189.3170626123</ele>
        <time>2019-07-06T08:44:45Z</time>
      </trkpt>
      <trkpt lat="45.57539" lon="6.69243">
        <ele>1189.3982237748</ele>
        <time>2019-07-06T08:44:47Z</time>
      </trkpt>
      <trkpt lat="45.57541" lon="6.69241">
        <ele>1189.9326495848</ele>
        <time>2019-07-06T08:44:49Z</time>
      </trkpt>
      <trkpt lat="45.57542" lon="6.69238">
        <ele>1190.5240863459</ele>
        <time>2019-07-06T08:44:51Z</time>
      </trkpt>
      <trkpt lat="45.57544" lon="6.69238">
        <ele>1190.924206336</ele>
        <time>2019-07-06T08:44:53Z</time>
      </trkpt>
      <trkpt lat="45.57546" lon="6.69237">
        <ele>1191.3004845107</ele>
        <time>2019-07-06T08:44:55Z</time>
      </trkpt>
      <trkpt lat="45.57547" lon="6.69235">
        <ele>1191.4318656855</ele>
        <time>2019-07-06T08:44:57Z</time>
      </trkpt>
      <trkpt lat="45.57549" lon="6.69233">
        <ele>1191.2127860434</ele>
        <time>2019-07-06T08:44:59Z</time>
      </trkpt>
      <trkpt lat="45.57549" lon="6.6923">
        <ele>1190.8677445206</ele>
        <time>2019-07-06T08:45:01Z</time>
      </trkpt>
      <trkpt lat="45.57551" lon="6.69229">
        <ele>1190.96459228</ele>
        <time>2019-07-06T08:45:04Z</time>
      </trkpt>
      <trkpt lat="45.57554" lon="6.69227">
        <ele>1191.0877631322</ele>
        <time>2019-07-06T08:45:06Z</time>
      </trkpt>
      <trkpt lat="45.57555" lon="6.69226">
        <ele>1191.4243018835</ele>
        <time>2019-07-06T08:45:08Z</time>
      </trkpt>
      <trkpt lat="45.57556" lon="6.69223">
        <ele>1191.2534045221</ele>
        <time>2019-07-06T08:45:10Z</time>
      </trkpt>
      <trkpt lat="45.57558" lon="6.69221">
        <ele>1190.5905119014</ele>
        <time>2019-07-06T08:45:13Z</time>
      </trkpt>
      <trkpt lat="45.5756" lon="6.6922">
        <ele>1190.78753628</ele>
        <time>2019-07-06T08:45:16Z</time>
      </trkpt>
      <trkpt lat="45.57562" lon="6.6922">
        <ele>1190.8825682257</ele>
        <time>2019-07-06T08:45:19Z</time>
      </trkpt>
      <trkpt lat="45.57564" lon="6.69218">
        <ele>1190.8879465553</ele>
        <time>2019-07-06T08:45:24Z</time>
      </trkpt>
      <trkpt lat="45.57565" lon="6.69221">
        <ele>1189.5738438761</ele>
        <time>2019-07-06T08:45:36Z</time>
      </trkpt>
      <trkpt lat="45.57567" lon="6.6922">
        <ele>1188.5842826221</ele>
        <time>2019-07-06T08:45:38Z</time>
      </trkpt>
      <trkpt lat="45.57569" lon="6.69218">
        <ele>1187.7280361071</ele>
        <time>2019-07-06T08:45:41Z</time>
      </trkpt>
      <trkpt lat="45.5757" lon="6.69221">
        <ele>1187.8307854568</ele>
        <time>2019-07-06T08:45:52Z</time>
      </trkpt>
      <trkpt lat="45.5757" lon="6.69224">
        <ele>1188.1914578867</ele>
        <time>2019-07-06T08:45:57Z</time>
      </trkpt>
      <trkpt lat="45.57571" lon="6.69227">
        <ele>1188.3905189339</ele>
        <time>2019-07-06T08:46:01Z</time>
      </trkpt>
      <trkpt lat="45.57573" lon="6.69231">
        <ele>1188.2175145105</ele>
        <time>2019-07-06T08:46:03Z</time>
      </trkpt>
      <trkpt lat="45.57573" lon="6.69234">
        <ele>1187.9896153593</ele>
        <time>2019-07-06T08:46:05Z</time>
      </trkpt>
      <trkpt lat="45.57574" lon="6.69236">
        <ele>1188.0490383824</ele>
        <time>2019-07-06T08:46:08Z</time>
      </trkpt>
      <trkpt lat="45.57575" lon="6.69239">
        <ele>1187.8395754509</ele>
        <time>2019-07-06T08:46:11Z</time>
      </trkpt>
      <trkpt lat="45.57577" lon="6.69241">
        <ele>1187.6689878608</ele>
        <time>2019-07-06T08:46:13Z</time>
      </trkpt>
      <trkpt lat="45.57578" lon="6.69245">
        <ele>1187.4804180819</ele>
        <time>2019-07-06T08:46:15Z</time>
      </trkpt>
      <trkpt lat="45.57578" lon="6.69251">
        <ele>1187.408087361</ele>
        <time>2019-07-06T08:46:16Z</time>
      </trkpt>
      <trkpt lat="45.57578" lon="6.69255">
        <ele>1187.3610629327</ele>
        <time>2019-07-06T08:46:18Z</time>
      </trkpt>
      <trkpt lat="45.57579" lon="6.69258">
        <ele>1187.2798517004</ele>
        <time>2019-07-06T08:46:20Z</time>
      </trkpt>
      <trkpt lat="45.5758" lon="6.69262">
        <ele>1186.9976831869</ele>
        <time>2019-07-06T08:46:23Z</time>
      </trkpt>
      <trkpt lat="45.57581" lon="6.69266">
        <ele>1186.7415985417</ele>
        <time>2019-07-06T08:46:25Z</time>
      </trkpt>
      <trkpt lat="45.57582" lon="6.6927">
        <ele>1186.2973559223</ele>
        <time>2019-07-06T08:46:27Z</time>
      </trkpt>
      <trkpt lat="45.57581" lon="6.69273">
        <ele>1185.6292939878</ele>
        <time>2019-07-06T08:46:29Z</time>
      </trkpt>
      <trkpt lat="45.57582" lon="6.69276">
        <ele>1184.7584153954</ele>
        <time>2019-07-06T08:46:31Z</time>
      </trkpt>
      <trkpt lat="45.57583" lon="6.69279">
        <ele>1184.1076688126</ele>
        <time>2019-07-06T08:46:34Z</time>
      </trkpt>
      <trkpt lat="45.57583" lon="6.69275">
        <ele>1185.1393187884</ele>
        <time>2019-07-06T08:46:41Z</time>
      </trkpt>
      <trkpt lat="45.57584" lon="6.69272">
        <ele>1185.32312944</ele>
        <time>2019-07-06T08:46:44Z</time>
      </trkpt>
      <trkpt lat="45.57584" lon="6.69269">
        <ele>1185.4158701816</ele>
        <time>2019-07-06T08:46:48Z</time>
      </trkpt>
      <trkpt lat="45.57583" lon="6.69267">
        <ele>1185.908282646</ele>
        <time>2019-07-06T08:46:54Z</time>
      </trkpt>
      <trkpt lat="45.57585" lon="6.69268">
        <ele>1185.1723489178</ele>
        <time>2019-07-06T08:47:02Z</time>
      </trkpt>
      <trkpt lat="45.57588" lon="6.69268">
        <ele>1184.5853826383</ele>
        <time>2019-07-06T08:47:03Z</time>
      </trkpt>
      <trkpt lat="45.5759" lon="6.69268">
        <ele>1183.2640976732</ele>
        <time>2019-07-06T08:47:06Z</time>
      </trkpt>
      <trkpt lat="45.57588" lon="6.69265">
        <ele>1185.0786712676</ele>
        <time>2019-07-06T08:47:26Z</time>
      </trkpt>
      <trkpt lat="45.57587" lon="6.69264">
        <ele>1184.0707069157</ele>
        <time>2019-07-06T08:48:08Z</time>
      </trkpt>
      <trkpt lat="45.57585" lon="6.69265">
        <ele>1183.5929598716</ele>
        <time>2019-07-06T08:48:16Z</time>
      </trkpt>
      <trkpt lat="45.57585" lon="6.69268">
        <ele>1183.0359527673</ele>
        <time>2019-07-06T08:48:19Z</time>
      </trkpt>
      <trkpt lat="45.57585" lon="6.69271">
        <ele>1182.5157443375</ele>
        <time>2019-07-06T08:48:23Z</time>
      </trkpt>
      <trkpt lat="45.57586" lon="6.69274">
        <ele>1180.8130427408</ele>
        <time>2019-07-06T08:49:12Z</time>
      </trkpt>
      <trkpt lat="45.57584" lon="6.69273">
        <ele>1204.0105792067</ele>
        <time>2019-07-06T08:49:24Z</time>
      </trkpt>
      <trkpt lat="45.57582" lon="6.69273">
        <ele>1206.2906107879</ele>
        <time>2019-07-06T08:49:31Z</time>
      </trkpt>
      <trkpt lat="45.5758" lon="6.69274">
        <ele>1205.9539233775</ele>
        <time>2019-07-06T08:49:36Z</time>
      </trkpt>
      <trkpt lat="45.5758" lon="6.6927">
        <ele>1205.211290527</ele>
        <time>2019-07-06T08:49:48Z</time>
      </trkpt>
      <trkpt lat="45.57578" lon="6.69266">
        <ele>1204.3585813311</ele>
        <time>2019-07-06T08:49:56Z</time>
      </trkpt>
      <trkpt lat="45.57579" lon="6.69264">
        <ele>1203.3097643467</ele>
        <time>2019-07-06T08:50:38Z</time>
      </trkpt>
      <trkpt lat="45.57579" lon="6.69261">
        <ele>1202.7167134528</ele>
        <time>2019-07-06T08:51:03Z</time>
      </trkpt>
      <trkpt lat="45.57579" lon="6.69264">
        <ele>1203.0668400209</ele>
        <time>2019-07-06T08:51:36Z</time>
      </trkpt>
      <trkpt lat="45.5758" lon="6.69261">
        <ele>1202.771122151</ele>
        <time>2019-07-06T08:52:55Z</time>
      </trkpt>
      <trkpt lat="45.57578" lon="6.69259">
        <ele>1202.5546262044</ele>
        <time>2019-07-06T08:53:09Z</time>
      </trkpt>
      <trkpt lat="45.57578" lon="6.69256">
        <ele>1201.557257615</ele>
        <time>2019-07-06T08:53:28Z</time>
      </trkpt>
      <trkpt lat="45.57577" lon="6.69253">
        <ele>1200.8410554024</ele>
        <time>2019-07-06T08:53:30Z</time>
      </trkpt>
      <trkpt lat="45.57578" lon="6.69251">
        <ele>1200.1526177945</ele>
        <time>2019-07-06T08:53:45Z</time>
      </trkpt>
      <trkpt lat="45.57578" lon="6.69248">
        <ele>1199.8015091289</ele>
        <time>2019-07-06T08:53:50Z</time>
      </trkpt>
      <trkpt lat="45.5758" lon="6.6925">
        <ele>1199.8389648378</ele>
        <time>2019-07-06T08:54:13Z</time>
      </trkpt>
      <trkpt lat="45.57582" lon="6.6925">
        <ele>1199.8994419011</ele>
        <time>2019-07-06T08:54:24Z</time>
      </trkpt>
      <trkpt lat="45.57584" lon="6.6925">
        <ele>1199.9946962465</ele>
        <time>2019-07-06T08:54:39Z</time>
      </trkpt>
      <trkpt lat="45.57585" lon="6.69248">
        <ele>1200.2786165643</ele>
        <time>2019-07-06T08:54:54Z</time>
      </trkpt>
      <trkpt lat="45.57583" lon="6.6925">
        <ele>1199.9767768031</ele>
        <time>2019-07-06T08:55:22Z</time>
      </trkpt>
      <trkpt lat="45.57582" lon="6.6925">
        <ele>1200.0661694795</ele>
        <time>2019-07-06T08:55:43Z</time>
      </trkpt>
      <trkpt lat="45.5758" lon="6.69252">
        <ele>1199.9582328796</ele>
        <time>2019-07-06T08:59:21Z</time>
      </trkpt>
      <trkpt lat="45.57581" lon="6.69254">
        <ele>1200.7745011559</ele>
        <time>2019-07-06T09:02:05Z</time>
      </trkpt>
      <trkpt lat="45.57582" lon="6.69256">
        <ele>1201.4892736586</ele>
        <time>2019-07-06T09:02:15Z</time>
      </trkpt>
      <trkpt lat="45.57584" lon="6.69254">
        <ele>1201.2486721669</ele>
        <time>2019-07-06T09:04:24Z</time>
      </trkpt>
      <trkpt lat="45.57586" lon="6.69254">
        <ele>1201.4636031957</ele>
        <time>2019-07-06T09:05:06Z</time>
      </trkpt>
      <trkpt lat="45.57586" lon="6.69251">
        <ele>1201.3457375037</ele>
        <time>2019-07-06T09:05:11Z</time>
      </trkpt>
      <trkpt lat="45.57584" lon="6.69247">
        <ele>1200.4052548985</ele>
        <time>2019-07-06T09:05:13Z</time>
      </trkpt>
      <trkpt lat="45.57583" lon="6.69244">
        <ele>1199.9627909905</ele>
        <time>2019-07-06T09:05:15Z</time>
      </trkpt>
      <trkpt lat="45.57584" lon="6.69247">
        <ele>1200.1407643873</ele>
        <time>2019-07-06T09:05:31Z</time>
      </trkpt>
      <trkpt lat="45.57586" lon="6.69247">
        <ele>1200.5537471268</ele>
        <time>2019-07-06T09:05:36Z</time>
      </trkpt>
      <trkpt lat="45.57584" lon="6.69248">
        <ele>1200.2332720476</ele>
        <time>2019-07-06T09:06:47Z</time>
      </trkpt>
      <trkpt lat="45.57582" lon="6.69248">
        <ele>1199.8568557057</ele>
        <time>2019-07-06T09:06:52Z</time>
      </trkpt>
      <trkpt lat="45.5758" lon="6.69247">
        <ele>1199.7779513267</ele>
        <time>2019-07-06T09:06:55Z</time>
      </trkpt>
      <trkpt lat="45.5758" lon="6.69245">
        <ele>1199.6707051685</ele>
        <time>2019-07-06T09:07:23Z</time>
      </trkpt>
      <trkpt lat="45.57579" lon="6.69242">
        <ele>1199.5365234503</ele>
        <time>2019-07-06T09:07:46Z</time>
      </trkpt>
      <trkpt lat="45.57579" lon="6.69239">
        <ele>1199.4517682039</ele>
        <time>2019-07-06T09:07:55Z</time>
      </trkpt>
      <trkpt lat="45.57581" lon="6.69236">
        <ele>1199.2695514613</ele>
        <time>2019-07-06T09:08:01Z</time>
      </trkpt>
      <trkpt lat="45.57582" lon="6.69239">
        <ele>1199.6578178406</ele>
        <time>2019-07-06T09:10:17Z</time>
      </trkpt>
      <trkpt lat="45.5758" lon="6.69237">
        <ele>1199.514263686</ele>
        <time>2019-07-06T09:11:12Z</time>
      </trkpt>
      <trkpt lat="45.57582" lon="6.69235">
        <ele>1199.4313774109</ele>
        <time>2019-07-06T09:12:53Z</time>
      </trkpt>
      <trkpt lat="45.57582" lon="6.69239">
        <ele>1199.6751750183</ele>
        <time>2019-07-06T09:12:56Z</time>
      </trkpt>
      <trkpt lat="45.57583" lon="6.69241">
        <ele>1199.3439731791</ele>
        <time>2019-07-06T09:13:02Z</time>
      </trkpt>
      <trkpt lat="45.57582" lon="6.69239">
        <ele>1199.8091142822</ele>
        <time>2019-07-06T09:13:07Z</time>
      </trkpt>
      <trkpt lat="45.57584" lon="6.69239">
        <ele>1199.9531860876</ele>
        <time>2019-07-06T09:13:16Z</time>
      </trkpt>
      <trkpt lat="45.57582" lon="6.69238">
        <ele>1199.9469010925</ele>
        <time>2019-07-06T09:15:27Z</time>
      </trkpt>
      <trkpt lat="45.57579" lon="6.69237">
        <ele>1199.5701459677</ele>
        <time>2019-07-06T09:15:31Z</time>
      </trkpt>
      <trkpt lat="45.57581" lon="6.69237">
        <ele>1199.4225700125</ele>
        <time>2019-07-06T09:15:34Z</time>
      </trkpt>
      <trkpt lat="45.57581" lon="6.69235">
        <ele>1199.5187260033</ele>
        <time>2019-07-06T09:15:44Z</time>
      </trkpt>
      <trkpt lat="45.5758" lon="6.69232">
        <ele>1199.3376997448</ele>
        <time>2019-07-06T09:15:47Z</time>
      </trkpt>
      <trkpt lat="45.57582" lon="6.69234">
        <ele>1199.5415340485</ele>
        <time>2019-07-06T09:16:03Z</time>
      </trkpt>
      <trkpt lat="45.57579" lon="6.69235">
        <ele>1199.3909218136</ele>
        <time>2019-07-06T09:16:17Z</time>
      </trkpt>
      <trkpt lat="45.57579" lon="6.69237">
        <ele>1199.30883682</ele>
        <time>2019-07-06T09:16:24Z</time>
      </trkpt>
      <trkpt lat="45.57576" lon="6.69238">
        <ele>1199.1310586949</ele>
        <time>2019-07-06T09:16:40Z</time>
      </trkpt>
      <trkpt lat="45.57575" lon="6.6924">
        <ele>1198.9570557286</ele>
        <time>2019-07-06T09:16:44Z</time>
      </trkpt>
      <trkpt lat="45.57573" lon="6.69242">
        <ele>1198.9603634421</ele>
        <time>2019-07-06T09:16:46Z</time>
      </trkpt>
      <trkpt lat="45.57572" lon="6.69244">
        <ele>1199.0441140385</ele>
        <time>2019-07-06T09:16:49Z</time>
      </trkpt>
      <trkpt lat="45.5757" lon="6.69245">
        <ele>1199.1623821153</ele>
        <time>2019-07-06T09:16:52Z</time>
      </trkpt>
      <trkpt lat="45.57569" lon="6.69243">
        <ele>1198.930754354</ele>
        <time>2019-07-06T09:17:04Z</time>
      </trkpt>
      <trkpt lat="45.57567" lon="6.69245">
        <ele>1198.9075759203</ele>
        <time>2019-07-06T09:17:09Z</time>
      </trkpt>
      <trkpt lat="45.57569" lon="6.69244">
        <ele>1199.0681917308</ele>
        <time>2019-07-06T09:17:25Z</time>
      </trkpt>
      <trkpt lat="45.57569" lon="6.69241">
        <ele>1198.9373537427</ele>
        <time>2019-07-06T09:17:35Z</time>
      </trkpt>
      <trkpt lat="45.57567" lon="6.69238">
        <ele>1198.336285807</ele>
        <time>2019-07-06T09:17:37Z</time>
      </trkpt>
      <trkpt lat="45.57565" lon="6.69235">
        <ele>1197.6139335749</ele>
        <time>2019-07-06T09:17:39Z</time>
      </trkpt>
      <trkpt lat="45.57563" lon="6.69234">
        <ele>1196.772715912</ele>
        <time>2019-07-06T09:17:41Z</time>
      </trkpt>
      <trkpt lat="45.57561" lon="6.69233">
        <ele>1196.2637885986</ele>
        <time>2019-07-06T09:17:43Z</time>
      </trkpt>
      <trkpt lat="45.57559" lon="6.69235">
        <ele>1196.0229217376</ele>
        <time>2019-07-06T09:17:45Z</time>
      </trkpt>
      <trkpt lat="45.57557" lon="6.69235">
        <ele>1195.9175157767</ele>
        <time>2019-07-06T09:17:49Z</time>
      </trkpt>
      <trkpt lat="45.57555" lon="6.69236">
        <ele>1195.6754551031</ele>
        <time>2019-07-06T09:17:51Z</time>
      </trkpt>
      <trkpt lat="45.57553" lon="6.69236">
        <ele>1195.6125877191</ele>
        <time>2019-07-06T09:17:53Z</time>
      </trkpt>
      <trkpt lat="45.57551" lon="6.69238">
        <ele>1195.5887229612</ele>
        <time>2019-07-06T09:17:55Z</time>
      </trkpt>
      <trkpt lat="45.57549" lon="6.6924">
        <ele>1195.9523954465</ele>
        <time>2019-07-06T09:17:57Z</time>
      </trkpt>
      <trkpt lat="45.57548" lon="6.69242">
        <ele>1195.8175723791</ele>
        <time>2019-07-06T09:18:00Z</time>
      </trkpt>
      <trkpt lat="45.57546" lon="6.69245">
        <ele>1195.9359196117</ele>
        <time>2019-07-06T09:18:03Z</time>
      </trkpt>
      <trkpt lat="45.57544" lon="6.69248">
        <ele>1196.196204327</ele>
        <time>2019-07-06T09:18:05Z</time>
      </trkpt>
      <trkpt lat="45.57543" lon="6.6925">
        <ele>1196.2102115737</ele>
        <time>2019-07-06T09:18:08Z</time>
      </trkpt>
      <trkpt lat="45.5754" lon="6.69251">
        <ele>1195.8425727349</ele>
        <time>2019-07-06T09:18:10Z</time>
      </trkpt>
      <trkpt lat="45.57538" lon="6.69255">
        <ele>1195.1571287684</ele>
        <time>2019-07-06T09:18:12Z</time>
      </trkpt>
      <trkpt lat="45.57536" lon="6.69257">
        <ele>1194.5090792604</ele>
        <time>2019-07-06T09:18:14Z</time>
      </trkpt>
      <trkpt lat="45.57534" lon="6.69259">
        <ele>1193.9918993024</ele>
        <time>2019-07-06T09:18:16Z</time>
      </trkpt>
      <trkpt lat="45.57533" lon="6.69263">
        <ele>1193.5718837529</ele>
        <time>2019-07-06T09:18:18Z</time>
      </trkpt>
      <trkpt lat="45.57532" lon="6.69267">
        <ele>1193.2124956091</ele>
        <time>2019-07-06T09:18:20Z</time>
      </trkpt>
      <trkpt lat="45.57532" lon="6.69271">
        <ele>1193.075923212</ele>
        <time>2019-07-06T09:18:22Z</time>
      </trkpt>
      <trkpt lat="45.57532" lon="6.69273">
        <ele>1193.037238241</ele>
        <time>2019-07-06T09:18:23Z</time>
      </trkpt>
      <trkpt lat="45.57531" lon="6.69276">
        <ele>1192.86891307</ele>
        <time>2019-07-06T09:18:25Z</time>
      </trkpt>
      <trkpt lat="45.5753" lon="6.6928">
        <ele>1192.6439326991</ele>
        <time>2019-07-06T09:18:27Z</time>
      </trkpt>
      <trkpt lat="45.5753" lon="6.69284">
        <ele>1192.4521907079</ele>
        <time>2019-07-06T09:18:29Z</time>
      </trkpt>
      <trkpt lat="45.57529" lon="6.69287">
        <ele>1192.2753050263</ele>
        <time>2019-07-06T09:18:31Z</time>
      </trkpt>
      <trkpt lat="45.57529" lon="6.6929">
        <ele>1192.1433811402</ele>
        <time>2019-07-06T09:18:33Z</time>
      </trkpt>
      <trkpt lat="45.57528" lon="6.69294">
        <ele>1192.0629713251</ele>
        <time>2019-07-06T09:18:35Z</time>
      </trkpt>
      <trkpt lat="45.57528" lon="6.69297">
        <ele>1191.9056450102</ele>
        <time>2019-07-06T09:18:37Z</time>
      </trkpt>
      <trkpt lat="45.57528" lon="6.693">
        <ele>1191.9831842959</ele>
        <time>2019-07-06T09:18:39Z</time>
      </trkpt>
      <trkpt lat="45.57529" lon="6.69303">
        <ele>1192.2632569766</ele>
        <time>2019-07-06T09:18:42Z</time>
      </trkpt>
      <trkpt lat="45.57531" lon="6.69306">
        <ele>1192.3690626616</ele>
        <time>2019-07-06T09:18:44Z</time>
      </trkpt>
      <trkpt lat="45.57531" lon="6.6931">
        <ele>1192.6401317048</ele>
        <time>2019-07-06T09:18:46Z</time>
      </trkpt>
      <trkpt lat="45.57532" lon="6.69313">
        <ele>1192.8916717409</ele>
        <time>2019-07-06T09:18:48Z</time>
      </trkpt>
      <trkpt lat="45.57532" lon="6.69317">
        <ele>1193.0258047462</ele>
        <time>2019-07-06T09:18:51Z</time>
      </trkpt>
      <trkpt lat="45.57533" lon="6.69321">
        <ele>1193.2425426315</ele>
        <time>2019-07-06T09:18:53Z</time>
      </trkpt>
      <trkpt lat="45.57534" lon="6.69324">
        <ele>1193.5338722919</ele>
        <time>2019-07-06T09:18:56Z</time>
      </trkpt>
      <trkpt lat="45.57535" lon="6.69328">
        <ele>1193.6701490952</ele>
        <time>2019-07-06T09:18:59Z</time>
      </trkpt>
      <trkpt lat="45.57537" lon="6.69331">
        <ele>1194.0898158896</ele>
        <time>2019-07-06T09:19:02Z</time>
      </trkpt>
      <trkpt lat="45.57539" lon="6.69334">
        <ele>1194.7890462253</ele>
        <time>2019-07-06T09:19:05Z</time>
      </trkpt>
      <trkpt lat="45.57539" lon="6.69337">
        <ele>1195.0298198217</ele>
        <time>2019-07-06T09:19:07Z</time>
      </trkpt>
      <trkpt lat="45.57541" lon="6.6934">
        <ele>1195.4149912295</ele>
        <time>2019-07-06T09:19:09Z</time>
      </trkpt>
      <trkpt lat="45.57543" lon="6.69343">
        <ele>1195.7917079338</ele>
        <time>2019-07-06T09:19:11Z</time>
      </trkpt>
      <trkpt lat="45.57544" lon="6.69346">
        <ele>1196.2906948274</ele>
        <time>2019-07-06T09:19:13Z</time>
      </trkpt>
      <trkpt lat="45.57545" lon="6.69351">
        <ele>1196.4442418253</ele>
        <time>2019-07-06T09:19:15Z</time>
      </trkpt>
      <trkpt lat="45.57546" lon="6.69352">
        <ele>1196.9797321942</ele>
        <time>2019-07-06T09:19:18Z</time>
      </trkpt>
      <trkpt lat="45.57547" lon="6.69355">
        <ele>1197.2422762295</ele>
        <time>2019-07-06T09:19:21Z</time>
      </trkpt>
      <trkpt lat="45.57548" lon="6.69358">
        <ele>1197.4004921951</ele>
        <time>2019-07-06T09:19:22Z</time>
      </trkpt>
      <trkpt lat="45.57549" lon="6.69361">
        <ele>1197.7493974162</ele>
        <time>2019-07-06T09:19:24Z</time>
      </trkpt>
      <trkpt lat="45.57551" lon="6.69362">
        <ele>1198.4291498961</ele>
        <time>2019-07-06T09:19:26Z</time>
      </trkpt>
      <trkpt lat="45.57553" lon="6.69364">
        <ele>1198.9213893154</ele>
        <time>2019-07-06T09:19:28Z</time>
      </trkpt>
      <trkpt lat="45.57555" lon="6.69366">
        <ele>1199.5020282624</ele>
        <time>2019-07-06T09:19:30Z</time>
      </trkpt>
      <trkpt lat="45.57556" lon="6.69369">
        <ele>1200.0032850913</ele>
        <time>2019-07-06T09:19:32Z</time>
      </trkpt>
      <trkpt lat="45.57558" lon="6.69369">
        <ele>1200.3600260377</ele>
        <time>2019-07-06T09:19:43Z</time>
      </trkpt>
      <trkpt lat="45.57559" lon="6.69367">
        <ele>1200.874619391</ele>
        <time>2019-07-06T09:19:55Z</time>
      </trkpt>
      <trkpt lat="45.57561" lon="6.69367">
        <ele>1201.4606623565</ele>
        <time>2019-07-06T09:20:01Z</time>
      </trkpt>
      <trkpt lat="45.57563" lon="6.69365">
        <ele>1201.664021679</ele>
        <time>2019-07-06T09:20:08Z</time>
      </trkpt>
      <trkpt lat="45.57565" lon="6.69363">
        <ele>1202.2605678672</ele>
        <time>2019-07-06T09:20:10Z</time>
      </trkpt>
      <trkpt lat="45.57566" lon="6.69361">
        <ele>1202.8119092381</ele>
        <time>2019-07-06T09:20:13Z</time>
      </trkpt>
      <trkpt lat="45.57569" lon="6.6936">
        <ele>1203.3097314535</ele>
        <time>2019-07-06T09:20:16Z</time>
      </trkpt>
      <trkpt lat="45.57571" lon="6.69359">
        <ele>1203.892136049</ele>
        <time>2019-07-06T09:20:18Z</time>
      </trkpt>
      <trkpt lat="45.57573" lon="6.69356">
        <ele>1204.6713223004</ele>
        <time>2019-07-06T09:20:21Z</time>
      </trkpt>
      <trkpt lat="45.57574" lon="6.69355">
        <ele>1205.1440675511</ele>
        <time>2019-07-06T09:20:24Z</time>
      </trkpt>
      <trkpt lat="45.57576" lon="6.69354">
        <ele>1205.5650863435</ele>
        <time>2019-07-06T09:20:26Z</time>
      </trkpt>
      <trkpt lat="45.57578" lon="6.69354">
        <ele>1206.1930745964</ele>
        <time>2019-07-06T09:20:29Z</time>
      </trkpt>
      <trkpt lat="45.57581" lon="6.69354">
        <ele>1206.7567804655</ele>
        <time>2019-07-06T09:20:32Z</time>
      </trkpt>
      <trkpt lat="45.57584" lon="6.69354">
        <ele>1207.5654885805</ele>
        <time>2019-07-06T09:20:35Z</time>
      </trkpt>
      <trkpt lat="45.57586" lon="6.69355">
        <ele>1208.2430810714</ele>
        <time>2019-07-06T09:20:37Z</time>
      </trkpt>
      <trkpt lat="45.57588" lon="6.69356">
        <ele>1208.8462608049</ele>
        <time>2019-07-06T09:20:39Z</time>
      </trkpt>
      <trkpt lat="45.5759" lon="6.69357">
        <ele>1209.770010556</ele>
        <time>2019-07-06T09:20:42Z</time>
      </trkpt>
      <trkpt lat="45.57593" lon="6.69357">
        <ele>1210.337419047</ele>
        <time>2019-07-06T09:20:45Z</time>
      </trkpt>
      <trkpt lat="45.57595" lon="6.69357">
        <ele>1210.9725581886</ele>
        <time>2019-07-06T09:20:47Z</time>
      </trkpt>
      <trkpt lat="45.57597" lon="6.69358">
        <ele>1211.5954403417</ele>
        <time>2019-07-06T09:20:49Z</time>
      </trkpt>
      <trkpt lat="45.576" lon="6.69358">
        <ele>1212.3574977726</ele>
        <time>2019-07-06T09:20:52Z</time>
      </trkpt>
      <trkpt lat="45.57603" lon="6.69357">
        <ele>1213.0706105136</ele>
        <time>2019-07-06T09:20:56Z</time>
      </trkpt>
      <trkpt lat="45.57605" lon="6.69357">
        <ele>1213.7238512849</ele>
        <time>2019-07-06T09:20:58Z</time>
      </trkpt>
      <trkpt lat="45.57607" lon="6.69359">
        <ele>1214.4145398736</ele>
        <time>2019-07-06T09:21:02Z</time>
      </trkpt>
      <trkpt lat="45.57609" lon="6.69359">
        <ele>1215.0930898507</ele>
        <time>2019-07-06T09:21:06Z</time>
      </trkpt>
      <trkpt lat="45.57611" lon="6.69359">
        <ele>1215.6101588419</ele>
        <time>2019-07-06T09:21:08Z</time>
      </trkpt>
      <trkpt lat="45.57614" lon="6.69359">
        <ele>1215.9036178378</ele>
        <time>2019-07-06T09:21:11Z</time>
      </trkpt>
      <trkpt lat="45.57617" lon="6.69359">
        <ele>1215.9039112968</ele>
        <time>2019-07-06T09:21:14Z</time>
      </trkpt>
      <trkpt lat="45.57619" lon="6.69356">
        <ele>1215.9039115905</ele>
        <time>2019-07-06T09:21:18Z</time>
      </trkpt>
      <trkpt lat="45.5762" lon="6.69355">
        <ele>1215.9039115906</ele>
        <time>2019-07-06T09:21:21Z</time>
      </trkpt>
      <trkpt lat="45.57622" lon="6.69353">
        <ele>1215.9039115906</ele>
        <time>2019-07-06T09:21:23Z</time>
      </trkpt>
      <trkpt lat="45.57625" lon="6.69351">
        <ele>1215.9039115906</ele>
        <time>2019-07-06T09:21:26Z</time>
      </trkpt>
      <trkpt lat="45.57626" lon="6.69349">
        <ele>1215.9039115906</ele>
        <time>2019-07-06T09:21:29Z</time>
      </trkpt>
      <trkpt lat="45.57628" lon="6.69348">
        <ele>1215.9039115906</ele>
        <time>2019-07-06T09:21:32Z</time>
      </trkpt>
      <trkpt lat="45.57631" lon="6.69349">
        <ele>1215.9039115906</ele>
        <time>2019-07-06T09:21:34Z</time>
      </trkpt>
      <trkpt lat="45.57633" lon="6.69349">
        <ele>1215.9039115906</ele>
        <time>2019-07-06T09:21:36Z</time>
      </trkpt>
      <trkpt lat="45.57634" lon="6.69348">
        <ele>1215.9039115906</ele>
        <time>2019-07-06T09:21:38Z</time>
      </trkpt>
      <trkpt lat="45.57637" lon="6.69347">
        <ele>1215.9039115906</ele>
        <time>2019-07-06T09:21:40Z</time>
      </trkpt>
      <trkpt lat="45.57639" lon="6.69345">
        <ele>1215.9039115906</ele>
        <time>2019-07-06T09:21:41Z</time>
      </trkpt>
      <trkpt lat="45.5764" lon="6.69342">
        <ele>1216.1718681335</ele>
        <time>2019-07-06T09:21:43Z</time>
      </trkpt>
      <trkpt lat="45.57641" lon="6.6934">
        <ele>1216.3220830994</ele>
        <time>2019-07-06T09:21:45Z</time>
      </trkpt>
      <trkpt lat="45.57642" lon="6.69337">
        <ele>1216.6611951123</ele>
        <time>2019-07-06T09:21:47Z</time>
      </trkpt>
      <trkpt lat="45.57644" lon="6.69333">
        <ele>1217.0225647481</ele>
        <time>2019-07-06T09:21:49Z</time>
      </trkpt>
      <trkpt lat="45.57646" lon="6.6933">
        <ele>1217.5992829896</ele>
        <time>2019-07-06T09:21:53Z</time>
      </trkpt>
      <trkpt lat="45.57647" lon="6.69328">
        <ele>1218.0294273163</ele>
        <time>2019-07-06T09:21:55Z</time>
      </trkpt>
      <trkpt lat="45.57648" lon="6.69325">
        <ele>1218.3092438963</ele>
        <time>2019-07-06T09:21:57Z</time>
      </trkpt>
      <trkpt lat="45.57649" lon="6.69322">
        <ele>1218.6731846402</ele>
        <time>2019-07-06T09:21:59Z</time>
      </trkpt>
      <trkpt lat="45.5765" lon="6.69319">
        <ele>1218.9871411546</ele>
        <time>2019-07-06T09:22:03Z</time>
      </trkpt>
      <trkpt lat="45.57653" lon="6.69316">
        <ele>1219.4370754292</ele>
        <time>2019-07-06T09:22:05Z</time>
      </trkpt>
      <trkpt lat="45.57654" lon="6.69314">
        <ele>1220.1997343039</ele>
        <time>2019-07-06T09:22:09Z</time>
      </trkpt>
      <trkpt lat="45.57656" lon="6.69311">
        <ele>1220.6425095373</ele>
        <time>2019-07-06T09:22:12Z</time>
      </trkpt>
      <trkpt lat="45.57657" lon="6.69308">
        <ele>1220.9595574151</ele>
        <time>2019-07-06T09:22:15Z</time>
      </trkpt>
      <trkpt lat="45.57658" lon="6.69305">
        <ele>1221.1060232246</ele>
        <time>2019-07-06T09:22:17Z</time>
      </trkpt>
      <trkpt lat="45.57659" lon="6.69302">
        <ele>1221.4224219647</ele>
        <time>2019-07-06T09:22:19Z</time>
      </trkpt>
      <trkpt lat="45.5766" lon="6.69299">
        <ele>1221.9288916162</ele>
        <time>2019-07-06T09:22:21Z</time>
      </trkpt>
      <trkpt lat="45.57662" lon="6.69296">
        <ele>1222.3063514876</ele>
        <time>2019-07-06T09:22:24Z</time>
      </trkpt>
      <trkpt lat="45.57663" lon="6.69293">
        <ele>1222.6309662522</ele>
        <time>2019-07-06T09:22:27Z</time>
      </trkpt>
      <trkpt lat="45.57664" lon="6.69291">
        <ele>1222.9807505837</ele>
        <time>2019-07-06T09:22:30Z</time>
      </trkpt>
      <trkpt lat="45.57666" lon="6.6929">
        <ele>1223.4002952149</ele>
        <time>2019-07-06T09:22:32Z</time>
      </trkpt>
      <trkpt lat="45.57668" lon="6.6929">
        <ele>1224.1503575592</ele>
        <time>2019-07-06T09:22:35Z</time>
      </trkpt>
      <trkpt lat="45.57671" lon="6.69288">
        <ele>1224.7223709886</ele>
        <time>2019-07-06T09:22:39Z</time>
      </trkpt>
      <trkpt lat="45.57672" lon="6.69285">
        <ele>1225.2814070519</ele>
        <time>2019-07-06T09:22:42Z</time>
      </trkpt>
      <trkpt lat="45.57674" lon="6.69283">
        <ele>1225.8334610831</ele>
        <time>2019-07-06T09:22:45Z</time>
      </trkpt>
      <trkpt lat="45.57676" lon="6.69281">
        <ele>1226.2444644097</ele>
        <time>2019-07-06T09:22:47Z</time>
      </trkpt>
      <trkpt lat="45.57677" lon="6.69279">
        <ele>1226.6660878707</ele>
        <time>2019-07-06T09:22:49Z</time>
      </trkpt>
      <trkpt lat="45.57679" lon="6.69278">
        <ele>1227.3073532102</ele>
        <time>2019-07-06T09:22:52Z</time>
      </trkpt>
      <trkpt lat="45.57681" lon="6.69276">
        <ele>1227.7385651543</ele>
        <time>2019-07-06T09:22:55Z</time>
      </trkpt>
      <trkpt lat="45.57682" lon="6.69274">
        <ele>1228.1822337122</ele>
        <time>2019-07-06T09:22:57Z</time>
      </trkpt>
      <trkpt lat="45.57684" lon="6.69272">
        <ele>1228.5157658567</ele>
        <time>2019-07-06T09:22:59Z</time>
      </trkpt>
      <trkpt lat="45.57686" lon="6.69271">
        <ele>1229.2778485181</ele>
        <time>2019-07-06T09:23:02Z</time>
      </trkpt>
      <trkpt lat="45.57688" lon="6.69271">
        <ele>1229.6014595536</ele>
        <time>2019-07-06T09:23:04Z</time>
      </trkpt>
      <trkpt lat="45.5769" lon="6.69272">
        <ele>1230.2733748856</ele>
        <time>2019-07-06T09:23:07Z</time>
      </trkpt>
      <trkpt lat="45.57692" lon="6.69272">
        <ele>1231.0214798627</ele>
        <time>2019-07-06T09:23:14Z</time>
      </trkpt>
      <trkpt lat="45.57693" lon="6.69272">
        <ele>1231.5489914403</ele>
        <time>2019-07-06T09:23:21Z</time>
      </trkpt>
      <trkpt lat="45.57695" lon="6.69271">
        <ele>1231.9314071832</ele>
        <time>2019-07-06T09:23:26Z</time>
      </trkpt>
      <trkpt lat="45.57697" lon="6.6927">
        <ele>1231.9319877625</ele>
        <time>2019-07-06T09:23:36Z</time>
      </trkpt>
      <trkpt lat="45.57699" lon="6.6927">
        <ele>1231.9319877625</ele>
        <time>2019-07-06T09:23:40Z</time>
      </trkpt>
      <trkpt lat="45.57702" lon="6.6927">
        <ele>1231.9319877625</ele>
        <time>2019-07-06T09:23:50Z</time>
      </trkpt>
      <trkpt lat="45.57704" lon="6.69269">
        <ele>1231.9319877625</ele>
        <time>2019-07-06T09:23:53Z</time>
      </trkpt>
      <trkpt lat="45.57706" lon="6.69267">
        <ele>1231.9319877625</ele>
        <time>2019-07-06T09:23:56Z</time>
      </trkpt>
      <trkpt lat="45.57708" lon="6.69268">
        <ele>1231.9319877625</ele>
        <time>2019-07-06T09:24:00Z</time>
      </trkpt>
      <trkpt lat="45.5771" lon="6.69268">
        <ele>1231.9319877625</ele>
        <time>2019-07-06T09:24:03Z</time>
      </trkpt>
      <trkpt lat="45.57712" lon="6.69268">
        <ele>1231.9319877625</ele>
        <time>2019-07-06T09:24:05Z</time>
      </trkpt>
      <trkpt lat="45.57715" lon="6.69269">
        <ele>1231.9319877625</ele>
        <time>2019-07-06T09:24:07Z</time>
      </trkpt>
      <trkpt lat="45.57717" lon="6.6927">
        <ele>1231.9319877625</ele>
        <time>2019-07-06T09:24:09Z</time>
      </trkpt>
      <trkpt lat="45.57718" lon="6.69272">
        <ele>1231.9319877625</ele>
        <time>2019-07-06T09:24:15Z</time>
      </trkpt>
      <trkpt lat="45.57718" lon="6.69275">
        <ele>1231.9319877625</ele>
        <time>2019-07-06T09:24:19Z</time>
      </trkpt>
      <trkpt lat="45.5772" lon="6.69276">
        <ele>1231.9319877625</ele>
        <time>2019-07-06T09:24:27Z</time>
      </trkpt>
      <trkpt lat="45.57722" lon="6.69276">
        <ele>1231.9319877625</ele>
        <time>2019-07-06T09:24:30Z</time>
      </trkpt>
      <trkpt lat="45.57724" lon="6.69276">
        <ele>1232.1688639832</ele>
        <time>2019-07-06T09:24:33Z</time>
      </trkpt>
      <trkpt lat="45.57724" lon="6.69272">
        <ele>1232.3132682538</ele>
        <time>2019-07-06T09:24:38Z</time>
      </trkpt>
      <trkpt lat="45.57728" lon="6.69271">
        <ele>1232.9239768369</ele>
        <time>2019-07-06T09:24:40Z</time>
      </trkpt>
      <trkpt lat="45.5773" lon="6.69272">
        <ele>1233.5288429199</ele>
        <time>2019-07-06T09:24:41Z</time>
      </trkpt>
      <trkpt lat="45.57732" lon="6.69272">
        <ele>1234.6252646713</ele>
        <time>2019-07-06T09:24:44Z</time>
      </trkpt>
      <trkpt lat="45.57734" lon="6.69273">
        <ele>1235.2919655853</ele>
        <time>2019-07-06T09:24:47Z</time>
      </trkpt>
      <trkpt lat="45.57736" lon="6.69273">
        <ele>1235.7952315293</ele>
        <time>2019-07-06T09:24:50Z</time>
      </trkpt>
      <trkpt lat="45.57739" lon="6.69273">
        <ele>1236.4484973685</ele>
        <time>2019-07-06T09:24:53Z</time>
      </trkpt>
      <trkpt lat="45.5774" lon="6.69272">
        <ele>1236.8624873312</ele>
        <time>2019-07-06T09:24:55Z</time>
      </trkpt>
      <trkpt lat="45.57743" lon="6.69273">
        <ele>1237.476906055</ele>
        <time>2019-07-06T09:24:58Z</time>
      </trkpt>
      <trkpt lat="45.57746" lon="6.69273">
        <ele>1238.3890879786</ele>
        <time>2019-07-06T09:25:01Z</time>
      </trkpt>
      <trkpt lat="45.57748" lon="6.69274">
        <ele>1238.9473339111</ele>
        <time>2019-07-06T09:25:03Z</time>
      </trkpt>
      <trkpt lat="45.57751" lon="6.69276">
        <ele>1239.7586308376</ele>
        <time>2019-07-06T09:25:07Z</time>
      </trkpt>
      <trkpt lat="45.57752" lon="6.69278">
        <ele>1240.3905683118</ele>
        <time>2019-07-06T09:25:10Z</time>
      </trkpt>
      <trkpt lat="45.57754" lon="6.69279">
        <ele>1240.7595923668</ele>
        <time>2019-07-06T09:25:12Z</time>
      </trkpt>
      <trkpt lat="45.57756" lon="6.69281">
        <ele>1241.3543241212</ele>
        <time>2019-07-06T09:25:21Z</time>
      </trkpt>
      <trkpt lat="45.57757" lon="6.6928">
        <ele>1241.5712184686</ele>
        <time>2019-07-06T09:25:22Z</time>
      </trkpt>
      <trkpt lat="45.5776" lon="6.69281">
        <ele>1242.3516173742</ele>
        <time>2019-07-06T09:25:24Z</time>
      </trkpt>
      <trkpt lat="45.57762" lon="6.69281">
        <ele>1243.1711301704</ele>
        <time>2019-07-06T09:25:27Z</time>
      </trkpt>
      <trkpt lat="45.57765" lon="6.69282">
        <ele>1243.993326026</ele>
        <time>2019-07-06T09:25:30Z</time>
      </trkpt>
      <trkpt lat="45.57767" lon="6.69282">
        <ele>1244.6888918798</ele>
        <time>2019-07-06T09:25:41Z</time>
      </trkpt>
      <trkpt lat="45.5777" lon="6.69281">
        <ele>1245.3026936412</ele>
        <time>2019-07-06T09:25:44Z</time>
      </trkpt>
      <trkpt lat="45.57772" lon="6.69281">
        <ele>1245.8387819794</ele>
        <time>2019-07-06T09:25:46Z</time>
      </trkpt>
      <trkpt lat="45.57773" lon="6.6928">
        <ele>1246.4009739175</ele>
        <time>2019-07-06T09:25:48Z</time>
      </trkpt>
      <trkpt lat="45.57776" lon="6.69279">
        <ele>1247.0193692744</ele>
        <time>2019-07-06T09:25:50Z</time>
      </trkpt>
      <trkpt lat="45.57778" lon="6.69279">
        <ele>1247.555052683</ele>
        <time>2019-07-06T09:25:53Z</time>
      </trkpt>
      <trkpt lat="45.57777" lon="6.69281">
        <ele>1247.810593015</ele>
        <time>2019-07-06T09:26:01Z</time>
      </trkpt>
      <trkpt lat="45.57779" lon="6.69282">
        <ele>1248.1464455571</ele>
        <time>2019-07-06T09:26:05Z</time>
      </trkpt>
      <trkpt lat="45.57781" lon="6.69283">
        <ele>1248.6318740396</ele>
        <time>2019-07-06T09:26:07Z</time>
      </trkpt>
      <trkpt lat="45.57783" lon="6.69285">
        <ele>1249.2724293331</ele>
        <time>2019-07-06T09:26:11Z</time>
      </trkpt>
      <trkpt lat="45.57786" lon="6.69285">
        <ele>1250.0362857715</ele>
        <time>2019-07-06T09:26:15Z</time>
      </trkpt>
      <trkpt lat="45.57789" lon="6.69286">
        <ele>1250.8029409374</ele>
        <time>2019-07-06T09:26:18Z</time>
      </trkpt>
      <trkpt lat="45.57792" lon="6.69288">
        <ele>1251.5609389934</ele>
        <time>2019-07-06T09:26:20Z</time>
      </trkpt>
      <trkpt lat="45.57794" lon="6.69288">
        <ele>1252.548776992</ele>
        <time>2019-07-06T09:26:23Z</time>
      </trkpt>
      <trkpt lat="45.57797" lon="6.69289">
        <ele>1252.9040296782</ele>
        <time>2019-07-06T09:26:25Z</time>
      </trkpt>
      <trkpt lat="45.57798" lon="6.69289">
        <ele>1253.7610188864</ele>
        <time>2019-07-06T09:26:28Z</time>
      </trkpt>
      <trkpt lat="45.57801" lon="6.69289">
        <ele>1254.2894206754</ele>
        <time>2019-07-06T09:26:31Z</time>
      </trkpt>
      <trkpt lat="45.57804" lon="6.69289">
        <ele>1254.9524785955</ele>
        <time>2019-07-06T09:26:33Z</time>
      </trkpt>
      <trkpt lat="45.57805" lon="6.6929">
        <ele>1255.668130536</ele>
        <time>2019-07-06T09:26:43Z</time>
      </trkpt>
      <trkpt lat="45.57808" lon="6.6929">
        <ele>1256.4038262001</ele>
        <time>2019-07-06T09:26:46Z</time>
      </trkpt>
      <trkpt lat="45.5781" lon="6.6929">
        <ele>1256.9030961976</ele>
        <time>2019-07-06T09:26:49Z</time>
      </trkpt>
      <trkpt lat="45.57812" lon="6.69291">
        <ele>1257.4721335535</ele>
        <time>2019-07-06T09:26:52Z</time>
      </trkpt>
      <trkpt lat="45.57815" lon="6.69292">
        <ele>1258.2984266769</ele>
        <time>2019-07-06T09:26:56Z</time>
      </trkpt>
      <trkpt lat="45.57817" lon="6.69293">
        <ele>1259.0313374777</ele>
        <time>2019-07-06T09:26:59Z</time>
      </trkpt>
      <trkpt lat="45.57819" lon="6.69292">
        <ele>1259.4209094999</ele>
        <time>2019-07-06T09:27:02Z</time>
      </trkpt>
      <trkpt lat="45.57821" lon="6.69293">
        <ele>1260.2128024899</ele>
        <time>2019-07-06T09:27:05Z</time>
      </trkpt>
      <trkpt lat="45.57824" lon="6.69293">
        <ele>1260.829313732</ele>
        <time>2019-07-06T09:27:07Z</time>
      </trkpt>
      <trkpt lat="45.57827" lon="6.69292">
        <ele>1261.7808733697</ele>
        <time>2019-07-06T09:27:10Z</time>
      </trkpt>
      <trkpt lat="45.57829" lon="6.69292">
        <ele>1262.4606404811</ele>
        <time>2019-07-06T09:27:13Z</time>
      </trkpt>
      <trkpt lat="45.57831" lon="6.6929">
        <ele>1262.8258564523</ele>
        <time>2019-07-06T09:27:14Z</time>
      </trkpt>
      <trkpt lat="45.57832" lon="6.69288">
        <ele>1263.6504207162</ele>
        <time>2019-07-06T09:27:18Z</time>
      </trkpt>
      <trkpt lat="45.57835" lon="6.69286">
        <ele>1264.1250725574</ele>
        <time>2019-07-06T09:27:22Z</time>
      </trkpt>
      <trkpt lat="45.57837" lon="6.69284">
        <ele>1264.7658160919</ele>
        <time>2019-07-06T09:27:26Z</time>
      </trkpt>
      <trkpt lat="45.57838" lon="6.69282">
        <ele>1265.16611462</ele>
        <time>2019-07-06T09:27:28Z</time>
      </trkpt>
      <trkpt lat="45.5784" lon="6.69281">
        <ele>1265.6616391537</ele>
        <time>2019-07-06T09:27:32Z</time>
      </trkpt>
      <trkpt lat="45.57841" lon="6.69278">
        <ele>1266.1025058936</ele>
        <time>2019-07-06T09:27:36Z</time>
      </trkpt>
      <trkpt lat="45.57842" lon="6.69276">
        <ele>1265.9416636517</ele>
        <time>2019-07-06T09:27:39Z</time>
      </trkpt>
      <trkpt lat="45.57844" lon="6.69274">
        <ele>1265.9544416991</ele>
        <time>2019-07-06T09:27:41Z</time>
      </trkpt>
      <trkpt lat="45.57845" lon="6.69272">
        <ele>1265.8229093233</ele>
        <time>2019-07-06T09:27:43Z</time>
      </trkpt>
      <trkpt lat="45.57848" lon="6.6927">
        <ele>1265.4759240942</ele>
        <time>2019-07-06T09:27:46Z</time>
      </trkpt>
      <trkpt lat="45.57849" lon="6.69268">
        <ele>1265.7812639986</ele>
        <time>2019-07-06T09:27:49Z</time>
      </trkpt>
      <trkpt lat="45.5785" lon="6.69265">
        <ele>1265.3832515209</ele>
        <time>2019-07-06T09:27:51Z</time>
      </trkpt>
      <trkpt lat="45.57851" lon="6.69262">
        <ele>1264.8534217868</ele>
        <time>2019-07-06T09:27:53Z</time>
      </trkpt>
      <trkpt lat="45.57852" lon="6.69259">
        <ele>1264.3892135773</ele>
        <time>2019-07-06T09:27:55Z</time>
      </trkpt>
      <trkpt lat="45.57854" lon="6.69257">
        <ele>1263.9892724229</ele>
        <time>2019-07-06T09:27:57Z</time>
      </trkpt>
      <trkpt lat="45.57855" lon="6.69254">
        <ele>1263.6278987438</ele>
        <time>2019-07-06T09:27:59Z</time>
      </trkpt>
      <trkpt lat="45.57856" lon="6.69252">
        <ele>1263.3804973176</ele>
        <time>2019-07-06T09:28:00Z</time>
      </trkpt>
      <trkpt lat="45.57857" lon="6.6925">
        <ele>1262.9389337955</ele>
        <time>2019-07-06T09:28:02Z</time>
      </trkpt>
      <trkpt lat="45.57859" lon="6.69246">
        <ele>1263.0916995568</ele>
        <time>2019-07-06T09:28:04Z</time>
      </trkpt>
      <trkpt lat="45.5786" lon="6.69243">
        <ele>1263.4319576831</ele>
        <time>2019-07-06T09:28:06Z</time>
      </trkpt>
      <trkpt lat="45.57861" lon="6.6924">
        <ele>1263.8483383942</ele>
        <time>2019-07-06T09:28:10Z</time>
      </trkpt>
      <trkpt lat="45.57863" lon="6.69238">
        <ele>1264.9675720818</ele>
        <time>2019-07-06T09:28:13Z</time>
      </trkpt>
      <trkpt lat="45.57864" lon="6.69236">
        <ele>1265.5072784737</ele>
        <time>2019-07-06T09:28:16Z</time>
      </trkpt>
      <trkpt lat="45.57866" lon="6.69235">
        <ele>1266.5333347817</ele>
        <time>2019-07-06T09:28:19Z</time>
      </trkpt>
      <trkpt lat="45.57868" lon="6.69233">
        <ele>1267.4067524533</ele>
        <time>2019-07-06T09:28:21Z</time>
      </trkpt>
      <trkpt lat="45.5787" lon="6.69231">
        <ele>1268.4207067898</ele>
        <time>2019-07-06T09:28:24Z</time>
      </trkpt>
      <trkpt lat="45.57871" lon="6.69228">
        <ele>1269.1694293623</ele>
        <time>2019-07-06T09:28:27Z</time>
      </trkpt>
      <trkpt lat="45.57872" lon="6.69225">
        <ele>1269.9035760456</ele>
        <time>2019-07-06T09:28:29Z</time>
      </trkpt>
      <trkpt lat="45.57874" lon="6.69222">
        <ele>1271.0950973587</ele>
        <time>2019-07-06T09:28:34Z</time>
      </trkpt>
      <trkpt lat="45.57875" lon="6.6922">
        <ele>1271.7312482529</ele>
        <time>2019-07-06T09:28:36Z</time>
      </trkpt>
      <trkpt lat="45.57876" lon="6.69218">
        <ele>1272.4668822228</ele>
        <time>2019-07-06T09:28:38Z</time>
      </trkpt>
      <trkpt lat="45.57878" lon="6.69215">
        <ele>1273.2463688483</ele>
        <time>2019-07-06T09:28:41Z</time>
      </trkpt>
      <trkpt lat="45.57878" lon="6.69212">
        <ele>1273.4767905089</ele>
        <time>2019-07-06T09:28:43Z</time>
      </trkpt>
      <trkpt lat="45.57879" lon="6.6921">
        <ele>1274.1639384755</ele>
        <time>2019-07-06T09:28:45Z</time>
      </trkpt>
      <trkpt lat="45.5788" lon="6.69207">
        <ele>1274.675578844</ele>
        <time>2019-07-06T09:28:48Z</time>
      </trkpt>
      <trkpt lat="45.57882" lon="6.69204">
        <ele>1275.2632276001</ele>
        <time>2019-07-06T09:28:52Z</time>
      </trkpt>
      <trkpt lat="45.57883" lon="6.69202">
        <ele>1276.1082884421</ele>
        <time>2019-07-06T09:28:54Z</time>
      </trkpt>
      <trkpt lat="45.57884" lon="6.692">
        <ele>1277.0117182985</ele>
        <time>2019-07-06T09:28:56Z</time>
      </trkpt>
      <trkpt lat="45.57885" lon="6.69197">
        <ele>1277.8325475955</ele>
        <time>2019-07-06T09:28:59Z</time>
      </trkpt>
      <trkpt lat="45.57886" lon="6.69195">
        <ele>1278.336268019</ele>
        <time>2019-07-06T09:29:01Z</time>
      </trkpt>
      <trkpt lat="45.57887" lon="6.69192">
        <ele>1278.2517382341</ele>
        <time>2019-07-06T09:29:04Z</time>
      </trkpt>
      <trkpt lat="45.57888" lon="6.69189">
        <ele>1278.1571148198</ele>
        <time>2019-07-06T09:29:09Z</time>
      </trkpt>
      <trkpt lat="45.5789" lon="6.69187">
        <ele>1278.2005488738</ele>
        <time>2019-07-06T09:29:13Z</time>
      </trkpt>
      <trkpt lat="45.57891" lon="6.69183">
        <ele>1278.1419682929</ele>
        <time>2019-07-06T09:29:17Z</time>
      </trkpt>
      <trkpt lat="45.57892" lon="6.6918">
        <ele>1277.6443561224</ele>
        <time>2019-07-06T09:29:19Z</time>
      </trkpt>
      <trkpt lat="45.57894" lon="6.69179">
        <ele>1266.3816993933</ele>
        <time>2019-07-06T09:29:24Z</time>
      </trkpt>
      <trkpt lat="45.57896" lon="6.69177">
        <ele>1278.102657811</ele>
        <time>2019-07-06T09:29:27Z</time>
      </trkpt>
      <trkpt lat="45.57898" lon="6.69176">
        <ele>1278.8049106766</ele>
        <time>2019-07-06T09:29:31Z</time>
      </trkpt>
      <trkpt lat="45.57899" lon="6.69173">
        <ele>1278.8642662029</ele>
        <time>2019-07-06T09:29:34Z</time>
      </trkpt>
      <trkpt lat="45.57901" lon="6.69171">
        <ele>1279.5231877411</ele>
        <time>2019-07-06T09:29:37Z</time>
      </trkpt>
      <trkpt lat="45.57903" lon="6.6917">
        <ele>1280.2242449771</ele>
        <time>2019-07-06T09:29:39Z</time>
      </trkpt>
      <trkpt lat="45.57905" lon="6.69168">
        <ele>1280.926865901</ele>
        <time>2019-07-06T09:29:41Z</time>
      </trkpt>
      <trkpt lat="45.57906" lon="6.69166">
        <ele>1281.4517217001</ele>
        <time>2019-07-06T09:29:43Z</time>
      </trkpt>
      <trkpt lat="45.57907" lon="6.69163">
        <ele>1282.2186791272</ele>
        <time>2019-07-06T09:29:46Z</time>
      </trkpt>
      <trkpt lat="45.57908" lon="6.6916">
        <ele>1282.6885381257</ele>
        <time>2019-07-06T09:29:49Z</time>
      </trkpt>
      <trkpt lat="45.57908" lon="6.69157">
        <ele>1282.8626904731</ele>
        <time>2019-07-06T09:29:51Z</time>
      </trkpt>
      <trkpt lat="45.57909" lon="6.69153">
        <ele>1283.3287142232</ele>
        <time>2019-07-06T09:29:53Z</time>
      </trkpt>
      <trkpt lat="45.57909" lon="6.69149">
        <ele>1283.669061735</ele>
        <time>2019-07-06T09:29:56Z</time>
      </trkpt>
      <trkpt lat="45.5791" lon="6.69147">
        <ele>1283.8697906311</ele>
        <time>2019-07-06T09:29:58Z</time>
      </trkpt>
      <trkpt lat="45.57909" lon="6.69142">
        <ele>1283.4683672427</ele>
        <time>2019-07-06T09:30:01Z</time>
      </trkpt>
      <trkpt lat="45.57909" lon="6.69139">
        <ele>1283.5888298287</ele>
        <time>2019-07-06T09:30:03Z</time>
      </trkpt>
      <trkpt lat="45.57909" lon="6.69135">
        <ele>1279.7975643665</ele>
        <time>2019-07-06T09:30:05Z</time>
      </trkpt>
      <trkpt lat="45.57909" lon="6.69131">
        <ele>1274.2967491464</ele>
        <time>2019-07-06T09:30:07Z</time>
      </trkpt>
      <trkpt lat="45.5791" lon="6.69128">
        <ele>1270.8124588318</ele>
        <time>2019-07-06T09:30:09Z</time>
      </trkpt>
      <trkpt lat="45.57911" lon="6.69125">
        <ele>1284.2790183184</ele>
        <time>2019-07-06T09:30:12Z</time>
      </trkpt>
      <trkpt lat="45.57912" lon="6.69121">
        <ele>1284.88601715</ele>
        <time>2019-07-06T09:30:14Z</time>
      </trkpt>
      <trkpt lat="45.57912" lon="6.69119">
        <ele>1285.2794101364</ele>
        <time>2019-07-06T09:30:16Z</time>
      </trkpt>
      <trkpt lat="45.57912" lon="6.69115">
        <ele>1278.7849788683</ele>
        <time>2019-07-06T09:30:19Z</time>
      </trkpt>
      <trkpt lat="45.57912" lon="6.69112">
        <ele>1273.9073932709</ele>
        <time>2019-07-06T09:30:22Z</time>
      </trkpt>
      <trkpt lat="45.57913" lon="6.69109">
        <ele>1273.066262928</ele>
        <time>2019-07-06T09:30:23Z</time>
      </trkpt>
      <trkpt lat="45.57914" lon="6.69106">
        <ele>1271.7580053603</ele>
        <time>2019-07-06T09:30:27Z</time>
      </trkpt>
      <trkpt lat="45.57915" lon="6.69103">
        <ele>1271.8282684838</ele>
        <time>2019-07-06T09:30:30Z</time>
      </trkpt>
      <trkpt lat="45.57915" lon="6.691">
        <ele>1271.9445318791</ele>
        <time>2019-07-06T09:30:32Z</time>
      </trkpt>
      <trkpt lat="45.57915" lon="6.69098">
        <ele>1272.0743737178</ele>
        <time>2019-07-06T09:30:34Z</time>
      </trkpt>
      <trkpt lat="45.57917" lon="6.69094">
        <ele>1287.7050630097</ele>
        <time>2019-07-06T09:30:37Z</time>
      </trkpt>
      <trkpt lat="45.57918" lon="6.69091">
        <ele>1278.7382092926</ele>
        <time>2019-07-06T09:30:41Z</time>
      </trkpt>
      <trkpt lat="45.57919" lon="6.69088">
        <ele>1289.0475123421</ele>
        <time>2019-07-06T09:30:45Z</time>
      </trkpt>
      <trkpt lat="45.5792" lon="6.69085">
        <ele>1289.7286505282</ele>
        <time>2019-07-06T09:30:48Z</time>
      </trkpt>
      <trkpt lat="45.57921" lon="6.69083">
        <ele>1290.4393802504</ele>
        <time>2019-07-06T09:30:51Z</time>
      </trkpt>
      <trkpt lat="45.57923" lon="6.6908">
        <ele>1291.0456760631</ele>
        <time>2019-07-06T09:30:54Z</time>
      </trkpt>
      <trkpt lat="45.57925" lon="6.69079">
        <ele>1292.0239622906</ele>
        <time>2019-07-06T09:30:57Z</time>
      </trkpt>
      <trkpt lat="45.57927" lon="6.69077">
        <ele>1292.8191965702</ele>
        <time>2019-07-06T09:30:59Z</time>
      </trkpt>
      <trkpt lat="45.5793" lon="6.69077">
        <ele>1294.0699893511</ele>
        <time>2019-07-06T09:31:02Z</time>
      </trkpt>
      <trkpt lat="45.57932" lon="6.69076">
        <ele>1295.4288749745</ele>
        <time>2019-07-06T09:31:08Z</time>
      </trkpt>
      <trkpt lat="45.57934" lon="6.69075">
        <ele>1296.2854399719</ele>
        <time>2019-07-06T09:31:11Z</time>
      </trkpt>
      <trkpt lat="45.57936" lon="6.69076">
        <ele>1297.4860079627</ele>
        <time>2019-07-06T09:31:14Z</time>
      </trkpt>
      <trkpt lat="45.57938" lon="6.69074">
        <ele>1298.0029276469</ele>
        <time>2019-07-06T09:31:17Z</time>
      </trkpt>
      <trkpt lat="45.5794" lon="6.69074">
        <ele>1298.9275746462</ele>
        <time>2019-07-06T09:31:22Z</time>
      </trkpt>
      <trkpt lat="45.57942" lon="6.69074">
        <ele>1299.6943948032</ele>
        <time>2019-07-06T09:31:24Z</time>
      </trkpt>
      <trkpt lat="45.57944" lon="6.69073">
        <ele>1300.748214525</ele>
        <time>2019-07-06T09:31:27Z</time>
      </trkpt>
      <trkpt lat="45.57946" lon="6.69071">
        <ele>1300.9396581152</ele>
        <time>2019-07-06T09:31:30Z</time>
      </trkpt>
      <trkpt lat="45.57948" lon="6.69069">
        <ele>1301.2205911296</ele>
        <time>2019-07-06T09:31:34Z</time>
      </trkpt>
      <trkpt lat="45.5795" lon="6.69067">
        <ele>1301.5555166457</ele>
        <time>2019-07-06T09:31:40Z</time>
      </trkpt>
      <trkpt lat="45.57952" lon="6.69066">
        <ele>1302.2915366998</ele>
        <time>2019-07-06T09:31:44Z</time>
      </trkpt>
      <trkpt lat="45.57953" lon="6.69063">
        <ele>1302.6660532225</ele>
        <time>2019-07-06T09:31:46Z</time>
      </trkpt>
      <trkpt lat="45.57955" lon="6.69062">
        <ele>1303.2004204463</ele>
        <time>2019-07-06T09:31:50Z</time>
      </trkpt>
      <trkpt lat="45.57957" lon="6.6906">
        <ele>1303.9012470399</ele>
        <time>2019-07-06T09:31:53Z</time>
      </trkpt>
      <trkpt lat="45.57958" lon="6.69058">
        <ele>1304.4206359511</ele>
        <time>2019-07-06T09:31:58Z</time>
      </trkpt>
      <trkpt lat="45.57959" lon="6.69056">
        <ele>1304.6816892102</ele>
        <time>2019-07-06T09:32:03Z</time>
      </trkpt>
      <trkpt lat="45.5796" lon="6.69053">
        <ele>1304.692001502</ele>
        <time>2019-07-06T09:32:06Z</time>
      </trkpt>
      <trkpt lat="45.5796" lon="6.6905">
        <ele>1304.8329525153</ele>
        <time>2019-07-06T09:32:07Z</time>
      </trkpt>
      <trkpt lat="45.5796" lon="6.69047">
        <ele>1305.1212806131</ele>
        <time>2019-07-06T09:32:09Z</time>
      </trkpt>
      <trkpt lat="45.57961" lon="6.69042">
        <ele>1305.2699424419</ele>
        <time>2019-07-06T09:32:15Z</time>
      </trkpt>
      <trkpt lat="45.57961" lon="6.69039">
        <ele>1305.4282647853</ele>
        <time>2019-07-06T09:32:21Z</time>
      </trkpt>
      <trkpt lat="45.57962" lon="6.69035">
        <ele>1305.6608946245</ele>
        <time>2019-07-06T09:32:23Z</time>
      </trkpt>
      <trkpt lat="45.57963" lon="6.69033">
        <ele>1306.59032922</ele>
        <time>2019-07-06T09:32:27Z</time>
      </trkpt>
      <trkpt lat="45.57965" lon="6.69029">
        <ele>1307.0908392434</ele>
        <time>2019-07-06T09:32:29Z</time>
      </trkpt>
      <trkpt lat="45.57966" lon="6.69028">
        <ele>1308.3457629469</ele>
        <time>2019-07-06T09:32:32Z</time>
      </trkpt>
      <trkpt lat="45.57967" lon="6.69025">
        <ele>1309.0903831197</ele>
        <time>2019-07-06T09:32:37Z</time>
      </trkpt>
      <trkpt lat="45.57969" lon="6.69024">
        <ele>1309.7884396249</ele>
        <time>2019-07-06T09:32:41Z</time>
      </trkpt>
      <trkpt lat="45.57971" lon="6.69022">
        <ele>1310.7605912846</ele>
        <time>2019-07-06T09:32:44Z</time>
      </trkpt>
      <trkpt lat="45.57973" lon="6.69021">
        <ele>1312.0697807913</ele>
        <time>2019-07-06T09:32:48Z</time>
      </trkpt>
      <trkpt lat="45.57974" lon="6.69018">
        <ele>1312.387072699</ele>
        <time>2019-07-06T09:32:51Z</time>
      </trkpt>
      <trkpt lat="45.57976" lon="6.69015">
        <ele>1312.8289250864</ele>
        <time>2019-07-06T09:32:53Z</time>
      </trkpt>
      <trkpt lat="45.57977" lon="6.69012">
        <ele>1313.1589673896</ele>
        <time>2019-07-06T09:32:55Z</time>
      </trkpt>
      <trkpt lat="45.57978" lon="6.6901">
        <ele>1313.4298837794</ele>
        <time>2019-07-06T09:32:57Z</time>
      </trkpt>
      <trkpt lat="45.57978" lon="6.69007">
        <ele>1313.7249720937</ele>
        <time>2019-07-06T09:32:59Z</time>
      </trkpt>
      <trkpt lat="45.57978" lon="6.69004">
        <ele>1313.631440903</ele>
        <time>2019-07-06T09:33:02Z</time>
      </trkpt>
      <trkpt lat="45.57977" lon="6.69">
        <ele>1313.52868453</ele>
        <time>2019-07-06T09:33:05Z</time>
      </trkpt>
      <trkpt lat="45.57978" lon="6.68996">
        <ele>1313.1491998473</ele>
        <time>2019-07-06T09:33:07Z</time>
      </trkpt>
      <trkpt lat="45.57979" lon="6.68994">
        <ele>1312.4314584673</ele>
        <time>2019-07-06T09:33:09Z</time>
      </trkpt>
      <trkpt lat="45.5798" lon="6.68992">
        <ele>1311.9410803699</ele>
        <time>2019-07-06T09:33:11Z</time>
      </trkpt>
      <trkpt lat="45.57982" lon="6.6899">
        <ele>1311.8440004169</ele>
        <time>2019-07-06T09:33:16Z</time>
      </trkpt>
      <trkpt lat="45.57983" lon="6.68987">
        <ele>1311.616816279</ele>
        <time>2019-07-06T09:33:19Z</time>
      </trkpt>
      <trkpt lat="45.57985" lon="6.68986">
        <ele>1311.5915919025</ele>
        <time>2019-07-06T09:33:22Z</time>
      </trkpt>
      <trkpt lat="45.57987" lon="6.68985">
        <ele>1311.8474387843</ele>
        <time>2019-07-06T09:33:24Z</time>
      </trkpt>
      <trkpt lat="45.5799" lon="6.68984">
        <ele>1312.0847483062</ele>
        <time>2019-07-06T09:33:27Z</time>
      </trkpt>
      <trkpt lat="45.57992" lon="6.68982">
        <ele>1312.5490353874</ele>
        <time>2019-07-06T09:33:29Z</time>
      </trkpt>
      <trkpt lat="45.57994" lon="6.68981">
        <ele>1312.8051662953</ele>
        <time>2019-07-06T09:33:31Z</time>
      </trkpt>
      <trkpt lat="45.57996" lon="6.68979">
        <ele>1312.7056865888</ele>
        <time>2019-07-06T09:33:33Z</time>
      </trkpt>
      <trkpt lat="45.57998" lon="6.68977">
        <ele>1312.802568989</ele>
        <time>2019-07-06T09:33:35Z</time>
      </trkpt>
      <trkpt lat="45.58" lon="6.68975">
        <ele>1312.8195998247</ele>
        <time>2019-07-06T09:33:37Z</time>
      </trkpt>
      <trkpt lat="45.58002" lon="6.68973">
        <ele>1312.8731721274</ele>
        <time>2019-07-06T09:33:40Z</time>
      </trkpt>
      <trkpt lat="45.58004" lon="6.68972">
        <ele>1313.02722236</ele>
        <time>2019-07-06T09:33:42Z</time>
      </trkpt>
      <trkpt lat="45.58007" lon="6.68971">
        <ele>1313.3234491416</ele>
        <time>2019-07-06T09:33:44Z</time>
      </trkpt>
      <trkpt lat="45.58009" lon="6.68969">
        <ele>1313.7657416506</ele>
        <time>2019-07-06T09:33:47Z</time>
      </trkpt>
      <trkpt lat="45.58011" lon="6.68967">
        <ele>1313.9274029381</ele>
        <time>2019-07-06T09:33:49Z</time>
      </trkpt>
      <trkpt lat="45.58013" lon="6.68965">
        <ele>1313.665116963</ele>
        <time>2019-07-06T09:33:51Z</time>
      </trkpt>
      <trkpt lat="45.58014" lon="6.68963">
        <ele>1313.5071561513</ele>
        <time>2019-07-06T09:33:52Z</time>
      </trkpt>
      <trkpt lat="45.58017" lon="6.68962">
        <ele>1313.7034922521</ele>
        <time>2019-07-06T09:33:55Z</time>
      </trkpt>
      <trkpt lat="45.58019" lon="6.68961">
        <ele>1314.1151739988</ele>
        <time>2019-07-06T09:33:57Z</time>
      </trkpt>
      <trkpt lat="45.58021" lon="6.68961">
        <ele>1314.6946858413</ele>
        <time>2019-07-06T09:34:00Z</time>
      </trkpt>
      <trkpt lat="45.58023" lon="6.68959">
        <ele>1314.8557756319</ele>
        <time>2019-07-06T09:34:02Z</time>
      </trkpt>
      <trkpt lat="45.58026" lon="6.68959">
        <ele>1315.2946423892</ele>
        <time>2019-07-06T09:34:04Z</time>
      </trkpt>
      <trkpt lat="45.58027" lon="6.68959">
        <ele>1315.9464308824</ele>
        <time>2019-07-06T09:34:09Z</time>
      </trkpt>
      <trkpt lat="45.5803" lon="6.68957">
        <ele>1316.094947924</ele>
        <time>2019-07-06T09:34:14Z</time>
      </trkpt>
      <trkpt lat="45.58032" lon="6.68955">
        <ele>1317.0598038875</ele>
        <time>2019-07-06T09:34:16Z</time>
      </trkpt>
      <trkpt lat="45.58033" lon="6.68952">
        <ele>1313.6326336594</ele>
        <time>2019-07-06T09:34:17Z</time>
      </trkpt>
      <trkpt lat="45.58034" lon="6.6895">
        <ele>1308.7434426185</ele>
        <time>2019-07-06T09:34:19Z</time>
      </trkpt>
      <trkpt lat="45.58036" lon="6.68948">
        <ele>1317.4810756228</ele>
        <time>2019-07-06T09:34:24Z</time>
      </trkpt>
      <trkpt lat="45.58038" lon="6.68947">
        <ele>1318.2492702487</ele>
        <time>2019-07-06T09:34:27Z</time>
      </trkpt>
      <trkpt lat="45.58041" lon="6.68945">
        <ele>1318.8707123451</ele>
        <time>2019-07-06T09:34:29Z</time>
      </trkpt>
      <trkpt lat="45.58043" lon="6.68943">
        <ele>1319.9974443442</ele>
        <time>2019-07-06T09:34:31Z</time>
      </trkpt>
      <trkpt lat="45.58045" lon="6.68942">
        <ele>1320.8265668888</ele>
        <time>2019-07-06T09:34:33Z</time>
      </trkpt>
      <trkpt lat="45.58046" lon="6.68941">
        <ele>1321.7806491299</ele>
        <time>2019-07-06T09:34:35Z</time>
      </trkpt>
      <trkpt lat="45.58049" lon="6.68939">
        <ele>1322.4340986437</ele>
        <time>2019-07-06T09:34:37Z</time>
      </trkpt>
      <trkpt lat="45.58051" lon="6.68938">
        <ele>1323.526843389</ele>
        <time>2019-07-06T09:34:40Z</time>
      </trkpt>
      <trkpt lat="45.58054" lon="6.68936">
        <ele>1324.5656156991</ele>
        <time>2019-07-06T09:34:43Z</time>
      </trkpt>
      <trkpt lat="45.58056" lon="6.68934">
        <ele>1324.9260608582</ele>
        <time>2019-07-06T09:34:45Z</time>
      </trkpt>
      <trkpt lat="45.58058" lon="6.68931">
        <ele>1325.1074972164</ele>
        <time>2019-07-06T09:34:48Z</time>
      </trkpt>
      <trkpt lat="45.5806" lon="6.68929">
        <ele>1325.0981202984</ele>
        <time>2019-07-06T09:34:50Z</time>
      </trkpt>
      <trkpt lat="45.58063" lon="6.68927">
        <ele>1324.9586364389</ele>
        <time>2019-07-06T09:34:53Z</time>
      </trkpt>
      <trkpt lat="45.58064" lon="6.68925">
        <ele>1325.1115071789</ele>
        <time>2019-07-06T09:34:55Z</time>
      </trkpt>
      <trkpt lat="45.58066" lon="6.68923">
        <ele>1325.1399743629</ele>
        <time>2019-07-06T09:34:57Z</time>
      </trkpt>
      <trkpt lat="45.58067" lon="6.6892">
        <ele>1324.6843081705</ele>
        <time>2019-07-06T09:35:01Z</time>
      </trkpt>
      <trkpt lat="45.58069" lon="6.68917">
        <ele>1324.3063774216</ele>
        <time>2019-07-06T09:35:03Z</time>
      </trkpt>
      <trkpt lat="45.58071" lon="6.68917">
        <ele>1324.3514323426</ele>
        <time>2019-07-06T09:35:05Z</time>
      </trkpt>
      <trkpt lat="45.58073" lon="6.68915">
        <ele>1324.6950957825</ele>
        <time>2019-07-06T09:35:07Z</time>
      </trkpt>
      <trkpt lat="45.58075" lon="6.68913">
        <ele>1324.5910944984</ele>
        <time>2019-07-06T09:35:10Z</time>
      </trkpt>
      <trkpt lat="45.58077" lon="6.68913">
        <ele>1324.7026669646</ele>
        <time>2019-07-06T09:35:12Z</time>
      </trkpt>
      <trkpt lat="45.5808" lon="6.68913">
        <ele>1325.4044467517</ele>
        <time>2019-07-06T09:35:14Z</time>
      </trkpt>
      <trkpt lat="45.58081" lon="6.68912">
        <ele>1325.7534402043</ele>
        <time>2019-07-06T09:35:15Z</time>
      </trkpt>
      <trkpt lat="45.58084" lon="6.68911">
        <ele>1326.3701168377</ele>
        <time>2019-07-06T09:35:17Z</time>
      </trkpt>
      <trkpt lat="45.58086" lon="6.68911">
        <ele>1326.997018665</ele>
        <time>2019-07-06T09:35:20Z</time>
      </trkpt>
      <trkpt lat="45.58088" lon="6.68911">
        <ele>1327.543901182</ele>
        <time>2019-07-06T09:35:23Z</time>
      </trkpt>
      <trkpt lat="45.5809" lon="6.6891">
        <ele>1328.0144484494</ele>
        <time>2019-07-06T09:35:25Z</time>
      </trkpt>
      <trkpt lat="45.58093" lon="6.68909">
        <ele>1328.4245444663</ele>
        <time>2019-07-06T09:35:28Z</time>
      </trkpt>
      <trkpt lat="45.58095" lon="6.68907">
        <ele>1328.6200432123</ele>
        <time>2019-07-06T09:35:30Z</time>
      </trkpt>
      <trkpt lat="45.58097" lon="6.68906">
        <ele>1328.6766441959</ele>
        <time>2019-07-06T09:35:32Z</time>
      </trkpt>
      <trkpt lat="45.58099" lon="6.68905">
        <ele>1328.9742791718</ele>
        <time>2019-07-06T09:35:35Z</time>
      </trkpt>
      <trkpt lat="45.58101" lon="6.68903">
        <ele>1329.1612707765</ele>
        <time>2019-07-06T09:35:38Z</time>
      </trkpt>
      <trkpt lat="45.58103" lon="6.68902">
        <ele>1329.3128145281</ele>
        <time>2019-07-06T09:35:40Z</time>
      </trkpt>
      <trkpt lat="45.58105" lon="6.68901">
        <ele>1329.4591956883</ele>
        <time>2019-07-06T09:35:42Z</time>
      </trkpt>
      <trkpt lat="45.58107" lon="6.68898">
        <ele>1329.5111330124</ele>
        <time>2019-07-06T09:35:45Z</time>
      </trkpt>
      <trkpt lat="45.58108" lon="6.68897">
        <ele>1329.4350826548</ele>
        <time>2019-07-06T09:35:48Z</time>
      </trkpt>
      <trkpt lat="45.5811" lon="6.68895">
        <ele>1329.4588326542</ele>
        <time>2019-07-06T09:35:51Z</time>
      </trkpt>
      <trkpt lat="45.58112" lon="6.68892">
        <ele>1329.3774015702</ele>
        <time>2019-07-06T09:35:54Z</time>
      </trkpt>
      <trkpt lat="45.58114" lon="6.6889">
        <ele>1329.4941298888</ele>
        <time>2019-07-06T09:35:56Z</time>
      </trkpt>
      <trkpt lat="45.58115" lon="6.68889">
        <ele>1330.2198015665</ele>
        <time>2019-07-06T09:35:58Z</time>
      </trkpt>
      <trkpt lat="45.58117" lon="6.68887">
        <ele>1330.8582667794</ele>
        <time>2019-07-06T09:36:00Z</time>
      </trkpt>
      <trkpt lat="45.58119" lon="6.68885">
        <ele>1331.9823146762</ele>
        <time>2019-07-06T09:36:03Z</time>
      </trkpt>
      <trkpt lat="45.58122" lon="6.68882">
        <ele>1332.8137263832</ele>
        <time>2019-07-06T09:36:05Z</time>
      </trkpt>
      <trkpt lat="45.58124" lon="6.68881">
        <ele>1333.9313100528</ele>
        <time>2019-07-06T09:36:08Z</time>
      </trkpt>
      <trkpt lat="45.58126" lon="6.6888">
        <ele>1335.0668363279</ele>
        <time>2019-07-06T09:36:11Z</time>
      </trkpt>
      <trkpt lat="45.58128" lon="6.68877">
        <ele>1335.5967017266</ele>
        <time>2019-07-06T09:36:13Z</time>
      </trkpt>
      <trkpt lat="45.5813" lon="6.68876">
        <ele>1335.9133199607</ele>
        <time>2019-07-06T09:36:15Z</time>
      </trkpt>
      <trkpt lat="45.58132" lon="6.68875">
        <ele>1336.4655169047</ele>
        <time>2019-07-06T09:36:17Z</time>
      </trkpt>
      <trkpt lat="45.58133" lon="6.68874">
        <ele>1337.0693762765</ele>
        <time>2019-07-06T09:36:19Z</time>
      </trkpt>
      <trkpt lat="45.58135" lon="6.68873">
        <ele>1337.6184690695</ele>
        <time>2019-07-06T09:36:21Z</time>
      </trkpt>
      <trkpt lat="45.58138" lon="6.68871">
        <ele>1338.3107520025</ele>
        <time>2019-07-06T09:36:24Z</time>
      </trkpt>
      <trkpt lat="45.5814" lon="6.68869">
        <ele>1338.6500844869</ele>
        <time>2019-07-06T09:36:26Z</time>
      </trkpt>
      <trkpt lat="45.58142" lon="6.68867">
        <ele>1338.5142319822</ele>
        <time>2019-07-06T09:36:29Z</time>
      </trkpt>
      <trkpt lat="45.58144" lon="6.68864">
        <ele>1338.4230433589</ele>
        <time>2019-07-06T09:36:31Z</time>
      </trkpt>
      <trkpt lat="45.58146" lon="6.68863">
        <ele>1338.6015162383</ele>
        <time>2019-07-06T09:36:33Z</time>
      </trkpt>
      <trkpt lat="45.58148" lon="6.68861">
        <ele>1338.5647389554</ele>
        <time>2019-07-06T09:36:35Z</time>
      </trkpt>
      <trkpt lat="45.5815" lon="6.68858">
        <ele>1338.4599005429</ele>
        <time>2019-07-06T09:36:38Z</time>
      </trkpt>
      <trkpt lat="45.58152" lon="6.68856">
        <ele>1338.3618884723</ele>
        <time>2019-07-06T09:36:40Z</time>
      </trkpt>
      <trkpt lat="45.58153" lon="6.68855">
        <ele>1338.4639271504</ele>
        <time>2019-07-06T09:36:42Z</time>
      </trkpt>
      <trkpt lat="45.58156" lon="6.68852">
        <ele>1338.0960581561</ele>
        <time>2019-07-06T09:36:46Z</time>
      </trkpt>
      <trkpt lat="45.58158" lon="6.68851">
        <ele>1338.475747658</ele>
        <time>2019-07-06T09:36:49Z</time>
      </trkpt>
      <trkpt lat="45.58161" lon="6.6885">
        <ele>1338.8170748573</ele>
        <time>2019-07-06T09:36:52Z</time>
      </trkpt>
      <trkpt lat="45.58163" lon="6.68849">
        <ele>1339.3124693916</ele>
        <time>2019-07-06T09:36:57Z</time>
      </trkpt>
      <trkpt lat="45.58164" lon="6.68847">
        <ele>1339.803960036</ele>
        <time>2019-07-06T09:37:11Z</time>
      </trkpt>
      <trkpt lat="45.58166" lon="6.68846">
        <ele>1339.3265033836</ele>
        <time>2019-07-06T09:37:13Z</time>
      </trkpt>
      <trkpt lat="45.58167" lon="6.68844">
        <ele>1339.3811959884</ele>
        <time>2019-07-06T09:37:17Z</time>
      </trkpt>
      <trkpt lat="45.58169" lon="6.68843">
        <ele>1339.386293401</ele>
        <time>2019-07-06T09:37:21Z</time>
      </trkpt>
      <trkpt lat="45.58172" lon="6.68844">
        <ele>1340.0975769614</ele>
        <time>2019-07-06T09:37:23Z</time>
      </trkpt>
      <trkpt lat="45.58174" lon="6.68844">
        <ele>1340.9613707052</ele>
        <time>2019-07-06T09:37:25Z</time>
      </trkpt>
      <trkpt lat="45.58176" lon="6.68844">
        <ele>1341.5761243653</ele>
        <time>2019-07-06T09:37:27Z</time>
      </trkpt>
      <trkpt lat="45.58178" lon="6.68844">
        <ele>1342.141728689</ele>
        <time>2019-07-06T09:37:29Z</time>
      </trkpt>
      <trkpt lat="45.58181" lon="6.68843">
        <ele>1342.5899140291</ele>
        <time>2019-07-06T09:37:31Z</time>
      </trkpt>
      <trkpt lat="45.58184" lon="6.68841">
        <ele>1343.1035462732</ele>
        <time>2019-07-06T09:37:33Z</time>
      </trkpt>
      <trkpt lat="45.58186" lon="6.68841">
        <ele>1343.4248516213</ele>
        <time>2019-07-06T09:37:34Z</time>
      </trkpt>
      <trkpt lat="45.58188" lon="6.6884">
        <ele>1343.3003005277</ele>
        <time>2019-07-06T09:37:36Z</time>
      </trkpt>
      <trkpt lat="45.5819" lon="6.68839">
        <ele>1344.1371519737</ele>
        <time>2019-07-06T09:37:39Z</time>
      </trkpt>
      <trkpt lat="45.58192" lon="6.68838">
        <ele>1336.0032579834</ele>
        <time>2019-07-06T09:37:41Z</time>
      </trkpt>
      <trkpt lat="45.58194" lon="6.68836">
        <ele>1329.0306358132</ele>
        <time>2019-07-06T09:37:44Z</time>
      </trkpt>
      <trkpt lat="45.58197" lon="6.68835">
        <ele>1325.6138793377</ele>
        <time>2019-07-06T09:37:47Z</time>
      </trkpt>
      <trkpt lat="45.58198" lon="6.68833">
        <ele>1323.8884698847</ele>
        <time>2019-07-06T09:37:50Z</time>
      </trkpt>
      <trkpt lat="45.58201" lon="6.68832">
        <ele>1338.1169956038</ele>
        <time>2019-07-06T09:37:54Z</time>
      </trkpt>
      <trkpt lat="45.58203" lon="6.68832">
        <ele>1343.4472826651</ele>
        <time>2019-07-06T09:37:56Z</time>
      </trkpt>
      <trkpt lat="45.58205" lon="6.6883">
        <ele>1339.5876219991</ele>
        <time>2019-07-06T09:37:58Z</time>
      </trkpt>
      <trkpt lat="45.58208" lon="6.6883">
        <ele>1341.8862718509</ele>
        <time>2019-07-06T09:38:02Z</time>
      </trkpt>
      <trkpt lat="45.58209" lon="6.6883">
        <ele>1343.1899005871</ele>
        <time>2019-07-06T09:38:05Z</time>
      </trkpt>
      <trkpt lat="45.58212" lon="6.6883">
        <ele>1342.9024800697</ele>
        <time>2019-07-06T09:38:07Z</time>
      </trkpt>
      <trkpt lat="45.58214" lon="6.6883">
        <ele>1343.3860542578</ele>
        <time>2019-07-06T09:38:09Z</time>
      </trkpt>
      <trkpt lat="45.58216" lon="6.6883">
        <ele>1343.5700220797</ele>
        <time>2019-07-06T09:38:11Z</time>
      </trkpt>
      <trkpt lat="45.58219" lon="6.68829">
        <ele>1343.7473773837</ele>
        <time>2019-07-06T09:38:14Z</time>
      </trkpt>
      <trkpt lat="45.58221" lon="6.6883">
        <ele>1343.9391174887</ele>
        <time>2019-07-06T09:38:16Z</time>
      </trkpt>
      <trkpt lat="45.58223" lon="6.6883">
        <ele>1337.0171897062</ele>
        <time>2019-07-06T09:38:18Z</time>
      </trkpt>
      <trkpt lat="45.58226" lon="6.68829">
        <ele>1340.0880347908</ele>
        <time>2019-07-06T09:38:21Z</time>
      </trkpt>
      <trkpt lat="45.58229" lon="6.68827">
        <ele>1341.4912022898</ele>
        <time>2019-07-06T09:38:23Z</time>
      </trkpt>
      <trkpt lat="45.5823" lon="6.68826">
        <ele>1335.3719306549</ele>
        <time>2019-07-06T09:38:25Z</time>
      </trkpt>
      <trkpt lat="45.58233" lon="6.68823">
        <ele>1347.799366785</ele>
        <time>2019-07-06T09:38:27Z</time>
      </trkpt>
      <trkpt lat="45.58234" lon="6.68821">
        <ele>1339.43453007</ele>
        <time>2019-07-06T09:38:29Z</time>
      </trkpt>
      <trkpt lat="45.58236" lon="6.6882">
        <ele>1334.0404643536</ele>
        <time>2019-07-06T09:38:31Z</time>
      </trkpt>
      <trkpt lat="45.58238" lon="6.68817">
        <ele>1330.5638403668</ele>
        <time>2019-07-06T09:38:33Z</time>
      </trkpt>
      <trkpt lat="45.58239" lon="6.68813">
        <ele>1328.3071209006</ele>
        <time>2019-07-06T09:38:35Z</time>
      </trkpt>
      <trkpt lat="45.58239" lon="6.6881">
        <ele>1326.3855822152</ele>
        <time>2019-07-06T09:38:38Z</time>
      </trkpt>
      <trkpt lat="45.5824" lon="6.68807">
        <ele>1351.2630509806</ele>
        <time>2019-07-06T09:38:40Z</time>
      </trkpt>
      <trkpt lat="45.5824" lon="6.68802">
        <ele>1348.0155779464</ele>
        <time>2019-07-06T09:38:42Z</time>
      </trkpt>
      <trkpt lat="45.5824" lon="6.68798">
        <ele>1339.5607340586</ele>
        <time>2019-07-06T09:38:44Z</time>
      </trkpt>
      <trkpt lat="45.5824" lon="6.68795">
        <ele>1334.1147365187</ele>
        <time>2019-07-06T09:38:46Z</time>
      </trkpt>
      <trkpt lat="45.58241" lon="6.68791">
        <ele>1330.5904788989</ele>
        <time>2019-07-06T09:38:48Z</time>
      </trkpt>
      <trkpt lat="45.5824" lon="6.68788">
        <ele>1328.3041683166</ele>
        <time>2019-07-06T09:38:50Z</time>
      </trkpt>
      <trkpt lat="45.58239" lon="6.68785">
        <ele>1326.0397679777</ele>
        <time>2019-07-06T09:38:53Z</time>
      </trkpt>
      <trkpt lat="45.58239" lon="6.68782">
        <ele>1324.9428294614</ele>
        <time>2019-07-06T09:38:55Z</time>
      </trkpt>
      <trkpt lat="45.58238" lon="6.68779">
        <ele>1323.9915946781</ele>
        <time>2019-07-06T09:38:57Z</time>
      </trkpt>
      <trkpt lat="45.58237" lon="6.68775">
        <ele>1322.8858141062</ele>
        <time>2019-07-06T09:39:00Z</time>
      </trkpt>
      <trkpt lat="45.58235" lon="6.68771">
        <ele>1322.4510584572</ele>
        <time>2019-07-06T09:39:02Z</time>
      </trkpt>
      <trkpt lat="45.58233" lon="6.68769">
        <ele>1322.0983390252</ele>
        <time>2019-07-06T09:39:05Z</time>
      </trkpt>
      <trkpt lat="45.58232" lon="6.68766">
        <ele>1322.0612163616</ele>
        <time>2019-07-06T09:39:07Z</time>
      </trkpt>
      <trkpt lat="45.58232" lon="6.68761">
        <ele>1322.2415399906</ele>
        <time>2019-07-06T09:39:09Z</time>
      </trkpt>
      <trkpt lat="45.58232" lon="6.68759">
        <ele>1322.5584370267</ele>
        <time>2019-07-06T09:39:11Z</time>
      </trkpt>
      <trkpt lat="45.58232" lon="6.68756">
        <ele>1323.0127589183</ele>
        <time>2019-07-06T09:39:13Z</time>
      </trkpt>
      <trkpt lat="45.58231" lon="6.68753">
        <ele>1323.5014584012</ele>
        <time>2019-07-06T09:39:15Z</time>
      </trkpt>
      <trkpt lat="45.5823" lon="6.68749">
        <ele>1324.1791747061</ele>
        <time>2019-07-06T09:39:18Z</time>
      </trkpt>
      <trkpt lat="45.58229" lon="6.68746">
        <ele>1324.6635153156</ele>
        <time>2019-07-06T09:39:21Z</time>
      </trkpt>
      <trkpt lat="45.58228" lon="6.68743">
        <ele>1349.7309190995</ele>
        <time>2019-07-06T09:39:23Z</time>
      </trkpt>
      <trkpt lat="45.58228" lon="6.68739">
        <ele>1340.6821475563</ele>
        <time>2019-07-06T09:39:25Z</time>
      </trkpt>
      <trkpt lat="45.58227" lon="6.68736">
        <ele>1360.3200618702</ele>
        <time>2019-07-06T09:39:27Z</time>
      </trkpt>
      <trkpt lat="45.58226" lon="6.68734">
        <ele>1360.1613230236</ele>
        <time>2019-07-06T09:39:30Z</time>
      </trkpt>
      <trkpt lat="45.58225" lon="6.68731">
        <ele>1352.700743727</ele>
        <time>2019-07-06T09:39:32Z</time>
      </trkpt>
      <trkpt lat="45.58224" lon="6.68728">
        <ele>1341.8215253772</ele>
        <time>2019-07-06T09:39:34Z</time>
      </trkpt>
      <trkpt lat="45.58222" lon="6.68725">
        <ele>1334.5666761899</ele>
        <time>2019-07-06T09:39:36Z</time>
      </trkpt>
      <trkpt lat="45.58221" lon="6.68722">
        <ele>1356.7006489994</ele>
        <time>2019-07-06T09:39:38Z</time>
      </trkpt>
      <trkpt lat="45.5822" lon="6.68719">
        <ele>1359.1551185346</ele>
        <time>2019-07-06T09:39:39Z</time>
      </trkpt>
      <trkpt lat="45.58218" lon="6.68717">
        <ele>1358.3069766385</ele>
        <time>2019-07-06T09:39:41Z</time>
      </trkpt>
      <trkpt lat="45.58217" lon="6.68715">
        <ele>1357.7258098922</ele>
        <time>2019-07-06T09:39:42Z</time>
      </trkpt>
      <trkpt lat="45.58215" lon="6.68711">
        <ele>1349.7115580122</ele>
        <time>2019-07-06T09:39:44Z</time>
      </trkpt>
      <trkpt lat="45.58214" lon="6.68707">
        <ele>1354.4599244078</ele>
        <time>2019-07-06T09:39:46Z</time>
      </trkpt>
      <trkpt lat="45.58213" lon="6.68704">
        <ele>1348.3817006956</ele>
        <time>2019-07-06T09:39:49Z</time>
      </trkpt>
      <trkpt lat="45.58211" lon="6.68702">
        <ele>1338.7949047715</ele>
        <time>2019-07-06T09:39:51Z</time>
      </trkpt>
      <trkpt lat="45.58211" lon="6.68699">
        <ele>1329.8897240906</ele>
        <time>2019-07-06T09:39:55Z</time>
      </trkpt>
      <trkpt lat="45.58211" lon="6.68696">
        <ele>1327.4749529695</ele>
        <time>2019-07-06T09:39:59Z</time>
      </trkpt>
      <trkpt lat="45.58212" lon="6.68694">
        <ele>1353.7053971509</ele>
        <time>2019-07-06T09:40:01Z</time>
      </trkpt>
      <trkpt lat="45.58213" lon="6.68692">
        <ele>1354.8381044247</ele>
        <time>2019-07-06T09:40:03Z</time>
      </trkpt>
      <trkpt lat="45.58215" lon="6.68691">
        <ele>1355.9287086984</ele>
        <time>2019-07-06T09:40:06Z</time>
      </trkpt>
      <trkpt lat="45.58217" lon="6.68692">
        <ele>1351.1034418201</ele>
        <time>2019-07-06T09:40:09Z</time>
      </trkpt>
      <trkpt lat="45.58219" lon="6.68692">
        <ele>1357.8961888753</ele>
        <time>2019-07-06T09:40:11Z</time>
      </trkpt>
      <trkpt lat="45.58221" lon="6.68693">
        <ele>1344.5655193432</ele>
        <time>2019-07-06T09:40:14Z</time>
      </trkpt>
      <trkpt lat="45.58224" lon="6.68691">
        <ele>1339.8824534731</ele>
        <time>2019-07-06T09:40:16Z</time>
      </trkpt>
      <trkpt lat="45.58225" lon="6.68688">
        <ele>1355.9128238962</ele>
        <time>2019-07-06T09:40:21Z</time>
      </trkpt>
      <trkpt lat="45.58227" lon="6.68687">
        <ele>1362.4336563233</ele>
        <time>2019-07-06T09:40:25Z</time>
      </trkpt>
      <trkpt lat="45.58229" lon="6.68684">
        <ele>1363.453121389</ele>
        <time>2019-07-06T09:40:28Z</time>
      </trkpt>
      <trkpt lat="45.58231" lon="6.68683">
        <ele>1353.2060158768</ele>
        <time>2019-07-06T09:40:31Z</time>
      </trkpt>
      <trkpt lat="45.58232" lon="6.68679">
        <ele>1365.6063588786</ele>
        <time>2019-07-06T09:40:35Z</time>
      </trkpt>
      <trkpt lat="45.58234" lon="6.68677">
        <ele>1366.2924353021</ele>
        <time>2019-07-06T09:40:39Z</time>
      </trkpt>
      <trkpt lat="45.58235" lon="6.68674">
        <ele>1367.0621613203</ele>
        <time>2019-07-06T09:40:42Z</time>
      </trkpt>
      <trkpt lat="45.58237" lon="6.68674">
        <ele>1367.9154437417</ele>
        <time>2019-07-06T09:40:45Z</time>
      </trkpt>
      <trkpt lat="45.58239" lon="6.68672">
        <ele>1369.1441850506</ele>
        <time>2019-07-06T09:40:50Z</time>
      </trkpt>
      <trkpt lat="45.58241" lon="6.68671">
        <ele>1370.164666376</ele>
        <time>2019-07-06T09:40:52Z</time>
      </trkpt>
      <trkpt lat="45.58243" lon="6.6867">
        <ele>1371.6244091748</ele>
        <time>2019-07-06T09:40:56Z</time>
      </trkpt>
      <trkpt lat="45.58244" lon="6.68667">
        <ele>1372.0378998256</ele>
        <time>2019-07-06T09:40:57Z</time>
      </trkpt>
      <trkpt lat="45.58246" lon="6.68665">
        <ele>1373.1869718483</ele>
        <time>2019-07-06T09:41:00Z</time>
      </trkpt>
      <trkpt lat="45.58248" lon="6.68664">
        <ele>1373.9295695288</ele>
        <time>2019-07-06T09:41:03Z</time>
      </trkpt>
      <trkpt lat="45.5825" lon="6.68662">
        <ele>1374.4572131704</ele>
        <time>2019-07-06T09:41:08Z</time>
      </trkpt>
      <trkpt lat="45.58252" lon="6.68661">
        <ele>1374.9656541011</ele>
        <time>2019-07-06T09:41:11Z</time>
      </trkpt>
      <trkpt lat="45.58253" lon="6.68659">
        <ele>1374.8175650434</ele>
        <time>2019-07-06T09:41:14Z</time>
      </trkpt>
      <trkpt lat="45.58255" lon="6.68657">
        <ele>1374.964944081</ele>
        <time>2019-07-06T09:41:18Z</time>
      </trkpt>
      <trkpt lat="45.58257" lon="6.68654">
        <ele>1374.783166935</ele>
        <time>2019-07-06T09:41:20Z</time>
      </trkpt>
      <trkpt lat="45.58259" lon="6.68653">
        <ele>1375.1723688111</ele>
        <time>2019-07-06T09:41:29Z</time>
      </trkpt>
      <trkpt lat="45.58261" lon="6.68651">
        <ele>1374.9897297077</ele>
        <time>2019-07-06T09:41:31Z</time>
      </trkpt>
      <trkpt lat="45.58263" lon="6.68651">
        <ele>1375.2154235562</ele>
        <time>2019-07-06T09:41:34Z</time>
      </trkpt>
      <trkpt lat="45.58265" lon="6.68652">
        <ele>1365.3282525083</ele>
        <time>2019-07-06T09:41:37Z</time>
      </trkpt>
      <trkpt lat="45.58267" lon="6.68652">
        <ele>1376.3518329783</ele>
        <time>2019-07-06T09:41:39Z</time>
      </trkpt>
      <trkpt lat="45.58269" lon="6.6865">
        <ele>1376.7452794338</ele>
        <time>2019-07-06T09:41:42Z</time>
      </trkpt>
      <trkpt lat="45.58271" lon="6.6865">
        <ele>1377.2262390424</ele>
        <time>2019-07-06T09:41:45Z</time>
      </trkpt>
      <trkpt lat="45.58273" lon="6.68649">
        <ele>1377.5221112183</ele>
        <time>2019-07-06T09:41:49Z</time>
      </trkpt>
      <trkpt lat="45.58275" lon="6.68647">
        <ele>1377.6751155595</ele>
        <time>2019-07-06T09:41:51Z</time>
      </trkpt>
      <trkpt lat="45.58277" lon="6.68646">
        <ele>1378.0662317846</ele>
        <time>2019-07-06T09:41:53Z</time>
      </trkpt>
      <trkpt lat="45.58279" lon="6.68644">
        <ele>1377.9460853296</ele>
        <time>2019-07-06T09:41:55Z</time>
      </trkpt>
      <trkpt lat="45.58281" lon="6.68643">
        <ele>1378.1837486112</ele>
        <time>2019-07-06T09:41:57Z</time>
      </trkpt>
      <trkpt lat="45.58282" lon="6.6864">
        <ele>1378.265009909</ele>
        <time>2019-07-06T09:42:00Z</time>
      </trkpt>
      <trkpt lat="45.58285" lon="6.68641">
        <ele>1378.5248817459</ele>
        <time>2019-07-06T09:42:06Z</time>
      </trkpt>
      <trkpt lat="45.58287" lon="6.6864">
        <ele>1379.0724023117</ele>
        <time>2019-07-06T09:42:09Z</time>
      </trkpt>
      <trkpt lat="45.58289" lon="6.68639">
        <ele>1379.2808419221</ele>
        <time>2019-07-06T09:42:12Z</time>
      </trkpt>
      <trkpt lat="45.58291" lon="6.68638">
        <ele>1379.7253781205</ele>
        <time>2019-07-06T09:42:15Z</time>
      </trkpt>
      <trkpt lat="45.58293" lon="6.68636">
        <ele>1380.1172901324</ele>
        <time>2019-07-06T09:42:21Z</time>
      </trkpt>
      <trkpt lat="45.58295" lon="6.68634">
        <ele>1380.8368070947</ele>
        <time>2019-07-06T09:42:23Z</time>
      </trkpt>
      <trkpt lat="45.58298" lon="6.68631">
        <ele>1381.2879268249</ele>
        <time>2019-07-06T09:42:25Z</time>
      </trkpt>
      <trkpt lat="45.58299" lon="6.68629">
        <ele>1382.0343337742</ele>
        <time>2019-07-06T09:42:27Z</time>
      </trkpt>
      <trkpt lat="45.58301" lon="6.68628">
        <ele>1382.5994974571</ele>
        <time>2019-07-06T09:42:30Z</time>
      </trkpt>
      <trkpt lat="45.58303" lon="6.68626">
        <ele>1383.0927326836</ele>
        <time>2019-07-06T09:42:32Z</time>
      </trkpt>
      <trkpt lat="45.58303" lon="6.68623">
        <ele>1383.3389700406</ele>
        <time>2019-07-06T09:42:35Z</time>
      </trkpt>
      <trkpt lat="45.58304" lon="6.6862">
        <ele>1383.6249102478</ele>
        <time>2019-07-06T09:42:39Z</time>
      </trkpt>
      <trkpt lat="45.58303" lon="6.68617">
        <ele>1383.5394406689</ele>
        <time>2019-07-06T09:42:41Z</time>
      </trkpt>
      <trkpt lat="45.58304" lon="6.68614">
        <ele>1383.5368223882</ele>
        <time>2019-07-06T09:42:44Z</time>
      </trkpt>
      <trkpt lat="45.58304" lon="6.68611">
        <ele>1383.6316469486</ele>
        <time>2019-07-06T09:42:46Z</time>
      </trkpt>
      <trkpt lat="45.58303" lon="6.68609">
        <ele>1383.7080859812</ele>
        <time>2019-07-06T09:42:49Z</time>
      </trkpt>
      <trkpt lat="45.58304" lon="6.68605">
        <ele>1383.5814768734</ele>
        <time>2019-07-06T09:42:52Z</time>
      </trkpt>
      <trkpt lat="45.58304" lon="6.68602">
        <ele>1383.6731603879</ele>
        <time>2019-07-06T09:42:54Z</time>
      </trkpt>
      <trkpt lat="45.58304" lon="6.68599">
        <ele>1383.6733625023</ele>
        <time>2019-07-06T09:42:58Z</time>
      </trkpt>
      <trkpt lat="45.58303" lon="6.68596">
        <ele>1383.4822597768</ele>
        <time>2019-07-06T09:43:01Z</time>
      </trkpt>
      <trkpt lat="45.58303" lon="6.68593">
        <ele>1383.3793992405</ele>
        <time>2019-07-06T09:43:04Z</time>
      </trkpt>
      <trkpt lat="45.58304" lon="6.6859">
        <ele>1383.5263288206</ele>
        <time>2019-07-06T09:43:06Z</time>
      </trkpt>
      <trkpt lat="45.58305" lon="6.68586">
        <ele>1383.7997384756</ele>
        <time>2019-07-06T09:43:09Z</time>
      </trkpt>
      <trkpt lat="45.58304" lon="6.68583">
        <ele>1383.9518469102</ele>
        <time>2019-07-06T09:43:11Z</time>
      </trkpt>
      <trkpt lat="45.58305" lon="6.6858">
        <ele>1384.3686614302</ele>
        <time>2019-07-06T09:43:14Z</time>
      </trkpt>
      <trkpt lat="45.58306" lon="6.68578">
        <ele>1385.4803377261</ele>
        <time>2019-07-06T09:43:19Z</time>
      </trkpt>
      <trkpt lat="45.58306" lon="6.68573">
        <ele>1386.5557913614</ele>
        <time>2019-07-06T09:43:22Z</time>
      </trkpt>
      <trkpt lat="45.58307" lon="6.6857">
        <ele>1387.9747065113</ele>
        <time>2019-07-06T09:43:24Z</time>
      </trkpt>
      <trkpt lat="45.58307" lon="6.68566">
        <ele>1389.2173012332</ele>
        <time>2019-07-06T09:43:27Z</time>
      </trkpt>
      <trkpt lat="45.58307" lon="6.68564">
        <ele>1390.0741601609</ele>
        <time>2019-07-06T09:43:30Z</time>
      </trkpt>
      <trkpt lat="45.58308" lon="6.68561">
        <ele>1390.6116724259</ele>
        <time>2019-07-06T09:43:32Z</time>
      </trkpt>
      <trkpt lat="45.58308" lon="6.68559">
        <ele>1391.7816190122</ele>
        <time>2019-07-06T09:43:36Z</time>
      </trkpt>
      <trkpt lat="45.58309" lon="6.68556">
        <ele>1392.6605036062</ele>
        <time>2019-07-06T09:43:38Z</time>
      </trkpt>
      <trkpt lat="45.5831" lon="6.68554">
        <ele>1393.2981949158</ele>
        <time>2019-07-06T09:43:42Z</time>
      </trkpt>
      <trkpt lat="45.58311" lon="6.68551">
        <ele>1393.6479044727</ele>
        <time>2019-07-06T09:43:44Z</time>
      </trkpt>
      <trkpt lat="45.58312" lon="6.68547">
        <ele>1393.8842018612</ele>
        <time>2019-07-06T09:43:46Z</time>
      </trkpt>
      <trkpt lat="45.58313" lon="6.68544">
        <ele>1394.262384964</ele>
        <time>2019-07-06T09:43:51Z</time>
      </trkpt>
      <trkpt lat="45.58314" lon="6.68541">
        <ele>1394.5984594591</ele>
        <time>2019-07-06T09:43:53Z</time>
      </trkpt>
      <trkpt lat="45.58316" lon="6.68539">
        <ele>1395.0887097153</ele>
        <time>2019-07-06T09:43:58Z</time>
      </trkpt>
      <trkpt lat="45.58317" lon="6.68537">
        <ele>1395.3266328902</ele>
        <time>2019-07-06T09:44:02Z</time>
      </trkpt>
      <trkpt lat="45.58319" lon="6.68535">
        <ele>1395.8348804862</ele>
        <time>2019-07-06T09:44:06Z</time>
      </trkpt>
      <trkpt lat="45.58322" lon="6.68534">
        <ele>1396.5429698968</ele>
        <time>2019-07-06T09:44:11Z</time>
      </trkpt>
      <trkpt lat="45.58323" lon="6.68537">
        <ele>1397.0695026131</ele>
        <time>2019-07-06T09:44:13Z</time>
      </trkpt>
      <trkpt lat="45.58324" lon="6.6854">
        <ele>1397.4585753133</ele>
        <time>2019-07-06T09:44:15Z</time>
      </trkpt>
      <trkpt lat="45.58323" lon="6.68542">
        <ele>1397.380859595</ele>
        <time>2019-07-06T09:44:17Z</time>
      </trkpt>
      <trkpt lat="45.58323" lon="6.68545">
        <ele>1397.2385675452</ele>
        <time>2019-07-06T09:44:19Z</time>
      </trkpt>
      <trkpt lat="45.58322" lon="6.68548">
        <ele>1396.9264243471</ele>
        <time>2019-07-06T09:44:22Z</time>
      </trkpt>
      <trkpt lat="45.58321" lon="6.68551">
        <ele>1396.7937104705</ele>
        <time>2019-07-06T09:44:25Z</time>
      </trkpt>
      <trkpt lat="45.58321" lon="6.68554">
        <ele>1396.6658529031</ele>
        <time>2019-07-06T09:44:28Z</time>
      </trkpt>
      <trkpt lat="45.58322" lon="6.68558">
        <ele>1396.628494741</ele>
        <time>2019-07-06T09:44:33Z</time>
      </trkpt>
      <trkpt lat="45.58323" lon="6.6856">
        <ele>1396.5237660647</ele>
        <time>2019-07-06T09:44:35Z</time>
      </trkpt>
      <trkpt lat="45.58324" lon="6.68563">
        <ele>1396.5364956334</ele>
        <time>2019-07-06T09:44:37Z</time>
      </trkpt>
      <trkpt lat="45.58326" lon="6.68566">
        <ele>1396.8095452923</ele>
        <time>2019-07-06T09:44:39Z</time>
      </trkpt>
      <trkpt lat="45.58327" lon="6.68569">
        <ele>1397.3684696366</ele>
        <time>2019-07-06T09:44:41Z</time>
      </trkpt>
      <trkpt lat="45.58328" lon="6.68573">
        <ele>1397.7100098078</ele>
        <time>2019-07-06T09:44:43Z</time>
      </trkpt>
      <trkpt lat="45.58329" lon="6.68576">
        <ele>1398.023821938</ele>
        <time>2019-07-06T09:44:45Z</time>
      </trkpt>
      <trkpt lat="45.58331" lon="6.68579">
        <ele>1398.6074190742</ele>
        <time>2019-07-06T09:44:48Z</time>
      </trkpt>
      <trkpt lat="45.58332" lon="6.68581">
        <ele>1398.941616807</ele>
        <time>2019-07-06T09:44:51Z</time>
      </trkpt>
      <trkpt lat="45.58334" lon="6.68584">
        <ele>1399.7101577834</ele>
        <time>2019-07-06T09:44:53Z</time>
      </trkpt>
      <trkpt lat="45.58335" lon="6.68587">
        <ele>1399.6517606834</ele>
        <time>2019-07-06T09:44:56Z</time>
      </trkpt>
      <trkpt lat="45.58337" lon="6.68588">
        <ele>1399.9575958818</ele>
        <time>2019-07-06T09:45:01Z</time>
      </trkpt>
      <trkpt lat="45.58338" lon="6.6859">
        <ele>1399.8619699497</ele>
        <time>2019-07-06T09:45:05Z</time>
      </trkpt>
      <trkpt lat="45.5834" lon="6.68592">
        <ele>1400.1128146839</ele>
        <time>2019-07-06T09:45:07Z</time>
      </trkpt>
      <trkpt lat="45.58343" lon="6.68595">
        <ele>1400.442232311</ele>
        <time>2019-07-06T09:45:09Z</time>
      </trkpt>
      <trkpt lat="45.58345" lon="6.68597">
        <ele>1401.1743881437</ele>
        <time>2019-07-06T09:45:12Z</time>
      </trkpt>
      <trkpt lat="45.58347" lon="6.68598">
        <ele>1401.6351197741</ele>
        <time>2019-07-06T09:45:14Z</time>
      </trkpt>
      <trkpt lat="45.58348" lon="6.686">
        <ele>1401.9049689521</ele>
        <time>2019-07-06T09:45:18Z</time>
      </trkpt>
      <trkpt lat="45.58351" lon="6.68602">
        <ele>1402.8567832534</ele>
        <time>2019-07-06T09:45:21Z</time>
      </trkpt>
      <trkpt lat="45.58352" lon="6.68603">
        <ele>1403.483216391</ele>
        <time>2019-07-06T09:45:24Z</time>
      </trkpt>
      <trkpt lat="45.58354" lon="6.68605">
        <ele>1404.1969177733</ele>
        <time>2019-07-06T09:45:26Z</time>
      </trkpt>
      <trkpt lat="45.58356" lon="6.68607">
        <ele>1405.2463175118</ele>
        <time>2019-07-06T09:45:29Z</time>
      </trkpt>
      <trkpt lat="45.58358" lon="6.68609">
        <ele>1406.0253729674</ele>
        <time>2019-07-06T09:45:33Z</time>
      </trkpt>
      <trkpt lat="45.5836" lon="6.68611">
        <ele>1406.8102641664</ele>
        <time>2019-07-06T09:45:37Z</time>
      </trkpt>
      <trkpt lat="45.58362" lon="6.68612">
        <ele>1407.5175393253</ele>
        <time>2019-07-06T09:45:39Z</time>
      </trkpt>
      <trkpt lat="45.58364" lon="6.68613">
        <ele>1408.7866128648</ele>
        <time>2019-07-06T09:45:42Z</time>
      </trkpt>
      <trkpt lat="45.58367" lon="6.68615">
        <ele>1409.5921932176</ele>
        <time>2019-07-06T09:45:45Z</time>
      </trkpt>
      <trkpt lat="45.5837" lon="6.68616">
        <ele>1410.3648092228</ele>
        <time>2019-07-06T09:45:48Z</time>
      </trkpt>
      <trkpt lat="45.58372" lon="6.68616">
        <ele>1411.0306838522</ele>
        <time>2019-07-06T09:45:52Z</time>
      </trkpt>
      <trkpt lat="45.58374" lon="6.68617">
        <ele>1411.6362091799</ele>
        <time>2019-07-06T09:45:56Z</time>
      </trkpt>
      <trkpt lat="45.58375" lon="6.6862">
        <ele>1412.0059562462</ele>
        <time>2019-07-06T09:45:58Z</time>
      </trkpt>
      <trkpt lat="45.58377" lon="6.68622">
        <ele>1412.6446767212</ele>
        <time>2019-07-06T09:46:01Z</time>
      </trkpt>
      <trkpt lat="45.58379" lon="6.68625">
        <ele>1413.2330828977</ele>
        <time>2019-07-06T09:46:04Z</time>
      </trkpt>
      <trkpt lat="45.58381" lon="6.68627">
        <ele>1413.7310629647</ele>
        <time>2019-07-06T09:46:08Z</time>
      </trkpt>
      <trkpt lat="45.58383" lon="6.68628">
        <ele>1414.2446708973</ele>
        <time>2019-07-06T09:46:10Z</time>
      </trkpt>
      <trkpt lat="45.58385" lon="6.68629">
        <ele>1414.4941868594</ele>
        <time>2019-07-06T09:46:12Z</time>
      </trkpt>
      <trkpt lat="45.58386" lon="6.68631">
        <ele>1415.2907848022</ele>
        <time>2019-07-06T09:46:14Z</time>
      </trkpt>
      <trkpt lat="45.58387" lon="6.68634">
        <ele>1415.6509955826</ele>
        <time>2019-07-06T09:46:19Z</time>
      </trkpt>
      <trkpt lat="45.58389" lon="6.68636">
        <ele>1416.0147554884</ele>
        <time>2019-07-06T09:46:23Z</time>
      </trkpt>
      <trkpt lat="45.5839" lon="6.68639">
        <ele>1416.4050625807</ele>
        <time>2019-07-06T09:46:29Z</time>
      </trkpt>
      <trkpt lat="45.58392" lon="6.6864">
        <ele>1417.5356847142</ele>
        <time>2019-07-06T09:46:32Z</time>
      </trkpt>
      <trkpt lat="45.58394" lon="6.68639">
        <ele>1418.4396031011</ele>
        <time>2019-07-06T09:46:34Z</time>
      </trkpt>
      <trkpt lat="45.58396" lon="6.68638">
        <ele>1419.6481478436</ele>
        <time>2019-07-06T09:46:37Z</time>
      </trkpt>
      <trkpt lat="45.58398" lon="6.68635">
        <ele>1420.9152602031</ele>
        <time>2019-07-06T09:46:39Z</time>
      </trkpt>
      <trkpt lat="45.58399" lon="6.68631">
        <ele>1421.7326216697</ele>
        <time>2019-07-06T09:46:42Z</time>
      </trkpt>
      <trkpt lat="45.58398" lon="6.68628">
        <ele>1421.8793141699</ele>
        <time>2019-07-06T09:46:44Z</time>
      </trkpt>
      <trkpt lat="45.58398" lon="6.68624">
        <ele>1421.65707254</ele>
        <time>2019-07-06T09:46:47Z</time>
      </trkpt>
      <trkpt lat="45.58398" lon="6.68621">
        <ele>1421.6087442871</ele>
        <time>2019-07-06T09:46:48Z</time>
      </trkpt>
      <trkpt lat="45.58397" lon="6.68618">
        <ele>1421.3761320367</ele>
        <time>2019-07-06T09:46:50Z</time>
      </trkpt>
      <trkpt lat="45.58396" lon="6.68615">
        <ele>1420.7803354552</ele>
        <time>2019-07-06T09:46:52Z</time>
      </trkpt>
      <trkpt lat="45.58395" lon="6.68613">
        <ele>1420.1527860616</ele>
        <time>2019-07-06T09:46:56Z</time>
      </trkpt>
      <trkpt lat="45.58395" lon="6.6861">
        <ele>1419.9095111606</ele>
        <time>2019-07-06T09:47:00Z</time>
      </trkpt>
      <trkpt lat="45.58394" lon="6.68606">
        <ele>1419.1786900192</ele>
        <time>2019-07-06T09:47:04Z</time>
      </trkpt>
      <trkpt lat="45.58395" lon="6.68603">
        <ele>1418.9025563129</ele>
        <time>2019-07-06T09:47:10Z</time>
      </trkpt>
      <trkpt lat="45.58396" lon="6.686">
        <ele>1419.2873872607</ele>
        <time>2019-07-06T09:47:14Z</time>
      </trkpt>
      <trkpt lat="45.58397" lon="6.68598">
        <ele>1419.8512791971</ele>
        <time>2019-07-06T09:47:17Z</time>
      </trkpt>
      <trkpt lat="45.58399" lon="6.68597">
        <ele>1420.2506050519</ele>
        <time>2019-07-06T09:47:20Z</time>
      </trkpt>
      <trkpt lat="45.58401" lon="6.68595">
        <ele>1421.0064012284</ele>
        <time>2019-07-06T09:47:23Z</time>
      </trkpt>
      <trkpt lat="45.58403" lon="6.68593">
        <ele>1421.4736815607</ele>
        <time>2019-07-06T09:47:26Z</time>
      </trkpt>
      <trkpt lat="45.58404" lon="6.68591">
        <ele>1421.7652920295</ele>
        <time>2019-07-06T09:47:29Z</time>
      </trkpt>
      <trkpt lat="45.58406" lon="6.68588">
        <ele>1421.9372922581</ele>
        <time>2019-07-06T09:47:32Z</time>
      </trkpt>
      <trkpt lat="45.58408" lon="6.68586">
        <ele>1422.0818024775</ele>
        <time>2019-07-06T09:47:36Z</time>
      </trkpt>
      <trkpt lat="45.58411" lon="6.68586">
        <ele>1422.599861642</ele>
        <time>2019-07-06T09:47:38Z</time>
      </trkpt>
      <trkpt lat="45.58413" lon="6.68586">
        <ele>1423.6991170987</ele>
        <time>2019-07-06T09:47:42Z</time>
      </trkpt>
      <trkpt lat="45.58415" lon="6.68585">
        <ele>1424.0653731671</ele>
        <time>2019-07-06T09:47:44Z</time>
      </trkpt>
      <trkpt lat="45.58418" lon="6.68583">
        <ele>1424.5847375851</ele>
        <time>2019-07-06T09:47:49Z</time>
      </trkpt>
      <trkpt lat="45.5842" lon="6.68581">
        <ele>1425.3111155192</ele>
        <time>2019-07-06T09:47:54Z</time>
      </trkpt>
      <trkpt lat="45.58421" lon="6.6858">
        <ele>1425.5909597041</ele>
        <time>2019-07-06T09:47:56Z</time>
      </trkpt>
      <trkpt lat="45.58423" lon="6.68578">
        <ele>1426.3233862363</ele>
        <time>2019-07-06T09:47:59Z</time>
      </trkpt>
      <trkpt lat="45.58425" lon="6.68575">
        <ele>1426.5266191752</ele>
        <time>2019-07-06T09:48:03Z</time>
      </trkpt>
      <trkpt lat="45.58427" lon="6.68573">
        <ele>1426.8280393118</ele>
        <time>2019-07-06T09:48:08Z</time>
      </trkpt>
      <trkpt lat="45.58429" lon="6.68572">
        <ele>1427.6579372808</ele>
        <time>2019-07-06T09:48:11Z</time>
      </trkpt>
      <trkpt lat="45.58431" lon="6.68569">
        <ele>1428.1843146641</ele>
        <time>2019-07-06T09:48:14Z</time>
      </trkpt>
      <trkpt lat="45.58433" lon="6.68567">
        <ele>1428.493377668</ele>
        <time>2019-07-06T09:48:18Z</time>
      </trkpt>
      <trkpt lat="45.58434" lon="6.68566">
        <ele>1418.3330520877</ele>
        <time>2019-07-06T09:48:21Z</time>
      </trkpt>
      <trkpt lat="45.58436" lon="6.68564">
        <ele>1409.6125269523</ele>
        <time>2019-07-06T09:48:24Z</time>
      </trkpt>
      <trkpt lat="45.58438" lon="6.68562">
        <ele>1427.979110224</ele>
        <time>2019-07-06T09:48:27Z</time>
      </trkpt>
      <trkpt lat="45.5844" lon="6.68561">
        <ele>1430.9152910183</ele>
        <time>2019-07-06T09:48:29Z</time>
      </trkpt>
      <trkpt lat="45.58442" lon="6.6856">
        <ele>1431.8635493106</ele>
        <time>2019-07-06T09:48:31Z</time>
      </trkpt>
      <trkpt lat="45.58444" lon="6.6856">
        <ele>1426.8587240673</ele>
        <time>2019-07-06T09:48:34Z</time>
      </trkpt>
      <trkpt lat="45.58446" lon="6.68557">
        <ele>1418.6114390363</ele>
        <time>2019-07-06T09:48:36Z</time>
      </trkpt>
      <trkpt lat="45.58448" lon="6.68555">
        <ele>1410.5005011837</ele>
        <time>2019-07-06T09:48:40Z</time>
      </trkpt>
      <trkpt lat="45.5845" lon="6.68553">
        <ele>1407.7123084912</ele>
        <time>2019-07-06T09:48:44Z</time>
      </trkpt>
      <trkpt lat="45.58452" lon="6.68551">
        <ele>1407.2110806892</ele>
        <time>2019-07-06T09:48:47Z</time>
      </trkpt>
      <trkpt lat="45.58455" lon="6.6855">
        <ele>1435.1212190676</ele>
        <time>2019-07-06T09:48:50Z</time>
      </trkpt>
      <trkpt lat="45.58457" lon="6.68548">
        <ele>1422.9897569736</ele>
        <time>2019-07-06T09:48:54Z</time>
      </trkpt>
      <trkpt lat="45.58459" lon="6.68546">
        <ele>1416.417619374</ele>
        <time>2019-07-06T09:48:57Z</time>
      </trkpt>
      <trkpt lat="45.5846" lon="6.68544">
        <ele>1415.1191856261</ele>
        <time>2019-07-06T09:48:58Z</time>
      </trkpt>
      <trkpt lat="45.58461" lon="6.68542">
        <ele>1412.6717295105</ele>
        <time>2019-07-06T09:49:01Z</time>
      </trkpt>
      <trkpt lat="45.58463" lon="6.68539">
        <ele>1411.6569984802</ele>
        <time>2019-07-06T09:49:04Z</time>
      </trkpt>
      <trkpt lat="45.58464" lon="6.68537">
        <ele>1411.2795709711</ele>
        <time>2019-07-06T09:49:07Z</time>
      </trkpt>
      <trkpt lat="45.58466" lon="6.68535">
        <ele>1411.0944818545</ele>
        <time>2019-07-06T09:49:11Z</time>
      </trkpt>
      <trkpt lat="45.58467" lon="6.68534">
        <ele>1411.1445190331</ele>
        <time>2019-07-06T09:49:13Z</time>
      </trkpt>
      <trkpt lat="45.58469" lon="6.68532">
        <ele>1411.4373624204</ele>
        <time>2019-07-06T09:49:16Z</time>
      </trkpt>
      <trkpt lat="45.58471" lon="6.6853">
        <ele>1437.026591455</ele>
        <time>2019-07-06T09:49:18Z</time>
      </trkpt>
      <trkpt lat="45.58472" lon="6.68528">
        <ele>1428.2643855705</ele>
        <time>2019-07-06T09:49:20Z</time>
      </trkpt>
      <trkpt lat="45.58473" lon="6.68526">
        <ele>1422.7620353283</ele>
        <time>2019-07-06T09:49:22Z</time>
      </trkpt>
      <trkpt lat="45.58475" lon="6.68524">
        <ele>1439.3880305505</ele>
        <time>2019-07-06T09:49:24Z</time>
      </trkpt>
      <trkpt lat="45.58476" lon="6.68521">
        <ele>1441.9215512271</ele>
        <time>2019-07-06T09:49:27Z</time>
      </trkpt>
      <trkpt lat="45.58477" lon="6.68519">
        <ele>1442.9274342351</ele>
        <time>2019-07-06T09:49:30Z</time>
      </trkpt>
      <trkpt lat="45.58479" lon="6.68516">
        <ele>1438.0599004667</ele>
        <time>2019-07-06T09:49:34Z</time>
      </trkpt>
      <trkpt lat="45.5848" lon="6.68514">
        <ele>1426.9762453348</ele>
        <time>2019-07-06T09:49:37Z</time>
      </trkpt>
      <trkpt lat="45.58481" lon="6.6851">
        <ele>1442.7144154179</ele>
        <time>2019-07-06T09:49:41Z</time>
      </trkpt>
      <trkpt lat="45.58483" lon="6.68507">
        <ele>1434.6949297071</ele>
        <time>2019-07-06T09:49:44Z</time>
      </trkpt>
      <trkpt lat="45.58484" lon="6.68504">
        <ele>1440.5479585566</ele>
        <time>2019-07-06T09:49:47Z</time>
      </trkpt>
      <trkpt lat="45.58485" lon="6.68502">
        <ele>1447.4246185808</ele>
        <time>2019-07-06T09:49:51Z</time>
      </trkpt>
      <trkpt lat="45.58486" lon="6.68499">
        <ele>1448.1557574929</ele>
        <time>2019-07-06T09:49:54Z</time>
      </trkpt>
      <trkpt lat="45.58487" lon="6.68497">
        <ele>1448.4186474563</ele>
        <time>2019-07-06T09:49:58Z</time>
      </trkpt>
      <trkpt lat="45.58489" lon="6.68493">
        <ele>1442.8969043719</ele>
        <time>2019-07-06T09:50:02Z</time>
      </trkpt>
      <trkpt lat="45.5849" lon="6.68491">
        <ele>1434.3216295588</ele>
        <time>2019-07-06T09:50:04Z</time>
      </trkpt>
      <trkpt lat="45.5849" lon="6.68488">
        <ele>1427.3599124751</ele>
        <time>2019-07-06T09:50:07Z</time>
      </trkpt>
      <trkpt lat="45.58492" lon="6.68485">
        <ele>1424.0828594566</ele>
        <time>2019-07-06T09:50:10Z</time>
      </trkpt>
      <trkpt lat="45.58492" lon="6.68482">
        <ele>1422.8144100554</ele>
        <time>2019-07-06T09:50:12Z</time>
      </trkpt>
      <trkpt lat="45.58494" lon="6.68481">
        <ele>1448.6377400548</ele>
        <time>2019-07-06T09:50:17Z</time>
      </trkpt>
      <trkpt lat="45.58495" lon="6.68479">
        <ele>1443.2022698405</ele>
        <time>2019-07-06T09:50:21Z</time>
      </trkpt>
      <trkpt lat="45.58497" lon="6.68477">
        <ele>1447.1572958586</ele>
        <time>2019-07-06T09:50:24Z</time>
      </trkpt>
      <trkpt lat="45.58499" lon="6.68475">
        <ele>1448.4761719958</ele>
        <time>2019-07-06T09:50:26Z</time>
      </trkpt>
      <trkpt lat="45.58501" lon="6.68475">
        <ele>1443.5245057558</ele>
        <time>2019-07-06T09:50:28Z</time>
      </trkpt>
      <trkpt lat="45.58503" lon="6.68474">
        <ele>1450.2150381662</ele>
        <time>2019-07-06T09:50:31Z</time>
      </trkpt>
      <trkpt lat="45.58505" lon="6.68472">
        <ele>1451.025356546</ele>
        <time>2019-07-06T09:50:35Z</time>
      </trkpt>
      <trkpt lat="45.58507" lon="6.68471">
        <ele>1452.0493981858</ele>
        <time>2019-07-06T09:50:39Z</time>
      </trkpt>
      <trkpt lat="45.58509" lon="6.68471">
        <ele>1453.1095067911</ele>
        <time>2019-07-06T09:50:43Z</time>
      </trkpt>
      <trkpt lat="45.58511" lon="6.68471">
        <ele>1454.0085811381</ele>
        <time>2019-07-06T09:50:48Z</time>
      </trkpt>
      <trkpt lat="45.58513" lon="6.6847">
        <ele>1455.1571030614</ele>
        <time>2019-07-06T09:50:50Z</time>
      </trkpt>
      <trkpt lat="45.58515" lon="6.68469">
        <ele>1456.1884603716</ele>
        <time>2019-07-06T09:50:54Z</time>
      </trkpt>
      <trkpt lat="45.58517" lon="6.68469">
        <ele>1456.8713579776</ele>
        <time>2019-07-06T09:50:58Z</time>
      </trkpt>
      <trkpt lat="45.58518" lon="6.68468">
        <ele>1457.5991543055</ele>
        <time>2019-07-06T09:51:01Z</time>
      </trkpt>
      <trkpt lat="45.5852" lon="6.68468">
        <ele>1458.5815219767</ele>
        <time>2019-07-06T09:51:03Z</time>
      </trkpt>
      <trkpt lat="45.58522" lon="6.68468">
        <ele>1459.6229871502</ele>
        <time>2019-07-06T09:51:06Z</time>
      </trkpt>
      <trkpt lat="45.58524" lon="6.68467">
        <ele>1460.6150986837</ele>
        <time>2019-07-06T09:51:09Z</time>
      </trkpt>
      <trkpt lat="45.58526" lon="6.68466">
        <ele>1461.5918250482</ele>
        <time>2019-07-06T09:51:12Z</time>
      </trkpt>
      <trkpt lat="45.58528" lon="6.68465">
        <ele>1462.0566808029</ele>
        <time>2019-07-06T09:51:15Z</time>
      </trkpt>
      <trkpt lat="45.5853" lon="6.68465">
        <ele>1462.54807356</ele>
        <time>2019-07-06T09:51:17Z</time>
      </trkpt>
      <trkpt lat="45.58532" lon="6.68466">
        <ele>1462.9816626287</ele>
        <time>2019-07-06T09:51:34Z</time>
      </trkpt>
      <trkpt lat="45.58534" lon="6.68466">
        <ele>1464.080720562</ele>
        <time>2019-07-06T09:51:38Z</time>
      </trkpt>
      <trkpt lat="45.58534" lon="6.68463">
        <ele>1464.2156039967</ele>
        <time>2019-07-06T09:51:40Z</time>
      </trkpt>
      <trkpt lat="45.58535" lon="6.6846">
        <ele>1463.1817770498</ele>
        <time>2019-07-06T09:51:42Z</time>
      </trkpt>
      <trkpt lat="45.58537" lon="6.68457">
        <ele>1462.7954536729</ele>
        <time>2019-07-06T09:51:44Z</time>
      </trkpt>
      <trkpt lat="45.5854" lon="6.68454">
        <ele>1462.5709192018</ele>
        <time>2019-07-06T09:51:48Z</time>
      </trkpt>
      <trkpt lat="45.58542" lon="6.68453">
        <ele>1462.631659715</ele>
        <time>2019-07-06T09:51:49Z</time>
      </trkpt>
      <trkpt lat="45.58544" lon="6.68452">
        <ele>1462.8793262789</ele>
        <time>2019-07-06T09:51:51Z</time>
      </trkpt>
      <trkpt lat="45.58546" lon="6.6845">
        <ele>1463.2569381527</ele>
        <time>2019-07-06T09:51:54Z</time>
      </trkpt>
      <trkpt lat="45.58548" lon="6.68448">
        <ele>1463.3263285749</ele>
        <time>2019-07-06T09:51:56Z</time>
      </trkpt>
      <trkpt lat="45.58549" lon="6.68446">
        <ele>1463.0689536315</ele>
        <time>2019-07-06T09:51:58Z</time>
      </trkpt>
      <trkpt lat="45.58551" lon="6.68444">
        <ele>1463.0406828606</ele>
        <time>2019-07-06T09:52:00Z</time>
      </trkpt>
      <trkpt lat="45.58552" lon="6.68442">
        <ele>1463.3157544165</ele>
        <time>2019-07-06T09:52:03Z</time>
      </trkpt>
      <trkpt lat="45.58554" lon="6.68441">
        <ele>1463.4788589559</ele>
        <time>2019-07-06T09:52:06Z</time>
      </trkpt>
      <trkpt lat="45.58556" lon="6.68438">
        <ele>1464.3115923729</ele>
        <time>2019-07-06T09:52:09Z</time>
      </trkpt>
      <trkpt lat="45.58557" lon="6.68435">
        <ele>1464.6573987988</ele>
        <time>2019-07-06T09:52:11Z</time>
      </trkpt>
      <trkpt lat="45.58559" lon="6.68434">
        <ele>1465.0466198025</ele>
        <time>2019-07-06T09:52:13Z</time>
      </trkpt>
      <trkpt lat="45.5856" lon="6.68431">
        <ele>1465.4708818856</ele>
        <time>2019-07-06T09:52:15Z</time>
      </trkpt>
      <trkpt lat="45.58561" lon="6.68429">
        <ele>1465.7562866158</ele>
        <time>2019-07-06T09:52:17Z</time>
      </trkpt>
      <trkpt lat="45.58563" lon="6.68427">
        <ele>1466.1119446182</ele>
        <time>2019-07-06T09:52:19Z</time>
      </trkpt>
      <trkpt lat="45.58564" lon="6.68425">
        <ele>1466.5861005634</ele>
        <time>2019-07-06T09:52:21Z</time>
      </trkpt>
      <trkpt lat="45.58565" lon="6.68422">
        <ele>1466.9439866541</ele>
        <time>2019-07-06T09:52:23Z</time>
      </trkpt>
      <trkpt lat="45.58567" lon="6.68419">
        <ele>1467.3747377985</ele>
        <time>2019-07-06T09:52:26Z</time>
      </trkpt>
      <trkpt lat="45.58568" lon="6.68417">
        <ele>1467.6655119425</ele>
        <time>2019-07-06T09:52:28Z</time>
      </trkpt>
      <trkpt lat="45.58569" lon="6.68414">
        <ele>1468.1857504614</ele>
        <time>2019-07-06T09:52:31Z</time>
      </trkpt>
      <trkpt lat="45.58571" lon="6.68411">
        <ele>1468.6025360808</ele>
        <time>2019-07-06T09:52:34Z</time>
      </trkpt>
      <trkpt lat="45.58572" lon="6.68408">
        <ele>1469.048726426</ele>
        <time>2019-07-06T09:52:37Z</time>
      </trkpt>
      <trkpt lat="45.58575" lon="6.68406">
        <ele>1469.5497009367</ele>
        <time>2019-07-06T09:52:40Z</time>
      </trkpt>
      <trkpt lat="45.58576" lon="6.68404">
        <ele>1470.060069709</ele>
        <time>2019-07-06T09:52:43Z</time>
      </trkpt>
      <trkpt lat="45.58578" lon="6.68402">
        <ele>1470.4684016386</ele>
        <time>2019-07-06T09:52:45Z</time>
      </trkpt>
      <trkpt lat="45.5858" lon="6.68399">
        <ele>1471.0939328677</ele>
        <time>2019-07-06T09:52:48Z</time>
      </trkpt>
      <trkpt lat="45.58581" lon="6.68396">
        <ele>1471.6435078619</ele>
        <time>2019-07-06T09:52:51Z</time>
      </trkpt>
      <trkpt lat="45.58584" lon="6.68395">
        <ele>1472.2370884427</ele>
        <time>2019-07-06T09:52:54Z</time>
      </trkpt>
      <trkpt lat="45.58585" lon="6.68393">
        <ele>1472.4081979489</ele>
        <time>2019-07-06T09:52:56Z</time>
      </trkpt>
      <trkpt lat="45.58588" lon="6.68391">
        <ele>1472.4693231065</ele>
        <time>2019-07-06T09:52:58Z</time>
      </trkpt>
      <trkpt lat="45.5859" lon="6.6839">
        <ele>1472.4535561037</ele>
        <time>2019-07-06T09:53:01Z</time>
      </trkpt>
      <trkpt lat="45.58592" lon="6.68388">
        <ele>1472.2569715123</ele>
        <time>2019-07-06T09:53:03Z</time>
      </trkpt>
      <trkpt lat="45.58594" lon="6.68387">
        <ele>1472.1328593771</ele>
        <time>2019-07-06T09:53:06Z</time>
      </trkpt>
      <trkpt lat="45.58596" lon="6.68386">
        <ele>1471.9182480823</ele>
        <time>2019-07-06T09:53:09Z</time>
      </trkpt>
      <trkpt lat="45.58598" lon="6.68385">
        <ele>1471.8743584222</ele>
        <time>2019-07-06T09:53:12Z</time>
      </trkpt>
      <trkpt lat="45.586" lon="6.68383">
        <ele>1471.7159806702</ele>
        <time>2019-07-06T09:53:15Z</time>
      </trkpt>
      <trkpt lat="45.58602" lon="6.6838">
        <ele>1471.600479547</ele>
        <time>2019-07-06T09:53:17Z</time>
      </trkpt>
      <trkpt lat="45.58604" lon="6.68377">
        <ele>1471.5550496334</ele>
        <time>2019-07-06T09:53:19Z</time>
      </trkpt>
      <trkpt lat="45.58606" lon="6.68374">
        <ele>1471.4601129124</ele>
        <time>2019-07-06T09:53:21Z</time>
      </trkpt>
      <trkpt lat="45.58607" lon="6.68373">
        <ele>1471.6096322952</ele>
        <time>2019-07-06T09:53:23Z</time>
      </trkpt>
      <trkpt lat="45.58609" lon="6.68372">
        <ele>1471.8155610828</ele>
        <time>2019-07-06T09:53:25Z</time>
      </trkpt>
      <trkpt lat="45.58611" lon="6.6837">
        <ele>1472.1159321382</ele>
        <time>2019-07-06T09:53:27Z</time>
      </trkpt>
      <trkpt lat="45.58613" lon="6.68366">
        <ele>1472.6426321378</ele>
        <time>2019-07-06T09:53:29Z</time>
      </trkpt>
      <trkpt lat="45.58615" lon="6.68364">
        <ele>1473.3210090954</ele>
        <time>2019-07-06T09:53:33Z</time>
      </trkpt>
      <trkpt lat="45.58617" lon="6.68361">
        <ele>1473.804762648</ele>
        <time>2019-07-06T09:53:36Z</time>
      </trkpt>
      <trkpt lat="45.58619" lon="6.6836">
        <ele>1474.3588342922</ele>
        <time>2019-07-06T09:53:39Z</time>
      </trkpt>
      <trkpt lat="45.58621" lon="6.68357">
        <ele>1474.925669858</ele>
        <time>2019-07-06T09:53:42Z</time>
      </trkpt>
      <trkpt lat="45.58623" lon="6.68354">
        <ele>1475.3034149162</ele>
        <time>2019-07-06T09:53:45Z</time>
      </trkpt>
      <trkpt lat="45.58625" lon="6.68352">
        <ele>1476.0062318191</ele>
        <time>2019-07-06T09:53:47Z</time>
      </trkpt>
      <trkpt lat="45.58627" lon="6.6835">
        <ele>1476.5363463083</ele>
        <time>2019-07-06T09:53:50Z</time>
      </trkpt>
      <trkpt lat="45.58629" lon="6.68347">
        <ele>1477.1592279713</ele>
        <time>2019-07-06T09:53:54Z</time>
      </trkpt>
      <trkpt lat="45.58631" lon="6.68346">
        <ele>1477.8353697837</ele>
        <time>2019-07-06T09:53:56Z</time>
      </trkpt>
      <trkpt lat="45.58633" lon="6.68344">
        <ele>1478.1680076666</ele>
        <time>2019-07-06T09:53:58Z</time>
      </trkpt>
      <trkpt lat="45.58635" lon="6.68341">
        <ele>1478.9553475617</ele>
        <time>2019-07-06T09:54:01Z</time>
      </trkpt>
      <trkpt lat="45.58637" lon="6.68339">
        <ele>1479.3156551983</ele>
        <time>2019-07-06T09:54:03Z</time>
      </trkpt>
      <trkpt lat="45.58638" lon="6.68338">
        <ele>1479.8169389388</ele>
        <time>2019-07-06T09:54:05Z</time>
      </trkpt>
      <trkpt lat="45.5864" lon="6.68336">
        <ele>1480.5175077234</ele>
        <time>2019-07-06T09:54:08Z</time>
      </trkpt>
      <trkpt lat="45.58642" lon="6.68335">
        <ele>1480.816881048</ele>
        <time>2019-07-06T09:54:10Z</time>
      </trkpt>
      <trkpt lat="45.58644" lon="6.68335">
        <ele>1481.5442033945</ele>
        <time>2019-07-06T09:54:12Z</time>
      </trkpt>
      <trkpt lat="45.58645" lon="6.68333">
        <ele>1481.9124544012</ele>
        <time>2019-07-06T09:54:14Z</time>
      </trkpt>
      <trkpt lat="45.58647" lon="6.68331">
        <ele>1482.1595522154</ele>
        <time>2019-07-06T09:54:18Z</time>
      </trkpt>
      <trkpt lat="45.58649" lon="6.6833">
        <ele>1482.228037821</ele>
        <time>2019-07-06T09:54:20Z</time>
      </trkpt>
      <trkpt lat="45.58651" lon="6.6833">
        <ele>1482.4557002162</ele>
        <time>2019-07-06T09:54:22Z</time>
      </trkpt>
      <trkpt lat="45.58652" lon="6.6833">
        <ele>1483.3245697658</ele>
        <time>2019-07-06T09:54:28Z</time>
      </trkpt>
      <trkpt lat="45.58654" lon="6.68328">
        <ele>1483.3045455056</ele>
        <time>2019-07-06T09:54:31Z</time>
      </trkpt>
      <trkpt lat="45.58657" lon="6.68328">
        <ele>1483.8158907157</ele>
        <time>2019-07-06T09:54:34Z</time>
      </trkpt>
      <trkpt lat="45.58659" lon="6.68327">
        <ele>1483.947688682</ele>
        <time>2019-07-06T09:54:37Z</time>
      </trkpt>
      <trkpt lat="45.58661" lon="6.68325">
        <ele>1484.3716748009</ele>
        <time>2019-07-06T09:54:39Z</time>
      </trkpt>
      <trkpt lat="45.58664" lon="6.68326">
        <ele>1484.7964691975</ele>
        <time>2019-07-06T09:54:42Z</time>
      </trkpt>
      <trkpt lat="45.58666" lon="6.68327">
        <ele>1485.9956144509</ele>
        <time>2019-07-06T09:54:45Z</time>
      </trkpt>
      <trkpt lat="45.58668" lon="6.68327">
        <ele>1486.694703256</ele>
        <time>2019-07-06T09:54:49Z</time>
      </trkpt>
      <trkpt lat="45.5867" lon="6.68328">
        <ele>1487.52720472</ele>
        <time>2019-07-06T09:54:53Z</time>
      </trkpt>
      <trkpt lat="45.58673" lon="6.68328">
        <ele>1488.2926091215</ele>
        <time>2019-07-06T09:54:55Z</time>
      </trkpt>
      <trkpt lat="45.58675" lon="6.68329">
        <ele>1489.3195983851</ele>
        <time>2019-07-06T09:54:59Z</time>
      </trkpt>
      <trkpt lat="45.58678" lon="6.6833">
        <ele>1489.9982283546</ele>
        <time>2019-07-06T09:55:03Z</time>
      </trkpt>
      <trkpt lat="45.58679" lon="6.6833">
        <ele>1490.7047912817</ele>
        <time>2019-07-06T09:55:05Z</time>
      </trkpt>
      <trkpt lat="45.58682" lon="6.68329">
        <ele>1491.3419656898</ele>
        <time>2019-07-06T09:55:09Z</time>
      </trkpt>
      <trkpt lat="45.58684" lon="6.68328">
        <ele>1491.4904137136</ele>
        <time>2019-07-06T09:55:11Z</time>
      </trkpt>
      <trkpt lat="45.58686" lon="6.68326">
        <ele>1491.7833544927</ele>
        <time>2019-07-06T09:55:13Z</time>
      </trkpt>
      <trkpt lat="45.58688" lon="6.68326">
        <ele>1492.1975900528</ele>
        <time>2019-07-06T09:55:15Z</time>
      </trkpt>
      <trkpt lat="45.5869" lon="6.68324">
        <ele>1492.6013008827</ele>
        <time>2019-07-06T09:55:19Z</time>
      </trkpt>
      <trkpt lat="45.58693" lon="6.68321">
        <ele>1492.5521076723</ele>
        <time>2019-07-06T09:55:23Z</time>
      </trkpt>
      <trkpt lat="45.58695" lon="6.68319">
        <ele>1492.426385541</ele>
        <time>2019-07-06T09:55:27Z</time>
      </trkpt>
      <trkpt lat="45.58698" lon="6.6832">
        <ele>1492.2730319649</ele>
        <time>2019-07-06T09:55:30Z</time>
      </trkpt>
      <trkpt lat="45.587" lon="6.6832">
        <ele>1492.5830622051</ele>
        <time>2019-07-06T09:55:33Z</time>
      </trkpt>
      <trkpt lat="45.58702" lon="6.68322">
        <ele>1492.7164184288</ele>
        <time>2019-07-06T09:55:35Z</time>
      </trkpt>
      <trkpt lat="45.58704" lon="6.68322">
        <ele>1493.1321045906</ele>
        <time>2019-07-06T09:55:38Z</time>
      </trkpt>
      <trkpt lat="45.58706" lon="6.68323">
        <ele>1493.4420326058</ele>
        <time>2019-07-06T09:55:41Z</time>
      </trkpt>
      <trkpt lat="45.58708" lon="6.68323">
        <ele>1493.45288533</ele>
        <time>2019-07-06T09:55:43Z</time>
      </trkpt>
      <trkpt lat="45.58711" lon="6.68323">
        <ele>1493.3520075291</ele>
        <time>2019-07-06T09:55:45Z</time>
      </trkpt>
      <trkpt lat="45.58712" lon="6.68321">
        <ele>1493.013534125</ele>
        <time>2019-07-06T09:55:48Z</time>
      </trkpt>
      <trkpt lat="45.58714" lon="6.6832">
        <ele>1492.6665769992</ele>
        <time>2019-07-06T09:55:51Z</time>
      </trkpt>
      <trkpt lat="45.58716" lon="6.68319">
        <ele>1492.4575367798</ele>
        <time>2019-07-06T09:55:53Z</time>
      </trkpt>
      <trkpt lat="45.58719" lon="6.68318">
        <ele>1492.0987312897</ele>
        <time>2019-07-06T09:55:55Z</time>
      </trkpt>
      <trkpt lat="45.58721" lon="6.68317">
        <ele>1491.8741346085</ele>
        <time>2019-07-06T09:55:58Z</time>
      </trkpt>
      <trkpt lat="45.58723" lon="6.68317">
        <ele>1491.6612890694</ele>
        <time>2019-07-06T09:56:02Z</time>
      </trkpt>
      <trkpt lat="45.58725" lon="6.68316">
        <ele>1492.0104697404</ele>
        <time>2019-07-06T09:56:04Z</time>
      </trkpt>
      <trkpt lat="45.58727" lon="6.68317">
        <ele>1492.343924926</ele>
        <time>2019-07-06T09:56:06Z</time>
      </trkpt>
      <trkpt lat="45.58729" lon="6.68317">
        <ele>1492.7190587942</ele>
        <time>2019-07-06T09:56:08Z</time>
      </trkpt>
      <trkpt lat="45.58732" lon="6.68318">
        <ele>1493.2664795665</ele>
        <time>2019-07-06T09:56:10Z</time>
      </trkpt>
      <trkpt lat="45.58734" lon="6.68317">
        <ele>1493.6432477196</ele>
        <time>2019-07-06T09:56:12Z</time>
      </trkpt>
      <trkpt lat="45.58736" lon="6.68315">
        <ele>1493.7261821767</ele>
        <time>2019-07-06T09:56:15Z</time>
      </trkpt>
      <trkpt lat="45.58739" lon="6.68315">
        <ele>1493.9783788595</ele>
        <time>2019-07-06T09:56:40Z</time>
      </trkpt>
      <trkpt lat="45.58741" lon="6.68315">
        <ele>1494.4881456037</ele>
        <time>2019-07-06T09:56:43Z</time>
      </trkpt>
      <trkpt lat="45.58744" lon="6.68314">
        <ele>1494.8656743409</ele>
        <time>2019-07-06T09:56:45Z</time>
      </trkpt>
      <trkpt lat="45.58746" lon="6.68314">
        <ele>1495.2945744539</ele>
        <time>2019-07-06T09:56:49Z</time>
      </trkpt>
      <trkpt lat="45.58747" lon="6.68314">
        <ele>1495.4732879355</ele>
        <time>2019-07-06T09:56:50Z</time>
      </trkpt>
      <trkpt lat="45.58749" lon="6.68314">
        <ele>1496.1335262525</ele>
        <time>2019-07-06T09:56:52Z</time>
      </trkpt>
      <trkpt lat="45.58752" lon="6.68313">
        <ele>1496.5437992899</ele>
        <time>2019-07-06T09:56:54Z</time>
      </trkpt>
      <trkpt lat="45.58755" lon="6.68311">
        <ele>1497.4441227234</ele>
        <time>2019-07-06T09:56:56Z</time>
      </trkpt>
      <trkpt lat="45.58758" lon="6.6831">
        <ele>1498.2078976863</ele>
        <time>2019-07-06T09:56:58Z</time>
      </trkpt>
      <trkpt lat="45.5876" lon="6.68309">
        <ele>1498.8470076039</ele>
        <time>2019-07-06T09:57:00Z</time>
      </trkpt>
      <trkpt lat="45.58762" lon="6.68309">
        <ele>1499.5943496308</ele>
        <time>2019-07-06T09:57:02Z</time>
      </trkpt>
      <trkpt lat="45.58765" lon="6.68307">
        <ele>1500.1433831097</ele>
        <time>2019-07-06T09:57:04Z</time>
      </trkpt>
      <trkpt lat="45.58767" lon="6.68305">
        <ele>1500.9511610421</ele>
        <time>2019-07-06T09:57:06Z</time>
      </trkpt>
      <trkpt lat="45.58769" lon="6.68304">
        <ele>1501.6005437531</ele>
        <time>2019-07-06T09:57:08Z</time>
      </trkpt>
      <trkpt lat="45.58771" lon="6.68302">
        <ele>1502.1214284493</ele>
        <time>2019-07-06T09:57:10Z</time>
      </trkpt>
      <trkpt lat="45.58772" lon="6.68299">
        <ele>1502.5922708412</ele>
        <time>2019-07-06T09:57:12Z</time>
      </trkpt>
      <trkpt lat="45.58774" lon="6.68297">
        <ele>1502.981885271</ele>
        <time>2019-07-06T09:57:14Z</time>
      </trkpt>
      <trkpt lat="45.58775" lon="6.68295">
        <ele>1503.4788258489</ele>
        <time>2019-07-06T09:57:16Z</time>
      </trkpt>
      <trkpt lat="45.58777" lon="6.68293">
        <ele>1503.743962491</ele>
        <time>2019-07-06T09:57:18Z</time>
      </trkpt>
      <trkpt lat="45.58779" lon="6.68291">
        <ele>1504.3677698633</ele>
        <time>2019-07-06T09:57:20Z</time>
      </trkpt>
      <trkpt lat="45.5878" lon="6.68289">
        <ele>1504.4087467065</ele>
        <time>2019-07-06T09:57:22Z</time>
      </trkpt>
      <trkpt lat="45.58783" lon="6.68289">
        <ele>1504.4091602001</ele>
        <time>2019-07-06T09:57:25Z</time>
      </trkpt>
      <trkpt lat="45.58785" lon="6.68287">
        <ele>1504.409160614</ele>
        <time>2019-07-06T09:57:29Z</time>
      </trkpt>
      <trkpt lat="45.58786" lon="6.68285">
        <ele>1504.409160614</ele>
        <time>2019-07-06T09:57:31Z</time>
      </trkpt>
      <trkpt lat="45.58788" lon="6.68285">
        <ele>1504.409160614</ele>
        <time>2019-07-06T09:57:33Z</time>
      </trkpt>
      <trkpt lat="45.5879" lon="6.68285">
        <ele>1504.409160614</ele>
        <time>2019-07-06T09:57:35Z</time>
      </trkpt>
      <trkpt lat="45.58793" lon="6.68285">
        <ele>1504.409160614</ele>
        <time>2019-07-06T09:57:37Z</time>
      </trkpt>
      <trkpt lat="45.58795" lon="6.68285">
        <ele>1504.409160614</ele>
        <time>2019-07-06T09:57:40Z</time>
      </trkpt>
      <trkpt lat="45.58797" lon="6.68283">
        <ele>1504.409160614</ele>
        <time>2019-07-06T09:57:43Z</time>
      </trkpt>
      <trkpt lat="45.588" lon="6.68282">
        <ele>1504.409160614</ele>
        <time>2019-07-06T09:57:46Z</time>
      </trkpt>
      <trkpt lat="45.58802" lon="6.68281">
        <ele>1504.409160614</ele>
        <time>2019-07-06T09:57:48Z</time>
      </trkpt>
      <trkpt lat="45.58804" lon="6.68281">
        <ele>1504.409160614</ele>
        <time>2019-07-06T09:58:00Z</time>
      </trkpt>
      <trkpt lat="45.58806" lon="6.68281">
        <ele>1504.409160614</ele>
        <time>2019-07-06T09:58:02Z</time>
      </trkpt>
      <trkpt lat="45.58808" lon="6.68281">
        <ele>1504.7909302429</ele>
        <time>2019-07-06T09:58:06Z</time>
      </trkpt>
      <trkpt lat="45.5881" lon="6.6828">
        <ele>1505.4095591208</ele>
        <time>2019-07-06T09:58:08Z</time>
      </trkpt>
      <trkpt lat="45.58813" lon="6.6828">
        <ele>1506.1113667475</ele>
        <time>2019-07-06T09:58:10Z</time>
      </trkpt>
      <trkpt lat="45.58814" lon="6.68278">
        <ele>1506.6300071382</ele>
        <time>2019-07-06T09:58:12Z</time>
      </trkpt>
      <trkpt lat="45.58817" lon="6.68278">
        <ele>1507.2414740597</ele>
        <time>2019-07-06T09:58:14Z</time>
      </trkpt>
      <trkpt lat="45.58819" lon="6.68277">
        <ele>1507.9897500075</ele>
        <time>2019-07-06T09:58:17Z</time>
      </trkpt>
      <trkpt lat="45.5882" lon="6.68275">
        <ele>1508.5688702317</ele>
        <time>2019-07-06T09:58:20Z</time>
      </trkpt>
      <trkpt lat="45.58823" lon="6.68274">
        <ele>1509.064437267</ele>
        <time>2019-07-06T09:58:23Z</time>
      </trkpt>
      <trkpt lat="45.58825" lon="6.68272">
        <ele>1509.5958647477</ele>
        <time>2019-07-06T09:58:25Z</time>
      </trkpt>
      <trkpt lat="45.58827" lon="6.68271">
        <ele>1510.2677948279</ele>
        <time>2019-07-06T09:58:28Z</time>
      </trkpt>
      <trkpt lat="45.58829" lon="6.6827">
        <ele>1510.8160440285</ele>
        <time>2019-07-06T09:58:31Z</time>
      </trkpt>
      <trkpt lat="45.58832" lon="6.68269">
        <ele>1511.6005272142</ele>
        <time>2019-07-06T09:58:34Z</time>
      </trkpt>
      <trkpt lat="45.58834" lon="6.68269">
        <ele>1512.3857069611</ele>
        <time>2019-07-06T09:58:37Z</time>
      </trkpt>
      <trkpt lat="45.58836" lon="6.68267">
        <ele>1512.4231949508</ele>
        <time>2019-07-06T09:58:41Z</time>
      </trkpt>
      <trkpt lat="45.58839" lon="6.68265">
        <ele>1512.4231986625</ele>
        <time>2019-07-06T09:58:43Z</time>
      </trkpt>
      <trkpt lat="45.58841" lon="6.68263">
        <ele>1512.4231986996</ele>
        <time>2019-07-06T09:58:45Z</time>
      </trkpt>
      <trkpt lat="45.58842" lon="6.68263">
        <ele>1512.4231986999</ele>
        <time>2019-07-06T09:58:47Z</time>
      </trkpt>
      <trkpt lat="45.58845" lon="6.68261">
        <ele>1512.4231987</ele>
        <time>2019-07-06T09:58:49Z</time>
      </trkpt>
      <trkpt lat="45.58847" lon="6.6826">
        <ele>1512.4231987</ele>
        <time>2019-07-06T09:58:51Z</time>
      </trkpt>
      <trkpt lat="45.58849" lon="6.68258">
        <ele>1512.4231987</ele>
        <time>2019-07-06T09:58:53Z</time>
      </trkpt>
      <trkpt lat="45.58851" lon="6.68256">
        <ele>1512.4231987</ele>
        <time>2019-07-06T09:58:56Z</time>
      </trkpt>
      <trkpt lat="45.58854" lon="6.68256">
        <ele>1512.4231987</ele>
        <time>2019-07-06T09:58:58Z</time>
      </trkpt>
      <trkpt lat="45.58856" lon="6.68255">
        <ele>1512.4231987</ele>
        <time>2019-07-06T09:59:03Z</time>
      </trkpt>
      <trkpt lat="45.58858" lon="6.68253">
        <ele>1512.4231987</ele>
        <time>2019-07-06T09:59:06Z</time>
      </trkpt>
      <trkpt lat="45.5886" lon="6.68251">
        <ele>1512.4231987</ele>
        <time>2019-07-06T09:59:09Z</time>
      </trkpt>
      <trkpt lat="45.58862" lon="6.68249">
        <ele>1512.4231987</ele>
        <time>2019-07-06T09:59:12Z</time>
      </trkpt>
      <trkpt lat="45.58864" lon="6.68247">
        <ele>1512.8843772888</ele>
        <time>2019-07-06T09:59:15Z</time>
      </trkpt>
      <trkpt lat="45.58866" lon="6.68246">
        <ele>1513.5564689331</ele>
        <time>2019-07-06T09:59:17Z</time>
      </trkpt>
      <trkpt lat="45.58868" lon="6.68245">
        <ele>1514.2042970273</ele>
        <time>2019-07-06T09:59:19Z</time>
      </trkpt>
      <trkpt lat="45.5887" lon="6.68243">
        <ele>1514.7217958383</ele>
        <time>2019-07-06T09:59:22Z</time>
      </trkpt>
      <trkpt lat="45.58872" lon="6.68241">
        <ele>1515.3708989084</ele>
        <time>2019-07-06T09:59:25Z</time>
      </trkpt>
      <trkpt lat="45.58875" lon="6.68239">
        <ele>1515.8251268739</ele>
        <time>2019-07-06T09:59:27Z</time>
      </trkpt>
      <trkpt lat="45.58876" lon="6.68236">
        <ele>1516.5119311165</ele>
        <time>2019-07-06T09:59:29Z</time>
      </trkpt>
      <trkpt lat="45.58879" lon="6.68235">
        <ele>1517.2927062229</ele>
        <time>2019-07-06T09:59:35Z</time>
      </trkpt>
      <trkpt lat="45.58881" lon="6.68234">
        <ele>1517.5464787361</ele>
        <time>2019-07-06T09:59:37Z</time>
      </trkpt>
      <trkpt lat="45.58882" lon="6.68233">
        <ele>1518.416968462</ele>
        <time>2019-07-06T09:59:41Z</time>
      </trkpt>
      <trkpt lat="45.58884" lon="6.68231">
        <ele>1518.8929695125</ele>
        <time>2019-07-06T09:59:45Z</time>
      </trkpt>
      <trkpt lat="45.58885" lon="6.68228">
        <ele>1519.1236385956</ele>
        <time>2019-07-06T09:59:47Z</time>
      </trkpt>
      <trkpt lat="45.58886" lon="6.68225">
        <ele>1519.3946980042</ele>
        <time>2019-07-06T09:59:51Z</time>
      </trkpt>
      <trkpt lat="45.58887" lon="6.68222">
        <ele>1519.6695238004</ele>
        <time>2019-07-06T09:59:53Z</time>
      </trkpt>
      <trkpt lat="45.58889" lon="6.68219">
        <ele>1520.0877749881</ele>
        <time>2019-07-06T09:59:55Z</time>
      </trkpt>
      <trkpt lat="45.5889" lon="6.68216">
        <ele>1520.4637774608</ele>
        <time>2019-07-06T09:59:58Z</time>
      </trkpt>
      <trkpt lat="45.5889" lon="6.68213">
        <ele>1520.5185593215</ele>
        <time>2019-07-06T10:00:00Z</time>
      </trkpt>
      <trkpt lat="45.5889" lon="6.6821">
        <ele>1520.5550025771</ele>
        <time>2019-07-06T10:00:05Z</time>
      </trkpt>
      <trkpt lat="45.5889" lon="6.68207">
        <ele>1520.4681561383</ele>
        <time>2019-07-06T10:00:13Z</time>
      </trkpt>
      <trkpt lat="45.58891" lon="6.68206">
        <ele>1520.7817249601</ele>
        <time>2019-07-06T10:00:18Z</time>
      </trkpt>
      <trkpt lat="45.58893" lon="6.68203">
        <ele>1521.0677658444</ele>
        <time>2019-07-06T10:00:21Z</time>
      </trkpt>
      <trkpt lat="45.58894" lon="6.68201">
        <ele>1521.4820357288</ele>
        <time>2019-07-06T10:00:23Z</time>
      </trkpt>
      <trkpt lat="45.58896" lon="6.68197">
        <ele>1521.8631314383</ele>
        <time>2019-07-06T10:00:26Z</time>
      </trkpt>
      <trkpt lat="45.58898" lon="6.68194">
        <ele>1522.6395767871</ele>
        <time>2019-07-06T10:00:28Z</time>
      </trkpt>
      <trkpt lat="45.58899" lon="6.68192">
        <ele>1523.158425225</ele>
        <time>2019-07-06T10:00:30Z</time>
      </trkpt>
      <trkpt lat="45.58901" lon="6.68189">
        <ele>1523.1919694222</ele>
        <time>2019-07-06T10:00:32Z</time>
      </trkpt>
      <trkpt lat="45.58903" lon="6.68187">
        <ele>1523.5274320703</ele>
        <time>2019-07-06T10:00:35Z</time>
      </trkpt>
      <trkpt lat="45.58905" lon="6.68185">
        <ele>1523.5856863562</ele>
        <time>2019-07-06T10:00:38Z</time>
      </trkpt>
      <trkpt lat="45.58907" lon="6.68183">
        <ele>1523.4007195726</ele>
        <time>2019-07-06T10:00:40Z</time>
      </trkpt>
      <trkpt lat="45.58909" lon="6.6818">
        <ele>1523.4366409009</ele>
        <time>2019-07-06T10:00:42Z</time>
      </trkpt>
      <trkpt lat="45.5891" lon="6.68178">
        <ele>1523.1687798993</ele>
        <time>2019-07-06T10:00:44Z</time>
      </trkpt>
      <trkpt lat="45.58912" lon="6.68176">
        <ele>1522.9830361037</ele>
        <time>2019-07-06T10:00:46Z</time>
      </trkpt>
      <trkpt lat="45.58914" lon="6.68173">
        <ele>1522.599019242</ele>
        <time>2019-07-06T10:00:48Z</time>
      </trkpt>
      <trkpt lat="45.58917" lon="6.68173">
        <ele>1522.4313967373</ele>
        <time>2019-07-06T10:00:51Z</time>
      </trkpt>
      <trkpt lat="45.58918" lon="6.68171">
        <ele>1522.0752997233</ele>
        <time>2019-07-06T10:00:53Z</time>
      </trkpt>
      <trkpt lat="45.5892" lon="6.6817">
        <ele>1522.1671879719</ele>
        <time>2019-07-06T10:00:55Z</time>
      </trkpt>
      <trkpt lat="45.58922" lon="6.68168">
        <ele>1522.3190590028</ele>
        <time>2019-07-06T10:00:57Z</time>
      </trkpt>
      <trkpt lat="45.58922" lon="6.68166">
        <ele>1522.049435135</ele>
        <time>2019-07-06T10:00:59Z</time>
      </trkpt>
      <trkpt lat="45.58924" lon="6.68164">
        <ele>1522.3423370409</ele>
        <time>2019-07-06T10:01:01Z</time>
      </trkpt>
      <trkpt lat="45.58926" lon="6.68162">
        <ele>1522.854834391</ele>
        <time>2019-07-06T10:01:04Z</time>
      </trkpt>
      <trkpt lat="45.58928" lon="6.68161">
        <ele>1523.3817985041</ele>
        <time>2019-07-06T10:01:06Z</time>
      </trkpt>
      <trkpt lat="45.5893" lon="6.68158">
        <ele>1523.9485191162</ele>
        <time>2019-07-06T10:01:09Z</time>
      </trkpt>
      <trkpt lat="45.58931" lon="6.68156">
        <ele>1524.3241672361</ele>
        <time>2019-07-06T10:01:11Z</time>
      </trkpt>
      <trkpt lat="45.58933" lon="6.68154">
        <ele>1524.8178919791</ele>
        <time>2019-07-06T10:01:13Z</time>
      </trkpt>
      <trkpt lat="45.58935" lon="6.68151">
        <ele>1525.4613850192</ele>
        <time>2019-07-06T10:01:16Z</time>
      </trkpt>
      <trkpt lat="45.58936" lon="6.68148">
        <ele>1525.8706726773</ele>
        <time>2019-07-06T10:01:19Z</time>
      </trkpt>
      <trkpt lat="45.58937" lon="6.68145">
        <ele>1526.187224221</ele>
        <time>2019-07-06T10:01:21Z</time>
      </trkpt>
      <trkpt lat="45.58938" lon="6.68142">
        <ele>1526.4990945704</ele>
        <time>2019-07-06T10:01:23Z</time>
      </trkpt>
      <trkpt lat="45.5894" lon="6.68139">
        <ele>1526.8870313891</ele>
        <time>2019-07-06T10:01:25Z</time>
      </trkpt>
      <trkpt lat="45.58941" lon="6.68137">
        <ele>1527.3861744292</ele>
        <time>2019-07-06T10:01:27Z</time>
      </trkpt>
      <trkpt lat="45.58942" lon="6.68135">
        <ele>1527.662418301</ele>
        <time>2019-07-06T10:01:29Z</time>
      </trkpt>
      <trkpt lat="45.58942" lon="6.68131">
        <ele>1527.8222632592</ele>
        <time>2019-07-06T10:01:31Z</time>
      </trkpt>
      <trkpt lat="45.58943" lon="6.68128">
        <ele>1528.0032904198</ele>
        <time>2019-07-06T10:01:33Z</time>
      </trkpt>
      <trkpt lat="45.58944" lon="6.68124">
        <ele>1528.238527205</ele>
        <time>2019-07-06T10:01:35Z</time>
      </trkpt>
      <trkpt lat="45.58945" lon="6.68121">
        <ele>1528.4017743483</ele>
        <time>2019-07-06T10:01:37Z</time>
      </trkpt>
      <trkpt lat="45.58945" lon="6.68119">
        <ele>1528.6147727865</ele>
        <time>2019-07-06T10:01:39Z</time>
      </trkpt>
      <trkpt lat="45.58946" lon="6.68116">
        <ele>1528.744607849</ele>
        <time>2019-07-06T10:01:41Z</time>
      </trkpt>
      <trkpt lat="45.58947" lon="6.68114">
        <ele>1529.0452287094</ele>
        <time>2019-07-06T10:01:43Z</time>
      </trkpt>
      <trkpt lat="45.58948" lon="6.6811">
        <ele>1529.3486670469</ele>
        <time>2019-07-06T10:01:45Z</time>
      </trkpt>
      <trkpt lat="45.58949" lon="6.68107">
        <ele>1529.5016757955</ele>
        <time>2019-07-06T10:01:47Z</time>
      </trkpt>
      <trkpt lat="45.5895" lon="6.68103">
        <ele>1529.8664138908</ele>
        <time>2019-07-06T10:01:49Z</time>
      </trkpt>
      <trkpt lat="45.58952" lon="6.68101">
        <ele>1530.24492817</ele>
        <time>2019-07-06T10:01:52Z</time>
      </trkpt>
      <trkpt lat="45.58953" lon="6.68098">
        <ele>1530.8103654001</ele>
        <time>2019-07-06T10:01:55Z</time>
      </trkpt>
      <trkpt lat="45.58954" lon="6.68094">
        <ele>1531.1289868709</ele>
        <time>2019-07-06T10:01:57Z</time>
      </trkpt>
      <trkpt lat="45.58956" lon="6.68092">
        <ele>1531.4648610738</ele>
        <time>2019-07-06T10:01:59Z</time>
      </trkpt>
      <trkpt lat="45.58957" lon="6.68088">
        <ele>1531.8103340737</ele>
        <time>2019-07-06T10:02:01Z</time>
      </trkpt>
      <trkpt lat="45.58959" lon="6.68085">
        <ele>1532.3258775834</ele>
        <time>2019-07-06T10:02:04Z</time>
      </trkpt>
      <trkpt lat="45.58961" lon="6.68082">
        <ele>1532.8298493036</ele>
        <time>2019-07-06T10:02:07Z</time>
      </trkpt>
      <trkpt lat="45.58962" lon="6.68079">
        <ele>1533.2807490927</ele>
        <time>2019-07-06T10:02:09Z</time>
      </trkpt>
      <trkpt lat="45.58964" lon="6.68077">
        <ele>1533.7368071629</ele>
        <time>2019-07-06T10:02:11Z</time>
      </trkpt>
      <trkpt lat="45.58965" lon="6.68074">
        <ele>1534.3554748328</ele>
        <time>2019-07-06T10:02:14Z</time>
      </trkpt>
      <trkpt lat="45.58967" lon="6.68071">
        <ele>1534.738916725</ele>
        <time>2019-07-06T10:02:16Z</time>
      </trkpt>
      <trkpt lat="45.58968" lon="6.68069">
        <ele>1535.2401241907</ele>
        <time>2019-07-06T10:02:18Z</time>
      </trkpt>
      <trkpt lat="45.58969" lon="6.68066">
        <ele>1535.433661656</ele>
        <time>2019-07-06T10:02:20Z</time>
      </trkpt>
      <trkpt lat="45.5897" lon="6.68061">
        <ele>1535.7343043061</ele>
        <time>2019-07-06T10:02:22Z</time>
      </trkpt>
      <trkpt lat="45.58972" lon="6.68058">
        <ele>1536.1653110751</ele>
        <time>2019-07-06T10:02:25Z</time>
      </trkpt>
      <trkpt lat="45.58973" lon="6.68055">
        <ele>1536.4831100581</ele>
        <time>2019-07-06T10:02:27Z</time>
      </trkpt>
      <trkpt lat="45.58974" lon="6.68052">
        <ele>1536.8949904405</ele>
        <time>2019-07-06T10:02:29Z</time>
      </trkpt>
      <trkpt lat="45.58975" lon="6.68048">
        <ele>1537.1202640295</ele>
        <time>2019-07-06T10:02:31Z</time>
      </trkpt>
      <trkpt lat="45.58976" lon="6.68044">
        <ele>1537.2918819997</ele>
        <time>2019-07-06T10:02:33Z</time>
      </trkpt>
      <trkpt lat="45.58977" lon="6.68042">
        <ele>1537.6690669294</ele>
        <time>2019-07-06T10:02:35Z</time>
      </trkpt>
      <trkpt lat="45.58978" lon="6.68039">
        <ele>1537.9967267182</ele>
        <time>2019-07-06T10:02:37Z</time>
      </trkpt>
      <trkpt lat="45.58979" lon="6.68036">
        <ele>1538.3750216266</ele>
        <time>2019-07-06T10:02:39Z</time>
      </trkpt>
      <trkpt lat="45.5898" lon="6.68033">
        <ele>1538.6061336773</ele>
        <time>2019-07-06T10:02:41Z</time>
      </trkpt>
      <trkpt lat="45.58981" lon="6.6803">
        <ele>1538.8203051493</ele>
        <time>2019-07-06T10:02:43Z</time>
      </trkpt>
      <trkpt lat="45.58982" lon="6.68026">
        <ele>1539.0204994929</ele>
        <time>2019-07-06T10:02:46Z</time>
      </trkpt>
      <trkpt lat="45.58983" lon="6.68023">
        <ele>1539.3125384071</ele>
        <time>2019-07-06T10:02:48Z</time>
      </trkpt>
      <trkpt lat="45.58984" lon="6.6802">
        <ele>1539.6440818431</ele>
        <time>2019-07-06T10:02:50Z</time>
      </trkpt>
      <trkpt lat="45.58985" lon="6.68017">
        <ele>1539.974031799</ele>
        <time>2019-07-06T10:02:52Z</time>
      </trkpt>
      <trkpt lat="45.58986" lon="6.68014">
        <ele>1540.2699341034</ele>
        <time>2019-07-06T10:02:55Z</time>
      </trkpt>
      <trkpt lat="45.58986" lon="6.68011">
        <ele>1540.4203367083</ele>
        <time>2019-07-06T10:02:57Z</time>
      </trkpt>
      <trkpt lat="45.58987" lon="6.68007">
        <ele>1540.7042772578</ele>
        <time>2019-07-06T10:02:59Z</time>
      </trkpt>
      <trkpt lat="45.58988" lon="6.68004">
        <ele>1540.9337189143</ele>
        <time>2019-07-06T10:03:02Z</time>
      </trkpt>
      <trkpt lat="45.58989" lon="6.68001">
        <ele>1541.2834796833</ele>
        <time>2019-07-06T10:03:04Z</time>
      </trkpt>
      <trkpt lat="45.5899" lon="6.67999">
        <ele>1541.3778781699</ele>
        <time>2019-07-06T10:03:06Z</time>
      </trkpt>
      <trkpt lat="45.58992" lon="6.67997">
        <ele>1541.8371827505</ele>
        <time>2019-07-06T10:03:08Z</time>
      </trkpt>
      <trkpt lat="45.58993" lon="6.67995">
        <ele>1542.2908419584</ele>
        <time>2019-07-06T10:03:10Z</time>
      </trkpt>
      <trkpt lat="45.58995" lon="6.6799">
        <ele>1542.7034986677</ele>
        <time>2019-07-06T10:03:12Z</time>
      </trkpt>
      <trkpt lat="45.58996" lon="6.67988">
        <ele>1543.2167764853</ele>
        <time>2019-07-06T10:03:15Z</time>
      </trkpt>
      <trkpt lat="45.58998" lon="6.67985">
        <ele>1543.5566728079</ele>
        <time>2019-07-06T10:03:17Z</time>
      </trkpt>
      <trkpt lat="45.58999" lon="6.67983">
        <ele>1543.8933200621</ele>
        <time>2019-07-06T10:03:19Z</time>
      </trkpt>
      <trkpt lat="45.59" lon="6.67982">
        <ele>1544.4013355694</ele>
        <time>2019-07-06T10:03:22Z</time>
      </trkpt>
      <trkpt lat="45.59003" lon="6.67978">
        <ele>1544.8831172665</ele>
        <time>2019-07-06T10:03:25Z</time>
      </trkpt>
      <trkpt lat="45.59005" lon="6.67976">
        <ele>1545.5904156025</ele>
        <time>2019-07-06T10:03:29Z</time>
      </trkpt>
      <trkpt lat="45.59006" lon="6.67974">
        <ele>1546.0297561229</ele>
        <time>2019-07-06T10:03:31Z</time>
      </trkpt>
      <trkpt lat="45.59008" lon="6.67971">
        <ele>1546.3735480552</ele>
        <time>2019-07-06T10:03:34Z</time>
      </trkpt>
      <trkpt lat="45.5901" lon="6.67969">
        <ele>1546.3740437462</ele>
        <time>2019-07-06T10:03:36Z</time>
      </trkpt>
      <trkpt lat="45.59012" lon="6.67966">
        <ele>1546.3034945039</ele>
        <time>2019-07-06T10:03:38Z</time>
      </trkpt>
      <trkpt lat="45.59014" lon="6.67964">
        <ele>1546.1797641092</ele>
        <time>2019-07-06T10:03:40Z</time>
      </trkpt>
      <trkpt lat="45.59015" lon="6.67963">
        <ele>1546.0606726597</ele>
        <time>2019-07-06T10:03:44Z</time>
      </trkpt>
      <trkpt lat="45.59017" lon="6.6796">
        <ele>1546.1077471847</ele>
        <time>2019-07-06T10:03:47Z</time>
      </trkpt>
      <trkpt lat="45.5902" lon="6.67959">
        <ele>1546.222037593</ele>
        <time>2019-07-06T10:03:49Z</time>
      </trkpt>
      <trkpt lat="45.59022" lon="6.67957">
        <ele>1546.2776836709</ele>
        <time>2019-07-06T10:03:51Z</time>
      </trkpt>
      <trkpt lat="45.59024" lon="6.67956">
        <ele>1546.654488911</ele>
        <time>2019-07-06T10:03:53Z</time>
      </trkpt>
      <trkpt lat="45.59026" lon="6.67954">
        <ele>1546.7977723442</ele>
        <time>2019-07-06T10:03:55Z</time>
      </trkpt>
      <trkpt lat="45.59029" lon="6.67953">
        <ele>1547.2233395089</ele>
        <time>2019-07-06T10:03:58Z</time>
      </trkpt>
      <trkpt lat="45.59031" lon="6.67951">
        <ele>1547.1621976933</ele>
        <time>2019-07-06T10:04:01Z</time>
      </trkpt>
      <trkpt lat="45.59033" lon="6.67949">
        <ele>1547.1411624204</ele>
        <time>2019-07-06T10:04:03Z</time>
      </trkpt>
      <trkpt lat="45.59035" lon="6.67947">
        <ele>1547.1490055309</ele>
        <time>2019-07-06T10:04:06Z</time>
      </trkpt>
      <trkpt lat="45.59037" lon="6.67946">
        <ele>1547.1599159968</ele>
        <time>2019-07-06T10:04:08Z</time>
      </trkpt>
      <trkpt lat="45.59039" lon="6.67944">
        <ele>1547.5198053749</ele>
        <time>2019-07-06T10:04:10Z</time>
      </trkpt>
      <trkpt lat="45.59041" lon="6.67943">
        <ele>1547.6958896202</ele>
        <time>2019-07-06T10:04:12Z</time>
      </trkpt>
      <trkpt lat="45.59044" lon="6.67943">
        <ele>1548.3100064197</ele>
        <time>2019-07-06T10:04:14Z</time>
      </trkpt>
      <trkpt lat="45.59046" lon="6.67942">
        <ele>1549.1750477342</ele>
        <time>2019-07-06T10:04:16Z</time>
      </trkpt>
      <trkpt lat="45.59048" lon="6.67941">
        <ele>1549.754525784</ele>
        <time>2019-07-06T10:04:18Z</time>
      </trkpt>
      <trkpt lat="45.5905" lon="6.6794">
        <ele>1550.4013068927</ele>
        <time>2019-07-06T10:04:20Z</time>
      </trkpt>
      <trkpt lat="45.59052" lon="6.6794">
        <ele>1551.1330825699</ele>
        <time>2019-07-06T10:04:23Z</time>
      </trkpt>
      <trkpt lat="45.59054" lon="6.6794">
        <ele>1551.6919674605</ele>
        <time>2019-07-06T10:04:25Z</time>
      </trkpt>
      <trkpt lat="45.59056" lon="6.67939">
        <ele>1552.2980909774</ele>
        <time>2019-07-06T10:04:27Z</time>
      </trkpt>
      <trkpt lat="45.59058" lon="6.67938">
        <ele>1553.0190875153</ele>
        <time>2019-07-06T10:04:29Z</time>
      </trkpt>
      <trkpt lat="45.59061" lon="6.67938">
        <ele>1553.7244275233</ele>
        <time>2019-07-06T10:04:32Z</time>
      </trkpt>
      <trkpt lat="45.59064" lon="6.67937">
        <ele>1554.3699146015</ele>
        <time>2019-07-06T10:04:34Z</time>
      </trkpt>
      <trkpt lat="45.59066" lon="6.67936">
        <ele>1555.1573875387</ele>
        <time>2019-07-06T10:04:36Z</time>
      </trkpt>
      <trkpt lat="45.59068" lon="6.67935">
        <ele>1555.8696397094</ele>
        <time>2019-07-06T10:04:38Z</time>
      </trkpt>
      <trkpt lat="45.5907" lon="6.67934">
        <ele>1556.5278533782</ele>
        <time>2019-07-06T10:04:42Z</time>
      </trkpt>
      <trkpt lat="45.59071" lon="6.67931">
        <ele>1556.7373335457</ele>
        <time>2019-07-06T10:04:54Z</time>
      </trkpt>
      <trkpt lat="45.5907" lon="6.67928">
        <ele>1556.7789792086</ele>
        <time>2019-07-06T10:04:56Z</time>
      </trkpt>
      <trkpt lat="45.59068" lon="6.67925">
        <ele>1556.287694251</ele>
        <time>2019-07-06T10:04:59Z</time>
      </trkpt>
      <trkpt lat="45.59067" lon="6.67921">
        <ele>1556.0478690461</ele>
        <time>2019-07-06T10:05:01Z</time>
      </trkpt>
      <trkpt lat="45.59066" lon="6.67917">
        <ele>1555.7218465265</ele>
        <time>2019-07-06T10:05:03Z</time>
      </trkpt>
      <trkpt lat="45.59066" lon="6.67914">
        <ele>1555.5364497131</ele>
        <time>2019-07-06T10:05:04Z</time>
      </trkpt>
      <trkpt lat="45.59065" lon="6.67911">
        <ele>1555.3687184171</ele>
        <time>2019-07-06T10:05:06Z</time>
      </trkpt>
      <trkpt lat="45.59064" lon="6.67908">
        <ele>1555.2646012576</ele>
        <time>2019-07-06T10:05:07Z</time>
      </trkpt>
      <trkpt lat="45.59063" lon="6.67906">
        <ele>1554.927030206</ele>
        <time>2019-07-06T10:05:09Z</time>
      </trkpt>
      <trkpt lat="45.59064" lon="6.67903">
        <ele>1554.734733597</ele>
        <time>2019-07-06T10:05:11Z</time>
      </trkpt>
      <trkpt lat="45.59064" lon="6.679">
        <ele>1554.8181095139</ele>
        <time>2019-07-06T10:05:12Z</time>
      </trkpt>
      <trkpt lat="45.59064" lon="6.67896">
        <ele>1554.9973052788</ele>
        <time>2019-07-06T10:05:14Z</time>
      </trkpt>
      <trkpt lat="45.59063" lon="6.67893">
        <ele>1554.7221428907</ele>
        <time>2019-07-06T10:05:16Z</time>
      </trkpt>
      <trkpt lat="45.59063" lon="6.6789">
        <ele>1554.4821616754</ele>
        <time>2019-07-06T10:05:20Z</time>
      </trkpt>
      <trkpt lat="45.59063" lon="6.67888">
        <ele>1554.5602717553</ele>
        <time>2019-07-06T10:05:21Z</time>
      </trkpt>
      <trkpt lat="45.59063" lon="6.67884">
        <ele>1553.7835061981</ele>
        <time>2019-07-06T10:05:23Z</time>
      </trkpt>
      <trkpt lat="45.59064" lon="6.67881">
        <ele>1553.3028940005</ele>
        <time>2019-07-06T10:05:24Z</time>
      </trkpt>
      <trkpt lat="45.59064" lon="6.67877">
        <ele>1552.0251938951</ele>
        <time>2019-07-06T10:05:26Z</time>
      </trkpt>
      <trkpt lat="45.59064" lon="6.67874">
        <ele>1551.0960582515</ele>
        <time>2019-07-06T10:05:28Z</time>
      </trkpt>
      <trkpt lat="45.59065" lon="6.6787">
        <ele>1550.198214649</ele>
        <time>2019-07-06T10:05:30Z</time>
      </trkpt>
      <trkpt lat="45.59065" lon="6.67867">
        <ele>1549.3136148751</ele>
        <time>2019-07-06T10:05:32Z</time>
      </trkpt>
      <trkpt lat="45.59066" lon="6.67864">
        <ele>1548.8325215629</ele>
        <time>2019-07-06T10:05:34Z</time>
      </trkpt>
      <trkpt lat="45.59066" lon="6.6786">
        <ele>1547.7602789891</ele>
        <time>2019-07-06T10:05:36Z</time>
      </trkpt>
      <trkpt lat="45.59066" lon="6.67857">
        <ele>1547.5321630765</ele>
        <time>2019-07-06T10:05:37Z</time>
      </trkpt>
      <trkpt lat="45.59066" lon="6.67854">
        <ele>1547.568238204</ele>
        <time>2019-07-06T10:05:38Z</time>
      </trkpt>
      <trkpt lat="45.59067" lon="6.67851">
        <ele>1547.573493666</ele>
        <time>2019-07-06T10:05:39Z</time>
      </trkpt>
      <trkpt lat="45.59067" lon="6.67848">
        <ele>1547.7349335832</ele>
        <time>2019-07-06T10:05:41Z</time>
      </trkpt>
      <trkpt lat="45.59067" lon="6.67844">
        <ele>1547.8520692226</ele>
        <time>2019-07-06T10:05:43Z</time>
      </trkpt>
      <trkpt lat="45.59068" lon="6.67839">
        <ele>1547.8519881376</ele>
        <time>2019-07-06T10:05:45Z</time>
      </trkpt>
      <trkpt lat="45.59069" lon="6.67837">
        <ele>1548.2357177955</ele>
        <time>2019-07-06T10:05:47Z</time>
      </trkpt>
      <trkpt lat="45.5907" lon="6.67834">
        <ele>1548.5205853655</ele>
        <time>2019-07-06T10:05:49Z</time>
      </trkpt>
      <trkpt lat="45.59072" lon="6.67831">
        <ele>1548.8667897541</ele>
        <time>2019-07-06T10:05:51Z</time>
      </trkpt>
      <trkpt lat="45.59073" lon="6.67828">
        <ele>1549.2629910558</ele>
        <time>2019-07-06T10:05:53Z</time>
      </trkpt>
      <trkpt lat="45.59074" lon="6.67825">
        <ele>1549.564748479</ele>
        <time>2019-07-06T10:05:55Z</time>
      </trkpt>
      <trkpt lat="45.59074" lon="6.67822">
        <ele>1549.7851745005</ele>
        <time>2019-07-06T10:05:57Z</time>
      </trkpt>
      <trkpt lat="45.59075" lon="6.67818">
        <ele>1549.9397371591</ele>
        <time>2019-07-06T10:05:59Z</time>
      </trkpt>
      <trkpt lat="45.59076" lon="6.67814">
        <ele>1550.1803123267</ele>
        <time>2019-07-06T10:06:01Z</time>
      </trkpt>
      <trkpt lat="45.59077" lon="6.6781">
        <ele>1550.5318196409</ele>
        <time>2019-07-06T10:06:03Z</time>
      </trkpt>
      <trkpt lat="45.59078" lon="6.67808">
        <ele>1550.8956643039</ele>
        <time>2019-07-06T10:06:05Z</time>
      </trkpt>
      <trkpt lat="45.59079" lon="6.67804">
        <ele>1551.1395957193</ele>
        <time>2019-07-06T10:06:07Z</time>
      </trkpt>
      <trkpt lat="45.5908" lon="6.678">
        <ele>1551.4169824798</ele>
        <time>2019-07-06T10:06:10Z</time>
      </trkpt>
      <trkpt lat="45.5908" lon="6.67796">
        <ele>1551.5205193502</ele>
        <time>2019-07-06T10:06:12Z</time>
      </trkpt>
      <trkpt lat="45.59081" lon="6.67794">
        <ele>1551.6424400423</ele>
        <time>2019-07-06T10:06:13Z</time>
      </trkpt>
      <trkpt lat="45.59082" lon="6.6779">
        <ele>1551.9098112518</ele>
        <time>2019-07-06T10:06:16Z</time>
      </trkpt>
      <trkpt lat="45.59082" lon="6.67787">
        <ele>1552.1567769837</ele>
        <time>2019-07-06T10:06:18Z</time>
      </trkpt>
      <trkpt lat="45.59082" lon="6.67783">
        <ele>1552.0922849711</ele>
        <time>2019-07-06T10:06:20Z</time>
      </trkpt>
      <trkpt lat="45.59082" lon="6.6778">
        <ele>1552.1721368771</ele>
        <time>2019-07-06T10:06:22Z</time>
      </trkpt>
      <trkpt lat="45.59083" lon="6.67776">
        <ele>1552.1040511188</ele>
        <time>2019-07-06T10:06:24Z</time>
      </trkpt>
      <trkpt lat="45.59083" lon="6.67773">
        <ele>1552.3046617652</ele>
        <time>2019-07-06T10:06:26Z</time>
      </trkpt>
      <trkpt lat="45.59084" lon="6.6777">
        <ele>1552.5889505865</ele>
        <time>2019-07-06T10:06:28Z</time>
      </trkpt>
      <trkpt lat="45.59085" lon="6.67766">
        <ele>1552.8184414239</ele>
        <time>2019-07-06T10:06:30Z</time>
      </trkpt>
      <trkpt lat="45.59086" lon="6.67763">
        <ele>1553.1676626018</ele>
        <time>2019-07-06T10:06:32Z</time>
      </trkpt>
      <trkpt lat="45.59087" lon="6.67759">
        <ele>1553.3075171183</ele>
        <time>2019-07-06T10:06:34Z</time>
      </trkpt>
      <trkpt lat="45.59087" lon="6.67756">
        <ele>1553.3966891355</ele>
        <time>2019-07-06T10:06:35Z</time>
      </trkpt>
      <trkpt lat="45.59087" lon="6.67754">
        <ele>1553.4582985945</ele>
        <time>2019-07-06T10:06:37Z</time>
      </trkpt>
      <trkpt lat="45.59086" lon="6.6775">
        <ele>1553.3970506755</ele>
        <time>2019-07-06T10:06:39Z</time>
      </trkpt>
      <trkpt lat="45.59086" lon="6.67747">
        <ele>1553.7155580693</ele>
        <time>2019-07-06T10:06:41Z</time>
      </trkpt>
      <trkpt lat="45.59085" lon="6.67743">
        <ele>1554.4444999705</ele>
        <time>2019-07-06T10:06:44Z</time>
      </trkpt>
      <trkpt lat="45.59084" lon="6.6774">
        <ele>1554.8523674012</ele>
        <time>2019-07-06T10:06:45Z</time>
      </trkpt>
      <trkpt lat="45.59083" lon="6.67737">
        <ele>1555.8018956909</ele>
        <time>2019-07-06T10:06:48Z</time>
      </trkpt>
      <trkpt lat="45.59081" lon="6.67732">
        <ele>1556.6612227304</ele>
        <time>2019-07-06T10:06:50Z</time>
      </trkpt>
      <trkpt lat="45.5908" lon="6.67728">
        <ele>1557.5345828465</ele>
        <time>2019-07-06T10:06:52Z</time>
      </trkpt>
      <trkpt lat="45.59079" lon="6.67724">
        <ele>1558.3982016857</ele>
        <time>2019-07-06T10:06:55Z</time>
      </trkpt>
      <trkpt lat="45.59077" lon="6.6772">
        <ele>1558.975945556</ele>
        <time>2019-07-06T10:06:57Z</time>
      </trkpt>
      <trkpt lat="45.59076" lon="6.67718">
        <ele>1559.1113957488</ele>
        <time>2019-07-06T10:06:58Z</time>
      </trkpt>
      <trkpt lat="45.59075" lon="6.67716">
        <ele>1559.2373309048</ele>
        <time>2019-07-06T10:06:59Z</time>
      </trkpt>
      <trkpt lat="45.59075" lon="6.67712">
        <ele>1559.524029231</ele>
        <time>2019-07-06T10:07:01Z</time>
      </trkpt>
      <trkpt lat="45.59073" lon="6.67708">
        <ele>1560.1530619857</ele>
        <time>2019-07-06T10:07:03Z</time>
      </trkpt>
      <trkpt lat="45.59074" lon="6.67704">
        <ele>1560.5281303894</ele>
        <time>2019-07-06T10:07:05Z</time>
      </trkpt>
      <trkpt lat="45.59073" lon="6.67701">
        <ele>1561.3559985051</ele>
        <time>2019-07-06T10:07:07Z</time>
      </trkpt>
      <trkpt lat="45.59072" lon="6.67698">
        <ele>1561.5337962293</ele>
        <time>2019-07-06T10:07:09Z</time>
      </trkpt>
      <trkpt lat="45.59072" lon="6.67695">
        <ele>1561.7146733276</ele>
        <time>2019-07-06T10:07:11Z</time>
      </trkpt>
      <trkpt lat="45.59072" lon="6.6769">
        <ele>1561.8267125867</ele>
        <time>2019-07-06T10:07:14Z</time>
      </trkpt>
      <trkpt lat="45.59072" lon="6.67687">
        <ele>1561.7598513582</ele>
        <time>2019-07-06T10:07:15Z</time>
      </trkpt>
      <trkpt lat="45.59072" lon="6.67682">
        <ele>1561.9008779707</ele>
        <time>2019-07-06T10:07:17Z</time>
      </trkpt>
      <trkpt lat="45.5907" lon="6.67685">
        <ele>1561.1622676851</ele>
        <time>2019-07-06T10:07:23Z</time>
      </trkpt>
      <trkpt lat="45.59071" lon="6.67681">
        <ele>1561.0199477095</ele>
        <time>2019-07-06T10:07:39Z</time>
      </trkpt>
      <trkpt lat="45.5907" lon="6.67677">
        <ele>1561.2425389928</ele>
        <time>2019-07-06T10:07:41Z</time>
      </trkpt>
      <trkpt lat="45.59069" lon="6.67673">
        <ele>1560.6816380925</ele>
        <time>2019-07-06T10:07:45Z</time>
      </trkpt>
      <trkpt lat="45.59068" lon="6.6767">
        <ele>1559.946691297</ele>
        <time>2019-07-06T10:07:47Z</time>
      </trkpt>
      <trkpt lat="45.59068" lon="6.67667">
        <ele>1559.8597398542</ele>
        <time>2019-07-06T10:07:48Z</time>
      </trkpt>
      <trkpt lat="45.59068" lon="6.67664">
        <ele>1559.5517975099</ele>
        <time>2019-07-06T10:07:50Z</time>
      </trkpt>
      <trkpt lat="45.59067" lon="6.6766">
        <ele>1559.3071397173</ele>
        <time>2019-07-06T10:07:52Z</time>
      </trkpt>
      <trkpt lat="45.59066" lon="6.67656">
        <ele>1558.828831323</ele>
        <time>2019-07-06T10:07:54Z</time>
      </trkpt>
      <trkpt lat="45.59065" lon="6.67651">
        <ele>1558.0900956024</ele>
        <time>2019-07-06T10:07:56Z</time>
      </trkpt>
      <trkpt lat="45.59065" lon="6.67647">
        <ele>1551.5629130135</ele>
        <time>2019-07-06T10:07:58Z</time>
      </trkpt>
      <trkpt lat="45.59065" lon="6.67643">
        <ele>1557.2918872202</ele>
        <time>2019-07-06T10:08:00Z</time>
      </trkpt>
      <trkpt lat="45.59065" lon="6.67639">
        <ele>1558.1321846574</ele>
        <time>2019-07-06T10:08:02Z</time>
      </trkpt>
      <trkpt lat="45.59064" lon="6.67636">
        <ele>1557.8978448543</ele>
        <time>2019-07-06T10:08:03Z</time>
      </trkpt>
      <trkpt lat="45.59064" lon="6.67633">
        <ele>1557.0523885209</ele>
        <time>2019-07-06T10:08:05Z</time>
      </trkpt>
      <trkpt lat="45.59064" lon="6.67629">
        <ele>1556.7009517798</ele>
        <time>2019-07-06T10:08:07Z</time>
      </trkpt>
      <trkpt lat="45.59065" lon="6.67624">
        <ele>1556.4112794315</ele>
        <time>2019-07-06T10:08:10Z</time>
      </trkpt>
      <trkpt lat="45.59065" lon="6.6762">
        <ele>1556.3498761117</ele>
        <time>2019-07-06T10:08:13Z</time>
      </trkpt>
      <trkpt lat="45.59064" lon="6.67617">
        <ele>1555.7598800249</ele>
        <time>2019-07-06T10:08:15Z</time>
      </trkpt>
      <trkpt lat="45.59064" lon="6.67612">
        <ele>1555.3061883159</ele>
        <time>2019-07-06T10:08:17Z</time>
      </trkpt>
      <trkpt lat="45.59063" lon="6.67609">
        <ele>1554.6675420167</ele>
        <time>2019-07-06T10:08:20Z</time>
      </trkpt>
      <trkpt lat="45.59063" lon="6.67607">
        <ele>1554.5857898382</ele>
        <time>2019-07-06T10:08:22Z</time>
      </trkpt>
      <trkpt lat="45.59064" lon="6.67603">
        <ele>1554.6432328145</ele>
        <time>2019-07-06T10:08:24Z</time>
      </trkpt>
      <trkpt lat="45.59065" lon="6.676">
        <ele>1554.9925902032</ele>
        <time>2019-07-06T10:08:26Z</time>
      </trkpt>
      <trkpt lat="45.59066" lon="6.67597">
        <ele>1555.3583689333</ele>
        <time>2019-07-06T10:08:28Z</time>
      </trkpt>
      <trkpt lat="45.59068" lon="6.67594">
        <ele>1555.7170059687</ele>
        <time>2019-07-06T10:08:30Z</time>
      </trkpt>
      <trkpt lat="45.5907" lon="6.67592">
        <ele>1556.2357192922</ele>
        <time>2019-07-06T10:08:32Z</time>
      </trkpt>
      <trkpt lat="45.59072" lon="6.6759">
        <ele>1556.6931476363</ele>
        <time>2019-07-06T10:08:34Z</time>
      </trkpt>
      <trkpt lat="45.59073" lon="6.67588">
        <ele>1557.3651083944</ele>
        <time>2019-07-06T10:08:36Z</time>
      </trkpt>
      <trkpt lat="45.59075" lon="6.67586">
        <ele>1557.8627850332</ele>
        <time>2019-07-06T10:08:38Z</time>
      </trkpt>
      <trkpt lat="45.59076" lon="6.67584">
        <ele>1558.0515201262</ele>
        <time>2019-07-06T10:08:39Z</time>
      </trkpt>
      <trkpt lat="45.59078" lon="6.67581">
        <ele>1558.3471039845</ele>
        <time>2019-07-06T10:08:41Z</time>
      </trkpt>
      <trkpt lat="45.5908" lon="6.67579">
        <ele>1558.1910107508</ele>
        <time>2019-07-06T10:08:43Z</time>
      </trkpt>
      <trkpt lat="45.59081" lon="6.67576">
        <ele>1558.0467044572</ele>
        <time>2019-07-06T10:08:45Z</time>
      </trkpt>
      <trkpt lat="45.59084" lon="6.67576">
        <ele>1557.9082289235</ele>
        <time>2019-07-06T10:08:47Z</time>
      </trkpt>
      <trkpt lat="45.59085" lon="6.67573">
        <ele>1558.2092139293</ele>
        <time>2019-07-06T10:08:48Z</time>
      </trkpt>
      <trkpt lat="45.59086" lon="6.6757">
        <ele>1557.2934660788</ele>
        <time>2019-07-06T10:08:50Z</time>
      </trkpt>
      <trkpt lat="45.59089" lon="6.67567">
        <ele>1556.4615534733</ele>
        <time>2019-07-06T10:08:52Z</time>
      </trkpt>
      <trkpt lat="45.5909" lon="6.67565">
        <ele>1555.9749467749</ele>
        <time>2019-07-06T10:08:53Z</time>
      </trkpt>
      <trkpt lat="45.59092" lon="6.67563">
        <ele>1555.057641962</ele>
        <time>2019-07-06T10:08:55Z</time>
      </trkpt>
      <trkpt lat="45.59094" lon="6.6756">
        <ele>1554.3954745291</ele>
        <time>2019-07-06T10:08:57Z</time>
      </trkpt>
      <trkpt lat="45.59095" lon="6.67558">
        <ele>1553.417342845</ele>
        <time>2019-07-06T10:08:59Z</time>
      </trkpt>
      <trkpt lat="45.59096" lon="6.67556">
        <ele>1553.2640803996</ele>
        <time>2019-07-06T10:09:00Z</time>
      </trkpt>
      <trkpt lat="45.59098" lon="6.67552">
        <ele>1552.2774473607</ele>
        <time>2019-07-06T10:09:02Z</time>
      </trkpt>
      <trkpt lat="45.591" lon="6.67549">
        <ele>1551.964523169</ele>
        <time>2019-07-06T10:09:04Z</time>
      </trkpt>
      <trkpt lat="45.59102" lon="6.67546">
        <ele>1551.666180304</ele>
        <time>2019-07-06T10:09:06Z</time>
      </trkpt>
      <trkpt lat="45.59103" lon="6.67543">
        <ele>1551.4422178715</ele>
        <time>2019-07-06T10:09:08Z</time>
      </trkpt>
      <trkpt lat="45.59104" lon="6.6754">
        <ele>1551.3546803956</ele>
        <time>2019-07-06T10:09:10Z</time>
      </trkpt>
      <trkpt lat="45.59105" lon="6.67537">
        <ele>1551.4083741126</ele>
        <time>2019-07-06T10:09:12Z</time>
      </trkpt>
      <trkpt lat="45.59108" lon="6.67535">
        <ele>1551.5981505517</ele>
        <time>2019-07-06T10:09:14Z</time>
      </trkpt>
      <trkpt lat="45.59109" lon="6.67533">
        <ele>1551.7393022836</ele>
        <time>2019-07-06T10:09:15Z</time>
      </trkpt>
      <trkpt lat="45.59111" lon="6.67529">
        <ele>1552.0865281928</ele>
        <time>2019-07-06T10:09:17Z</time>
      </trkpt>
      <trkpt lat="45.59112" lon="6.67525">
        <ele>1552.5719596804</ele>
        <time>2019-07-06T10:09:19Z</time>
      </trkpt>
      <trkpt lat="45.59114" lon="6.67522">
        <ele>1552.9905261535</ele>
        <time>2019-07-06T10:09:21Z</time>
      </trkpt>
      <trkpt lat="45.59113" lon="6.67518">
        <ele>1553.1980577655</ele>
        <time>2019-07-06T10:09:23Z</time>
      </trkpt>
      <trkpt lat="45.59114" lon="6.67514">
        <ele>1553.1267334234</ele>
        <time>2019-07-06T10:09:25Z</time>
      </trkpt>
      <trkpt lat="45.59114" lon="6.67511">
        <ele>1553.1838231684</ele>
        <time>2019-07-06T10:09:26Z</time>
      </trkpt>
      <trkpt lat="45.59114" lon="6.67505">
        <ele>1553.360248304</ele>
        <time>2019-07-06T10:09:28Z</time>
      </trkpt>
      <trkpt lat="45.59115" lon="6.67502">
        <ele>1553.4315999577</ele>
        <time>2019-07-06T10:09:30Z</time>
      </trkpt>
      <trkpt lat="45.59115" lon="6.67498">
        <ele>1553.610094236</ele>
        <time>2019-07-06T10:09:32Z</time>
      </trkpt>
      <trkpt lat="45.59115" lon="6.67493">
        <ele>1552.3783122842</ele>
        <time>2019-07-06T10:09:34Z</time>
      </trkpt>
      <trkpt lat="45.59115" lon="6.67491">
        <ele>1551.2799080389</ele>
        <time>2019-07-06T10:09:36Z</time>
      </trkpt>
      <trkpt lat="45.59117" lon="6.67487">
        <ele>1550.6648187719</ele>
        <time>2019-07-06T10:09:38Z</time>
      </trkpt>
      <trkpt lat="45.59118" lon="6.67484">
        <ele>1550.3474361897</ele>
        <time>2019-07-06T10:09:40Z</time>
      </trkpt>
      <trkpt lat="45.5912" lon="6.67483">
        <ele>1549.9696505475</ele>
        <time>2019-07-06T10:09:42Z</time>
      </trkpt>
      <trkpt lat="45.59122" lon="6.67483">
        <ele>1550.331025279</ele>
        <time>2019-07-06T10:09:44Z</time>
      </trkpt>
      <trkpt lat="45.59123" lon="6.6748">
        <ele>1550.5863568461</ele>
        <time>2019-07-06T10:09:45Z</time>
      </trkpt>
      <trkpt lat="45.59125" lon="6.67479">
        <ele>1550.4469567463</ele>
        <time>2019-07-06T10:09:47Z</time>
      </trkpt>
      <trkpt lat="45.59126" lon="6.67476">
        <ele>1550.2714514171</ele>
        <time>2019-07-06T10:09:49Z</time>
      </trkpt>
      <trkpt lat="45.59128" lon="6.67474">
        <ele>1549.7580520767</ele>
        <time>2019-07-06T10:09:51Z</time>
      </trkpt>
      <trkpt lat="45.5913" lon="6.67472">
        <ele>1549.9358404466</ele>
        <time>2019-07-06T10:09:53Z</time>
      </trkpt>
      <trkpt lat="45.59132" lon="6.6747">
        <ele>1549.8112755569</ele>
        <time>2019-07-06T10:09:55Z</time>
      </trkpt>
      <trkpt lat="45.59135" lon="6.67469">
        <ele>1549.9355157478</ele>
        <time>2019-07-06T10:09:57Z</time>
      </trkpt>
      <trkpt lat="45.59137" lon="6.67467">
        <ele>1550.4865249954</ele>
        <time>2019-07-06T10:09:59Z</time>
      </trkpt>
      <trkpt lat="45.59139" lon="6.67466">
        <ele>1550.5940321582</ele>
        <time>2019-07-06T10:10:01Z</time>
      </trkpt>
      <trkpt lat="45.59141" lon="6.67464">
        <ele>1550.5194114291</ele>
        <time>2019-07-06T10:10:03Z</time>
      </trkpt>
      <trkpt lat="45.59144" lon="6.67463">
        <ele>1550.2181452022</ele>
        <time>2019-07-06T10:10:05Z</time>
      </trkpt>
      <trkpt lat="45.59147" lon="6.67461">
        <ele>1549.5349469931</ele>
        <time>2019-07-06T10:10:07Z</time>
      </trkpt>
      <trkpt lat="45.59149" lon="6.67459">
        <ele>1548.848259054</ele>
        <time>2019-07-06T10:10:09Z</time>
      </trkpt>
      <trkpt lat="45.59151" lon="6.67459">
        <ele>1548.6056805047</ele>
        <time>2019-07-06T10:10:11Z</time>
      </trkpt>
      <trkpt lat="45.59154" lon="6.67458">
        <ele>1548.5408304028</ele>
        <time>2019-07-06T10:10:13Z</time>
      </trkpt>
      <trkpt lat="45.59157" lon="6.67458">
        <ele>1548.4352624682</ele>
        <time>2019-07-06T10:10:15Z</time>
      </trkpt>
      <trkpt lat="45.5916" lon="6.67458">
        <ele>1548.4726809099</ele>
        <time>2019-07-06T10:10:17Z</time>
      </trkpt>
      <trkpt lat="45.59163" lon="6.67457">
        <ele>1548.2418917642</ele>
        <time>2019-07-06T10:10:19Z</time>
      </trkpt>
      <trkpt lat="45.59165" lon="6.67456">
        <ele>1547.9917652693</ele>
        <time>2019-07-06T10:10:21Z</time>
      </trkpt>
      <trkpt lat="45.59168" lon="6.67456">
        <ele>1547.8906617094</ele>
        <time>2019-07-06T10:10:23Z</time>
      </trkpt>
      <trkpt lat="45.5917" lon="6.67454">
        <ele>1547.5378904199</ele>
        <time>2019-07-06T10:10:25Z</time>
      </trkpt>
      <trkpt lat="45.59172" lon="6.67453">
        <ele>1547.2034654902</ele>
        <time>2019-07-06T10:10:27Z</time>
      </trkpt>
      <trkpt lat="45.59174" lon="6.67452">
        <ele>1547.0294480352</ele>
        <time>2019-07-06T10:10:28Z</time>
      </trkpt>
      <trkpt lat="45.59175" lon="6.67451">
        <ele>1546.7291483405</ele>
        <time>2019-07-06T10:10:29Z</time>
      </trkpt>
      <trkpt lat="45.59177" lon="6.6745">
        <ele>1546.4244601679</ele>
        <time>2019-07-06T10:10:30Z</time>
      </trkpt>
      <trkpt lat="45.59179" lon="6.67448">
        <ele>1546.0028780694</ele>
        <time>2019-07-06T10:10:31Z</time>
      </trkpt>
      <trkpt lat="45.59182" lon="6.67448">
        <ele>1545.5041529643</ele>
        <time>2019-07-06T10:10:33Z</time>
      </trkpt>
      <trkpt lat="45.59184" lon="6.67447">
        <ele>1545.166444766</ele>
        <time>2019-07-06T10:10:35Z</time>
      </trkpt>
      <trkpt lat="45.59188" lon="6.67446">
        <ele>1545.0443933676</ele>
        <time>2019-07-06T10:10:37Z</time>
      </trkpt>
      <trkpt lat="45.5919" lon="6.67445">
        <ele>1544.8114931662</ele>
        <time>2019-07-06T10:10:39Z</time>
      </trkpt>
      <trkpt lat="45.59193" lon="6.67444">
        <ele>1544.4432095743</ele>
        <time>2019-07-06T10:10:41Z</time>
      </trkpt>
      <trkpt lat="45.59196" lon="6.67443">
        <ele>1544.3107779591</ele>
        <time>2019-07-06T10:10:43Z</time>
      </trkpt>
      <trkpt lat="45.59198" lon="6.67444">
        <ele>1544.2114906982</ele>
        <time>2019-07-06T10:10:46Z</time>
      </trkpt>
      <trkpt lat="45.59201" lon="6.67442">
        <ele>1543.8841625291</ele>
        <time>2019-07-06T10:10:49Z</time>
      </trkpt>
      <trkpt lat="45.59202" lon="6.6744">
        <ele>1543.5354963265</ele>
        <time>2019-07-06T10:10:51Z</time>
      </trkpt>
      <trkpt lat="45.59204" lon="6.67439">
        <ele>1543.0511283881</ele>
        <time>2019-07-06T10:11:09Z</time>
      </trkpt>
      <trkpt lat="45.59206" lon="6.67437">
        <ele>1542.5182671971</ele>
        <time>2019-07-06T10:11:41Z</time>
      </trkpt>
      <trkpt lat="45.59208" lon="6.67437">
        <ele>1542.3598499208</ele>
        <time>2019-07-06T10:11:44Z</time>
      </trkpt>
      <trkpt lat="45.59207" lon="6.67438">
        <ele>1542.5833754647</ele>
        <time>2019-07-06T10:12:24Z</time>
      </trkpt>
      <trkpt lat="45.59206" lon="6.6744">
        <ele>1543.0934276449</ele>
        <time>2019-07-06T10:12:28Z</time>
      </trkpt>
      <trkpt lat="45.59206" lon="6.67437">
        <ele>1542.4432624867</ele>
        <time>2019-07-06T10:12:58Z</time>
      </trkpt>
      <trkpt lat="45.59206" lon="6.67437">
        <ele>1542.2584176484</ele>
        <time>2019-07-06T10:13:00Z</time>
      </trkpt>
      <trkpt lat="45.59204" lon="6.67438">
        <ele>1542.6160417524</ele>
        <time>2019-07-06T10:13:49Z</time>
      </trkpt>
      <trkpt lat="45.59205" lon="6.67436">
        <ele>1542.2345745695</ele>
        <time>2019-07-06T10:14:04Z</time>
      </trkpt>
      <trkpt lat="45.59208" lon="6.67436">
        <ele>1542.1217119535</ele>
        <time>2019-07-06T10:14:13Z</time>
      </trkpt>
      <trkpt lat="45.59207" lon="6.67437">
        <ele>1542.4356160853</ele>
        <time>2019-07-06T10:14:16Z</time>
      </trkpt>
      <trkpt lat="45.59206" lon="6.67439">
        <ele>1542.683688515</ele>
        <time>2019-07-06T10:14:27Z</time>
      </trkpt>
      <trkpt lat="45.59203" lon="6.67443">
        <ele>1543.2865384614</ele>
        <time>2019-07-06T10:14:29Z</time>
      </trkpt>
      <trkpt lat="45.59201" lon="6.67443">
        <ele>1544.0162468542</ele>
        <time>2019-07-06T10:14:32Z</time>
      </trkpt>
      <trkpt lat="45.59203" lon="6.67443">
        <ele>1544.1372572145</ele>
        <time>2019-07-06T10:14:52Z</time>
      </trkpt>
      <trkpt lat="45.59204" lon="6.67442">
        <ele>1543.8357106589</ele>
        <time>2019-07-06T10:15:00Z</time>
      </trkpt>
      <trkpt lat="45.59203" lon="6.6744">
        <ele>1543.2666184259</ele>
        <time>2019-07-06T10:15:17Z</time>
      </trkpt>
      <trkpt lat="45.59201" lon="6.67438">
        <ele>1542.7235163962</ele>
        <time>2019-07-06T10:15:25Z</time>
      </trkpt>
      <trkpt lat="45.59199" lon="6.67439">
        <ele>1542.7081000452</ele>
        <time>2019-07-06T10:15:29Z</time>
      </trkpt>
      <trkpt lat="45.592" lon="6.67436">
        <ele>1542.3930900587</ele>
        <time>2019-07-06T10:15:58Z</time>
      </trkpt>
      <trkpt lat="45.59201" lon="6.67435">
        <ele>1541.6535399107</ele>
        <time>2019-07-06T10:16:12Z</time>
      </trkpt>
      <trkpt lat="45.59202" lon="6.67437">
        <ele>1542.2735913172</ele>
        <time>2019-07-06T10:16:20Z</time>
      </trkpt>
      <trkpt lat="45.59204" lon="6.67437">
        <ele>1542.5376423906</ele>
        <time>2019-07-06T10:16:33Z</time>
      </trkpt>
      <trkpt lat="45.59204" lon="6.67434">
        <ele>1541.829072079</ele>
        <time>2019-07-06T10:16:44Z</time>
      </trkpt>
      <trkpt lat="45.59205" lon="6.67437">
        <ele>1542.2012732469</ele>
        <time>2019-07-06T10:17:01Z</time>
      </trkpt>
      <trkpt lat="45.59204" lon="6.67439">
        <ele>1542.8793987165</ele>
        <time>2019-07-06T10:17:25Z</time>
      </trkpt>
      <trkpt lat="45.59202" lon="6.67438">
        <ele>1542.7001500172</ele>
        <time>2019-07-06T10:17:28Z</time>
      </trkpt>
      <trkpt lat="45.59201" lon="6.67436">
        <ele>1541.9694702488</ele>
        <time>2019-07-06T10:17:33Z</time>
      </trkpt>
      <trkpt lat="45.59203" lon="6.67436">
        <ele>1541.8671979461</ele>
        <time>2019-07-06T10:17:40Z</time>
      </trkpt>
      <trkpt lat="45.59203" lon="6.67436">
        <ele>1541.9621799245</ele>
        <time>2019-07-06T10:17:56Z</time>
      </trkpt>
      <trkpt lat="45.59205" lon="6.67437">
        <ele>1542.3461025493</ele>
        <time>2019-07-06T10:17:59Z</time>
      </trkpt>
      <trkpt lat="45.59206" lon="6.67436">
        <ele>1542.0875504018</ele>
        <time>2019-07-06T10:18:15Z</time>
      </trkpt>
      <trkpt lat="45.59208" lon="6.67434">
        <ele>1541.5410423075</ele>
        <time>2019-07-06T10:18:25Z</time>
      </trkpt>
      <trkpt lat="45.59208" lon="6.67434">
        <ele>1541.5691257722</ele>
        <time>2019-07-06T10:18:34Z</time>
      </trkpt>
      <trkpt lat="45.59209" lon="6.67437">
        <ele>1542.2095568315</ele>
        <time>2019-07-06T10:18:54Z</time>
      </trkpt>
      <trkpt lat="45.59211" lon="6.67437">
        <ele>1542.41956831</ele>
        <time>2019-07-06T10:18:57Z</time>
      </trkpt>
      <trkpt lat="45.59213" lon="6.67437">
        <ele>1542.443464845</ele>
        <time>2019-07-06T10:19:00Z</time>
      </trkpt>
      <trkpt lat="45.59216" lon="6.67436">
        <ele>1542.303794501</ele>
        <time>2019-07-06T10:19:04Z</time>
      </trkpt>
      <trkpt lat="45.59218" lon="6.67436">
        <ele>1542.0413933827</ele>
        <time>2019-07-06T10:19:07Z</time>
      </trkpt>
      <trkpt lat="45.59221" lon="6.67434">
        <ele>1541.8963435374</ele>
        <time>2019-07-06T10:19:09Z</time>
      </trkpt>
      <trkpt lat="45.59223" lon="6.67433">
        <ele>1541.238075412</ele>
        <time>2019-07-06T10:19:11Z</time>
      </trkpt>
      <trkpt lat="45.59225" lon="6.67431">
        <ele>1541.6219907776</ele>
        <time>2019-07-06T10:19:13Z</time>
      </trkpt>
      <trkpt lat="45.59227" lon="6.6743">
        <ele>1541.7183683172</ele>
        <time>2019-07-06T10:19:16Z</time>
      </trkpt>
      <trkpt lat="45.59229" lon="6.67429">
        <ele>1542.0647307184</ele>
        <time>2019-07-06T10:19:18Z</time>
      </trkpt>
      <trkpt lat="45.5923" lon="6.67427">
        <ele>1541.7934702213</ele>
        <time>2019-07-06T10:19:20Z</time>
      </trkpt>
      <trkpt lat="45.59233" lon="6.67426">
        <ele>1541.9569697745</ele>
        <time>2019-07-06T10:19:22Z</time>
      </trkpt>
      <trkpt lat="45.59235" lon="6.67425">
        <ele>1542.2824817232</ele>
        <time>2019-07-06T10:19:24Z</time>
      </trkpt>
      <trkpt lat="45.59237" lon="6.67424">
        <ele>1542.6808052021</ele>
        <time>2019-07-06T10:19:26Z</time>
      </trkpt>
      <trkpt lat="45.59238" lon="6.67422">
        <ele>1542.5231795501</ele>
        <time>2019-07-06T10:19:28Z</time>
      </trkpt>
      <trkpt lat="45.5924" lon="6.67419">
        <ele>1542.2636333229</ele>
        <time>2019-07-06T10:19:30Z</time>
      </trkpt>
      <trkpt lat="45.59243" lon="6.67419">
        <ele>1542.6209939153</ele>
        <time>2019-07-06T10:19:32Z</time>
      </trkpt>
      <trkpt lat="45.59245" lon="6.67417">
        <ele>1543.0163824571</ele>
        <time>2019-07-06T10:19:35Z</time>
      </trkpt>
      <trkpt lat="45.59248" lon="6.67417">
        <ele>1543.654780287</ele>
        <time>2019-07-06T10:19:38Z</time>
      </trkpt>
      <trkpt lat="45.5925" lon="6.67417">
        <ele>1544.2505305013</ele>
        <time>2019-07-06T10:19:41Z</time>
      </trkpt>
      <trkpt lat="45.59252" lon="6.67416">
        <ele>1544.3868101527</ele>
        <time>2019-07-06T10:19:43Z</time>
      </trkpt>
      <trkpt lat="45.59255" lon="6.67415">
        <ele>1544.2611819824</ele>
        <time>2019-07-06T10:19:45Z</time>
      </trkpt>
      <trkpt lat="45.59257" lon="6.67414">
        <ele>1544.1106957587</ele>
        <time>2019-07-06T10:19:46Z</time>
      </trkpt>
      <trkpt lat="45.59258" lon="6.67412">
        <ele>1543.8284596363</ele>
        <time>2019-07-06T10:19:47Z</time>
      </trkpt>
      <trkpt lat="45.59259" lon="6.6741">
        <ele>1543.1729166881</ele>
        <time>2019-07-06T10:19:48Z</time>
      </trkpt>
      <trkpt lat="45.59262" lon="6.67409">
        <ele>1542.3436152881</ele>
        <time>2019-07-06T10:19:51Z</time>
      </trkpt>
      <trkpt lat="45.59264" lon="6.67407">
        <ele>1542.0237309908</ele>
        <time>2019-07-06T10:19:53Z</time>
      </trkpt>
      <trkpt lat="45.59265" lon="6.67404">
        <ele>1541.3046630072</ele>
        <time>2019-07-06T10:19:55Z</time>
      </trkpt>
      <trkpt lat="45.59268" lon="6.67402">
        <ele>1540.675294593</ele>
        <time>2019-07-06T10:19:57Z</time>
      </trkpt>
      <trkpt lat="45.5927" lon="6.67401">
        <ele>1539.8387968652</ele>
        <time>2019-07-06T10:20:00Z</time>
      </trkpt>
      <trkpt lat="45.59272" lon="6.674">
        <ele>1539.5944347597</ele>
        <time>2019-07-06T10:20:02Z</time>
      </trkpt>
      <trkpt lat="45.59274" lon="6.67398">
        <ele>1539.4171327402</ele>
        <time>2019-07-06T10:20:04Z</time>
      </trkpt>
      <trkpt lat="45.59275" lon="6.67395">
        <ele>1538.4635042513</ele>
        <time>2019-07-06T10:20:06Z</time>
      </trkpt>
      <trkpt lat="45.59276" lon="6.67393">
        <ele>1537.8350092262</ele>
        <time>2019-07-06T10:20:08Z</time>
      </trkpt>
      <trkpt lat="45.59278" lon="6.6739">
        <ele>1537.1987132896</ele>
        <time>2019-07-06T10:20:10Z</time>
      </trkpt>
      <trkpt lat="45.59281" lon="6.67392">
        <ele>1537.0881889533</ele>
        <time>2019-07-06T10:20:12Z</time>
      </trkpt>
      <trkpt lat="45.59282" lon="6.6739">
        <ele>1537.237646944</ele>
        <time>2019-07-06T10:20:13Z</time>
      </trkpt>
      <trkpt lat="45.59284" lon="6.67387">
        <ele>1536.6073771179</ele>
        <time>2019-07-06T10:20:15Z</time>
      </trkpt>
      <trkpt lat="45.59287" lon="6.67384">
        <ele>1535.4052345759</ele>
        <time>2019-07-06T10:20:17Z</time>
      </trkpt>
      <trkpt lat="45.59288" lon="6.67382">
        <ele>1534.791623795</ele>
        <time>2019-07-06T10:20:19Z</time>
      </trkpt>
      <trkpt lat="45.5929" lon="6.67381">
        <ele>1534.3826320665</ele>
        <time>2019-07-06T10:20:22Z</time>
      </trkpt>
      <trkpt lat="45.59293" lon="6.67379">
        <ele>1533.8476807289</ele>
        <time>2019-07-06T10:20:24Z</time>
      </trkpt>
      <trkpt lat="45.59295" lon="6.67377">
        <ele>1533.4238949363</ele>
        <time>2019-07-06T10:20:26Z</time>
      </trkpt>
      <trkpt lat="45.59298" lon="6.67376">
        <ele>1533.0011068669</ele>
        <time>2019-07-06T10:20:29Z</time>
      </trkpt>
      <trkpt lat="45.593" lon="6.67375">
        <ele>1532.6353568083</ele>
        <time>2019-07-06T10:20:32Z</time>
      </trkpt>
      <trkpt lat="45.59302" lon="6.67374">
        <ele>1532.3158525076</ele>
        <time>2019-07-06T10:20:34Z</time>
      </trkpt>
      <trkpt lat="45.59304" lon="6.67372">
        <ele>1532.006545404</ele>
        <time>2019-07-06T10:20:36Z</time>
      </trkpt>
      <trkpt lat="45.59306" lon="6.67371">
        <ele>1531.2354137605</ele>
        <time>2019-07-06T10:20:39Z</time>
      </trkpt>
      <trkpt lat="45.59309" lon="6.67371">
        <ele>1531.2968527119</ele>
        <time>2019-07-06T10:20:42Z</time>
      </trkpt>
      <trkpt lat="45.59312" lon="6.67374">
        <ele>1531.4922587264</ele>
        <time>2019-07-06T10:20:44Z</time>
      </trkpt>
      <trkpt lat="45.59313" lon="6.67376">
        <ele>1532.1801413237</ele>
        <time>2019-07-06T10:20:45Z</time>
      </trkpt>
      <trkpt lat="45.59315" lon="6.67378">
        <ele>1532.744083392</ele>
        <time>2019-07-06T10:20:46Z</time>
      </trkpt>
      <trkpt lat="45.59317" lon="6.6738">
        <ele>1533.6138208769</ele>
        <time>2019-07-06T10:20:48Z</time>
      </trkpt>
      <trkpt lat="45.59319" lon="6.67378">
        <ele>1533.5635023592</ele>
        <time>2019-07-06T10:20:51Z</time>
      </trkpt>
      <trkpt lat="45.59321" lon="6.67378">
        <ele>1533.2569741354</ele>
        <time>2019-07-06T10:20:54Z</time>
      </trkpt>
      <trkpt lat="45.59324" lon="6.67377">
        <ele>1533.2943265428</ele>
        <time>2019-07-06T10:20:57Z</time>
      </trkpt>
      <trkpt lat="45.59326" lon="6.67377">
        <ele>1533.0910017753</ele>
        <time>2019-07-06T10:20:59Z</time>
      </trkpt>
      <trkpt lat="45.59328" lon="6.67375">
        <ele>1532.7152356174</ele>
        <time>2019-07-06T10:21:01Z</time>
      </trkpt>
      <trkpt lat="45.59331" lon="6.67374">
        <ele>1532.223783864</ele>
        <time>2019-07-06T10:21:03Z</time>
      </trkpt>
      <trkpt lat="45.59333" lon="6.67374">
        <ele>1531.9635251082</ele>
        <time>2019-07-06T10:21:05Z</time>
      </trkpt>
      <trkpt lat="45.59335" lon="6.67374">
        <ele>1531.998869298</ele>
        <time>2019-07-06T10:21:07Z</time>
      </trkpt>
      <trkpt lat="45.59338" lon="6.67374">
        <ele>1532.0417178571</ele>
        <time>2019-07-06T10:21:09Z</time>
      </trkpt>
      <trkpt lat="45.59339" lon="6.67375">
        <ele>1532.1620281547</ele>
        <time>2019-07-06T10:21:10Z</time>
      </trkpt>
      <trkpt lat="45.59341" lon="6.67374">
        <ele>1532.3640623363</ele>
        <time>2019-07-06T10:21:12Z</time>
      </trkpt>
      <trkpt lat="45.59344" lon="6.67374">
        <ele>1532.2741484747</ele>
        <time>2019-07-06T10:21:15Z</time>
      </trkpt>
      <trkpt lat="45.59347" lon="6.67375">
        <ele>1532.3168096595</ele>
        <time>2019-07-06T10:21:18Z</time>
      </trkpt>
      <trkpt lat="45.59349" lon="6.67375">
        <ele>1532.2464963818</ele>
        <time>2019-07-06T10:21:20Z</time>
      </trkpt>
      <trkpt lat="45.59351" lon="6.67376">
        <ele>1532.2457053584</ele>
        <time>2019-07-06T10:21:22Z</time>
      </trkpt>
      <trkpt lat="45.59353" lon="6.67375">
        <ele>1532.5814503424</ele>
        <time>2019-07-06T10:21:23Z</time>
      </trkpt>
      <trkpt lat="45.59355" lon="6.67376">
        <ele>1532.5606425165</ele>
        <time>2019-07-06T10:21:24Z</time>
      </trkpt>
      <trkpt lat="45.59357" lon="6.67377">
        <ele>1532.7311576108</ele>
        <time>2019-07-06T10:21:26Z</time>
      </trkpt>
      <trkpt lat="45.59359" lon="6.67376">
        <ele>1532.91648825</ele>
        <time>2019-07-06T10:21:28Z</time>
      </trkpt>
      <trkpt lat="45.59361" lon="6.67376">
        <ele>1532.7645592991</ele>
        <time>2019-07-06T10:21:31Z</time>
      </trkpt>
      <trkpt lat="45.59363" lon="6.67375">
        <ele>1532.1862990938</ele>
        <time>2019-07-06T10:21:34Z</time>
      </trkpt>
      <trkpt lat="45.59366" lon="6.67374">
        <ele>1531.3923003013</ele>
        <time>2019-07-06T10:21:37Z</time>
      </trkpt>
      <trkpt lat="45.59368" lon="6.67373">
        <ele>1530.4188931339</ele>
        <time>2019-07-06T10:21:39Z</time>
      </trkpt>
      <trkpt lat="45.59371" lon="6.67373">
        <ele>1529.5619923142</ele>
        <time>2019-07-06T10:21:41Z</time>
      </trkpt>
      <trkpt lat="45.59373" lon="6.67373">
        <ele>1528.7670439115</ele>
        <time>2019-07-06T10:21:43Z</time>
      </trkpt>
      <trkpt lat="45.59374" lon="6.67373">
        <ele>1528.3587746032</ele>
        <time>2019-07-06T10:21:45Z</time>
      </trkpt>
      <trkpt lat="45.59377" lon="6.67371">
        <ele>1527.4510664219</ele>
        <time>2019-07-06T10:21:47Z</time>
      </trkpt>
      <trkpt lat="45.59379" lon="6.6737">
        <ele>1526.1009967093</ele>
        <time>2019-07-06T10:21:50Z</time>
      </trkpt>
      <trkpt lat="45.59383" lon="6.67372">
        <ele>1525.7190709183</ele>
        <time>2019-07-06T10:21:52Z</time>
      </trkpt>
      <trkpt lat="45.59386" lon="6.67373">
        <ele>1525.2817287929</ele>
        <time>2019-07-06T10:21:53Z</time>
      </trkpt>
      <trkpt lat="45.59389" lon="6.67374">
        <ele>1524.6444032717</ele>
        <time>2019-07-06T10:21:54Z</time>
      </trkpt>
      <trkpt lat="45.59391" lon="6.67375">
        <ele>1524.3397776926</ele>
        <time>2019-07-06T10:21:57Z</time>
      </trkpt>
      <trkpt lat="45.59393" lon="6.67374">
        <ele>1524.3233583209</ele>
        <time>2019-07-06T10:22:00Z</time>
      </trkpt>
      <trkpt lat="45.59395" lon="6.67373">
        <ele>1524.0163104036</ele>
        <time>2019-07-06T10:22:02Z</time>
      </trkpt>
      <trkpt lat="45.59397" lon="6.67372">
        <ele>1523.5849269361</ele>
        <time>2019-07-06T10:22:04Z</time>
      </trkpt>
      <trkpt lat="45.59399" lon="6.67371">
        <ele>1523.5125404689</ele>
        <time>2019-07-06T10:22:05Z</time>
      </trkpt>
      <trkpt lat="45.59401" lon="6.67371">
        <ele>1523.2307534823</ele>
        <time>2019-07-06T10:22:06Z</time>
      </trkpt>
      <trkpt lat="45.59403" lon="6.67371">
        <ele>1523.3916494907</ele>
        <time>2019-07-06T10:22:07Z</time>
      </trkpt>
      <trkpt lat="45.59407" lon="6.6737">
        <ele>1523.2499754196</ele>
        <time>2019-07-06T10:22:08Z</time>
      </trkpt>
      <trkpt lat="45.59409" lon="6.6737">
        <ele>1523.1277025438</ele>
        <time>2019-07-06T10:22:09Z</time>
      </trkpt>
      <trkpt lat="45.59413" lon="6.6737">
        <ele>1523.1987044317</ele>
        <time>2019-07-06T10:22:11Z</time>
      </trkpt>
      <trkpt lat="45.59415" lon="6.6737">
        <ele>1523.1223343725</ele>
        <time>2019-07-06T10:22:13Z</time>
      </trkpt>
      <trkpt lat="45.59418" lon="6.6737">
        <ele>1522.9768477715</ele>
        <time>2019-07-06T10:22:15Z</time>
      </trkpt>
      <trkpt lat="45.59421" lon="6.67369">
        <ele>1522.7863951028</ele>
        <time>2019-07-06T10:22:17Z</time>
      </trkpt>
      <trkpt lat="45.59423" lon="6.67368">
        <ele>1522.6043181449</ele>
        <time>2019-07-06T10:22:18Z</time>
      </trkpt>
      <trkpt lat="45.59424" lon="6.67367">
        <ele>1522.4648213866</ele>
        <time>2019-07-06T10:22:19Z</time>
      </trkpt>
      <trkpt lat="45.59427" lon="6.67367">
        <ele>1522.067438169</ele>
        <time>2019-07-06T10:22:21Z</time>
      </trkpt>
      <trkpt lat="45.5943" lon="6.67369">
        <ele>1522.6542651181</ele>
        <time>2019-07-06T10:22:23Z</time>
      </trkpt>
      <trkpt lat="45.59433" lon="6.67368">
        <ele>1522.8352444716</ele>
        <time>2019-07-06T10:22:25Z</time>
      </trkpt>
      <trkpt lat="45.59436" lon="6.67369">
        <ele>1522.5722507983</ele>
        <time>2019-07-06T10:22:27Z</time>
      </trkpt>
      <trkpt lat="45.59438" lon="6.67369">
        <ele>1522.6504143186</ele>
        <time>2019-07-06T10:22:29Z</time>
      </trkpt>
      <trkpt lat="45.5944" lon="6.67369">
        <ele>1522.712778172</ele>
        <time>2019-07-06T10:22:30Z</time>
      </trkpt>
      <trkpt lat="45.59443" lon="6.67368">
        <ele>1522.551162854</ele>
        <time>2019-07-06T10:22:32Z</time>
      </trkpt>
      <trkpt lat="45.59446" lon="6.67368">
        <ele>1522.5340029336</ele>
        <time>2019-07-06T10:22:35Z</time>
      </trkpt>
      <trkpt lat="45.59449" lon="6.67368">
        <ele>1522.9747217814</ele>
        <time>2019-07-06T10:22:37Z</time>
      </trkpt>
      <trkpt lat="45.59452" lon="6.67366">
        <ele>1523.4163375033</ele>
        <time>2019-07-06T10:22:40Z</time>
      </trkpt>
      <trkpt lat="45.59453" lon="6.67365">
        <ele>1523.6231229318</ele>
        <time>2019-07-06T10:22:41Z</time>
      </trkpt>
      <trkpt lat="45.59456" lon="6.67364">
        <ele>1523.7948439384</ele>
        <time>2019-07-06T10:22:43Z</time>
      </trkpt>
      <trkpt lat="45.59458" lon="6.67362">
        <ele>1524.0948536704</ele>
        <time>2019-07-06T10:22:46Z</time>
      </trkpt>
      <trkpt lat="45.5946" lon="6.67361">
        <ele>1524.4428788454</ele>
        <time>2019-07-06T10:22:47Z</time>
      </trkpt>
      <trkpt lat="45.59462" lon="6.67359">
        <ele>1524.8534137848</ele>
        <time>2019-07-06T10:22:48Z</time>
      </trkpt>
      <trkpt lat="45.59464" lon="6.67357">
        <ele>1525.1319661828</ele>
        <time>2019-07-06T10:22:50Z</time>
      </trkpt>
      <trkpt lat="45.59466" lon="6.67356">
        <ele>1525.486621824</ele>
        <time>2019-07-06T10:22:52Z</time>
      </trkpt>
      <trkpt lat="45.59468" lon="6.67355">
        <ele>1525.6227905241</ele>
        <time>2019-07-06T10:22:53Z</time>
      </trkpt>
      <trkpt lat="45.59469" lon="6.67355">
        <ele>1525.6057555386</ele>
        <time>2019-07-06T10:22:54Z</time>
      </trkpt>
      <trkpt lat="45.59471" lon="6.67354">
        <ele>1526.1034520027</ele>
        <time>2019-07-06T10:22:56Z</time>
      </trkpt>
      <trkpt lat="45.59473" lon="6.67352">
        <ele>1526.1999340943</ele>
        <time>2019-07-06T10:22:58Z</time>
      </trkpt>
      <trkpt lat="45.59476" lon="6.67349">
        <ele>1525.269938326</ele>
        <time>2019-07-06T10:23:01Z</time>
      </trkpt>
      <trkpt lat="45.59477" lon="6.67346">
        <ele>1524.9612784243</ele>
        <time>2019-07-06T10:23:02Z</time>
      </trkpt>
      <trkpt lat="45.59479" lon="6.67343">
        <ele>1523.9812964721</ele>
        <time>2019-07-06T10:23:05Z</time>
      </trkpt>
      <trkpt lat="45.5948" lon="6.67341">
        <ele>1522.7287747949</ele>
        <time>2019-07-06T10:23:07Z</time>
      </trkpt>
      <trkpt lat="45.59482" lon="6.67339">
        <ele>1522.5284633407</ele>
        <time>2019-07-06T10:23:08Z</time>
      </trkpt>
      <trkpt lat="45.59484" lon="6.67338">
        <ele>1522.1157808281</ele>
        <time>2019-07-06T10:23:09Z</time>
      </trkpt>
      <trkpt lat="45.59486" lon="6.67339">
        <ele>1521.9407580662</ele>
        <time>2019-07-06T10:23:11Z</time>
      </trkpt>
      <trkpt lat="45.59489" lon="6.67338">
        <ele>1521.740375026</ele>
        <time>2019-07-06T10:23:13Z</time>
      </trkpt>
      <trkpt lat="45.59492" lon="6.67336">
        <ele>1521.2854817913</ele>
        <time>2019-07-06T10:23:15Z</time>
      </trkpt>
      <trkpt lat="45.59494" lon="6.67337">
        <ele>1521.3857753883</ele>
        <time>2019-07-06T10:23:17Z</time>
      </trkpt>
      <trkpt lat="45.59497" lon="6.67337">
        <ele>1521.5003000528</ele>
        <time>2019-07-06T10:23:19Z</time>
      </trkpt>
      <trkpt lat="45.59499" lon="6.67335">
        <ele>1521.368038317</ele>
        <time>2019-07-06T10:23:21Z</time>
      </trkpt>
      <trkpt lat="45.595" lon="6.67334">
        <ele>1521.0481025835</ele>
        <time>2019-07-06T10:23:22Z</time>
      </trkpt>
      <trkpt lat="45.59503" lon="6.67333">
        <ele>1520.4547712251</ele>
        <time>2019-07-06T10:23:24Z</time>
      </trkpt>
      <trkpt lat="45.59505" lon="6.67333">
        <ele>1520.4374121303</ele>
        <time>2019-07-06T10:23:26Z</time>
      </trkpt>
      <trkpt lat="45.59507" lon="6.67332">
        <ele>1520.4372385393</ele>
        <time>2019-07-06T10:23:28Z</time>
      </trkpt>
      <trkpt lat="45.59509" lon="6.67331">
        <ele>1520.4372368034</ele>
        <time>2019-07-06T10:23:30Z</time>
      </trkpt>
      <trkpt lat="45.59511" lon="6.6733">
        <ele>1520.4372367859</ele>
        <time>2019-07-06T10:23:33Z</time>
      </trkpt>
      <trkpt lat="45.59513" lon="6.67331">
        <ele>1520.4372367859</ele>
        <time>2019-07-06T10:23:35Z</time>
      </trkpt>
      <trkpt lat="45.59516" lon="6.6733">
        <ele>1520.4372367859</ele>
        <time>2019-07-06T10:23:37Z</time>
      </trkpt>
      <trkpt lat="45.59518" lon="6.67329">
        <ele>1520.4372367859</ele>
        <time>2019-07-06T10:23:39Z</time>
      </trkpt>
      <trkpt lat="45.59521" lon="6.67328">
        <ele>1520.4372367859</ele>
        <time>2019-07-06T10:23:41Z</time>
      </trkpt>
      <trkpt lat="45.59523" lon="6.67328">
        <ele>1520.4372367859</ele>
        <time>2019-07-06T10:23:43Z</time>
      </trkpt>
      <trkpt lat="45.59525" lon="6.67327">
        <ele>1520.4372367859</ele>
        <time>2019-07-06T10:23:44Z</time>
      </trkpt>
      <trkpt lat="45.59527" lon="6.67327">
        <ele>1520.4372367859</ele>
        <time>2019-07-06T10:23:46Z</time>
      </trkpt>
      <trkpt lat="45.59529" lon="6.67325">
        <ele>1520.5468254089</ele>
        <time>2019-07-06T10:23:49Z</time>
      </trkpt>
      <trkpt lat="45.59531" lon="6.67325">
        <ele>1520.98156073</ele>
        <time>2019-07-06T10:23:52Z</time>
      </trkpt>
      <trkpt lat="45.59534" lon="6.67325">
        <ele>1521.3477227499</ele>
        <time>2019-07-06T10:23:54Z</time>
      </trkpt>
      <trkpt lat="45.59535" lon="6.67322">
        <ele>1521.6198572705</ele>
        <time>2019-07-06T10:23:56Z</time>
      </trkpt>
      <trkpt lat="45.59538" lon="6.67319">
        <ele>1521.7825725122</ele>
        <time>2019-07-06T10:23:58Z</time>
      </trkpt>
      <trkpt lat="45.5954" lon="6.67317">
        <ele>1521.8911735416</ele>
        <time>2019-07-06T10:24:00Z</time>
      </trkpt>
      <trkpt lat="45.59542" lon="6.67315">
        <ele>1521.8759558409</ele>
        <time>2019-07-06T10:24:02Z</time>
      </trkpt>
      <trkpt lat="45.59544" lon="6.67314">
        <ele>1521.8971061542</ele>
        <time>2019-07-06T10:24:04Z</time>
      </trkpt>
      <trkpt lat="45.59545" lon="6.67312">
        <ele>1521.7982319639</ele>
        <time>2019-07-06T10:24:06Z</time>
      </trkpt>
      <trkpt lat="45.59547" lon="6.67308">
        <ele>1521.3772798431</ele>
        <time>2019-07-06T10:24:08Z</time>
      </trkpt>
      <trkpt lat="45.59549" lon="6.67305">
        <ele>1520.7158242282</ele>
        <time>2019-07-06T10:24:10Z</time>
      </trkpt>
      <trkpt lat="45.5955" lon="6.67303">
        <ele>1520.3675128947</ele>
        <time>2019-07-06T10:24:12Z</time>
      </trkpt>
      <trkpt lat="45.59553" lon="6.67302">
        <ele>1520.3463747521</ele>
        <time>2019-07-06T10:24:14Z</time>
      </trkpt>
      <trkpt lat="45.59556" lon="6.67299">
        <ele>1520.3838464761</ele>
        <time>2019-07-06T10:24:16Z</time>
      </trkpt>
      <trkpt lat="45.59557" lon="6.67296">
        <ele>1520.5136950703</ele>
        <time>2019-07-06T10:24:18Z</time>
      </trkpt>
      <trkpt lat="45.59558" lon="6.67294">
        <ele>1520.7122898409</ele>
        <time>2019-07-06T10:24:19Z</time>
      </trkpt>
      <trkpt lat="45.5956" lon="6.67292">
        <ele>1521.0202904034</ele>
        <time>2019-07-06T10:24:22Z</time>
      </trkpt>
      <trkpt lat="45.59562" lon="6.67288">
        <ele>1521.0881954959</ele>
        <time>2019-07-06T10:24:24Z</time>
      </trkpt>
      <trkpt lat="45.59563" lon="6.67286">
        <ele>1521.118043248</ele>
        <time>2019-07-06T10:24:26Z</time>
      </trkpt>
      <trkpt lat="45.59565" lon="6.67284">
        <ele>1521.0711993915</ele>
        <time>2019-07-06T10:24:28Z</time>
      </trkpt>
      <trkpt lat="45.59565" lon="6.67281">
        <ele>1521.0375349019</ele>
        <time>2019-07-06T10:24:29Z</time>
      </trkpt>
      <trkpt lat="45.59567" lon="6.6728">
        <ele>1520.807630367</ele>
        <time>2019-07-06T10:24:30Z</time>
      </trkpt>
      <trkpt lat="45.59568" lon="6.67277">
        <ele>1520.4833149893</ele>
        <time>2019-07-06T10:24:32Z</time>
      </trkpt>
      <trkpt lat="45.59571" lon="6.67274">
        <ele>1520.1235435152</ele>
        <time>2019-07-06T10:24:34Z</time>
      </trkpt>
      <trkpt lat="45.59573" lon="6.67272">
        <ele>1519.8170966794</ele>
        <time>2019-07-06T10:24:36Z</time>
      </trkpt>
      <trkpt lat="45.59575" lon="6.67269">
        <ele>1519.737292709</ele>
        <time>2019-07-06T10:24:38Z</time>
      </trkpt>
      <trkpt lat="45.59577" lon="6.67269">
        <ele>1519.8257695717</ele>
        <time>2019-07-06T10:24:40Z</time>
      </trkpt>
      <trkpt lat="45.59579" lon="6.67267">
        <ele>1519.8636877207</ele>
        <time>2019-07-06T10:24:41Z</time>
      </trkpt>
      <trkpt lat="45.59582" lon="6.67267">
        <ele>1520.0513452437</ele>
        <time>2019-07-06T10:24:44Z</time>
      </trkpt>
      <trkpt lat="45.59585" lon="6.67266">
        <ele>1520.4091859759</ele>
        <time>2019-07-06T10:24:46Z</time>
      </trkpt>
      <trkpt lat="45.59587" lon="6.67264">
        <ele>1520.8577368113</ele>
        <time>2019-07-06T10:24:49Z</time>
      </trkpt>
      <trkpt lat="45.59589" lon="6.67264">
        <ele>1521.1686158584</ele>
        <time>2019-07-06T10:24:51Z</time>
      </trkpt>
      <trkpt lat="45.59591" lon="6.67263">
        <ele>1521.4750022368</ele>
        <time>2019-07-06T10:24:53Z</time>
      </trkpt>
      <trkpt lat="45.59593" lon="6.67262">
        <ele>1521.5536231943</ele>
        <time>2019-07-06T10:24:54Z</time>
      </trkpt>
      <trkpt lat="45.59596" lon="6.67262">
        <ele>1521.7318454742</ele>
        <time>2019-07-06T10:24:56Z</time>
      </trkpt>
      <trkpt lat="45.59599" lon="6.67261">
        <ele>1522.0624155388</ele>
        <time>2019-07-06T10:24:58Z</time>
      </trkpt>
      <trkpt lat="45.596" lon="6.6726">
        <ele>1522.2457981437</ele>
        <time>2019-07-06T10:25:00Z</time>
      </trkpt>
      <trkpt lat="45.59602" lon="6.67257">
        <ele>1522.1321188006</ele>
        <time>2019-07-06T10:25:01Z</time>
      </trkpt>
      <trkpt lat="45.59604" lon="6.67254">
        <ele>1521.6165610943</ele>
        <time>2019-07-06T10:25:03Z</time>
      </trkpt>
      <trkpt lat="45.59606" lon="6.67255">
        <ele>1521.3657402341</ele>
        <time>2019-07-06T10:25:05Z</time>
      </trkpt>
      <trkpt lat="45.59608" lon="6.67252">
        <ele>1521.4005306094</ele>
        <time>2019-07-06T10:25:07Z</time>
      </trkpt>
      <trkpt lat="45.5961" lon="6.67251">
        <ele>1520.6535225562</ele>
        <time>2019-07-06T10:25:09Z</time>
      </trkpt>
      <trkpt lat="45.59612" lon="6.67251">
        <ele>1520.7587831885</ele>
        <time>2019-07-06T10:25:11Z</time>
      </trkpt>
      <trkpt lat="45.59615" lon="6.67252">
        <ele>1521.0996319374</ele>
        <time>2019-07-06T10:25:13Z</time>
      </trkpt>
      <trkpt lat="45.59618" lon="6.6725">
        <ele>1520.6829342237</ele>
        <time>2019-07-06T10:25:15Z</time>
      </trkpt>
      <trkpt lat="45.5962" lon="6.67249">
        <ele>1520.1261988872</ele>
        <time>2019-07-06T10:25:17Z</time>
      </trkpt>
      <trkpt lat="45.59622" lon="6.67248">
        <ele>1520.0007926667</ele>
        <time>2019-07-06T10:25:19Z</time>
      </trkpt>
      <trkpt lat="45.59624" lon="6.67247">
        <ele>1519.6699048154</ele>
        <time>2019-07-06T10:25:21Z</time>
      </trkpt>
      <trkpt lat="45.59627" lon="6.67247">
        <ele>1519.6469304095</ele>
        <time>2019-07-06T10:25:23Z</time>
      </trkpt>
      <trkpt lat="45.59628" lon="6.67246">
        <ele>1519.5490630818</ele>
        <time>2019-07-06T10:25:24Z</time>
      </trkpt>
      <trkpt lat="45.59631" lon="6.67244">
        <ele>1519.0863311231</ele>
        <time>2019-07-06T10:25:26Z</time>
      </trkpt>
      <trkpt lat="45.59633" lon="6.67242">
        <ele>1518.4058798289</ele>
        <time>2019-07-06T10:25:28Z</time>
      </trkpt>
      <trkpt lat="45.59636" lon="6.67241">
        <ele>1517.9613470444</ele>
        <time>2019-07-06T10:25:30Z</time>
      </trkpt>
      <trkpt lat="45.59639" lon="6.67239">
        <ele>1517.7639927811</ele>
        <time>2019-07-06T10:25:32Z</time>
      </trkpt>
      <trkpt lat="45.59641" lon="6.67239">
        <ele>1517.4084988112</ele>
        <time>2019-07-06T10:25:33Z</time>
      </trkpt>
      <trkpt lat="45.59643" lon="6.67238">
        <ele>1517.8879931073</ele>
        <time>2019-07-06T10:25:35Z</time>
      </trkpt>
      <trkpt lat="45.59645" lon="6.67238">
        <ele>1518.0442631016</ele>
        <time>2019-07-06T10:25:36Z</time>
      </trkpt>
      <trkpt lat="45.59646" lon="6.67236">
        <ele>1518.5770082209</ele>
        <time>2019-07-06T10:25:38Z</time>
      </trkpt>
      <trkpt lat="45.59649" lon="6.67233">
        <ele>1518.563680887</ele>
        <time>2019-07-06T10:25:40Z</time>
      </trkpt>
      <trkpt lat="45.59651" lon="6.6723">
        <ele>1518.2501296449</ele>
        <time>2019-07-06T10:25:42Z</time>
      </trkpt>
      <trkpt lat="45.59653" lon="6.67228">
        <ele>1518.1994562907</ele>
        <time>2019-07-06T10:25:44Z</time>
      </trkpt>
      <trkpt lat="45.59655" lon="6.67226">
        <ele>1518.2346331509</ele>
        <time>2019-07-06T10:25:46Z</time>
      </trkpt>
      <trkpt lat="45.59657" lon="6.67222">
        <ele>1517.9274336499</ele>
        <time>2019-07-06T10:25:48Z</time>
      </trkpt>
      <trkpt lat="45.59659" lon="6.67221">
        <ele>1517.7855240504</ele>
        <time>2019-07-06T10:25:49Z</time>
      </trkpt>
      <trkpt lat="45.59661" lon="6.67221">
        <ele>1517.5934644381</ele>
        <time>2019-07-06T10:25:50Z</time>
      </trkpt>
      <trkpt lat="45.59664" lon="6.6722">
        <ele>1518.0297866112</ele>
        <time>2019-07-06T10:25:52Z</time>
      </trkpt>
      <trkpt lat="45.59666" lon="6.67221">
        <ele>1518.8135089638</ele>
        <time>2019-07-06T10:25:54Z</time>
      </trkpt>
      <trkpt lat="45.59668" lon="6.67222">
        <ele>1519.2948198303</ele>
        <time>2019-07-06T10:25:57Z</time>
      </trkpt>
      <trkpt lat="45.5967" lon="6.67221">
        <ele>1519.0857772159</ele>
        <time>2019-07-06T10:25:59Z</time>
      </trkpt>
      <trkpt lat="45.59672" lon="6.67221">
        <ele>1518.4738796609</ele>
        <time>2019-07-06T10:26:01Z</time>
      </trkpt>
      <trkpt lat="45.59675" lon="6.6722">
        <ele>1517.8422431072</ele>
        <time>2019-07-06T10:26:03Z</time>
      </trkpt>
      <trkpt lat="45.59677" lon="6.67219">
        <ele>1516.7247475425</ele>
        <time>2019-07-06T10:26:05Z</time>
      </trkpt>
      <trkpt lat="45.5968" lon="6.67218">
        <ele>1515.6093806923</ele>
        <time>2019-07-06T10:26:07Z</time>
      </trkpt>
      <trkpt lat="45.59682" lon="6.67217">
        <ele>1514.726497075</ele>
        <time>2019-07-06T10:26:08Z</time>
      </trkpt>
      <trkpt lat="45.59684" lon="6.67217">
        <ele>1513.4718823185</ele>
        <time>2019-07-06T10:26:10Z</time>
      </trkpt>
      <trkpt lat="45.59687" lon="6.67215">
        <ele>1512.6606191299</ele>
        <time>2019-07-06T10:26:12Z</time>
      </trkpt>
      <trkpt lat="45.5969" lon="6.67216">
        <ele>1511.553034387</ele>
        <time>2019-07-06T10:26:15Z</time>
      </trkpt>
      <trkpt lat="45.59692" lon="6.67218">
        <ele>1511.4829333361</ele>
        <time>2019-07-06T10:26:17Z</time>
      </trkpt>
      <trkpt lat="45.59693" lon="6.6722">
        <ele>1511.7740222285</ele>
        <time>2019-07-06T10:26:20Z</time>
      </trkpt>
      <trkpt lat="45.59696" lon="6.67221">
        <ele>1511.7383638545</ele>
        <time>2019-07-06T10:26:23Z</time>
      </trkpt>
      <trkpt lat="45.59698" lon="6.67222">
        <ele>1512.1539528906</ele>
        <time>2019-07-06T10:26:25Z</time>
      </trkpt>
      <trkpt lat="45.597" lon="6.67224">
        <ele>1512.7359299424</ele>
        <time>2019-07-06T10:26:28Z</time>
      </trkpt>
      <trkpt lat="45.59702" lon="6.67225">
        <ele>1513.5496341178</ele>
        <time>2019-07-06T10:26:30Z</time>
      </trkpt>
      <trkpt lat="45.59704" lon="6.67228">
        <ele>1514.2282997241</ele>
        <time>2019-07-06T10:26:32Z</time>
      </trkpt>
      <trkpt lat="45.59705" lon="6.6723">
        <ele>1515.2707675325</ele>
        <time>2019-07-06T10:26:34Z</time>
      </trkpt>
      <trkpt lat="45.59707" lon="6.67231">
        <ele>1516.0118709215</ele>
        <time>2019-07-06T10:26:36Z</time>
      </trkpt>
      <trkpt lat="45.59709" lon="6.67233">
        <ele>1516.2152934612</ele>
        <time>2019-07-06T10:26:37Z</time>
      </trkpt>
      <trkpt lat="45.5971" lon="6.67234">
        <ele>1516.7501254612</ele>
        <time>2019-07-06T10:26:38Z</time>
      </trkpt>
      <trkpt lat="45.59712" lon="6.67236">
        <ele>1517.3309524112</ele>
        <time>2019-07-06T10:26:39Z</time>
      </trkpt>
      <trkpt lat="45.59713" lon="6.67239">
        <ele>1517.8716645008</ele>
        <time>2019-07-06T10:26:40Z</time>
      </trkpt>
      <trkpt lat="45.59715" lon="6.67243">
        <ele>1518.6007357097</ele>
        <time>2019-07-06T10:26:41Z</time>
      </trkpt>
      <trkpt lat="45.59716" lon="6.67246">
        <ele>1519.8061135337</ele>
        <time>2019-07-06T10:26:42Z</time>
      </trkpt>
      <trkpt lat="45.59716" lon="6.6725">
        <ele>1521.5836453355</ele>
        <time>2019-07-06T10:26:45Z</time>
      </trkpt>
      <trkpt lat="45.59718" lon="6.67251">
        <ele>1521.876066594</ele>
        <time>2019-07-06T10:26:47Z</time>
      </trkpt>
      <trkpt lat="45.5972" lon="6.67253">
        <ele>1521.7422439805</ele>
        <time>2019-07-06T10:26:49Z</time>
      </trkpt>
      <trkpt lat="45.59723" lon="6.67255">
        <ele>1521.7667675707</ele>
        <time>2019-07-06T10:26:51Z</time>
      </trkpt>
      <trkpt lat="45.59725" lon="6.67257">
        <ele>1521.4872899062</ele>
        <time>2019-07-06T10:26:53Z</time>
      </trkpt>
      <trkpt lat="45.59727" lon="6.67258">
        <ele>1521.6137932253</ele>
        <time>2019-07-06T10:26:55Z</time>
      </trkpt>
      <trkpt lat="45.5973" lon="6.6726">
        <ele>1521.8801034245</ele>
        <time>2019-07-06T10:26:57Z</time>
      </trkpt>
      <trkpt lat="45.59732" lon="6.67262">
        <ele>1521.9281620343</ele>
        <time>2019-07-06T10:26:59Z</time>
      </trkpt>
      <trkpt lat="45.59734" lon="6.67264">
        <ele>1522.183301967</ele>
        <time>2019-07-06T10:27:00Z</time>
      </trkpt>
      <trkpt lat="45.59737" lon="6.67265">
        <ele>1522.5869747944</ele>
        <time>2019-07-06T10:27:03Z</time>
      </trkpt>
      <trkpt lat="45.59739" lon="6.67266">
        <ele>1522.8540063828</ele>
        <time>2019-07-06T10:27:05Z</time>
      </trkpt>
      <trkpt lat="45.59742" lon="6.67269">
        <ele>1523.613749869</ele>
        <time>2019-07-06T10:27:08Z</time>
      </trkpt>
      <trkpt lat="45.59744" lon="6.67269">
        <ele>1523.7817314089</ele>
        <time>2019-07-06T10:27:10Z</time>
      </trkpt>
      <trkpt lat="45.59746" lon="6.67269">
        <ele>1524.1101467102</ele>
        <time>2019-07-06T10:27:13Z</time>
      </trkpt>
      <trkpt lat="45.59749" lon="6.67269">
        <ele>1523.6849400062</ele>
        <time>2019-07-06T10:27:15Z</time>
      </trkpt>
      <trkpt lat="45.59751" lon="6.67268">
        <ele>1523.2819062009</ele>
        <time>2019-07-06T10:27:17Z</time>
      </trkpt>
      <trkpt lat="45.59754" lon="6.67269">
        <ele>1522.6167186363</ele>
        <time>2019-07-06T10:27:19Z</time>
      </trkpt>
      <trkpt lat="45.59758" lon="6.67269">
        <ele>1522.1338753544</ele>
        <time>2019-07-06T10:27:21Z</time>
      </trkpt>
      <trkpt lat="45.59761" lon="6.67268">
        <ele>1521.3139272927</ele>
        <time>2019-07-06T10:27:23Z</time>
      </trkpt>
      <trkpt lat="45.59765" lon="6.67269">
        <ele>1520.7593557417</ele>
        <time>2019-07-06T10:27:25Z</time>
      </trkpt>
      <trkpt lat="45.59767" lon="6.67268">
        <ele>1520.1103517743</ele>
        <time>2019-07-06T10:27:27Z</time>
      </trkpt>
      <trkpt lat="45.59769" lon="6.67268">
        <ele>1519.7581127379</ele>
        <time>2019-07-06T10:27:28Z</time>
      </trkpt>
      <trkpt lat="45.59772" lon="6.6727">
        <ele>1519.3116747935</ele>
        <time>2019-07-06T10:27:30Z</time>
      </trkpt>
      <trkpt lat="45.59774" lon="6.67271">
        <ele>1519.3980234023</ele>
        <time>2019-07-06T10:27:32Z</time>
      </trkpt>
      <trkpt lat="45.59776" lon="6.67272">
        <ele>1519.235212572</ele>
        <time>2019-07-06T10:27:34Z</time>
      </trkpt>
      <trkpt lat="45.59779" lon="6.67273">
        <ele>1519.1303788973</ele>
        <time>2019-07-06T10:27:36Z</time>
      </trkpt>
      <trkpt lat="45.59781" lon="6.67273">
        <ele>1519.0754661953</ele>
        <time>2019-07-06T10:27:40Z</time>
      </trkpt>
      <trkpt lat="45.59783" lon="6.67273">
        <ele>1519.1765067292</ele>
        <time>2019-07-06T10:27:43Z</time>
      </trkpt>
      <trkpt lat="45.59786" lon="6.67273">
        <ele>1519.0990850517</ele>
        <time>2019-07-06T10:27:45Z</time>
      </trkpt>
      <trkpt lat="45.59788" lon="6.67272">
        <ele>1518.9815466125</ele>
        <time>2019-07-06T10:27:46Z</time>
      </trkpt>
      <trkpt lat="45.59791" lon="6.67274">
        <ele>1518.9380534193</ele>
        <time>2019-07-06T10:27:48Z</time>
      </trkpt>
      <trkpt lat="45.59792" lon="6.67275">
        <ele>1519.2286758711</ele>
        <time>2019-07-06T10:27:49Z</time>
      </trkpt>
      <trkpt lat="45.59794" lon="6.67275">
        <ele>1519.6021763232</ele>
        <time>2019-07-06T10:27:51Z</time>
      </trkpt>
      <trkpt lat="45.59796" lon="6.67277">
        <ele>1519.6888381615</ele>
        <time>2019-07-06T10:27:52Z</time>
      </trkpt>
      <trkpt lat="45.59798" lon="6.67279">
        <ele>1520.4578118817</ele>
        <time>2019-07-06T10:27:54Z</time>
      </trkpt>
      <trkpt lat="45.59801" lon="6.67281">
        <ele>1521.1493346267</ele>
        <time>2019-07-06T10:27:56Z</time>
      </trkpt>
      <trkpt lat="45.59802" lon="6.67283">
        <ele>1521.5447923346</ele>
        <time>2019-07-06T10:27:58Z</time>
      </trkpt>
      <trkpt lat="45.59804" lon="6.67284">
        <ele>1521.8425113837</ele>
        <time>2019-07-06T10:27:59Z</time>
      </trkpt>
      <trkpt lat="45.59806" lon="6.67286">
        <ele>1522.4728727838</ele>
        <time>2019-07-06T10:28:01Z</time>
      </trkpt>
      <trkpt lat="45.59808" lon="6.67288">
        <ele>1522.7020999818</ele>
        <time>2019-07-06T10:28:03Z</time>
      </trkpt>
      <trkpt lat="45.5981" lon="6.67289">
        <ele>1522.5170314139</ele>
        <time>2019-07-06T10:28:05Z</time>
      </trkpt>
      <trkpt lat="45.59812" lon="6.67291">
        <ele>1522.4693897126</ele>
        <time>2019-07-06T10:28:07Z</time>
      </trkpt>
      <trkpt lat="45.59814" lon="6.67293">
        <ele>1522.4158383445</ele>
        <time>2019-07-06T10:28:09Z</time>
      </trkpt>
      <trkpt lat="45.59816" lon="6.67295">
        <ele>1522.4811947576</ele>
        <time>2019-07-06T10:28:12Z</time>
      </trkpt>
      <trkpt lat="45.59818" lon="6.67297">
        <ele>1522.4052281316</ele>
        <time>2019-07-06T10:28:15Z</time>
      </trkpt>
      <trkpt lat="45.59819" lon="6.673">
        <ele>1522.5780910158</ele>
        <time>2019-07-06T10:28:17Z</time>
      </trkpt>
      <trkpt lat="45.59821" lon="6.67301">
        <ele>1522.9182315098</ele>
        <time>2019-07-06T10:28:19Z</time>
      </trkpt>
      <trkpt lat="45.59823" lon="6.67303">
        <ele>1522.8151612858</ele>
        <time>2019-07-06T10:28:24Z</time>
      </trkpt>
      <trkpt lat="45.59824" lon="6.67304">
        <ele>1522.6508109528</ele>
        <time>2019-07-06T10:28:26Z</time>
      </trkpt>
      <trkpt lat="45.59828" lon="6.67304">
        <ele>1522.225336883</ele>
        <time>2019-07-06T10:28:28Z</time>
      </trkpt>
      <trkpt lat="45.5983" lon="6.67304">
        <ele>1521.3673235974</ele>
        <time>2019-07-06T10:28:30Z</time>
      </trkpt>
      <trkpt lat="45.59833" lon="6.67304">
        <ele>1520.5655525466</ele>
        <time>2019-07-06T10:28:32Z</time>
      </trkpt>
      <trkpt lat="45.59836" lon="6.67304">
        <ele>1520.1177411349</ele>
        <time>2019-07-06T10:28:34Z</time>
      </trkpt>
      <trkpt lat="45.59838" lon="6.67303">
        <ele>1520.7847144368</ele>
        <time>2019-07-06T10:28:36Z</time>
      </trkpt>
      <trkpt lat="45.5984" lon="6.67302">
        <ele>1521.1163927147</ele>
        <time>2019-07-06T10:28:38Z</time>
      </trkpt>
      <trkpt lat="45.59841" lon="6.67301">
        <ele>1521.0288745366</ele>
        <time>2019-07-06T10:28:40Z</time>
      </trkpt>
      <trkpt lat="45.59843" lon="6.673">
        <ele>1520.9404679438</ele>
        <time>2019-07-06T10:28:41Z</time>
      </trkpt>
      <trkpt lat="45.59846" lon="6.67298">
        <ele>1520.7720896541</ele>
        <time>2019-07-06T10:28:43Z</time>
      </trkpt>
      <trkpt lat="45.59848" lon="6.67299">
        <ele>1521.2006633136</ele>
        <time>2019-07-06T10:28:46Z</time>
      </trkpt>
      <trkpt lat="45.59849" lon="6.67299">
        <ele>1521.4552176222</ele>
        <time>2019-07-06T10:28:47Z</time>
      </trkpt>
      <trkpt lat="45.59851" lon="6.67299">
        <ele>1521.9963712953</ele>
        <time>2019-07-06T10:28:48Z</time>
      </trkpt>
      <trkpt lat="45.59853" lon="6.67299">
        <ele>1522.4853255298</ele>
        <time>2019-07-06T10:28:49Z</time>
      </trkpt>
      <trkpt lat="45.59855" lon="6.67298">
        <ele>1522.9276413634</ele>
        <time>2019-07-06T10:28:50Z</time>
      </trkpt>
      <trkpt lat="45.59857" lon="6.67296">
        <ele>1523.0819559546</ele>
        <time>2019-07-06T10:28:51Z</time>
      </trkpt>
      <trkpt lat="45.59859" lon="6.67294">
        <ele>1522.8881671944</ele>
        <time>2019-07-06T10:28:53Z</time>
      </trkpt>
      <trkpt lat="45.59861" lon="6.67293">
        <ele>1521.3996599083</ele>
        <time>2019-07-06T10:28:55Z</time>
      </trkpt>
      <trkpt lat="45.59863" lon="6.67292">
        <ele>1520.9785352505</ele>
        <time>2019-07-06T10:28:56Z</time>
      </trkpt>
      <trkpt lat="45.59865" lon="6.67292">
        <ele>1520.9657637842</ele>
        <time>2019-07-06T10:28:58Z</time>
      </trkpt>
      <trkpt lat="45.59868" lon="6.67293">
        <ele>1521.5790305717</ele>
        <time>2019-07-06T10:29:01Z</time>
      </trkpt>
      <trkpt lat="45.59872" lon="6.67292">
        <ele>1522.0141515499</ele>
        <time>2019-07-06T10:29:03Z</time>
      </trkpt>
      <trkpt lat="45.59875" lon="6.67292">
        <ele>1522.4840241499</ele>
        <time>2019-07-06T10:29:06Z</time>
      </trkpt>
      <trkpt lat="45.59877" lon="6.67291">
        <ele>1522.275939457</ele>
        <time>2019-07-06T10:29:09Z</time>
      </trkpt>
      <trkpt lat="45.5988" lon="6.6729">
        <ele>1522.3794397306</ele>
        <time>2019-07-06T10:29:11Z</time>
      </trkpt>
      <trkpt lat="45.59882" lon="6.6729">
        <ele>1522.6055076923</ele>
        <time>2019-07-06T10:29:13Z</time>
      </trkpt>
      <trkpt lat="45.59884" lon="6.67289">
        <ele>1522.7285023531</ele>
        <time>2019-07-06T10:29:14Z</time>
      </trkpt>
      <trkpt lat="45.59886" lon="6.67289">
        <ele>1522.8302305301</ele>
        <time>2019-07-06T10:29:15Z</time>
      </trkpt>
      <trkpt lat="45.59888" lon="6.67289">
        <ele>1523.2242656525</ele>
        <time>2019-07-06T10:29:16Z</time>
      </trkpt>
      <trkpt lat="45.59891" lon="6.67288">
        <ele>1523.5024312933</ele>
        <time>2019-07-06T10:29:18Z</time>
      </trkpt>
      <trkpt lat="45.59894" lon="6.67287">
        <ele>1523.2019793071</ele>
        <time>2019-07-06T10:29:20Z</time>
      </trkpt>
      <trkpt lat="45.59895" lon="6.67287">
        <ele>1523.1372535959</ele>
        <time>2019-07-06T10:29:22Z</time>
      </trkpt>
      <trkpt lat="45.59898" lon="6.67286">
        <ele>1523.1536785019</ele>
        <time>2019-07-06T10:29:25Z</time>
      </trkpt>
      <trkpt lat="45.59901" lon="6.67285">
        <ele>1522.4346343573</ele>
        <time>2019-07-06T10:29:27Z</time>
      </trkpt>
      <trkpt lat="45.59903" lon="6.67286">
        <ele>1522.6051477733</ele>
        <time>2019-07-06T10:29:29Z</time>
      </trkpt>
      <trkpt lat="45.59905" lon="6.67286">
        <ele>1522.6104564231</ele>
        <time>2019-07-06T10:29:31Z</time>
      </trkpt>
      <trkpt lat="45.59908" lon="6.67286">
        <ele>1522.8287199588</ele>
        <time>2019-07-06T10:29:33Z</time>
      </trkpt>
      <trkpt lat="45.5991" lon="6.67285">
        <ele>1522.7602718219</ele>
        <time>2019-07-06T10:29:34Z</time>
      </trkpt>
      <trkpt lat="45.59912" lon="6.67284">
        <ele>1522.5571013246</ele>
        <time>2019-07-06T10:29:35Z</time>
      </trkpt>
      <trkpt lat="45.59914" lon="6.67283">
        <ele>1522.0207990332</ele>
        <time>2019-07-06T10:29:38Z</time>
      </trkpt>
      <trkpt lat="45.59917" lon="6.67283">
        <ele>1521.8162340295</ele>
        <time>2019-07-06T10:29:40Z</time>
      </trkpt>
      <trkpt lat="45.59921" lon="6.67283">
        <ele>1521.8956410161</ele>
        <time>2019-07-06T10:29:42Z</time>
      </trkpt>
      <trkpt lat="45.59923" lon="6.67286">
        <ele>1522.0688874786</ele>
        <time>2019-07-06T10:29:44Z</time>
      </trkpt>
      <trkpt lat="45.59926" lon="6.67287">
        <ele>1522.9912412811</ele>
        <time>2019-07-06T10:29:46Z</time>
      </trkpt>
      <trkpt lat="45.59927" lon="6.67287">
        <ele>1523.0305278604</ele>
        <time>2019-07-06T10:29:47Z</time>
      </trkpt>
      <trkpt lat="45.5993" lon="6.67287">
        <ele>1522.9895966986</ele>
        <time>2019-07-06T10:29:49Z</time>
      </trkpt>
      <trkpt lat="45.59932" lon="6.67286">
        <ele>1522.9538985584</ele>
        <time>2019-07-06T10:29:50Z</time>
      </trkpt>
      <trkpt lat="45.59935" lon="6.67286">
        <ele>1522.8934388725</ele>
        <time>2019-07-06T10:29:53Z</time>
      </trkpt>
      <trkpt lat="45.59937" lon="6.67287">
        <ele>1522.8634234008</ele>
        <time>2019-07-06T10:29:54Z</time>
      </trkpt>
      <trkpt lat="45.59939" lon="6.67286">
        <ele>1522.9573212677</ele>
        <time>2019-07-06T10:29:55Z</time>
      </trkpt>
      <trkpt lat="45.59941" lon="6.67286">
        <ele>1522.8554686366</ele>
        <time>2019-07-06T10:29:57Z</time>
      </trkpt>
      <trkpt lat="45.59943" lon="6.67287">
        <ele>1522.9178631962</ele>
        <time>2019-07-06T10:29:59Z</time>
      </trkpt>
      <trkpt lat="45.59945" lon="6.67287">
        <ele>1523.265347173</ele>
        <time>2019-07-06T10:30:02Z</time>
      </trkpt>
      <trkpt lat="45.59948" lon="6.67286">
        <ele>1522.9987124698</ele>
        <time>2019-07-06T10:30:04Z</time>
      </trkpt>
      <trkpt lat="45.59951" lon="6.67285">
        <ele>1522.6911865037</ele>
        <time>2019-07-06T10:30:06Z</time>
      </trkpt>
      <trkpt lat="45.59954" lon="6.67284">
        <ele>1522.496256996</ele>
        <time>2019-07-06T10:30:08Z</time>
      </trkpt>
      <trkpt lat="45.59956" lon="6.67284">
        <ele>1522.2548606794</ele>
        <time>2019-07-06T10:30:10Z</time>
      </trkpt>
      <trkpt lat="45.59958" lon="6.67283">
        <ele>1522.0990380524</ele>
        <time>2019-07-06T10:30:13Z</time>
      </trkpt>
      <trkpt lat="45.5996" lon="6.67283">
        <ele>1522.015912904</ele>
        <time>2019-07-06T10:30:15Z</time>
      </trkpt>
      <trkpt lat="45.59962" lon="6.67284">
        <ele>1522.0878863849</ele>
        <time>2019-07-06T10:30:18Z</time>
      </trkpt>
      <trkpt lat="45.59964" lon="6.67285">
        <ele>1522.5012888382</ele>
        <time>2019-07-06T10:30:22Z</time>
      </trkpt>
      <trkpt lat="45.59966" lon="6.67285">
        <ele>1522.5113758416</ele>
        <time>2019-07-06T10:30:24Z</time>
      </trkpt>
      <trkpt lat="45.59968" lon="6.67287">
        <ele>1522.647795071</ele>
        <time>2019-07-06T10:30:26Z</time>
      </trkpt>
      <trkpt lat="45.59971" lon="6.67287">
        <ele>1523.1651211773</ele>
        <time>2019-07-06T10:30:28Z</time>
      </trkpt>
      <trkpt lat="45.59973" lon="6.67289">
        <ele>1523.4363186742</ele>
        <time>2019-07-06T10:30:31Z</time>
      </trkpt>
      <trkpt lat="45.59975" lon="6.67291">
        <ele>1524.0187888841</ele>
        <time>2019-07-06T10:30:33Z</time>
      </trkpt>
      <trkpt lat="45.59976" lon="6.67295">
        <ele>1524.7663555295</ele>
        <time>2019-07-06T10:30:35Z</time>
      </trkpt>
      <trkpt lat="45.59978" lon="6.67297">
        <ele>1525.7533588734</ele>
        <time>2019-07-06T10:30:38Z</time>
      </trkpt>
      <trkpt lat="45.5998" lon="6.67299">
        <ele>1526.1950488857</ele>
        <time>2019-07-06T10:30:40Z</time>
      </trkpt>
      <trkpt lat="45.59982" lon="6.673">
        <ele>1526.5394377096</ele>
        <time>2019-07-06T10:30:42Z</time>
      </trkpt>
      <trkpt lat="45.59983" lon="6.67301">
        <ele>1527.0041975158</ele>
        <time>2019-07-06T10:30:44Z</time>
      </trkpt>
      <trkpt lat="45.59986" lon="6.67302">
        <ele>1527.2367185034</ele>
        <time>2019-07-06T10:30:45Z</time>
      </trkpt>
      <trkpt lat="45.59989" lon="6.67304">
        <ele>1527.5649032339</ele>
        <time>2019-07-06T10:30:47Z</time>
      </trkpt>
      <trkpt lat="45.5999" lon="6.67306">
        <ele>1527.9364780401</ele>
        <time>2019-07-06T10:30:48Z</time>
      </trkpt>
      <trkpt lat="45.59993" lon="6.6731">
        <ele>1529.3217152824</ele>
        <time>2019-07-06T10:30:50Z</time>
      </trkpt>
      <trkpt lat="45.59995" lon="6.67312">
        <ele>1530.0240000652</ele>
        <time>2019-07-06T10:30:51Z</time>
      </trkpt>
      <trkpt lat="45.59996" lon="6.67314">
        <ele>1530.6243188755</ele>
        <time>2019-07-06T10:30:52Z</time>
      </trkpt>
      <trkpt lat="45.59997" lon="6.67316">
        <ele>1531.2301515378</ele>
        <time>2019-07-06T10:30:53Z</time>
      </trkpt>
      <trkpt lat="45.6" lon="6.67316">
        <ele>1531.7437828768</ele>
        <time>2019-07-06T10:30:55Z</time>
      </trkpt>
      <trkpt lat="45.60002" lon="6.67316">
        <ele>1531.5280964731</ele>
        <time>2019-07-06T10:30:56Z</time>
      </trkpt>
      <trkpt lat="45.60005" lon="6.67318">
        <ele>1531.7199117402</ele>
        <time>2019-07-06T10:30:58Z</time>
      </trkpt>
      <trkpt lat="45.60007" lon="6.67321">
        <ele>1532.4455872171</ele>
        <time>2019-07-06T10:31:00Z</time>
      </trkpt>
      <trkpt lat="45.60009" lon="6.67322">
        <ele>1533.0451938254</ele>
        <time>2019-07-06T10:31:02Z</time>
      </trkpt>
      <trkpt lat="45.60011" lon="6.67322">
        <ele>1533.8918666148</ele>
        <time>2019-07-06T10:31:04Z</time>
      </trkpt>
      <trkpt lat="45.60014" lon="6.67323">
        <ele>1533.3998681717</ele>
        <time>2019-07-06T10:31:06Z</time>
      </trkpt>
      <trkpt lat="45.60016" lon="6.67323">
        <ele>1533.4080020158</ele>
        <time>2019-07-06T10:31:08Z</time>
      </trkpt>
      <trkpt lat="45.60019" lon="6.67323">
        <ele>1533.5487413132</ele>
        <time>2019-07-06T10:31:10Z</time>
      </trkpt>
      <trkpt lat="45.60022" lon="6.67324">
        <ele>1533.6029648753</ele>
        <time>2019-07-06T10:31:11Z</time>
      </trkpt>
      <trkpt lat="45.60024" lon="6.67325">
        <ele>1533.8852356195</ele>
        <time>2019-07-06T10:31:13Z</time>
      </trkpt>
      <trkpt lat="45.60026" lon="6.67327">
        <ele>1534.3444523628</ele>
        <time>2019-07-06T10:31:16Z</time>
      </trkpt>
      <trkpt lat="45.60027" lon="6.67328">
        <ele>1534.7348733948</ele>
        <time>2019-07-06T10:31:18Z</time>
      </trkpt>
      <trkpt lat="45.6003" lon="6.6733">
        <ele>1535.3556379567</ele>
        <time>2019-07-06T10:31:20Z</time>
      </trkpt>
      <trkpt lat="45.60033" lon="6.67333">
        <ele>1535.7339085906</ele>
        <time>2019-07-06T10:31:22Z</time>
      </trkpt>
      <trkpt lat="45.60035" lon="6.67335">
        <ele>1536.5385067266</ele>
        <time>2019-07-06T10:31:24Z</time>
      </trkpt>
      <trkpt lat="45.60038" lon="6.67337">
        <ele>1537.3325469181</ele>
        <time>2019-07-06T10:31:27Z</time>
      </trkpt>
      <trkpt lat="45.6004" lon="6.67338">
        <ele>1537.5053817817</ele>
        <time>2019-07-06T10:31:29Z</time>
      </trkpt>
      <trkpt lat="45.60042" lon="6.67337">
        <ele>1537.5769392319</ele>
        <time>2019-07-06T10:31:31Z</time>
      </trkpt>
      <trkpt lat="45.60045" lon="6.67336">
        <ele>1537.2857168204</ele>
        <time>2019-07-06T10:31:34Z</time>
      </trkpt>
      <trkpt lat="45.60047" lon="6.67338">
        <ele>1537.4923011761</ele>
        <time>2019-07-06T10:31:36Z</time>
      </trkpt>
      <trkpt lat="45.60049" lon="6.67338">
        <ele>1537.7837908478</ele>
        <time>2019-07-06T10:31:38Z</time>
      </trkpt>
      <trkpt lat="45.6005" lon="6.6734">
        <ele>1538.0572550609</ele>
        <time>2019-07-06T10:31:40Z</time>
      </trkpt>
      <trkpt lat="45.60054" lon="6.67342">
        <ele>1538.4813703182</ele>
        <time>2019-07-06T10:31:42Z</time>
      </trkpt>
      <trkpt lat="45.60056" lon="6.67343">
        <ele>1539.0101207482</ele>
        <time>2019-07-06T10:31:44Z</time>
      </trkpt>
      <trkpt lat="45.60059" lon="6.67344">
        <ele>1539.3401531255</ele>
        <time>2019-07-06T10:31:46Z</time>
      </trkpt>
      <trkpt lat="45.60062" lon="6.67344">
        <ele>1539.497393879</ele>
        <time>2019-07-06T10:31:48Z</time>
      </trkpt>
      <trkpt lat="45.60064" lon="6.67346">
        <ele>1539.7592227242</ele>
        <time>2019-07-06T10:31:51Z</time>
      </trkpt>
      <trkpt lat="45.60067" lon="6.67347">
        <ele>1540.3069483445</ele>
        <time>2019-07-06T10:31:53Z</time>
      </trkpt>
      <trkpt lat="45.60069" lon="6.6735">
        <ele>1540.5874133937</ele>
        <time>2019-07-06T10:31:55Z</time>
      </trkpt>
      <trkpt lat="45.6007" lon="6.67353">
        <ele>1541.6862907711</ele>
        <time>2019-07-06T10:31:58Z</time>
      </trkpt>
      <trkpt lat="45.60071" lon="6.67355">
        <ele>1542.4000112305</ele>
        <time>2019-07-06T10:32:01Z</time>
      </trkpt>
      <trkpt lat="45.60071" lon="6.67358">
        <ele>1543.2906384031</ele>
        <time>2019-07-06T10:32:04Z</time>
      </trkpt>
      <trkpt lat="45.60071" lon="6.67361">
        <ele>1544.2091533704</ele>
        <time>2019-07-06T10:32:06Z</time>
      </trkpt>
      <trkpt lat="45.60072" lon="6.67365">
        <ele>1544.9133556099</ele>
        <time>2019-07-06T10:32:08Z</time>
      </trkpt>
      <trkpt lat="45.60072" lon="6.67368">
        <ele>1546.2430087163</ele>
        <time>2019-07-06T10:32:10Z</time>
      </trkpt>
      <trkpt lat="45.60072" lon="6.67371">
        <ele>1546.7163194133</ele>
        <time>2019-07-06T10:32:13Z</time>
      </trkpt>
      <trkpt lat="45.60071" lon="6.67373">
        <ele>1547.6380461883</ele>
        <time>2019-07-06T10:32:17Z</time>
      </trkpt>
      <trkpt lat="45.60072" lon="6.67375">
        <ele>1548.0109937931</ele>
        <time>2019-07-06T10:32:21Z</time>
      </trkpt>
      <trkpt lat="45.60073" lon="6.67378">
        <ele>1549.0679818899</ele>
        <time>2019-07-06T10:32:26Z</time>
      </trkpt>
      <trkpt lat="45.60074" lon="6.67381">
        <ele>1549.8481785103</ele>
        <time>2019-07-06T10:32:30Z</time>
      </trkpt>
      <trkpt lat="45.60077" lon="6.67384">
        <ele>1550.5137735992</ele>
        <time>2019-07-06T10:32:35Z</time>
      </trkpt>
      <trkpt lat="45.60078" lon="6.67386">
        <ele>1551.2659318415</ele>
        <time>2019-07-06T10:32:37Z</time>
      </trkpt>
      <trkpt lat="45.60079" lon="6.67388">
        <ele>1551.9720989279</ele>
        <time>2019-07-06T10:32:41Z</time>
      </trkpt>
      <trkpt lat="45.60082" lon="6.6739">
        <ele>1552.3994478405</ele>
        <time>2019-07-06T10:32:45Z</time>
      </trkpt>
      <trkpt lat="45.60083" lon="6.67392">
        <ele>1553.1023276958</ele>
        <time>2019-07-06T10:32:50Z</time>
      </trkpt>
      <trkpt lat="45.60084" lon="6.67394">
        <ele>1553.6929811004</ele>
        <time>2019-07-06T10:32:53Z</time>
      </trkpt>
      <trkpt lat="45.60086" lon="6.67396">
        <ele>1554.7903050302</ele>
        <time>2019-07-06T10:32:56Z</time>
      </trkpt>
      <trkpt lat="45.60088" lon="6.67399">
        <ele>1555.7756693217</ele>
        <time>2019-07-06T10:33:00Z</time>
      </trkpt>
      <trkpt lat="45.60089" lon="6.67402">
        <ele>1556.8668015373</ele>
        <time>2019-07-06T10:33:04Z</time>
      </trkpt>
      <trkpt lat="45.60091" lon="6.67404">
        <ele>1557.6270289966</ele>
        <time>2019-07-06T10:33:09Z</time>
      </trkpt>
      <trkpt lat="45.60094" lon="6.67404">
        <ele>1557.5944437688</ele>
        <time>2019-07-06T10:33:12Z</time>
      </trkpt>
      <trkpt lat="45.60096" lon="6.67404">
        <ele>1558.3045754573</ele>
        <time>2019-07-06T10:33:14Z</time>
      </trkpt>
      <trkpt lat="45.601" lon="6.67403">
        <ele>1558.6669196941</ele>
        <time>2019-07-06T10:33:16Z</time>
      </trkpt>
      <trkpt lat="45.60103" lon="6.67401">
        <ele>1559.0533945686</ele>
        <time>2019-07-06T10:33:20Z</time>
      </trkpt>
      <trkpt lat="45.60105" lon="6.67399">
        <ele>1559.3117137934</ele>
        <time>2019-07-06T10:33:22Z</time>
      </trkpt>
      <trkpt lat="45.60108" lon="6.67395">
        <ele>1559.4090873371</ele>
        <time>2019-07-06T10:33:25Z</time>
      </trkpt>
      <trkpt lat="45.60109" lon="6.67393">
        <ele>1559.7036967434</ele>
        <time>2019-07-06T10:33:26Z</time>
      </trkpt>
      <trkpt lat="45.60111" lon="6.6739">
        <ele>1560.2822914539</ele>
        <time>2019-07-06T10:33:29Z</time>
      </trkpt>
      <trkpt lat="45.60113" lon="6.67387">
        <ele>1560.5656336216</ele>
        <time>2019-07-06T10:33:31Z</time>
      </trkpt>
      <trkpt lat="45.60113" lon="6.67384">
        <ele>1560.0733352074</ele>
        <time>2019-07-06T10:33:33Z</time>
      </trkpt>
      <trkpt lat="45.60114" lon="6.67382">
        <ele>1559.5822232584</ele>
        <time>2019-07-06T10:33:35Z</time>
      </trkpt>
      <trkpt lat="45.60116" lon="6.67378">
        <ele>1559.1239173635</ele>
        <time>2019-07-06T10:33:37Z</time>
      </trkpt>
      <trkpt lat="45.60117" lon="6.67376">
        <ele>1558.5278432663</ele>
        <time>2019-07-06T10:33:40Z</time>
      </trkpt>
      <trkpt lat="45.60119" lon="6.67371">
        <ele>1558.1565146482</ele>
        <time>2019-07-06T10:33:43Z</time>
      </trkpt>
      <trkpt lat="45.60121" lon="6.67369">
        <ele>1557.6068791727</ele>
        <time>2019-07-06T10:33:47Z</time>
      </trkpt>
      <trkpt lat="45.60122" lon="6.67367">
        <ele>1557.4869415845</ele>
        <time>2019-07-06T10:33:50Z</time>
      </trkpt>
      <trkpt lat="45.60124" lon="6.6737">
        <ele>1557.776217674</ele>
        <time>2019-07-06T10:33:56Z</time>
      </trkpt>
      <trkpt lat="45.60126" lon="6.67372">
        <ele>1559.4241763527</ele>
        <time>2019-07-06T10:33:59Z</time>
      </trkpt>
      <trkpt lat="45.60128" lon="6.67372">
        <ele>1560.1535575976</ele>
        <time>2019-07-06T10:34:01Z</time>
      </trkpt>
      <trkpt lat="45.6013" lon="6.67372">
        <ele>1560.8645476991</ele>
        <time>2019-07-06T10:34:03Z</time>
      </trkpt>
      <trkpt lat="45.60132" lon="6.67372">
        <ele>1561.4436492042</ele>
        <time>2019-07-06T10:34:06Z</time>
      </trkpt>
      <trkpt lat="45.60134" lon="6.67372">
        <ele>1561.9620079413</ele>
        <time>2019-07-06T10:34:08Z</time>
      </trkpt>
      <trkpt lat="45.60136" lon="6.67372">
        <ele>1562.5894792084</ele>
        <time>2019-07-06T10:34:11Z</time>
      </trkpt>
      <trkpt lat="45.60138" lon="6.67373">
        <ele>1563.1855305078</ele>
        <time>2019-07-06T10:34:14Z</time>
      </trkpt>
      <trkpt lat="45.6014" lon="6.67374">
        <ele>1563.8179167748</ele>
        <time>2019-07-06T10:34:17Z</time>
      </trkpt>
      <trkpt lat="45.60141" lon="6.67375">
        <ele>1560.3974144218</ele>
        <time>2019-07-06T10:34:19Z</time>
      </trkpt>
      <trkpt lat="45.60143" lon="6.67377">
        <ele>1558.3036413035</ele>
        <time>2019-07-06T10:34:21Z</time>
      </trkpt>
      <trkpt lat="45.60145" lon="6.67378">
        <ele>1557.0987181183</ele>
        <time>2019-07-06T10:34:23Z</time>
      </trkpt>
      <trkpt lat="45.60148" lon="6.67379">
        <ele>1556.5228704435</ele>
        <time>2019-07-06T10:34:25Z</time>
      </trkpt>
      <trkpt lat="45.60149" lon="6.6738">
        <ele>1555.8985021742</ele>
        <time>2019-07-06T10:34:27Z</time>
      </trkpt>
      <trkpt lat="45.60152" lon="6.67383">
        <ele>1555.8011100992</ele>
        <time>2019-07-06T10:34:29Z</time>
      </trkpt>
      <trkpt lat="45.60154" lon="6.67385">
        <ele>1555.5477497828</ele>
        <time>2019-07-06T10:34:31Z</time>
      </trkpt>
      <trkpt lat="45.60157" lon="6.67388">
        <ele>1555.2372442246</ele>
        <time>2019-07-06T10:34:33Z</time>
      </trkpt>
      <trkpt lat="45.60158" lon="6.6739">
        <ele>1555.1359912943</ele>
        <time>2019-07-06T10:34:34Z</time>
      </trkpt>
      <trkpt lat="45.6016" lon="6.67393">
        <ele>1555.1607758227</ele>
        <time>2019-07-06T10:34:36Z</time>
      </trkpt>
      <trkpt lat="45.60162" lon="6.67395">
        <ele>1555.4162322213</ele>
        <time>2019-07-06T10:34:38Z</time>
      </trkpt>
      <trkpt lat="45.60163" lon="6.67397">
        <ele>1555.6640046205</ele>
        <time>2019-07-06T10:34:40Z</time>
      </trkpt>
      <trkpt lat="45.60166" lon="6.67401">
        <ele>1556.0425326425</ele>
        <time>2019-07-06T10:34:42Z</time>
      </trkpt>
      <trkpt lat="45.60167" lon="6.67404">
        <ele>1556.1422963326</ele>
        <time>2019-07-06T10:34:44Z</time>
      </trkpt>
      <trkpt lat="45.60169" lon="6.67407">
        <ele>1556.27407453</ele>
        <time>2019-07-06T10:34:46Z</time>
      </trkpt>
      <trkpt lat="45.6017" lon="6.6741">
        <ele>1556.3333908403</ele>
        <time>2019-07-06T10:34:48Z</time>
      </trkpt>
      <trkpt lat="45.60171" lon="6.67413">
        <ele>1555.9641156891</ele>
        <time>2019-07-06T10:34:50Z</time>
      </trkpt>
      <trkpt lat="45.60172" lon="6.67416">
        <ele>1555.5595141123</ele>
        <time>2019-07-06T10:34:52Z</time>
      </trkpt>
      <trkpt lat="45.60174" lon="6.6742">
        <ele>1555.0997600454</ele>
        <time>2019-07-06T10:34:55Z</time>
      </trkpt>
      <trkpt lat="45.60176" lon="6.67421">
        <ele>1554.7312132662</ele>
        <time>2019-07-06T10:34:58Z</time>
      </trkpt>
      <trkpt lat="45.60178" lon="6.67424">
        <ele>1554.576706185</ele>
        <time>2019-07-06T10:35:00Z</time>
      </trkpt>
      <trkpt lat="45.6018" lon="6.67427">
        <ele>1554.6652484439</ele>
        <time>2019-07-06T10:35:03Z</time>
      </trkpt>
      <trkpt lat="45.60182" lon="6.67429">
        <ele>1555.2269193111</ele>
        <time>2019-07-06T10:35:06Z</time>
      </trkpt>
      <trkpt lat="45.60184" lon="6.67429">
        <ele>1555.6638132657</ele>
        <time>2019-07-06T10:35:08Z</time>
      </trkpt>
      <trkpt lat="45.60186" lon="6.67428">
        <ele>1555.9647578278</ele>
        <time>2019-07-06T10:35:10Z</time>
      </trkpt>
      <trkpt lat="45.60189" lon="6.67428">
        <ele>1555.9026433444</ele>
        <time>2019-07-06T10:35:12Z</time>
      </trkpt>
      <trkpt lat="45.60193" lon="6.67429">
        <ele>1555.8622383727</ele>
        <time>2019-07-06T10:35:14Z</time>
      </trkpt>
      <trkpt lat="45.60196" lon="6.67429">
        <ele>1555.8482070382</ele>
        <time>2019-07-06T10:35:16Z</time>
      </trkpt>
      <trkpt lat="45.60198" lon="6.67432">
        <ele>1555.826363816</ele>
        <time>2019-07-06T10:35:17Z</time>
      </trkpt>
      <trkpt lat="45.602" lon="6.67434">
        <ele>1555.4909333265</ele>
        <time>2019-07-06T10:35:20Z</time>
      </trkpt>
      <trkpt lat="45.60202" lon="6.67436">
        <ele>1555.4701473925</ele>
        <time>2019-07-06T10:35:22Z</time>
      </trkpt>
      <trkpt lat="45.60205" lon="6.67435">
        <ele>1555.507270712</ele>
        <time>2019-07-06T10:35:24Z</time>
      </trkpt>
      <trkpt lat="45.60208" lon="6.67435">
        <ele>1555.648683288</ele>
        <time>2019-07-06T10:35:26Z</time>
      </trkpt>
      <trkpt lat="45.6021" lon="6.67434">
        <ele>1555.7159115361</ele>
        <time>2019-07-06T10:35:28Z</time>
      </trkpt>
      <trkpt lat="45.60213" lon="6.67434">
        <ele>1555.8470110794</ele>
        <time>2019-07-06T10:35:30Z</time>
      </trkpt>
      <trkpt lat="45.60216" lon="6.67437">
        <ele>1555.9393557178</ele>
        <time>2019-07-06T10:35:33Z</time>
      </trkpt>
      <trkpt lat="45.60217" lon="6.67439">
        <ele>1555.9504146916</ele>
        <time>2019-07-06T10:35:35Z</time>
      </trkpt>
      <trkpt lat="45.6022" lon="6.67441">
        <ele>1556.2414465023</ele>
        <time>2019-07-06T10:35:37Z</time>
      </trkpt>
      <trkpt lat="45.60222" lon="6.67443">
        <ele>1556.8644536644</ele>
        <time>2019-07-06T10:35:39Z</time>
      </trkpt>
      <trkpt lat="45.60224" lon="6.67446">
        <ele>1557.6213925994</ele>
        <time>2019-07-06T10:35:41Z</time>
      </trkpt>
      <trkpt lat="45.60226" lon="6.67448">
        <ele>1558.3432885573</ele>
        <time>2019-07-06T10:35:43Z</time>
      </trkpt>
      <trkpt lat="45.60228" lon="6.6745">
        <ele>1558.9174675218</ele>
        <time>2019-07-06T10:35:45Z</time>
      </trkpt>
      <trkpt lat="45.6023" lon="6.67452">
        <ele>1559.1182485308</ele>
        <time>2019-07-06T10:35:47Z</time>
      </trkpt>
      <trkpt lat="45.60231" lon="6.67454">
        <ele>1559.0893682207</ele>
        <time>2019-07-06T10:35:48Z</time>
      </trkpt>
      <trkpt lat="45.60233" lon="6.67456">
        <ele>1559.0703168478</ele>
        <time>2019-07-06T10:35:50Z</time>
      </trkpt>
      <trkpt lat="45.60235" lon="6.67457">
        <ele>1558.9162818238</ele>
        <time>2019-07-06T10:35:52Z</time>
      </trkpt>
      <trkpt lat="45.60237" lon="6.67459">
        <ele>1559.0252849768</ele>
        <time>2019-07-06T10:35:55Z</time>
      </trkpt>
      <trkpt lat="45.60239" lon="6.6746">
        <ele>1559.0846400828</ele>
        <time>2019-07-06T10:35:57Z</time>
      </trkpt>
      <trkpt lat="45.60242" lon="6.67461">
        <ele>1559.5178256397</ele>
        <time>2019-07-06T10:35:59Z</time>
      </trkpt>
      <trkpt lat="45.60244" lon="6.67462">
        <ele>1559.7190500068</ele>
        <time>2019-07-06T10:36:00Z</time>
      </trkpt>
      <trkpt lat="45.60247" lon="6.67464">
        <ele>1560.2784500753</ele>
        <time>2019-07-06T10:36:02Z</time>
      </trkpt>
      <trkpt lat="45.6025" lon="6.67465">
        <ele>1560.6330292915</ele>
        <time>2019-07-06T10:36:04Z</time>
      </trkpt>
      <trkpt lat="45.60252" lon="6.67466">
        <ele>1560.6639749594</ele>
        <time>2019-07-06T10:36:06Z</time>
      </trkpt>
      <trkpt lat="45.60255" lon="6.67467">
        <ele>1560.4517306896</ele>
        <time>2019-07-06T10:36:08Z</time>
      </trkpt>
      <trkpt lat="45.60257" lon="6.67468">
        <ele>1560.0910583881</ele>
        <time>2019-07-06T10:36:10Z</time>
      </trkpt>
      <trkpt lat="45.6026" lon="6.67469">
        <ele>1559.6984893293</ele>
        <time>2019-07-06T10:36:12Z</time>
      </trkpt>
      <trkpt lat="45.60262" lon="6.67468">
        <ele>1559.2050018365</ele>
        <time>2019-07-06T10:36:15Z</time>
      </trkpt>
      <trkpt lat="45.60265" lon="6.67469">
        <ele>1558.9626892779</ele>
        <time>2019-07-06T10:36:17Z</time>
      </trkpt>
      <trkpt lat="45.60268" lon="6.67469">
        <ele>1558.6971004884</ele>
        <time>2019-07-06T10:36:19Z</time>
      </trkpt>
      <trkpt lat="45.6027" lon="6.6747">
        <ele>1558.0988138566</ele>
        <time>2019-07-06T10:36:21Z</time>
      </trkpt>
      <trkpt lat="45.60272" lon="6.6747">
        <ele>1557.2591287482</ele>
        <time>2019-07-06T10:36:23Z</time>
      </trkpt>
      <trkpt lat="45.60275" lon="6.67471">
        <ele>1556.71126262</ele>
        <time>2019-07-06T10:36:25Z</time>
      </trkpt>
      <trkpt lat="45.60277" lon="6.67472">
        <ele>1556.3336644673</ele>
        <time>2019-07-06T10:36:27Z</time>
      </trkpt>
      <trkpt lat="45.60279" lon="6.67472">
        <ele>1556.164111421</ele>
        <time>2019-07-06T10:36:28Z</time>
      </trkpt>
      <trkpt lat="45.60281" lon="6.67472">
        <ele>1555.7713230684</ele>
        <time>2019-07-06T10:36:30Z</time>
      </trkpt>
      <trkpt lat="45.60283" lon="6.67474">
        <ele>1555.6107205295</ele>
        <time>2019-07-06T10:36:32Z</time>
      </trkpt>
      <trkpt lat="45.60287" lon="6.67475">
        <ele>1555.4995984268</ele>
        <time>2019-07-06T10:36:34Z</time>
      </trkpt>
      <trkpt lat="45.6029" lon="6.67476">
        <ele>1555.9117431395</ele>
        <time>2019-07-06T10:36:36Z</time>
      </trkpt>
      <trkpt lat="45.60292" lon="6.67476">
        <ele>1556.139102235</ele>
        <time>2019-07-06T10:36:37Z</time>
      </trkpt>
      <trkpt lat="45.60293" lon="6.67477">
        <ele>1556.8093158291</ele>
        <time>2019-07-06T10:36:39Z</time>
      </trkpt>
      <trkpt lat="45.60296" lon="6.67479">
        <ele>1557.4997809977</ele>
        <time>2019-07-06T10:36:41Z</time>
      </trkpt>
      <trkpt lat="45.60298" lon="6.6748">
        <ele>1557.8902373522</ele>
        <time>2019-07-06T10:36:43Z</time>
      </trkpt>
      <trkpt lat="45.603" lon="6.6748">
        <ele>1558.2682682241</ele>
        <time>2019-07-06T10:36:44Z</time>
      </trkpt>
      <trkpt lat="45.60303" lon="6.67479">
        <ele>1558.9615300338</ele>
        <time>2019-07-06T10:36:46Z</time>
      </trkpt>
      <trkpt lat="45.60306" lon="6.6748">
        <ele>1559.5156894114</ele>
        <time>2019-07-06T10:36:48Z</time>
      </trkpt>
      <trkpt lat="45.60308" lon="6.67479">
        <ele>1559.8351845722</ele>
        <time>2019-07-06T10:36:50Z</time>
      </trkpt>
      <trkpt lat="45.60312" lon="6.67479">
        <ele>1560.1064093195</ele>
        <time>2019-07-06T10:36:52Z</time>
      </trkpt>
      <trkpt lat="45.60314" lon="6.67479">
        <ele>1559.8761730257</ele>
        <time>2019-07-06T10:36:54Z</time>
      </trkpt>
      <trkpt lat="45.60316" lon="6.67479">
        <ele>1559.5310164662</ele>
        <time>2019-07-06T10:36:56Z</time>
      </trkpt>
      <trkpt lat="45.60318" lon="6.67481">
        <ele>1559.4019327595</ele>
        <time>2019-07-06T10:36:58Z</time>
      </trkpt>
      <trkpt lat="45.6032" lon="6.67483">
        <ele>1559.342423301</ele>
        <time>2019-07-06T10:36:59Z</time>
      </trkpt>
      <trkpt lat="45.60321" lon="6.67484">
        <ele>1559.2979785042</ele>
        <time>2019-07-06T10:37:00Z</time>
      </trkpt>
      <trkpt lat="45.60323" lon="6.67486">
        <ele>1559.0802137414</ele>
        <time>2019-07-06T10:37:02Z</time>
      </trkpt>
      <trkpt lat="45.60326" lon="6.67487">
        <ele>1558.8864212224</ele>
        <time>2019-07-06T10:37:04Z</time>
      </trkpt>
      <trkpt lat="45.60328" lon="6.67489">
        <ele>1558.7473684302</ele>
        <time>2019-07-06T10:37:07Z</time>
      </trkpt>
      <trkpt lat="45.60331" lon="6.67491">
        <ele>1558.9252319807</ele>
        <time>2019-07-06T10:37:09Z</time>
      </trkpt>
      <trkpt lat="45.60335" lon="6.67491">
        <ele>1559.3457207253</ele>
        <time>2019-07-06T10:37:11Z</time>
      </trkpt>
      <trkpt lat="45.60337" lon="6.67491">
        <ele>1559.8187939714</ele>
        <time>2019-07-06T10:37:13Z</time>
      </trkpt>
      <trkpt lat="45.60339" lon="6.67491">
        <ele>1559.9402922332</ele>
        <time>2019-07-06T10:37:15Z</time>
      </trkpt>
      <trkpt lat="45.60341" lon="6.67491">
        <ele>1559.8713988458</ele>
        <time>2019-07-06T10:37:17Z</time>
      </trkpt>
      <trkpt lat="45.60344" lon="6.67491">
        <ele>1559.7329993852</ele>
        <time>2019-07-06T10:37:19Z</time>
      </trkpt>
      <trkpt lat="45.60346" lon="6.67491">
        <ele>1559.8104989728</ele>
        <time>2019-07-06T10:37:20Z</time>
      </trkpt>
      <trkpt lat="45.60348" lon="6.67492">
        <ele>1559.7827570607</ele>
        <time>2019-07-06T10:37:22Z</time>
      </trkpt>
      <trkpt lat="45.6035" lon="6.67493">
        <ele>1559.717796606</ele>
        <time>2019-07-06T10:37:24Z</time>
      </trkpt>
      <trkpt lat="45.60353" lon="6.67493">
        <ele>1559.4968732602</ele>
        <time>2019-07-06T10:37:26Z</time>
      </trkpt>
      <trkpt lat="45.60355" lon="6.67494">
        <ele>1559.3800625701</ele>
        <time>2019-07-06T10:37:28Z</time>
      </trkpt>
      <trkpt lat="45.60357" lon="6.67495">
        <ele>1559.6647653211</ele>
        <time>2019-07-06T10:37:30Z</time>
      </trkpt>
      <trkpt lat="45.60359" lon="6.67495">
        <ele>1560.3632593838</ele>
        <time>2019-07-06T10:37:32Z</time>
      </trkpt>
      <trkpt lat="45.60362" lon="6.67496">
        <ele>1560.801294311</ele>
        <time>2019-07-06T10:37:34Z</time>
      </trkpt>
      <trkpt lat="45.60364" lon="6.67496">
        <ele>1561.2550681842</ele>
        <time>2019-07-06T10:37:36Z</time>
      </trkpt>
      <trkpt lat="45.60367" lon="6.67497">
        <ele>1561.6768194518</ele>
        <time>2019-07-06T10:37:38Z</time>
      </trkpt>
      <trkpt lat="45.6037" lon="6.67497">
        <ele>1561.8074879068</ele>
        <time>2019-07-06T10:37:42Z</time>
      </trkpt>
      <trkpt lat="45.60373" lon="6.67498">
        <ele>1561.4863095191</ele>
        <time>2019-07-06T10:37:44Z</time>
      </trkpt>
      <trkpt lat="45.60376" lon="6.67499">
        <ele>1561.4155246662</ele>
        <time>2019-07-06T10:37:46Z</time>
      </trkpt>
      <trkpt lat="45.60378" lon="6.675">
        <ele>1561.4798395734</ele>
        <time>2019-07-06T10:37:48Z</time>
      </trkpt>
      <trkpt lat="45.6038" lon="6.67502">
        <ele>1560.9644330515</ele>
        <time>2019-07-06T10:37:52Z</time>
      </trkpt>
      <trkpt lat="45.60382" lon="6.67503">
        <ele>1561.0844066697</ele>
        <time>2019-07-06T10:37:54Z</time>
      </trkpt>
      <trkpt lat="45.60384" lon="6.67503">
        <ele>1561.231590273</ele>
        <time>2019-07-06T10:37:56Z</time>
      </trkpt>
      <trkpt lat="45.60386" lon="6.67505">
        <ele>1561.1936128112</ele>
        <time>2019-07-06T10:37:58Z</time>
      </trkpt>
      <trkpt lat="45.60389" lon="6.67506">
        <ele>1561.2760890473</ele>
        <time>2019-07-06T10:38:00Z</time>
      </trkpt>
      <trkpt lat="45.60392" lon="6.67508">
        <ele>1562.3790422549</ele>
        <time>2019-07-06T10:38:03Z</time>
      </trkpt>
      <trkpt lat="45.60394" lon="6.67509">
        <ele>1562.9798960606</ele>
        <time>2019-07-06T10:38:05Z</time>
      </trkpt>
      <trkpt lat="45.60396" lon="6.67509">
        <ele>1563.4137466981</ele>
        <time>2019-07-06T10:38:07Z</time>
      </trkpt>
      <trkpt lat="45.60399" lon="6.67511">
        <ele>1563.7335649731</ele>
        <time>2019-07-06T10:38:09Z</time>
      </trkpt>
      <trkpt lat="45.60402" lon="6.67512">
        <ele>1564.1603346242</ele>
        <time>2019-07-06T10:38:11Z</time>
      </trkpt>
      <trkpt lat="45.60404" lon="6.67512">
        <ele>1564.6920370363</ele>
        <time>2019-07-06T10:38:13Z</time>
      </trkpt>
      <trkpt lat="45.60407" lon="6.67513">
        <ele>1565.1750357911</ele>
        <time>2019-07-06T10:38:15Z</time>
      </trkpt>
      <trkpt lat="45.60409" lon="6.67513">
        <ele>1565.7541702923</ele>
        <time>2019-07-06T10:38:17Z</time>
      </trkpt>
      <trkpt lat="45.60411" lon="6.67513">
        <ele>1566.3730281024</ele>
        <time>2019-07-06T10:38:19Z</time>
      </trkpt>
      <trkpt lat="45.60415" lon="6.67514">
        <ele>1567.3610493204</ele>
        <time>2019-07-06T10:38:21Z</time>
      </trkpt>
      <trkpt lat="45.60417" lon="6.67515">
        <ele>1567.9713906417</ele>
        <time>2019-07-06T10:38:23Z</time>
      </trkpt>
      <trkpt lat="45.60419" lon="6.67515">
        <ele>1568.461638449</ele>
        <time>2019-07-06T10:38:25Z</time>
      </trkpt>
      <trkpt lat="45.60422" lon="6.67514">
        <ele>1569.4122857955</ele>
        <time>2019-07-06T10:38:28Z</time>
      </trkpt>
      <trkpt lat="45.60425" lon="6.67515">
        <ele>1570.0120863643</ele>
        <time>2019-07-06T10:38:30Z</time>
      </trkpt>
      <trkpt lat="45.60427" lon="6.67515">
        <ele>1570.3196881535</ele>
        <time>2019-07-06T10:38:31Z</time>
      </trkpt>
      <trkpt lat="45.60428" lon="6.67515">
        <ele>1570.4854549498</ele>
        <time>2019-07-06T10:38:32Z</time>
      </trkpt>
      <trkpt lat="45.6043" lon="6.67516">
        <ele>1570.6377239968</ele>
        <time>2019-07-06T10:38:34Z</time>
      </trkpt>
      <trkpt lat="45.60434" lon="6.67518">
        <ele>1571.0330027578</ele>
        <time>2019-07-06T10:38:37Z</time>
      </trkpt>
      <trkpt lat="45.60436" lon="6.67519">
        <ele>1571.1970825882</ele>
        <time>2019-07-06T10:38:39Z</time>
      </trkpt>
      <trkpt lat="45.60439" lon="6.67519">
        <ele>1571.4586174881</ele>
        <time>2019-07-06T10:38:41Z</time>
      </trkpt>
      <trkpt lat="45.60442" lon="6.67521">
        <ele>1572.0591778151</ele>
        <time>2019-07-06T10:38:43Z</time>
      </trkpt>
      <trkpt lat="45.60444" lon="6.67522">
        <ele>1572.8920465833</ele>
        <time>2019-07-06T10:38:45Z</time>
      </trkpt>
      <trkpt lat="45.60447" lon="6.67521">
        <ele>1573.8344919355</ele>
        <time>2019-07-06T10:38:48Z</time>
      </trkpt>
      <trkpt lat="45.6045" lon="6.67523">
        <ele>1574.4895873347</ele>
        <time>2019-07-06T10:38:50Z</time>
      </trkpt>
      <trkpt lat="45.60452" lon="6.67523">
        <ele>1574.6278439848</ele>
        <time>2019-07-06T10:38:52Z</time>
      </trkpt>
      <trkpt lat="45.60454" lon="6.67524">
        <ele>1574.5944093113</ele>
        <time>2019-07-06T10:38:54Z</time>
      </trkpt>
      <trkpt lat="45.60457" lon="6.67524">
        <ele>1574.7148850834</ele>
        <time>2019-07-06T10:38:56Z</time>
      </trkpt>
      <trkpt lat="45.60459" lon="6.67525">
        <ele>1574.8412474709</ele>
        <time>2019-07-06T10:38:58Z</time>
      </trkpt>
      <trkpt lat="45.60462" lon="6.67526">
        <ele>1574.925117291</ele>
        <time>2019-07-06T10:39:00Z</time>
      </trkpt>
      <trkpt lat="45.60464" lon="6.67526">
        <ele>1574.4990550218</ele>
        <time>2019-07-06T10:39:03Z</time>
      </trkpt>
      <trkpt lat="45.60467" lon="6.67526">
        <ele>1573.9008097496</ele>
        <time>2019-07-06T10:39:06Z</time>
      </trkpt>
      <trkpt lat="45.6047" lon="6.67527">
        <ele>1573.7502636148</ele>
        <time>2019-07-06T10:39:08Z</time>
      </trkpt>
      <trkpt lat="45.60473" lon="6.67527">
        <ele>1573.7034875591</ele>
        <time>2019-07-06T10:39:10Z</time>
      </trkpt>
      <trkpt lat="45.60474" lon="6.67527">
        <ele>1573.5994395636</ele>
        <time>2019-07-06T10:39:12Z</time>
      </trkpt>
      <trkpt lat="45.60477" lon="6.67527">
        <ele>1573.4478344805</ele>
        <time>2019-07-06T10:39:14Z</time>
      </trkpt>
      <trkpt lat="45.6048" lon="6.67528">
        <ele>1573.6216875576</ele>
        <time>2019-07-06T10:39:17Z</time>
      </trkpt>
      <trkpt lat="45.60482" lon="6.67529">
        <ele>1573.6257128064</ele>
        <time>2019-07-06T10:39:19Z</time>
      </trkpt>
      <trkpt lat="45.60484" lon="6.67531">
        <ele>1573.604382387</ele>
        <time>2019-07-06T10:39:21Z</time>
      </trkpt>
      <trkpt lat="45.60487" lon="6.67533">
        <ele>1573.5862582835</ele>
        <time>2019-07-06T10:39:23Z</time>
      </trkpt>
      <trkpt lat="45.60489" lon="6.67535">
        <ele>1573.5737589287</ele>
        <time>2019-07-06T10:39:26Z</time>
      </trkpt>
      <trkpt lat="45.60491" lon="6.67537">
        <ele>1573.7486694343</ele>
        <time>2019-07-06T10:39:28Z</time>
      </trkpt>
      <trkpt lat="45.60492" lon="6.67539">
        <ele>1573.7328999147</ele>
        <time>2019-07-06T10:39:29Z</time>
      </trkpt>
      <trkpt lat="45.60494" lon="6.67541">
        <ele>1573.5840796989</ele>
        <time>2019-07-06T10:39:31Z</time>
      </trkpt>
      <trkpt lat="45.60496" lon="6.67542">
        <ele>1573.5201544399</ele>
        <time>2019-07-06T10:39:34Z</time>
      </trkpt>
      <trkpt lat="45.60497" lon="6.67544">
        <ele>1573.5792474214</ele>
        <time>2019-07-06T10:39:36Z</time>
      </trkpt>
      <trkpt lat="45.605" lon="6.67545">
        <ele>1573.6032423655</ele>
        <time>2019-07-06T10:39:38Z</time>
      </trkpt>
      <trkpt lat="45.60502" lon="6.67547">
        <ele>1573.6321813196</ele>
        <time>2019-07-06T10:39:39Z</time>
      </trkpt>
      <trkpt lat="45.60503" lon="6.67549">
        <ele>1573.7573998869</ele>
        <time>2019-07-06T10:39:41Z</time>
      </trkpt>
      <trkpt lat="45.60506" lon="6.6755">
        <ele>1574.0857409866</ele>
        <time>2019-07-06T10:39:44Z</time>
      </trkpt>
      <trkpt lat="45.60508" lon="6.67552">
        <ele>1574.0881338091</ele>
        <time>2019-07-06T10:39:47Z</time>
      </trkpt>
      <trkpt lat="45.6051" lon="6.67552">
        <ele>1574.2296482136</ele>
        <time>2019-07-06T10:39:49Z</time>
      </trkpt>
      <trkpt lat="45.60513" lon="6.67554">
        <ele>1574.2003296436</ele>
        <time>2019-07-06T10:39:51Z</time>
      </trkpt>
      <trkpt lat="45.60515" lon="6.67555">
        <ele>1574.2502181835</ele>
        <time>2019-07-06T10:39:53Z</time>
      </trkpt>
      <trkpt lat="45.60516" lon="6.67558">
        <ele>1574.3456144646</ele>
        <time>2019-07-06T10:39:55Z</time>
      </trkpt>
      <trkpt lat="45.60518" lon="6.67559">
        <ele>1574.5083063919</ele>
        <time>2019-07-06T10:39:57Z</time>
      </trkpt>
      <trkpt lat="45.6052" lon="6.67561">
        <ele>1574.8258447323</ele>
        <time>2019-07-06T10:39:59Z</time>
      </trkpt>
      <trkpt lat="45.60522" lon="6.67562">
        <ele>1575.181648546</ele>
        <time>2019-07-06T10:40:01Z</time>
      </trkpt>
      <trkpt lat="45.60525" lon="6.67564">
        <ele>1575.8241555706</ele>
        <time>2019-07-06T10:40:04Z</time>
      </trkpt>
      <trkpt lat="45.60527" lon="6.67565">
        <ele>1576.1799219678</ele>
        <time>2019-07-06T10:40:06Z</time>
      </trkpt>
      <trkpt lat="45.60529" lon="6.67568">
        <ele>1577.0660714429</ele>
        <time>2019-07-06T10:40:11Z</time>
      </trkpt>
      <trkpt lat="45.6053" lon="6.6757">
        <ele>1577.2635069446</ele>
        <time>2019-07-06T10:40:13Z</time>
      </trkpt>
      <trkpt lat="45.60533" lon="6.67571">
        <ele>1577.5591808611</ele>
        <time>2019-07-06T10:40:15Z</time>
      </trkpt>
      <trkpt lat="45.60534" lon="6.67572">
        <ele>1577.5845213089</ele>
        <time>2019-07-06T10:40:16Z</time>
      </trkpt>
      <trkpt lat="45.60537" lon="6.67574">
        <ele>1577.7074594699</ele>
        <time>2019-07-06T10:40:18Z</time>
      </trkpt>
      <trkpt lat="45.60539" lon="6.67574">
        <ele>1577.6248658543</ele>
        <time>2019-07-06T10:40:20Z</time>
      </trkpt>
      <trkpt lat="45.60542" lon="6.67576">
        <ele>1577.3677570071</ele>
        <time>2019-07-06T10:40:22Z</time>
      </trkpt>
      <trkpt lat="45.60543" lon="6.67578">
        <ele>1577.2908969453</ele>
        <time>2019-07-06T10:40:24Z</time>
      </trkpt>
      <trkpt lat="45.60545" lon="6.67579">
        <ele>1577.6323924507</ele>
        <time>2019-07-06T10:40:27Z</time>
      </trkpt>
      <trkpt lat="45.60547" lon="6.6758">
        <ele>1578.1584592211</ele>
        <time>2019-07-06T10:40:29Z</time>
      </trkpt>
      <trkpt lat="45.60549" lon="6.67582">
        <ele>1579.1627883712</ele>
        <time>2019-07-06T10:40:32Z</time>
      </trkpt>
      <trkpt lat="45.60551" lon="6.67582">
        <ele>1579.5729544445</ele>
        <time>2019-07-06T10:40:35Z</time>
      </trkpt>
      <trkpt lat="45.60554" lon="6.67581">
        <ele>1580.0446027075</ele>
        <time>2019-07-06T10:40:37Z</time>
      </trkpt>
      <trkpt lat="45.60556" lon="6.67582">
        <ele>1580.5895230726</ele>
        <time>2019-07-06T10:40:39Z</time>
      </trkpt>
      <trkpt lat="45.60558" lon="6.67582">
        <ele>1580.9828459899</ele>
        <time>2019-07-06T10:40:41Z</time>
      </trkpt>
      <trkpt lat="45.6056" lon="6.67582">
        <ele>1581.0989252041</ele>
        <time>2019-07-06T10:40:43Z</time>
      </trkpt>
      <trkpt lat="45.60563" lon="6.67581">
        <ele>1581.2173768319</ele>
        <time>2019-07-06T10:40:45Z</time>
      </trkpt>
      <trkpt lat="45.60566" lon="6.67582">
        <ele>1581.3947937892</ele>
        <time>2019-07-06T10:40:47Z</time>
      </trkpt>
      <trkpt lat="45.60569" lon="6.67584">
        <ele>1581.6996980315</ele>
        <time>2019-07-06T10:40:49Z</time>
      </trkpt>
      <trkpt lat="45.60571" lon="6.67585">
        <ele>1582.0107877291</ele>
        <time>2019-07-06T10:40:51Z</time>
      </trkpt>
      <trkpt lat="45.60573" lon="6.67586">
        <ele>1582.3706526608</ele>
        <time>2019-07-06T10:40:53Z</time>
      </trkpt>
      <trkpt lat="45.60576" lon="6.67587">
        <ele>1582.9909815183</ele>
        <time>2019-07-06T10:40:56Z</time>
      </trkpt>
      <trkpt lat="45.60577" lon="6.67588">
        <ele>1583.1767446433</ele>
        <time>2019-07-06T10:40:57Z</time>
      </trkpt>
      <trkpt lat="45.60579" lon="6.67588">
        <ele>1583.5201072306</ele>
        <time>2019-07-06T10:40:59Z</time>
      </trkpt>
      <trkpt lat="45.60582" lon="6.67588">
        <ele>1583.8176572592</ele>
        <time>2019-07-06T10:41:01Z</time>
      </trkpt>
      <trkpt lat="45.60584" lon="6.67587">
        <ele>1583.9296453085</ele>
        <time>2019-07-06T10:41:02Z</time>
      </trkpt>
      <trkpt lat="45.60586" lon="6.67587">
        <ele>1583.8989404812</ele>
        <time>2019-07-06T10:41:04Z</time>
      </trkpt>
      <trkpt lat="45.60589" lon="6.67587">
        <ele>1583.9206676413</ele>
        <time>2019-07-06T10:41:06Z</time>
      </trkpt>
      <trkpt lat="45.60591" lon="6.67588">
        <ele>1583.9301268183</ele>
        <time>2019-07-06T10:41:08Z</time>
      </trkpt>
      <trkpt lat="45.60593" lon="6.67587">
        <ele>1583.9571224681</ele>
        <time>2019-07-06T10:41:10Z</time>
      </trkpt>
      <trkpt lat="45.60595" lon="6.67587">
        <ele>1584.2605547776</ele>
        <time>2019-07-06T10:41:12Z</time>
      </trkpt>
      <trkpt lat="45.60598" lon="6.67587">
        <ele>1585.0894580393</ele>
        <time>2019-07-06T10:41:15Z</time>
      </trkpt>
      <trkpt lat="45.606" lon="6.67587">
        <ele>1585.9059201392</ele>
        <time>2019-07-06T10:41:18Z</time>
      </trkpt>
      <trkpt lat="45.60601" lon="6.67588">
        <ele>1586.2548654519</ele>
        <time>2019-07-06T10:41:20Z</time>
      </trkpt>
      <trkpt lat="45.60604" lon="6.67586">
        <ele>1586.3681897186</ele>
        <time>2019-07-06T10:41:22Z</time>
      </trkpt>
      <trkpt lat="45.60606" lon="6.67586">
        <ele>1586.2757967701</ele>
        <time>2019-07-06T10:41:24Z</time>
      </trkpt>
      <trkpt lat="45.60608" lon="6.67587">
        <ele>1586.3068401875</ele>
        <time>2019-07-06T10:41:28Z</time>
      </trkpt>
      <trkpt lat="45.6061" lon="6.67588">
        <ele>1586.5914131867</ele>
        <time>2019-07-06T10:41:31Z</time>
      </trkpt>
      <trkpt lat="45.60612" lon="6.67589">
        <ele>1586.8284762445</ele>
        <time>2019-07-06T10:41:33Z</time>
      </trkpt>
      <trkpt lat="45.60615" lon="6.67589">
        <ele>1586.9515178192</ele>
        <time>2019-07-06T10:41:35Z</time>
      </trkpt>
      <trkpt lat="45.60617" lon="6.67589">
        <ele>1586.7355516989</ele>
        <time>2019-07-06T10:41:37Z</time>
      </trkpt>
      <trkpt lat="45.60619" lon="6.67591">
        <ele>1586.7689546019</ele>
        <time>2019-07-06T10:41:39Z</time>
      </trkpt>
      <trkpt lat="45.6062" lon="6.67593">
        <ele>1586.9134166273</ele>
        <time>2019-07-06T10:41:42Z</time>
      </trkpt>
      <trkpt lat="45.60623" lon="6.67596">
        <ele>1586.9236881112</ele>
        <time>2019-07-06T10:41:44Z</time>
      </trkpt>
      <trkpt lat="45.60625" lon="6.67599">
        <ele>1587.2841158615</ele>
        <time>2019-07-06T10:41:47Z</time>
      </trkpt>
      <trkpt lat="45.60627" lon="6.67601">
        <ele>1587.2950819105</ele>
        <time>2019-07-06T10:41:50Z</time>
      </trkpt>
      <trkpt lat="45.60628" lon="6.67603">
        <ele>1587.1189127181</ele>
        <time>2019-07-06T10:41:53Z</time>
      </trkpt>
      <trkpt lat="45.6063" lon="6.67606">
        <ele>1587.0955785306</ele>
        <time>2019-07-06T10:41:55Z</time>
      </trkpt>
      <trkpt lat="45.60632" lon="6.67608">
        <ele>1587.0901821338</ele>
        <time>2019-07-06T10:41:58Z</time>
      </trkpt>
      <trkpt lat="45.60634" lon="6.67609">
        <ele>1586.9365236867</ele>
        <time>2019-07-06T10:42:00Z</time>
      </trkpt>
      <trkpt lat="45.60637" lon="6.6761">
        <ele>1587.015816053</ele>
        <time>2019-07-06T10:42:02Z</time>
      </trkpt>
      <trkpt lat="45.60639" lon="6.6761">
        <ele>1587.2770778901</ele>
        <time>2019-07-06T10:42:04Z</time>
      </trkpt>
      <trkpt lat="45.60641" lon="6.67612">
        <ele>1587.4025508222</ele>
        <time>2019-07-06T10:42:06Z</time>
      </trkpt>
      <trkpt lat="45.60644" lon="6.67614">
        <ele>1587.610770723</ele>
        <time>2019-07-06T10:42:08Z</time>
      </trkpt>
      <trkpt lat="45.60646" lon="6.67614">
        <ele>1587.8182494906</ele>
        <time>2019-07-06T10:42:10Z</time>
      </trkpt>
      <trkpt lat="45.60648" lon="6.67616">
        <ele>1588.7945064002</ele>
        <time>2019-07-06T10:42:13Z</time>
      </trkpt>
      <trkpt lat="45.6065" lon="6.67618">
        <ele>1590.0295537337</ele>
        <time>2019-07-06T10:42:16Z</time>
      </trkpt>
      <trkpt lat="45.60653" lon="6.6762">
        <ele>1591.0007974347</ele>
        <time>2019-07-06T10:42:18Z</time>
      </trkpt>
      <trkpt lat="45.60655" lon="6.67621">
        <ele>1591.8664430726</ele>
        <time>2019-07-06T10:42:21Z</time>
      </trkpt>
      <trkpt lat="45.60657" lon="6.67623">
        <ele>1592.7086741391</ele>
        <time>2019-07-06T10:42:24Z</time>
      </trkpt>
      <trkpt lat="45.60658" lon="6.67625">
        <ele>1592.9611619928</ele>
        <time>2019-07-06T10:42:25Z</time>
      </trkpt>
      <trkpt lat="45.6066" lon="6.67627">
        <ele>1593.4480548078</ele>
        <time>2019-07-06T10:42:27Z</time>
      </trkpt>
      <trkpt lat="45.60662" lon="6.67628">
        <ele>1593.656261825</ele>
        <time>2019-07-06T10:42:29Z</time>
      </trkpt>
      <trkpt lat="45.60664" lon="6.67631">
        <ele>1593.5515887879</ele>
        <time>2019-07-06T10:42:32Z</time>
      </trkpt>
      <trkpt lat="45.60667" lon="6.67631">
        <ele>1594.1679140088</ele>
        <time>2019-07-06T10:42:34Z</time>
      </trkpt>
      <trkpt lat="45.60669" lon="6.67632">
        <ele>1594.8299734857</ele>
        <time>2019-07-06T10:42:37Z</time>
      </trkpt>
      <trkpt lat="45.60671" lon="6.6763">
        <ele>1595.1922408798</ele>
        <time>2019-07-06T10:42:39Z</time>
      </trkpt>
      <trkpt lat="45.60674" lon="6.6763">
        <ele>1595.5855770294</ele>
        <time>2019-07-06T10:42:41Z</time>
      </trkpt>
      <trkpt lat="45.60676" lon="6.6763">
        <ele>1595.7828454713</ele>
        <time>2019-07-06T10:42:44Z</time>
      </trkpt>
      <trkpt lat="45.60679" lon="6.6763">
        <ele>1595.8305563639</ele>
        <time>2019-07-06T10:42:46Z</time>
      </trkpt>
      <trkpt lat="45.60681" lon="6.67631">
        <ele>1595.6167062819</ele>
        <time>2019-07-06T10:42:48Z</time>
      </trkpt>
      <trkpt lat="45.60684" lon="6.67632">
        <ele>1595.7379497953</ele>
        <time>2019-07-06T10:42:50Z</time>
      </trkpt>
      <trkpt lat="45.60686" lon="6.67632">
        <ele>1596.3063633212</ele>
        <time>2019-07-06T10:42:52Z</time>
      </trkpt>
      <trkpt lat="45.60689" lon="6.67633">
        <ele>1597.1590018761</ele>
        <time>2019-07-06T10:42:54Z</time>
      </trkpt>
      <trkpt lat="45.60692" lon="6.67633">
        <ele>1597.8404967624</ele>
        <time>2019-07-06T10:42:56Z</time>
      </trkpt>
      <trkpt lat="45.60695" lon="6.67633">
        <ele>1598.1519056583</ele>
        <time>2019-07-06T10:42:59Z</time>
      </trkpt>
      <trkpt lat="45.60698" lon="6.67634">
        <ele>1598.6069160519</ele>
        <time>2019-07-06T10:43:01Z</time>
      </trkpt>
      <trkpt lat="45.60701" lon="6.67634">
        <ele>1598.9475802787</ele>
        <time>2019-07-06T10:43:03Z</time>
      </trkpt>
      <trkpt lat="45.60703" lon="6.67635">
        <ele>1599.0844164016</ele>
        <time>2019-07-06T10:43:05Z</time>
      </trkpt>
      <trkpt lat="45.60706" lon="6.67636">
        <ele>1599.3678402634</ele>
        <time>2019-07-06T10:43:07Z</time>
      </trkpt>
      <trkpt lat="45.60708" lon="6.67637">
        <ele>1599.8703815643</ele>
        <time>2019-07-06T10:43:09Z</time>
      </trkpt>
      <trkpt lat="45.6071" lon="6.67637">
        <ele>1600.3322361054</ele>
        <time>2019-07-06T10:43:11Z</time>
      </trkpt>
      <trkpt lat="45.60713" lon="6.67638">
        <ele>1600.7995280743</ele>
        <time>2019-07-06T10:43:14Z</time>
      </trkpt>
      <trkpt lat="45.60716" lon="6.67638">
        <ele>1601.1844810541</ele>
        <time>2019-07-06T10:43:16Z</time>
      </trkpt>
      <trkpt lat="45.60718" lon="6.67638">
        <ele>1601.3980670512</ele>
        <time>2019-07-06T10:43:17Z</time>
      </trkpt>
      <trkpt lat="45.60719" lon="6.67638">
        <ele>1601.7917974946</ele>
        <time>2019-07-06T10:43:19Z</time>
      </trkpt>
      <trkpt lat="45.60722" lon="6.67639">
        <ele>1601.9661954545</ele>
        <time>2019-07-06T10:43:21Z</time>
      </trkpt>
      <trkpt lat="45.60724" lon="6.67641">
        <ele>1602.3144972169</ele>
        <time>2019-07-06T10:43:23Z</time>
      </trkpt>
      <trkpt lat="45.60727" lon="6.67641">
        <ele>1602.7989786001</ele>
        <time>2019-07-06T10:43:25Z</time>
      </trkpt>
      <trkpt lat="45.60729" lon="6.67642">
        <ele>1603.889198062</ele>
        <time>2019-07-06T10:43:28Z</time>
      </trkpt>
      <trkpt lat="45.60732" lon="6.67643">
        <ele>1604.7380983749</ele>
        <time>2019-07-06T10:43:30Z</time>
      </trkpt>
      <trkpt lat="45.60733" lon="6.67644">
        <ele>1605.0511495864</ele>
        <time>2019-07-06T10:43:31Z</time>
      </trkpt>
      <trkpt lat="45.60736" lon="6.67646">
        <ele>1605.3139425287</ele>
        <time>2019-07-06T10:43:33Z</time>
      </trkpt>
      <trkpt lat="45.60739" lon="6.67647">
        <ele>1605.3209467638</ele>
        <time>2019-07-06T10:43:35Z</time>
      </trkpt>
      <trkpt lat="45.60741" lon="6.67649">
        <ele>1605.1551976907</ele>
        <time>2019-07-06T10:43:37Z</time>
      </trkpt>
      <trkpt lat="45.60742" lon="6.6765">
        <ele>1605.1240044753</ele>
        <time>2019-07-06T10:43:39Z</time>
      </trkpt>
      <trkpt lat="45.60745" lon="6.67652">
        <ele>1605.5262761046</ele>
        <time>2019-07-06T10:43:41Z</time>
      </trkpt>
      <trkpt lat="45.60748" lon="6.67652">
        <ele>1606.2762986742</ele>
        <time>2019-07-06T10:43:43Z</time>
      </trkpt>
      <trkpt lat="45.6075" lon="6.67654">
        <ele>1606.766462671</ele>
        <time>2019-07-06T10:43:45Z</time>
      </trkpt>
      <trkpt lat="45.60752" lon="6.67655">
        <ele>1607.1774986239</ele>
        <time>2019-07-06T10:43:47Z</time>
      </trkpt>
      <trkpt lat="45.60756" lon="6.67658">
        <ele>1607.803734826</ele>
        <time>2019-07-06T10:43:50Z</time>
      </trkpt>
      <trkpt lat="45.60759" lon="6.67659">
        <ele>1608.2002988588</ele>
        <time>2019-07-06T10:43:53Z</time>
      </trkpt>
      <trkpt lat="45.60761" lon="6.67661">
        <ele>1608.5450713392</ele>
        <time>2019-07-06T10:43:55Z</time>
      </trkpt>
      <trkpt lat="45.60763" lon="6.67662">
        <ele>1609.0864288924</ele>
        <time>2019-07-06T10:43:57Z</time>
      </trkpt>
      <trkpt lat="45.60765" lon="6.67664">
        <ele>1609.3967098244</ele>
        <time>2019-07-06T10:43:59Z</time>
      </trkpt>
      <trkpt lat="45.60767" lon="6.67664">
        <ele>1609.3362139171</ele>
        <time>2019-07-06T10:44:01Z</time>
      </trkpt>
      <trkpt lat="45.60769" lon="6.67661">
        <ele>1609.2608393672</ele>
        <time>2019-07-06T10:44:04Z</time>
      </trkpt>
      <trkpt lat="45.60771" lon="6.6766">
        <ele>1609.7576549717</ele>
        <time>2019-07-06T10:44:07Z</time>
      </trkpt>
      <trkpt lat="45.60773" lon="6.67658">
        <ele>1609.5928861639</ele>
        <time>2019-07-06T10:44:09Z</time>
      </trkpt>
      <trkpt lat="45.60775" lon="6.67656">
        <ele>1609.3540822135</ele>
        <time>2019-07-06T10:44:11Z</time>
      </trkpt>
      <trkpt lat="45.60778" lon="6.67655">
        <ele>1608.9972482621</ele>
        <time>2019-07-06T10:44:13Z</time>
      </trkpt>
      <trkpt lat="45.6078" lon="6.67655">
        <ele>1608.5909244077</ele>
        <time>2019-07-06T10:44:15Z</time>
      </trkpt>
      <trkpt lat="45.60783" lon="6.67654">
        <ele>1608.5123354708</ele>
        <time>2019-07-06T10:44:17Z</time>
      </trkpt>
      <trkpt lat="45.60786" lon="6.67654">
        <ele>1608.4688211476</ele>
        <time>2019-07-06T10:44:19Z</time>
      </trkpt>
      <trkpt lat="45.6079" lon="6.67654">
        <ele>1608.2074869383</ele>
        <time>2019-07-06T10:44:21Z</time>
      </trkpt>
      <trkpt lat="45.60793" lon="6.67653">
        <ele>1608.2729588027</ele>
        <time>2019-07-06T10:44:24Z</time>
      </trkpt>
      <trkpt lat="45.60795" lon="6.67653">
        <ele>1608.3403235456</ele>
        <time>2019-07-06T10:44:25Z</time>
      </trkpt>
      <trkpt lat="45.60797" lon="6.67652">
        <ele>1608.4550925446</ele>
        <time>2019-07-06T10:44:26Z</time>
      </trkpt>
      <trkpt lat="45.608" lon="6.67652">
        <ele>1608.1665023434</ele>
        <time>2019-07-06T10:44:29Z</time>
      </trkpt>
      <trkpt lat="45.60802" lon="6.67652">
        <ele>1607.8803682779</ele>
        <time>2019-07-06T10:44:31Z</time>
      </trkpt>
      <trkpt lat="45.60804" lon="6.67653">
        <ele>1607.7847869266</ele>
        <time>2019-07-06T10:44:33Z</time>
      </trkpt>
      <trkpt lat="45.60806" lon="6.67654">
        <ele>1607.938105666</ele>
        <time>2019-07-06T10:44:34Z</time>
      </trkpt>
      <trkpt lat="45.60809" lon="6.67655">
        <ele>1608.2585231914</ele>
        <time>2019-07-06T10:44:37Z</time>
      </trkpt>
      <trkpt lat="45.60811" lon="6.67657">
        <ele>1608.3660957156</ele>
        <time>2019-07-06T10:44:39Z</time>
      </trkpt>
      <trkpt lat="45.60814" lon="6.67658">
        <ele>1608.6102982106</ele>
        <time>2019-07-06T10:44:42Z</time>
      </trkpt>
      <trkpt lat="45.60816" lon="6.67658">
        <ele>1608.434054916</ele>
        <time>2019-07-06T10:44:44Z</time>
      </trkpt>
      <trkpt lat="45.60818" lon="6.67659">
        <ele>1608.3023242384</ele>
        <time>2019-07-06T10:44:46Z</time>
      </trkpt>
      <trkpt lat="45.60821" lon="6.67662">
        <ele>1608.2760949388</ele>
        <time>2019-07-06T10:44:48Z</time>
      </trkpt>
      <trkpt lat="45.60823" lon="6.67664">
        <ele>1608.256367588</ele>
        <time>2019-07-06T10:44:50Z</time>
      </trkpt>
      <trkpt lat="45.60826" lon="6.67665">
        <ele>1608.3240341231</ele>
        <time>2019-07-06T10:44:53Z</time>
      </trkpt>
      <trkpt lat="45.60829" lon="6.67666">
        <ele>1608.2510685949</ele>
        <time>2019-07-06T10:44:56Z</time>
      </trkpt>
      <trkpt lat="45.60831" lon="6.67667">
        <ele>1608.4831983191</ele>
        <time>2019-07-06T10:44:58Z</time>
      </trkpt>
      <trkpt lat="45.60834" lon="6.67668">
        <ele>1609.0720703135</ele>
        <time>2019-07-06T10:45:00Z</time>
      </trkpt>
      <trkpt lat="45.60836" lon="6.67668">
        <ele>1609.3134664297</ele>
        <time>2019-07-06T10:45:01Z</time>
      </trkpt>
      <trkpt lat="45.60839" lon="6.67667">
        <ele>1609.7792973113</ele>
        <time>2019-07-06T10:45:03Z</time>
      </trkpt>
      <trkpt lat="45.60841" lon="6.67668">
        <ele>1610.4484448526</ele>
        <time>2019-07-06T10:45:05Z</time>
      </trkpt>
      <trkpt lat="45.60844" lon="6.6767">
        <ele>1611.0232762315</ele>
        <time>2019-07-06T10:45:07Z</time>
      </trkpt>
      <trkpt lat="45.60846" lon="6.67671">
        <ele>1611.613308096</ele>
        <time>2019-07-06T10:45:09Z</time>
      </trkpt>
      <trkpt lat="45.60848" lon="6.67673">
        <ele>1611.9009164007</ele>
        <time>2019-07-06T10:45:10Z</time>
      </trkpt>
      <trkpt lat="45.6085" lon="6.67675">
        <ele>1612.447531002</ele>
        <time>2019-07-06T10:45:12Z</time>
      </trkpt>
      <trkpt lat="45.60852" lon="6.67676">
        <ele>1612.8964941117</ele>
        <time>2019-07-06T10:45:13Z</time>
      </trkpt>
      <trkpt lat="45.60855" lon="6.67678">
        <ele>1613.9461877443</ele>
        <time>2019-07-06T10:45:17Z</time>
      </trkpt>
      <trkpt lat="45.60857" lon="6.6768">
        <ele>1613.9186751336</ele>
        <time>2019-07-06T10:45:19Z</time>
      </trkpt>
      <trkpt lat="45.6086" lon="6.67681">
        <ele>1613.9367079156</ele>
        <time>2019-07-06T10:45:21Z</time>
      </trkpt>
      <trkpt lat="45.60863" lon="6.67682">
        <ele>1614.0064826815</ele>
        <time>2019-07-06T10:45:24Z</time>
      </trkpt>
      <trkpt lat="45.60864" lon="6.67684">
        <ele>1613.9491674056</ele>
        <time>2019-07-06T10:45:25Z</time>
      </trkpt>
      <trkpt lat="45.60866" lon="6.67685">
        <ele>1613.9423096858</ele>
        <time>2019-07-06T10:45:27Z</time>
      </trkpt>
      <trkpt lat="45.60869" lon="6.67687">
        <ele>1614.0145315049</ele>
        <time>2019-07-06T10:45:29Z</time>
      </trkpt>
      <trkpt lat="45.60871" lon="6.67689">
        <ele>1613.9649629682</ele>
        <time>2019-07-06T10:45:31Z</time>
      </trkpt>
      <trkpt lat="45.60873" lon="6.6769">
        <ele>1614.1092531064</ele>
        <time>2019-07-06T10:45:32Z</time>
      </trkpt>
      <trkpt lat="45.60874" lon="6.67692">
        <ele>1614.0457194957</ele>
        <time>2019-07-06T10:45:34Z</time>
      </trkpt>
      <trkpt lat="45.60877" lon="6.67694">
        <ele>1614.1354227384</ele>
        <time>2019-07-06T10:45:36Z</time>
      </trkpt>
      <trkpt lat="45.60878" lon="6.67697">
        <ele>1614.5485923663</ele>
        <time>2019-07-06T10:45:39Z</time>
      </trkpt>
      <trkpt lat="45.6088" lon="6.67698">
        <ele>1614.6132002248</ele>
        <time>2019-07-06T10:45:41Z</time>
      </trkpt>
      <trkpt lat="45.60882" lon="6.67699">
        <ele>1614.6282365464</ele>
        <time>2019-07-06T10:45:42Z</time>
      </trkpt>
      <trkpt lat="45.60884" lon="6.677">
        <ele>1614.6801856381</ele>
        <time>2019-07-06T10:45:43Z</time>
      </trkpt>
      <trkpt lat="45.60886" lon="6.67701">
        <ele>1614.6607903917</ele>
        <time>2019-07-06T10:45:45Z</time>
      </trkpt>
      <trkpt lat="45.60888" lon="6.67701">
        <ele>1614.3006446029</ele>
        <time>2019-07-06T10:45:47Z</time>
      </trkpt>
      <trkpt lat="45.6089" lon="6.67702">
        <ele>1614.278050177</ele>
        <time>2019-07-06T10:45:49Z</time>
      </trkpt>
      <trkpt lat="45.60892" lon="6.67703">
        <ele>1614.4306173436</ele>
        <time>2019-07-06T10:45:51Z</time>
      </trkpt>
      <trkpt lat="45.60894" lon="6.67704">
        <ele>1614.7789979685</ele>
        <time>2019-07-06T10:45:53Z</time>
      </trkpt>
      <trkpt lat="45.60896" lon="6.67705">
        <ele>1614.9790025318</ele>
        <time>2019-07-06T10:45:54Z</time>
      </trkpt>
      <trkpt lat="45.60899" lon="6.67707">
        <ele>1615.4321063725</ele>
        <time>2019-07-06T10:45:56Z</time>
      </trkpt>
      <trkpt lat="45.609" lon="6.67709">
        <ele>1615.6763347898</ele>
        <time>2019-07-06T10:45:58Z</time>
      </trkpt>
      <trkpt lat="45.60902" lon="6.67712">
        <ele>1615.6273561879</ele>
        <time>2019-07-06T10:46:00Z</time>
      </trkpt>
      <trkpt lat="45.60904" lon="6.67715">
        <ele>1615.6209741382</ele>
        <time>2019-07-06T10:46:02Z</time>
      </trkpt>
      <trkpt lat="45.60905" lon="6.67717">
        <ele>1615.4722591784</ele>
        <time>2019-07-06T10:46:04Z</time>
      </trkpt>
      <trkpt lat="45.60906" lon="6.67719">
        <ele>1615.3819787365</ele>
        <time>2019-07-06T10:46:05Z</time>
      </trkpt>
      <trkpt lat="45.60907" lon="6.67723">
        <ele>1615.3812207059</ele>
        <time>2019-07-06T10:46:07Z</time>
      </trkpt>
      <trkpt lat="45.60909" lon="6.67726">
        <ele>1615.5588151592</ele>
        <time>2019-07-06T10:46:09Z</time>
      </trkpt>
      <trkpt lat="45.6091" lon="6.67728">
        <ele>1615.7633229794</ele>
        <time>2019-07-06T10:46:11Z</time>
      </trkpt>
      <trkpt lat="45.60912" lon="6.67732">
        <ele>1615.9020556515</ele>
        <time>2019-07-06T10:46:13Z</time>
      </trkpt>
      <trkpt lat="45.60913" lon="6.67737">
        <ele>1615.8226432721</ele>
        <time>2019-07-06T10:46:15Z</time>
      </trkpt>
      <trkpt lat="45.60914" lon="6.67739">
        <ele>1615.7720870518</ele>
        <time>2019-07-06T10:46:16Z</time>
      </trkpt>
      <trkpt lat="45.60916" lon="6.67743">
        <ele>1615.3791596564</ele>
        <time>2019-07-06T10:46:18Z</time>
      </trkpt>
      <trkpt lat="45.60917" lon="6.67746">
        <ele>1615.23482058</ele>
        <time>2019-07-06T10:46:19Z</time>
      </trkpt>
      <trkpt lat="45.60917" lon="6.67748">
        <ele>1614.9432318266</ele>
        <time>2019-07-06T10:46:21Z</time>
      </trkpt>
      <trkpt lat="45.60918" lon="6.67752">
        <ele>1614.8371465318</ele>
        <time>2019-07-06T10:46:23Z</time>
      </trkpt>
      <trkpt lat="45.60919" lon="6.67754">
        <ele>1614.7488554226</ele>
        <time>2019-07-06T10:46:24Z</time>
      </trkpt>
      <trkpt lat="45.6092" lon="6.67756">
        <ele>1614.5021908824</ele>
        <time>2019-07-06T10:46:26Z</time>
      </trkpt>
      <trkpt lat="45.60922" lon="6.67758">
        <ele>1614.5584324236</ele>
        <time>2019-07-06T10:46:27Z</time>
      </trkpt>
      <trkpt lat="45.60923" lon="6.67761">
        <ele>1614.7499637681</ele>
        <time>2019-07-06T10:46:29Z</time>
      </trkpt>
      <trkpt lat="45.60925" lon="6.67765">
        <ele>1614.7076971269</ele>
        <time>2019-07-06T10:46:32Z</time>
      </trkpt>
      <trkpt lat="45.60927" lon="6.67768">
        <ele>1614.3750040234</ele>
        <time>2019-07-06T10:46:34Z</time>
      </trkpt>
      <trkpt lat="45.60928" lon="6.67772">
        <ele>1614.5679213065</ele>
        <time>2019-07-06T10:46:36Z</time>
      </trkpt>
      <trkpt lat="45.6093" lon="6.67776">
        <ele>1614.4174006694</ele>
        <time>2019-07-06T10:46:38Z</time>
      </trkpt>
      <trkpt lat="45.6093" lon="6.67779">
        <ele>1614.1613386691</ele>
        <time>2019-07-06T10:46:40Z</time>
      </trkpt>
      <trkpt lat="45.60931" lon="6.67783">
        <ele>1613.9923896117</ele>
        <time>2019-07-06T10:46:42Z</time>
      </trkpt>
      <trkpt lat="45.60933" lon="6.67785">
        <ele>1613.7608310914</ele>
        <time>2019-07-06T10:46:44Z</time>
      </trkpt>
      <trkpt lat="45.60934" lon="6.67788">
        <ele>1613.9430942015</ele>
        <time>2019-07-06T10:46:46Z</time>
      </trkpt>
      <trkpt lat="45.60935" lon="6.67791">
        <ele>1614.1487418918</ele>
        <time>2019-07-06T10:46:48Z</time>
      </trkpt>
      <trkpt lat="45.60937" lon="6.67794">
        <ele>1614.2534293344</ele>
        <time>2019-07-06T10:46:50Z</time>
      </trkpt>
      <trkpt lat="45.60939" lon="6.67799">
        <ele>1614.3508779404</ele>
        <time>2019-07-06T10:46:53Z</time>
      </trkpt>
      <trkpt lat="45.60939" lon="6.67801">
        <ele>1614.318294411</ele>
        <time>2019-07-06T10:46:54Z</time>
      </trkpt>
      <trkpt lat="45.60942" lon="6.67804">
        <ele>1614.2458215018</ele>
        <time>2019-07-06T10:46:56Z</time>
      </trkpt>
      <trkpt lat="45.60944" lon="6.67806">
        <ele>1614.420759534</ele>
        <time>2019-07-06T10:46:58Z</time>
      </trkpt>
      <trkpt lat="45.60945" lon="6.67809">
        <ele>1614.4820377827</ele>
        <time>2019-07-06T10:47:00Z</time>
      </trkpt>
      <trkpt lat="45.60946" lon="6.67811">
        <ele>1614.5402899867</ele>
        <time>2019-07-06T10:47:02Z</time>
      </trkpt>
      <trkpt lat="45.60948" lon="6.67814">
        <ele>1614.405237899</ele>
        <time>2019-07-06T10:47:04Z</time>
      </trkpt>
      <trkpt lat="45.6095" lon="6.67816">
        <ele>1614.4112862101</ele>
        <time>2019-07-06T10:47:06Z</time>
      </trkpt>
      <trkpt lat="45.60952" lon="6.67818">
        <ele>1614.6943387724</ele>
        <time>2019-07-06T10:47:08Z</time>
      </trkpt>
      <trkpt lat="45.60955" lon="6.6782">
        <ele>1615.1751264976</ele>
        <time>2019-07-06T10:47:10Z</time>
      </trkpt>
      <trkpt lat="45.60957" lon="6.67822">
        <ele>1615.4614407355</ele>
        <time>2019-07-06T10:47:12Z</time>
      </trkpt>
      <trkpt lat="45.6096" lon="6.67825">
        <ele>1615.5769043545</ele>
        <time>2019-07-06T10:47:14Z</time>
      </trkpt>
      <trkpt lat="45.60961" lon="6.67827">
        <ele>1615.9099541141</ele>
        <time>2019-07-06T10:47:16Z</time>
      </trkpt>
      <trkpt lat="45.60964" lon="6.67831">
        <ele>1616.2710390963</ele>
        <time>2019-07-06T10:47:18Z</time>
      </trkpt>
      <trkpt lat="45.60966" lon="6.67834">
        <ele>1616.5441833517</ele>
        <time>2019-07-06T10:47:20Z</time>
      </trkpt>
      <trkpt lat="45.60969" lon="6.67838">
        <ele>1616.7497546955</ele>
        <time>2019-07-06T10:47:22Z</time>
      </trkpt>
      <trkpt lat="45.6097" lon="6.6784">
        <ele>1616.7177586908</ele>
        <time>2019-07-06T10:47:24Z</time>
      </trkpt>
      <trkpt lat="45.60971" lon="6.67843">
        <ele>1616.470887202</ele>
        <time>2019-07-06T10:47:26Z</time>
      </trkpt>
      <trkpt lat="45.60973" lon="6.67846">
        <ele>1616.0138919678</ele>
        <time>2019-07-06T10:47:28Z</time>
      </trkpt>
      <trkpt lat="45.60975" lon="6.67849">
        <ele>1615.5680348286</ele>
        <time>2019-07-06T10:47:30Z</time>
      </trkpt>
      <trkpt lat="45.60978" lon="6.67852">
        <ele>1614.7395389932</ele>
        <time>2019-07-06T10:47:33Z</time>
      </trkpt>
      <trkpt lat="45.6098" lon="6.67852">
        <ele>1614.8595673814</ele>
        <time>2019-07-06T10:47:35Z</time>
      </trkpt>
      <trkpt lat="45.60982" lon="6.67854">
        <ele>1615.4702272454</ele>
        <time>2019-07-06T10:47:37Z</time>
      </trkpt>
      <trkpt lat="45.60984" lon="6.67856">
        <ele>1616.1919990708</ele>
        <time>2019-07-06T10:47:40Z</time>
      </trkpt>
      <trkpt lat="45.60986" lon="6.67859">
        <ele>1616.8781372688</ele>
        <time>2019-07-06T10:47:43Z</time>
      </trkpt>
      <trkpt lat="45.60989" lon="6.67861">
        <ele>1617.3057609391</ele>
        <time>2019-07-06T10:47:46Z</time>
      </trkpt>
      <trkpt lat="45.60992" lon="6.67862">
        <ele>1617.7780388</ele>
        <time>2019-07-06T10:47:48Z</time>
      </trkpt>
      <trkpt lat="45.60994" lon="6.67864">
        <ele>1618.5018842646</ele>
        <time>2019-07-06T10:47:50Z</time>
      </trkpt>
      <trkpt lat="45.60996" lon="6.67866">
        <ele>1618.8557334238</ele>
        <time>2019-07-06T10:47:52Z</time>
      </trkpt>
      <trkpt lat="45.60999" lon="6.67869">
        <ele>1619.1793758255</ele>
        <time>2019-07-06T10:47:54Z</time>
      </trkpt>
      <trkpt lat="45.61002" lon="6.6787">
        <ele>1619.4239485546</ele>
        <time>2019-07-06T10:47:56Z</time>
      </trkpt>
      <trkpt lat="45.61004" lon="6.67871">
        <ele>1619.6615557563</ele>
        <time>2019-07-06T10:47:58Z</time>
      </trkpt>
      <trkpt lat="45.61006" lon="6.67872">
        <ele>1619.6776373276</ele>
        <time>2019-07-06T10:48:00Z</time>
      </trkpt>
      <trkpt lat="45.61009" lon="6.67872">
        <ele>1619.9538837093</ele>
        <time>2019-07-06T10:48:02Z</time>
      </trkpt>
      <trkpt lat="45.61011" lon="6.67873">
        <ele>1620.2597333572</ele>
        <time>2019-07-06T10:48:04Z</time>
      </trkpt>
      <trkpt lat="45.61014" lon="6.67873">
        <ele>1620.3863659728</ele>
        <time>2019-07-06T10:48:06Z</time>
      </trkpt>
      <trkpt lat="45.61016" lon="6.67873">
        <ele>1620.5249683195</ele>
        <time>2019-07-06T10:48:07Z</time>
      </trkpt>
      <trkpt lat="45.61018" lon="6.67873">
        <ele>1620.7240367523</ele>
        <time>2019-07-06T10:48:08Z</time>
      </trkpt>
      <trkpt lat="45.61019" lon="6.67873">
        <ele>1620.9245559819</ele>
        <time>2019-07-06T10:48:09Z</time>
      </trkpt>
      <trkpt lat="45.61022" lon="6.67872">
        <ele>1621.3736861527</ele>
        <time>2019-07-06T10:48:11Z</time>
      </trkpt>
      <trkpt lat="45.61024" lon="6.67872">
        <ele>1621.6026517476</ele>
        <time>2019-07-06T10:48:12Z</time>
      </trkpt>
      <trkpt lat="45.61026" lon="6.67872">
        <ele>1621.7313915511</ele>
        <time>2019-07-06T10:48:13Z</time>
      </trkpt>
      <trkpt lat="45.61028" lon="6.67871">
        <ele>1621.6331013527</ele>
        <time>2019-07-06T10:48:15Z</time>
      </trkpt>
      <trkpt lat="45.6103" lon="6.67871">
        <ele>1621.309258624</ele>
        <time>2019-07-06T10:48:16Z</time>
      </trkpt>
      <trkpt lat="45.61032" lon="6.67871">
        <ele>1620.8782767337</ele>
        <time>2019-07-06T10:48:17Z</time>
      </trkpt>
      <trkpt lat="45.61035" lon="6.67872">
        <ele>1619.8511675339</ele>
        <time>2019-07-06T10:48:19Z</time>
      </trkpt>
      <trkpt lat="45.61039" lon="6.67872">
        <ele>1619.2402092369</ele>
        <time>2019-07-06T10:48:21Z</time>
      </trkpt>
      <trkpt lat="45.61041" lon="6.67873">
        <ele>1618.8853823809</ele>
        <time>2019-07-06T10:48:23Z</time>
      </trkpt>
      <trkpt lat="45.61044" lon="6.67874">
        <ele>1618.6166934568</ele>
        <time>2019-07-06T10:48:25Z</time>
      </trkpt>
      <trkpt lat="45.61046" lon="6.67875">
        <ele>1618.1931423003</ele>
        <time>2019-07-06T10:48:28Z</time>
      </trkpt>
      <trkpt lat="45.61049" lon="6.67875">
        <ele>1617.5937595574</ele>
        <time>2019-07-06T10:48:30Z</time>
      </trkpt>
      <trkpt lat="45.61051" lon="6.67875">
        <ele>1617.1323576512</ele>
        <time>2019-07-06T10:48:31Z</time>
      </trkpt>
      <trkpt lat="45.61053" lon="6.67876">
        <ele>1616.7001956838</ele>
        <time>2019-07-06T10:48:32Z</time>
      </trkpt>
      <trkpt lat="45.61055" lon="6.67877">
        <ele>1616.2892004554</ele>
        <time>2019-07-06T10:48:34Z</time>
      </trkpt>
      <trkpt lat="45.61057" lon="6.67878">
        <ele>1616.3298400605</ele>
        <time>2019-07-06T10:48:36Z</time>
      </trkpt>
      <trkpt lat="45.61059" lon="6.67879">
        <ele>1616.4116534852</ele>
        <time>2019-07-06T10:48:38Z</time>
      </trkpt>
      <trkpt lat="45.61062" lon="6.6788">
        <ele>1616.442763754</ele>
        <time>2019-07-06T10:48:40Z</time>
      </trkpt>
      <trkpt lat="45.61065" lon="6.67881">
        <ele>1616.4108308829</ele>
        <time>2019-07-06T10:48:42Z</time>
      </trkpt>
      <trkpt lat="45.61067" lon="6.67882">
        <ele>1616.5641762957</ele>
        <time>2019-07-06T10:48:44Z</time>
      </trkpt>
      <trkpt lat="45.61069" lon="6.67883">
        <ele>1616.4269829063</ele>
        <time>2019-07-06T10:48:46Z</time>
      </trkpt>
      <trkpt lat="45.61072" lon="6.67884">
        <ele>1616.2408969516</ele>
        <time>2019-07-06T10:48:48Z</time>
      </trkpt>
      <trkpt lat="45.61074" lon="6.67886">
        <ele>1616.3574758839</ele>
        <time>2019-07-06T10:48:50Z</time>
      </trkpt>
      <trkpt lat="45.61078" lon="6.67887">
        <ele>1615.9114200495</ele>
        <time>2019-07-06T10:48:53Z</time>
      </trkpt>
      <trkpt lat="45.6108" lon="6.67888">
        <ele>1615.6654520532</ele>
        <time>2019-07-06T10:48:54Z</time>
      </trkpt>
      <trkpt lat="45.61082" lon="6.67888">
        <ele>1615.5913959808</ele>
        <time>2019-07-06T10:48:55Z</time>
      </trkpt>
      <trkpt lat="45.61084" lon="6.67889">
        <ele>1615.5099859589</ele>
        <time>2019-07-06T10:48:57Z</time>
      </trkpt>
      <trkpt lat="45.61087" lon="6.67889">
        <ele>1616.00937381</ele>
        <time>2019-07-06T10:49:00Z</time>
      </trkpt>
      <trkpt lat="45.61089" lon="6.6789">
        <ele>1616.0631771271</ele>
        <time>2019-07-06T10:49:01Z</time>
      </trkpt>
      <trkpt lat="45.61091" lon="6.67891">
        <ele>1615.6277953145</ele>
        <time>2019-07-06T10:49:03Z</time>
      </trkpt>
      <trkpt lat="45.61093" lon="6.67893">
        <ele>1615.4126272924</ele>
        <time>2019-07-06T10:49:04Z</time>
      </trkpt>
      <trkpt lat="45.61096" lon="6.67893">
        <ele>1615.3342195669</ele>
        <time>2019-07-06T10:49:06Z</time>
      </trkpt>
      <trkpt lat="45.61098" lon="6.67894">
        <ele>1615.0223462494</ele>
        <time>2019-07-06T10:49:08Z</time>
      </trkpt>
      <trkpt lat="45.611" lon="6.67895">
        <ele>1614.4391913047</ele>
        <time>2019-07-06T10:49:10Z</time>
      </trkpt>
      <trkpt lat="45.61103" lon="6.67897">
        <ele>1614.5169025361</ele>
        <time>2019-07-06T10:49:13Z</time>
      </trkpt>
      <trkpt lat="45.61106" lon="6.67898">
        <ele>1615.0125423435</ele>
        <time>2019-07-06T10:49:15Z</time>
      </trkpt>
      <trkpt lat="45.61108" lon="6.679">
        <ele>1615.9632969339</ele>
        <time>2019-07-06T10:49:18Z</time>
      </trkpt>
      <trkpt lat="45.61109" lon="6.67901">
        <ele>1616.2836975293</ele>
        <time>2019-07-06T10:49:19Z</time>
      </trkpt>
      <trkpt lat="45.61111" lon="6.67903">
        <ele>1616.7565576194</ele>
        <time>2019-07-06T10:49:21Z</time>
      </trkpt>
      <trkpt lat="45.61114" lon="6.67905">
        <ele>1617.1963858536</ele>
        <time>2019-07-06T10:49:24Z</time>
      </trkpt>
      <trkpt lat="45.61116" lon="6.67906">
        <ele>1617.2014533286</ele>
        <time>2019-07-06T10:49:25Z</time>
      </trkpt>
      <trkpt lat="45.61118" lon="6.67908">
        <ele>1616.9853251633</ele>
        <time>2019-07-06T10:49:27Z</time>
      </trkpt>
      <trkpt lat="45.6112" lon="6.6791">
        <ele>1616.5815870025</ele>
        <time>2019-07-06T10:49:29Z</time>
      </trkpt>
      <trkpt lat="45.61122" lon="6.67912">
        <ele>1616.2348511432</ele>
        <time>2019-07-06T10:49:31Z</time>
      </trkpt>
      <trkpt lat="45.61124" lon="6.67915">
        <ele>1615.8756559213</ele>
        <time>2019-07-06T10:49:33Z</time>
      </trkpt>
      <trkpt lat="45.61126" lon="6.67917">
        <ele>1615.0687502835</ele>
        <time>2019-07-06T10:49:35Z</time>
      </trkpt>
      <trkpt lat="45.61129" lon="6.67921">
        <ele>1614.4069224558</ele>
        <time>2019-07-06T10:49:37Z</time>
      </trkpt>
      <trkpt lat="45.61131" lon="6.67922">
        <ele>1614.2607225517</ele>
        <time>2019-07-06T10:49:39Z</time>
      </trkpt>
      <trkpt lat="45.61132" lon="6.67924">
        <ele>1614.0216163369</ele>
        <time>2019-07-06T10:49:41Z</time>
      </trkpt>
      <trkpt lat="45.61134" lon="6.67926">
        <ele>1613.9223094481</ele>
        <time>2019-07-06T10:49:43Z</time>
      </trkpt>
      <trkpt lat="45.61137" lon="6.67929">
        <ele>1613.8526713505</ele>
        <time>2019-07-06T10:49:45Z</time>
      </trkpt>
      <trkpt lat="45.61139" lon="6.67931">
        <ele>1614.0425890208</ele>
        <time>2019-07-06T10:49:47Z</time>
      </trkpt>
      <trkpt lat="45.61141" lon="6.67933">
        <ele>1614.2667003289</ele>
        <time>2019-07-06T10:49:49Z</time>
      </trkpt>
      <trkpt lat="45.61143" lon="6.67934">
        <ele>1614.310005589</ele>
        <time>2019-07-06T10:49:51Z</time>
      </trkpt>
      <trkpt lat="45.61145" lon="6.67936">
        <ele>1614.0771233299</ele>
        <time>2019-07-06T10:49:53Z</time>
      </trkpt>
      <trkpt lat="45.61148" lon="6.67938">
        <ele>1613.9898359602</ele>
        <time>2019-07-06T10:49:55Z</time>
      </trkpt>
      <trkpt lat="45.61151" lon="6.67939">
        <ele>1613.8248273516</ele>
        <time>2019-07-06T10:49:57Z</time>
      </trkpt>
      <trkpt lat="45.61153" lon="6.6794">
        <ele>1613.7505114837</ele>
        <time>2019-07-06T10:49:58Z</time>
      </trkpt>
      <trkpt lat="45.61156" lon="6.67941">
        <ele>1613.668891402</ele>
        <time>2019-07-06T10:50:00Z</time>
      </trkpt>
      <trkpt lat="45.61157" lon="6.67942">
        <ele>1613.9933890724</ele>
        <time>2019-07-06T10:50:02Z</time>
      </trkpt>
      <trkpt lat="45.6116" lon="6.67944">
        <ele>1614.7628683108</ele>
        <time>2019-07-06T10:50:04Z</time>
      </trkpt>
      <trkpt lat="45.61162" lon="6.67946">
        <ele>1615.3564561141</ele>
        <time>2019-07-06T10:50:06Z</time>
      </trkpt>
      <trkpt lat="45.61164" lon="6.67947">
        <ele>1615.6326396316</ele>
        <time>2019-07-06T10:50:07Z</time>
      </trkpt>
      <trkpt lat="45.61167" lon="6.67947">
        <ele>1615.9997757825</ele>
        <time>2019-07-06T10:50:09Z</time>
      </trkpt>
      <trkpt lat="45.6117" lon="6.67948">
        <ele>1616.147500923</ele>
        <time>2019-07-06T10:50:11Z</time>
      </trkpt>
      <trkpt lat="45.61172" lon="6.67948">
        <ele>1616.6571577629</ele>
        <time>2019-07-06T10:50:13Z</time>
      </trkpt>
      <trkpt lat="45.61175" lon="6.67949">
        <ele>1616.9997645767</ele>
        <time>2019-07-06T10:50:15Z</time>
      </trkpt>
      <trkpt lat="45.61177" lon="6.6795">
        <ele>1616.981957537</ele>
        <time>2019-07-06T10:50:17Z</time>
      </trkpt>
      <trkpt lat="45.61181" lon="6.67951">
        <ele>1616.8441437152</ele>
        <time>2019-07-06T10:50:20Z</time>
      </trkpt>
      <trkpt lat="45.61184" lon="6.67953">
        <ele>1616.925844382</ele>
        <time>2019-07-06T10:50:22Z</time>
      </trkpt>
      <trkpt lat="45.61186" lon="6.67954">
        <ele>1616.8250914736</ele>
        <time>2019-07-06T10:50:24Z</time>
      </trkpt>
      <trkpt lat="45.61188" lon="6.67956">
        <ele>1616.9106034374</ele>
        <time>2019-07-06T10:50:26Z</time>
      </trkpt>
      <trkpt lat="45.6119" lon="6.67957">
        <ele>1616.8766189941</ele>
        <time>2019-07-06T10:50:27Z</time>
      </trkpt>
      <trkpt lat="45.61191" lon="6.67957">
        <ele>1616.8117719239</ele>
        <time>2019-07-06T10:50:28Z</time>
      </trkpt>
      <trkpt lat="45.61195" lon="6.67958">
        <ele>1616.7241491488</ele>
        <time>2019-07-06T10:50:30Z</time>
      </trkpt>
      <trkpt lat="45.61197" lon="6.67958">
        <ele>1616.9462562019</ele>
        <time>2019-07-06T10:50:32Z</time>
      </trkpt>
      <trkpt lat="45.612" lon="6.67958">
        <ele>1617.2312204075</ele>
        <time>2019-07-06T10:50:34Z</time>
      </trkpt>
      <trkpt lat="45.61202" lon="6.67958">
        <ele>1617.2018904647</ele>
        <time>2019-07-06T10:50:36Z</time>
      </trkpt>
      <trkpt lat="45.61205" lon="6.67957">
        <ele>1617.0505298354</ele>
        <time>2019-07-06T10:50:38Z</time>
      </trkpt>
      <trkpt lat="45.61207" lon="6.67956">
        <ele>1617.5184150653</ele>
        <time>2019-07-06T10:50:40Z</time>
      </trkpt>
      <trkpt lat="45.61209" lon="6.67956">
        <ele>1617.85022358</ele>
        <time>2019-07-06T10:50:41Z</time>
      </trkpt>
      <trkpt lat="45.61212" lon="6.67955">
        <ele>1618.2416821863</ele>
        <time>2019-07-06T10:50:43Z</time>
      </trkpt>
      <trkpt lat="45.61215" lon="6.67953">
        <ele>1618.2969915145</ele>
        <time>2019-07-06T10:50:45Z</time>
      </trkpt>
      <trkpt lat="45.61217" lon="6.67953">
        <ele>1618.7074657695</ele>
        <time>2019-07-06T10:50:48Z</time>
      </trkpt>
      <trkpt lat="45.6122" lon="6.67953">
        <ele>1618.7966195383</ele>
        <time>2019-07-06T10:50:50Z</time>
      </trkpt>
      <trkpt lat="45.61222" lon="6.67953">
        <ele>1618.6600067274</ele>
        <time>2019-07-06T10:50:52Z</time>
      </trkpt>
      <trkpt lat="45.61224" lon="6.67953">
        <ele>1618.6638079482</ele>
        <time>2019-07-06T10:50:54Z</time>
      </trkpt>
      <trkpt lat="45.61227" lon="6.67952">
        <ele>1618.9116572911</ele>
        <time>2019-07-06T10:50:56Z</time>
      </trkpt>
      <trkpt lat="45.61229" lon="6.67951">
        <ele>1619.1964937767</ele>
        <time>2019-07-06T10:50:58Z</time>
      </trkpt>
      <trkpt lat="45.61232" lon="6.67952">
        <ele>1619.730679034</ele>
        <time>2019-07-06T10:51:00Z</time>
      </trkpt>
      <trkpt lat="45.61234" lon="6.67952">
        <ele>1620.121873495</ele>
        <time>2019-07-06T10:51:02Z</time>
      </trkpt>
      <trkpt lat="45.61237" lon="6.67952">
        <ele>1620.0832735307</ele>
        <time>2019-07-06T10:51:04Z</time>
      </trkpt>
      <trkpt lat="45.6124" lon="6.67952">
        <ele>1620.0350186495</ele>
        <time>2019-07-06T10:51:06Z</time>
      </trkpt>
      <trkpt lat="45.61242" lon="6.67952">
        <ele>1620.2611591099</ele>
        <time>2019-07-06T10:51:08Z</time>
      </trkpt>
      <trkpt lat="45.61245" lon="6.6795">
        <ele>1621.2379722046</ele>
        <time>2019-07-06T10:51:10Z</time>
      </trkpt>
      <trkpt lat="45.61247" lon="6.67949">
        <ele>1622.2039694112</ele>
        <time>2019-07-06T10:51:13Z</time>
      </trkpt>
      <trkpt lat="45.61249" lon="6.67948">
        <ele>1622.1418254498</ele>
        <time>2019-07-06T10:51:14Z</time>
      </trkpt>
      <trkpt lat="45.61251" lon="6.67947">
        <ele>1622.0820084676</ele>
        <time>2019-07-06T10:51:16Z</time>
      </trkpt>
      <trkpt lat="45.61254" lon="6.67946">
        <ele>1622.3038635893</ele>
        <time>2019-07-06T10:51:18Z</time>
      </trkpt>
      <trkpt lat="45.61255" lon="6.67945">
        <ele>1622.6117412086</ele>
        <time>2019-07-06T10:51:19Z</time>
      </trkpt>
      <trkpt lat="45.61257" lon="6.67944">
        <ele>1622.954142144</ele>
        <time>2019-07-06T10:51:20Z</time>
      </trkpt>
      <trkpt lat="45.6126" lon="6.67942">
        <ele>1623.8033563953</ele>
        <time>2019-07-06T10:51:22Z</time>
      </trkpt>
      <trkpt lat="45.61261" lon="6.67941">
        <ele>1624.8747210259</ele>
        <time>2019-07-06T10:51:24Z</time>
      </trkpt>
      <trkpt lat="45.61263" lon="6.67941">
        <ele>1625.6036460536</ele>
        <time>2019-07-06T10:51:26Z</time>
      </trkpt>
      <trkpt lat="45.61266" lon="6.67939">
        <ele>1626.0017834019</ele>
        <time>2019-07-06T10:51:28Z</time>
      </trkpt>
      <trkpt lat="45.61268" lon="6.67938">
        <ele>1625.8399584973</ele>
        <time>2019-07-06T10:51:29Z</time>
      </trkpt>
      <trkpt lat="45.6127" lon="6.67938">
        <ele>1625.2672418034</ele>
        <time>2019-07-06T10:51:31Z</time>
      </trkpt>
      <trkpt lat="45.61272" lon="6.67937">
        <ele>1625.1168242749</ele>
        <time>2019-07-06T10:51:32Z</time>
      </trkpt>
      <trkpt lat="45.61274" lon="6.67936">
        <ele>1625.0459238431</ele>
        <time>2019-07-06T10:51:33Z</time>
      </trkpt>
      <trkpt lat="45.61276" lon="6.67935">
        <ele>1624.9766504113</ele>
        <time>2019-07-06T10:51:35Z</time>
      </trkpt>
      <trkpt lat="45.61278" lon="6.67935">
        <ele>1625.0249886393</ele>
        <time>2019-07-06T10:51:37Z</time>
      </trkpt>
      <trkpt lat="45.61281" lon="6.67935">
        <ele>1625.2061813072</ele>
        <time>2019-07-06T10:51:40Z</time>
      </trkpt>
      <trkpt lat="45.61283" lon="6.67934">
        <ele>1625.6853596369</ele>
        <time>2019-07-06T10:51:42Z</time>
      </trkpt>
      <trkpt lat="45.61285" lon="6.67933">
        <ele>1626.2069228626</ele>
        <time>2019-07-06T10:51:44Z</time>
      </trkpt>
      <trkpt lat="45.61288" lon="6.67933">
        <ele>1626.4480614174</ele>
        <time>2019-07-06T10:51:46Z</time>
      </trkpt>
      <trkpt lat="45.61291" lon="6.67933">
        <ele>1626.1338825422</ele>
        <time>2019-07-06T10:51:48Z</time>
      </trkpt>
      <trkpt lat="45.61293" lon="6.67933">
        <ele>1625.8491523884</ele>
        <time>2019-07-06T10:51:50Z</time>
      </trkpt>
      <trkpt lat="45.61296" lon="6.67933">
        <ele>1625.8192843767</ele>
        <time>2019-07-06T10:51:52Z</time>
      </trkpt>
      <trkpt lat="45.61298" lon="6.67933">
        <ele>1625.8797694269</ele>
        <time>2019-07-06T10:51:53Z</time>
      </trkpt>
      <trkpt lat="45.61301" lon="6.67932">
        <ele>1626.1218242023</ele>
        <time>2019-07-06T10:51:55Z</time>
      </trkpt>
      <trkpt lat="45.61303" lon="6.67931">
        <ele>1627.1087396732</ele>
        <time>2019-07-06T10:51:58Z</time>
      </trkpt>
      <trkpt lat="45.61305" lon="6.6793">
        <ele>1627.7504937074</ele>
        <time>2019-07-06T10:52:00Z</time>
      </trkpt>
      <trkpt lat="45.61307" lon="6.6793">
        <ele>1628.4031736446</ele>
        <time>2019-07-06T10:52:02Z</time>
      </trkpt>
      <trkpt lat="45.61311" lon="6.67928">
        <ele>1628.8978588749</ele>
        <time>2019-07-06T10:52:04Z</time>
      </trkpt>
      <trkpt lat="45.61313" lon="6.67926">
        <ele>1629.1183626812</ele>
        <time>2019-07-06T10:52:06Z</time>
      </trkpt>
      <trkpt lat="45.61315" lon="6.67924">
        <ele>1629.0836535314</ele>
        <time>2019-07-06T10:52:07Z</time>
      </trkpt>
      <trkpt lat="45.61318" lon="6.67922">
        <ele>1629.112476933</ele>
        <time>2019-07-06T10:52:09Z</time>
      </trkpt>
      <trkpt lat="45.6132" lon="6.67921">
        <ele>1629.3041438855</ele>
        <time>2019-07-06T10:52:11Z</time>
      </trkpt>
      <trkpt lat="45.61322" lon="6.6792">
        <ele>1629.544521085</ele>
        <time>2019-07-06T10:52:13Z</time>
      </trkpt>
      <trkpt lat="45.61324" lon="6.67919">
        <ele>1630.2538861608</ele>
        <time>2019-07-06T10:52:15Z</time>
      </trkpt>
      <trkpt lat="45.61327" lon="6.67918">
        <ele>1630.9682397292</ele>
        <time>2019-07-06T10:52:17Z</time>
      </trkpt>
      <trkpt lat="45.61329" lon="6.67918">
        <ele>1631.7681765068</ele>
        <time>2019-07-06T10:52:19Z</time>
      </trkpt>
      <trkpt lat="45.61331" lon="6.67918">
        <ele>1632.2877639831</ele>
        <time>2019-07-06T10:52:21Z</time>
      </trkpt>
      <trkpt lat="45.61334" lon="6.67918">
        <ele>1632.5033904683</ele>
        <time>2019-07-06T10:52:24Z</time>
      </trkpt>
      <trkpt lat="45.61336" lon="6.67917">
        <ele>1632.6557232264</ele>
        <time>2019-07-06T10:52:26Z</time>
      </trkpt>
      <trkpt lat="45.61338" lon="6.67916">
        <ele>1632.5672879583</ele>
        <time>2019-07-06T10:52:28Z</time>
      </trkpt>
      <trkpt lat="45.6134" lon="6.67917">
        <ele>1632.5953254632</ele>
        <time>2019-07-06T10:52:30Z</time>
      </trkpt>
      <trkpt lat="45.61343" lon="6.67917">
        <ele>1632.5642340079</ele>
        <time>2019-07-06T10:52:32Z</time>
      </trkpt>
      <trkpt lat="45.61346" lon="6.67917">
        <ele>1632.26972315</ele>
        <time>2019-07-06T10:52:34Z</time>
      </trkpt>
      <trkpt lat="45.61348" lon="6.67917">
        <ele>1632.2005126187</ele>
        <time>2019-07-06T10:52:35Z</time>
      </trkpt>
      <trkpt lat="45.61349" lon="6.67918">
        <ele>1632.4102477018</ele>
        <time>2019-07-06T10:52:37Z</time>
      </trkpt>
      <trkpt lat="45.61351" lon="6.67918">
        <ele>1632.5803101069</ele>
        <time>2019-07-06T10:52:39Z</time>
      </trkpt>
      <trkpt lat="45.61353" lon="6.67919">
        <ele>1633.0230363834</ele>
        <time>2019-07-06T10:52:41Z</time>
      </trkpt>
      <trkpt lat="45.61356" lon="6.6792">
        <ele>1633.4971726166</ele>
        <time>2019-07-06T10:52:43Z</time>
      </trkpt>
      <trkpt lat="45.61359" lon="6.67919">
        <ele>1633.8552556927</ele>
        <time>2019-07-06T10:52:45Z</time>
      </trkpt>
      <trkpt lat="45.61361" lon="6.6792">
        <ele>1634.3894132891</ele>
        <time>2019-07-06T10:52:47Z</time>
      </trkpt>
      <trkpt lat="45.61363" lon="6.6792">
        <ele>1635.1368582759</ele>
        <time>2019-07-06T10:52:49Z</time>
      </trkpt>
      <trkpt lat="45.61366" lon="6.6792">
        <ele>1636.0255626307</ele>
        <time>2019-07-06T10:52:52Z</time>
      </trkpt>
      <trkpt lat="45.61368" lon="6.67919">
        <ele>1636.4137755964</ele>
        <time>2019-07-06T10:52:54Z</time>
      </trkpt>
      <trkpt lat="45.61371" lon="6.67919">
        <ele>1636.7712550554</ele>
        <time>2019-07-06T10:52:56Z</time>
      </trkpt>
      <trkpt lat="45.61373" lon="6.6792">
        <ele>1637.178561263</ele>
        <time>2019-07-06T10:52:58Z</time>
      </trkpt>
      <trkpt lat="45.61375" lon="6.67921">
        <ele>1637.8533340456</ele>
        <time>2019-07-06T10:53:00Z</time>
      </trkpt>
      <trkpt lat="45.61377" lon="6.67922">
        <ele>1638.7020620844</ele>
        <time>2019-07-06T10:53:02Z</time>
      </trkpt>
      <trkpt lat="45.61379" lon="6.67922">
        <ele>1639.0781133525</ele>
        <time>2019-07-06T10:53:04Z</time>
      </trkpt>
      <trkpt lat="45.61382" lon="6.67922">
        <ele>1639.5414836397</ele>
        <time>2019-07-06T10:53:06Z</time>
      </trkpt>
      <trkpt lat="45.61385" lon="6.67923">
        <ele>1640.0764120848</ele>
        <time>2019-07-06T10:53:08Z</time>
      </trkpt>
      <trkpt lat="45.61388" lon="6.67924">
        <ele>1640.3700728724</ele>
        <time>2019-07-06T10:53:10Z</time>
      </trkpt>
      <trkpt lat="45.6139" lon="6.67924">
        <ele>1640.7784421812</ele>
        <time>2019-07-06T10:53:13Z</time>
      </trkpt>
      <trkpt lat="45.61393" lon="6.67924">
        <ele>1641.0852957491</ele>
        <time>2019-07-06T10:53:15Z</time>
      </trkpt>
      <trkpt lat="45.61395" lon="6.67925">
        <ele>1641.717424347</ele>
        <time>2019-07-06T10:53:18Z</time>
      </trkpt>
      <trkpt lat="45.61398" lon="6.67926">
        <ele>1642.2878806606</ele>
        <time>2019-07-06T10:53:20Z</time>
      </trkpt>
      <trkpt lat="45.61401" lon="6.67926">
        <ele>1642.5498055311</ele>
        <time>2019-07-06T10:53:22Z</time>
      </trkpt>
      <trkpt lat="45.61403" lon="6.67926">
        <ele>1642.6000222111</ele>
        <time>2019-07-06T10:53:24Z</time>
      </trkpt>
      <trkpt lat="45.61406" lon="6.67926">
        <ele>1642.5846996116</ele>
        <time>2019-07-06T10:53:26Z</time>
      </trkpt>
      <trkpt lat="45.61408" lon="6.67925">
        <ele>1642.4144852525</ele>
        <time>2019-07-06T10:53:28Z</time>
      </trkpt>
      <trkpt lat="45.6141" lon="6.67925">
        <ele>1642.1136247684</ele>
        <time>2019-07-06T10:53:30Z</time>
      </trkpt>
      <trkpt lat="45.61413" lon="6.67925">
        <ele>1641.8612407503</ele>
        <time>2019-07-06T10:53:32Z</time>
      </trkpt>
      <trkpt lat="45.61415" lon="6.67924">
        <ele>1641.4366138725</ele>
        <time>2019-07-06T10:53:34Z</time>
      </trkpt>
      <trkpt lat="45.61417" lon="6.67924">
        <ele>1641.0341402547</ele>
        <time>2019-07-06T10:53:36Z</time>
      </trkpt>
      <trkpt lat="45.6142" lon="6.67924">
        <ele>1640.6258499965</ele>
        <time>2019-07-06T10:53:38Z</time>
      </trkpt>
      <trkpt lat="45.61422" lon="6.67924">
        <ele>1640.3368968041</ele>
        <time>2019-07-06T10:53:40Z</time>
      </trkpt>
      <trkpt lat="45.61424" lon="6.67923">
        <ele>1640.3666892205</ele>
        <time>2019-07-06T10:53:41Z</time>
      </trkpt>
      <trkpt lat="45.61427" lon="6.67923">
        <ele>1640.4640790783</ele>
        <time>2019-07-06T10:53:43Z</time>
      </trkpt>
      <trkpt lat="45.61429" lon="6.67923">
        <ele>1640.7665150691</ele>
        <time>2019-07-06T10:53:45Z</time>
      </trkpt>
      <trkpt lat="45.61431" lon="6.67923">
        <ele>1641.1809994911</ele>
        <time>2019-07-06T10:53:47Z</time>
      </trkpt>
      <trkpt lat="45.61434" lon="6.67921">
        <ele>1641.3954782839</ele>
        <time>2019-07-06T10:53:52Z</time>
      </trkpt>
      <trkpt lat="45.61436" lon="6.67918">
        <ele>1641.5621567664</ele>
        <time>2019-07-06T10:53:54Z</time>
      </trkpt>
      <trkpt lat="45.61438" lon="6.67917">
        <ele>1641.8723309422</ele>
        <time>2019-07-06T10:53:56Z</time>
      </trkpt>
      <trkpt lat="45.6144" lon="6.67915">
        <ele>1642.216968846</ele>
        <time>2019-07-06T10:53:58Z</time>
      </trkpt>
      <trkpt lat="45.61443" lon="6.67914">
        <ele>1642.3213684173</ele>
        <time>2019-07-06T10:54:00Z</time>
      </trkpt>
      <trkpt lat="45.61445" lon="6.67913">
        <ele>1642.4645838229</ele>
        <time>2019-07-06T10:54:02Z</time>
      </trkpt>
      <trkpt lat="45.61447" lon="6.67912">
        <ele>1642.7363125869</ele>
        <time>2019-07-06T10:54:05Z</time>
      </trkpt>
      <trkpt lat="45.6145" lon="6.67911">
        <ele>1642.7370059202</ele>
        <time>2019-07-06T10:54:07Z</time>
      </trkpt>
      <trkpt lat="45.61452" lon="6.6791">
        <ele>1642.9453018362</ele>
        <time>2019-07-06T10:54:09Z</time>
      </trkpt>
      <trkpt lat="45.61454" lon="6.67908">
        <ele>1643.0772086446</ele>
        <time>2019-07-06T10:54:11Z</time>
      </trkpt>
      <trkpt lat="45.61457" lon="6.67907">
        <ele>1643.1540042498</ele>
        <time>2019-07-06T10:54:13Z</time>
      </trkpt>
      <trkpt lat="45.61458" lon="6.67905">
        <ele>1643.22908411</ele>
        <time>2019-07-06T10:54:14Z</time>
      </trkpt>
      <trkpt lat="45.61461" lon="6.67903">
        <ele>1643.5169452694</ele>
        <time>2019-07-06T10:54:16Z</time>
      </trkpt>
      <trkpt lat="45.61464" lon="6.67902">
        <ele>1643.8779363665</ele>
        <time>2019-07-06T10:54:18Z</time>
      </trkpt>
      <trkpt lat="45.61466" lon="6.679">
        <ele>1644.2786169155</ele>
        <time>2019-07-06T10:54:20Z</time>
      </trkpt>
      <trkpt lat="45.61468" lon="6.679">
        <ele>1644.6819932688</ele>
        <time>2019-07-06T10:54:22Z</time>
      </trkpt>
      <trkpt lat="45.61471" lon="6.67898">
        <ele>1644.5014770592</ele>
        <time>2019-07-06T10:54:24Z</time>
      </trkpt>
      <trkpt lat="45.61474" lon="6.67897">
        <ele>1644.4586610193</ele>
        <time>2019-07-06T10:54:26Z</time>
      </trkpt>
      <trkpt lat="45.61476" lon="6.67896">
        <ele>1644.4272432257</ele>
        <time>2019-07-06T10:54:27Z</time>
      </trkpt>
      <trkpt lat="45.61478" lon="6.67894">
        <ele>1644.4834688875</ele>
        <time>2019-07-06T10:54:29Z</time>
      </trkpt>
      <trkpt lat="45.61481" lon="6.67894">
        <ele>1644.3374571754</ele>
        <time>2019-07-06T10:54:31Z</time>
      </trkpt>
      <trkpt lat="45.61484" lon="6.67893">
        <ele>1644.3237121154</ele>
        <time>2019-07-06T10:54:33Z</time>
      </trkpt>
      <trkpt lat="45.61486" lon="6.67891">
        <ele>1643.9979069996</ele>
        <time>2019-07-06T10:54:35Z</time>
      </trkpt>
      <trkpt lat="45.61489" lon="6.6789">
        <ele>1643.0546249281</ele>
        <time>2019-07-06T10:54:38Z</time>
      </trkpt>
      <trkpt lat="45.61492" lon="6.6789">
        <ele>1642.7270232345</ele>
        <time>2019-07-06T10:54:39Z</time>
      </trkpt>
      <trkpt lat="45.61495" lon="6.6789">
        <ele>1641.9353231393</ele>
        <time>2019-07-06T10:54:41Z</time>
      </trkpt>
      <trkpt lat="45.61498" lon="6.67891">
        <ele>1641.27150959</ele>
        <time>2019-07-06T10:54:43Z</time>
      </trkpt>
      <trkpt lat="45.615" lon="6.6789">
        <ele>1640.4331726935</ele>
        <time>2019-07-06T10:54:45Z</time>
      </trkpt>
      <trkpt lat="45.61502" lon="6.67889">
        <ele>1639.8781712644</ele>
        <time>2019-07-06T10:54:47Z</time>
      </trkpt>
      <trkpt lat="45.61505" lon="6.67889">
        <ele>1639.67258432</ele>
        <time>2019-07-06T10:54:49Z</time>
      </trkpt>
      <trkpt lat="45.61507" lon="6.67889">
        <ele>1639.3725760167</ele>
        <time>2019-07-06T10:54:51Z</time>
      </trkpt>
      <trkpt lat="45.6151" lon="6.67889">
        <ele>1639.2818913522</ele>
        <time>2019-07-06T10:54:53Z</time>
      </trkpt>
      <trkpt lat="45.61512" lon="6.67888">
        <ele>1638.9959774075</ele>
        <time>2019-07-06T10:54:54Z</time>
      </trkpt>
      <trkpt lat="45.61514" lon="6.67889">
        <ele>1638.4481511647</ele>
        <time>2019-07-06T10:54:56Z</time>
      </trkpt>
      <trkpt lat="45.61516" lon="6.67889">
        <ele>1638.2470387081</ele>
        <time>2019-07-06T10:54:58Z</time>
      </trkpt>
      <trkpt lat="45.61519" lon="6.67889">
        <ele>1638.1334457513</ele>
        <time>2019-07-06T10:55:00Z</time>
      </trkpt>
      <trkpt lat="45.61521" lon="6.67889">
        <ele>1638.1429597376</ele>
        <time>2019-07-06T10:55:02Z</time>
      </trkpt>
      <trkpt lat="45.61523" lon="6.6789">
        <ele>1638.8691300116</ele>
        <time>2019-07-06T10:55:05Z</time>
      </trkpt>
      <trkpt lat="45.61525" lon="6.6789">
        <ele>1639.6824156602</ele>
        <time>2019-07-06T10:55:07Z</time>
      </trkpt>
      <trkpt lat="45.61527" lon="6.6789">
        <ele>1640.3171461852</ele>
        <time>2019-07-06T10:55:09Z</time>
      </trkpt>
      <trkpt lat="45.61529" lon="6.6789">
        <ele>1640.360053146</ele>
        <time>2019-07-06T10:55:11Z</time>
      </trkpt>
      <trkpt lat="45.61532" lon="6.6789">
        <ele>1640.5442726738</ele>
        <time>2019-07-06T10:55:13Z</time>
      </trkpt>
      <trkpt lat="45.61534" lon="6.6789">
        <ele>1640.8969289255</ele>
        <time>2019-07-06T10:55:15Z</time>
      </trkpt>
      <trkpt lat="45.61537" lon="6.67889">
        <ele>1641.5242333923</ele>
        <time>2019-07-06T10:55:17Z</time>
      </trkpt>
      <trkpt lat="45.61539" lon="6.67888">
        <ele>1642.1541672067</ele>
        <time>2019-07-06T10:55:19Z</time>
      </trkpt>
      <trkpt lat="45.61542" lon="6.67887">
        <ele>1642.6379683985</ele>
        <time>2019-07-06T10:55:21Z</time>
      </trkpt>
      <trkpt lat="45.61544" lon="6.67887">
        <ele>1642.9946869907</ele>
        <time>2019-07-06T10:55:23Z</time>
      </trkpt>
      <trkpt lat="45.61548" lon="6.67885">
        <ele>1643.3185242824</ele>
        <time>2019-07-06T10:55:25Z</time>
      </trkpt>
      <trkpt lat="45.61552" lon="6.67885">
        <ele>1643.3548387475</ele>
        <time>2019-07-06T10:55:27Z</time>
      </trkpt>
      <trkpt lat="45.61554" lon="6.67884">
        <ele>1643.5151453022</ele>
        <time>2019-07-06T10:55:29Z</time>
      </trkpt>
      <trkpt lat="45.61556" lon="6.67884">
        <ele>1643.8349907754</ele>
        <time>2019-07-06T10:55:31Z</time>
      </trkpt>
      <trkpt lat="45.61557" lon="6.67883">
        <ele>1643.410174204</ele>
        <time>2019-07-06T10:55:33Z</time>
      </trkpt>
      <trkpt lat="45.6156" lon="6.67883">
        <ele>1643.1987542809</ele>
        <time>2019-07-06T10:55:34Z</time>
      </trkpt>
      <trkpt lat="45.61562" lon="6.67882">
        <ele>1643.3173223387</ele>
        <time>2019-07-06T10:55:36Z</time>
      </trkpt>
      <trkpt lat="45.61564" lon="6.67881">
        <ele>1643.2196023734</ele>
        <time>2019-07-06T10:55:38Z</time>
      </trkpt>
      <trkpt lat="45.61567" lon="6.67882">
        <ele>1643.9890583297</ele>
        <time>2019-07-06T10:55:41Z</time>
      </trkpt>
      <trkpt lat="45.61569" lon="6.67881">
        <ele>1644.219019824</ele>
        <time>2019-07-06T10:55:42Z</time>
      </trkpt>
      <trkpt lat="45.61571" lon="6.67881">
        <ele>1644.2548522171</ele>
        <time>2019-07-06T10:55:43Z</time>
      </trkpt>
      <trkpt lat="45.61574" lon="6.6788">
        <ele>1644.2361677137</ele>
        <time>2019-07-06T10:55:45Z</time>
      </trkpt>
      <trkpt lat="45.61576" lon="6.6788">
        <ele>1644.2731790616</ele>
        <time>2019-07-06T10:55:47Z</time>
      </trkpt>
      <trkpt lat="45.61579" lon="6.67879">
        <ele>1644.8354968505</ele>
        <time>2019-07-06T10:55:49Z</time>
      </trkpt>
      <trkpt lat="45.61581" lon="6.67878">
        <ele>1646.4069001086</ele>
        <time>2019-07-06T10:55:52Z</time>
      </trkpt>
      <trkpt lat="45.61583" lon="6.67877">
        <ele>1646.8261145464</ele>
        <time>2019-07-06T10:55:54Z</time>
      </trkpt>
      <trkpt lat="45.61585" lon="6.67876">
        <ele>1646.9169487983</ele>
        <time>2019-07-06T10:55:56Z</time>
      </trkpt>
      <trkpt lat="45.61588" lon="6.67875">
        <ele>1647.3674016679</ele>
        <time>2019-07-06T10:55:59Z</time>
      </trkpt>
      <trkpt lat="45.6159" lon="6.67874">
        <ele>1647.7694135947</ele>
        <time>2019-07-06T10:56:01Z</time>
      </trkpt>
      <trkpt lat="45.61593" lon="6.67873">
        <ele>1648.2718227991</ele>
        <time>2019-07-06T10:56:03Z</time>
      </trkpt>
      <trkpt lat="45.61595" lon="6.67872">
        <ele>1648.3708516905</ele>
        <time>2019-07-06T10:56:05Z</time>
      </trkpt>
      <trkpt lat="45.61597" lon="6.67871">
        <ele>1648.3845886856</ele>
        <time>2019-07-06T10:56:06Z</time>
      </trkpt>
      <trkpt lat="45.61599" lon="6.6787">
        <ele>1648.5902331909</ele>
        <time>2019-07-06T10:56:08Z</time>
      </trkpt>
      <trkpt lat="45.61602" lon="6.67869">
        <ele>1648.8357311233</ele>
        <time>2019-07-06T10:56:10Z</time>
      </trkpt>
      <trkpt lat="45.61603" lon="6.67867">
        <ele>1649.2412460598</ele>
        <time>2019-07-06T10:56:13Z</time>
      </trkpt>
      <trkpt lat="45.61605" lon="6.67865">
        <ele>1649.5175200774</ele>
        <time>2019-07-06T10:56:15Z</time>
      </trkpt>
      <trkpt lat="45.61607" lon="6.67863">
        <ele>1649.8341968492</ele>
        <time>2019-07-06T10:56:17Z</time>
      </trkpt>
      <trkpt lat="45.61609" lon="6.67861">
        <ele>1650.1907649128</ele>
        <time>2019-07-06T10:56:19Z</time>
      </trkpt>
      <trkpt lat="45.61611" lon="6.6786">
        <ele>1650.3280359679</ele>
        <time>2019-07-06T10:56:22Z</time>
      </trkpt>
      <trkpt lat="45.61614" lon="6.67858">
        <ele>1650.6291430162</ele>
        <time>2019-07-06T10:56:25Z</time>
      </trkpt>
      <trkpt lat="45.61616" lon="6.67856">
        <ele>1650.5938098872</ele>
        <time>2019-07-06T10:56:27Z</time>
      </trkpt>
      <trkpt lat="45.61618" lon="6.67855">
        <ele>1651.0798354132</ele>
        <time>2019-07-06T10:56:29Z</time>
      </trkpt>
      <trkpt lat="45.6162" lon="6.67853">
        <ele>1651.3558720095</ele>
        <time>2019-07-06T10:56:31Z</time>
      </trkpt>
      <trkpt lat="45.61622" lon="6.6785">
        <ele>1651.5911890508</ele>
        <time>2019-07-06T10:56:33Z</time>
      </trkpt>
      <trkpt lat="45.61624" lon="6.67849">
        <ele>1651.8586825035</ele>
        <time>2019-07-06T10:56:35Z</time>
      </trkpt>
      <trkpt lat="45.61625" lon="6.67848">
        <ele>1651.5478671967</ele>
        <time>2019-07-06T10:56:37Z</time>
      </trkpt>
      <trkpt lat="45.61628" lon="6.67848">
        <ele>1650.8850788885</ele>
        <time>2019-07-06T10:56:39Z</time>
      </trkpt>
      <trkpt lat="45.6163" lon="6.67847">
        <ele>1651.0418161408</ele>
        <time>2019-07-06T10:56:41Z</time>
      </trkpt>
      <trkpt lat="45.61632" lon="6.67847">
        <ele>1651.4734890803</ele>
        <time>2019-07-06T10:56:43Z</time>
      </trkpt>
      <trkpt lat="45.61635" lon="6.67846">
        <ele>1651.7920432817</ele>
        <time>2019-07-06T10:56:45Z</time>
      </trkpt>
      <trkpt lat="45.61637" lon="6.67848">
        <ele>1652.80682351</ele>
        <time>2019-07-06T10:56:48Z</time>
      </trkpt>
      <trkpt lat="45.6164" lon="6.67848">
        <ele>1653.2068528105</ele>
        <time>2019-07-06T10:56:52Z</time>
      </trkpt>
      <trkpt lat="45.61642" lon="6.67849">
        <ele>1653.9540345126</ele>
        <time>2019-07-06T10:56:55Z</time>
      </trkpt>
      <trkpt lat="45.61644" lon="6.67849">
        <ele>1655.3105642707</ele>
        <time>2019-07-06T10:56:57Z</time>
      </trkpt>
      <trkpt lat="45.61645" lon="6.6785">
        <ele>1656.9959413722</ele>
        <time>2019-07-06T10:56:59Z</time>
      </trkpt>
      <trkpt lat="45.61648" lon="6.6785">
        <ele>1659.0084424481</ele>
        <time>2019-07-06T10:57:02Z</time>
      </trkpt>
      <trkpt lat="45.6165" lon="6.67849">
        <ele>1659.9609273329</ele>
        <time>2019-07-06T10:57:04Z</time>
      </trkpt>
      <trkpt lat="45.61652" lon="6.67848">
        <ele>1660.6603451829</ele>
        <time>2019-07-06T10:57:06Z</time>
      </trkpt>
      <trkpt lat="45.61654" lon="6.67848">
        <ele>1661.4953597186</ele>
        <time>2019-07-06T10:57:08Z</time>
      </trkpt>
      <trkpt lat="45.61657" lon="6.67848">
        <ele>1661.9347060067</ele>
        <time>2019-07-06T10:57:10Z</time>
      </trkpt>
      <trkpt lat="45.61659" lon="6.67848">
        <ele>1662.5442696838</ele>
        <time>2019-07-06T10:57:12Z</time>
      </trkpt>
      <trkpt lat="45.61662" lon="6.6785">
        <ele>1663.1811348446</ele>
        <time>2019-07-06T10:57:14Z</time>
      </trkpt>
      <trkpt lat="45.61664" lon="6.67851">
        <ele>1663.575793525</ele>
        <time>2019-07-06T10:57:16Z</time>
      </trkpt>
      <trkpt lat="45.61667" lon="6.67852">
        <ele>1663.6262451495</ele>
        <time>2019-07-06T10:57:18Z</time>
      </trkpt>
      <trkpt lat="45.6167" lon="6.67853">
        <ele>1663.4365632388</ele>
        <time>2019-07-06T10:57:20Z</time>
      </trkpt>
      <trkpt lat="45.61672" lon="6.67854">
        <ele>1663.9292766906</ele>
        <time>2019-07-06T10:57:23Z</time>
      </trkpt>
      <trkpt lat="45.61675" lon="6.67854">
        <ele>1664.4745721014</ele>
        <time>2019-07-06T10:57:25Z</time>
      </trkpt>
      <trkpt lat="45.61677" lon="6.67855">
        <ele>1665.0269326063</ele>
        <time>2019-07-06T10:57:27Z</time>
      </trkpt>
      <trkpt lat="45.6168" lon="6.67857">
        <ele>1665.2561574163</ele>
        <time>2019-07-06T10:57:30Z</time>
      </trkpt>
      <trkpt lat="45.61683" lon="6.67857">
        <ele>1665.4162924876</ele>
        <time>2019-07-06T10:57:32Z</time>
      </trkpt>
      <trkpt lat="45.61686" lon="6.67857">
        <ele>1665.4383814552</ele>
        <time>2019-07-06T10:57:35Z</time>
      </trkpt>
      <trkpt lat="45.61688" lon="6.67858">
        <ele>1664.9863444274</ele>
        <time>2019-07-06T10:57:37Z</time>
      </trkpt>
      <trkpt lat="45.6169" lon="6.67858">
        <ele>1664.5988858102</ele>
        <time>2019-07-06T10:57:38Z</time>
      </trkpt>
      <trkpt lat="45.61692" lon="6.67859">
        <ele>1664.0256192657</ele>
        <time>2019-07-06T10:57:40Z</time>
      </trkpt>
      <trkpt lat="45.61696" lon="6.6786">
        <ele>1663.6183501342</ele>
        <time>2019-07-06T10:57:42Z</time>
      </trkpt>
      <trkpt lat="45.61699" lon="6.6786">
        <ele>1663.80016759</ele>
        <time>2019-07-06T10:57:44Z</time>
      </trkpt>
      <trkpt lat="45.61702" lon="6.67859">
        <ele>1663.9945627886</ele>
        <time>2019-07-06T10:57:46Z</time>
      </trkpt>
      <trkpt lat="45.61705" lon="6.67858">
        <ele>1663.735593277</ele>
        <time>2019-07-06T10:57:48Z</time>
      </trkpt>
      <trkpt lat="45.61708" lon="6.67856">
        <ele>1663.1057928468</ele>
        <time>2019-07-06T10:57:50Z</time>
      </trkpt>
      <trkpt lat="45.6171" lon="6.67855">
        <ele>1662.6686535489</ele>
        <time>2019-07-06T10:57:52Z</time>
      </trkpt>
      <trkpt lat="45.61712" lon="6.67855">
        <ele>1662.5036090871</ele>
        <time>2019-07-06T10:57:54Z</time>
      </trkpt>
      <trkpt lat="45.61714" lon="6.67855">
        <ele>1662.3727176533</ele>
        <time>2019-07-06T10:57:56Z</time>
      </trkpt>
      <trkpt lat="45.61717" lon="6.67856">
        <ele>1662.393823064</ele>
        <time>2019-07-06T10:57:58Z</time>
      </trkpt>
      <trkpt lat="45.61719" lon="6.67857">
        <ele>1662.3400128967</ele>
        <time>2019-07-06T10:58:00Z</time>
      </trkpt>
      <trkpt lat="45.61722" lon="6.67857">
        <ele>1662.3205179019</ele>
        <time>2019-07-06T10:58:02Z</time>
      </trkpt>
      <trkpt lat="45.61724" lon="6.67857">
        <ele>1662.2425481265</ele>
        <time>2019-07-06T10:58:04Z</time>
      </trkpt>
      <trkpt lat="45.61727" lon="6.67857">
        <ele>1662.3134505531</ele>
        <time>2019-07-06T10:58:05Z</time>
      </trkpt>
      <trkpt lat="45.6173" lon="6.67856">
        <ele>1662.6167904907</ele>
        <time>2019-07-06T10:58:07Z</time>
      </trkpt>
      <trkpt lat="45.61733" lon="6.67856">
        <ele>1662.7535421716</ele>
        <time>2019-07-06T10:58:09Z</time>
      </trkpt>
      <trkpt lat="45.61734" lon="6.67856">
        <ele>1662.8797626724</ele>
        <time>2019-07-06T10:58:12Z</time>
      </trkpt>
      <trkpt lat="45.61737" lon="6.67856">
        <ele>1662.472903432</ele>
        <time>2019-07-06T10:58:14Z</time>
      </trkpt>
      <trkpt lat="45.6174" lon="6.67855">
        <ele>1661.9829161643</ele>
        <time>2019-07-06T10:58:16Z</time>
      </trkpt>
      <trkpt lat="45.61742" lon="6.67854">
        <ele>1661.6334298364</ele>
        <time>2019-07-06T10:58:17Z</time>
      </trkpt>
      <trkpt lat="45.61745" lon="6.67853">
        <ele>1661.5888661183</ele>
        <time>2019-07-06T10:58:19Z</time>
      </trkpt>
      <trkpt lat="45.61747" lon="6.67852">
        <ele>1661.1114476369</ele>
        <time>2019-07-06T10:58:21Z</time>
      </trkpt>
      <trkpt lat="45.61749" lon="6.67851">
        <ele>1660.7298520183</ele>
        <time>2019-07-06T10:58:22Z</time>
      </trkpt>
      <trkpt lat="45.61751" lon="6.67851">
        <ele>1660.2507702269</ele>
        <time>2019-07-06T10:58:23Z</time>
      </trkpt>
      <trkpt lat="45.61753" lon="6.67851">
        <ele>1659.728335914</ele>
        <time>2019-07-06T10:58:25Z</time>
      </trkpt>
      <trkpt lat="45.61756" lon="6.6785">
        <ele>1659.7981588482</ele>
        <time>2019-07-06T10:58:27Z</time>
      </trkpt>
      <trkpt lat="45.61758" lon="6.67849">
        <ele>1659.5451066773</ele>
        <time>2019-07-06T10:58:30Z</time>
      </trkpt>
      <trkpt lat="45.6176" lon="6.6785">
        <ele>1659.8563870897</ele>
        <time>2019-07-06T10:58:32Z</time>
      </trkpt>
      <trkpt lat="45.61763" lon="6.67849">
        <ele>1659.7427792187</ele>
        <time>2019-07-06T10:58:34Z</time>
      </trkpt>
      <trkpt lat="45.61765" lon="6.6785">
        <ele>1659.2205766095</ele>
        <time>2019-07-06T10:58:36Z</time>
      </trkpt>
      <trkpt lat="45.61767" lon="6.67851">
        <ele>1658.9243604269</ele>
        <time>2019-07-06T10:58:38Z</time>
      </trkpt>
      <trkpt lat="45.61769" lon="6.67852">
        <ele>1658.9915228636</ele>
        <time>2019-07-06T10:58:40Z</time>
      </trkpt>
      <trkpt lat="45.61771" lon="6.67854">
        <ele>1659.1808243011</ele>
        <time>2019-07-06T10:58:42Z</time>
      </trkpt>
      <trkpt lat="45.61773" lon="6.67854">
        <ele>1659.6257407401</ele>
        <time>2019-07-06T10:58:44Z</time>
      </trkpt>
      <trkpt lat="45.61775" lon="6.67855">
        <ele>1660.4578546166</ele>
        <time>2019-07-06T10:58:46Z</time>
      </trkpt>
      <trkpt lat="45.61779" lon="6.67856">
        <ele>1660.967183448</ele>
        <time>2019-07-06T10:58:48Z</time>
      </trkpt>
      <trkpt lat="45.61781" lon="6.67855">
        <ele>1661.0228992674</ele>
        <time>2019-07-06T10:58:50Z</time>
      </trkpt>
      <trkpt lat="45.61784" lon="6.67856">
        <ele>1661.1427209642</ele>
        <time>2019-07-06T10:58:52Z</time>
      </trkpt>
      <trkpt lat="45.61787" lon="6.67855">
        <ele>1660.8679810237</ele>
        <time>2019-07-06T10:58:54Z</time>
      </trkpt>
      <trkpt lat="45.61789" lon="6.67855">
        <ele>1660.7575586193</ele>
        <time>2019-07-06T10:58:57Z</time>
      </trkpt>
      <trkpt lat="45.61791" lon="6.67856">
        <ele>1663.9581808596</ele>
        <time>2019-07-06T10:59:13Z</time>
      </trkpt>
      <trkpt lat="45.61792" lon="6.67858">
        <ele>1663.8221221526</ele>
        <time>2019-07-06T10:59:17Z</time>
      </trkpt>
      <trkpt lat="45.61795" lon="6.67857">
        <ele>1664.2902572721</ele>
        <time>2019-07-06T10:59:21Z</time>
      </trkpt>
      <trkpt lat="45.61796" lon="6.67858">
        <ele>1665.2061102424</ele>
        <time>2019-07-06T10:59:31Z</time>
      </trkpt>
      <trkpt lat="45.61795" lon="6.67861">
        <ele>1665.210405705</ele>
        <time>2019-07-06T10:59:40Z</time>
      </trkpt>
      <trkpt lat="45.61797" lon="6.67861">
        <ele>1666.6925463111</ele>
        <time>2019-07-06T10:59:48Z</time>
      </trkpt>
      <trkpt lat="45.61796" lon="6.67864">
        <ele>1673.0513082446</ele>
        <time>2019-07-06T11:00:11Z</time>
      </trkpt>
      <trkpt lat="45.61797" lon="6.67867">
        <ele>1674.0420718882</ele>
        <time>2019-07-06T11:00:15Z</time>
      </trkpt>
      <trkpt lat="45.61798" lon="6.6787">
        <ele>1674.8892196586</ele>
        <time>2019-07-06T11:00:19Z</time>
      </trkpt>
      <trkpt lat="45.61797" lon="6.67867">
        <ele>1676.7366406651</ele>
        <time>2019-07-06T11:00:28Z</time>
      </trkpt>
      <trkpt lat="45.61799" lon="6.67865">
        <ele>1675.9725204446</ele>
        <time>2019-07-06T11:01:19Z</time>
      </trkpt>
      <trkpt lat="45.61799" lon="6.67866">
        <ele>1674.594329446</ele>
        <time>2019-07-06T11:01:52Z</time>
      </trkpt>
      <trkpt lat="45.61799" lon="6.67865">
        <ele>1673.7671582569</ele>
        <time>2019-07-06T11:02:07Z</time>
      </trkpt>
      <trkpt lat="45.61801" lon="6.67864">
        <ele>1673.9478743943</ele>
        <time>2019-07-06T11:02:11Z</time>
      </trkpt>
      <trkpt lat="45.61802" lon="6.67865">
        <ele>1673.4685333487</ele>
        <time>2019-07-06T11:02:14Z</time>
      </trkpt>
      <trkpt lat="45.61803" lon="6.67861">
        <ele>1672.202744985</ele>
        <time>2019-07-06T11:02:32Z</time>
      </trkpt>
      <trkpt lat="45.61803" lon="6.6786">
        <ele>1671.6573733277</ele>
        <time>2019-07-06T11:02:35Z</time>
      </trkpt>
      <trkpt lat="45.61803" lon="6.67863">
        <ele>1672.2332205291</ele>
        <time>2019-07-06T11:02:39Z</time>
      </trkpt>
      <trkpt lat="45.61804" lon="6.67865">
        <ele>1676.5399903058</ele>
        <time>2019-07-06T11:02:56Z</time>
      </trkpt>
      <trkpt lat="45.61802" lon="6.67867">
        <ele>1674.8977591206</ele>
        <time>2019-07-06T11:03:21Z</time>
      </trkpt>
      <trkpt lat="45.61801" lon="6.67864">
        <ele>1673.4680174907</ele>
        <time>2019-07-06T11:03:25Z</time>
      </trkpt>
      <trkpt lat="45.61805" lon="6.67862">
        <ele>1672.6360752409</ele>
        <time>2019-07-06T11:03:28Z</time>
      </trkpt>
      <trkpt lat="45.61807" lon="6.67861">
        <ele>1672.3569223254</ele>
        <time>2019-07-06T11:03:31Z</time>
      </trkpt>
      <trkpt lat="45.61807" lon="6.6786">
        <ele>1672.230087859</ele>
        <time>2019-07-06T11:03:39Z</time>
      </trkpt>
      <trkpt lat="45.61808" lon="6.67864">
        <ele>1661.4302725101</ele>
        <time>2019-07-06T11:03:45Z</time>
      </trkpt>
      <trkpt lat="45.6181" lon="6.67864">
        <ele>1660.0130178727</ele>
        <time>2019-07-06T11:03:49Z</time>
      </trkpt>
      <trkpt lat="45.61809" lon="6.67867">
        <ele>1655.1265378591</ele>
        <time>2019-07-06T11:04:05Z</time>
      </trkpt>
      <trkpt lat="45.6181" lon="6.6787">
        <ele>1654.1818500815</ele>
        <time>2019-07-06T11:04:07Z</time>
      </trkpt>
      <trkpt lat="45.6181" lon="6.67873">
        <ele>1653.4655271358</ele>
        <time>2019-07-06T11:04:10Z</time>
      </trkpt>
      <trkpt lat="45.61809" lon="6.67874">
        <ele>1652.9501490814</ele>
        <time>2019-07-06T11:04:12Z</time>
      </trkpt>
      <trkpt lat="45.61807" lon="6.67872">
        <ele>1651.600252526</ele>
        <time>2019-07-06T11:04:16Z</time>
      </trkpt>
      <trkpt lat="45.61806" lon="6.67875">
        <ele>1650.7496777056</ele>
        <time>2019-07-06T11:04:20Z</time>
      </trkpt>
      <trkpt lat="45.61806" lon="6.67878">
        <ele>1649.9243906114</ele>
        <time>2019-07-06T11:04:23Z</time>
      </trkpt>
      <trkpt lat="45.61807" lon="6.67881">
        <ele>1651.5332581438</ele>
        <time>2019-07-06T11:04:28Z</time>
      </trkpt>
      <trkpt lat="45.61809" lon="6.67882">
        <ele>1648.9422093386</ele>
        <time>2019-07-06T11:04:42Z</time>
      </trkpt>
      <trkpt lat="45.61809" lon="6.67878">
        <ele>1645.4035227257</ele>
        <time>2019-07-06T11:04:51Z</time>
      </trkpt>
      <trkpt lat="45.61811" lon="6.67877">
        <ele>1646.097202739</ele>
        <time>2019-07-06T11:04:56Z</time>
      </trkpt>
      <trkpt lat="45.61808" lon="6.67876">
        <ele>1644.1405930839</ele>
        <time>2019-07-06T11:05:01Z</time>
      </trkpt>
      <trkpt lat="45.61807" lon="6.67874">
        <ele>1643.5193428214</ele>
        <time>2019-07-06T11:05:03Z</time>
      </trkpt>
      <trkpt lat="45.61804" lon="6.67872">
        <ele>1643.2288531348</ele>
        <time>2019-07-06T11:05:04Z</time>
      </trkpt>
      <trkpt lat="45.61806" lon="6.6787">
        <ele>1650.316875121</ele>
        <time>2019-07-06T11:05:08Z</time>
      </trkpt>
      <trkpt lat="45.61804" lon="6.67868">
        <ele>1654.8721169515</ele>
        <time>2019-07-06T11:05:11Z</time>
      </trkpt>
      <trkpt lat="45.61804" lon="6.67869">
        <ele>1659.3824314483</ele>
        <time>2019-07-06T11:05:15Z</time>
      </trkpt>
      <trkpt lat="45.61803" lon="6.67866">
        <ele>1661.1639706055</ele>
        <time>2019-07-06T11:05:18Z</time>
      </trkpt>
      <trkpt lat="45.61803" lon="6.67863">
        <ele>1666.9439901474</ele>
        <time>2019-07-06T11:05:58Z</time>
      </trkpt>
      <trkpt lat="45.61803" lon="6.6786">
        <ele>1666.6103610365</ele>
        <time>2019-07-06T11:06:21Z</time>
      </trkpt>
      <trkpt lat="45.61801" lon="6.67859">
        <ele>1677.8831310707</ele>
        <time>2019-07-06T11:07:13Z</time>
      </trkpt>
      <trkpt lat="45.61802" lon="6.67861">
        <ele>1676.5063762372</ele>
        <time>2019-07-06T11:07:20Z</time>
      </trkpt>
      <trkpt lat="45.61804" lon="6.67863">
        <ele>1676.0749495522</ele>
        <time>2019-07-06T11:07:44Z</time>
      </trkpt>
      <trkpt lat="45.61805" lon="6.6786">
        <ele>1673.5658702607</ele>
        <time>2019-07-06T11:07:50Z</time>
      </trkpt>
      <trkpt lat="45.61806" lon="6.67863">
        <ele>1669.4694030882</ele>
        <time>2019-07-06T11:07:58Z</time>
      </trkpt>
      <trkpt lat="45.61806" lon="6.67866">
        <ele>1669.2860006659</ele>
        <time>2019-07-06T11:08:02Z</time>
      </trkpt>
      <trkpt lat="45.61808" lon="6.67864">
        <ele>1669.0128181507</ele>
        <time>2019-07-06T11:08:15Z</time>
      </trkpt>
      <trkpt lat="45.61809" lon="6.67866">
        <ele>1657.1428684022</ele>
        <time>2019-07-06T11:08:45Z</time>
      </trkpt>
      <trkpt lat="45.61811" lon="6.67865">
        <ele>1652.5673336371</ele>
        <time>2019-07-06T11:08:53Z</time>
      </trkpt>
      <trkpt lat="45.6181" lon="6.67866">
        <ele>1650.6463726352</ele>
        <time>2019-07-06T11:08:58Z</time>
      </trkpt>
      <trkpt lat="45.6181" lon="6.67869">
        <ele>1649.4558235037</ele>
        <time>2019-07-06T11:09:11Z</time>
      </trkpt>
      <trkpt lat="45.61811" lon="6.67867">
        <ele>1644.7206132177</ele>
        <time>2019-07-06T11:09:18Z</time>
      </trkpt>
      <trkpt lat="45.61809" lon="6.67866">
        <ele>1644.845140431</ele>
        <time>2019-07-06T11:09:25Z</time>
      </trkpt>
      <trkpt lat="45.61807" lon="6.67865">
        <ele>1653.7887551185</ele>
        <time>2019-07-06T11:09:38Z</time>
      </trkpt>
      <trkpt lat="45.61806" lon="6.67867">
        <ele>1654.9015426211</ele>
        <time>2019-07-06T11:09:40Z</time>
      </trkpt>
      <trkpt lat="45.61804" lon="6.67868">
        <ele>1656.1322145757</ele>
        <time>2019-07-06T11:09:47Z</time>
      </trkpt>
      <trkpt lat="45.61803" lon="6.67867">
        <ele>1660.7794851458</ele>
        <time>2019-07-06T11:10:17Z</time>
      </trkpt>
      <trkpt lat="45.61802" lon="6.67865">
        <ele>1664.6752205574</ele>
        <time>2019-07-06T11:11:29Z</time>
      </trkpt>
      <trkpt lat="45.61802" lon="6.67862">
        <ele>1665.1501433902</ele>
        <time>2019-07-06T11:12:43Z</time>
      </trkpt>
      <trkpt lat="45.61803" lon="6.67862">
        <ele>1663.1104407578</ele>
        <time>2019-07-06T11:14:15Z</time>
      </trkpt>
      <trkpt lat="45.61804" lon="6.67864">
        <ele>1659.1375462564</ele>
        <time>2019-07-06T11:14:43Z</time>
      </trkpt>
      <trkpt lat="45.61803" lon="6.67861">
        <ele>1658.1878953015</ele>
        <time>2019-07-06T11:14:46Z</time>
      </trkpt>
      <trkpt lat="45.61806" lon="6.67859">
        <ele>1659.8188115661</ele>
        <time>2019-07-06T11:15:02Z</time>
      </trkpt>
      <trkpt lat="45.61808" lon="6.67861">
        <ele>1658.5467566729</ele>
        <time>2019-07-06T11:15:20Z</time>
      </trkpt>
      <trkpt lat="45.61806" lon="6.6786">
        <ele>1660.6464138463</ele>
        <time>2019-07-06T11:15:28Z</time>
      </trkpt>
      <trkpt lat="45.61808" lon="6.67861">
        <ele>1661.0240514151</ele>
        <time>2019-07-06T11:15:32Z</time>
      </trkpt>
      <trkpt lat="45.6181" lon="6.67863">
        <ele>1660.9434221832</ele>
        <time>2019-07-06T11:15:34Z</time>
      </trkpt>
      <trkpt lat="45.61808" lon="6.67861">
        <ele>1660.6134189512</ele>
        <time>2019-07-06T11:15:35Z</time>
      </trkpt>
      <trkpt lat="45.6181" lon="6.67862">
        <ele>1652.5204015053</ele>
        <time>2019-07-06T11:15:48Z</time>
      </trkpt>
      <trkpt lat="45.61812" lon="6.67864">
        <ele>1652.4847558604</ele>
        <time>2019-07-06T11:16:03Z</time>
      </trkpt>
      <trkpt lat="45.61809" lon="6.67862">
        <ele>1651.367896486</ele>
        <time>2019-07-06T11:16:06Z</time>
      </trkpt>
      <trkpt lat="45.61811" lon="6.67864">
        <ele>1650.6126286961</ele>
        <time>2019-07-06T11:16:10Z</time>
      </trkpt>
      <trkpt lat="45.61812" lon="6.67862">
        <ele>1648.227670133</ele>
        <time>2019-07-06T11:16:29Z</time>
      </trkpt>
      <trkpt lat="45.61812" lon="6.67859">
        <ele>1652.6533735662</ele>
        <time>2019-07-06T11:16:42Z</time>
      </trkpt>
      <trkpt lat="45.61813" lon="6.67861">
        <ele>1654.4179864435</ele>
        <time>2019-07-06T11:16:51Z</time>
      </trkpt>
      <trkpt lat="45.61813" lon="6.67865">
        <ele>1655.5532277813</ele>
        <time>2019-07-06T11:17:35Z</time>
      </trkpt>
      <trkpt lat="45.6181" lon="6.67862">
        <ele>1656.2371043249</ele>
        <time>2019-07-06T11:17:38Z</time>
      </trkpt>
      <trkpt lat="45.61812" lon="6.67862">
        <ele>1654.3575449137</ele>
        <time>2019-07-06T11:17:55Z</time>
      </trkpt>
      <trkpt lat="45.61814" lon="6.67861">
        <ele>1654.3102412909</ele>
        <time>2019-07-06T11:17:56Z</time>
      </trkpt>
      <trkpt lat="45.61812" lon="6.6786">
        <ele>1653.6190590728</ele>
        <time>2019-07-06T11:18:08Z</time>
      </trkpt>
      <trkpt lat="45.61813" lon="6.67864">
        <ele>1652.4004069833</ele>
        <time>2019-07-06T11:18:58Z</time>
      </trkpt>
      <trkpt lat="45.61811" lon="6.67864">
        <ele>1651.0853172544</ele>
        <time>2019-07-06T11:19:13Z</time>
      </trkpt>
      <trkpt lat="45.61809" lon="6.67865">
        <ele>1650.450062881</ele>
        <time>2019-07-06T11:19:38Z</time>
      </trkpt>
      <trkpt lat="45.61808" lon="6.67867">
        <ele>1658.043729591</ele>
        <time>2019-07-06T11:19:56Z</time>
      </trkpt>
      <trkpt lat="45.61806" lon="6.67865">
        <ele>1660.0827938717</ele>
        <time>2019-07-06T11:20:35Z</time>
      </trkpt>
      <trkpt lat="45.61809" lon="6.67863">
        <ele>1658.8658671354</ele>
        <time>2019-07-06T11:20:59Z</time>
      </trkpt>
      <trkpt lat="45.61807" lon="6.67864">
        <ele>1667.2713023131</ele>
        <time>2019-07-06T11:21:12Z</time>
      </trkpt>
      <trkpt lat="45.61806" lon="6.67862">
        <ele>1668.6151811716</ele>
        <time>2019-07-06T11:21:15Z</time>
      </trkpt>
      <trkpt lat="45.61803" lon="6.6786">
        <ele>1670.250564178</ele>
        <time>2019-07-06T11:21:31Z</time>
      </trkpt>
      <trkpt lat="45.61801" lon="6.67856">
        <ele>1668.8568494803</ele>
        <time>2019-07-06T11:21:36Z</time>
      </trkpt>
      <trkpt lat="45.61803" lon="6.67857">
        <ele>1667.268041785</ele>
        <time>2019-07-06T11:21:48Z</time>
      </trkpt>
      <trkpt lat="45.61802" lon="6.67854">
        <ele>1672.1072301976</ele>
        <time>2019-07-06T11:22:11Z</time>
      </trkpt>
      <trkpt lat="45.61801" lon="6.67851">
        <ele>1675.1866416544</ele>
        <time>2019-07-06T11:22:13Z</time>
      </trkpt>
      <trkpt lat="45.61802" lon="6.67854">
        <ele>1679.2907488484</ele>
        <time>2019-07-06T11:22:20Z</time>
      </trkpt>
      <trkpt lat="45.61803" lon="6.67857">
        <ele>1685.0537746059</ele>
        <time>2019-07-06T11:22:30Z</time>
      </trkpt>
      <trkpt lat="45.61801" lon="6.67859">
        <ele>1685.3530701328</ele>
        <time>2019-07-06T11:22:32Z</time>
      </trkpt>
      <trkpt lat="45.61802" lon="6.67856">
        <ele>1685.3727021874</ele>
        <time>2019-07-06T11:22:38Z</time>
      </trkpt>
      <trkpt lat="45.61801" lon="6.67853">
        <ele>1684.6053911601</ele>
        <time>2019-07-06T11:22:42Z</time>
      </trkpt>
      <trkpt lat="45.618" lon="6.67853">
        <ele>1684.0938105241</ele>
        <time>2019-07-06T11:22:43Z</time>
      </trkpt>
      <trkpt lat="45.61802" lon="6.67851">
        <ele>1684.0352581659</ele>
        <time>2019-07-06T11:22:50Z</time>
      </trkpt>
      <trkpt lat="45.61804" lon="6.67848">
        <ele>1684.0084664383</ele>
        <time>2019-07-06T11:23:09Z</time>
      </trkpt>
      <trkpt lat="45.61805" lon="6.67849">
        <ele>1683.7331419535</ele>
        <time>2019-07-06T11:23:11Z</time>
      </trkpt>
      <trkpt lat="45.61805" lon="6.67846">
        <ele>1683.8553833501</ele>
        <time>2019-07-06T11:23:19Z</time>
      </trkpt>
      <trkpt lat="45.61803" lon="6.67845">
        <ele>1682.5764125008</ele>
        <time>2019-07-06T11:23:22Z</time>
      </trkpt>
      <trkpt lat="45.61802" lon="6.67846">
        <ele>1682.6558700171</ele>
        <time>2019-07-06T11:23:29Z</time>
      </trkpt>
      <trkpt lat="45.61802" lon="6.67849">
        <ele>1682.8270376107</ele>
        <time>2019-07-06T11:23:36Z</time>
      </trkpt>
      <trkpt lat="45.61802" lon="6.67854">
        <ele>1683.7504634074</ele>
        <time>2019-07-06T11:23:38Z</time>
      </trkpt>
      <trkpt lat="45.61803" lon="6.67857">
        <ele>1681.7507507446</ele>
        <time>2019-07-06T11:23:41Z</time>
      </trkpt>
      <trkpt lat="45.61803" lon="6.67859">
        <ele>1674.2106527594</ele>
        <time>2019-07-06T11:23:45Z</time>
      </trkpt>
      <trkpt lat="45.61804" lon="6.67861">
        <ele>1686.5601167829</ele>
        <time>2019-07-06T11:23:48Z</time>
      </trkpt>
      <trkpt lat="45.61803" lon="6.67863">
        <ele>1687.5294490617</ele>
        <time>2019-07-06T11:23:52Z</time>
      </trkpt>
      <trkpt lat="45.61801" lon="6.67862">
        <ele>1686.9695973564</ele>
        <time>2019-07-06T11:23:57Z</time>
      </trkpt>
      <trkpt lat="45.61802" lon="6.67859">
        <ele>1685.7940889707</ele>
        <time>2019-07-06T11:24:00Z</time>
      </trkpt>
      <trkpt lat="45.61803" lon="6.67856">
        <ele>1685.391352183</ele>
        <time>2019-07-06T11:24:03Z</time>
      </trkpt>
      <trkpt lat="45.61801" lon="6.67856">
        <ele>1684.9142647183</ele>
        <time>2019-07-06T11:24:19Z</time>
      </trkpt>
      <trkpt lat="45.61803" lon="6.67855">
        <ele>1684.8943388089</ele>
        <time>2019-07-06T11:24:42Z</time>
      </trkpt>
      <trkpt lat="45.61805" lon="6.67856">
        <ele>1685.281567143</ele>
        <time>2019-07-06T11:24:54Z</time>
      </trkpt>
      <trkpt lat="45.61807" lon="6.67857">
        <ele>1686.181770279</ele>
        <time>2019-07-06T11:24:58Z</time>
      </trkpt>
      <trkpt lat="45.61809" lon="6.67858">
        <ele>1686.9216805381</ele>
        <time>2019-07-06T11:25:01Z</time>
      </trkpt>
      <trkpt lat="45.61808" lon="6.67861">
        <ele>1687.268353394</ele>
        <time>2019-07-06T11:25:07Z</time>
      </trkpt>
      <trkpt lat="45.61808" lon="6.67864">
        <ele>1688.1680118591</ele>
        <time>2019-07-06T11:25:09Z</time>
      </trkpt>
      <trkpt lat="45.61805" lon="6.67865">
        <ele>1683.3578989009</ele>
        <time>2019-07-06T11:25:12Z</time>
      </trkpt>
      <trkpt lat="45.61803" lon="6.67865">
        <ele>1688.973811989</ele>
        <time>2019-07-06T11:25:15Z</time>
      </trkpt>
      <trkpt lat="45.61802" lon="6.67863">
        <ele>1687.3399210143</ele>
        <time>2019-07-06T11:25:21Z</time>
      </trkpt>
      <trkpt lat="45.61801" lon="6.67861">
        <ele>1680.9688996021</ele>
        <time>2019-07-06T11:25:27Z</time>
      </trkpt>
      <trkpt lat="45.618" lon="6.67858">
        <ele>1685.1517341818</ele>
        <time>2019-07-06T11:25:37Z</time>
      </trkpt>
      <trkpt lat="45.61801" lon="6.67861">
        <ele>1682.8387290358</ele>
        <time>2019-07-06T11:25:59Z</time>
      </trkpt>
      <trkpt lat="45.618" lon="6.67864">
        <ele>1686.4717848009</ele>
        <time>2019-07-06T11:26:03Z</time>
      </trkpt>
      <trkpt lat="45.618" lon="6.67867">
        <ele>1680.1642168411</ele>
        <time>2019-07-06T11:26:06Z</time>
      </trkpt>
      <trkpt lat="45.61802" lon="6.67868">
        <ele>1677.0035476217</ele>
        <time>2019-07-06T11:26:09Z</time>
      </trkpt>
      <trkpt lat="45.61804" lon="6.67869">
        <ele>1689.4223587437</ele>
        <time>2019-07-06T11:26:14Z</time>
      </trkpt>
      <trkpt lat="45.61805" lon="6.67873">
        <ele>1682.0203797998</ele>
        <time>2019-07-06T11:26:17Z</time>
      </trkpt>
      <trkpt lat="45.61807" lon="6.67872">
        <ele>1676.2745519426</ele>
        <time>2019-07-06T11:26:22Z</time>
      </trkpt>
      <trkpt lat="45.61809" lon="6.67874">
        <ele>1674.1101449336</ele>
        <time>2019-07-06T11:26:26Z</time>
      </trkpt>
      <trkpt lat="45.6181" lon="6.67871">
        <ele>1673.4740786531</ele>
        <time>2019-07-06T11:26:28Z</time>
      </trkpt>
      <trkpt lat="45.61812" lon="6.67868">
        <ele>1684.5744784617</ele>
        <time>2019-07-06T11:26:31Z</time>
      </trkpt>
      <trkpt lat="45.61813" lon="6.67868">
        <ele>1692.1369435529</ele>
        <time>2019-07-06T11:26:37Z</time>
      </trkpt>
      <trkpt lat="45.61816" lon="6.67867">
        <ele>1692.3766977966</ele>
        <time>2019-07-06T11:26:41Z</time>
      </trkpt>
      <trkpt lat="45.61816" lon="6.67864">
        <ele>1691.6684237379</ele>
        <time>2019-07-06T11:26:46Z</time>
      </trkpt>
      <trkpt lat="45.61815" lon="6.67865">
        <ele>1690.8281245265</ele>
        <time>2019-07-06T11:26:55Z</time>
      </trkpt>
      <trkpt lat="45.61813" lon="6.67865">
        <ele>1691.3812606281</ele>
        <time>2019-07-06T11:26:59Z</time>
      </trkpt>
      <trkpt lat="45.61811" lon="6.67863">
        <ele>1690.1203106423</ele>
        <time>2019-07-06T11:27:05Z</time>
      </trkpt>
      <trkpt lat="45.6181" lon="6.67865">
        <ele>1689.7127922616</ele>
        <time>2019-07-06T11:27:10Z</time>
      </trkpt>
      <trkpt lat="45.61809" lon="6.67862">
        <ele>1689.1521790544</ele>
        <time>2019-07-06T11:27:15Z</time>
      </trkpt>
      <trkpt lat="45.61809" lon="6.67858">
        <ele>1687.7282272409</ele>
        <time>2019-07-06T11:27:18Z</time>
      </trkpt>
      <trkpt lat="45.61808" lon="6.67855">
        <ele>1686.7388234483</ele>
        <time>2019-07-06T11:27:20Z</time>
      </trkpt>
      <trkpt lat="45.61808" lon="6.67852">
        <ele>1685.5799412046</ele>
        <time>2019-07-06T11:27:23Z</time>
      </trkpt>
      <trkpt lat="45.61808" lon="6.67849">
        <ele>1684.5398833125</ele>
        <time>2019-07-06T11:27:25Z</time>
      </trkpt>
      <trkpt lat="45.61807" lon="6.67846">
        <ele>1683.5355299842</ele>
        <time>2019-07-06T11:27:28Z</time>
      </trkpt>
      <trkpt lat="45.61806" lon="6.67842">
        <ele>1682.6509833897</ele>
        <time>2019-07-06T11:27:30Z</time>
      </trkpt>
      <trkpt lat="45.61805" lon="6.67838">
        <ele>1681.7008293301</ele>
        <time>2019-07-06T11:27:32Z</time>
      </trkpt>
      <trkpt lat="45.61804" lon="6.67835">
        <ele>1681.0152439895</ele>
        <time>2019-07-06T11:27:33Z</time>
      </trkpt>
      <trkpt lat="45.61804" lon="6.67832">
        <ele>1680.1881893617</ele>
        <time>2019-07-06T11:27:34Z</time>
      </trkpt>
      <trkpt lat="45.61803" lon="6.6783">
        <ele>1679.6489581974</ele>
        <time>2019-07-06T11:27:37Z</time>
      </trkpt>
      <trkpt lat="45.61801" lon="6.67829">
        <ele>1679.6484184265</ele>
        <time>2019-07-06T11:27:45Z</time>
      </trkpt>
      <trkpt lat="45.61801" lon="6.67832">
        <ele>1679.6484184265</ele>
        <time>2019-07-06T11:27:46Z</time>
      </trkpt>
      <trkpt lat="45.61799" lon="6.67833">
        <ele>1679.6484184265</ele>
        <time>2019-07-06T11:27:49Z</time>
      </trkpt>
      <trkpt lat="45.61798" lon="6.67837">
        <ele>1679.9658009075</ele>
        <time>2019-07-06T11:27:59Z</time>
      </trkpt>
      <trkpt lat="45.61798" lon="6.6784">
        <ele>1680.5622555844</ele>
        <time>2019-07-06T11:28:02Z</time>
      </trkpt>
      <trkpt lat="45.61798" lon="6.67843">
        <ele>1681.264379627</ele>
        <time>2019-07-06T11:28:05Z</time>
      </trkpt>
      <trkpt lat="45.61799" lon="6.67847">
        <ele>1681.9705380549</ele>
        <time>2019-07-06T11:28:09Z</time>
      </trkpt>
      <trkpt lat="45.61799" lon="6.67844">
        <ele>1682.4651442615</ele>
        <time>2019-07-06T11:28:11Z</time>
      </trkpt>
      <trkpt lat="45.61797" lon="6.67844">
        <ele>1682.0349795813</ele>
        <time>2019-07-06T11:28:20Z</time>
      </trkpt>
      <trkpt lat="45.61797" lon="6.67849">
        <ele>1681.6989397764</ele>
        <time>2019-07-06T11:28:21Z</time>
      </trkpt>
      <trkpt lat="45.61797" lon="6.67852">
        <ele>1682.8745693283</ele>
        <time>2019-07-06T11:28:25Z</time>
      </trkpt>
      <trkpt lat="45.61798" lon="6.67855">
        <ele>1683.6056091282</ele>
        <time>2019-07-06T11:28:33Z</time>
      </trkpt>
      <trkpt lat="45.61799" lon="6.67853">
        <ele>1683.5959250043</ele>
        <time>2019-07-06T11:28:53Z</time>
      </trkpt>
      <trkpt lat="45.61801" lon="6.67852">
        <ele>1683.8587676399</ele>
        <time>2019-07-06T11:29:01Z</time>
      </trkpt>
      <trkpt lat="45.61803" lon="6.6785">
        <ele>1683.7720900982</ele>
        <time>2019-07-06T11:29:13Z</time>
      </trkpt>
      <trkpt lat="45.61805" lon="6.67849">
        <ele>1683.7011686238</ele>
        <time>2019-07-06T11:29:20Z</time>
      </trkpt>
      <trkpt lat="45.61808" lon="6.67848">
        <ele>1679.0762844643</ele>
        <time>2019-07-06T11:29:32Z</time>
      </trkpt>
      <trkpt lat="45.61808" lon="6.67851">
        <ele>1684.6752160871</ele>
        <time>2019-07-06T11:29:46Z</time>
      </trkpt>
      <trkpt lat="45.61807" lon="6.67849">
        <ele>1684.1451397875</ele>
        <time>2019-07-06T11:30:12Z</time>
      </trkpt>
      <trkpt lat="45.61805" lon="6.67848">
        <ele>1683.5759397168</ele>
        <time>2019-07-06T11:30:21Z</time>
      </trkpt>
      <trkpt lat="45.61803" lon="6.67847">
        <ele>1683.1122845275</ele>
        <time>2019-07-06T11:30:30Z</time>
      </trkpt>
      <trkpt lat="45.61804" lon="6.67843">
        <ele>1682.4753227234</ele>
        <time>2019-07-06T11:30:52Z</time>
      </trkpt>
      <trkpt lat="45.61806" lon="6.67844">
        <ele>1682.393684967</ele>
        <time>2019-07-06T11:30:56Z</time>
      </trkpt>
      <trkpt lat="45.61804" lon="6.67845">
        <ele>1682.4601886908</ele>
        <time>2019-07-06T11:31:04Z</time>
      </trkpt>
      <trkpt lat="45.61803" lon="6.67848">
        <ele>1683.0045565593</ele>
        <time>2019-07-06T11:31:10Z</time>
      </trkpt>
      <trkpt lat="45.61801" lon="6.67849">
        <ele>1683.1346394328</ele>
        <time>2019-07-06T11:31:13Z</time>
      </trkpt>
      <trkpt lat="45.61798" lon="6.67849">
        <ele>1682.8510692787</ele>
        <time>2019-07-06T11:31:23Z</time>
      </trkpt>
      <trkpt lat="45.61799" lon="6.67852">
        <ele>1683.1759247475</ele>
        <time>2019-07-06T11:31:41Z</time>
      </trkpt>
      <trkpt lat="45.618" lon="6.67854">
        <ele>1683.9108410744</ele>
        <time>2019-07-06T11:31:44Z</time>
      </trkpt>
      <trkpt lat="45.61801" lon="6.67857">
        <ele>1684.4977186897</ele>
        <time>2019-07-06T11:31:50Z</time>
      </trkpt>
      <trkpt lat="45.61801" lon="6.6786">
        <ele>1685.3371665305</ele>
        <time>2019-07-06T11:31:53Z</time>
      </trkpt>
      <trkpt lat="45.61799" lon="6.67863">
        <ele>1686.4172922818</ele>
        <time>2019-07-06T11:31:57Z</time>
      </trkpt>
      <trkpt lat="45.61801" lon="6.67862">
        <ele>1685.9498886689</ele>
        <time>2019-07-06T11:32:19Z</time>
      </trkpt>
      <trkpt lat="45.61803" lon="6.6786">
        <ele>1686.5906525139</ele>
        <time>2019-07-06T11:32:22Z</time>
      </trkpt>
      <trkpt lat="45.61801" lon="6.67859">
        <ele>1685.6046438266</ele>
        <time>2019-07-06T11:32:27Z</time>
      </trkpt>
      <trkpt lat="45.61799" lon="6.6786">
        <ele>1685.1384909409</ele>
        <time>2019-07-06T11:32:34Z</time>
      </trkpt>
      <trkpt lat="45.61801" lon="6.67859">
        <ele>1683.2678952734</ele>
        <time>2019-07-06T11:32:43Z</time>
      </trkpt>
      <trkpt lat="45.61803" lon="6.67858">
        <ele>1685.551610496</ele>
        <time>2019-07-06T11:32:53Z</time>
      </trkpt>
      <trkpt lat="45.61805" lon="6.67856">
        <ele>1685.6623769581</ele>
        <time>2019-07-06T11:33:01Z</time>
      </trkpt>
      <trkpt lat="45.61804" lon="6.67853">
        <ele>1685.0422364622</ele>
        <time>2019-07-06T11:33:04Z</time>
      </trkpt>
      <trkpt lat="45.61804" lon="6.67849">
        <ele>1684.3247223295</ele>
        <time>2019-07-06T11:33:06Z</time>
      </trkpt>
      <trkpt lat="45.61806" lon="6.67846">
        <ele>1683.5069319538</ele>
        <time>2019-07-06T11:33:08Z</time>
      </trkpt>
      <trkpt lat="45.61807" lon="6.67844">
        <ele>1682.6673526829</ele>
        <time>2019-07-06T11:33:10Z</time>
      </trkpt>
      <trkpt lat="45.6181" lon="6.67843">
        <ele>1682.5378765679</ele>
        <time>2019-07-06T11:33:12Z</time>
      </trkpt>
      <trkpt lat="45.61812" lon="6.67841">
        <ele>1682.4294712147</ele>
        <time>2019-07-06T11:33:15Z</time>
      </trkpt>
      <trkpt lat="45.61813" lon="6.67841">
        <ele>1682.329892846</ele>
        <time>2019-07-06T11:33:16Z</time>
      </trkpt>
      <trkpt lat="45.61815" lon="6.67841">
        <ele>1682.4215914781</ele>
        <time>2019-07-06T11:33:19Z</time>
      </trkpt>
      <trkpt lat="45.61818" lon="6.6784">
        <ele>1682.4583059187</ele>
        <time>2019-07-06T11:33:21Z</time>
      </trkpt>
      <trkpt lat="45.6182" lon="6.67838">
        <ele>1681.921197064</ele>
        <time>2019-07-06T11:33:24Z</time>
      </trkpt>
      <trkpt lat="45.61823" lon="6.67837">
        <ele>1681.487889377</ele>
        <time>2019-07-06T11:33:26Z</time>
      </trkpt>
      <trkpt lat="45.61825" lon="6.67838">
        <ele>1681.616512843</ele>
        <time>2019-07-06T11:33:28Z</time>
      </trkpt>
      <trkpt lat="45.61827" lon="6.67838">
        <ele>1681.916737066</ele>
        <time>2019-07-06T11:33:30Z</time>
      </trkpt>
      <trkpt lat="45.61829" lon="6.67838">
        <ele>1681.8755632828</ele>
        <time>2019-07-06T11:33:32Z</time>
      </trkpt>
      <trkpt lat="45.61831" lon="6.6784">
        <ele>1682.0800795235</ele>
        <time>2019-07-06T11:33:34Z</time>
      </trkpt>
      <trkpt lat="45.61833" lon="6.6784">
        <ele>1682.9864443259</ele>
        <time>2019-07-06T11:33:37Z</time>
      </trkpt>
      <trkpt lat="45.61835" lon="6.67841">
        <ele>1683.7302386269</ele>
        <time>2019-07-06T11:33:39Z</time>
      </trkpt>
      <trkpt lat="45.61838" lon="6.67839">
        <ele>1684.0873904025</ele>
        <time>2019-07-06T11:33:43Z</time>
      </trkpt>
      <trkpt lat="45.6184" lon="6.6784">
        <ele>1684.0316716717</ele>
        <time>2019-07-06T11:33:45Z</time>
      </trkpt>
      <trkpt lat="45.61843" lon="6.6784">
        <ele>1684.9677971632</ele>
        <time>2019-07-06T11:33:48Z</time>
      </trkpt>
      <trkpt lat="45.61845" lon="6.67842">
        <ele>1686.0523141182</ele>
        <time>2019-07-06T11:33:50Z</time>
      </trkpt>
      <trkpt lat="45.61847" lon="6.67842">
        <ele>1686.2917737897</ele>
        <time>2019-07-06T11:33:52Z</time>
      </trkpt>
      <trkpt lat="45.61849" lon="6.67843">
        <ele>1687.1313925075</ele>
        <time>2019-07-06T11:33:54Z</time>
      </trkpt>
      <trkpt lat="45.61852" lon="6.67843">
        <ele>1688.0514451888</ele>
        <time>2019-07-06T11:33:56Z</time>
      </trkpt>
      <trkpt lat="45.61854" lon="6.67845">
        <ele>1688.9033843195</ele>
        <time>2019-07-06T11:33:59Z</time>
      </trkpt>
      <trkpt lat="45.61856" lon="6.67845">
        <ele>1689.5988355171</ele>
        <time>2019-07-06T11:34:01Z</time>
      </trkpt>
      <trkpt lat="45.61858" lon="6.67848">
        <ele>1689.8793166404</ele>
        <time>2019-07-06T11:34:03Z</time>
      </trkpt>
      <trkpt lat="45.6186" lon="6.67848">
        <ele>1690.9366990883</ele>
        <time>2019-07-06T11:34:05Z</time>
      </trkpt>
      <trkpt lat="45.61863" lon="6.67848">
        <ele>1691.055224573</ele>
        <time>2019-07-06T11:34:07Z</time>
      </trkpt>
      <trkpt lat="45.61865" lon="6.6785">
        <ele>1691.0099376599</ele>
        <time>2019-07-06T11:34:09Z</time>
      </trkpt>
      <trkpt lat="45.61867" lon="6.6785">
        <ele>1690.9185399665</ele>
        <time>2019-07-06T11:34:11Z</time>
      </trkpt>
      <trkpt lat="45.61869" lon="6.6785">
        <ele>1690.5257345256</ele>
        <time>2019-07-06T11:34:15Z</time>
      </trkpt>
      <trkpt lat="45.61872" lon="6.67848">
        <ele>1689.9734945952</ele>
        <time>2019-07-06T11:34:18Z</time>
      </trkpt>
      <trkpt lat="45.61874" lon="6.67849">
        <ele>1689.5396416003</ele>
        <time>2019-07-06T11:34:20Z</time>
      </trkpt>
      <trkpt lat="45.61876" lon="6.67848">
        <ele>1689.1050035449</ele>
        <time>2019-07-06T11:34:24Z</time>
      </trkpt>
      <trkpt lat="45.61879" lon="6.67848">
        <ele>1688.7056292841</ele>
        <time>2019-07-06T11:34:27Z</time>
      </trkpt>
      <trkpt lat="45.61881" lon="6.67849">
        <ele>1688.6375607204</ele>
        <time>2019-07-06T11:34:30Z</time>
      </trkpt>
      <trkpt lat="45.61882" lon="6.67851">
        <ele>1688.3525688827</ele>
        <time>2019-07-06T11:34:32Z</time>
      </trkpt>
      <trkpt lat="45.61884" lon="6.67853">
        <ele>1688.1505968201</ele>
        <time>2019-07-06T11:34:35Z</time>
      </trkpt>
      <trkpt lat="45.61887" lon="6.67852">
        <ele>1687.8367580815</ele>
        <time>2019-07-06T11:34:37Z</time>
      </trkpt>
      <trkpt lat="45.61889" lon="6.67852">
        <ele>1687.2897669224</ele>
        <time>2019-07-06T11:34:40Z</time>
      </trkpt>
      <trkpt lat="45.61892" lon="6.67853">
        <ele>1687.4184036888</ele>
        <time>2019-07-06T11:34:42Z</time>
      </trkpt>
      <trkpt lat="45.61894" lon="6.67854">
        <ele>1688.1913257987</ele>
        <time>2019-07-06T11:34:44Z</time>
      </trkpt>
      <trkpt lat="45.61895" lon="6.67854">
        <ele>1688.5360386623</ele>
        <time>2019-07-06T11:34:46Z</time>
      </trkpt>
      <trkpt lat="45.61897" lon="6.67854">
        <ele>1689.1943148925</ele>
        <time>2019-07-06T11:34:48Z</time>
      </trkpt>
      <trkpt lat="45.61899" lon="6.67856">
        <ele>1689.8125977458</ele>
        <time>2019-07-06T11:34:51Z</time>
      </trkpt>
      <trkpt lat="45.61901" lon="6.67857">
        <ele>1690.210608111</ele>
        <time>2019-07-06T11:34:55Z</time>
      </trkpt>
      <trkpt lat="45.61903" lon="6.67857">
        <ele>1690.8429308115</ele>
        <time>2019-07-06T11:34:58Z</time>
      </trkpt>
      <trkpt lat="45.61905" lon="6.67859">
        <ele>1691.1281809332</ele>
        <time>2019-07-06T11:35:00Z</time>
      </trkpt>
      <trkpt lat="45.61907" lon="6.6786">
        <ele>1691.7249982781</ele>
        <time>2019-07-06T11:35:02Z</time>
      </trkpt>
      <trkpt lat="45.61908" lon="6.67862">
        <ele>1692.1016231899</ele>
        <time>2019-07-06T11:35:04Z</time>
      </trkpt>
      <trkpt lat="45.6191" lon="6.67861">
        <ele>1692.5249023784</ele>
        <time>2019-07-06T11:35:06Z</time>
      </trkpt>
      <trkpt lat="45.61912" lon="6.67864">
        <ele>1692.8562091449</ele>
        <time>2019-07-06T11:35:08Z</time>
      </trkpt>
      <trkpt lat="45.61914" lon="6.67866">
        <ele>1692.9551032673</ele>
        <time>2019-07-06T11:35:10Z</time>
      </trkpt>
      <trkpt lat="45.61916" lon="6.67868">
        <ele>1692.8214203018</ele>
        <time>2019-07-06T11:35:13Z</time>
      </trkpt>
      <trkpt lat="45.61918" lon="6.67869">
        <ele>1692.821502205</ele>
        <time>2019-07-06T11:35:15Z</time>
      </trkpt>
      <trkpt lat="45.61919" lon="6.67867">
        <ele>1692.9092288541</ele>
        <time>2019-07-06T11:35:17Z</time>
      </trkpt>
      <trkpt lat="45.61922" lon="6.67868">
        <ele>1693.3726964527</ele>
        <time>2019-07-06T11:35:19Z</time>
      </trkpt>
      <trkpt lat="45.61923" lon="6.6787">
        <ele>1692.9663765388</ele>
        <time>2019-07-06T11:35:21Z</time>
      </trkpt>
      <trkpt lat="45.61925" lon="6.67871">
        <ele>1692.7896302342</ele>
        <time>2019-07-06T11:35:23Z</time>
      </trkpt>
      <trkpt lat="45.61927" lon="6.67872">
        <ele>1692.7644927323</ele>
        <time>2019-07-06T11:35:24Z</time>
      </trkpt>
      <trkpt lat="45.61929" lon="6.67874">
        <ele>1692.839137275</ele>
        <time>2019-07-06T11:35:26Z</time>
      </trkpt>
      <trkpt lat="45.61932" lon="6.67874">
        <ele>1692.734684829</ele>
        <time>2019-07-06T11:35:29Z</time>
      </trkpt>
      <trkpt lat="45.61933" lon="6.67877">
        <ele>1692.9629407585</ele>
        <time>2019-07-06T11:35:31Z</time>
      </trkpt>
      <trkpt lat="45.61934" lon="6.6788">
        <ele>1692.7660614401</ele>
        <time>2019-07-06T11:35:34Z</time>
      </trkpt>
      <trkpt lat="45.61935" lon="6.67882">
        <ele>1692.8706178059</ele>
        <time>2019-07-06T11:35:36Z</time>
      </trkpt>
      <trkpt lat="45.61938" lon="6.67884">
        <ele>1693.0252684335</ele>
        <time>2019-07-06T11:35:39Z</time>
      </trkpt>
      <trkpt lat="45.6194" lon="6.67885">
        <ele>1693.4182172736</ele>
        <time>2019-07-06T11:35:42Z</time>
      </trkpt>
      <trkpt lat="45.61942" lon="6.67887">
        <ele>1693.7302936611</ele>
        <time>2019-07-06T11:35:44Z</time>
      </trkpt>
      <trkpt lat="45.61944" lon="6.67887">
        <ele>1694.1746033898</ele>
        <time>2019-07-06T11:35:46Z</time>
      </trkpt>
      <trkpt lat="45.61946" lon="6.67888">
        <ele>1694.6448118679</ele>
        <time>2019-07-06T11:35:48Z</time>
      </trkpt>
      <trkpt lat="45.6195" lon="6.67888">
        <ele>1694.6602256226</ele>
        <time>2019-07-06T11:35:50Z</time>
      </trkpt>
      <trkpt lat="45.61952" lon="6.67887">
        <ele>1694.6603797602</ele>
        <time>2019-07-06T11:35:52Z</time>
      </trkpt>
      <trkpt lat="45.61953" lon="6.67887">
        <ele>1694.6603813016</ele>
        <time>2019-07-06T11:35:54Z</time>
      </trkpt>
      <trkpt lat="45.61955" lon="6.67888">
        <ele>1694.660381317</ele>
        <time>2019-07-06T11:35:56Z</time>
      </trkpt>
      <trkpt lat="45.61957" lon="6.67888">
        <ele>1694.6603813171</ele>
        <time>2019-07-06T11:35:58Z</time>
      </trkpt>
      <trkpt lat="45.61959" lon="6.67889">
        <ele>1694.6603813171</ele>
        <time>2019-07-06T11:36:00Z</time>
      </trkpt>
      <trkpt lat="45.61962" lon="6.6789">
        <ele>1694.6603813171</ele>
        <time>2019-07-06T11:36:02Z</time>
      </trkpt>
      <trkpt lat="45.61964" lon="6.67893">
        <ele>1694.6603813171</ele>
        <time>2019-07-06T11:36:05Z</time>
      </trkpt>
      <trkpt lat="45.61966" lon="6.67891">
        <ele>1694.6603813171</ele>
        <time>2019-07-06T11:36:08Z</time>
      </trkpt>
      <trkpt lat="45.61968" lon="6.67891">
        <ele>1694.6603813171</ele>
        <time>2019-07-06T11:36:11Z</time>
      </trkpt>
      <trkpt lat="45.61972" lon="6.67891">
        <ele>1694.6603813171</ele>
        <time>2019-07-06T11:36:13Z</time>
      </trkpt>
      <trkpt lat="45.61974" lon="6.6789">
        <ele>1694.7589286804</ele>
        <time>2019-07-06T11:36:15Z</time>
      </trkpt>
      <trkpt lat="45.61975" lon="6.67888">
        <ele>1694.9793913269</ele>
        <time>2019-07-06T11:36:16Z</time>
      </trkpt>
      <trkpt lat="45.61977" lon="6.67889">
        <ele>1695.5062667297</ele>
        <time>2019-07-06T11:36:18Z</time>
      </trkpt>
      <trkpt lat="45.61979" lon="6.67887">
        <ele>1696.2462901224</ele>
        <time>2019-07-06T11:36:20Z</time>
      </trkpt>
      <trkpt lat="45.61981" lon="6.67887">
        <ele>1696.7786390868</ele>
        <time>2019-07-06T11:36:22Z</time>
      </trkpt>
      <trkpt lat="45.61983" lon="6.67887">
        <ele>1697.344095278</ele>
        <time>2019-07-06T11:36:25Z</time>
      </trkpt>
      <trkpt lat="45.61986" lon="6.67886">
        <ele>1697.8953251462</ele>
        <time>2019-07-06T11:36:27Z</time>
      </trkpt>
      <trkpt lat="45.61988" lon="6.67885">
        <ele>1698.5747168394</ele>
        <time>2019-07-06T11:36:29Z</time>
      </trkpt>
      <trkpt lat="45.61989" lon="6.67884">
        <ele>1699.0111770003</ele>
        <time>2019-07-06T11:36:32Z</time>
      </trkpt>
      <trkpt lat="45.61992" lon="6.67884">
        <ele>1699.4974659341</ele>
        <time>2019-07-06T11:36:34Z</time>
      </trkpt>
      <trkpt lat="45.61994" lon="6.67884">
        <ele>1700.22184389</ele>
        <time>2019-07-06T11:36:37Z</time>
      </trkpt>
      <trkpt lat="45.61996" lon="6.67884">
        <ele>1700.6639500444</ele>
        <time>2019-07-06T11:36:39Z</time>
      </trkpt>
      <trkpt lat="45.61999" lon="6.67884">
        <ele>1701.5219975568</ele>
        <time>2019-07-06T11:36:42Z</time>
      </trkpt>
      <trkpt lat="45.62001" lon="6.67883">
        <ele>1702.1601362439</ele>
        <time>2019-07-06T11:36:45Z</time>
      </trkpt>
      <trkpt lat="45.62003" lon="6.67883">
        <ele>1702.1661796477</ele>
        <time>2019-07-06T11:36:47Z</time>
      </trkpt>
      <trkpt lat="45.62006" lon="6.67882">
        <ele>1702.1662406311</ele>
        <time>2019-07-06T11:36:50Z</time>
      </trkpt>
      <trkpt lat="45.62008" lon="6.67881">
        <ele>1702.1662406915</ele>
        <time>2019-07-06T11:36:52Z</time>
      </trkpt>
      <trkpt lat="45.62011" lon="6.67879">
        <ele>1702.1662406921</ele>
        <time>2019-07-06T11:36:55Z</time>
      </trkpt>
      <trkpt lat="45.62012" lon="6.67878">
        <ele>1702.1662406921</ele>
        <time>2019-07-06T11:36:57Z</time>
      </trkpt>
      <trkpt lat="45.62014" lon="6.67877">
        <ele>1702.1662406921</ele>
        <time>2019-07-06T11:37:00Z</time>
      </trkpt>
      <trkpt lat="45.62016" lon="6.67876">
        <ele>1702.1662406921</ele>
        <time>2019-07-06T11:37:02Z</time>
      </trkpt>
      <trkpt lat="45.62018" lon="6.67872">
        <ele>1702.1662406921</ele>
        <time>2019-07-06T11:37:04Z</time>
      </trkpt>
      <trkpt lat="45.62019" lon="6.67869">
        <ele>1702.1662406921</ele>
        <time>2019-07-06T11:37:06Z</time>
      </trkpt>
      <trkpt lat="45.62022" lon="6.67868">
        <ele>1702.1662406921</ele>
        <time>2019-07-06T11:37:08Z</time>
      </trkpt>
      <trkpt lat="45.62024" lon="6.67867">
        <ele>1702.1662406921</ele>
        <time>2019-07-06T11:37:10Z</time>
      </trkpt>
      <trkpt lat="45.62026" lon="6.67863">
        <ele>1702.1662406921</ele>
        <time>2019-07-06T11:37:12Z</time>
      </trkpt>
      <trkpt lat="45.62027" lon="6.67861">
        <ele>1702.1662406921</ele>
        <time>2019-07-06T11:37:16Z</time>
      </trkpt>
      <trkpt lat="45.62028" lon="6.67858">
        <ele>1702.1662406921</ele>
        <time>2019-07-06T11:37:17Z</time>
      </trkpt>
      <trkpt lat="45.62029" lon="6.67856">
        <ele>1702.1921244812</ele>
        <time>2019-07-06T11:37:19Z</time>
      </trkpt>
      <trkpt lat="45.6203" lon="6.67853">
        <ele>1702.2434038269</ele>
        <time>2019-07-06T11:37:21Z</time>
      </trkpt>
      <trkpt lat="45.62031" lon="6.6785">
        <ele>1702.3862115422</ele>
        <time>2019-07-06T11:37:23Z</time>
      </trkpt>
      <trkpt lat="45.62032" lon="6.67847">
        <ele>1702.6495833437</ele>
        <time>2019-07-06T11:37:26Z</time>
      </trkpt>
      <trkpt lat="45.62034" lon="6.67845">
        <ele>1702.8894151831</ele>
        <time>2019-07-06T11:37:28Z</time>
      </trkpt>
      <trkpt lat="45.62035" lon="6.67843">
        <ele>1703.2705342046</ele>
        <time>2019-07-06T11:37:30Z</time>
      </trkpt>
      <trkpt lat="45.62037" lon="6.67841">
        <ele>1703.6683920257</ele>
        <time>2019-07-06T11:37:32Z</time>
      </trkpt>
      <trkpt lat="45.62039" lon="6.6784">
        <ele>1704.1675463852</ele>
        <time>2019-07-06T11:37:34Z</time>
      </trkpt>
      <trkpt lat="45.62042" lon="6.6784">
        <ele>1704.7928750512</ele>
        <time>2019-07-06T11:37:38Z</time>
      </trkpt>
      <trkpt lat="45.62043" lon="6.67838">
        <ele>1705.0207986593</ele>
        <time>2019-07-06T11:37:39Z</time>
      </trkpt>
      <trkpt lat="45.62045" lon="6.67837">
        <ele>1706.0486116075</ele>
        <time>2019-07-06T11:37:42Z</time>
      </trkpt>
      <trkpt lat="45.62047" lon="6.67838">
        <ele>1706.4079501435</ele>
        <time>2019-07-06T11:37:44Z</time>
      </trkpt>
      <trkpt lat="45.62049" lon="6.67841">
        <ele>1706.6580987046</ele>
        <time>2019-07-06T11:37:46Z</time>
      </trkpt>
      <trkpt lat="45.6205" lon="6.67843">
        <ele>1706.0768698793</ele>
        <time>2019-07-06T11:37:49Z</time>
      </trkpt>
      <trkpt lat="45.62051" lon="6.67845">
        <ele>1705.8826634063</ele>
        <time>2019-07-06T11:37:52Z</time>
      </trkpt>
      <trkpt lat="45.62053" lon="6.67846">
        <ele>1705.7891769089</ele>
        <time>2019-07-06T11:37:53Z</time>
      </trkpt>
      <trkpt lat="45.62055" lon="6.67848">
        <ele>1705.7433591118</ele>
        <time>2019-07-06T11:37:56Z</time>
      </trkpt>
      <trkpt lat="45.62057" lon="6.67849">
        <ele>1705.6142884877</ele>
        <time>2019-07-06T11:37:58Z</time>
      </trkpt>
      <trkpt lat="45.62058" lon="6.67851">
        <ele>1705.4966196076</ele>
        <time>2019-07-06T11:38:00Z</time>
      </trkpt>
      <trkpt lat="45.62058" lon="6.67855">
        <ele>1705.2115122547</ele>
        <time>2019-07-06T11:38:02Z</time>
      </trkpt>
      <trkpt lat="45.6206" lon="6.67857">
        <ele>1704.2387881343</ele>
        <time>2019-07-06T11:38:04Z</time>
      </trkpt>
      <trkpt lat="45.62062" lon="6.67859">
        <ele>1704.1510092845</ele>
        <time>2019-07-06T11:38:07Z</time>
      </trkpt>
      <trkpt lat="45.62064" lon="6.67862">
        <ele>1704.1718087127</ele>
        <time>2019-07-06T11:38:10Z</time>
      </trkpt>
      <trkpt lat="45.62065" lon="6.67864">
        <ele>1704.6336815629</ele>
        <time>2019-07-06T11:38:13Z</time>
      </trkpt>
      <trkpt lat="45.62067" lon="6.67867">
        <ele>1705.1422822883</ele>
        <time>2019-07-06T11:38:15Z</time>
      </trkpt>
      <trkpt lat="45.62069" lon="6.6787">
        <ele>1705.5875465183</ele>
        <time>2019-07-06T11:38:17Z</time>
      </trkpt>
      <trkpt lat="45.6207" lon="6.67872">
        <ele>1705.946241954</ele>
        <time>2019-07-06T11:38:20Z</time>
      </trkpt>
      <trkpt lat="45.62071" lon="6.67875">
        <ele>1706.1717753321</ele>
        <time>2019-07-06T11:38:23Z</time>
      </trkpt>
      <trkpt lat="45.62073" lon="6.67876">
        <ele>1706.6431253772</ele>
        <time>2019-07-06T11:38:26Z</time>
      </trkpt>
      <trkpt lat="45.62075" lon="6.67877">
        <ele>1707.0048608573</ele>
        <time>2019-07-06T11:38:28Z</time>
      </trkpt>
      <trkpt lat="45.62077" lon="6.67878">
        <ele>1707.6201530168</ele>
        <time>2019-07-06T11:38:30Z</time>
      </trkpt>
      <trkpt lat="45.62079" lon="6.6788">
        <ele>1708.1436616937</ele>
        <time>2019-07-06T11:38:34Z</time>
      </trkpt>
      <trkpt lat="45.62081" lon="6.67883">
        <ele>1708.6510283299</ele>
        <time>2019-07-06T11:38:36Z</time>
      </trkpt>
      <trkpt lat="45.62083" lon="6.67886">
        <ele>1709.2296087806</ele>
        <time>2019-07-06T11:38:39Z</time>
      </trkpt>
      <trkpt lat="45.62085" lon="6.67887">
        <ele>1709.781405623</ele>
        <time>2019-07-06T11:38:41Z</time>
      </trkpt>
      <trkpt lat="45.62088" lon="6.67887">
        <ele>1710.5044292213</ele>
        <time>2019-07-06T11:38:44Z</time>
      </trkpt>
      <trkpt lat="45.6209" lon="6.67886">
        <ele>1710.970154076</ele>
        <time>2019-07-06T11:38:47Z</time>
      </trkpt>
      <trkpt lat="45.62092" lon="6.67883">
        <ele>1711.358342326</ele>
        <time>2019-07-06T11:38:49Z</time>
      </trkpt>
      <trkpt lat="45.62094" lon="6.67882">
        <ele>1711.6941101948</ele>
        <time>2019-07-06T11:38:51Z</time>
      </trkpt>
      <trkpt lat="45.62096" lon="6.6788">
        <ele>1711.9366182641</ele>
        <time>2019-07-06T11:38:53Z</time>
      </trkpt>
      <trkpt lat="45.62098" lon="6.67881">
        <ele>1712.182665171</ele>
        <time>2019-07-06T11:38:55Z</time>
      </trkpt>
      <trkpt lat="45.62101" lon="6.67879">
        <ele>1712.6038227904</ele>
        <time>2019-07-06T11:38:58Z</time>
      </trkpt>
      <trkpt lat="45.62103" lon="6.67878">
        <ele>1712.7350720795</ele>
        <time>2019-07-06T11:39:00Z</time>
      </trkpt>
      <trkpt lat="45.62105" lon="6.67879">
        <ele>1713.1158283224</ele>
        <time>2019-07-06T11:39:03Z</time>
      </trkpt>
      <trkpt lat="45.62106" lon="6.67877">
        <ele>1713.2297846401</ele>
        <time>2019-07-06T11:39:06Z</time>
      </trkpt>
      <trkpt lat="45.62108" lon="6.67874">
        <ele>1713.0214198367</ele>
        <time>2019-07-06T11:39:09Z</time>
      </trkpt>
      <trkpt lat="45.6211" lon="6.67874">
        <ele>1712.7844567902</ele>
        <time>2019-07-06T11:39:11Z</time>
      </trkpt>
      <trkpt lat="45.62112" lon="6.67872">
        <ele>1712.849644919</ele>
        <time>2019-07-06T11:39:14Z</time>
      </trkpt>
      <trkpt lat="45.62115" lon="6.67872">
        <ele>1713.1300278594</ele>
        <time>2019-07-06T11:39:16Z</time>
      </trkpt>
      <trkpt lat="45.62117" lon="6.67873">
        <ele>1714.0244882928</ele>
        <time>2019-07-06T11:39:19Z</time>
      </trkpt>
      <trkpt lat="45.62118" lon="6.6787">
        <ele>1714.3422963127</ele>
        <time>2019-07-06T11:39:21Z</time>
      </trkpt>
      <trkpt lat="45.6212" lon="6.67868">
        <ele>1714.0973226315</ele>
        <time>2019-07-06T11:39:24Z</time>
      </trkpt>
      <trkpt lat="45.62122" lon="6.67868">
        <ele>1714.2618736784</ele>
        <time>2019-07-06T11:39:27Z</time>
      </trkpt>
      <trkpt lat="45.62123" lon="6.67869">
        <ele>1714.6377790884</ele>
        <time>2019-07-06T11:39:28Z</time>
      </trkpt>
      <trkpt lat="45.62126" lon="6.67869">
        <ele>1715.461487082</ele>
        <time>2019-07-06T11:39:30Z</time>
      </trkpt>
      <trkpt lat="45.62128" lon="6.67869">
        <ele>1716.1130839122</ele>
        <time>2019-07-06T11:39:33Z</time>
      </trkpt>
      <trkpt lat="45.6213" lon="6.67868">
        <ele>1716.5064610775</ele>
        <time>2019-07-06T11:39:35Z</time>
      </trkpt>
      <trkpt lat="45.62132" lon="6.67867">
        <ele>1716.725387309</ele>
        <time>2019-07-06T11:39:38Z</time>
      </trkpt>
      <trkpt lat="45.62133" lon="6.6787">
        <ele>1717.6664259891</ele>
        <time>2019-07-06T11:39:42Z</time>
      </trkpt>
      <trkpt lat="45.62136" lon="6.6787">
        <ele>1718.4225045493</ele>
        <time>2019-07-06T11:39:45Z</time>
      </trkpt>
      <trkpt lat="45.62138" lon="6.67872">
        <ele>1719.3343209088</ele>
        <time>2019-07-06T11:39:47Z</time>
      </trkpt>
      <trkpt lat="45.6214" lon="6.67872">
        <ele>1720.0012674416</ele>
        <time>2019-07-06T11:39:49Z</time>
      </trkpt>
      <trkpt lat="45.62141" lon="6.67874">
        <ele>1720.5402339604</ele>
        <time>2019-07-06T11:39:53Z</time>
      </trkpt>
      <trkpt lat="45.62143" lon="6.67876">
        <ele>1721.0801042014</ele>
        <time>2019-07-06T11:39:58Z</time>
      </trkpt>
      <trkpt lat="45.62143" lon="6.67876">
        <ele>1721.1978658995</ele>
        <time>2019-07-06T11:40:00Z</time>
      </trkpt>
      <trkpt lat="45.62145" lon="6.67875">
        <ele>1721.1821932334</ele>
        <time>2019-07-06T11:40:43Z</time>
      </trkpt>
      <trkpt lat="45.62144" lon="6.67873">
        <ele>1720.4827034901</ele>
        <time>2019-07-06T11:41:05Z</time>
      </trkpt>
      <trkpt lat="45.62144" lon="6.6787">
        <ele>1719.844406928</ele>
        <time>2019-07-06T11:41:11Z</time>
      </trkpt>
      <trkpt lat="45.62143" lon="6.67872">
        <ele>1720.1213692387</ele>
        <time>2019-07-06T11:41:15Z</time>
      </trkpt>
      <trkpt lat="45.62144" lon="6.67874">
        <ele>1720.5559526212</ele>
        <time>2019-07-06T11:41:24Z</time>
      </trkpt>
      <trkpt lat="45.62146" lon="6.67874">
        <ele>1720.4499983622</ele>
        <time>2019-07-06T11:41:32Z</time>
      </trkpt>
      <trkpt lat="45.62149" lon="6.67876">
        <ele>1720.8552184056</ele>
        <time>2019-07-06T11:41:34Z</time>
      </trkpt>
      <trkpt lat="45.6215" lon="6.67878">
        <ele>1721.2573064322</ele>
        <time>2019-07-06T11:41:35Z</time>
      </trkpt>
      <trkpt lat="45.62151" lon="6.6788">
        <ele>1721.7126885747</ele>
        <time>2019-07-06T11:41:36Z</time>
      </trkpt>
      <trkpt lat="45.62152" lon="6.67883">
        <ele>1722.8435622865</ele>
        <time>2019-07-06T11:41:39Z</time>
      </trkpt>
      <trkpt lat="45.62155" lon="6.67883">
        <ele>1723.0679408409</ele>
        <time>2019-07-06T11:41:42Z</time>
      </trkpt>
      <trkpt lat="45.62157" lon="6.67884">
        <ele>1723.3202528108</ele>
        <time>2019-07-06T11:41:44Z</time>
      </trkpt>
      <trkpt lat="45.62159" lon="6.67884">
        <ele>1723.442514089</ele>
        <time>2019-07-06T11:41:47Z</time>
      </trkpt>
      <trkpt lat="45.62161" lon="6.67884">
        <ele>1723.3376435628</ele>
        <time>2019-07-06T11:41:49Z</time>
      </trkpt>
      <trkpt lat="45.62164" lon="6.67884">
        <ele>1723.4222902688</ele>
        <time>2019-07-06T11:41:52Z</time>
      </trkpt>
      <trkpt lat="45.62167" lon="6.67884">
        <ele>1723.3157372202</ele>
        <time>2019-07-06T11:41:55Z</time>
      </trkpt>
      <trkpt lat="45.62169" lon="6.67883">
        <ele>1723.1193263327</ele>
        <time>2019-07-06T11:41:59Z</time>
      </trkpt>
      <trkpt lat="45.62171" lon="6.67882">
        <ele>1722.646081229</ele>
        <time>2019-07-06T11:42:02Z</time>
      </trkpt>
      <trkpt lat="45.62173" lon="6.67882">
        <ele>1722.8646017583</ele>
        <time>2019-07-06T11:42:05Z</time>
      </trkpt>
      <trkpt lat="45.62176" lon="6.67882">
        <ele>1722.7610917344</ele>
        <time>2019-07-06T11:42:07Z</time>
      </trkpt>
      <trkpt lat="45.62178" lon="6.67881">
        <ele>1722.5957439904</ele>
        <time>2019-07-06T11:42:10Z</time>
      </trkpt>
      <trkpt lat="45.6218" lon="6.67882">
        <ele>1722.7724986157</ele>
        <time>2019-07-06T11:42:12Z</time>
      </trkpt>
      <trkpt lat="45.62182" lon="6.67882">
        <ele>1722.8251877929</ele>
        <time>2019-07-06T11:42:14Z</time>
      </trkpt>
      <trkpt lat="45.62184" lon="6.67881">
        <ele>1722.4918060113</ele>
        <time>2019-07-06T11:42:17Z</time>
      </trkpt>
      <trkpt lat="45.62186" lon="6.67881">
        <ele>1722.3619657936</ele>
        <time>2019-07-06T11:42:20Z</time>
      </trkpt>
      <trkpt lat="45.62187" lon="6.67883">
        <ele>1722.7629538025</ele>
        <time>2019-07-06T11:42:22Z</time>
      </trkpt>
      <trkpt lat="45.62189" lon="6.67884">
        <ele>1722.9416712805</ele>
        <time>2019-07-06T11:42:23Z</time>
      </trkpt>
      <trkpt lat="45.62191" lon="6.67884">
        <ele>1723.3966195097</ele>
        <time>2019-07-06T11:42:25Z</time>
      </trkpt>
      <trkpt lat="45.62193" lon="6.67886">
        <ele>1723.6242988297</ele>
        <time>2019-07-06T11:42:28Z</time>
      </trkpt>
      <trkpt lat="45.62194" lon="6.67888">
        <ele>1724.2870553334</ele>
        <time>2019-07-06T11:42:32Z</time>
      </trkpt>
      <trkpt lat="45.62197" lon="6.67888">
        <ele>1724.6394434675</ele>
        <time>2019-07-06T11:42:34Z</time>
      </trkpt>
      <trkpt lat="45.62199" lon="6.67891">
        <ele>1725.6679807765</ele>
        <time>2019-07-06T11:42:36Z</time>
      </trkpt>
      <trkpt lat="45.62201" lon="6.67892">
        <ele>1727.7092226568</ele>
        <time>2019-07-06T11:42:39Z</time>
      </trkpt>
      <trkpt lat="45.62203" lon="6.67894">
        <ele>1728.4881456126</ele>
        <time>2019-07-06T11:42:42Z</time>
      </trkpt>
      <trkpt lat="45.62205" lon="6.67896">
        <ele>1729.8363274171</ele>
        <time>2019-07-06T11:42:44Z</time>
      </trkpt>
      <trkpt lat="45.62207" lon="6.67897">
        <ele>1730.9844002996</ele>
        <time>2019-07-06T11:42:46Z</time>
      </trkpt>
      <trkpt lat="45.62209" lon="6.67899">
        <ele>1731.6768575909</ele>
        <time>2019-07-06T11:42:48Z</time>
      </trkpt>
      <trkpt lat="45.62211" lon="6.67899">
        <ele>1732.6184110701</ele>
        <time>2019-07-06T11:42:50Z</time>
      </trkpt>
      <trkpt lat="45.62213" lon="6.679">
        <ele>1733.1551108313</ele>
        <time>2019-07-06T11:42:53Z</time>
      </trkpt>
      <trkpt lat="45.62216" lon="6.679">
        <ele>1733.9893239736</ele>
        <time>2019-07-06T11:42:55Z</time>
      </trkpt>
      <trkpt lat="45.62219" lon="6.67898">
        <ele>1733.9127637613</ele>
        <time>2019-07-06T11:42:57Z</time>
      </trkpt>
      <trkpt lat="45.6222" lon="6.67897">
        <ele>1733.9131517236</ele>
        <time>2019-07-06T11:42:59Z</time>
      </trkpt>
      <trkpt lat="45.62223" lon="6.67895">
        <ele>1733.8853319635</ele>
        <time>2019-07-06T11:43:02Z</time>
      </trkpt>
      <trkpt lat="45.62225" lon="6.67894">
        <ele>1733.7943898568</ele>
        <time>2019-07-06T11:43:04Z</time>
      </trkpt>
      <trkpt lat="45.62227" lon="6.67895">
        <ele>1733.9545290197</ele>
        <time>2019-07-06T11:43:06Z</time>
      </trkpt>
      <trkpt lat="45.6223" lon="6.67895">
        <ele>1734.1066346934</ele>
        <time>2019-07-06T11:43:09Z</time>
      </trkpt>
      <trkpt lat="45.62232" lon="6.67896">
        <ele>1734.4065542551</ele>
        <time>2019-07-06T11:43:12Z</time>
      </trkpt>
      <trkpt lat="45.62234" lon="6.67895">
        <ele>1734.5878967772</ele>
        <time>2019-07-06T11:43:15Z</time>
      </trkpt>
      <trkpt lat="45.62236" lon="6.67894">
        <ele>1734.3754731221</ele>
        <time>2019-07-06T11:43:17Z</time>
      </trkpt>
      <trkpt lat="45.62238" lon="6.67894">
        <ele>1734.261431161</ele>
        <time>2019-07-06T11:43:19Z</time>
      </trkpt>
      <trkpt lat="45.62241" lon="6.67894">
        <ele>1734.2751882023</ele>
        <time>2019-07-06T11:43:21Z</time>
      </trkpt>
      <trkpt lat="45.62243" lon="6.67895">
        <ele>1735.0715780332</ele>
        <time>2019-07-06T11:43:24Z</time>
      </trkpt>
      <trkpt lat="45.62246" lon="6.67896">
        <ele>1735.4290670413</ele>
        <time>2019-07-06T11:43:28Z</time>
      </trkpt>
      <trkpt lat="45.62248" lon="6.67896">
        <ele>1735.6000054302</ele>
        <time>2019-07-06T11:43:30Z</time>
      </trkpt>
      <trkpt lat="45.6225" lon="6.67896">
        <ele>1735.6603626893</ele>
        <time>2019-07-06T11:43:33Z</time>
      </trkpt>
      <trkpt lat="45.62252" lon="6.67897">
        <ele>1736.2216946074</ele>
        <time>2019-07-06T11:43:35Z</time>
      </trkpt>
      <trkpt lat="45.62254" lon="6.67897">
        <ele>1736.3718660321</ele>
        <time>2019-07-06T11:43:37Z</time>
      </trkpt>
      <trkpt lat="45.62256" lon="6.67896">
        <ele>1736.1297239475</ele>
        <time>2019-07-06T11:43:39Z</time>
      </trkpt>
      <trkpt lat="45.62259" lon="6.67895">
        <ele>1735.8997646848</ele>
        <time>2019-07-06T11:43:41Z</time>
      </trkpt>
      <trkpt lat="45.62261" lon="6.67894">
        <ele>1735.278440434</ele>
        <time>2019-07-06T11:43:43Z</time>
      </trkpt>
      <trkpt lat="45.62264" lon="6.67895">
        <ele>1735.3049509143</ele>
        <time>2019-07-06T11:43:46Z</time>
      </trkpt>
      <trkpt lat="45.62266" lon="6.67896">
        <ele>1735.5337911244</ele>
        <time>2019-07-06T11:43:48Z</time>
      </trkpt>
      <trkpt lat="45.62267" lon="6.67899">
        <ele>1736.625670591</ele>
        <time>2019-07-06T11:43:50Z</time>
      </trkpt>
      <trkpt lat="45.62269" lon="6.679">
        <ele>1737.6494409482</ele>
        <time>2019-07-06T11:43:52Z</time>
      </trkpt>
      <trkpt lat="45.62271" lon="6.67899">
        <ele>1737.6776522845</ele>
        <time>2019-07-06T11:43:54Z</time>
      </trkpt>
      <trkpt lat="45.62273" lon="6.67897">
        <ele>1737.0699509995</ele>
        <time>2019-07-06T11:43:56Z</time>
      </trkpt>
      <trkpt lat="45.62277" lon="6.67898">
        <ele>1736.8567672052</ele>
        <time>2019-07-06T11:43:59Z</time>
      </trkpt>
      <trkpt lat="45.62279" lon="6.67897">
        <ele>1736.8798744729</ele>
        <time>2019-07-06T11:44:01Z</time>
      </trkpt>
      <trkpt lat="45.62281" lon="6.67895">
        <ele>1736.4545830846</ele>
        <time>2019-07-06T11:44:03Z</time>
      </trkpt>
      <trkpt lat="45.62284" lon="6.67893">
        <ele>1735.8064873973</ele>
        <time>2019-07-06T11:44:05Z</time>
      </trkpt>
      <trkpt lat="45.62286" lon="6.67892">
        <ele>1735.5869266065</ele>
        <time>2019-07-06T11:44:07Z</time>
      </trkpt>
      <trkpt lat="45.62289" lon="6.6789">
        <ele>1736.1269502368</ele>
        <time>2019-07-06T11:44:09Z</time>
      </trkpt>
      <trkpt lat="45.62291" lon="6.67889">
        <ele>1735.6104843607</ele>
        <time>2019-07-06T11:44:12Z</time>
      </trkpt>
      <trkpt lat="45.62293" lon="6.67887">
        <ele>1735.6056867909</ele>
        <time>2019-07-06T11:44:14Z</time>
      </trkpt>
      <trkpt lat="45.62295" lon="6.67888">
        <ele>1736.1801798309</ele>
        <time>2019-07-06T11:44:16Z</time>
      </trkpt>
      <trkpt lat="45.62297" lon="6.67886">
        <ele>1736.7348017144</ele>
        <time>2019-07-06T11:44:18Z</time>
      </trkpt>
      <trkpt lat="45.623" lon="6.67886">
        <ele>1736.9824760012</ele>
        <time>2019-07-06T11:44:21Z</time>
      </trkpt>
      <trkpt lat="45.62302" lon="6.67887">
        <ele>1737.5799828792</ele>
        <time>2019-07-06T11:44:23Z</time>
      </trkpt>
      <trkpt lat="45.62304" lon="6.67888">
        <ele>1738.6902816785</ele>
        <time>2019-07-06T11:44:25Z</time>
      </trkpt>
      <trkpt lat="45.62307" lon="6.67888">
        <ele>1739.2789074333</ele>
        <time>2019-07-06T11:44:28Z</time>
      </trkpt>
      <trkpt lat="45.62309" lon="6.67889">
        <ele>1739.4632731213</ele>
        <time>2019-07-06T11:44:30Z</time>
      </trkpt>
      <trkpt lat="45.62311" lon="6.67891">
        <ele>1739.9107112606</ele>
        <time>2019-07-06T11:44:32Z</time>
      </trkpt>
      <trkpt lat="45.62314" lon="6.67892">
        <ele>1740.4299500463</ele>
        <time>2019-07-06T11:44:34Z</time>
      </trkpt>
      <trkpt lat="45.62317" lon="6.67892">
        <ele>1740.3938280099</ele>
        <time>2019-07-06T11:44:37Z</time>
      </trkpt>
      <trkpt lat="45.6232" lon="6.67891">
        <ele>1740.3850790653</ele>
        <time>2019-07-06T11:44:39Z</time>
      </trkpt>
      <trkpt lat="45.62322" lon="6.67889">
        <ele>1739.9433192126</ele>
        <time>2019-07-06T11:44:41Z</time>
      </trkpt>
      <trkpt lat="45.62324" lon="6.67888">
        <ele>1739.6482033719</ele>
        <time>2019-07-06T11:44:43Z</time>
      </trkpt>
      <trkpt lat="45.62327" lon="6.67888">
        <ele>1739.8279743638</ele>
        <time>2019-07-06T11:44:46Z</time>
      </trkpt>
      <trkpt lat="45.62329" lon="6.67887">
        <ele>1739.60843298</ele>
        <time>2019-07-06T11:44:48Z</time>
      </trkpt>
      <trkpt lat="45.62331" lon="6.67885">
        <ele>1739.5822791979</ele>
        <time>2019-07-06T11:44:51Z</time>
      </trkpt>
      <trkpt lat="45.62333" lon="6.67884">
        <ele>1739.6524591827</ele>
        <time>2019-07-06T11:44:53Z</time>
      </trkpt>
      <trkpt lat="45.62335" lon="6.67883">
        <ele>1739.6763981857</ele>
        <time>2019-07-06T11:44:54Z</time>
      </trkpt>
      <trkpt lat="45.62337" lon="6.67882">
        <ele>1740.3697419253</ele>
        <time>2019-07-06T11:44:56Z</time>
      </trkpt>
      <trkpt lat="45.6234" lon="6.67881">
        <ele>1741.1093645717</ele>
        <time>2019-07-06T11:44:58Z</time>
      </trkpt>
      <trkpt lat="45.62342" lon="6.67879">
        <ele>1741.5730120188</ele>
        <time>2019-07-06T11:45:00Z</time>
      </trkpt>
      <trkpt lat="45.62344" lon="6.67879">
        <ele>1742.3563264718</ele>
        <time>2019-07-06T11:45:02Z</time>
      </trkpt>
      <trkpt lat="45.62347" lon="6.67879">
        <ele>1743.0073539957</ele>
        <time>2019-07-06T11:45:05Z</time>
      </trkpt>
      <trkpt lat="45.62349" lon="6.67877">
        <ele>1743.7079099304</ele>
        <time>2019-07-06T11:45:08Z</time>
      </trkpt>
      <trkpt lat="45.6235" lon="6.67874">
        <ele>1744.0477946905</ele>
        <time>2019-07-06T11:45:11Z</time>
      </trkpt>
      <trkpt lat="45.62352" lon="6.67871">
        <ele>1744.5075440251</ele>
        <time>2019-07-06T11:45:13Z</time>
      </trkpt>
      <trkpt lat="45.62354" lon="6.67871">
        <ele>1744.9971769188</ele>
        <time>2019-07-06T11:45:15Z</time>
      </trkpt>
      <trkpt lat="45.62356" lon="6.67869">
        <ele>1745.557080572</ele>
        <time>2019-07-06T11:45:17Z</time>
      </trkpt>
      <trkpt lat="45.62358" lon="6.67868">
        <ele>1746.1424281437</ele>
        <time>2019-07-06T11:45:19Z</time>
      </trkpt>
      <trkpt lat="45.62359" lon="6.67866">
        <ele>1746.4719498323</ele>
        <time>2019-07-06T11:45:21Z</time>
      </trkpt>
      <trkpt lat="45.62361" lon="6.67864">
        <ele>1746.8826950003</ele>
        <time>2019-07-06T11:45:23Z</time>
      </trkpt>
      <trkpt lat="45.62363" lon="6.67863">
        <ele>1747.2151837997</ele>
        <time>2019-07-06T11:45:25Z</time>
      </trkpt>
      <trkpt lat="45.62365" lon="6.67864">
        <ele>1747.2823436089</ele>
        <time>2019-07-06T11:45:29Z</time>
      </trkpt>
      <trkpt lat="45.62367" lon="6.67863">
        <ele>1747.2800257277</ele>
        <time>2019-07-06T11:45:33Z</time>
      </trkpt>
      <trkpt lat="45.62369" lon="6.67861">
        <ele>1747.2685887284</ele>
        <time>2019-07-06T11:45:37Z</time>
      </trkpt>
      <trkpt lat="45.62371" lon="6.67858">
        <ele>1746.8122299928</ele>
        <time>2019-07-06T11:45:39Z</time>
      </trkpt>
      <trkpt lat="45.62373" lon="6.67857">
        <ele>1746.5702520318</ele>
        <time>2019-07-06T11:45:43Z</time>
      </trkpt>
      <trkpt lat="45.62375" lon="6.67857">
        <ele>1746.5938147411</ele>
        <time>2019-07-06T11:45:45Z</time>
      </trkpt>
      <trkpt lat="45.62377" lon="6.67856">
        <ele>1746.6343441695</ele>
        <time>2019-07-06T11:45:48Z</time>
      </trkpt>
      <trkpt lat="45.62379" lon="6.67855">
        <ele>1746.6283575993</ele>
        <time>2019-07-06T11:45:51Z</time>
      </trkpt>
      <trkpt lat="45.62381" lon="6.67853">
        <ele>1746.5897083022</ele>
        <time>2019-07-06T11:45:54Z</time>
      </trkpt>
      <trkpt lat="45.62383" lon="6.6785">
        <ele>1746.5603097896</ele>
        <time>2019-07-06T11:45:57Z</time>
      </trkpt>
      <trkpt lat="45.62385" lon="6.67849">
        <ele>1746.6462409534</ele>
        <time>2019-07-06T11:45:59Z</time>
      </trkpt>
      <trkpt lat="45.62388" lon="6.67846">
        <ele>1746.8744293666</ele>
        <time>2019-07-06T11:46:01Z</time>
      </trkpt>
      <trkpt lat="45.62389" lon="6.67844">
        <ele>1747.1164345986</ele>
        <time>2019-07-06T11:46:04Z</time>
      </trkpt>
      <trkpt lat="45.62391" lon="6.67843">
        <ele>1747.4032231</ele>
        <time>2019-07-06T11:46:06Z</time>
      </trkpt>
      <trkpt lat="45.62393" lon="6.67841">
        <ele>1748.1054824353</ele>
        <time>2019-07-06T11:46:09Z</time>
      </trkpt>
      <trkpt lat="45.62396" lon="6.67839">
        <ele>1748.7435139689</ele>
        <time>2019-07-06T11:46:11Z</time>
      </trkpt>
      <trkpt lat="45.62397" lon="6.67839">
        <ele>1749.1620024386</ele>
        <time>2019-07-06T11:46:13Z</time>
      </trkpt>
      <trkpt lat="45.62399" lon="6.67839">
        <ele>1749.7184700381</ele>
        <time>2019-07-06T11:46:15Z</time>
      </trkpt>
      <trkpt lat="45.62401" lon="6.67838">
        <ele>1750.3496996598</ele>
        <time>2019-07-06T11:46:18Z</time>
      </trkpt>
      <trkpt lat="45.62403" lon="6.67835">
        <ele>1750.9123090388</ele>
        <time>2019-07-06T11:46:21Z</time>
      </trkpt>
      <trkpt lat="45.62405" lon="6.67834">
        <ele>1751.4271205651</ele>
        <time>2019-07-06T11:46:23Z</time>
      </trkpt>
      <trkpt lat="45.62407" lon="6.67833">
        <ele>1751.8365106237</ele>
        <time>2019-07-06T11:46:25Z</time>
      </trkpt>
      <trkpt lat="45.6241" lon="6.67831">
        <ele>1752.4879079911</ele>
        <time>2019-07-06T11:46:27Z</time>
      </trkpt>
      <trkpt lat="45.62412" lon="6.6783">
        <ele>1753.0942436108</ele>
        <time>2019-07-06T11:46:31Z</time>
      </trkpt>
      <trkpt lat="45.62414" lon="6.67828">
        <ele>1753.629734613</ele>
        <time>2019-07-06T11:46:34Z</time>
      </trkpt>
      <trkpt lat="45.62415" lon="6.67826">
        <ele>1754.0580875454</ele>
        <time>2019-07-06T11:46:36Z</time>
      </trkpt>
      <trkpt lat="45.62417" lon="6.67826">
        <ele>1754.5678190728</ele>
        <time>2019-07-06T11:46:38Z</time>
      </trkpt>
      <trkpt lat="45.62419" lon="6.67826">
        <ele>1754.9982960267</ele>
        <time>2019-07-06T11:46:40Z</time>
      </trkpt>
      <trkpt lat="45.62421" lon="6.67824">
        <ele>1755.3499335599</ele>
        <time>2019-07-06T11:46:42Z</time>
      </trkpt>
      <trkpt lat="45.62423" lon="6.67822">
        <ele>1755.5786311204</ele>
        <time>2019-07-06T11:46:47Z</time>
      </trkpt>
      <trkpt lat="45.62425" lon="6.6782">
        <ele>1755.8978668277</ele>
        <time>2019-07-06T11:46:50Z</time>
      </trkpt>
      <trkpt lat="45.62427" lon="6.67819">
        <ele>1756.0886439491</ele>
        <time>2019-07-06T11:46:53Z</time>
      </trkpt>
      <trkpt lat="45.62429" lon="6.67819">
        <ele>1756.2673098239</ele>
        <time>2019-07-06T11:46:56Z</time>
      </trkpt>
      <trkpt lat="45.62432" lon="6.67817">
        <ele>1756.4824041392</ele>
        <time>2019-07-06T11:46:59Z</time>
      </trkpt>
      <trkpt lat="45.62434" lon="6.67817">
        <ele>1756.47942552</ele>
        <time>2019-07-06T11:47:01Z</time>
      </trkpt>
      <trkpt lat="45.62435" lon="6.67816">
        <ele>1756.5359735547</ele>
        <time>2019-07-06T11:47:04Z</time>
      </trkpt>
      <trkpt lat="45.62437" lon="6.67814">
        <ele>1756.5565249348</ele>
        <time>2019-07-06T11:47:06Z</time>
      </trkpt>
      <trkpt lat="45.6244" lon="6.67814">
        <ele>1756.4649416453</ele>
        <time>2019-07-06T11:47:09Z</time>
      </trkpt>
      <trkpt lat="45.62442" lon="6.67813">
        <ele>1756.5841637827</ele>
        <time>2019-07-06T11:47:12Z</time>
      </trkpt>
      <trkpt lat="45.62444" lon="6.67813">
        <ele>1756.6921606457</ele>
        <time>2019-07-06T11:47:14Z</time>
      </trkpt>
      <trkpt lat="45.62446" lon="6.67812">
        <ele>1756.6393746475</ele>
        <time>2019-07-06T11:47:16Z</time>
      </trkpt>
      <trkpt lat="45.62448" lon="6.6781">
        <ele>1756.6564578715</ele>
        <time>2019-07-06T11:47:18Z</time>
      </trkpt>
      <trkpt lat="45.6245" lon="6.67808">
        <ele>1756.7423769948</ele>
        <time>2019-07-06T11:47:20Z</time>
      </trkpt>
      <trkpt lat="45.62452" lon="6.67806">
        <ele>1756.9561074122</ele>
        <time>2019-07-06T11:47:24Z</time>
      </trkpt>
      <trkpt lat="45.62454" lon="6.67806">
        <ele>1757.1886222301</ele>
        <time>2019-07-06T11:47:28Z</time>
      </trkpt>
      <trkpt lat="45.62456" lon="6.67805">
        <ele>1757.501569488</ele>
        <time>2019-07-06T11:47:30Z</time>
      </trkpt>
      <trkpt lat="45.62457" lon="6.67804">
        <ele>1758.0787346051</ele>
        <time>2019-07-06T11:47:32Z</time>
      </trkpt>
      <trkpt lat="45.62459" lon="6.67803">
        <ele>1758.4768719789</ele>
        <time>2019-07-06T11:47:34Z</time>
      </trkpt>
      <trkpt lat="45.62461" lon="6.67802">
        <ele>1758.8100586749</ele>
        <time>2019-07-06T11:47:36Z</time>
      </trkpt>
      <trkpt lat="45.62463" lon="6.67801">
        <ele>1759.3760294392</ele>
        <time>2019-07-06T11:47:40Z</time>
      </trkpt>
      <trkpt lat="45.62466" lon="6.67799">
        <ele>1760.0978362231</ele>
        <time>2019-07-06T11:47:43Z</time>
      </trkpt>
      <trkpt lat="45.62467" lon="6.67797">
        <ele>1760.6872630997</ele>
        <time>2019-07-06T11:47:47Z</time>
      </trkpt>
      <trkpt lat="45.62469" lon="6.67794">
        <ele>1760.9774628791</ele>
        <time>2019-07-06T11:47:49Z</time>
      </trkpt>
      <trkpt lat="45.62471" lon="6.67792">
        <ele>1761.5253856289</ele>
        <time>2019-07-06T11:47:51Z</time>
      </trkpt>
      <trkpt lat="45.62473" lon="6.6779">
        <ele>1761.982996204</ele>
        <time>2019-07-06T11:47:53Z</time>
      </trkpt>
      <trkpt lat="45.62474" lon="6.67787">
        <ele>1762.3849258254</ele>
        <time>2019-07-06T11:47:55Z</time>
      </trkpt>
      <trkpt lat="45.62477" lon="6.67784">
        <ele>1763.1276971702</ele>
        <time>2019-07-06T11:47:58Z</time>
      </trkpt>
      <trkpt lat="45.62479" lon="6.67781">
        <ele>1763.675522005</ele>
        <time>2019-07-06T11:48:00Z</time>
      </trkpt>
      <trkpt lat="45.6248" lon="6.67779">
        <ele>1764.1771098725</ele>
        <time>2019-07-06T11:48:02Z</time>
      </trkpt>
      <trkpt lat="45.62481" lon="6.67777">
        <ele>1764.4984001652</ele>
        <time>2019-07-06T11:48:04Z</time>
      </trkpt>
      <trkpt lat="45.62483" lon="6.67774">
        <ele>1764.9214236817</ele>
        <time>2019-07-06T11:48:07Z</time>
      </trkpt>
      <trkpt lat="45.62485" lon="6.67771">
        <ele>1765.3478998058</ele>
        <time>2019-07-06T11:48:10Z</time>
      </trkpt>
      <trkpt lat="45.62486" lon="6.67769">
        <ele>1765.7873388552</ele>
        <time>2019-07-06T11:48:13Z</time>
      </trkpt>
      <trkpt lat="45.62488" lon="6.67767">
        <ele>1766.1773271621</ele>
        <time>2019-07-06T11:48:15Z</time>
      </trkpt>
      <trkpt lat="45.6249" lon="6.67765">
        <ele>1766.6332937708</ele>
        <time>2019-07-06T11:48:18Z</time>
      </trkpt>
      <trkpt lat="45.62492" lon="6.67764">
        <ele>1767.1643829026</ele>
        <time>2019-07-06T11:48:20Z</time>
      </trkpt>
      <trkpt lat="45.62495" lon="6.67763">
        <ele>1768.0154689487</ele>
        <time>2019-07-06T11:48:24Z</time>
      </trkpt>
      <trkpt lat="45.62497" lon="6.67762">
        <ele>1768.6522777866</ele>
        <time>2019-07-06T11:48:27Z</time>
      </trkpt>
      <trkpt lat="45.62499" lon="6.6776">
        <ele>1769.0735729869</ele>
        <time>2019-07-06T11:48:29Z</time>
      </trkpt>
      <trkpt lat="45.62501" lon="6.67759">
        <ele>1769.613543166</ele>
        <time>2019-07-06T11:48:32Z</time>
      </trkpt>
      <trkpt lat="45.62503" lon="6.67756">
        <ele>1769.8992176489</ele>
        <time>2019-07-06T11:48:36Z</time>
      </trkpt>
      <trkpt lat="45.62505" lon="6.67755">
        <ele>1769.9230648556</ele>
        <time>2019-07-06T11:48:39Z</time>
      </trkpt>
      <trkpt lat="45.62507" lon="6.67752">
        <ele>1769.9052896467</ele>
        <time>2019-07-06T11:48:41Z</time>
      </trkpt>
      <trkpt lat="45.62509" lon="6.6775">
        <ele>1769.8209566211</ele>
        <time>2019-07-06T11:48:43Z</time>
      </trkpt>
      <trkpt lat="45.62511" lon="6.67748">
        <ele>1769.5574961034</ele>
        <time>2019-07-06T11:48:45Z</time>
      </trkpt>
      <trkpt lat="45.62512" lon="6.67745">
        <ele>1769.1427340291</ele>
        <time>2019-07-06T11:48:49Z</time>
      </trkpt>
      <trkpt lat="45.62515" lon="6.67745">
        <ele>1769.0127353618</ele>
        <time>2019-07-06T11:48:51Z</time>
      </trkpt>
      <trkpt lat="45.62517" lon="6.67744">
        <ele>1769.0301560783</ele>
        <time>2019-07-06T11:48:53Z</time>
      </trkpt>
      <trkpt lat="45.6252" lon="6.67743">
        <ele>1769.1612167901</ele>
        <time>2019-07-06T11:48:56Z</time>
      </trkpt>
      <trkpt lat="45.62522" lon="6.67741">
        <ele>1769.1596758587</ele>
        <time>2019-07-06T11:49:00Z</time>
      </trkpt>
      <trkpt lat="45.62524" lon="6.67739">
        <ele>1769.22882214</ele>
        <time>2019-07-06T11:49:03Z</time>
      </trkpt>
      <trkpt lat="45.62526" lon="6.67738">
        <ele>1769.36579595</ele>
        <time>2019-07-06T11:49:05Z</time>
      </trkpt>
      <trkpt lat="45.62528" lon="6.67737">
        <ele>1769.5717860494</ele>
        <time>2019-07-06T11:49:07Z</time>
      </trkpt>
      <trkpt lat="45.6253" lon="6.67736">
        <ele>1769.9920844758</ele>
        <time>2019-07-06T11:49:09Z</time>
      </trkpt>
      <trkpt lat="45.62532" lon="6.67734">
        <ele>1770.5687740323</ele>
        <time>2019-07-06T11:49:11Z</time>
      </trkpt>
      <trkpt lat="45.62535" lon="6.67733">
        <ele>1771.2296484745</ele>
        <time>2019-07-06T11:49:14Z</time>
      </trkpt>
      <trkpt lat="45.62537" lon="6.67733">
        <ele>1771.9760832747</ele>
        <time>2019-07-06T11:49:17Z</time>
      </trkpt>
      <trkpt lat="45.62539" lon="6.67733">
        <ele>1772.6421188688</ele>
        <time>2019-07-06T11:49:21Z</time>
      </trkpt>
      <trkpt lat="45.62541" lon="6.67732">
        <ele>1772.8213724551</ele>
        <time>2019-07-06T11:49:22Z</time>
      </trkpt>
      <trkpt lat="45.62544" lon="6.67732">
        <ele>1773.7820750231</ele>
        <time>2019-07-06T11:49:25Z</time>
      </trkpt>
      <trkpt lat="45.62546" lon="6.67732">
        <ele>1774.5816042409</ele>
        <time>2019-07-06T11:49:29Z</time>
      </trkpt>
      <trkpt lat="45.62549" lon="6.67732">
        <ele>1775.0831714272</ele>
        <time>2019-07-06T11:49:31Z</time>
      </trkpt>
      <trkpt lat="45.62551" lon="6.67731">
        <ele>1775.8482778621</ele>
        <time>2019-07-06T11:49:34Z</time>
      </trkpt>
      <trkpt lat="45.62553" lon="6.6773">
        <ele>1776.2875032025</ele>
        <time>2019-07-06T11:49:36Z</time>
      </trkpt>
      <trkpt lat="45.62556" lon="6.67728">
        <ele>1776.9042294403</ele>
        <time>2019-07-06T11:49:38Z</time>
      </trkpt>
      <trkpt lat="45.62558" lon="6.67727">
        <ele>1777.4962518742</ele>
        <time>2019-07-06T11:49:41Z</time>
      </trkpt>
      <trkpt lat="45.62559" lon="6.67724">
        <ele>1777.9113486653</ele>
        <time>2019-07-06T11:49:43Z</time>
      </trkpt>
      <trkpt lat="45.62561" lon="6.67722">
        <ele>1778.3944970306</ele>
        <time>2019-07-06T11:49:46Z</time>
      </trkpt>
      <trkpt lat="45.62564" lon="6.67719">
        <ele>1778.5170315563</ele>
        <time>2019-07-06T11:49:48Z</time>
      </trkpt>
      <trkpt lat="45.62566" lon="6.67716">
        <ele>1778.3645801437</ele>
        <time>2019-07-06T11:49:50Z</time>
      </trkpt>
      <trkpt lat="45.62568" lon="6.67714">
        <ele>1778.3847560482</ele>
        <time>2019-07-06T11:49:53Z</time>
      </trkpt>
      <trkpt lat="45.6257" lon="6.67712">
        <ele>1778.433121561</ele>
        <time>2019-07-06T11:49:56Z</time>
      </trkpt>
      <trkpt lat="45.62572" lon="6.67709">
        <ele>1778.0495361375</ele>
        <time>2019-07-06T11:49:59Z</time>
      </trkpt>
      <trkpt lat="45.62573" lon="6.67706">
        <ele>1777.7385734025</ele>
        <time>2019-07-06T11:50:01Z</time>
      </trkpt>
      <trkpt lat="45.62575" lon="6.67703">
        <ele>1777.4194875854</ele>
        <time>2019-07-06T11:50:04Z</time>
      </trkpt>
      <trkpt lat="45.62577" lon="6.67701">
        <ele>1777.4406006285</ele>
        <time>2019-07-06T11:50:07Z</time>
      </trkpt>
      <trkpt lat="45.62579" lon="6.67699">
        <ele>1777.3537633442</ele>
        <time>2019-07-06T11:50:09Z</time>
      </trkpt>
      <trkpt lat="45.62581" lon="6.67697">
        <ele>1777.1195563483</ele>
        <time>2019-07-06T11:50:11Z</time>
      </trkpt>
      <trkpt lat="45.62583" lon="6.67694">
        <ele>1777.1071853408</ele>
        <time>2019-07-06T11:50:14Z</time>
      </trkpt>
      <trkpt lat="45.62584" lon="6.67692">
        <ele>1777.4467559776</ele>
        <time>2019-07-06T11:50:17Z</time>
      </trkpt>
      <trkpt lat="45.62586" lon="6.67691">
        <ele>1777.6641447219</ele>
        <time>2019-07-06T11:50:19Z</time>
      </trkpt>
      <trkpt lat="45.62588" lon="6.67692">
        <ele>1778.3331021216</ele>
        <time>2019-07-06T11:50:22Z</time>
      </trkpt>
      <trkpt lat="45.6259" lon="6.67692">
        <ele>1778.724202031</ele>
        <time>2019-07-06T11:50:24Z</time>
      </trkpt>
      <trkpt lat="45.62592" lon="6.67691">
        <ele>1779.3585195243</ele>
        <time>2019-07-06T11:50:26Z</time>
      </trkpt>
      <trkpt lat="45.62595" lon="6.6769">
        <ele>1780.0494362262</ele>
        <time>2019-07-06T11:50:30Z</time>
      </trkpt>
      <trkpt lat="45.62597" lon="6.67691">
        <ele>1780.5940667881</ele>
        <time>2019-07-06T11:50:32Z</time>
      </trkpt>
      <trkpt lat="45.626" lon="6.67691">
        <ele>1781.2022178346</ele>
        <time>2019-07-06T11:50:35Z</time>
      </trkpt>
      <trkpt lat="45.62602" lon="6.67691">
        <ele>1782.0004015472</ele>
        <time>2019-07-06T11:50:38Z</time>
      </trkpt>
      <trkpt lat="45.62604" lon="6.67691">
        <ele>1782.6194052987</ele>
        <time>2019-07-06T11:50:40Z</time>
      </trkpt>
      <trkpt lat="45.62607" lon="6.67691">
        <ele>1783.1298784271</ele>
        <time>2019-07-06T11:50:43Z</time>
      </trkpt>
      <trkpt lat="45.62609" lon="6.67691">
        <ele>1783.914320673</ele>
        <time>2019-07-06T11:50:45Z</time>
      </trkpt>
      <trkpt lat="45.62611" lon="6.67691">
        <ele>1784.4895482204</ele>
        <time>2019-07-06T11:50:48Z</time>
      </trkpt>
      <trkpt lat="45.62613" lon="6.6769">
        <ele>1784.9792650272</ele>
        <time>2019-07-06T11:50:50Z</time>
      </trkpt>
      <trkpt lat="45.62615" lon="6.67689">
        <ele>1785.4994514216</ele>
        <time>2019-07-06T11:50:53Z</time>
      </trkpt>
      <trkpt lat="45.62617" lon="6.67688">
        <ele>1785.7233826139</ele>
        <time>2019-07-06T11:50:55Z</time>
      </trkpt>
      <trkpt lat="45.62619" lon="6.67688">
        <ele>1786.1631083809</ele>
        <time>2019-07-06T11:50:58Z</time>
      </trkpt>
      <trkpt lat="45.62621" lon="6.67687">
        <ele>1786.592510387</ele>
        <time>2019-07-06T11:51:01Z</time>
      </trkpt>
      <trkpt lat="45.62623" lon="6.67686">
        <ele>1786.8726066606</ele>
        <time>2019-07-06T11:51:03Z</time>
      </trkpt>
      <trkpt lat="45.62625" lon="6.67685">
        <ele>1787.1295801147</ele>
        <time>2019-07-06T11:51:06Z</time>
      </trkpt>
      <trkpt lat="45.62628" lon="6.67683">
        <ele>1787.3551697898</ele>
        <time>2019-07-06T11:51:10Z</time>
      </trkpt>
      <trkpt lat="45.6263" lon="6.67681">
        <ele>1787.4217540841</ele>
        <time>2019-07-06T11:51:13Z</time>
      </trkpt>
      <trkpt lat="45.62632" lon="6.67681">
        <ele>1787.5455060311</ele>
        <time>2019-07-06T11:51:15Z</time>
      </trkpt>
      <trkpt lat="45.62635" lon="6.6768">
        <ele>1787.7810995717</ele>
        <time>2019-07-06T11:51:18Z</time>
      </trkpt>
      <trkpt lat="45.62637" lon="6.67679">
        <ele>1787.7569608141</ele>
        <time>2019-07-06T11:51:20Z</time>
      </trkpt>
      <trkpt lat="45.62638" lon="6.67678">
        <ele>1787.6198737234</ele>
        <time>2019-07-06T11:51:22Z</time>
      </trkpt>
      <trkpt lat="45.6264" lon="6.67677">
        <ele>1787.7998212119</ele>
        <time>2019-07-06T11:51:24Z</time>
      </trkpt>
      <trkpt lat="45.62642" lon="6.67676">
        <ele>1787.8858089192</ele>
        <time>2019-07-06T11:51:26Z</time>
      </trkpt>
      <trkpt lat="45.62644" lon="6.67675">
        <ele>1788.2589075658</ele>
        <time>2019-07-06T11:51:28Z</time>
      </trkpt>
      <trkpt lat="45.62647" lon="6.67673">
        <ele>1788.5701885697</ele>
        <time>2019-07-06T11:51:32Z</time>
      </trkpt>
      <trkpt lat="45.62649" lon="6.67672">
        <ele>1788.7834051709</ele>
        <time>2019-07-06T11:51:34Z</time>
      </trkpt>
      <trkpt lat="45.62651" lon="6.6767">
        <ele>1788.8752516924</ele>
        <time>2019-07-06T11:51:36Z</time>
      </trkpt>
      <trkpt lat="45.62653" lon="6.67669">
        <ele>1788.8996173781</ele>
        <time>2019-07-06T11:51:37Z</time>
      </trkpt>
      <trkpt lat="45.62655" lon="6.67668">
        <ele>1789.2567431118</ele>
        <time>2019-07-06T11:51:40Z</time>
      </trkpt>
      <trkpt lat="45.62657" lon="6.67666">
        <ele>1789.5386913195</ele>
        <time>2019-07-06T11:51:44Z</time>
      </trkpt>
      <trkpt lat="45.62659" lon="6.67664">
        <ele>1789.9660673664</ele>
        <time>2019-07-06T11:51:47Z</time>
      </trkpt>
      <trkpt lat="45.6266" lon="6.67662">
        <ele>1790.330648871</ele>
        <time>2019-07-06T11:51:49Z</time>
      </trkpt>
      <trkpt lat="45.62662" lon="6.6766">
        <ele>1790.8175142497</ele>
        <time>2019-07-06T11:51:53Z</time>
      </trkpt>
      <trkpt lat="45.62664" lon="6.67658">
        <ele>1791.1768848856</ele>
        <time>2019-07-06T11:51:56Z</time>
      </trkpt>
      <trkpt lat="45.62666" lon="6.67656">
        <ele>1791.6501410794</ele>
        <time>2019-07-06T11:51:58Z</time>
      </trkpt>
      <trkpt lat="45.62668" lon="6.67653">
        <ele>1792.27927928</ele>
        <time>2019-07-06T11:52:01Z</time>
      </trkpt>
      <trkpt lat="45.62669" lon="6.67651">
        <ele>1792.767070785</ele>
        <time>2019-07-06T11:52:03Z</time>
      </trkpt>
      <trkpt lat="45.62671" lon="6.67649">
        <ele>1793.1151176454</ele>
        <time>2019-07-06T11:52:05Z</time>
      </trkpt>
      <trkpt lat="45.62672" lon="6.67647">
        <ele>1793.5641596375</ele>
        <time>2019-07-06T11:52:07Z</time>
      </trkpt>
      <trkpt lat="45.62674" lon="6.67645">
        <ele>1794.0746080935</ele>
        <time>2019-07-06T11:52:10Z</time>
      </trkpt>
      <trkpt lat="45.62677" lon="6.67644">
        <ele>1794.7000367779</ele>
        <time>2019-07-06T11:52:14Z</time>
      </trkpt>
      <trkpt lat="45.62679" lon="6.67644">
        <ele>1795.2787729112</ele>
        <time>2019-07-06T11:52:19Z</time>
      </trkpt>
      <trkpt lat="45.62682" lon="6.67645">
        <ele>1795.7050918444</ele>
        <time>2019-07-06T11:52:21Z</time>
      </trkpt>
      <trkpt lat="45.62684" lon="6.67645">
        <ele>1796.6572298607</ele>
        <time>2019-07-06T11:52:24Z</time>
      </trkpt>
      <trkpt lat="45.62686" lon="6.67644">
        <ele>1797.1580851969</ele>
        <time>2019-07-06T11:52:27Z</time>
      </trkpt>
      <trkpt lat="45.62688" lon="6.67643">
        <ele>1797.6378131899</ele>
        <time>2019-07-06T11:52:29Z</time>
      </trkpt>
      <trkpt lat="45.6269" lon="6.67641">
        <ele>1798.2465069542</ele>
        <time>2019-07-06T11:52:31Z</time>
      </trkpt>
      <trkpt lat="45.62693" lon="6.67642">
        <ele>1798.857332433</ele>
        <time>2019-07-06T11:52:34Z</time>
      </trkpt>
      <trkpt lat="45.62695" lon="6.67641">
        <ele>1799.5567807599</ele>
        <time>2019-07-06T11:52:36Z</time>
      </trkpt>
      <trkpt lat="45.62697" lon="6.67641">
        <ele>1800.1399092764</ele>
        <time>2019-07-06T11:52:38Z</time>
      </trkpt>
      <trkpt lat="45.627" lon="6.67641">
        <ele>1800.9332143896</ele>
        <time>2019-07-06T11:52:42Z</time>
      </trkpt>
      <trkpt lat="45.62702" lon="6.67641">
        <ele>1801.5950692572</ele>
        <time>2019-07-06T11:52:46Z</time>
      </trkpt>
      <trkpt lat="45.62704" lon="6.6764">
        <ele>1801.9297941145</ele>
        <time>2019-07-06T11:52:48Z</time>
      </trkpt>
      <trkpt lat="45.62706" lon="6.6764">
        <ele>1802.6304106502</ele>
        <time>2019-07-06T11:52:50Z</time>
      </trkpt>
      <trkpt lat="45.62708" lon="6.6764">
        <ele>1803.2331834171</ele>
        <time>2019-07-06T11:52:52Z</time>
      </trkpt>
      <trkpt lat="45.6271" lon="6.67639">
        <ele>1803.6647650323</ele>
        <time>2019-07-06T11:52:55Z</time>
      </trkpt>
      <trkpt lat="45.62713" lon="6.67637">
        <ele>1803.9445451769</ele>
        <time>2019-07-06T11:53:00Z</time>
      </trkpt>
      <trkpt lat="45.62715" lon="6.67637">
        <ele>1804.0981482891</ele>
        <time>2019-07-06T11:53:01Z</time>
      </trkpt>
      <trkpt lat="45.62717" lon="6.67636">
        <ele>1804.7663194503</ele>
        <time>2019-07-06T11:53:04Z</time>
      </trkpt>
      <trkpt lat="45.62719" lon="6.67635">
        <ele>1805.1439272707</ele>
        <time>2019-07-06T11:53:06Z</time>
      </trkpt>
      <trkpt lat="45.62722" lon="6.67634">
        <ele>1805.6406379193</ele>
        <time>2019-07-06T11:53:08Z</time>
      </trkpt>
      <trkpt lat="45.62724" lon="6.67633">
        <ele>1805.7815828089</ele>
        <time>2019-07-06T11:53:10Z</time>
      </trkpt>
      <trkpt lat="45.62727" lon="6.67633">
        <ele>1805.7636718302</ele>
        <time>2019-07-06T11:53:13Z</time>
      </trkpt>
      <trkpt lat="45.62729" lon="6.67631">
        <ele>1805.6851445198</ele>
        <time>2019-07-06T11:53:16Z</time>
      </trkpt>
      <trkpt lat="45.62731" lon="6.67629">
        <ele>1805.6450503359</ele>
        <time>2019-07-06T11:53:18Z</time>
      </trkpt>
      <trkpt lat="45.62733" lon="6.67628">
        <ele>1805.4658249312</ele>
        <time>2019-07-06T11:53:20Z</time>
      </trkpt>
      <trkpt lat="45.62736" lon="6.67628">
        <ele>1805.5847919854</ele>
        <time>2019-07-06T11:53:23Z</time>
      </trkpt>
      <trkpt lat="45.62738" lon="6.67627">
        <ele>1805.8537897592</ele>
        <time>2019-07-06T11:53:28Z</time>
      </trkpt>
      <trkpt lat="45.6274" lon="6.67627">
        <ele>1806.0539210437</ele>
        <time>2019-07-06T11:53:32Z</time>
      </trkpt>
      <trkpt lat="45.62742" lon="6.67626">
        <ele>1806.199233475</ele>
        <time>2019-07-06T11:53:35Z</time>
      </trkpt>
      <trkpt lat="45.62744" lon="6.67626">
        <ele>1806.360623447</ele>
        <time>2019-07-06T11:53:39Z</time>
      </trkpt>
      <trkpt lat="45.62747" lon="6.67624">
        <ele>1806.6076376447</ele>
        <time>2019-07-06T11:53:41Z</time>
      </trkpt>
      <trkpt lat="45.62749" lon="6.67624">
        <ele>1806.9593741441</ele>
        <time>2019-07-06T11:53:43Z</time>
      </trkpt>
      <trkpt lat="45.62751" lon="6.67623">
        <ele>1807.4052600219</ele>
        <time>2019-07-06T11:53:46Z</time>
      </trkpt>
      <trkpt lat="45.62753" lon="6.67622">
        <ele>1807.9359180836</ele>
        <time>2019-07-06T11:53:51Z</time>
      </trkpt>
      <trkpt lat="45.62756" lon="6.6762">
        <ele>1808.4479587026</ele>
        <time>2019-07-06T11:53:56Z</time>
      </trkpt>
      <trkpt lat="45.62758" lon="6.6762">
        <ele>1809.0354946398</ele>
        <time>2019-07-06T11:53:58Z</time>
      </trkpt>
      <trkpt lat="45.6276" lon="6.67619">
        <ele>1809.6065067179</ele>
        <time>2019-07-06T11:54:00Z</time>
      </trkpt>
      <trkpt lat="45.62762" lon="6.67618">
        <ele>1810.1180933036</ele>
        <time>2019-07-06T11:54:02Z</time>
      </trkpt>
      <trkpt lat="45.62764" lon="6.67617">
        <ele>1810.8528523348</ele>
        <time>2019-07-06T11:54:05Z</time>
      </trkpt>
      <trkpt lat="45.62766" lon="6.67617">
        <ele>1811.3763066983</ele>
        <time>2019-07-06T11:54:08Z</time>
      </trkpt>
      <trkpt lat="45.62769" lon="6.67618">
        <ele>1812.0345034616</ele>
        <time>2019-07-06T11:54:10Z</time>
      </trkpt>
      <trkpt lat="45.62771" lon="6.67616">
        <ele>1812.6871694136</ele>
        <time>2019-07-06T11:54:12Z</time>
      </trkpt>
      <trkpt lat="45.62772" lon="6.67615">
        <ele>1813.0596726356</ele>
        <time>2019-07-06T11:54:14Z</time>
      </trkpt>
      <trkpt lat="45.62774" lon="6.67612">
        <ele>1813.5122078546</ele>
        <time>2019-07-06T11:54:17Z</time>
      </trkpt>
      <trkpt lat="45.62776" lon="6.67609">
        <ele>1813.8217167863</ele>
        <time>2019-07-06T11:54:20Z</time>
      </trkpt>
      <trkpt lat="45.62778" lon="6.67608">
        <ele>1813.8750285542</ele>
        <time>2019-07-06T11:54:24Z</time>
      </trkpt>
      <trkpt lat="45.6278" lon="6.67606">
        <ele>1814.0236325855</ele>
        <time>2019-07-06T11:54:27Z</time>
      </trkpt>
      <trkpt lat="45.62783" lon="6.67606">
        <ele>1814.5491040314</ele>
        <time>2019-07-06T11:54:31Z</time>
      </trkpt>
      <trkpt lat="45.62785" lon="6.67605">
        <ele>1815.0287984609</ele>
        <time>2019-07-06T11:54:35Z</time>
      </trkpt>
      <trkpt lat="45.62787" lon="6.67605">
        <ele>1815.2793987405</ele>
        <time>2019-07-06T11:54:37Z</time>
      </trkpt>
      <trkpt lat="45.6279" lon="6.67605">
        <ele>1815.9424577218</ele>
        <time>2019-07-06T11:54:39Z</time>
      </trkpt>
      <trkpt lat="45.62792" lon="6.67604">
        <ele>1816.5356813292</ele>
        <time>2019-07-06T11:54:41Z</time>
      </trkpt>
      <trkpt lat="45.62793" lon="6.67603">
        <ele>1816.7465376948</ele>
        <time>2019-07-06T11:54:45Z</time>
      </trkpt>
      <trkpt lat="45.62795" lon="6.67601">
        <ele>1816.5875730993</ele>
        <time>2019-07-06T11:54:49Z</time>
      </trkpt>
      <trkpt lat="45.62797" lon="6.676">
        <ele>1816.7742186646</ele>
        <time>2019-07-06T11:54:51Z</time>
      </trkpt>
      <trkpt lat="45.62799" lon="6.67599">
        <ele>1817.162023841</ele>
        <time>2019-07-06T11:54:53Z</time>
      </trkpt>
      <trkpt lat="45.62801" lon="6.67599">
        <ele>1817.6372522224</ele>
        <time>2019-07-06T11:54:56Z</time>
      </trkpt>
      <trkpt lat="45.62804" lon="6.67597">
        <ele>1817.8745179781</ele>
        <time>2019-07-06T11:54:59Z</time>
      </trkpt>
      <trkpt lat="45.62806" lon="6.67596">
        <ele>1818.1061506134</ele>
        <time>2019-07-06T11:55:01Z</time>
      </trkpt>
      <trkpt lat="45.62808" lon="6.67596">
        <ele>1818.2881812953</ele>
        <time>2019-07-06T11:55:03Z</time>
      </trkpt>
      <trkpt lat="45.6281" lon="6.67595">
        <ele>1818.5981297226</ele>
        <time>2019-07-06T11:55:06Z</time>
      </trkpt>
      <trkpt lat="45.62812" lon="6.67595">
        <ele>1818.8657833155</ele>
        <time>2019-07-06T11:55:11Z</time>
      </trkpt>
      <trkpt lat="45.62815" lon="6.67595">
        <ele>1819.2964098407</ele>
        <time>2019-07-06T11:55:15Z</time>
      </trkpt>
      <trkpt lat="45.62817" lon="6.67594">
        <ele>1819.5629751093</ele>
        <time>2019-07-06T11:55:18Z</time>
      </trkpt>
      <trkpt lat="45.6282" lon="6.67593">
        <ele>1819.7342241496</ele>
        <time>2019-07-06T11:55:20Z</time>
      </trkpt>
      <trkpt lat="45.62822" lon="6.67592">
        <ele>1820.015889242</ele>
        <time>2019-07-06T11:55:23Z</time>
      </trkpt>
      <trkpt lat="45.62824" lon="6.6759">
        <ele>1820.2437728222</ele>
        <time>2019-07-06T11:55:25Z</time>
      </trkpt>
      <trkpt lat="45.62826" lon="6.6759">
        <ele>1820.5788275369</ele>
        <time>2019-07-06T11:55:27Z</time>
      </trkpt>
      <trkpt lat="45.62828" lon="6.67589">
        <ele>1821.01204157</ele>
        <time>2019-07-06T11:55:31Z</time>
      </trkpt>
      <trkpt lat="45.62829" lon="6.67587">
        <ele>1821.2250408896</ele>
        <time>2019-07-06T11:55:36Z</time>
      </trkpt>
      <trkpt lat="45.62832" lon="6.67586">
        <ele>1821.6777011254</ele>
        <time>2019-07-06T11:55:40Z</time>
      </trkpt>
      <trkpt lat="45.62834" lon="6.67585">
        <ele>1822.182139702</ele>
        <time>2019-07-06T11:55:44Z</time>
      </trkpt>
      <trkpt lat="45.62836" lon="6.67584">
        <ele>1822.6422175533</ele>
        <time>2019-07-06T11:55:46Z</time>
      </trkpt>
      <trkpt lat="45.62839" lon="6.67582">
        <ele>1823.2728852264</ele>
        <time>2019-07-06T11:55:48Z</time>
      </trkpt>
      <trkpt lat="45.6284" lon="6.67581">
        <ele>1823.5223395242</ele>
        <time>2019-07-06T11:55:51Z</time>
      </trkpt>
      <trkpt lat="45.62842" lon="6.6758">
        <ele>1823.7290277547</ele>
        <time>2019-07-06T11:55:53Z</time>
      </trkpt>
      <trkpt lat="45.62844" lon="6.67581">
        <ele>1824.1968270589</ele>
        <time>2019-07-06T11:55:55Z</time>
      </trkpt>
      <trkpt lat="45.62846" lon="6.6758">
        <ele>1824.7850603418</ele>
        <time>2019-07-06T11:56:02Z</time>
      </trkpt>
      <trkpt lat="45.62849" lon="6.67579">
        <ele>1825.2120756983</ele>
        <time>2019-07-06T11:56:05Z</time>
      </trkpt>
      <trkpt lat="45.62852" lon="6.67579">
        <ele>1825.8780193152</ele>
        <time>2019-07-06T11:56:08Z</time>
      </trkpt>
      <trkpt lat="45.62855" lon="6.67577">
        <ele>1826.3421829413</ele>
        <time>2019-07-06T11:56:10Z</time>
      </trkpt>
      <trkpt lat="45.62857" lon="6.67575">
        <ele>1826.4700472338</ele>
        <time>2019-07-06T11:56:12Z</time>
      </trkpt>
      <trkpt lat="45.62859" lon="6.67575">
        <ele>1826.5419726231</ele>
        <time>2019-07-06T11:56:16Z</time>
      </trkpt>
      <trkpt lat="45.62861" lon="6.67575">
        <ele>1827.1263249157</ele>
        <time>2019-07-06T11:56:18Z</time>
      </trkpt>
      <trkpt lat="45.62863" lon="6.67575">
        <ele>1827.6587761047</ele>
        <time>2019-07-06T11:56:20Z</time>
      </trkpt>
      <trkpt lat="45.62866" lon="6.67575">
        <ele>1828.2245242006</ele>
        <time>2019-07-06T11:56:22Z</time>
      </trkpt>
      <trkpt lat="45.62869" lon="6.67575">
        <ele>1829.075452624</ele>
        <time>2019-07-06T11:56:26Z</time>
      </trkpt>
      <trkpt lat="45.62871" lon="6.67575">
        <ele>1829.803779909</ele>
        <time>2019-07-06T11:56:29Z</time>
      </trkpt>
      <trkpt lat="45.62873" lon="6.67574">
        <ele>1830.2795878261</ele>
        <time>2019-07-06T11:56:32Z</time>
      </trkpt>
      <trkpt lat="45.62875" lon="6.67574">
        <ele>1830.7894200619</ele>
        <time>2019-07-06T11:56:34Z</time>
      </trkpt>
      <trkpt lat="45.62877" lon="6.67572">
        <ele>1831.0146624272</ele>
        <time>2019-07-06T11:56:36Z</time>
      </trkpt>
      <trkpt lat="45.62879" lon="6.67572">
        <ele>1831.5014984156</ele>
        <time>2019-07-06T11:56:39Z</time>
      </trkpt>
      <trkpt lat="45.62881" lon="6.67572">
        <ele>1831.9573883278</ele>
        <time>2019-07-06T11:56:42Z</time>
      </trkpt>
      <trkpt lat="45.62883" lon="6.67572">
        <ele>1832.5567276406</ele>
        <time>2019-07-06T11:56:45Z</time>
      </trkpt>
      <trkpt lat="45.62885" lon="6.67571">
        <ele>1832.708047173</ele>
        <time>2019-07-06T11:56:47Z</time>
      </trkpt>
      <trkpt lat="45.62887" lon="6.6757">
        <ele>1833.0270542648</ele>
        <time>2019-07-06T11:56:49Z</time>
      </trkpt>
      <trkpt lat="45.62889" lon="6.6757">
        <ele>1833.2522780271</ele>
        <time>2019-07-06T11:56:51Z</time>
      </trkpt>
      <trkpt lat="45.62891" lon="6.67568">
        <ele>1833.5329844443</ele>
        <time>2019-07-06T11:56:54Z</time>
      </trkpt>
      <trkpt lat="45.62893" lon="6.67567">
        <ele>1833.5970429828</ele>
        <time>2019-07-06T11:56:57Z</time>
      </trkpt>
      <trkpt lat="45.62895" lon="6.67567">
        <ele>1833.6659771818</ele>
        <time>2019-07-06T11:56:59Z</time>
      </trkpt>
      <trkpt lat="45.62897" lon="6.67567">
        <ele>1834.0243474843</ele>
        <time>2019-07-06T11:57:02Z</time>
      </trkpt>
      <trkpt lat="45.62899" lon="6.67568">
        <ele>1834.5524884413</ele>
        <time>2019-07-06T11:57:06Z</time>
      </trkpt>
      <trkpt lat="45.62901" lon="6.67569">
        <ele>1834.8965377065</ele>
        <time>2019-07-06T11:57:09Z</time>
      </trkpt>
      <trkpt lat="45.62903" lon="6.6757">
        <ele>1835.2840636818</ele>
        <time>2019-07-06T11:57:11Z</time>
      </trkpt>
      <trkpt lat="45.62905" lon="6.6757">
        <ele>1835.6463239513</ele>
        <time>2019-07-06T11:57:13Z</time>
      </trkpt>
      <trkpt lat="45.62907" lon="6.67571">
        <ele>1835.9408425501</ele>
        <time>2019-07-06T11:57:15Z</time>
      </trkpt>
      <trkpt lat="45.62909" lon="6.67572">
        <ele>1836.301876115</ele>
        <time>2019-07-06T11:57:17Z</time>
      </trkpt>
      <trkpt lat="45.62911" lon="6.67573">
        <ele>1836.6124487153</ele>
        <time>2019-07-06T11:57:20Z</time>
      </trkpt>
      <trkpt lat="45.62914" lon="6.67574">
        <ele>1836.8797984724</ele>
        <time>2019-07-06T11:57:23Z</time>
      </trkpt>
      <trkpt lat="45.62916" lon="6.67573">
        <ele>1837.0337156254</ele>
        <time>2019-07-06T11:57:25Z</time>
      </trkpt>
      <trkpt lat="45.62918" lon="6.67572">
        <ele>1837.3981350225</ele>
        <time>2019-07-06T11:57:28Z</time>
      </trkpt>
      <trkpt lat="45.62919" lon="6.6757">
        <ele>1837.715824149</ele>
        <time>2019-07-06T11:57:31Z</time>
      </trkpt>
      <trkpt lat="45.62921" lon="6.6757">
        <ele>1838.2574274447</ele>
        <time>2019-07-06T11:57:33Z</time>
      </trkpt>
      <trkpt lat="45.62923" lon="6.6757">
        <ele>1838.755981293</ele>
        <time>2019-07-06T11:57:36Z</time>
      </trkpt>
      <trkpt lat="45.62926" lon="6.67568">
        <ele>1839.47014513</ele>
        <time>2019-07-06T11:57:39Z</time>
      </trkpt>
      <trkpt lat="45.62928" lon="6.67567">
        <ele>1840.0448021975</ele>
        <time>2019-07-06T11:57:41Z</time>
      </trkpt>
      <trkpt lat="45.6293" lon="6.67565">
        <ele>1840.6720462556</ele>
        <time>2019-07-06T11:57:44Z</time>
      </trkpt>
      <trkpt lat="45.62933" lon="6.67564">
        <ele>1841.3015033943</ele>
        <time>2019-07-06T11:57:48Z</time>
      </trkpt>
      <trkpt lat="45.62935" lon="6.67563">
        <ele>1841.8195440028</ele>
        <time>2019-07-06T11:57:50Z</time>
      </trkpt>
      <trkpt lat="45.62937" lon="6.67562">
        <ele>1842.4497649092</ele>
        <time>2019-07-06T11:57:54Z</time>
      </trkpt>
      <trkpt lat="45.62939" lon="6.67562">
        <ele>1842.9615527409</ele>
        <time>2019-07-06T11:57:56Z</time>
      </trkpt>
      <trkpt lat="45.62941" lon="6.67562">
        <ele>1843.5605805314</ele>
        <time>2019-07-06T11:57:58Z</time>
      </trkpt>
      <trkpt lat="45.62942" lon="6.67562">
        <ele>1843.8110381081</ele>
        <time>2019-07-06T11:58:01Z</time>
      </trkpt>
      <trkpt lat="45.62945" lon="6.67561">
        <ele>1844.5422628089</ele>
        <time>2019-07-06T11:58:04Z</time>
      </trkpt>
      <trkpt lat="45.62947" lon="6.67561">
        <ele>1844.8735543801</ele>
        <time>2019-07-06T11:58:06Z</time>
      </trkpt>
      <trkpt lat="45.62949" lon="6.67559">
        <ele>1844.9265364853</ele>
        <time>2019-07-06T11:58:08Z</time>
      </trkpt>
      <trkpt lat="45.62951" lon="6.67557">
        <ele>1844.9135641091</ele>
        <time>2019-07-06T11:58:10Z</time>
      </trkpt>
      <trkpt lat="45.62953" lon="6.67556">
        <ele>1844.8411333599</ele>
        <time>2019-07-06T11:58:12Z</time>
      </trkpt>
      <trkpt lat="45.62955" lon="6.67553">
        <ele>1844.5522266794</ele>
        <time>2019-07-06T11:58:14Z</time>
      </trkpt>
      <trkpt lat="45.62957" lon="6.67552">
        <ele>1844.2603499447</ele>
        <time>2019-07-06T11:58:17Z</time>
      </trkpt>
      <trkpt lat="45.62959" lon="6.67551">
        <ele>1844.2480268339</ele>
        <time>2019-07-06T11:58:23Z</time>
      </trkpt>
      <trkpt lat="45.62962" lon="6.67551">
        <ele>1844.2456700064</ele>
        <time>2019-07-06T11:58:32Z</time>
      </trkpt>
      <trkpt lat="45.62964" lon="6.67551">
        <ele>1844.3922045209</ele>
        <time>2019-07-06T11:58:35Z</time>
      </trkpt>
      <trkpt lat="45.62967" lon="6.67551">
        <ele>1844.5010684626</ele>
        <time>2019-07-06T11:58:38Z</time>
      </trkpt>
      <trkpt lat="45.62969" lon="6.67551">
        <ele>1844.58658614</ele>
        <time>2019-07-06T11:58:41Z</time>
      </trkpt>
      <trkpt lat="45.62971" lon="6.6755">
        <ele>1844.6898228087</ele>
        <time>2019-07-06T11:58:43Z</time>
      </trkpt>
      <trkpt lat="45.62973" lon="6.67549">
        <ele>1844.7571906246</ele>
        <time>2019-07-06T11:58:45Z</time>
      </trkpt>
      <trkpt lat="45.62976" lon="6.6755">
        <ele>1845.3379841079</ele>
        <time>2019-07-06T11:58:48Z</time>
      </trkpt>
      <trkpt lat="45.62977" lon="6.6755">
        <ele>1845.8045609095</ele>
        <time>2019-07-06T11:58:50Z</time>
      </trkpt>
      <trkpt lat="45.6298" lon="6.67551">
        <ele>1846.6253700881</ele>
        <time>2019-07-06T11:58:54Z</time>
      </trkpt>
      <trkpt lat="45.62982" lon="6.67551">
        <ele>1847.1577654954</ele>
        <time>2019-07-06T11:58:57Z</time>
      </trkpt>
      <trkpt lat="45.62984" lon="6.67551">
        <ele>1847.8015627833</ele>
        <time>2019-07-06T11:59:00Z</time>
      </trkpt>
      <trkpt lat="45.62986" lon="6.67549">
        <ele>1848.1270861006</ele>
        <time>2019-07-06T11:59:02Z</time>
      </trkpt>
      <trkpt lat="45.62988" lon="6.67548">
        <ele>1848.6851179451</ele>
        <time>2019-07-06T11:59:04Z</time>
      </trkpt>
      <trkpt lat="45.6299" lon="6.67546">
        <ele>1849.251341574</ele>
        <time>2019-07-06T11:59:06Z</time>
      </trkpt>
      <trkpt lat="45.62993" lon="6.67545">
        <ele>1849.972156601</ele>
        <time>2019-07-06T11:59:12Z</time>
      </trkpt>
      <trkpt lat="45.62994" lon="6.67543">
        <ele>1850.4578215797</ele>
        <time>2019-07-06T11:59:14Z</time>
      </trkpt>
      <trkpt lat="45.62996" lon="6.67542">
        <ele>1851.1247521217</ele>
        <time>2019-07-06T11:59:17Z</time>
      </trkpt>
      <trkpt lat="45.62999" lon="6.67539">
        <ele>1851.589008577</ele>
        <time>2019-07-06T11:59:21Z</time>
      </trkpt>
      <trkpt lat="45.63001" lon="6.67538">
        <ele>1852.2531160761</ele>
        <time>2019-07-06T11:59:23Z</time>
      </trkpt>
      <trkpt lat="45.63004" lon="6.67537">
        <ele>1852.5388648171</ele>
        <time>2019-07-06T11:59:25Z</time>
      </trkpt>
      <trkpt lat="45.63006" lon="6.67537">
        <ele>1852.7009911033</ele>
        <time>2019-07-06T11:59:27Z</time>
      </trkpt>
      <trkpt lat="45.63009" lon="6.67537">
        <ele>1852.9228691916</ele>
        <time>2019-07-06T11:59:31Z</time>
      </trkpt>
      <trkpt lat="45.63011" lon="6.67536">
        <ele>1853.1507839225</ele>
        <time>2019-07-06T11:59:36Z</time>
      </trkpt>
      <trkpt lat="45.63013" lon="6.67535">
        <ele>1853.2458468666</ele>
        <time>2019-07-06T11:59:38Z</time>
      </trkpt>
      <trkpt lat="45.63015" lon="6.67536">
        <ele>1853.337632457</ele>
        <time>2019-07-06T11:59:40Z</time>
      </trkpt>
      <trkpt lat="45.63017" lon="6.67535">
        <ele>1853.4729646962</ele>
        <time>2019-07-06T11:59:43Z</time>
      </trkpt>
      <trkpt lat="45.63019" lon="6.67534">
        <ele>1853.4514917701</ele>
        <time>2019-07-06T11:59:45Z</time>
      </trkpt>
      <trkpt lat="45.63022" lon="6.67533">
        <ele>1853.553535792</ele>
        <time>2019-07-06T11:59:50Z</time>
      </trkpt>
      <trkpt lat="45.63023" lon="6.67531">
        <ele>1853.1761399501</ele>
        <time>2019-07-06T11:59:53Z</time>
      </trkpt>
      <trkpt lat="45.63025" lon="6.67528">
        <ele>1852.7287432492</ele>
        <time>2019-07-06T11:59:55Z</time>
      </trkpt>
      <trkpt lat="45.63026" lon="6.67526">
        <ele>1852.252996432</ele>
        <time>2019-07-06T11:59:58Z</time>
      </trkpt>
      <trkpt lat="45.63027" lon="6.67524">
        <ele>1852.24486948</ele>
        <time>2019-07-06T12:00:00Z</time>
      </trkpt>
      <trkpt lat="45.63029" lon="6.67524">
        <ele>1852.3391387964</ele>
        <time>2019-07-06T12:00:02Z</time>
      </trkpt>
      <trkpt lat="45.63031" lon="6.67523">
        <ele>1852.7671310501</ele>
        <time>2019-07-06T12:00:04Z</time>
      </trkpt>
      <trkpt lat="45.63032" lon="6.6752">
        <ele>1853.2639418022</ele>
        <time>2019-07-06T12:00:07Z</time>
      </trkpt>
      <trkpt lat="45.63035" lon="6.67517">
        <ele>1853.7997661276</ele>
        <time>2019-07-06T12:00:10Z</time>
      </trkpt>
      <trkpt lat="45.63037" lon="6.67515">
        <ele>1854.4660512883</ele>
        <time>2019-07-06T12:00:12Z</time>
      </trkpt>
      <trkpt lat="45.63039" lon="6.67513">
        <ele>1854.9425444622</ele>
        <time>2019-07-06T12:00:14Z</time>
      </trkpt>
      <trkpt lat="45.63041" lon="6.67512">
        <ele>1855.5801378455</ele>
        <time>2019-07-06T12:00:17Z</time>
      </trkpt>
      <trkpt lat="45.63044" lon="6.67512">
        <ele>1856.3145916644</ele>
        <time>2019-07-06T12:00:21Z</time>
      </trkpt>
      <trkpt lat="45.63046" lon="6.67511">
        <ele>1856.867838948</ele>
        <time>2019-07-06T12:00:23Z</time>
      </trkpt>
      <trkpt lat="45.63047" lon="6.67508">
        <ele>1857.4001938773</ele>
        <time>2019-07-06T12:00:26Z</time>
      </trkpt>
      <trkpt lat="45.63049" lon="6.67507">
        <ele>1857.8564562006</ele>
        <time>2019-07-06T12:00:28Z</time>
      </trkpt>
      <trkpt lat="45.6305" lon="6.67506">
        <ele>1858.0841950933</ele>
        <time>2019-07-06T12:00:30Z</time>
      </trkpt>
      <trkpt lat="45.63053" lon="6.67504">
        <ele>1858.7524099893</ele>
        <time>2019-07-06T12:00:33Z</time>
      </trkpt>
      <trkpt lat="45.63056" lon="6.67504">
        <ele>1859.4200768725</ele>
        <time>2019-07-06T12:00:37Z</time>
      </trkpt>
      <trkpt lat="45.63057" lon="6.67503">
        <ele>1860.0469959932</ele>
        <time>2019-07-06T12:00:40Z</time>
      </trkpt>
      <trkpt lat="45.63059" lon="6.67501">
        <ele>1860.450747708</ele>
        <time>2019-07-06T12:00:42Z</time>
      </trkpt>
      <trkpt lat="45.63061" lon="6.67499">
        <ele>1860.9492824363</ele>
        <time>2019-07-06T12:00:46Z</time>
      </trkpt>
      <trkpt lat="45.63063" lon="6.67497">
        <ele>1861.4251172522</ele>
        <time>2019-07-06T12:00:48Z</time>
      </trkpt>
      <trkpt lat="45.63065" lon="6.67494">
        <ele>1861.8972034694</ele>
        <time>2019-07-06T12:00:52Z</time>
      </trkpt>
      <trkpt lat="45.63066" lon="6.67492">
        <ele>1862.4119951441</ele>
        <time>2019-07-06T12:00:54Z</time>
      </trkpt>
      <trkpt lat="45.63068" lon="6.67491">
        <ele>1862.8959012661</ele>
        <time>2019-07-06T12:00:58Z</time>
      </trkpt>
      <trkpt lat="45.63069" lon="6.67488">
        <ele>1863.2758505303</ele>
        <time>2019-07-06T12:01:00Z</time>
      </trkpt>
      <trkpt lat="45.63071" lon="6.67487">
        <ele>1863.6948892808</ele>
        <time>2019-07-06T12:01:02Z</time>
      </trkpt>
      <trkpt lat="45.63073" lon="6.67486">
        <ele>1864.3258280565</ele>
        <time>2019-07-06T12:01:05Z</time>
      </trkpt>
      <trkpt lat="45.63075" lon="6.67485">
        <ele>1864.9018983257</ele>
        <time>2019-07-06T12:01:09Z</time>
      </trkpt>
      <trkpt lat="45.63077" lon="6.67484">
        <ele>1865.3329295439</ele>
        <time>2019-07-06T12:01:11Z</time>
      </trkpt>
      <trkpt lat="45.63079" lon="6.67482">
        <ele>1865.9251308917</ele>
        <time>2019-07-06T12:01:14Z</time>
      </trkpt>
      <trkpt lat="45.63081" lon="6.67482">
        <ele>1866.4973054905</ele>
        <time>2019-07-06T12:01:17Z</time>
      </trkpt>
      <trkpt lat="45.63083" lon="6.6748">
        <ele>1866.9545134983</ele>
        <time>2019-07-06T12:01:19Z</time>
      </trkpt>
      <trkpt lat="45.63085" lon="6.67478">
        <ele>1867.4574583811</ele>
        <time>2019-07-06T12:01:21Z</time>
      </trkpt>
      <trkpt lat="45.63087" lon="6.67475">
        <ele>1867.8124456061</ele>
        <time>2019-07-06T12:01:24Z</time>
      </trkpt>
      <trkpt lat="45.63088" lon="6.67474">
        <ele>1868.4498304268</ele>
        <time>2019-07-06T12:01:26Z</time>
      </trkpt>
      <trkpt lat="45.6309" lon="6.67473">
        <ele>1868.961883901</ele>
        <time>2019-07-06T12:01:29Z</time>
      </trkpt>
      <trkpt lat="45.63092" lon="6.67471">
        <ele>1869.3078566478</ele>
        <time>2019-07-06T12:01:32Z</time>
      </trkpt>
      <trkpt lat="45.63093" lon="6.67468">
        <ele>1869.0815460119</ele>
        <time>2019-07-06T12:01:34Z</time>
      </trkpt>
      <trkpt lat="45.63094" lon="6.67466">
        <ele>1868.5897143471</ele>
        <time>2019-07-06T12:01:37Z</time>
      </trkpt>
      <trkpt lat="45.63097" lon="6.67463">
        <ele>1868.5159254249</ele>
        <time>2019-07-06T12:01:42Z</time>
      </trkpt>
      <trkpt lat="45.63098" lon="6.67461">
        <ele>1868.4212695219</ele>
        <time>2019-07-06T12:01:44Z</time>
      </trkpt>
      <trkpt lat="45.631" lon="6.67459">
        <ele>1868.0773517715</ele>
        <time>2019-07-06T12:01:46Z</time>
      </trkpt>
      <trkpt lat="45.63102" lon="6.67456">
        <ele>1868.1243982632</ele>
        <time>2019-07-06T12:01:49Z</time>
      </trkpt>
      <trkpt lat="45.63104" lon="6.67455">
        <ele>1868.2011674283</ele>
        <time>2019-07-06T12:01:53Z</time>
      </trkpt>
      <trkpt lat="45.63106" lon="6.67453">
        <ele>1868.2510528501</ele>
        <time>2019-07-06T12:01:55Z</time>
      </trkpt>
      <trkpt lat="45.63108" lon="6.67451">
        <ele>1867.8608659458</ele>
        <time>2019-07-06T12:01:59Z</time>
      </trkpt>
      <trkpt lat="45.6311" lon="6.6745">
        <ele>1868.3858640283</ele>
        <time>2019-07-06T12:02:02Z</time>
      </trkpt>
      <trkpt lat="45.63112" lon="6.67452">
        <ele>1868.9371819952</ele>
        <time>2019-07-06T12:02:05Z</time>
      </trkpt>
      <trkpt lat="45.63113" lon="6.67453">
        <ele>1869.771253943</ele>
        <time>2019-07-06T12:02:08Z</time>
      </trkpt>
      <trkpt lat="45.63115" lon="6.67457">
        <ele>1870.6404429954</ele>
        <time>2019-07-06T12:02:11Z</time>
      </trkpt>
      <trkpt lat="45.63114" lon="6.6746">
        <ele>1871.4545703617</ele>
        <time>2019-07-06T12:02:13Z</time>
      </trkpt>
      <trkpt lat="45.63114" lon="6.67463">
        <ele>1872.2785750423</ele>
        <time>2019-07-06T12:02:16Z</time>
      </trkpt>
      <trkpt lat="45.63114" lon="6.67467">
        <ele>1872.9044807349</ele>
        <time>2019-07-06T12:02:18Z</time>
      </trkpt>
      <trkpt lat="45.63113" lon="6.6747">
        <ele>1873.8523256119</ele>
        <time>2019-07-06T12:02:21Z</time>
      </trkpt>
      <trkpt lat="45.63112" lon="6.67474">
        <ele>1874.7438608187</ele>
        <time>2019-07-06T12:02:23Z</time>
      </trkpt>
      <trkpt lat="45.63112" lon="6.67477">
        <ele>1874.8324160633</ele>
        <time>2019-07-06T12:02:25Z</time>
      </trkpt>
      <trkpt lat="45.63111" lon="6.67482">
        <ele>1874.8712030101</ele>
        <time>2019-07-06T12:02:28Z</time>
      </trkpt>
      <trkpt lat="45.63111" lon="6.67486">
        <ele>1874.8178691727</ele>
        <time>2019-07-06T12:02:30Z</time>
      </trkpt>
      <trkpt lat="45.63111" lon="6.6749">
        <ele>1874.8082061957</ele>
        <time>2019-07-06T12:02:32Z</time>
      </trkpt>
      <trkpt lat="45.63111" lon="6.67493">
        <ele>1874.6552128374</ele>
        <time>2019-07-06T12:02:34Z</time>
      </trkpt>
      <trkpt lat="45.6311" lon="6.67495">
        <ele>1874.7292798277</ele>
        <time>2019-07-06T12:02:36Z</time>
      </trkpt>
      <trkpt lat="45.6311" lon="6.67498">
        <ele>1874.4595480854</ele>
        <time>2019-07-06T12:02:38Z</time>
      </trkpt>
      <trkpt lat="45.63108" lon="6.67502">
        <ele>1874.1708406402</ele>
        <time>2019-07-06T12:02:41Z</time>
      </trkpt>
      <trkpt lat="45.63108" lon="6.67505">
        <ele>1873.9077029337</ele>
        <time>2019-07-06T12:02:44Z</time>
      </trkpt>
      <trkpt lat="45.63107" lon="6.67508">
        <ele>1873.8474914085</ele>
        <time>2019-07-06T12:02:45Z</time>
      </trkpt>
      <trkpt lat="45.63107" lon="6.67511">
        <ele>1873.6457839122</ele>
        <time>2019-07-06T12:02:47Z</time>
      </trkpt>
      <trkpt lat="45.63107" lon="6.67515">
        <ele>1873.7596725989</ele>
        <time>2019-07-06T12:02:49Z</time>
      </trkpt>
      <trkpt lat="45.63108" lon="6.67518">
        <ele>1873.8072397085</ele>
        <time>2019-07-06T12:02:51Z</time>
      </trkpt>
      <trkpt lat="45.63108" lon="6.67521">
        <ele>1873.8705132311</ele>
        <time>2019-07-06T12:02:53Z</time>
      </trkpt>
      <trkpt lat="45.63107" lon="6.67525">
        <ele>1873.8212430046</ele>
        <time>2019-07-06T12:02:58Z</time>
      </trkpt>
      <trkpt lat="45.63106" lon="6.67529">
        <ele>1873.6319999424</ele>
        <time>2019-07-06T12:03:02Z</time>
      </trkpt>
      <trkpt lat="45.63106" lon="6.67532">
        <ele>1874.1924812317</ele>
        <time>2019-07-06T12:03:05Z</time>
      </trkpt>
      <trkpt lat="45.63104" lon="6.67536">
        <ele>1874.6444193573</ele>
        <time>2019-07-06T12:03:07Z</time>
      </trkpt>
      <trkpt lat="45.63103" lon="6.67539">
        <ele>1875.1960688655</ele>
        <time>2019-07-06T12:03:09Z</time>
      </trkpt>
      <trkpt lat="45.63102" lon="6.67542">
        <ele>1875.781443759</ele>
        <time>2019-07-06T12:03:11Z</time>
      </trkpt>
      <trkpt lat="45.63101" lon="6.67546">
        <ele>1876.5279518048</ele>
        <time>2019-07-06T12:03:13Z</time>
      </trkpt>
      <trkpt lat="45.63099" lon="6.67548">
        <ele>1876.9943694931</ele>
        <time>2019-07-06T12:03:16Z</time>
      </trkpt>
      <trkpt lat="45.63098" lon="6.67551">
        <ele>1877.0942973708</ele>
        <time>2019-07-06T12:03:18Z</time>
      </trkpt>
      <trkpt lat="45.63096" lon="6.67553">
        <ele>1877.2807180681</ele>
        <time>2019-07-06T12:03:22Z</time>
      </trkpt>
      <trkpt lat="45.63095" lon="6.67555">
        <ele>1877.5444120625</ele>
        <time>2019-07-06T12:03:23Z</time>
      </trkpt>
      <trkpt lat="45.63093" lon="6.67557">
        <ele>1877.6611431555</ele>
        <time>2019-07-06T12:03:26Z</time>
      </trkpt>
      <trkpt lat="45.63093" lon="6.6756">
        <ele>1877.4153059277</ele>
        <time>2019-07-06T12:03:28Z</time>
      </trkpt>
      <trkpt lat="45.63093" lon="6.67564">
        <ele>1877.3886556609</ele>
        <time>2019-07-06T12:03:30Z</time>
      </trkpt>
      <trkpt lat="45.63094" lon="6.67567">
        <ele>1877.466009738</ele>
        <time>2019-07-06T12:03:33Z</time>
      </trkpt>
      <trkpt lat="45.63095" lon="6.67569">
        <ele>1877.6360474646</ele>
        <time>2019-07-06T12:03:35Z</time>
      </trkpt>
      <trkpt lat="45.63097" lon="6.67571">
        <ele>1878.1630166513</ele>
        <time>2019-07-06T12:03:38Z</time>
      </trkpt>
      <trkpt lat="45.63099" lon="6.67572">
        <ele>1878.4461795185</ele>
        <time>2019-07-06T12:03:39Z</time>
      </trkpt>
      <trkpt lat="45.63102" lon="6.67571">
        <ele>1879.4184522716</ele>
        <time>2019-07-06T12:03:42Z</time>
      </trkpt>
      <trkpt lat="45.63103" lon="6.67568">
        <ele>1879.7435248384</ele>
        <time>2019-07-06T12:03:43Z</time>
      </trkpt>
      <trkpt lat="45.63105" lon="6.67566">
        <ele>1880.334828475</ele>
        <time>2019-07-06T12:03:45Z</time>
      </trkpt>
      <trkpt lat="45.63106" lon="6.67564">
        <ele>1880.6340489284</ele>
        <time>2019-07-06T12:03:48Z</time>
      </trkpt>
      <trkpt lat="45.63109" lon="6.67562">
        <ele>1881.247688794</ele>
        <time>2019-07-06T12:03:50Z</time>
      </trkpt>
      <trkpt lat="45.6311" lon="6.6756">
        <ele>1881.8121394017</ele>
        <time>2019-07-06T12:03:52Z</time>
      </trkpt>
      <trkpt lat="45.63113" lon="6.67558">
        <ele>1882.4099579553</ele>
        <time>2019-07-06T12:03:56Z</time>
      </trkpt>
      <trkpt lat="45.63114" lon="6.67557">
        <ele>1882.9977463017</ele>
        <time>2019-07-06T12:04:00Z</time>
      </trkpt>
      <trkpt lat="45.63116" lon="6.67556">
        <ele>1883.5174534233</ele>
        <time>2019-07-06T12:04:03Z</time>
      </trkpt>
      <trkpt lat="45.63118" lon="6.67554">
        <ele>1883.7587901471</ele>
        <time>2019-07-06T12:04:06Z</time>
      </trkpt>
      <trkpt lat="45.6312" lon="6.67554">
        <ele>1883.9688549701</ele>
        <time>2019-07-06T12:04:09Z</time>
      </trkpt>
      <trkpt lat="45.63122" lon="6.67552">
        <ele>1884.1869382039</ele>
        <time>2019-07-06T12:04:12Z</time>
      </trkpt>
      <trkpt lat="45.63124" lon="6.67552">
        <ele>1884.5837633411</ele>
        <time>2019-07-06T12:04:14Z</time>
      </trkpt>
      <trkpt lat="45.63127" lon="6.67551">
        <ele>1885.1209334942</ele>
        <time>2019-07-06T12:04:18Z</time>
      </trkpt>
      <trkpt lat="45.63128" lon="6.67549">
        <ele>1885.2650820538</ele>
        <time>2019-07-06T12:04:20Z</time>
      </trkpt>
      <trkpt lat="45.6313" lon="6.67548">
        <ele>1885.2891773479</ele>
        <time>2019-07-06T12:04:22Z</time>
      </trkpt>
      <trkpt lat="45.63132" lon="6.67547">
        <ele>1885.8018089917</ele>
        <time>2019-07-06T12:04:26Z</time>
      </trkpt>
      <trkpt lat="45.63134" lon="6.67545">
        <ele>1885.8377267243</ele>
        <time>2019-07-06T12:04:29Z</time>
      </trkpt>
      <trkpt lat="45.63136" lon="6.67544">
        <ele>1885.7490456404</ele>
        <time>2019-07-06T12:04:31Z</time>
      </trkpt>
      <trkpt lat="45.63139" lon="6.67542">
        <ele>1886.0215430888</ele>
        <time>2019-07-06T12:04:35Z</time>
      </trkpt>
      <trkpt lat="45.63141" lon="6.6754">
        <ele>1886.1434143216</ele>
        <time>2019-07-06T12:04:37Z</time>
      </trkpt>
      <trkpt lat="45.63144" lon="6.67538">
        <ele>1886.3542333802</ele>
        <time>2019-07-06T12:04:41Z</time>
      </trkpt>
      <trkpt lat="45.63146" lon="6.67537">
        <ele>1886.5291005598</ele>
        <time>2019-07-06T12:04:44Z</time>
      </trkpt>
      <trkpt lat="45.63148" lon="6.67536">
        <ele>1886.8027147498</ele>
        <time>2019-07-06T12:04:46Z</time>
      </trkpt>
      <trkpt lat="45.6315" lon="6.67536">
        <ele>1887.2105212092</ele>
        <time>2019-07-06T12:04:49Z</time>
      </trkpt>
      <trkpt lat="45.63152" lon="6.67534">
        <ele>1887.5015797375</ele>
        <time>2019-07-06T12:04:51Z</time>
      </trkpt>
      <trkpt lat="45.63155" lon="6.67534">
        <ele>1888.0541396069</ele>
        <time>2019-07-06T12:04:55Z</time>
      </trkpt>
      <trkpt lat="45.63157" lon="6.67535">
        <ele>1888.3433362477</ele>
        <time>2019-07-06T12:04:56Z</time>
      </trkpt>
      <trkpt lat="45.63159" lon="6.67536">
        <ele>1889.636665262</ele>
        <time>2019-07-06T12:05:00Z</time>
      </trkpt>
      <trkpt lat="45.63161" lon="6.67536">
        <ele>1890.2670399085</ele>
        <time>2019-07-06T12:05:02Z</time>
      </trkpt>
      <trkpt lat="45.63163" lon="6.67534">
        <ele>1890.3936745758</ele>
        <time>2019-07-06T12:05:06Z</time>
      </trkpt>
      <trkpt lat="45.63165" lon="6.67534">
        <ele>1890.5498065349</ele>
        <time>2019-07-06T12:05:08Z</time>
      </trkpt>
      <trkpt lat="45.63167" lon="6.67533">
        <ele>1891.1290760402</ele>
        <time>2019-07-06T12:05:11Z</time>
      </trkpt>
      <trkpt lat="45.6317" lon="6.67534">
        <ele>1891.7876183132</ele>
        <time>2019-07-06T12:05:13Z</time>
      </trkpt>
      <trkpt lat="45.63172" lon="6.67533">
        <ele>1892.5596098725</ele>
        <time>2019-07-06T12:05:16Z</time>
      </trkpt>
      <trkpt lat="45.63175" lon="6.67533">
        <ele>1893.0961790226</ele>
        <time>2019-07-06T12:05:18Z</time>
      </trkpt>
      <trkpt lat="45.63176" lon="6.67532">
        <ele>1893.4224012397</ele>
        <time>2019-07-06T12:05:22Z</time>
      </trkpt>
      <trkpt lat="45.63178" lon="6.67531">
        <ele>1893.7699275167</ele>
        <time>2019-07-06T12:05:25Z</time>
      </trkpt>
      <trkpt lat="45.6318" lon="6.6753">
        <ele>1893.7113766815</ele>
        <time>2019-07-06T12:05:27Z</time>
      </trkpt>
      <trkpt lat="45.63182" lon="6.6753">
        <ele>1894.0142700811</ele>
        <time>2019-07-06T12:05:30Z</time>
      </trkpt>
      <trkpt lat="45.63184" lon="6.67528">
        <ele>1894.500111611</ele>
        <time>2019-07-06T12:05:32Z</time>
      </trkpt>
      <trkpt lat="45.63186" lon="6.67529">
        <ele>1895.2697084742</ele>
        <time>2019-07-06T12:05:35Z</time>
      </trkpt>
      <trkpt lat="45.63188" lon="6.67529">
        <ele>1895.7809951609</ele>
        <time>2019-07-06T12:05:38Z</time>
      </trkpt>
      <trkpt lat="45.6319" lon="6.6753">
        <ele>1896.2760527876</ele>
        <time>2019-07-06T12:05:40Z</time>
      </trkpt>
      <trkpt lat="45.63193" lon="6.6753">
        <ele>1897.0076692298</ele>
        <time>2019-07-06T12:05:43Z</time>
      </trkpt>
      <trkpt lat="45.63195" lon="6.67529">
        <ele>1897.7626386411</ele>
        <time>2019-07-06T12:05:47Z</time>
      </trkpt>
      <trkpt lat="45.63197" lon="6.67529">
        <ele>1897.93011849</ele>
        <time>2019-07-06T12:05:49Z</time>
      </trkpt>
      <trkpt lat="45.63199" lon="6.67529">
        <ele>1898.4736060326</ele>
        <time>2019-07-06T12:05:51Z</time>
      </trkpt>
      <trkpt lat="45.63201" lon="6.67529">
        <ele>1899.0808939354</ele>
        <time>2019-07-06T12:05:53Z</time>
      </trkpt>
      <trkpt lat="45.63203" lon="6.67529">
        <ele>1899.5461403984</ele>
        <time>2019-07-06T12:05:55Z</time>
      </trkpt>
      <trkpt lat="45.63205" lon="6.67528">
        <ele>1900.140474959</ele>
        <time>2019-07-06T12:05:59Z</time>
      </trkpt>
      <trkpt lat="45.63207" lon="6.67526">
        <ele>1900.2833720309</ele>
        <time>2019-07-06T12:06:02Z</time>
      </trkpt>
      <trkpt lat="45.6321" lon="6.67525">
        <ele>1900.4636583434</ele>
        <time>2019-07-06T12:06:04Z</time>
      </trkpt>
      <trkpt lat="45.63212" lon="6.67523">
        <ele>1900.8185217524</ele>
        <time>2019-07-06T12:06:07Z</time>
      </trkpt>
      <trkpt lat="45.63215" lon="6.67523">
        <ele>1901.0962550337</ele>
        <time>2019-07-06T12:06:10Z</time>
      </trkpt>
      <trkpt lat="45.63217" lon="6.67522">
        <ele>1901.7062879059</ele>
        <time>2019-07-06T12:06:12Z</time>
      </trkpt>
      <trkpt lat="45.63219" lon="6.67522">
        <ele>1901.8703884925</ele>
        <time>2019-07-06T12:06:17Z</time>
      </trkpt>
      <trkpt lat="45.63221" lon="6.67522">
        <ele>1902.6324203537</ele>
        <time>2019-07-06T12:06:19Z</time>
      </trkpt>
      <trkpt lat="45.63223" lon="6.67521">
        <ele>1903.2259305649</ele>
        <time>2019-07-06T12:06:21Z</time>
      </trkpt>
      <trkpt lat="45.63226" lon="6.67522">
        <ele>1903.4230959142</ele>
        <time>2019-07-06T12:06:24Z</time>
      </trkpt>
      <trkpt lat="45.63228" lon="6.67522">
        <ele>1903.4413106577</ele>
        <time>2019-07-06T12:06:27Z</time>
      </trkpt>
      <trkpt lat="45.63231" lon="6.67522">
        <ele>1903.7583921049</ele>
        <time>2019-07-06T12:06:30Z</time>
      </trkpt>
      <trkpt lat="45.63232" lon="6.67521">
        <ele>1903.7758060051</ele>
        <time>2019-07-06T12:06:32Z</time>
      </trkpt>
      <trkpt lat="45.63235" lon="6.67521">
        <ele>1903.7401866871</ele>
        <time>2019-07-06T12:06:34Z</time>
      </trkpt>
      <trkpt lat="45.63237" lon="6.67521">
        <ele>1903.9193539448</ele>
        <time>2019-07-06T12:06:37Z</time>
      </trkpt>
      <trkpt lat="45.63239" lon="6.67519">
        <ele>1903.9448912094</ele>
        <time>2019-07-06T12:06:39Z</time>
      </trkpt>
      <trkpt lat="45.63241" lon="6.67518">
        <ele>1903.9184607911</ele>
        <time>2019-07-06T12:06:41Z</time>
      </trkpt>
      <trkpt lat="45.63244" lon="6.67517">
        <ele>1904.1024249191</ele>
        <time>2019-07-06T12:06:44Z</time>
      </trkpt>
      <trkpt lat="45.63246" lon="6.67515">
        <ele>1904.2638422805</ele>
        <time>2019-07-06T12:06:46Z</time>
      </trkpt>
      <trkpt lat="45.63248" lon="6.67512">
        <ele>1904.3378294643</ele>
        <time>2019-07-06T12:06:47Z</time>
      </trkpt>
      <trkpt lat="45.6325" lon="6.67511">
        <ele>1904.6836903571</ele>
        <time>2019-07-06T12:06:50Z</time>
      </trkpt>
      <trkpt lat="45.63252" lon="6.6751">
        <ele>1905.1312906771</ele>
        <time>2019-07-06T12:06:52Z</time>
      </trkpt>
      <trkpt lat="45.63254" lon="6.67509">
        <ele>1905.6458040087</ele>
        <time>2019-07-06T12:06:55Z</time>
      </trkpt>
      <trkpt lat="45.63256" lon="6.67509">
        <ele>1906.3590521646</ele>
        <time>2019-07-06T12:06:58Z</time>
      </trkpt>
      <trkpt lat="45.63258" lon="6.67508">
        <ele>1906.8050061354</ele>
        <time>2019-07-06T12:07:01Z</time>
      </trkpt>
      <trkpt lat="45.6326" lon="6.67506">
        <ele>1907.2509619771</ele>
        <time>2019-07-06T12:07:04Z</time>
      </trkpt>
      <trkpt lat="45.63263" lon="6.67504">
        <ele>1907.8858310287</ele>
        <time>2019-07-06T12:07:07Z</time>
      </trkpt>
      <trkpt lat="45.63266" lon="6.67501">
        <ele>1908.6619741932</ele>
        <time>2019-07-06T12:07:09Z</time>
      </trkpt>
      <trkpt lat="45.63268" lon="6.67498">
        <ele>1909.3723244383</ele>
        <time>2019-07-06T12:07:12Z</time>
      </trkpt>
      <trkpt lat="45.63268" lon="6.67495">
        <ele>1909.77568068</ele>
        <time>2019-07-06T12:07:14Z</time>
      </trkpt>
      <trkpt lat="45.63269" lon="6.67492">
        <ele>1909.6307434113</ele>
        <time>2019-07-06T12:07:19Z</time>
      </trkpt>
      <trkpt lat="45.6327" lon="6.6749">
        <ele>1909.9362348579</ele>
        <time>2019-07-06T12:07:22Z</time>
      </trkpt>
      <trkpt lat="45.63271" lon="6.67486">
        <ele>1910.3587172451</ele>
        <time>2019-07-06T12:07:24Z</time>
      </trkpt>
      <trkpt lat="45.63273" lon="6.67483">
        <ele>1910.6397088035</ele>
        <time>2019-07-06T12:07:27Z</time>
      </trkpt>
      <trkpt lat="45.63274" lon="6.67481">
        <ele>1910.9520884798</ele>
        <time>2019-07-06T12:07:28Z</time>
      </trkpt>
      <trkpt lat="45.63275" lon="6.67478">
        <ele>1911.2097546701</ele>
        <time>2019-07-06T12:07:29Z</time>
      </trkpt>
      <trkpt lat="45.63276" lon="6.67476">
        <ele>1911.4617695797</ele>
        <time>2019-07-06T12:07:33Z</time>
      </trkpt>
      <trkpt lat="45.63277" lon="6.67473">
        <ele>1911.9523673677</ele>
        <time>2019-07-06T12:07:35Z</time>
      </trkpt>
      <trkpt lat="45.63278" lon="6.67471">
        <ele>1912.0777604062</ele>
        <time>2019-07-06T12:07:37Z</time>
      </trkpt>
      <trkpt lat="45.63279" lon="6.6747">
        <ele>1911.7870746393</ele>
        <time>2019-07-06T12:07:39Z</time>
      </trkpt>
      <trkpt lat="45.63281" lon="6.67467">
        <ele>1911.329125057</ele>
        <time>2019-07-06T12:07:41Z</time>
      </trkpt>
      <trkpt lat="45.63283" lon="6.67466">
        <ele>1910.9348633211</ele>
        <time>2019-07-06T12:07:48Z</time>
      </trkpt>
      <trkpt lat="45.63286" lon="6.67467">
        <ele>1911.1213658833</ele>
        <time>2019-07-06T12:07:50Z</time>
      </trkpt>
      <trkpt lat="45.63288" lon="6.67469">
        <ele>1911.5956480878</ele>
        <time>2019-07-06T12:07:53Z</time>
      </trkpt>
      <trkpt lat="45.6329" lon="6.67468">
        <ele>1911.7812317876</ele>
        <time>2019-07-06T12:07:55Z</time>
      </trkpt>
      <trkpt lat="45.63292" lon="6.67469">
        <ele>1911.84467016</ele>
        <time>2019-07-06T12:07:59Z</time>
      </trkpt>
      <trkpt lat="45.63294" lon="6.67468">
        <ele>1911.9103024224</ele>
        <time>2019-07-06T12:08:02Z</time>
      </trkpt>
      <trkpt lat="45.63296" lon="6.67469">
        <ele>1911.9316804326</ele>
        <time>2019-07-06T12:08:05Z</time>
      </trkpt>
      <trkpt lat="45.63298" lon="6.67468">
        <ele>1912.0239072966</ele>
        <time>2019-07-06T12:08:07Z</time>
      </trkpt>
      <trkpt lat="45.633" lon="6.67468">
        <ele>1912.0556132566</ele>
        <time>2019-07-06T12:08:09Z</time>
      </trkpt>
      <trkpt lat="45.63302" lon="6.67467">
        <ele>1912.0739889837</ele>
        <time>2019-07-06T12:08:10Z</time>
      </trkpt>
      <trkpt lat="45.63305" lon="6.67465">
        <ele>1912.1823137236</ele>
        <time>2019-07-06T12:08:13Z</time>
      </trkpt>
      <trkpt lat="45.63308" lon="6.67462">
        <ele>1912.4924298609</ele>
        <time>2019-07-06T12:08:16Z</time>
      </trkpt>
      <trkpt lat="45.6331" lon="6.6746">
        <ele>1913.1047037221</ele>
        <time>2019-07-06T12:08:19Z</time>
      </trkpt>
      <trkpt lat="45.63311" lon="6.67459">
        <ele>1913.8119982463</ele>
        <time>2019-07-06T12:08:25Z</time>
      </trkpt>
      <trkpt lat="45.63313" lon="6.67458">
        <ele>1914.0529118907</ele>
        <time>2019-07-06T12:08:27Z</time>
      </trkpt>
      <trkpt lat="45.63315" lon="6.67457">
        <ele>1914.6649413885</ele>
        <time>2019-07-06T12:08:29Z</time>
      </trkpt>
      <trkpt lat="45.63317" lon="6.67457">
        <ele>1915.0343077522</ele>
        <time>2019-07-06T12:08:32Z</time>
      </trkpt>
      <trkpt lat="45.6332" lon="6.67457">
        <ele>1915.7910322026</ele>
        <time>2019-07-06T12:08:34Z</time>
      </trkpt>
      <trkpt lat="45.63322" lon="6.67456">
        <ele>1916.5407805227</ele>
        <time>2019-07-06T12:08:37Z</time>
      </trkpt>
      <trkpt lat="45.63325" lon="6.67454">
        <ele>1917.1153615699</ele>
        <time>2019-07-06T12:08:40Z</time>
      </trkpt>
      <trkpt lat="45.63327" lon="6.67453">
        <ele>1917.8176276529</ele>
        <time>2019-07-06T12:08:42Z</time>
      </trkpt>
      <trkpt lat="45.63329" lon="6.67451">
        <ele>1918.4869657429</ele>
        <time>2019-07-06T12:08:46Z</time>
      </trkpt>
      <trkpt lat="45.63331" lon="6.67449">
        <ele>1918.9999044856</ele>
        <time>2019-07-06T12:08:48Z</time>
      </trkpt>
      <trkpt lat="45.63332" lon="6.67447">
        <ele>1919.2156622783</ele>
        <time>2019-07-06T12:08:53Z</time>
      </trkpt>
      <trkpt lat="45.63334" lon="6.67443">
        <ele>1919.7965481404</ele>
        <time>2019-07-06T12:08:55Z</time>
      </trkpt>
      <trkpt lat="45.63334" lon="6.67445">
        <ele>1920.0733018233</ele>
        <time>2019-07-06T12:08:57Z</time>
      </trkpt>
      <trkpt lat="45.63335" lon="6.67442">
        <ele>1920.0830676511</ele>
        <time>2019-07-06T12:08:59Z</time>
      </trkpt>
      <trkpt lat="45.63335" lon="6.67439">
        <ele>1920.3005741451</ele>
        <time>2019-07-06T12:09:02Z</time>
      </trkpt>
      <trkpt lat="45.63335" lon="6.67436">
        <ele>1920.3038242671</ele>
        <time>2019-07-06T12:09:06Z</time>
      </trkpt>
      <trkpt lat="45.63336" lon="6.67433">
        <ele>1920.4637090572</ele>
        <time>2019-07-06T12:09:08Z</time>
      </trkpt>
      <trkpt lat="45.63337" lon="6.6743">
        <ele>1920.4743810833</ele>
        <time>2019-07-06T12:09:09Z</time>
      </trkpt>
      <trkpt lat="45.63338" lon="6.67427">
        <ele>1920.9501629683</ele>
        <time>2019-07-06T12:09:12Z</time>
      </trkpt>
      <trkpt lat="45.6334" lon="6.67425">
        <ele>1921.3688101395</ele>
        <time>2019-07-06T12:09:14Z</time>
      </trkpt>
      <trkpt lat="45.63342" lon="6.67422">
        <ele>1921.6483628713</ele>
        <time>2019-07-06T12:09:15Z</time>
      </trkpt>
      <trkpt lat="45.63344" lon="6.6742">
        <ele>1922.2963076788</ele>
        <time>2019-07-06T12:09:19Z</time>
      </trkpt>
      <trkpt lat="45.63345" lon="6.67418">
        <ele>1922.861537263</ele>
        <time>2019-07-06T12:09:22Z</time>
      </trkpt>
      <trkpt lat="45.63346" lon="6.67415">
        <ele>1923.1425713647</ele>
        <time>2019-07-06T12:09:25Z</time>
      </trkpt>
      <trkpt lat="45.63348" lon="6.67412">
        <ele>1923.1234429637</ele>
        <time>2019-07-06T12:09:27Z</time>
      </trkpt>
      <trkpt lat="45.6335" lon="6.67408">
        <ele>1923.0718848377</ele>
        <time>2019-07-06T12:09:31Z</time>
      </trkpt>
      <trkpt lat="45.63352" lon="6.67406">
        <ele>1922.9739372703</ele>
        <time>2019-07-06T12:09:33Z</time>
      </trkpt>
      <trkpt lat="45.63355" lon="6.67403">
        <ele>1922.8542834613</ele>
        <time>2019-07-06T12:09:37Z</time>
      </trkpt>
      <trkpt lat="45.63357" lon="6.67402">
        <ele>1923.0155194786</ele>
        <time>2019-07-06T12:09:43Z</time>
      </trkpt>
      <trkpt lat="45.6336" lon="6.67403">
        <ele>1923.2720366262</ele>
        <time>2019-07-06T12:09:46Z</time>
      </trkpt>
      <trkpt lat="45.63363" lon="6.67403">
        <ele>1923.8465613468</ele>
        <time>2019-07-06T12:09:48Z</time>
      </trkpt>
      <trkpt lat="45.63366" lon="6.67403">
        <ele>1924.0841291038</ele>
        <time>2019-07-06T12:09:50Z</time>
      </trkpt>
      <trkpt lat="45.63368" lon="6.67404">
        <ele>1925.239089977</ele>
        <time>2019-07-06T12:09:53Z</time>
      </trkpt>
      <trkpt lat="45.6337" lon="6.67404">
        <ele>1925.9017787553</ele>
        <time>2019-07-06T12:09:55Z</time>
      </trkpt>
      <trkpt lat="45.63372" lon="6.67404">
        <ele>1926.2584468422</ele>
        <time>2019-07-06T12:09:56Z</time>
      </trkpt>
      <trkpt lat="45.63374" lon="6.67405">
        <ele>1927.6208040897</ele>
        <time>2019-07-06T12:09:59Z</time>
      </trkpt>
      <trkpt lat="45.63376" lon="6.67404">
        <ele>1927.9909942051</ele>
        <time>2019-07-06T12:10:03Z</time>
      </trkpt>
      <trkpt lat="45.63378" lon="6.67404">
        <ele>1928.3073541978</ele>
        <time>2019-07-06T12:10:07Z</time>
      </trkpt>
      <trkpt lat="45.6338" lon="6.67402">
        <ele>1928.36281296</ele>
        <time>2019-07-06T12:10:09Z</time>
      </trkpt>
      <trkpt lat="45.63382" lon="6.674">
        <ele>1928.3373519226</ele>
        <time>2019-07-06T12:10:11Z</time>
      </trkpt>
      <trkpt lat="45.63384" lon="6.67399">
        <ele>1928.728529197</ele>
        <time>2019-07-06T12:10:13Z</time>
      </trkpt>
      <trkpt lat="45.63386" lon="6.67398">
        <ele>1928.681001589</ele>
        <time>2019-07-06T12:10:16Z</time>
      </trkpt>
      <trkpt lat="45.63389" lon="6.67396">
        <ele>1929.2385222987</ele>
        <time>2019-07-06T12:10:19Z</time>
      </trkpt>
      <trkpt lat="45.6339" lon="6.67395">
        <ele>1929.2719708324</ele>
        <time>2019-07-06T12:10:21Z</time>
      </trkpt>
      <trkpt lat="45.63394" lon="6.67393">
        <ele>1929.7250825063</ele>
        <time>2019-07-06T12:10:24Z</time>
      </trkpt>
      <trkpt lat="45.63395" lon="6.67391">
        <ele>1929.7633220302</ele>
        <time>2019-07-06T12:10:26Z</time>
      </trkpt>
      <trkpt lat="45.63397" lon="6.6739">
        <ele>1929.7049934879</ele>
        <time>2019-07-06T12:10:28Z</time>
      </trkpt>
      <trkpt lat="45.63399" lon="6.67389">
        <ele>1929.9396335709</ele>
        <time>2019-07-06T12:10:31Z</time>
      </trkpt>
      <trkpt lat="45.634" lon="6.67385">
        <ele>1930.1923365983</ele>
        <time>2019-07-06T12:10:35Z</time>
      </trkpt>
      <trkpt lat="45.63402" lon="6.67383">
        <ele>1930.6768739658</ele>
        <time>2019-07-06T12:10:38Z</time>
      </trkpt>
      <trkpt lat="45.63403" lon="6.6738">
        <ele>1930.9294178293</ele>
        <time>2019-07-06T12:10:41Z</time>
      </trkpt>
      <trkpt lat="45.63404" lon="6.67378">
        <ele>1931.3585941432</ele>
        <time>2019-07-06T12:10:43Z</time>
      </trkpt>
      <trkpt lat="45.63407" lon="6.67374">
        <ele>1931.8180604669</ele>
        <time>2019-07-06T12:10:45Z</time>
      </trkpt>
      <trkpt lat="45.63408" lon="6.67371">
        <ele>1932.3263013704</ele>
        <time>2019-07-06T12:10:47Z</time>
      </trkpt>
      <trkpt lat="45.63409" lon="6.67369">
        <ele>1932.4184528146</ele>
        <time>2019-07-06T12:10:48Z</time>
      </trkpt>
      <trkpt lat="45.6341" lon="6.67366">
        <ele>1933.0161273153</ele>
        <time>2019-07-06T12:10:50Z</time>
      </trkpt>
      <trkpt lat="45.6341" lon="6.67362">
        <ele>1933.1651899978</ele>
        <time>2019-07-06T12:10:52Z</time>
      </trkpt>
      <trkpt lat="45.63411" lon="6.6736">
        <ele>1933.5625251946</ele>
        <time>2019-07-06T12:10:57Z</time>
      </trkpt>
      <trkpt lat="45.63413" lon="6.67356">
        <ele>1934.2221884004</ele>
        <time>2019-07-06T12:10:59Z</time>
      </trkpt>
      <trkpt lat="45.63412" lon="6.67352">
        <ele>1934.8026068216</ele>
        <time>2019-07-06T12:11:03Z</time>
      </trkpt>
      <trkpt lat="45.63412" lon="6.67349">
        <ele>1935.4476019145</ele>
        <time>2019-07-06T12:11:04Z</time>
      </trkpt>
      <trkpt lat="45.63412" lon="6.67346">
        <ele>1936.3701236403</ele>
        <time>2019-07-06T12:11:06Z</time>
      </trkpt>
      <trkpt lat="45.63411" lon="6.67342">
        <ele>1936.9256978236</ele>
        <time>2019-07-06T12:11:10Z</time>
      </trkpt>
      <trkpt lat="45.63412" lon="6.67339">
        <ele>1937.9144102146</ele>
        <time>2019-07-06T12:11:12Z</time>
      </trkpt>
      <trkpt lat="45.63412" lon="6.67336">
        <ele>1938.7124675046</ele>
        <time>2019-07-06T12:11:14Z</time>
      </trkpt>
      <trkpt lat="45.63414" lon="6.67333">
        <ele>1939.9617617725</ele>
        <time>2019-07-06T12:11:17Z</time>
      </trkpt>
      <trkpt lat="45.63415" lon="6.6733">
        <ele>1941.419175151</ele>
        <time>2019-07-06T12:11:19Z</time>
      </trkpt>
      <trkpt lat="45.63415" lon="6.67327">
        <ele>1941.6526520777</ele>
        <time>2019-07-06T12:11:24Z</time>
      </trkpt>
      <trkpt lat="45.63416" lon="6.67324">
        <ele>1941.8968839639</ele>
        <time>2019-07-06T12:11:27Z</time>
      </trkpt>
      <trkpt lat="45.63417" lon="6.67321">
        <ele>1942.2888829855</ele>
        <time>2019-07-06T12:11:33Z</time>
      </trkpt>
      <trkpt lat="45.63418" lon="6.67317">
        <ele>1942.4205371834</ele>
        <time>2019-07-06T12:11:35Z</time>
      </trkpt>
      <trkpt lat="45.63418" lon="6.67315">
        <ele>1942.5664139936</ele>
        <time>2019-07-06T12:11:36Z</time>
      </trkpt>
      <trkpt lat="45.63419" lon="6.67312">
        <ele>1942.8774149543</ele>
        <time>2019-07-06T12:11:42Z</time>
      </trkpt>
      <trkpt lat="45.6342" lon="6.67309">
        <ele>1943.1462753527</ele>
        <time>2019-07-06T12:11:45Z</time>
      </trkpt>
      <trkpt lat="45.63422" lon="6.67305">
        <ele>1943.4534369134</ele>
        <time>2019-07-06T12:11:49Z</time>
      </trkpt>
      <trkpt lat="45.63424" lon="6.67302">
        <ele>1944.0419764239</ele>
        <time>2019-07-06T12:11:51Z</time>
      </trkpt>
      <trkpt lat="45.63425" lon="6.673">
        <ele>1944.896167377</ele>
        <time>2019-07-06T12:11:55Z</time>
      </trkpt>
      <trkpt lat="45.63426" lon="6.67296">
        <ele>1945.6581605842</ele>
        <time>2019-07-06T12:11:59Z</time>
      </trkpt>
      <trkpt lat="45.63427" lon="6.67292">
        <ele>1946.0586082224</ele>
        <time>2019-07-06T12:12:02Z</time>
      </trkpt>
      <trkpt lat="45.63426" lon="6.67291">
        <ele>1946.2900599647</ele>
        <time>2019-07-06T12:12:03Z</time>
      </trkpt>
      <trkpt lat="45.63427" lon="6.67288">
        <ele>1946.368686096</ele>
        <time>2019-07-06T12:12:04Z</time>
      </trkpt>
      <trkpt lat="45.63427" lon="6.67285">
        <ele>1946.8644515411</ele>
        <time>2019-07-06T12:12:05Z</time>
      </trkpt>
      <trkpt lat="45.63426" lon="6.67281">
        <ele>1947.2213984649</ele>
        <time>2019-07-06T12:12:09Z</time>
      </trkpt>
      <trkpt lat="45.63425" lon="6.67279">
        <ele>1946.9665115081</ele>
        <time>2019-07-06T12:12:11Z</time>
      </trkpt>
      <trkpt lat="45.63424" lon="6.67276">
        <ele>1946.7617592694</ele>
        <time>2019-07-06T12:12:13Z</time>
      </trkpt>
      <trkpt lat="45.63424" lon="6.67271">
        <ele>1947.30469954</ele>
        <time>2019-07-06T12:12:15Z</time>
      </trkpt>
      <trkpt lat="45.63423" lon="6.67268">
        <ele>1948.0166816771</ele>
        <time>2019-07-06T12:12:17Z</time>
      </trkpt>
      <trkpt lat="45.63422" lon="6.67265">
        <ele>1948.4077956391</ele>
        <time>2019-07-06T12:12:19Z</time>
      </trkpt>
      <trkpt lat="45.63421" lon="6.67262">
        <ele>1948.7217615029</ele>
        <time>2019-07-06T12:12:23Z</time>
      </trkpt>
      <trkpt lat="45.63419" lon="6.67259">
        <ele>1948.5763674334</ele>
        <time>2019-07-06T12:12:25Z</time>
      </trkpt>
      <trkpt lat="45.63418" lon="6.67256">
        <ele>1948.7759742838</ele>
        <time>2019-07-06T12:12:27Z</time>
      </trkpt>
      <trkpt lat="45.63417" lon="6.67253">
        <ele>1949.0387858505</ele>
        <time>2019-07-06T12:12:30Z</time>
      </trkpt>
      <trkpt lat="45.63416" lon="6.67249">
        <ele>1949.7600813769</ele>
        <time>2019-07-06T12:12:33Z</time>
      </trkpt>
      <trkpt lat="45.63416" lon="6.67246">
        <ele>1950.3255065299</ele>
        <time>2019-07-06T12:12:36Z</time>
      </trkpt>
      <trkpt lat="45.63415" lon="6.67243">
        <ele>1951.1209448799</ele>
        <time>2019-07-06T12:12:39Z</time>
      </trkpt>
      <trkpt lat="45.63414" lon="6.67241">
        <ele>1951.2326166557</ele>
        <time>2019-07-06T12:12:43Z</time>
      </trkpt>
      <trkpt lat="45.63412" lon="6.67238">
        <ele>1951.2703750613</ele>
        <time>2019-07-06T12:12:46Z</time>
      </trkpt>
      <trkpt lat="45.63411" lon="6.67235">
        <ele>1951.4005217819</ele>
        <time>2019-07-06T12:12:48Z</time>
      </trkpt>
      <trkpt lat="45.6341" lon="6.67232">
        <ele>1951.518739753</ele>
        <time>2019-07-06T12:12:50Z</time>
      </trkpt>
      <trkpt lat="45.63409" lon="6.67229">
        <ele>1951.8023489285</ele>
        <time>2019-07-06T12:12:53Z</time>
      </trkpt>
      <trkpt lat="45.63408" lon="6.67227">
        <ele>1951.6970671065</ele>
        <time>2019-07-06T12:12:55Z</time>
      </trkpt>
      <trkpt lat="45.63407" lon="6.67223">
        <ele>1951.9912218359</ele>
        <time>2019-07-06T12:12:58Z</time>
      </trkpt>
      <trkpt lat="45.63406" lon="6.67221">
        <ele>1952.3551032965</ele>
        <time>2019-07-06T12:13:00Z</time>
      </trkpt>
      <trkpt lat="45.63405" lon="6.67217">
        <ele>1952.6434857635</ele>
        <time>2019-07-06T12:13:02Z</time>
      </trkpt>
      <trkpt lat="45.63404" lon="6.67214">
        <ele>1952.7884342458</ele>
        <time>2019-07-06T12:13:05Z</time>
      </trkpt>
      <trkpt lat="45.63403" lon="6.67211">
        <ele>1952.8278959773</ele>
        <time>2019-07-06T12:13:07Z</time>
      </trkpt>
      <trkpt lat="45.63403" lon="6.67209">
        <ele>1953.3189070497</ele>
        <time>2019-07-06T12:13:09Z</time>
      </trkpt>
      <trkpt lat="45.63402" lon="6.67206">
        <ele>1953.896215842</ele>
        <time>2019-07-06T12:13:11Z</time>
      </trkpt>
      <trkpt lat="45.63401" lon="6.67204">
        <ele>1953.9412145638</ele>
        <time>2019-07-06T12:13:14Z</time>
      </trkpt>
      <trkpt lat="45.63401" lon="6.67202">
        <ele>1953.9042356367</ele>
        <time>2019-07-06T12:13:17Z</time>
      </trkpt>
      <trkpt lat="45.634" lon="6.67198">
        <ele>1954.6803684576</ele>
        <time>2019-07-06T12:13:20Z</time>
      </trkpt>
      <trkpt lat="45.63399" lon="6.67194">
        <ele>1955.1196221295</ele>
        <time>2019-07-06T12:13:23Z</time>
      </trkpt>
      <trkpt lat="45.63399" lon="6.67191">
        <ele>1955.9904961862</ele>
        <time>2019-07-06T12:13:25Z</time>
      </trkpt>
      <trkpt lat="45.63398" lon="6.67188">
        <ele>1956.2605257275</ele>
        <time>2019-07-06T12:13:27Z</time>
      </trkpt>
      <trkpt lat="45.63397" lon="6.67184">
        <ele>1956.4578488257</ele>
        <time>2019-07-06T12:13:29Z</time>
      </trkpt>
      <trkpt lat="45.63397" lon="6.67182">
        <ele>1957.8229915288</ele>
        <time>2019-07-06T12:13:32Z</time>
      </trkpt>
      <trkpt lat="45.63397" lon="6.67179">
        <ele>1958.0350701634</ele>
        <time>2019-07-06T12:13:34Z</time>
      </trkpt>
      <trkpt lat="45.63396" lon="6.67176">
        <ele>1958.5483793085</ele>
        <time>2019-07-06T12:13:38Z</time>
      </trkpt>
      <trkpt lat="45.63396" lon="6.67173">
        <ele>1958.9993870295</ele>
        <time>2019-07-06T12:13:40Z</time>
      </trkpt>
      <trkpt lat="45.63395" lon="6.6717">
        <ele>1959.3880670286</ele>
        <time>2019-07-06T12:13:42Z</time>
      </trkpt>
      <trkpt lat="45.63394" lon="6.67167">
        <ele>1960.0394229677</ele>
        <time>2019-07-06T12:13:45Z</time>
      </trkpt>
      <trkpt lat="45.63393" lon="6.67164">
        <ele>1960.0149322317</ele>
        <time>2019-07-06T12:13:47Z</time>
      </trkpt>
      <trkpt lat="45.63392" lon="6.67161">
        <ele>1960.3360907265</ele>
        <time>2019-07-06T12:13:50Z</time>
      </trkpt>
      <trkpt lat="45.63391" lon="6.67158">
        <ele>1960.2754465529</ele>
        <time>2019-07-06T12:13:53Z</time>
      </trkpt>
      <trkpt lat="45.63389" lon="6.67156">
        <ele>1960.5749365105</ele>
        <time>2019-07-06T12:13:55Z</time>
      </trkpt>
      <trkpt lat="45.63386" lon="6.67155">
        <ele>1960.0028520644</ele>
        <time>2019-07-06T12:13:57Z</time>
      </trkpt>
      <trkpt lat="45.63385" lon="6.67153">
        <ele>1959.9697532902</ele>
        <time>2019-07-06T12:13:59Z</time>
      </trkpt>
      <trkpt lat="45.63384" lon="6.6715">
        <ele>1960.4311256256</ele>
        <time>2019-07-06T12:14:02Z</time>
      </trkpt>
      <trkpt lat="45.63382" lon="6.67148">
        <ele>1960.4986661528</ele>
        <time>2019-07-06T12:14:04Z</time>
      </trkpt>
      <trkpt lat="45.63381" lon="6.67145">
        <ele>1960.7268571752</ele>
        <time>2019-07-06T12:14:07Z</time>
      </trkpt>
      <trkpt lat="45.6338" lon="6.67142">
        <ele>1961.1988927554</ele>
        <time>2019-07-06T12:14:09Z</time>
      </trkpt>
      <trkpt lat="45.63379" lon="6.6714">
        <ele>1961.6933067147</ele>
        <time>2019-07-06T12:14:11Z</time>
      </trkpt>
      <trkpt lat="45.63377" lon="6.6714">
        <ele>1961.5362467621</ele>
        <time>2019-07-06T12:14:14Z</time>
      </trkpt>
      <trkpt lat="45.63375" lon="6.67138">
        <ele>1961.513605083</ele>
        <time>2019-07-06T12:14:17Z</time>
      </trkpt>
      <trkpt lat="45.63374" lon="6.67136">
        <ele>1961.8533983593</ele>
        <time>2019-07-06T12:14:20Z</time>
      </trkpt>
      <trkpt lat="45.63373" lon="6.67133">
        <ele>1962.3761811165</ele>
        <time>2019-07-06T12:14:22Z</time>
      </trkpt>
      <trkpt lat="45.63372" lon="6.67129">
        <ele>1963.2699062585</ele>
        <time>2019-07-06T12:14:24Z</time>
      </trkpt>
      <trkpt lat="45.63371" lon="6.67126">
        <ele>1964.1912251017</ele>
        <time>2019-07-06T12:14:26Z</time>
      </trkpt>
      <trkpt lat="45.6337" lon="6.67123">
        <ele>1965.2884143644</ele>
        <time>2019-07-06T12:14:28Z</time>
      </trkpt>
      <trkpt lat="45.63369" lon="6.67121">
        <ele>1965.3717532003</ele>
        <time>2019-07-06T12:14:30Z</time>
      </trkpt>
      <trkpt lat="45.63367" lon="6.67117">
        <ele>1965.8603795575</ele>
        <time>2019-07-06T12:14:32Z</time>
      </trkpt>
      <trkpt lat="45.63365" lon="6.67115">
        <ele>1966.2007182725</ele>
        <time>2019-07-06T12:14:36Z</time>
      </trkpt>
      <trkpt lat="45.63364" lon="6.67113">
        <ele>1966.1678818547</ele>
        <time>2019-07-06T12:14:38Z</time>
      </trkpt>
      <trkpt lat="45.63362" lon="6.67111">
        <ele>1965.3557495477</ele>
        <time>2019-07-06T12:14:42Z</time>
      </trkpt>
      <trkpt lat="45.63361" lon="6.67109">
        <ele>1965.2137735848</ele>
        <time>2019-07-06T12:14:45Z</time>
      </trkpt>
      <trkpt lat="45.6336" lon="6.67105">
        <ele>1965.9348581109</ele>
        <time>2019-07-06T12:14:47Z</time>
      </trkpt>
      <trkpt lat="45.63359" lon="6.67102">
        <ele>1966.5099681719</ele>
        <time>2019-07-06T12:14:50Z</time>
      </trkpt>
      <trkpt lat="45.63357" lon="6.67101">
        <ele>1966.6728957404</ele>
        <time>2019-07-06T12:14:52Z</time>
      </trkpt>
      <trkpt lat="45.63355" lon="6.67098">
        <ele>1966.6480809243</ele>
        <time>2019-07-06T12:14:54Z</time>
      </trkpt>
      <trkpt lat="45.63353" lon="6.67095">
        <ele>1966.9553372892</ele>
        <time>2019-07-06T12:14:58Z</time>
      </trkpt>
      <trkpt lat="45.63352" lon="6.67093">
        <ele>1967.2760622594</ele>
        <time>2019-07-06T12:15:01Z</time>
      </trkpt>
      <trkpt lat="45.6335" lon="6.6709">
        <ele>1967.4484460855</ele>
        <time>2019-07-06T12:15:03Z</time>
      </trkpt>
      <trkpt lat="45.63348" lon="6.67088">
        <ele>1967.3725954609</ele>
        <time>2019-07-06T12:15:05Z</time>
      </trkpt>
      <trkpt lat="45.63346" lon="6.67087">
        <ele>1967.4780637613</ele>
        <time>2019-07-06T12:15:07Z</time>
      </trkpt>
      <trkpt lat="45.63345" lon="6.67085">
        <ele>1967.483739184</ele>
        <time>2019-07-06T12:15:11Z</time>
      </trkpt>
      <trkpt lat="45.63343" lon="6.67083">
        <ele>1967.5710538607</ele>
        <time>2019-07-06T12:15:13Z</time>
      </trkpt>
      <trkpt lat="45.63341" lon="6.67082">
        <ele>1967.5020539605</ele>
        <time>2019-07-06T12:15:15Z</time>
      </trkpt>
      <trkpt lat="45.63339" lon="6.67081">
        <ele>1967.6623246549</ele>
        <time>2019-07-06T12:15:17Z</time>
      </trkpt>
      <trkpt lat="45.63337" lon="6.67079">
        <ele>1967.7745596861</ele>
        <time>2019-07-06T12:15:19Z</time>
      </trkpt>
      <trkpt lat="45.63335" lon="6.67078">
        <ele>1968.1297494192</ele>
        <time>2019-07-06T12:15:21Z</time>
      </trkpt>
      <trkpt lat="45.63332" lon="6.67077">
        <ele>1968.3525795671</ele>
        <time>2019-07-06T12:15:24Z</time>
      </trkpt>
      <trkpt lat="45.6333" lon="6.67077">
        <ele>1968.6685604539</ele>
        <time>2019-07-06T12:15:27Z</time>
      </trkpt>
      <trkpt lat="45.63327" lon="6.67076">
        <ele>1968.9787875676</ele>
        <time>2019-07-06T12:15:30Z</time>
      </trkpt>
      <trkpt lat="45.63325" lon="6.67074">
        <ele>1969.3200650798</ele>
        <time>2019-07-06T12:15:33Z</time>
      </trkpt>
      <trkpt lat="45.63322" lon="6.67074">
        <ele>1969.7485052544</ele>
        <time>2019-07-06T12:15:35Z</time>
      </trkpt>
      <trkpt lat="45.6332" lon="6.67073">
        <ele>1970.0592203202</ele>
        <time>2019-07-06T12:15:37Z</time>
      </trkpt>
      <trkpt lat="45.63318" lon="6.67072">
        <ele>1970.6751338673</ele>
        <time>2019-07-06T12:15:39Z</time>
      </trkpt>
      <trkpt lat="45.63316" lon="6.67071">
        <ele>1971.1827200047</ele>
        <time>2019-07-06T12:15:41Z</time>
      </trkpt>
      <trkpt lat="45.63313" lon="6.6707">
        <ele>1971.9435091246</ele>
        <time>2019-07-06T12:15:44Z</time>
      </trkpt>
      <trkpt lat="45.63311" lon="6.6707">
        <ele>1972.1520752115</ele>
        <time>2019-07-06T12:15:47Z</time>
      </trkpt>
      <trkpt lat="45.63308" lon="6.6707">
        <ele>1972.2603705696</ele>
        <time>2019-07-06T12:15:50Z</time>
      </trkpt>
      <trkpt lat="45.63306" lon="6.6707">
        <ele>1972.0861434158</ele>
        <time>2019-07-06T12:15:53Z</time>
      </trkpt>
      <trkpt lat="45.63303" lon="6.67069">
        <ele>1972.5859853737</ele>
        <time>2019-07-06T12:15:55Z</time>
      </trkpt>
      <trkpt lat="45.63301" lon="6.67069">
        <ele>1973.3478774778</ele>
        <time>2019-07-06T12:15:58Z</time>
      </trkpt>
      <trkpt lat="45.63298" lon="6.67069">
        <ele>1973.4510428998</ele>
        <time>2019-07-06T12:16:00Z</time>
      </trkpt>
      <trkpt lat="45.63297" lon="6.67069">
        <ele>1973.7159991146</ele>
        <time>2019-07-06T12:16:02Z</time>
      </trkpt>
      <trkpt lat="45.63294" lon="6.67069">
        <ele>1974.0355104385</ele>
        <time>2019-07-06T12:16:06Z</time>
      </trkpt>
      <trkpt lat="45.63292" lon="6.67068">
        <ele>1974.4644206943</ele>
        <time>2019-07-06T12:16:08Z</time>
      </trkpt>
      <trkpt lat="45.63289" lon="6.67068">
        <ele>1974.8640857734</ele>
        <time>2019-07-06T12:16:10Z</time>
      </trkpt>
      <trkpt lat="45.63287" lon="6.67068">
        <ele>1975.201154934</ele>
        <time>2019-07-06T12:16:12Z</time>
      </trkpt>
      <trkpt lat="45.63285" lon="6.67068">
        <ele>1975.602977774</ele>
        <time>2019-07-06T12:16:14Z</time>
      </trkpt>
      <trkpt lat="45.63283" lon="6.67066">
        <ele>1975.9966463165</ele>
        <time>2019-07-06T12:16:18Z</time>
      </trkpt>
      <trkpt lat="45.63281" lon="6.67066">
        <ele>1976.8097007364</ele>
        <time>2019-07-06T12:16:21Z</time>
      </trkpt>
      <trkpt lat="45.63278" lon="6.67064">
        <ele>1977.248236816</ele>
        <time>2019-07-06T12:16:23Z</time>
      </trkpt>
      <trkpt lat="45.63276" lon="6.67064">
        <ele>1977.4864520233</ele>
        <time>2019-07-06T12:16:24Z</time>
      </trkpt>
      <trkpt lat="45.63274" lon="6.67064">
        <ele>1977.5586774246</ele>
        <time>2019-07-06T12:16:26Z</time>
      </trkpt>
      <trkpt lat="45.63272" lon="6.67066">
        <ele>1977.1638569011</ele>
        <time>2019-07-06T12:16:30Z</time>
      </trkpt>
      <trkpt lat="45.6327" lon="6.67066">
        <ele>1977.1193381921</ele>
        <time>2019-07-06T12:16:32Z</time>
      </trkpt>
      <trkpt lat="45.63268" lon="6.67066">
        <ele>1977.1275831906</ele>
        <time>2019-07-06T12:16:34Z</time>
      </trkpt>
      <trkpt lat="45.63266" lon="6.67064">
        <ele>1977.3766638266</ele>
        <time>2019-07-06T12:16:37Z</time>
      </trkpt>
      <trkpt lat="45.63263" lon="6.67063">
        <ele>1977.8525920445</ele>
        <time>2019-07-06T12:16:41Z</time>
      </trkpt>
      <trkpt lat="45.63262" lon="6.67062">
        <ele>1977.9702945972</ele>
        <time>2019-07-06T12:16:44Z</time>
      </trkpt>
      <trkpt lat="45.6326" lon="6.6706">
        <ele>1978.6325072303</ele>
        <time>2019-07-06T12:16:48Z</time>
      </trkpt>
      <trkpt lat="45.63258" lon="6.67058">
        <ele>1978.954668006</ele>
        <time>2019-07-06T12:16:50Z</time>
      </trkpt>
      <trkpt lat="45.63256" lon="6.67057">
        <ele>1979.3119594173</ele>
        <time>2019-07-06T12:16:53Z</time>
      </trkpt>
      <trkpt lat="45.63254" lon="6.67056">
        <ele>1979.5176544773</ele>
        <time>2019-07-06T12:16:56Z</time>
      </trkpt>
      <trkpt lat="45.63252" lon="6.67054">
        <ele>1980.0572743612</ele>
        <time>2019-07-06T12:16:58Z</time>
      </trkpt>
      <trkpt lat="45.6325" lon="6.67053">
        <ele>1980.5899103985</ele>
        <time>2019-07-06T12:17:02Z</time>
      </trkpt>
      <trkpt lat="45.63249" lon="6.67051">
        <ele>1981.1415515689</ele>
        <time>2019-07-06T12:17:05Z</time>
      </trkpt>
      <trkpt lat="45.63247" lon="6.67049">
        <ele>1981.5003124386</ele>
        <time>2019-07-06T12:17:08Z</time>
      </trkpt>
      <trkpt lat="45.63245" lon="6.67047">
        <ele>1981.8909901692</ele>
        <time>2019-07-06T12:17:11Z</time>
      </trkpt>
      <trkpt lat="45.63242" lon="6.67046">
        <ele>1982.1646417514</ele>
        <time>2019-07-06T12:17:13Z</time>
      </trkpt>
      <trkpt lat="45.63239" lon="6.67045">
        <ele>1982.5101187457</ele>
        <time>2019-07-06T12:17:15Z</time>
      </trkpt>
      <trkpt lat="45.63238" lon="6.67044">
        <ele>1982.8813847949</ele>
        <time>2019-07-06T12:17:17Z</time>
      </trkpt>
      <trkpt lat="45.63236" lon="6.67042">
        <ele>1983.3224934339</ele>
        <time>2019-07-06T12:17:20Z</time>
      </trkpt>
      <trkpt lat="45.63233" lon="6.6704">
        <ele>1983.7717590054</ele>
        <time>2019-07-06T12:17:23Z</time>
      </trkpt>
      <trkpt lat="45.63231" lon="6.6704">
        <ele>1984.0270761487</ele>
        <time>2019-07-06T12:17:25Z</time>
      </trkpt>
      <trkpt lat="45.63229" lon="6.67039">
        <ele>1984.2022355213</ele>
        <time>2019-07-06T12:17:27Z</time>
      </trkpt>
      <trkpt lat="45.63227" lon="6.67039">
        <ele>1984.2860220271</ele>
        <time>2019-07-06T12:17:29Z</time>
      </trkpt>
      <trkpt lat="45.63225" lon="6.67039">
        <ele>1984.413883818</ele>
        <time>2019-07-06T12:17:31Z</time>
      </trkpt>
      <trkpt lat="45.63223" lon="6.67037">
        <ele>1984.8367631155</ele>
        <time>2019-07-06T12:17:34Z</time>
      </trkpt>
      <trkpt lat="45.63221" lon="6.67035">
        <ele>1985.1073990414</ele>
        <time>2019-07-06T12:17:36Z</time>
      </trkpt>
      <trkpt lat="45.6322" lon="6.67034">
        <ele>1985.1933498348</ele>
        <time>2019-07-06T12:17:40Z</time>
      </trkpt>
      <trkpt lat="45.63218" lon="6.67031">
        <ele>1985.1463561802</ele>
        <time>2019-07-06T12:17:43Z</time>
      </trkpt>
      <trkpt lat="45.63217" lon="6.67028">
        <ele>1985.5467971016</ele>
        <time>2019-07-06T12:17:46Z</time>
      </trkpt>
      <trkpt lat="45.63218" lon="6.67025">
        <ele>1986.1469066078</ele>
        <time>2019-07-06T12:17:48Z</time>
      </trkpt>
      <trkpt lat="45.6322" lon="6.67021">
        <ele>1986.4378930544</ele>
        <time>2019-07-06T12:17:50Z</time>
      </trkpt>
      <trkpt lat="45.63221" lon="6.67019">
        <ele>1986.9517330947</ele>
        <time>2019-07-06T12:17:52Z</time>
      </trkpt>
      <trkpt lat="45.63222" lon="6.67016">
        <ele>1987.3267934357</ele>
        <time>2019-07-06T12:17:56Z</time>
      </trkpt>
      <trkpt lat="45.63224" lon="6.67014">
        <ele>1987.4393733192</ele>
        <time>2019-07-06T12:17:58Z</time>
      </trkpt>
      <trkpt lat="45.63227" lon="6.67011">
        <ele>1987.8579356415</ele>
        <time>2019-07-06T12:18:00Z</time>
      </trkpt>
      <trkpt lat="45.63229" lon="6.67009">
        <ele>1988.3520179777</ele>
        <time>2019-07-06T12:18:05Z</time>
      </trkpt>
      <trkpt lat="45.63231" lon="6.67007">
        <ele>1988.876225786</ele>
        <time>2019-07-06T12:18:09Z</time>
      </trkpt>
      <trkpt lat="45.63233" lon="6.67006">
        <ele>1989.3412860997</ele>
        <time>2019-07-06T12:18:11Z</time>
      </trkpt>
      <trkpt lat="45.63234" lon="6.67003">
        <ele>1989.9066898767</ele>
        <time>2019-07-06T12:18:13Z</time>
      </trkpt>
      <trkpt lat="45.63237" lon="6.67002">
        <ele>1990.6028008435</ele>
        <time>2019-07-06T12:18:16Z</time>
      </trkpt>
      <trkpt lat="45.63239" lon="6.67001">
        <ele>1991.3530977487</ele>
        <time>2019-07-06T12:18:18Z</time>
      </trkpt>
      <trkpt lat="45.63241" lon="6.67">
        <ele>1992.1645692236</ele>
        <time>2019-07-06T12:18:20Z</time>
      </trkpt>
      <trkpt lat="45.63243" lon="6.66999">
        <ele>1993.0203304513</ele>
        <time>2019-07-06T12:18:23Z</time>
      </trkpt>
      <trkpt lat="45.63245" lon="6.66997">
        <ele>1993.3878040507</ele>
        <time>2019-07-06T12:18:25Z</time>
      </trkpt>
      <trkpt lat="45.63247" lon="6.66996">
        <ele>1993.9695487952</ele>
        <time>2019-07-06T12:18:30Z</time>
      </trkpt>
      <trkpt lat="45.6325" lon="6.66995">
        <ele>1994.5623428284</ele>
        <time>2019-07-06T12:18:33Z</time>
      </trkpt>
      <trkpt lat="45.63252" lon="6.66995">
        <ele>1994.9303457565</ele>
        <time>2019-07-06T12:18:35Z</time>
      </trkpt>
      <trkpt lat="45.63254" lon="6.66993">
        <ele>1995.071867346</ele>
        <time>2019-07-06T12:18:38Z</time>
      </trkpt>
      <trkpt lat="45.63256" lon="6.66992">
        <ele>1995.2513199079</ele>
        <time>2019-07-06T12:18:40Z</time>
      </trkpt>
      <trkpt lat="45.63258" lon="6.6699">
        <ele>1995.5022074511</ele>
        <time>2019-07-06T12:18:42Z</time>
      </trkpt>
      <trkpt lat="45.63259" lon="6.66988">
        <ele>1995.8823161609</ele>
        <time>2019-07-06T12:18:45Z</time>
      </trkpt>
      <trkpt lat="45.63262" lon="6.66986">
        <ele>1996.3118543163</ele>
        <time>2019-07-06T12:18:49Z</time>
      </trkpt>
      <trkpt lat="45.63264" lon="6.66984">
        <ele>1996.8909588155</ele>
        <time>2019-07-06T12:18:52Z</time>
      </trkpt>
      <trkpt lat="45.63267" lon="6.66982">
        <ele>1997.5853124562</ele>
        <time>2019-07-06T12:18:55Z</time>
      </trkpt>
      <trkpt lat="45.63269" lon="6.66981">
        <ele>1998.1095317516</ele>
        <time>2019-07-06T12:18:57Z</time>
      </trkpt>
      <trkpt lat="45.63271" lon="6.66979">
        <ele>1998.6884470402</ele>
        <time>2019-07-06T12:18:59Z</time>
      </trkpt>
      <trkpt lat="45.63273" lon="6.66978">
        <ele>1999.4357694903</ele>
        <time>2019-07-06T12:19:02Z</time>
      </trkpt>
      <trkpt lat="45.63275" lon="6.66977">
        <ele>1999.998485791</ele>
        <time>2019-07-06T12:19:07Z</time>
      </trkpt>
      <trkpt lat="45.63277" lon="6.66975">
        <ele>2001.0587571413</ele>
        <time>2019-07-06T12:19:10Z</time>
      </trkpt>
      <trkpt lat="45.63278" lon="6.66973">
        <ele>2001.2303092316</ele>
        <time>2019-07-06T12:19:11Z</time>
      </trkpt>
      <trkpt lat="45.63279" lon="6.66971">
        <ele>2002.4945241998</ele>
        <time>2019-07-06T12:19:13Z</time>
      </trkpt>
      <trkpt lat="45.63279" lon="6.66968">
        <ele>2003.2540926001</ele>
        <time>2019-07-06T12:19:17Z</time>
      </trkpt>
      <trkpt lat="45.63277" lon="6.66967">
        <ele>2003.6226233616</ele>
        <time>2019-07-06T12:19:19Z</time>
      </trkpt>
      <trkpt lat="45.63275" lon="6.66966">
        <ele>2003.4957892379</ele>
        <time>2019-07-06T12:19:22Z</time>
      </trkpt>
      <trkpt lat="45.63273" lon="6.66965">
        <ele>2003.318898976</ele>
        <time>2019-07-06T12:19:25Z</time>
      </trkpt>
      <trkpt lat="45.63271" lon="6.66963">
        <ele>2003.2023217661</ele>
        <time>2019-07-06T12:19:29Z</time>
      </trkpt>
      <trkpt lat="45.63269" lon="6.66962">
        <ele>2003.0393688369</ele>
        <time>2019-07-06T12:19:31Z</time>
      </trkpt>
      <trkpt lat="45.63267" lon="6.66961">
        <ele>2002.5491553232</ele>
        <time>2019-07-06T12:19:33Z</time>
      </trkpt>
      <trkpt lat="45.63265" lon="6.66961">
        <ele>2002.109155223</ele>
        <time>2019-07-06T12:19:36Z</time>
      </trkpt>
      <trkpt lat="45.63263" lon="6.6696">
        <ele>2001.8624142222</ele>
        <time>2019-07-06T12:19:38Z</time>
      </trkpt>
      <trkpt lat="45.63261" lon="6.66958">
        <ele>2001.7332744489</ele>
        <time>2019-07-06T12:19:40Z</time>
      </trkpt>
      <trkpt lat="45.6326" lon="6.66958">
        <ele>2001.5604644965</ele>
        <time>2019-07-06T12:19:42Z</time>
      </trkpt>
      <trkpt lat="45.63257" lon="6.66956">
        <ele>2001.4255530068</ele>
        <time>2019-07-06T12:19:45Z</time>
      </trkpt>
      <trkpt lat="45.63256" lon="6.66954">
        <ele>2001.4308907001</ele>
        <time>2019-07-06T12:19:47Z</time>
      </trkpt>
      <trkpt lat="45.63253" lon="6.66951">
        <ele>2001.4842266556</ele>
        <time>2019-07-06T12:19:50Z</time>
      </trkpt>
      <trkpt lat="45.63251" lon="6.66949">
        <ele>2001.3923001904</ele>
        <time>2019-07-06T12:19:52Z</time>
      </trkpt>
      <trkpt lat="45.6325" lon="6.66947">
        <ele>2001.5821466843</ele>
        <time>2019-07-06T12:19:56Z</time>
      </trkpt>
      <trkpt lat="45.63248" lon="6.66945">
        <ele>2002.0100873242</ele>
        <time>2019-07-06T12:20:00Z</time>
      </trkpt>
      <trkpt lat="45.63246" lon="6.66944">
        <ele>2002.4801276296</ele>
        <time>2019-07-06T12:20:03Z</time>
      </trkpt>
      <trkpt lat="45.63244" lon="6.66942">
        <ele>2002.6403085166</ele>
        <time>2019-07-06T12:20:05Z</time>
      </trkpt>
      <trkpt lat="45.63241" lon="6.66942">
        <ele>2003.0344116594</ele>
        <time>2019-07-06T12:20:08Z</time>
      </trkpt>
      <trkpt lat="45.63239" lon="6.66941">
        <ele>2003.1690647285</ele>
        <time>2019-07-06T12:20:12Z</time>
      </trkpt>
      <trkpt lat="45.63237" lon="6.6694">
        <ele>2003.449845689</ele>
        <time>2019-07-06T12:20:15Z</time>
      </trkpt>
      <trkpt lat="45.63236" lon="6.66937">
        <ele>2004.1116487636</ele>
        <time>2019-07-06T12:20:17Z</time>
      </trkpt>
      <trkpt lat="45.63233" lon="6.66935">
        <ele>2004.6056227457</ele>
        <time>2019-07-06T12:20:20Z</time>
      </trkpt>
      <trkpt lat="45.63232" lon="6.66933">
        <ele>2005.3027268271</ele>
        <time>2019-07-06T12:20:23Z</time>
      </trkpt>
      <trkpt lat="45.63229" lon="6.66932">
        <ele>2005.7504001537</ele>
        <time>2019-07-06T12:20:27Z</time>
      </trkpt>
      <trkpt lat="45.63226" lon="6.66931">
        <ele>2005.9448496207</ele>
        <time>2019-07-06T12:20:29Z</time>
      </trkpt>
      <trkpt lat="45.63225" lon="6.6693">
        <ele>2006.1225753654</ele>
        <time>2019-07-06T12:20:31Z</time>
      </trkpt>
      <trkpt lat="45.63222" lon="6.66929">
        <ele>2006.4638081893</ele>
        <time>2019-07-06T12:20:33Z</time>
      </trkpt>
      <trkpt lat="45.6322" lon="6.66928">
        <ele>2006.7603357519</ele>
        <time>2019-07-06T12:20:35Z</time>
      </trkpt>
      <trkpt lat="45.63218" lon="6.66928">
        <ele>2006.8019017008</ele>
        <time>2019-07-06T12:20:39Z</time>
      </trkpt>
      <trkpt lat="45.63216" lon="6.66927">
        <ele>2007.01399586</ele>
        <time>2019-07-06T12:20:42Z</time>
      </trkpt>
      <trkpt lat="45.63213" lon="6.66927">
        <ele>2007.1772274854</ele>
        <time>2019-07-06T12:20:45Z</time>
      </trkpt>
      <trkpt lat="45.63211" lon="6.66926">
        <ele>2007.2549552964</ele>
        <time>2019-07-06T12:20:47Z</time>
      </trkpt>
      <trkpt lat="45.6321" lon="6.66923">
        <ele>2007.9965200449</ele>
        <time>2019-07-06T12:20:52Z</time>
      </trkpt>
      <trkpt lat="45.63208" lon="6.66921">
        <ele>2008.4931614256</ele>
        <time>2019-07-06T12:20:55Z</time>
      </trkpt>
      <trkpt lat="45.63205" lon="6.66921">
        <ele>2008.7869964717</ele>
        <time>2019-07-06T12:20:57Z</time>
      </trkpt>
      <trkpt lat="45.63203" lon="6.66919">
        <ele>2008.913708738</ele>
        <time>2019-07-06T12:21:00Z</time>
      </trkpt>
      <trkpt lat="45.63203" lon="6.66916">
        <ele>2009.6322053628</ele>
        <time>2019-07-06T12:21:02Z</time>
      </trkpt>
      <trkpt lat="45.63204" lon="6.66913">
        <ele>2010.6301108316</ele>
        <time>2019-07-06T12:21:05Z</time>
      </trkpt>
      <trkpt lat="45.63205" lon="6.6691">
        <ele>2010.9129739715</ele>
        <time>2019-07-06T12:21:08Z</time>
      </trkpt>
      <trkpt lat="45.63207" lon="6.66909">
        <ele>2011.7656970201</ele>
        <time>2019-07-06T12:21:11Z</time>
      </trkpt>
      <trkpt lat="45.63209" lon="6.66909">
        <ele>2012.0954292388</ele>
        <time>2019-07-06T12:21:15Z</time>
      </trkpt>
      <trkpt lat="45.63212" lon="6.66911">
        <ele>2011.6797281342</ele>
        <time>2019-07-06T12:21:17Z</time>
      </trkpt>
      <trkpt lat="45.63212" lon="6.66914">
        <ele>2010.762706517</ele>
        <time>2019-07-06T12:21:23Z</time>
      </trkpt>
      <trkpt lat="45.63214" lon="6.66913">
        <ele>2010.5751934812</ele>
        <time>2019-07-06T12:21:26Z</time>
      </trkpt>
      <trkpt lat="45.63216" lon="6.66914">
        <ele>2010.8388828304</ele>
        <time>2019-07-06T12:21:46Z</time>
      </trkpt>
      <trkpt lat="45.63217" lon="6.66916">
        <ele>2010.427245678</ele>
        <time>2019-07-06T12:21:48Z</time>
      </trkpt>
      <trkpt lat="45.63218" lon="6.66918">
        <ele>2009.5798601552</ele>
        <time>2019-07-06T12:21:54Z</time>
      </trkpt>
      <trkpt lat="45.63219" lon="6.6692">
        <ele>2009.1250633692</ele>
        <time>2019-07-06T12:21:57Z</time>
      </trkpt>
      <trkpt lat="45.63221" lon="6.66922">
        <ele>2010.3451765147</ele>
        <time>2019-07-06T12:22:01Z</time>
      </trkpt>
      <trkpt lat="45.63224" lon="6.66924">
        <ele>2010.3616373498</ele>
        <time>2019-07-06T12:22:03Z</time>
      </trkpt>
      <trkpt lat="45.63226" lon="6.66926">
        <ele>2011.6415001051</ele>
        <time>2019-07-06T12:22:04Z</time>
      </trkpt>
      <trkpt lat="45.63228" lon="6.66928">
        <ele>2012.6693969676</ele>
        <time>2019-07-06T12:22:05Z</time>
      </trkpt>
      <trkpt lat="45.6323" lon="6.66931">
        <ele>2013.5035134319</ele>
        <time>2019-07-06T12:22:06Z</time>
      </trkpt>
      <trkpt lat="45.63232" lon="6.66934">
        <ele>2014.1802457828</ele>
        <time>2019-07-06T12:22:07Z</time>
      </trkpt>
      <trkpt lat="45.63234" lon="6.66936">
        <ele>2014.729183007</ele>
        <time>2019-07-06T12:22:08Z</time>
      </trkpt>
      <trkpt lat="45.63236" lon="6.66939">
        <ele>2015.1743738612</ele>
        <time>2019-07-06T12:22:09Z</time>
      </trkpt>
      <trkpt lat="45.63239" lon="6.66941">
        <ele>2015.5353594045</ele>
        <time>2019-07-06T12:22:10Z</time>
      </trkpt>
      <trkpt lat="45.63241" lon="6.66944">
        <ele>2016.998633017</ele>
        <time>2019-07-06T12:22:11Z</time>
      </trkpt>
    </trkseg>
  </trk>
</gpx>